<?xml version='1.0' encoding='UTF-8'?>
<gpx xmlns="http://www.topografix.com/GPX/1/1" creator="www.balnam.be" version="1.1" xmlns:xsi="http://www.w3.org/2001/XMLSchema-instance" xsi:schemaLocation="http://www.topografix.com/GPX/1/1 http://www.topografix.com/GPX/1/1/gpx.xsd">
<trk>
<name>lpbgm1</name>
<cmt>d</cmt>
<desc>Gemmenich Chemin n°1 Route des Trois Bornes / Völkerich</desc>
<link href="https://chemins.be/gemmenich/chemin/1"/><trkseg>
<trkpt lat="50.753497" lon="6.020905"><time>2026-05-06T18:28:17Z</time></trkpt>
<trkpt lat="50.753804" lon="6.019403"><time>2026-05-06T18:38:17Z</time></trkpt>
<trkpt lat="50.753623" lon="6.018287"><time>2026-05-06T18:48:17Z</time></trkpt>
<trkpt lat="50.753334" lon="6.017400"><time>2026-05-06T18:58:17Z</time></trkpt>
<trkpt lat="50.752915" lon="6.017240"><time>2026-05-06T19:08:17Z</time></trkpt>
</trkseg></trk>
<trk>
<name>lpbgm1</name>
<cmt>v</cmt>
<desc>Gemmenich Chemin n°1 Route des Trois Bornes / Völkerich</desc>
<link href="https://chemins.be/gemmenich/chemin/1"/><trkseg>
<trkpt lat="50.752915" lon="6.017240"><time>2026-05-06T19:08:17Z</time></trkpt>
<trkpt lat="50.752361" lon="6.017029"><time>2026-05-06T19:18:17Z</time></trkpt>
</trkseg></trk>
<trk>
<name>lpbgm1</name>
<cmt>r</cmt>
<desc>Gemmenich Chemin n°1 Route des Trois Bornes / Völkerich</desc>
<link href="https://chemins.be/gemmenich/chemin/1"/><trkseg>
<trkpt lat="50.752361" lon="6.017029"><time>2026-05-06T19:18:17Z</time></trkpt>
<trkpt lat="50.751343" lon="6.014854"><time>2026-05-06T19:28:17Z</time></trkpt>
</trkseg></trk>
<trk>
<name>lpbgm1</name>
<cmt>s</cmt>
<desc>Gemmenich Chemin n°1 Route des Trois Bornes / Völkerich</desc>
<link href="https://chemins.be/gemmenich/chemin/1"/><trkseg>
<trkpt lat="50.751343" lon="6.014854"><time>2026-05-06T19:28:17Z</time></trkpt>
<trkpt lat="50.750528" lon="6.014314"><time>2026-05-06T19:38:17Z</time></trkpt>
<trkpt lat="50.750003" lon="6.013269"><time>2026-05-06T19:48:17Z</time></trkpt>
<trkpt lat="50.749946" lon="6.012560"><time>2026-05-06T19:58:17Z</time></trkpt>
</trkseg></trk>
<trk>
<name>lpbgm1</name>
<cmt>d</cmt>
<desc>Gemmenich Chemin n°1 Route des Trois Bornes / Völkerich</desc>
<link href="https://chemins.be/gemmenich/chemin/1"/><trkseg>
<trkpt lat="50.749946" lon="6.012560"><time>2026-05-06T19:58:17Z</time></trkpt>
<trkpt lat="50.750001" lon="6.011041"><time>2026-05-06T20:08:17Z</time></trkpt>
<trkpt lat="50.749788" lon="6.009790"><time>2026-05-06T20:18:17Z</time></trkpt>
<trkpt lat="50.749852" lon="6.008209"><time>2026-05-06T20:28:17Z</time></trkpt>
</trkseg></trk>
<trk>
<name>lpbgm1</name>
<cmt>r</cmt>
<desc>Gemmenich Chemin n°1 Route des Trois Bornes / Völkerich</desc>
<link href="https://chemins.be/gemmenich/chemin/1"/><trkseg>
<trkpt lat="50.749852" lon="6.008209"><time>2026-05-06T20:28:17Z</time></trkpt>
<trkpt lat="50.748238" lon="6.002768"><time>2026-05-06T20:38:17Z</time></trkpt>
<trkpt lat="50.748007" lon="6.000890"><time>2026-05-06T20:48:17Z</time></trkpt>
<trkpt lat="50.747337" lon="5.999541"><time>2026-05-06T20:58:17Z</time></trkpt>
<trkpt lat="50.746407" lon="5.996832"><time>2026-05-06T21:08:17Z</time></trkpt>
<trkpt lat="50.746988" lon="5.995472"><time>2026-05-06T21:18:17Z</time></trkpt>
<trkpt lat="50.746174" lon="5.993777"><time>2026-05-06T21:28:17Z</time></trkpt>
<trkpt lat="50.746193" lon="5.993424"><time>2026-05-06T21:38:17Z</time></trkpt>
<trkpt lat="50.746914" lon="5.991095"><time>2026-05-06T21:48:17Z</time></trkpt>
<trkpt lat="50.744228" lon="5.987817"><time>2026-05-06T21:58:17Z</time></trkpt>
<trkpt lat="50.743273" lon="5.984515"><time>2026-05-06T22:08:17Z</time></trkpt>
<trkpt lat="50.742914" lon="5.984204"><time>2026-05-06T22:18:17Z</time></trkpt>
<trkpt lat="50.743029" lon="5.983394"><time>2026-05-06T22:28:17Z</time></trkpt>
<trkpt lat="50.742839" lon="5.983308"><time>2026-05-06T22:38:17Z</time></trkpt>
</trkseg></trk>
<trk>
<name>lpbgm1</name>
<cmt>s</cmt>
<desc>Gemmenich Chemin n°1 Route des Trois Bornes / Völkerich</desc>
<link href="https://chemins.be/gemmenich/chemin/1"/><trkseg>
<trkpt lat="50.742839" lon="5.983308"><time>2026-05-06T22:38:17Z</time></trkpt>
<trkpt lat="50.742478" lon="5.981798"><time>2026-05-06T22:48:17Z</time></trkpt>
<trkpt lat="50.742483" lon="5.978444"><time>2026-05-06T22:58:17Z</time></trkpt>
</trkseg></trk>
<trk>
<name>lpbgm1</name>
<cmt>v</cmt>
<desc>Gemmenich Chemin n°1 Route des Trois Bornes / Völkerich</desc>
<link href="https://chemins.be/gemmenich/chemin/1"/><trkseg>
<trkpt lat="50.742483" lon="5.978444"><time>2026-05-06T22:58:17Z</time></trkpt>
<trkpt lat="50.744004" lon="5.977628"><time>2026-05-06T23:08:17Z</time></trkpt>
</trkseg></trk>
<trk>
<name>lpbgm1</name>
<cmt>r</cmt>
<desc>Gemmenich Chemin n°1 Route des Trois Bornes / Völkerich</desc>
<link href="https://chemins.be/gemmenich/chemin/1"/><trkseg>
<trkpt lat="50.744004" lon="5.977628"><time>2026-05-06T23:08:17Z</time></trkpt>
<trkpt lat="50.744298" lon="5.977156"><time>2026-05-06T23:18:17Z</time></trkpt>
<trkpt lat="50.744311" lon="5.976348"><time>2026-05-06T23:28:17Z</time></trkpt>
<trkpt lat="50.744660" lon="5.975025"><time>2026-05-06T23:38:17Z</time></trkpt>
<trkpt lat="50.744053" lon="5.973451"><time>2026-05-06T23:48:17Z</time></trkpt>
<trkpt lat="50.742581" lon="5.971581"><time>2026-05-06T23:58:17Z</time></trkpt>
<trkpt lat="50.742549" lon="5.970624"><time>2026-05-07T00:08:17Z</time></trkpt>
<trkpt lat="50.742684" lon="5.970397"><time>2026-05-07T00:18:17Z</time></trkpt>
</trkseg></trk>
<trk>
<name>lpbgm1</name>
<cmt>v</cmt>
<desc>Gemmenich Chemin n°1 Route des Trois Bornes / Völkerich</desc>
<link href="https://chemins.be/gemmenich/chemin/1"/><trkseg>
<trkpt lat="50.742684" lon="5.970397"><time>2026-05-07T00:18:17Z</time></trkpt>
<trkpt lat="50.742841" lon="5.969800"><time>2026-05-07T00:28:17Z</time></trkpt>
<trkpt lat="50.742967" lon="5.967336"><time>2026-05-07T00:38:17Z</time></trkpt>
<trkpt lat="50.742717" lon="5.966220"><time>2026-05-07T00:48:17Z</time></trkpt>
<trkpt lat="50.742809" lon="5.965483"><time>2026-05-07T00:58:17Z</time></trkpt>
<trkpt lat="50.742853" lon="5.965358"><time>2026-05-07T01:08:17Z</time></trkpt>
</trkseg></trk>
<trk>
<name>lpbgm1</name>
<cmt>d</cmt>
<desc>Gemmenich Chemin n°1 Route des Trois Bornes / Völkerich</desc>
<link href="https://chemins.be/gemmenich/chemin/1"/><trkseg>
<trkpt lat="50.742853" lon="5.965358"><time>2026-05-07T01:08:17Z</time></trkpt>
<trkpt lat="50.743104" lon="5.964825"><time>2026-05-07T01:18:17Z</time></trkpt>
<trkpt lat="50.743025" lon="5.964176"><time>2026-05-07T01:28:17Z</time></trkpt>
<trkpt lat="50.742936" lon="5.963366"><time>2026-05-07T01:38:17Z</time></trkpt>
<trkpt lat="50.742972" lon="5.962858"><time>2026-05-07T01:48:17Z</time></trkpt>
</trkseg>
</trk>
<trk>
<name>lpbgm10</name>
<cmt>v</cmt>
<desc>Gemmenich Chemin n°10 Gérardsbroich / Höfke</desc>
<link href="https://chemins.be/gemmenich/chemin/10"/><trkseg>
<trkpt lat="50.753886" lon="5.972725"><time>2026-05-06T18:28:17Z</time></trkpt>
<trkpt lat="50.753307" lon="5.973014"><time>2026-05-06T18:38:17Z</time></trkpt>
</trkseg></trk>
<trk>
<name>lpbgm10</name>
<cmt>d</cmt>
<desc>Gemmenich Chemin n°10 Gérardsbroich / Höfke</desc>
<link href="https://chemins.be/gemmenich/chemin/10"/><trkseg>
<trkpt lat="50.753307" lon="5.973014"><time>2026-05-06T18:38:17Z</time></trkpt>
<trkpt lat="50.753279" lon="5.973277"><time>2026-05-06T18:48:17Z</time></trkpt>
<trkpt lat="50.752849" lon="5.973815"><time>2026-05-06T18:58:17Z</time></trkpt>
<trkpt lat="50.752404" lon="5.973940"><time>2026-05-06T19:08:17Z</time></trkpt>
</trkseg></trk>
<trk>
<name>lpbgm10</name>
<cmt>v</cmt>
<desc>Gemmenich Chemin n°10 Gérardsbroich / Höfke</desc>
<link href="https://chemins.be/gemmenich/chemin/10"/><trkseg>
<trkpt lat="50.752404" lon="5.973940"><time>2026-05-06T19:08:17Z</time></trkpt>
<trkpt lat="50.751845" lon="5.973701"><time>2026-05-06T19:18:17Z</time></trkpt>
</trkseg></trk>
<trk>
<name>lpbgm10</name>
<cmt>r</cmt>
<desc>Gemmenich Chemin n°10 Gérardsbroich / Höfke</desc>
<link href="https://chemins.be/gemmenich/chemin/10"/><trkseg>
<trkpt lat="50.751845" lon="5.973701"><time>2026-05-06T19:18:17Z</time></trkpt>
<trkpt lat="50.751274" lon="5.973330"><time>2026-05-06T19:28:17Z</time></trkpt>
<trkpt lat="50.750661" lon="5.972519"><time>2026-05-06T19:38:17Z</time></trkpt>
<trkpt lat="50.750168" lon="5.970052"><time>2026-05-06T19:48:17Z</time></trkpt>
<trkpt lat="50.748996" lon="5.969558"><time>2026-05-06T19:58:17Z</time></trkpt>
<trkpt lat="50.748380" lon="5.968693"><time>2026-05-06T20:08:17Z</time></trkpt>
<trkpt lat="50.748363" lon="5.967675"><time>2026-05-06T20:18:17Z</time></trkpt>
</trkseg></trk>
<trk>
<name>lpbgm10</name>
<cmt>d</cmt>
<desc>Gemmenich Chemin n°10 Gérardsbroich / Höfke</desc>
<link href="https://chemins.be/gemmenich/chemin/10"/><trkseg>
<trkpt lat="50.748363" lon="5.967675"><time>2026-05-06T20:18:17Z</time></trkpt>
<trkpt lat="50.747923" lon="5.965667"><time>2026-05-06T20:28:17Z</time></trkpt>
<trkpt lat="50.747593" lon="5.965217"><time>2026-05-06T20:38:17Z</time></trkpt>
</trkseg></trk>
<trk>
<name>lpbgm10</name>
<cmt>r</cmt>
<desc>Gemmenich Chemin n°10 Gérardsbroich / Höfke</desc>
<link href="https://chemins.be/gemmenich/chemin/10"/><trkseg>
<trkpt lat="50.747593" lon="5.965217"><time>2026-05-06T20:38:17Z</time></trkpt>
<trkpt lat="50.747252" lon="5.961968"><time>2026-05-06T20:48:17Z</time></trkpt>
<trkpt lat="50.746396" lon="5.957375"><time>2026-05-06T20:58:17Z</time></trkpt>
<trkpt lat="50.746384" lon="5.956963"><time>2026-05-06T21:08:17Z</time></trkpt>
</trkseg></trk>
<trk>
<name>lpbgm10</name>
<cmt>v</cmt>
<desc>Gemmenich Chemin n°10 Gérardsbroich / Höfke</desc>
<link href="https://chemins.be/gemmenich/chemin/10"/><trkseg>
<trkpt lat="50.746384" lon="5.956963"><time>2026-05-06T21:08:17Z</time></trkpt>
<trkpt lat="50.746229" lon="5.955330"><time>2026-05-06T21:18:17Z</time></trkpt>
<trkpt lat="50.746446" lon="5.953907"><time>2026-05-06T21:28:17Z</time></trkpt>
<trkpt lat="50.746346" lon="5.952748"><time>2026-05-06T21:38:17Z</time></trkpt>
<trkpt lat="50.746591" lon="5.952426"><time>2026-05-06T21:48:17Z</time></trkpt>
<trkpt lat="50.746790" lon="5.952569"><time>2026-05-06T21:58:17Z</time></trkpt>
<trkpt lat="50.747478" lon="5.951768"><time>2026-05-06T22:08:17Z</time></trkpt>
<trkpt lat="50.747188" lon="5.950529"><time>2026-05-06T22:18:17Z</time></trkpt>
<trkpt lat="50.747206" lon="5.950207"><time>2026-05-06T22:28:17Z</time></trkpt>
</trkseg>
</trk>
<trk>
<name>lpbgm100</name>
<cmt>d</cmt>
<desc>Gemmenich Sentier n°100 </desc>
<link href="https://chemins.be/gemmenich/sentier/100"/><trkseg>
<trkpt lat="50.754454" lon="5.965509"><time>2026-05-06T18:28:17Z</time></trkpt>
<trkpt lat="50.754440" lon="5.966206"><time>2026-05-06T18:38:17Z</time></trkpt>
<trkpt lat="50.755163" lon="5.966957"><time>2026-05-06T18:48:17Z</time></trkpt>
</trkseg>
</trk>
<trk>
<name>lpbgm101</name>
<cmt>d</cmt>
<desc>Gemmenich Sentier n°101 </desc>
<link href="https://chemins.be/gemmenich/sentier/101"/><trkseg>
<trkpt lat="50.748139" lon="5.984616"><time>2026-05-06T18:28:17Z</time></trkpt>
<trkpt lat="50.748419" lon="5.985110"><time>2026-05-06T18:38:17Z</time></trkpt>
<trkpt lat="50.748715" lon="5.986762"><time>2026-05-06T18:48:17Z</time></trkpt>
<trkpt lat="50.748968" lon="5.987127"><time>2026-05-06T18:58:17Z</time></trkpt>
<trkpt lat="50.749086" lon="5.987449"><time>2026-05-06T19:08:17Z</time></trkpt>
<trkpt lat="50.749575" lon="5.987506"><time>2026-05-06T19:18:17Z</time></trkpt>
<trkpt lat="50.750448" lon="5.989094"><time>2026-05-06T19:28:17Z</time></trkpt>
<trkpt lat="50.751382" lon="5.989497"><time>2026-05-06T19:38:17Z</time></trkpt>
<trkpt lat="50.752168" lon="5.990310"><time>2026-05-06T19:48:17Z</time></trkpt>
</trkseg>
</trk>
<trk>
<name>lpbgm101bis</name>
<cmt>d</cmt>
<desc>Gemmenich Sentier n°101bis </desc>
<link href="https://chemins.be/gemmenich/sentier/101bis"/><trkseg>
<trkpt lat="50.748693" lon="5.986762"><time>2026-05-06T18:28:17Z</time></trkpt>
<trkpt lat="50.748956" lon="5.987978"><time>2026-05-06T18:38:17Z</time></trkpt>
</trkseg>
</trk>
<trk>
<name>lpbgm102</name>
<cmt>v</cmt>
<desc>Gemmenich Sentier n°102 </desc>
<link href="https://chemins.be/gemmenich/sentier/102"/><trkseg>
<trkpt lat="50.749343" lon="5.992549"><time>2026-05-06T18:28:17Z</time></trkpt>
<trkpt lat="50.749907" lon="5.991733"><time>2026-05-06T18:38:17Z</time></trkpt>
<trkpt lat="50.750058" lon="5.991410"><time>2026-05-06T18:48:17Z</time></trkpt>
<trkpt lat="50.750273" lon="5.990781"><time>2026-05-06T18:58:17Z</time></trkpt>
</trkseg></trk>
<trk>
<name>lpbgm102</name>
<cmt>d</cmt>
<desc>Gemmenich Sentier n°102 </desc>
<link href="https://chemins.be/gemmenich/sentier/102"/><trkseg>
<trkpt lat="50.750273" lon="5.990781"><time>2026-05-06T18:58:17Z</time></trkpt>
<trkpt lat="50.750870" lon="5.989905"><time>2026-05-06T19:08:17Z</time></trkpt>
<trkpt lat="50.751277" lon="5.989518"><time>2026-05-06T19:18:17Z</time></trkpt>
<trkpt lat="50.751373" lon="5.989519"><time>2026-05-06T19:28:17Z</time></trkpt>
</trkseg>
</trk>
<trk>
<name>lpbgm104</name>
<cmt>q</cmt>
<desc>Gemmenich Sentier n°104 </desc>
<link href="https://chemins.be/gemmenich/sentier/104"/><trkseg>
<trkpt lat="50.736390" lon="5.984047"><time>2026-05-06T18:28:17Z</time></trkpt>
<trkpt lat="50.736279" lon="5.983224"><time>2026-05-06T18:38:17Z</time></trkpt>
<trkpt lat="50.737262" lon="5.982158"><time>2026-05-06T18:48:17Z</time></trkpt>
</trkseg>
</trk>
<trk>
<name>lpbgm11</name>
<cmt>v</cmt>
<desc>Gemmenich Chemin n°11 Völkerich / Belle-Vue / Chemin de Roerberg</desc>
<link href="https://chemins.be/gemmenich/chemin/11"/><trkseg>
<trkpt lat="50.760974" lon="5.966327"><time>2026-05-06T18:28:17Z</time></trkpt>
<trkpt lat="50.759175" lon="5.965179"><time>2026-05-06T18:38:17Z</time></trkpt>
<trkpt lat="50.758483" lon="5.963892"><time>2026-05-06T18:48:17Z</time></trkpt>
<trkpt lat="50.757316" lon="5.965072"><time>2026-05-06T18:58:17Z</time></trkpt>
<trkpt lat="50.756949" lon="5.966037"><time>2026-05-06T19:08:17Z</time></trkpt>
<trkpt lat="50.756375" lon="5.966078"><time>2026-05-06T19:18:17Z</time></trkpt>
<trkpt lat="50.755419" lon="5.964948"><time>2026-05-06T19:28:17Z</time></trkpt>
</trkseg></trk>
<trk>
<name>lpbgm11</name>
<cmt>r</cmt>
<desc>Gemmenich Chemin n°11 Völkerich / Belle-Vue / Chemin de Roerberg</desc>
<link href="https://chemins.be/gemmenich/chemin/11"/><trkseg>
<trkpt lat="50.755419" lon="5.964948"><time>2026-05-06T19:28:17Z</time></trkpt>
<trkpt lat="50.755320" lon="5.965544"><time>2026-05-06T19:38:17Z</time></trkpt>
<trkpt lat="50.754454" lon="5.965516"><time>2026-05-06T19:48:17Z</time></trkpt>
<trkpt lat="50.754004" lon="5.965501"><time>2026-05-06T19:58:17Z</time></trkpt>
<trkpt lat="50.753994" lon="5.965987"><time>2026-05-06T20:08:17Z</time></trkpt>
</trkseg></trk>
<trk>
<name>lpbgm11</name>
<cmt>v</cmt>
<desc>Gemmenich Chemin n°11 Völkerich / Belle-Vue / Chemin de Roerberg</desc>
<link href="https://chemins.be/gemmenich/chemin/11"/><trkseg>
<trkpt lat="50.753994" lon="5.965987"><time>2026-05-06T20:08:17Z</time></trkpt>
<trkpt lat="50.753408" lon="5.966120"><time>2026-05-06T20:18:17Z</time></trkpt>
</trkseg></trk>
<trk>
<name>lpbgm11</name>
<cmt>d</cmt>
<desc>Gemmenich Chemin n°11 Völkerich / Belle-Vue / Chemin de Roerberg</desc>
<link href="https://chemins.be/gemmenich/chemin/11"/><trkseg>
<trkpt lat="50.753408" lon="5.966120"><time>2026-05-06T20:18:17Z</time></trkpt>
<trkpt lat="50.752630" lon="5.966234"><time>2026-05-06T20:28:17Z</time></trkpt>
<trkpt lat="50.751272" lon="5.968158"><time>2026-05-06T20:38:17Z</time></trkpt>
<trkpt lat="50.750629" lon="5.969517"><time>2026-05-06T20:48:17Z</time></trkpt>
<trkpt lat="50.750150" lon="5.970032"><time>2026-05-06T20:58:17Z</time></trkpt>
</trkseg></trk>
<trk>
<name>lpbgm11</name>
<cmt>v</cmt>
<desc>Gemmenich Chemin n°11 Völkerich / Belle-Vue / Chemin de Roerberg</desc>
<link href="https://chemins.be/gemmenich/chemin/11"/><trkseg>
<trkpt lat="50.750150" lon="5.970032"><time>2026-05-06T20:58:17Z</time></trkpt>
<trkpt lat="50.747882" lon="5.974402"><time>2026-05-06T21:08:17Z</time></trkpt>
<trkpt lat="50.747457" lon="5.975382"><time>2026-05-06T21:18:17Z</time></trkpt>
</trkseg></trk>
<trk>
<name>lpbgm11</name>
<cmt>r</cmt>
<desc>Gemmenich Chemin n°11 Völkerich / Belle-Vue / Chemin de Roerberg</desc>
<link href="https://chemins.be/gemmenich/chemin/11"/><trkseg>
<trkpt lat="50.747457" lon="5.975382"><time>2026-05-06T21:18:17Z</time></trkpt>
<trkpt lat="50.746158" lon="5.975178"><time>2026-05-06T21:28:17Z</time></trkpt>
<trkpt lat="50.745774" lon="5.975276"><time>2026-05-06T21:38:17Z</time></trkpt>
</trkseg></trk>
<trk>
<name>lpbgm11</name>
<cmt>d</cmt>
<desc>Gemmenich Chemin n°11 Völkerich / Belle-Vue / Chemin de Roerberg</desc>
<link href="https://chemins.be/gemmenich/chemin/11"/><trkseg>
<trkpt lat="50.745774" lon="5.975276"><time>2026-05-06T21:38:17Z</time></trkpt>
<trkpt lat="50.745133" lon="5.975426"><time>2026-05-06T21:48:17Z</time></trkpt>
</trkseg></trk>
<trk>
<name>lpbgm11</name>
<cmt>v</cmt>
<desc>Gemmenich Chemin n°11 Völkerich / Belle-Vue / Chemin de Roerberg</desc>
<link href="https://chemins.be/gemmenich/chemin/11"/><trkseg>
<trkpt lat="50.745133" lon="5.975426"><time>2026-05-06T21:48:17Z</time></trkpt>
<trkpt lat="50.744732" lon="5.975519"><time>2026-05-06T21:58:17Z</time></trkpt>
</trkseg></trk>
<trk>
<name>lpbgm11</name>
<cmt>r</cmt>
<desc>Gemmenich Chemin n°11 Völkerich / Belle-Vue / Chemin de Roerberg</desc>
<link href="https://chemins.be/gemmenich/chemin/11"/><trkseg>
<trkpt lat="50.744732" lon="5.975519"><time>2026-05-06T21:58:17Z</time></trkpt>
<trkpt lat="50.744508" lon="5.975636"><time>2026-05-06T22:08:17Z</time></trkpt>
<trkpt lat="50.744287" lon="5.976362"><time>2026-05-06T22:18:17Z</time></trkpt>
<trkpt lat="50.744242" lon="5.977199"><time>2026-05-06T22:28:17Z</time></trkpt>
<trkpt lat="50.743950" lon="5.977682"><time>2026-05-06T22:38:17Z</time></trkpt>
</trkseg></trk>
<trk>
<name>lpbgm11</name>
<cmt>v</cmt>
<desc>Gemmenich Chemin n°11 Völkerich / Belle-Vue / Chemin de Roerberg</desc>
<link href="https://chemins.be/gemmenich/chemin/11"/><trkseg>
<trkpt lat="50.743950" lon="5.977682"><time>2026-05-06T22:38:17Z</time></trkpt>
<trkpt lat="50.742153" lon="5.978603"><time>2026-05-06T22:48:17Z</time></trkpt>
<trkpt lat="50.741652" lon="5.978993"><time>2026-05-06T22:58:17Z</time></trkpt>
<trkpt lat="50.741109" lon="5.979947"><time>2026-05-06T23:08:17Z</time></trkpt>
<trkpt lat="50.740404" lon="5.980675"><time>2026-05-06T23:18:17Z</time></trkpt>
</trkseg></trk>
<trk>
<name>lpbgm11</name>
<cmt>r</cmt>
<desc>Gemmenich Chemin n°11 Völkerich / Belle-Vue / Chemin de Roerberg</desc>
<link href="https://chemins.be/gemmenich/chemin/11"/><trkseg>
<trkpt lat="50.740404" lon="5.980675"><time>2026-05-06T23:18:17Z</time></trkpt>
<trkpt lat="50.739906" lon="5.980511"><time>2026-05-06T23:28:17Z</time></trkpt>
<trkpt lat="50.738670" lon="5.979558"><time>2026-05-06T23:38:17Z</time></trkpt>
<trkpt lat="50.738005" lon="5.980639"><time>2026-05-06T23:48:17Z</time></trkpt>
</trkseg></trk>
<trk>
<name>lpbgm11</name>
<cmt>v</cmt>
<desc>Gemmenich Chemin n°11 Völkerich / Belle-Vue / Chemin de Roerberg</desc>
<link href="https://chemins.be/gemmenich/chemin/11"/><trkseg>
<trkpt lat="50.738005" lon="5.980639"><time>2026-05-06T23:48:17Z</time></trkpt>
<trkpt lat="50.736910" lon="5.979202"><time>2026-05-06T23:58:17Z</time></trkpt>
<trkpt lat="50.735579" lon="5.978638"><time>2026-05-07T00:08:17Z</time></trkpt>
<trkpt lat="50.735288" lon="5.978515"><time>2026-05-07T00:18:17Z</time></trkpt>
<trkpt lat="50.734478" lon="5.977900"><time>2026-05-07T00:28:17Z</time></trkpt>
<trkpt lat="50.733052" lon="5.976970"><time>2026-05-07T00:38:17Z</time></trkpt>
<trkpt lat="50.731987" lon="5.977968"><time>2026-05-07T00:48:17Z</time></trkpt>
<trkpt lat="50.731520" lon="5.977882"><time>2026-05-07T00:58:17Z</time></trkpt>
<trkpt lat="50.731118" lon="5.977710"><time>2026-05-07T01:08:17Z</time></trkpt>
</trkseg>
</trk>
<trk>
<name>lpbgm12</name>
<cmt>v</cmt>
<desc>Gemmenich Chemin n°12 </desc>
<link href="https://chemins.be/gemmenich/chemin/12"/><trkseg>
<trkpt lat="50.748224" lon="5.992824"><time>2026-05-06T18:28:17Z</time></trkpt>
<trkpt lat="50.748414" lon="5.992844"><time>2026-05-06T18:38:17Z</time></trkpt>
<trkpt lat="50.748524" lon="5.992864"><time>2026-05-06T18:48:17Z</time></trkpt>
<trkpt lat="50.748734" lon="5.992834"><time>2026-05-06T18:58:17Z</time></trkpt>
<trkpt lat="50.748814" lon="5.992764"><time>2026-05-06T19:08:17Z</time></trkpt>
<trkpt lat="50.748954" lon="5.992694"><time>2026-05-06T19:18:17Z</time></trkpt>
<trkpt lat="50.749134" lon="5.992624"><time>2026-05-06T19:28:17Z</time></trkpt>
<trkpt lat="50.749284" lon="5.992584"><time>2026-05-06T19:38:17Z</time></trkpt>
<trkpt lat="50.750335" lon="5.992747"><time>2026-05-06T19:48:17Z</time></trkpt>
<trkpt lat="50.750670" lon="5.992611"><time>2026-05-06T19:58:17Z</time></trkpt>
<trkpt lat="50.750847" lon="5.992010"><time>2026-05-06T20:08:17Z</time></trkpt>
<trkpt lat="50.752175" lon="5.990388"><time>2026-05-06T20:18:17Z</time></trkpt>
<trkpt lat="50.752459" lon="5.990146"><time>2026-05-06T20:28:17Z</time></trkpt>
<trkpt lat="50.752941" lon="5.990057"><time>2026-05-06T20:38:17Z</time></trkpt>
</trkseg>
</trk>
<trk>
<name>lpbgm13</name>
<cmt>v</cmt>
<desc>Gemmenich Chemin n°13 Droegweide / Route des Trois Bornes</desc>
<link href="https://chemins.be/gemmenich/chemin/13"/><trkseg>
<trkpt lat="50.748947" lon="6.002400"><time>2026-05-06T18:28:17Z</time></trkpt>
<trkpt lat="50.748994" lon="6.002504"><time>2026-05-06T18:38:17Z</time></trkpt>
<trkpt lat="50.749255" lon="6.002694"><time>2026-05-06T18:48:17Z</time></trkpt>
<trkpt lat="50.749399" lon="6.003419"><time>2026-05-06T18:58:17Z</time></trkpt>
</trkseg></trk>
<trk>
<name>lpbgm13</name>
<cmt>r</cmt>
<desc>Gemmenich Chemin n°13 Droegweide / Route des Trois Bornes</desc>
<link href="https://chemins.be/gemmenich/chemin/13"/><trkseg>
<trkpt lat="50.749399" lon="6.003419"><time>2026-05-06T18:58:17Z</time></trkpt>
<trkpt lat="50.749521" lon="6.004605"><time>2026-05-06T19:08:17Z</time></trkpt>
<trkpt lat="50.749572" lon="6.005112"><time>2026-05-06T19:18:17Z</time></trkpt>
<trkpt lat="50.750128" lon="6.007361"><time>2026-05-06T19:28:17Z</time></trkpt>
</trkseg></trk>
<trk>
<name>lpbgm13</name>
<cmt>v</cmt>
<desc>Gemmenich Chemin n°13 Droegweide / Route des Trois Bornes</desc>
<link href="https://chemins.be/gemmenich/chemin/13"/><trkseg>
<trkpt lat="50.750128" lon="6.007361"><time>2026-05-06T19:28:17Z</time></trkpt>
<trkpt lat="50.750264" lon="6.008076"><time>2026-05-06T19:38:17Z</time></trkpt>
<trkpt lat="50.750182" lon="6.009407"><time>2026-05-06T19:48:17Z</time></trkpt>
</trkseg></trk>
<trk>
<name>lpbgm13</name>
<cmt>r</cmt>
<desc>Gemmenich Chemin n°13 Droegweide / Route des Trois Bornes</desc>
<link href="https://chemins.be/gemmenich/chemin/13"/><trkseg>
<trkpt lat="50.750182" lon="6.009407"><time>2026-05-06T19:48:17Z</time></trkpt>
<trkpt lat="50.750273" lon="6.009829"><time>2026-05-06T19:58:17Z</time></trkpt>
</trkseg></trk>
<trk>
<name>lpbgm13</name>
<cmt>d</cmt>
<desc>Gemmenich Chemin n°13 Droegweide / Route des Trois Bornes</desc>
<link href="https://chemins.be/gemmenich/chemin/13"/><trkseg>
<trkpt lat="50.750273" lon="6.009829"><time>2026-05-06T19:58:17Z</time></trkpt>
<trkpt lat="50.750150" lon="6.010818"><time>2026-05-06T20:08:17Z</time></trkpt>
<trkpt lat="50.750005" lon="6.010988"><time>2026-05-06T20:18:17Z</time></trkpt>
<trkpt lat="50.749901" lon="6.012504"><time>2026-05-06T20:28:17Z</time></trkpt>
</trkseg></trk>
<trk>
<name>lpbgm13</name>
<cmt>s</cmt>
<desc>Gemmenich Chemin n°13 Droegweide / Route des Trois Bornes</desc>
<link href="https://chemins.be/gemmenich/chemin/13"/><trkseg>
<trkpt lat="50.749901" lon="6.012504"><time>2026-05-06T20:28:17Z</time></trkpt>
<trkpt lat="50.749256" lon="6.013640"><time>2026-05-06T20:38:17Z</time></trkpt>
</trkseg></trk>
<trk>
<name>lpbgm13</name>
<cmt>v</cmt>
<desc>Gemmenich Chemin n°13 Droegweide / Route des Trois Bornes</desc>
<link href="https://chemins.be/gemmenich/chemin/13"/><trkseg>
<trkpt lat="50.749256" lon="6.013640"><time>2026-05-06T20:38:17Z</time></trkpt>
<trkpt lat="50.749301" lon="6.015184"><time>2026-05-06T20:48:17Z</time></trkpt>
<trkpt lat="50.749045" lon="6.015358"><time>2026-05-06T20:58:17Z</time></trkpt>
</trkseg>
</trk>
<trk>
<name>lpbgm14</name>
<cmt>d</cmt>
<desc>Gemmenich Chemin n°14 Botzelaer</desc>
<link href="https://chemins.be/gemmenich/chemin/14"/><trkseg>
<trkpt lat="50.749609" lon="6.007338"><time>2026-05-06T18:28:17Z</time></trkpt>
<trkpt lat="50.749024" lon="6.007845"><time>2026-05-06T18:38:17Z</time></trkpt>
<trkpt lat="50.748665" lon="6.008690"><time>2026-05-06T18:48:17Z</time></trkpt>
</trkseg></trk>
<trk>
<name>lpbgm14</name>
<cmt>r</cmt>
<desc>Gemmenich Chemin n°14 Botzelaer</desc>
<link href="https://chemins.be/gemmenich/chemin/14"/><trkseg>
<trkpt lat="50.748665" lon="6.008690"><time>2026-05-06T18:48:17Z</time></trkpt>
<trkpt lat="50.747912" lon="6.009645"><time>2026-05-06T18:58:17Z</time></trkpt>
<trkpt lat="50.747674" lon="6.010278"><time>2026-05-06T19:08:17Z</time></trkpt>
</trkseg></trk>
<trk>
<name>lpbgm14</name>
<cmt>s</cmt>
<desc>Gemmenich Chemin n°14 Botzelaer</desc>
<link href="https://chemins.be/gemmenich/chemin/14"/><trkseg>
<trkpt lat="50.747674" lon="6.010278"><time>2026-05-06T19:08:17Z</time></trkpt>
<trkpt lat="50.747353" lon="6.010916"><time>2026-05-06T19:18:17Z</time></trkpt>
</trkseg></trk>
<trk>
<name>lpbgm14</name>
<cmt>v</cmt>
<desc>Gemmenich Chemin n°14 Botzelaer</desc>
<link href="https://chemins.be/gemmenich/chemin/14"/><trkseg>
<trkpt lat="50.747353" lon="6.010916"><time>2026-05-06T19:18:17Z</time></trkpt>
<trkpt lat="50.746755" lon="6.011903"><time>2026-05-06T19:28:17Z</time></trkpt>
<trkpt lat="50.745963" lon="6.013005"><time>2026-05-06T19:38:17Z</time></trkpt>
<trkpt lat="50.744625" lon="6.015143"><time>2026-05-06T19:48:17Z</time></trkpt>
<trkpt lat="50.744399" lon="6.015864"><time>2026-05-06T19:58:17Z</time></trkpt>
<trkpt lat="50.744390" lon="6.016123"><time>2026-05-06T20:08:17Z</time></trkpt>
<trkpt lat="50.744448" lon="6.016343"><time>2026-05-06T20:18:17Z</time></trkpt>
</trkseg>
</trk>
<trk>
<name>lpbgm15</name>
<cmt>r</cmt>
<desc>Gemmenich Chemin n°15 Rue Nouvelaer / Pinnae</desc>
<link href="https://chemins.be/gemmenich/chemin/15"/><trkseg>
<trkpt lat="50.743577" lon="5.999991"><time>2026-05-06T18:28:17Z</time></trkpt>
<trkpt lat="50.743912" lon="6.000763"><time>2026-05-06T18:38:17Z</time></trkpt>
<trkpt lat="50.744034" lon="6.001388"><time>2026-05-06T18:48:17Z</time></trkpt>
<trkpt lat="50.744246" lon="6.002694"><time>2026-05-06T18:58:17Z</time></trkpt>
<trkpt lat="50.743993" lon="6.004182"><time>2026-05-06T19:08:17Z</time></trkpt>
<trkpt lat="50.744717" lon="6.004883"><time>2026-05-06T19:18:17Z</time></trkpt>
<trkpt lat="50.744835" lon="6.005326"><time>2026-05-06T19:28:17Z</time></trkpt>
<trkpt lat="50.744237" lon="6.006213"><time>2026-05-06T19:38:17Z</time></trkpt>
</trkseg></trk>
<trk>
<name>lpbgm15</name>
<cmt>d</cmt>
<desc>Gemmenich Chemin n°15 Rue Nouvelaer / Pinnae</desc>
<link href="https://chemins.be/gemmenich/chemin/15"/><trkseg>
<trkpt lat="50.744237" lon="6.006213"><time>2026-05-06T19:38:17Z</time></trkpt>
<trkpt lat="50.743832" lon="6.006228"><time>2026-05-06T19:48:17Z</time></trkpt>
<trkpt lat="50.743515" lon="6.006517"><time>2026-05-06T19:58:17Z</time></trkpt>
<trkpt lat="50.743197" lon="6.006979"><time>2026-05-06T20:08:17Z</time></trkpt>
</trkseg></trk>
<trk>
<name>lpbgm15</name>
<cmt>s</cmt>
<desc>Gemmenich Chemin n°15 Rue Nouvelaer / Pinnae</desc>
<link href="https://chemins.be/gemmenich/chemin/15"/><trkseg>
<trkpt lat="50.743197" lon="6.006979"><time>2026-05-06T20:08:17Z</time></trkpt>
<trkpt lat="50.743133" lon="6.008205"><time>2026-05-06T20:18:17Z</time></trkpt>
</trkseg></trk>
<trk>
<name>lpbgm15</name>
<cmt>d</cmt>
<desc>Gemmenich Chemin n°15 Rue Nouvelaer / Pinnae</desc>
<link href="https://chemins.be/gemmenich/chemin/15"/><trkseg>
<trkpt lat="50.743133" lon="6.008205"><time>2026-05-06T20:18:17Z</time></trkpt>
<trkpt lat="50.742687" lon="6.009092"><time>2026-05-06T20:28:17Z</time></trkpt>
</trkseg></trk>
<trk>
<name>lpbgm15</name>
<cmt>v</cmt>
<desc>Gemmenich Chemin n°15 Rue Nouvelaer / Pinnae</desc>
<link href="https://chemins.be/gemmenich/chemin/15"/><trkseg>
<trkpt lat="50.742687" lon="6.009092"><time>2026-05-06T20:28:17Z</time></trkpt>
<trkpt lat="50.742293" lon="6.010215"><time>2026-05-06T20:38:17Z</time></trkpt>
<trkpt lat="50.742302" lon="6.010838"><time>2026-05-06T20:48:17Z</time></trkpt>
<trkpt lat="50.743003" lon="6.012740"><time>2026-05-06T20:58:17Z</time></trkpt>
<trkpt lat="50.743325" lon="6.012959"><time>2026-05-06T21:08:17Z</time></trkpt>
<trkpt lat="50.744244" lon="6.013584"><time>2026-05-06T21:18:17Z</time></trkpt>
<trkpt lat="50.744845" lon="6.013555"><time>2026-05-06T21:28:17Z</time></trkpt>
<trkpt lat="50.745932" lon="6.012998"><time>2026-05-06T21:38:17Z</time></trkpt>
</trkseg>
</trk>
<trk>
<name>lpbgm15bis</name>
<cmt>v</cmt>
<desc>Gemmenich Chemin n°15bis Rue Nouvelaer / Pinnae</desc>
<link href="https://chemins.be/gemmenich/chemin/15bis"/><trkseg>
<trkpt lat="50.744220" lon="6.006218"><time>2026-05-06T18:28:17Z</time></trkpt>
<trkpt lat="50.744679" lon="6.007424"><time>2026-05-06T18:38:17Z</time></trkpt>
<trkpt lat="50.744607" lon="6.008102"><time>2026-05-06T18:48:17Z</time></trkpt>
<trkpt lat="50.744511" lon="6.008477"><time>2026-05-06T18:58:17Z</time></trkpt>
<trkpt lat="50.744276" lon="6.009238"><time>2026-05-06T19:08:17Z</time></trkpt>
<trkpt lat="50.743295" lon="6.009983"><time>2026-05-06T19:18:17Z</time></trkpt>
<trkpt lat="50.742817" lon="6.010080"><time>2026-05-06T19:28:17Z</time></trkpt>
<trkpt lat="50.742323" lon="6.010866"><time>2026-05-06T19:38:17Z</time></trkpt>
</trkseg>
</trk>
<trk>
<name>lpbgm16</name>
<cmt>r</cmt>
<desc>Gemmenich Chemin n°16 Bienenheide / Rue de Langenstein</desc>
<link href="https://chemins.be/gemmenich/chemin/16"/><trkseg>
<trkpt lat="50.742083" lon="5.993396"><time>2026-05-06T18:28:17Z</time></trkpt>
<trkpt lat="50.742046" lon="5.994077"><time>2026-05-06T18:38:17Z</time></trkpt>
<trkpt lat="50.742531" lon="5.995949"><time>2026-05-06T18:48:17Z</time></trkpt>
<trkpt lat="50.742642" lon="5.997556"><time>2026-05-06T18:58:17Z</time></trkpt>
<trkpt lat="50.742330" lon="5.998650"><time>2026-05-06T19:08:17Z</time></trkpt>
<trkpt lat="50.742762" lon="6.000220"><time>2026-05-06T19:18:17Z</time></trkpt>
<trkpt lat="50.742728" lon="6.001329"><time>2026-05-06T19:28:17Z</time></trkpt>
</trkseg></trk>
<trk>
<name>lpbgm16</name>
<cmt>d</cmt>
<desc>Gemmenich Chemin n°16 Bienenheide / Rue de Langenstein</desc>
<link href="https://chemins.be/gemmenich/chemin/16"/><trkseg>
<trkpt lat="50.742728" lon="6.001329"><time>2026-05-06T19:28:17Z</time></trkpt>
<trkpt lat="50.742804" lon="6.001884"><time>2026-05-06T19:38:17Z</time></trkpt>
<trkpt lat="50.742619" lon="6.002171"><time>2026-05-06T19:48:17Z</time></trkpt>
</trkseg>
</trk>
<trk>
<name>lpbgm17</name>
<cmt>r</cmt>
<desc>Gemmenich Chemin n°17 Brandweg</desc>
<link href="https://chemins.be/gemmenich/chemin/17"/><trkseg>
<trkpt lat="50.741053" lon="5.991746"><time>2026-05-06T18:28:17Z</time></trkpt>
<trkpt lat="50.740686" lon="5.992883"><time>2026-05-06T18:38:17Z</time></trkpt>
<trkpt lat="50.739912" lon="5.992818"><time>2026-05-06T18:48:17Z</time></trkpt>
<trkpt lat="50.739428" lon="5.993312"><time>2026-05-06T18:58:17Z</time></trkpt>
<trkpt lat="50.739038" lon="5.996152"><time>2026-05-06T19:08:17Z</time></trkpt>
<trkpt lat="50.738794" lon="5.996838"><time>2026-05-06T19:18:17Z</time></trkpt>
<trkpt lat="50.738821" lon="5.997325"><time>2026-05-06T19:28:17Z</time></trkpt>
<trkpt lat="50.738454" lon="5.997925"><time>2026-05-06T19:38:17Z</time></trkpt>
<trkpt lat="50.737956" lon="5.998448"><time>2026-05-06T19:48:17Z</time></trkpt>
<trkpt lat="50.737771" lon="5.999413"><time>2026-05-06T19:58:17Z</time></trkpt>
<trkpt lat="50.737757" lon="5.999692"><time>2026-05-06T20:08:17Z</time></trkpt>
<trkpt lat="50.737463" lon="6.000572"><time>2026-05-06T20:18:17Z</time></trkpt>
</trkseg>
</trk>
<trk>
<name>lpbgm18</name>
<cmt>v</cmt>
<desc>Gemmenich Chemin n°18 chemin de la Cassation</desc>
<link href="https://chemins.be/gemmenich/chemin/18"/><trkseg>
<trkpt lat="50.741161" lon="6.001060"><time>2026-05-06T18:28:17Z</time></trkpt>
<trkpt lat="50.741261" lon="6.001732"><time>2026-05-06T18:38:17Z</time></trkpt>
<trkpt lat="50.739188" lon="6.005137"><time>2026-05-06T18:48:17Z</time></trkpt>
<trkpt lat="50.739116" lon="6.005588"><time>2026-05-06T18:58:17Z</time></trkpt>
</trkseg></trk>
<trk>
<name>lpbgm18</name>
<cmt>s</cmt>
<desc>Gemmenich Chemin n°18 chemin de la Cassation</desc>
<link href="https://chemins.be/gemmenich/chemin/18"/><trkseg>
<trkpt lat="50.739116" lon="6.005588"><time>2026-05-06T18:58:17Z</time></trkpt>
<trkpt lat="50.739016" lon="6.006217"><time>2026-05-06T19:08:17Z</time></trkpt>
<trkpt lat="50.739017" lon="6.006708"><time>2026-05-06T19:18:17Z</time></trkpt>
</trkseg></trk>
<trk>
<name>lpbgm18</name>
<cmt>v</cmt>
<desc>Gemmenich Chemin n°18 chemin de la Cassation</desc>
<link href="https://chemins.be/gemmenich/chemin/18"/><trkseg>
<trkpt lat="50.739017" lon="6.006708"><time>2026-05-06T19:18:17Z</time></trkpt>
<trkpt lat="50.738960" lon="6.006884"><time>2026-05-06T19:28:17Z</time></trkpt>
<trkpt lat="50.738672" lon="6.007426"><time>2026-05-06T19:38:17Z</time></trkpt>
<trkpt lat="50.738776" lon="6.008112"><time>2026-05-06T19:48:17Z</time></trkpt>
<trkpt lat="50.738884" lon="6.010230"><time>2026-05-06T19:58:17Z</time></trkpt>
<trkpt lat="50.739075" lon="6.010576"><time>2026-05-06T20:08:17Z</time></trkpt>
<trkpt lat="50.739102" lon="6.011517"><time>2026-05-06T20:18:17Z</time></trkpt>
<trkpt lat="50.738504" lon="6.013141"><time>2026-05-06T20:28:17Z</time></trkpt>
</trkseg>
</trk>
<trk>
<name>lpbgm19</name>
<cmt>r</cmt>
<desc>Gemmenich Chemin n°19 Rue du Sablon</desc>
<link href="https://chemins.be/gemmenich/chemin/19"/><trkseg>
<trkpt lat="50.733341" lon="5.990452"><time>2026-05-06T18:28:17Z</time></trkpt>
<trkpt lat="50.734246" lon="5.992604"><time>2026-05-06T18:38:17Z</time></trkpt>
<trkpt lat="50.734231" lon="5.993128"><time>2026-05-06T18:48:17Z</time></trkpt>
<trkpt lat="50.735363" lon="5.996680"><time>2026-05-06T18:58:17Z</time></trkpt>
<trkpt lat="50.736235" lon="5.998635"><time>2026-05-06T19:08:17Z</time></trkpt>
<trkpt lat="50.736356" lon="5.999518"><time>2026-05-06T19:18:17Z</time></trkpt>
<trkpt lat="50.736922" lon="6.000471"><time>2026-05-06T19:28:17Z</time></trkpt>
<trkpt lat="50.737490" lon="6.000519"><time>2026-05-06T19:38:17Z</time></trkpt>
</trkseg></trk>
<trk>
<name>lpbgm19</name>
<cmt>v</cmt>
<desc>Gemmenich Chemin n°19 Rue du Sablon</desc>
<link href="https://chemins.be/gemmenich/chemin/19"/><trkseg>
<trkpt lat="50.737490" lon="6.000519"><time>2026-05-06T19:38:17Z</time></trkpt>
<trkpt lat="50.737466" lon="6.001278"><time>2026-05-06T19:48:17Z</time></trkpt>
<trkpt lat="50.737772" lon="6.001728"><time>2026-05-06T19:58:17Z</time></trkpt>
<trkpt lat="50.738323" lon="6.002229"><time>2026-05-06T20:08:17Z</time></trkpt>
<trkpt lat="50.738497" lon="6.002632"><time>2026-05-06T20:18:17Z</time></trkpt>
<trkpt lat="50.738530" lon="6.002874"><time>2026-05-06T20:28:17Z</time></trkpt>
<trkpt lat="50.738508" lon="6.003114"><time>2026-05-06T20:38:17Z</time></trkpt>
<trkpt lat="50.738441" lon="6.003409"><time>2026-05-06T20:48:17Z</time></trkpt>
<trkpt lat="50.738309" lon="6.003830"><time>2026-05-06T20:58:17Z</time></trkpt>
<trkpt lat="50.738288" lon="6.004056"><time>2026-05-06T21:08:17Z</time></trkpt>
<trkpt lat="50.738294" lon="6.004311"><time>2026-05-06T21:18:17Z</time></trkpt>
<trkpt lat="50.738503" lon="6.005452"><time>2026-05-06T21:28:17Z</time></trkpt>
<trkpt lat="50.738598" lon="6.005710"><time>2026-05-06T21:38:17Z</time></trkpt>
</trkseg></trk>
<trk>
<name>lpbgm19</name>
<cmt>s</cmt>
<desc>Gemmenich Chemin n°19 Rue du Sablon</desc>
<link href="https://chemins.be/gemmenich/chemin/19"/><trkseg>
<trkpt lat="50.738598" lon="6.005710"><time>2026-05-06T21:38:17Z</time></trkpt>
<trkpt lat="50.739001" lon="6.006339"><time>2026-05-06T21:48:17Z</time></trkpt>
</trkseg>
</trk>
<trk>
<name>lpbgm2</name>
<cmt>r</cmt>
<desc>Gemmenich Chemin n°2 Rue Saint-Hubert / Rue de Moresnet / Wittenweg / Marveld</desc>
<link href="https://chemins.be/gemmenich/chemin/2"/><trkseg>
<trkpt lat="50.745861" lon="5.996962"><time>2026-05-06T18:28:17Z</time></trkpt>
<trkpt lat="50.744523" lon="5.994814"><time>2026-05-06T18:38:17Z</time></trkpt>
<trkpt lat="50.743826" lon="5.994354"><time>2026-05-06T18:48:17Z</time></trkpt>
<trkpt lat="50.743670" lon="5.994147"><time>2026-05-06T18:58:17Z</time></trkpt>
<trkpt lat="50.743512" lon="5.994161"><time>2026-05-06T19:08:17Z</time></trkpt>
<trkpt lat="50.741516" lon="5.993067"><time>2026-05-06T19:18:17Z</time></trkpt>
<trkpt lat="50.741233" lon="5.992452"><time>2026-05-06T19:28:17Z</time></trkpt>
<trkpt lat="50.741065" lon="5.991640"><time>2026-05-06T19:38:17Z</time></trkpt>
<trkpt lat="50.740276" lon="5.990317"><time>2026-05-06T19:48:17Z</time></trkpt>
<trkpt lat="50.739852" lon="5.990399"><time>2026-05-06T19:58:17Z</time></trkpt>
<trkpt lat="50.739083" lon="5.989097"><time>2026-05-06T20:08:17Z</time></trkpt>
<trkpt lat="50.736940" lon="5.988221"><time>2026-05-06T20:18:17Z</time></trkpt>
<trkpt lat="50.736781" lon="5.987306"><time>2026-05-06T20:28:17Z</time></trkpt>
<trkpt lat="50.735554" lon="5.985532"><time>2026-05-06T20:38:17Z</time></trkpt>
<trkpt lat="50.734165" lon="5.984151"><time>2026-05-06T20:48:17Z</time></trkpt>
</trkseg>
</trk>
<trk>
<name>lpbgm20</name>
<cmt>v</cmt>
<desc>Gemmenich Chemin n°20 Rue du Vivier / Brandweg</desc>
<link href="https://chemins.be/gemmenich/chemin/20"/><trkseg>
<trkpt lat="50.742615" lon="5.997229"><time>2026-05-06T18:28:17Z</time></trkpt>
<trkpt lat="50.742088" lon="5.997433"><time>2026-05-06T18:38:17Z</time></trkpt>
<trkpt lat="50.741861" lon="5.997438"><time>2026-05-06T18:48:17Z</time></trkpt>
<trkpt lat="50.741298" lon="5.996918"><time>2026-05-06T18:58:17Z</time></trkpt>
<trkpt lat="50.741111" lon="5.996880"><time>2026-05-06T19:08:17Z</time></trkpt>
<trkpt lat="50.740585" lon="5.996269"><time>2026-05-06T19:18:17Z</time></trkpt>
<trkpt lat="50.740016" lon="5.996363"><time>2026-05-06T19:28:17Z</time></trkpt>
<trkpt lat="50.739739" lon="5.996283"><time>2026-05-06T19:38:17Z</time></trkpt>
</trkseg></trk>
<trk>
<name>lpbgm20</name>
<cmt>r</cmt>
<desc>Gemmenich Chemin n°20 Rue du Vivier / Brandweg</desc>
<link href="https://chemins.be/gemmenich/chemin/20"/><trkseg>
<trkpt lat="50.739739" lon="5.996283"><time>2026-05-06T19:38:17Z</time></trkpt>
<trkpt lat="50.738984" lon="5.996089"><time>2026-05-06T19:48:17Z</time></trkpt>
<trkpt lat="50.738819" lon="5.996720"><time>2026-05-06T19:58:17Z</time></trkpt>
</trkseg></trk>
<trk>
<name>lpbgm20</name>
<cmt>d</cmt>
<desc>Gemmenich Chemin n°20 Rue du Vivier / Brandweg</desc>
<link href="https://chemins.be/gemmenich/chemin/20"/><trkseg>
<trkpt lat="50.738819" lon="5.996720"><time>2026-05-06T19:58:17Z</time></trkpt>
<trkpt lat="50.738702" lon="5.997040"><time>2026-05-06T20:08:17Z</time></trkpt>
<trkpt lat="50.738356" lon="5.997546"><time>2026-05-06T20:18:17Z</time></trkpt>
<trkpt lat="50.737884" lon="5.997564"><time>2026-05-06T20:28:17Z</time></trkpt>
</trkseg>
</trk>
<trk>
<name>lpbgm21</name>
<cmt>v</cmt>
<desc>Gemmenich Chemin n°21 </desc>
<link href="https://chemins.be/gemmenich/chemin/21"/><trkseg>
<trkpt lat="50.735258" lon="5.996101"><time>2026-05-06T18:28:17Z</time></trkpt>
<trkpt lat="50.734072" lon="5.996917"><time>2026-05-06T18:38:17Z</time></trkpt>
<trkpt lat="50.734049" lon="5.997747"><time>2026-05-06T18:48:17Z</time></trkpt>
<trkpt lat="50.733787" lon="5.998026"><time>2026-05-06T18:58:17Z</time></trkpt>
</trkseg>
</trk>
<trk>
<name>lpbgm22</name>
<cmt>v</cmt>
<desc>Gemmenich Chemin n°22 </desc>
<link href="https://chemins.be/gemmenich/chemin/22"/><trkseg>
<trkpt lat="50.742707" lon="6.001295"><time>2026-05-06T18:28:17Z</time></trkpt>
<trkpt lat="50.742316" lon="6.001553"><time>2026-05-06T18:38:17Z</time></trkpt>
<trkpt lat="50.741709" lon="6.001526"><time>2026-05-06T18:48:17Z</time></trkpt>
<trkpt lat="50.741267" lon="6.001735"><time>2026-05-06T18:58:17Z</time></trkpt>
</trkseg>
</trk>
<trk>
<name>lpbgm23</name>
<cmt>v</cmt>
<desc>Gemmenich Chemin n°23 </desc>
<link href="https://chemins.be/gemmenich/chemin/23"/><trkseg>
<trkpt lat="50.735769" lon="5.985737"><time>2026-05-06T18:28:17Z</time></trkpt>
<trkpt lat="50.735344" lon="5.986381"><time>2026-05-06T18:38:17Z</time></trkpt>
<trkpt lat="50.734424" lon="5.988002"><time>2026-05-06T18:48:17Z</time></trkpt>
</trkseg>
</trk>
<trk>
<name>lpbgm24</name>
<cmt>v</cmt>
<desc>Gemmenich Chemin n°24 Belle-Vue / Chemin de Roerberg</desc>
<link href="https://chemins.be/gemmenich/chemin/24"/><trkseg>
<trkpt lat="50.742550" lon="5.971560"><time>2026-05-06T18:28:17Z</time></trkpt>
<trkpt lat="50.742282" lon="5.971651"><time>2026-05-06T18:38:17Z</time></trkpt>
<trkpt lat="50.741726" lon="5.971072"><time>2026-05-06T18:48:17Z</time></trkpt>
<trkpt lat="50.739609" lon="5.970721"><time>2026-05-06T18:58:17Z</time></trkpt>
<trkpt lat="50.738170" lon="5.971299"><time>2026-05-06T19:08:17Z</time></trkpt>
</trkseg></trk>
<trk>
<name>lpbgm24</name>
<cmt>r</cmt>
<desc>Gemmenich Chemin n°24 Belle-Vue / Chemin de Roerberg</desc>
<link href="https://chemins.be/gemmenich/chemin/24"/><trkseg>
<trkpt lat="50.738170" lon="5.971299"><time>2026-05-06T19:08:17Z</time></trkpt>
<trkpt lat="50.737577" lon="5.971276"><time>2026-05-06T19:18:17Z</time></trkpt>
<trkpt lat="50.737300" lon="5.971128"><time>2026-05-06T19:28:17Z</time></trkpt>
<trkpt lat="50.736789" lon="5.970524"><time>2026-05-06T19:38:17Z</time></trkpt>
<trkpt lat="50.736529" lon="5.970200"><time>2026-05-06T19:48:17Z</time></trkpt>
<trkpt lat="50.736067" lon="5.971252"><time>2026-05-06T19:58:17Z</time></trkpt>
<trkpt lat="50.735499" lon="5.971072"><time>2026-05-06T20:08:17Z</time></trkpt>
<trkpt lat="50.735117" lon="5.970582"><time>2026-05-06T20:18:17Z</time></trkpt>
</trkseg></trk>
<trk>
<name>lpbgm24</name>
<cmt>d</cmt>
<desc>Gemmenich Chemin n°24 Belle-Vue / Chemin de Roerberg</desc>
<link href="https://chemins.be/gemmenich/chemin/24"/><trkseg>
<trkpt lat="50.735117" lon="5.970582"><time>2026-05-06T20:18:17Z</time></trkpt>
<trkpt lat="50.734893" lon="5.971005"><time>2026-05-06T20:28:17Z</time></trkpt>
<trkpt lat="50.734438" lon="5.971321"><time>2026-05-06T20:38:17Z</time></trkpt>
<trkpt lat="50.734109" lon="5.971962"><time>2026-05-06T20:48:17Z</time></trkpt>
<trkpt lat="50.733982" lon="5.972975"><time>2026-05-06T20:58:17Z</time></trkpt>
</trkseg></trk>
<trk>
<name>lpbgm24</name>
<cmt>r</cmt>
<desc>Gemmenich Chemin n°24 Belle-Vue / Chemin de Roerberg</desc>
<link href="https://chemins.be/gemmenich/chemin/24"/><trkseg>
<trkpt lat="50.733982" lon="5.972975"><time>2026-05-06T20:58:17Z</time></trkpt>
<trkpt lat="50.734073" lon="5.973294"><time>2026-05-06T21:08:17Z</time></trkpt>
</trkseg></trk>
<trk>
<name>lpbgm24</name>
<cmt>d</cmt>
<desc>Gemmenich Chemin n°24 Belle-Vue / Chemin de Roerberg</desc>
<link href="https://chemins.be/gemmenich/chemin/24"/><trkseg>
<trkpt lat="50.734073" lon="5.973294"><time>2026-05-06T21:08:17Z</time></trkpt>
<trkpt lat="50.734690" lon="5.973912"><time>2026-05-06T21:18:17Z</time></trkpt>
<trkpt lat="50.734968" lon="5.976305"><time>2026-05-06T21:28:17Z</time></trkpt>
</trkseg></trk>
<trk>
<name>lpbgm24</name>
<cmt>v</cmt>
<desc>Gemmenich Chemin n°24 Belle-Vue / Chemin de Roerberg</desc>
<link href="https://chemins.be/gemmenich/chemin/24"/><trkseg>
<trkpt lat="50.734968" lon="5.976305"><time>2026-05-06T21:28:17Z</time></trkpt>
<trkpt lat="50.735654" lon="5.977013"><time>2026-05-06T21:38:17Z</time></trkpt>
<trkpt lat="50.735866" lon="5.977399"><time>2026-05-06T21:48:17Z</time></trkpt>
<trkpt lat="50.735580" lon="5.978579"><time>2026-05-06T21:58:17Z</time></trkpt>
</trkseg>
</trk>
<trk>
<name>lpbgm24bis</name>
<cmt>r</cmt>
<desc>Gemmenich Sentier n°24bis Belle-Vue</desc>
<link href="https://chemins.be/gemmenich/sentier/24bis"/><trkseg>
<trkpt lat="50.735513" lon="5.971101"><time>2026-05-06T18:28:17Z</time></trkpt>
<trkpt lat="50.735246" lon="5.971780"><time>2026-05-06T18:38:17Z</time></trkpt>
<trkpt lat="50.734073" lon="5.972699"><time>2026-05-06T18:48:17Z</time></trkpt>
</trkseg>
</trk>
<trk>
<name>lpbgm24ter</name>
<cmt>v</cmt>
<desc>Gemmenich Chemin n°24ter Chemin de Roerberg</desc>
<link href="https://chemins.be/gemmenich/chemin/24ter"/><trkseg>
<trkpt lat="50.734077" lon="5.973306"><time>2026-05-06T18:28:17Z</time></trkpt>
<trkpt lat="50.734466" lon="5.975202"><time>2026-05-06T18:38:17Z</time></trkpt>
<trkpt lat="50.734656" lon="5.975702"><time>2026-05-06T18:48:17Z</time></trkpt>
<trkpt lat="50.734964" lon="5.976174"><time>2026-05-06T18:58:17Z</time></trkpt>
</trkseg>
</trk>
<trk>
<name>lpbgm25</name>
<cmt>v</cmt>
<desc>Gemmenich Chemin n°25 </desc>
<link href="https://chemins.be/gemmenich/chemin/25"/><trkseg>
<trkpt lat="50.747203" lon="5.962071"><time>2026-05-06T18:28:17Z</time></trkpt>
<trkpt lat="50.745941" lon="5.962787"><time>2026-05-06T18:38:17Z</time></trkpt>
<trkpt lat="50.745171" lon="5.964081"><time>2026-05-06T18:48:17Z</time></trkpt>
<trkpt lat="50.744461" lon="5.964575"><time>2026-05-06T18:58:17Z</time></trkpt>
<trkpt lat="50.743709" lon="5.964525"><time>2026-05-06T19:08:17Z</time></trkpt>
<trkpt lat="50.743528" lon="5.964258"><time>2026-05-06T19:18:17Z</time></trkpt>
<trkpt lat="50.743058" lon="5.964130"><time>2026-05-06T19:28:17Z</time></trkpt>
</trkseg>
</trk>
<trk>
<name>lpbgm26</name>
<cmt>v</cmt>
<desc>Gemmenich Chemin n°26 Chemin du Camping Kon Tiki </desc>
<link href="https://chemins.be/gemmenich/chemin/26"/><trkseg>
<trkpt lat="50.752379" lon="5.954536"><time>2026-05-06T18:28:17Z</time></trkpt>
<trkpt lat="50.751913" lon="5.954121"><time>2026-05-06T18:38:17Z</time></trkpt>
<trkpt lat="50.751583" lon="5.953485"><time>2026-05-06T18:48:17Z</time></trkpt>
<trkpt lat="50.750822" lon="5.953284"><time>2026-05-06T18:58:17Z</time></trkpt>
<trkpt lat="50.749887" lon="5.952694"><time>2026-05-06T19:08:17Z</time></trkpt>
<trkpt lat="50.749050" lon="5.952165"><time>2026-05-06T19:18:17Z</time></trkpt>
<trkpt lat="50.748587" lon="5.951579"><time>2026-05-06T19:28:17Z</time></trkpt>
<trkpt lat="50.747538" lon="5.950248"><time>2026-05-06T19:38:17Z</time></trkpt>
<trkpt lat="50.747248" lon="5.950220"><time>2026-05-06T19:48:17Z</time></trkpt>
</trkseg></trk>
<trk>
<name>lpbgm26</name>
<cmt>q</cmt>
<desc>Gemmenich Chemin n°26 Chemin du Camping Kon Tiki </desc>
<link href="https://chemins.be/gemmenich/chemin/26"/><trkseg>
<trkpt lat="50.747248" lon="5.950220"><time>2026-05-06T19:48:17Z</time></trkpt>
<trkpt lat="50.746371" lon="5.950465"><time>2026-05-06T19:58:17Z</time></trkpt>
<trkpt lat="50.746188" lon="5.949789"><time>2026-05-06T20:08:17Z</time></trkpt>
</trkseg>
</trk>
<trk>
<name>lpbgm27</name>
<cmt>v</cmt>
<desc>Gemmenich Chemin n°27 Terbruggen</desc>
<link href="https://chemins.be/gemmenich/chemin/27"/><trkseg>
<trkpt lat="50.747252" lon="5.950195"><time>2026-05-06T18:28:17Z</time></trkpt>
<trkpt lat="50.748299" lon="5.946367"><time>2026-05-06T18:38:17Z</time></trkpt>
<trkpt lat="50.749010" lon="5.945484"><time>2026-05-06T18:48:17Z</time></trkpt>
<trkpt lat="50.750890" lon="5.942005"><time>2026-05-06T18:58:17Z</time></trkpt>
</trkseg></trk>
<trk>
<name>lpbgm27</name>
<cmt>r</cmt>
<desc>Gemmenich Chemin n°27 Terbruggen</desc>
<link href="https://chemins.be/gemmenich/chemin/27"/><trkseg>
<trkpt lat="50.750890" lon="5.942005"><time>2026-05-06T18:58:17Z</time></trkpt>
<trkpt lat="50.751596" lon="5.941504"><time>2026-05-06T19:08:17Z</time></trkpt>
<trkpt lat="50.752257" lon="5.942820"><time>2026-05-06T19:18:17Z</time></trkpt>
<trkpt lat="50.753397" lon="5.941190"><time>2026-05-06T19:28:17Z</time></trkpt>
<trkpt lat="50.753827" lon="5.939945"><time>2026-05-06T19:38:17Z</time></trkpt>
<trkpt lat="50.754379" lon="5.939015"><time>2026-05-06T19:48:17Z</time></trkpt>
</trkseg></trk>
<trk>
<name>lpbgm27</name>
<cmt>v</cmt>
<desc>Gemmenich Chemin n°27 Terbruggen</desc>
<link href="https://chemins.be/gemmenich/chemin/27"/><trkseg>
<trkpt lat="50.754379" lon="5.939015"><time>2026-05-06T19:48:17Z</time></trkpt>
<trkpt lat="50.755071" lon="5.938999"><time>2026-05-06T19:58:17Z</time></trkpt>
<trkpt lat="50.755524" lon="5.939035"><time>2026-05-06T20:08:17Z</time></trkpt>
<trkpt lat="50.756406" lon="5.938256"><time>2026-05-06T20:18:17Z</time></trkpt>
<trkpt lat="50.756458" lon="5.937894"><time>2026-05-06T20:28:17Z</time></trkpt>
<trkpt lat="50.756384" lon="5.937468"><time>2026-05-06T20:38:17Z</time></trkpt>
<trkpt lat="50.756311" lon="5.937256"><time>2026-05-06T20:48:17Z</time></trkpt>
<trkpt lat="50.756322" lon="5.936972"><time>2026-05-06T20:58:17Z</time></trkpt>
<trkpt lat="50.756616" lon="5.936516"><time>2026-05-06T21:08:17Z</time></trkpt>
<trkpt lat="50.756762" lon="5.936368"><time>2026-05-06T21:18:17Z</time></trkpt>
<trkpt lat="50.756871" lon="5.936237"><time>2026-05-06T21:28:17Z</time></trkpt>
</trkseg>
</trk>
<trk>
<name>lpbgm28a</name>
<cmt>v</cmt>
<desc>Gemmenich Chemin n°28 partie a </desc>
<link href="https://chemins.be/gemmenich/chemin/28a"/><trkseg>
<trkpt lat="50.754200" lon="6.021001"><time>2026-05-06T18:28:17Z</time></trkpt>
<trkpt lat="50.754604" lon="6.020182"><time>2026-05-06T18:38:17Z</time></trkpt>
<trkpt lat="50.754843" lon="6.018798"><time>2026-05-06T18:48:17Z</time></trkpt>
<trkpt lat="50.754934" lon="6.018044"><time>2026-05-06T18:58:17Z</time></trkpt>
<trkpt lat="50.755016" lon="6.017310"><time>2026-05-06T19:08:17Z</time></trkpt>
<trkpt lat="50.754909" lon="6.016625"><time>2026-05-06T19:18:17Z</time></trkpt>
<trkpt lat="50.754980" lon="6.015501"><time>2026-05-06T19:28:17Z</time></trkpt>
<trkpt lat="50.755001" lon="6.015169"><time>2026-05-06T19:38:17Z</time></trkpt>
<trkpt lat="50.754992" lon="6.014771"><time>2026-05-06T19:48:17Z</time></trkpt>
<trkpt lat="50.755058" lon="6.014113"><time>2026-05-06T19:58:17Z</time></trkpt>
<trkpt lat="50.755074" lon="6.013201"><time>2026-05-06T20:08:17Z</time></trkpt>
<trkpt lat="50.754721" lon="6.012097"><time>2026-05-06T20:18:17Z</time></trkpt>
<trkpt lat="50.754398" lon="6.010087"><time>2026-05-06T20:28:17Z</time></trkpt>
<trkpt lat="50.754435" lon="6.009380"><time>2026-05-06T20:38:17Z</time></trkpt>
</trkseg>
</trk>
<trk>
<name>lpbgm28b</name>
<cmt>v</cmt>
<desc>Gemmenich Chemin n°28 partie b Hoogweg</desc>
<link href="https://chemins.be/gemmenich/chemin/28b"/><trkseg>
<trkpt lat="50.753470" lon="6.000702"><time>2026-05-06T18:28:17Z</time></trkpt>
<trkpt lat="50.753340" lon="6.000075"><time>2026-05-06T18:38:17Z</time></trkpt>
<trkpt lat="50.753040" lon="5.999343"><time>2026-05-06T18:48:17Z</time></trkpt>
<trkpt lat="50.753874" lon="5.997105"><time>2026-05-06T18:58:17Z</time></trkpt>
<trkpt lat="50.753783" lon="5.996526"><time>2026-05-06T19:08:17Z</time></trkpt>
<trkpt lat="50.753535" lon="5.996045"><time>2026-05-06T19:18:17Z</time></trkpt>
<trkpt lat="50.753508" lon="5.995751"><time>2026-05-06T19:28:17Z</time></trkpt>
<trkpt lat="50.753472" lon="5.995455"><time>2026-05-06T19:38:17Z</time></trkpt>
<trkpt lat="50.753090" lon="5.994301"><time>2026-05-06T19:48:17Z</time></trkpt>
<trkpt lat="50.753002" lon="5.992734"><time>2026-05-06T19:58:17Z</time></trkpt>
<trkpt lat="50.752951" lon="5.990195"><time>2026-05-06T20:08:17Z</time></trkpt>
</trkseg>
</trk>
<trk>
<name>lpbgm29</name>
<cmt>r</cmt>
<desc>Gemmenich Chemin n°29 Rue de Vaals / Rue du Loch</desc>
<link href="https://chemins.be/gemmenich/chemin/29"/><trkseg>
<trkpt lat="50.753085" lon="6.001366"><time>2026-05-06T18:28:17Z</time></trkpt>
<trkpt lat="50.753205" lon="6.002033"><time>2026-05-06T18:38:17Z</time></trkpt>
<trkpt lat="50.752609" lon="6.003681"><time>2026-05-06T18:48:17Z</time></trkpt>
</trkseg></trk>
<trk>
<name>lpbgm29</name>
<cmt>v</cmt>
<desc>Gemmenich Chemin n°29 Rue de Vaals / Rue du Loch</desc>
<link href="https://chemins.be/gemmenich/chemin/29"/><trkseg>
<trkpt lat="50.752609" lon="6.003681"><time>2026-05-06T18:48:17Z</time></trkpt>
<trkpt lat="50.752733" lon="6.004066"><time>2026-05-06T18:58:17Z</time></trkpt>
<trkpt lat="50.752970" lon="6.004835"><time>2026-05-06T19:08:17Z</time></trkpt>
<trkpt lat="50.753037" lon="6.005844"><time>2026-05-06T19:18:17Z</time></trkpt>
<trkpt lat="50.753370" lon="6.006567"><time>2026-05-06T19:28:17Z</time></trkpt>
<trkpt lat="50.753605" lon="6.008052"><time>2026-05-06T19:38:17Z</time></trkpt>
<trkpt lat="50.753938" lon="6.008951"><time>2026-05-06T19:48:17Z</time></trkpt>
<trkpt lat="50.754426" lon="6.010045"><time>2026-05-06T19:58:17Z</time></trkpt>
</trkseg>
</trk>
<trk>
<name>lpbgm3</name>
<cmt>r</cmt>
<desc>Gemmenich Chemin n°3 </desc>
<link href="https://chemins.be/gemmenich/chemin/3"/><trkseg>
<trkpt lat="50.746465" lon="5.996657"><time>2026-05-06T18:28:17Z</time></trkpt>
<trkpt lat="50.745658" lon="5.997169"><time>2026-05-06T18:38:17Z</time></trkpt>
<trkpt lat="50.744941" lon="5.998302"><time>2026-05-06T18:48:17Z</time></trkpt>
<trkpt lat="50.744504" lon="5.999327"><time>2026-05-06T18:58:17Z</time></trkpt>
<trkpt lat="50.743606" lon="5.999971"><time>2026-05-06T19:08:17Z</time></trkpt>
<trkpt lat="50.742135" lon="6.000221"><time>2026-05-06T19:18:17Z</time></trkpt>
<trkpt lat="50.741139" lon="6.000984"><time>2026-05-06T19:28:17Z</time></trkpt>
<trkpt lat="50.740181" lon="6.000912"><time>2026-05-06T19:38:17Z</time></trkpt>
<trkpt lat="50.739200" lon="6.001401"><time>2026-05-06T19:48:17Z</time></trkpt>
<trkpt lat="50.738023" lon="6.000471"><time>2026-05-06T19:58:17Z</time></trkpt>
<trkpt lat="50.737344" lon="6.000638"><time>2026-05-06T20:08:17Z</time></trkpt>
</trkseg></trk>
<trk>
<name>lpbgm3</name>
<cmt>v</cmt>
<desc>Gemmenich Chemin n°3 </desc>
<link href="https://chemins.be/gemmenich/chemin/3"/><trkseg>
<trkpt lat="50.737344" lon="6.000638"><time>2026-05-06T20:08:17Z</time></trkpt>
<trkpt lat="50.736952" lon="6.001282"><time>2026-05-06T20:18:17Z</time></trkpt>
<trkpt lat="50.736218" lon="6.001604"><time>2026-05-06T20:28:17Z</time></trkpt>
<trkpt lat="50.735459" lon="6.002702"><time>2026-05-06T20:38:17Z</time></trkpt>
<trkpt lat="50.735222" lon="6.003413"><time>2026-05-06T20:48:17Z</time></trkpt>
</trkseg>
</trk>
<trk>
<name>lpbgm30</name>
<cmt>v</cmt>
<desc>Gemmenich Chemin n°30 </desc>
<link href="https://chemins.be/gemmenich/chemin/30"/><trkseg>
<trkpt lat="50.753313" lon="5.976031"><time>2026-05-06T18:28:17Z</time></trkpt>
<trkpt lat="50.752634" lon="5.975316"><time>2026-05-06T18:38:17Z</time></trkpt>
<trkpt lat="50.750765" lon="5.975262"><time>2026-05-06T18:48:17Z</time></trkpt>
<trkpt lat="50.750508" lon="5.975307"><time>2026-05-06T18:58:17Z</time></trkpt>
<trkpt lat="50.749924" lon="5.975389"><time>2026-05-06T19:08:17Z</time></trkpt>
<trkpt lat="50.749689" lon="5.975450"><time>2026-05-06T19:18:17Z</time></trkpt>
</trkseg>
</trk>
<trk>
<name>lpbgm31</name>
<cmt>d</cmt>
<desc>Gemmenich Chemin n°31 Rue de Grunebempt</desc>
<link href="https://chemins.be/gemmenich/chemin/31"/><trkseg>
<trkpt lat="50.747176" lon="5.981176"><time>2026-05-06T18:28:17Z</time></trkpt>
<trkpt lat="50.747521" lon="5.980538"><time>2026-05-06T18:38:17Z</time></trkpt>
<trkpt lat="50.748114" lon="5.980442"><time>2026-05-06T18:48:17Z</time></trkpt>
</trkseg></trk>
<trk>
<name>lpbgm31</name>
<cmt>v</cmt>
<desc>Gemmenich Chemin n°31 Rue de Grunebempt</desc>
<link href="https://chemins.be/gemmenich/chemin/31"/><trkseg>
<trkpt lat="50.748114" lon="5.980442"><time>2026-05-06T18:48:17Z</time></trkpt>
<trkpt lat="50.748999" lon="5.980890"><time>2026-05-06T18:58:17Z</time></trkpt>
</trkseg></trk>
<trk>
<name>lpbgm31</name>
<cmt>r</cmt>
<desc>Gemmenich Chemin n°31 Rue de Grunebempt</desc>
<link href="https://chemins.be/gemmenich/chemin/31"/><trkseg>
<trkpt lat="50.748999" lon="5.980890"><time>2026-05-06T18:58:17Z</time></trkpt>
<trkpt lat="50.748837" lon="5.981441"><time>2026-05-06T19:08:17Z</time></trkpt>
</trkseg></trk>
<trk>
<name>lpbgm31</name>
<cmt>v</cmt>
<desc>Gemmenich Chemin n°31 Rue de Grunebempt</desc>
<link href="https://chemins.be/gemmenich/chemin/31"/><trkseg>
<trkpt lat="50.748837" lon="5.981441"><time>2026-05-06T19:08:17Z</time></trkpt>
<trkpt lat="50.750778" lon="5.983953"><time>2026-05-06T19:18:17Z</time></trkpt>
<trkpt lat="50.751238" lon="5.983749"><time>2026-05-06T19:28:17Z</time></trkpt>
</trkseg></trk>
<trk>
<name>lpbgm31</name>
<cmt>b</cmt>
<desc>Gemmenich Chemin n°31 Rue de Grunebempt</desc>
<link href="https://chemins.be/gemmenich/chemin/31"/><trkseg>
<trkpt lat="50.751238" lon="5.983749"><time>2026-05-06T19:28:17Z</time></trkpt>
<trkpt lat="50.751908" lon="5.984474"><time>2026-05-06T19:38:17Z</time></trkpt>
</trkseg>
</trk>
<trk>
<name>lpbgm32</name>
<cmt>b</cmt>
<desc>Gemmenich Sentier n°32 </desc>
<link href="https://chemins.be/gemmenich/sentier/32"/><trkseg>
<trkpt lat="50.751222" lon="5.983703"><time>2026-05-06T18:28:17Z</time></trkpt>
<trkpt lat="50.750800" lon="5.986207"><time>2026-05-06T18:38:17Z</time></trkpt>
<trkpt lat="50.750810" lon="5.986692"><time>2026-05-06T18:48:17Z</time></trkpt>
<trkpt lat="50.751958" lon="5.987861"><time>2026-05-06T18:58:17Z</time></trkpt>
<trkpt lat="50.752275" lon="5.988208"><time>2026-05-06T19:08:17Z</time></trkpt>
</trkseg>
</trk>
<trk>
<name>lpbgm33</name>
<cmt>d</cmt>
<desc>Gemmenich Chemin n°33 </desc>
<link href="https://chemins.be/gemmenich/chemin/33"/><trkseg>
<trkpt lat="50.758745" lon="5.957074"><time>2026-05-06T18:28:17Z</time></trkpt>
<trkpt lat="50.759055" lon="5.958108"><time>2026-05-06T18:38:17Z</time></trkpt>
<trkpt lat="50.759213" lon="5.958209"><time>2026-05-06T18:48:17Z</time></trkpt>
</trkseg></trk>
<trk>
<name>lpbgm33</name>
<cmt>v</cmt>
<desc>Gemmenich Chemin n°33 </desc>
<link href="https://chemins.be/gemmenich/chemin/33"/><trkseg>
<trkpt lat="50.759213" lon="5.958209"><time>2026-05-06T18:48:17Z</time></trkpt>
<trkpt lat="50.759282" lon="5.958545"><time>2026-05-06T18:58:17Z</time></trkpt>
<trkpt lat="50.759335" lon="5.959713"><time>2026-05-06T19:08:17Z</time></trkpt>
<trkpt lat="50.760455" lon="5.960378"><time>2026-05-06T19:18:17Z</time></trkpt>
<trkpt lat="50.760822" lon="5.960142"><time>2026-05-06T19:28:17Z</time></trkpt>
<trkpt lat="50.761261" lon="5.960611"><time>2026-05-06T19:38:17Z</time></trkpt>
<trkpt lat="50.761595" lon="5.960947"><time>2026-05-06T19:48:17Z</time></trkpt>
<trkpt lat="50.761458" lon="5.962752"><time>2026-05-06T19:58:17Z</time></trkpt>
<trkpt lat="50.760978" lon="5.965678"><time>2026-05-06T20:08:17Z</time></trkpt>
<trkpt lat="50.761025" lon="5.966322"><time>2026-05-06T20:18:17Z</time></trkpt>
</trkseg>
</trk>
<trk>
<name>lpbgm34</name>
<cmt>r</cmt>
<desc>Gemmenich Sentier n°34 </desc>
<link href="https://chemins.be/gemmenich/sentier/34"/><trkseg>
<trkpt lat="50.749549" lon="6.004608"><time>2026-05-06T18:28:17Z</time></trkpt>
<trkpt lat="50.750359" lon="6.004701"><time>2026-05-06T18:38:17Z</time></trkpt>
</trkseg></trk>
<trk>
<name>lpbgm34</name>
<cmt>v</cmt>
<desc>Gemmenich Sentier n°34 </desc>
<link href="https://chemins.be/gemmenich/sentier/34"/><trkseg>
<trkpt lat="50.750359" lon="6.004701"><time>2026-05-06T18:38:17Z</time></trkpt>
<trkpt lat="50.751115" lon="6.004640"><time>2026-05-06T18:48:17Z</time></trkpt>
<trkpt lat="50.752126" lon="6.004640"><time>2026-05-06T18:58:17Z</time></trkpt>
</trkseg>
</trk>
<trk>
<name>lpbgm35</name>
<cmt>r</cmt>
<desc>Gemmenich Sentier n°35 </desc>
<link href="https://chemins.be/gemmenich/sentier/35"/><trkseg>
<trkpt lat="50.747671" lon="6.000085"><time>2026-05-06T18:28:17Z</time></trkpt>
<trkpt lat="50.748166" lon="5.999940"><time>2026-05-06T18:38:17Z</time></trkpt>
</trkseg></trk>
<trk>
<name>lpbgm35</name>
<cmt>d</cmt>
<desc>Gemmenich Sentier n°35 </desc>
<link href="https://chemins.be/gemmenich/sentier/35"/><trkseg>
<trkpt lat="50.748166" lon="5.999940"><time>2026-05-06T18:38:17Z</time></trkpt>
<trkpt lat="50.748634" lon="5.999850"><time>2026-05-06T18:48:17Z</time></trkpt>
<trkpt lat="50.749176" lon="5.999714"><time>2026-05-06T18:58:17Z</time></trkpt>
<trkpt lat="50.749869" lon="5.999356"><time>2026-05-06T19:08:17Z</time></trkpt>
<trkpt lat="50.752231" lon="5.999978"><time>2026-05-06T19:18:17Z</time></trkpt>
</trkseg>
</trk>
<trk>
<name>lpbgm36</name>
<cmt>s</cmt>
<desc>Gemmenich Chemin n°36 </desc>
<link href="https://chemins.be/gemmenich/chemin/36"/><trkseg>
<trkpt lat="50.742191" lon="6.000228"><time>2026-05-06T18:28:17Z</time></trkpt>
<trkpt lat="50.741746" lon="5.999654"><time>2026-05-06T18:38:17Z</time></trkpt>
<trkpt lat="50.741583" lon="5.999959"><time>2026-05-06T18:48:17Z</time></trkpt>
<trkpt lat="50.740989" lon="5.999691"><time>2026-05-06T18:58:17Z</time></trkpt>
<trkpt lat="50.740374" lon="5.999536"><time>2026-05-06T19:08:17Z</time></trkpt>
</trkseg>
</trk>
<trk>
<name>lpbgm37</name>
<cmt>v</cmt>
<desc>Gemmenich Chemin n°37 Bammersweide</desc>
<link href="https://chemins.be/gemmenich/chemin/37"/><trkseg>
<trkpt lat="50.742677" lon="5.997596"><time>2026-05-06T18:28:17Z</time></trkpt>
<trkpt lat="50.743128" lon="5.997796"><time>2026-05-06T18:38:17Z</time></trkpt>
</trkseg></trk>
<trk>
<name>lpbgm37</name>
<cmt>d</cmt>
<desc>Gemmenich Chemin n°37 Bammersweide</desc>
<link href="https://chemins.be/gemmenich/chemin/37"/><trkseg>
<trkpt lat="50.743128" lon="5.997796"><time>2026-05-06T18:38:17Z</time></trkpt>
<trkpt lat="50.743404" lon="5.997918"><time>2026-05-06T18:48:17Z</time></trkpt>
<trkpt lat="50.743697" lon="5.998244"><time>2026-05-06T18:58:17Z</time></trkpt>
<trkpt lat="50.744233" lon="5.998869"><time>2026-05-06T19:08:17Z</time></trkpt>
</trkseg></trk>
<trk>
<name>lpbgm37</name>
<cmt>v</cmt>
<desc>Gemmenich Chemin n°37 Bammersweide</desc>
<link href="https://chemins.be/gemmenich/chemin/37"/><trkseg>
<trkpt lat="50.744233" lon="5.998869"><time>2026-05-06T19:08:17Z</time></trkpt>
<trkpt lat="50.744542" lon="5.999261"><time>2026-05-06T19:18:17Z</time></trkpt>
</trkseg></trk>
<trk>
<name>lpbgm37</name>
<cmt>r</cmt>
<desc>Gemmenich Chemin n°37 Bammersweide</desc>
<link href="https://chemins.be/gemmenich/chemin/37"/><trkseg>
<trkpt lat="50.744542" lon="5.999261"><time>2026-05-06T19:18:17Z</time></trkpt>
<trkpt lat="50.745060" lon="6.000236"><time>2026-05-06T19:28:17Z</time></trkpt>
</trkseg>
</trk>
<trk>
<name>lpbgm38</name>
<cmt>r</cmt>
<desc>Gemmenich Sentier n°38 Bienenheide / Rue Sénateur Pontus</desc>
<link href="https://chemins.be/gemmenich/sentier/38"/><trkseg>
<trkpt lat="50.742572" lon="5.996450"><time>2026-05-06T18:28:17Z</time></trkpt>
<trkpt lat="50.743030" lon="5.996468"><time>2026-05-06T18:38:17Z</time></trkpt>
</trkseg></trk>
<trk>
<name>lpbgm38</name>
<cmt>v</cmt>
<desc>Gemmenich Sentier n°38 Bienenheide / Rue Sénateur Pontus</desc>
<link href="https://chemins.be/gemmenich/sentier/38"/><trkseg>
<trkpt lat="50.743030" lon="5.996468"><time>2026-05-06T18:38:17Z</time></trkpt>
<trkpt lat="50.743249" lon="5.996246"><time>2026-05-06T18:48:17Z</time></trkpt>
<trkpt lat="50.743363" lon="5.996112"><time>2026-05-06T18:58:17Z</time></trkpt>
<trkpt lat="50.743428" lon="5.995916"><time>2026-05-06T19:08:17Z</time></trkpt>
<trkpt lat="50.743511" lon="5.995819"><time>2026-05-06T19:18:17Z</time></trkpt>
<trkpt lat="50.743818" lon="5.995674"><time>2026-05-06T19:28:17Z</time></trkpt>
<trkpt lat="50.743864" lon="5.995605"><time>2026-05-06T19:38:17Z</time></trkpt>
<trkpt lat="50.743911" lon="5.995465"><time>2026-05-06T19:48:17Z</time></trkpt>
<trkpt lat="50.744240" lon="5.994729"><time>2026-05-06T19:58:17Z</time></trkpt>
</trkseg>
</trk>
<trk>
<name>lpbgm39</name>
<cmt>v</cmt>
<desc>Gemmenich Sentier n°39 Rue des Écoles</desc>
<link href="https://chemins.be/gemmenich/sentier/39"/><trkseg>
<trkpt lat="50.745040" lon="5.990558"><time>2026-05-06T18:28:17Z</time></trkpt>
<trkpt lat="50.745211" lon="5.990592"><time>2026-05-06T18:38:17Z</time></trkpt>
<trkpt lat="50.745597" lon="5.991581"><time>2026-05-06T18:48:17Z</time></trkpt>
</trkseg></trk>
<trk>
<name>lpbgm39</name>
<cmt>s</cmt>
<desc>Gemmenich Sentier n°39 Rue des Écoles</desc>
<link href="https://chemins.be/gemmenich/sentier/39"/><trkseg>
<trkpt lat="50.745597" lon="5.991581"><time>2026-05-06T18:48:17Z</time></trkpt>
<trkpt lat="50.746215" lon="5.993274"><time>2026-05-06T18:58:17Z</time></trkpt>
</trkseg></trk>
<trk>
<name>lpbgm39</name>
<cmt>r</cmt>
<desc>Gemmenich Sentier n°39 Rue des Écoles</desc>
<link href="https://chemins.be/gemmenich/sentier/39"/><trkseg>
<trkpt lat="50.746215" lon="5.993274"><time>2026-05-06T18:58:17Z</time></trkpt>
<trkpt lat="50.746156" lon="5.993710"><time>2026-05-06T19:08:17Z</time></trkpt>
<trkpt lat="50.746213" lon="5.993889"><time>2026-05-06T19:18:17Z</time></trkpt>
</trkseg></trk>
<trk>
<name>lpbgm39</name>
<cmt>v</cmt>
<desc>Gemmenich Sentier n°39 Rue des Écoles</desc>
<link href="https://chemins.be/gemmenich/sentier/39"/><trkseg>
<trkpt lat="50.746213" lon="5.993889"><time>2026-05-06T19:18:17Z</time></trkpt>
<trkpt lat="50.746181" lon="5.993992"><time>2026-05-06T19:28:17Z</time></trkpt>
<trkpt lat="50.746410" lon="5.994604"><time>2026-05-06T19:38:17Z</time></trkpt>
<trkpt lat="50.746249" lon="5.994844"><time>2026-05-06T19:48:17Z</time></trkpt>
<trkpt lat="50.746281" lon="5.994933"><time>2026-05-06T19:58:17Z</time></trkpt>
</trkseg>
</trk>
<trk>
<name>lpbgm4</name>
<cmt>r</cmt>
<desc>Gemmenich Chemin n°4 Chemin du Duc</desc>
<link href="https://chemins.be/gemmenich/chemin/4"/><trkseg>
<trkpt lat="50.753657" lon="6.001274"><time>2026-05-06T18:28:17Z</time></trkpt>
<trkpt lat="50.753148" lon="6.001245"><time>2026-05-06T18:38:17Z</time></trkpt>
<trkpt lat="50.752655" lon="6.000401"><time>2026-05-06T18:48:17Z</time></trkpt>
<trkpt lat="50.752300" lon="6.000126"><time>2026-05-06T18:58:17Z</time></trkpt>
<trkpt lat="50.751397" lon="5.998752"><time>2026-05-06T19:08:17Z</time></trkpt>
<trkpt lat="50.751349" lon="5.997296"><time>2026-05-06T19:18:17Z</time></trkpt>
<trkpt lat="50.751227" lon="5.996831"><time>2026-05-06T19:28:17Z</time></trkpt>
<trkpt lat="50.750706" lon="5.996402"><time>2026-05-06T19:38:17Z</time></trkpt>
<trkpt lat="50.750480" lon="5.994793"><time>2026-05-06T19:48:17Z</time></trkpt>
<trkpt lat="50.749018" lon="5.993956"><time>2026-05-06T19:58:17Z</time></trkpt>
<trkpt lat="50.748256" lon="5.992767"><time>2026-05-06T20:08:17Z</time></trkpt>
<trkpt lat="50.746874" lon="5.991149"><time>2026-05-06T20:18:17Z</time></trkpt>
<trkpt lat="50.746654" lon="5.990548"><time>2026-05-06T20:28:17Z</time></trkpt>
<trkpt lat="50.746066" lon="5.990184"><time>2026-05-06T20:38:17Z</time></trkpt>
<trkpt lat="50.744438" lon="5.988241"><time>2026-05-06T20:48:17Z</time></trkpt>
<trkpt lat="50.743872" lon="5.986996"><time>2026-05-06T20:58:17Z</time></trkpt>
</trkseg></trk>
<trk>
<name>lpbgm4</name>
<cmt>s</cmt>
<desc>Gemmenich Chemin n°4 Chemin du Duc</desc>
<link href="https://chemins.be/gemmenich/chemin/4"/><trkseg>
<trkpt lat="50.743872" lon="5.986996"><time>2026-05-06T20:58:17Z</time></trkpt>
<trkpt lat="50.742830" lon="5.986062"><time>2026-05-06T21:08:17Z</time></trkpt>
<trkpt lat="50.742109" lon="5.985550"><time>2026-05-06T21:18:17Z</time></trkpt>
</trkseg></trk>
<trk>
<name>lpbgm4</name>
<cmt>v</cmt>
<desc>Gemmenich Chemin n°4 Chemin du Duc</desc>
<link href="https://chemins.be/gemmenich/chemin/4"/><trkseg>
<trkpt lat="50.742109" lon="5.985550"><time>2026-05-06T21:18:17Z</time></trkpt>
<trkpt lat="50.741812" lon="5.985237"><time>2026-05-06T21:28:17Z</time></trkpt>
<trkpt lat="50.741517" lon="5.985125"><time>2026-05-06T21:38:17Z</time></trkpt>
</trkseg></trk>
<trk>
<name>lpbgm4</name>
<cmt>d</cmt>
<desc>Gemmenich Chemin n°4 Chemin du Duc</desc>
<link href="https://chemins.be/gemmenich/chemin/4"/><trkseg>
<trkpt lat="50.741517" lon="5.985125"><time>2026-05-06T21:38:17Z</time></trkpt>
<trkpt lat="50.740924" lon="5.984953"><time>2026-05-06T21:48:17Z</time></trkpt>
<trkpt lat="50.740389" lon="5.985690"><time>2026-05-06T21:58:17Z</time></trkpt>
<trkpt lat="50.739278" lon="5.985901"><time>2026-05-06T22:08:17Z</time></trkpt>
<trkpt lat="50.737651" lon="5.986845"><time>2026-05-06T22:18:17Z</time></trkpt>
<trkpt lat="50.736813" lon="5.986609"><time>2026-05-06T22:28:17Z</time></trkpt>
</trkseg></trk>
<trk>
<name>lpbgm4</name>
<cmt>b</cmt>
<desc>Gemmenich Chemin n°4 Chemin du Duc</desc>
<link href="https://chemins.be/gemmenich/chemin/4"/><trkseg>
<trkpt lat="50.736813" lon="5.986609"><time>2026-05-06T22:28:17Z</time></trkpt>
<trkpt lat="50.736524" lon="5.986838"><time>2026-05-06T22:38:17Z</time></trkpt>
</trkseg>
</trk>
<trk>
<name>lpbgm40</name>
<cmt>q</cmt>
<desc>Gemmenich Sentier n°40 </desc>
<link href="https://chemins.be/gemmenich/sentier/40"/><trkseg>
<trkpt lat="50.746169" lon="5.996354"><time>2026-05-06T18:28:17Z</time></trkpt>
<trkpt lat="50.745862" lon="5.996666"><time>2026-05-06T18:38:17Z</time></trkpt>
</trkseg></trk>
<trk>
<name>lpbgm40</name>
<cmt>v</cmt>
<desc>Gemmenich Sentier n°40 </desc>
<link href="https://chemins.be/gemmenich/sentier/40"/><trkseg>
<trkpt lat="50.745862" lon="5.996666"><time>2026-05-06T18:38:17Z</time></trkpt>
<trkpt lat="50.745745" lon="5.996789"><time>2026-05-06T18:48:17Z</time></trkpt>
<trkpt lat="50.745806" lon="5.996934"><time>2026-05-06T18:58:17Z</time></trkpt>
<trkpt lat="50.745745" lon="5.997095"><time>2026-05-06T19:08:17Z</time></trkpt>
</trkseg></trk>
<trk>
<name>lpbgm40</name>
<cmt>s</cmt>
<desc>Gemmenich Sentier n°40 </desc>
<link href="https://chemins.be/gemmenich/sentier/40"/><trkseg>
<trkpt lat="50.745745" lon="5.997095"><time>2026-05-06T19:08:17Z</time></trkpt>
<trkpt lat="50.745832" lon="5.997401"><time>2026-05-06T19:18:17Z</time></trkpt>
<trkpt lat="50.745582" lon="5.997764"><time>2026-05-06T19:28:17Z</time></trkpt>
<trkpt lat="50.745480" lon="5.999132"><time>2026-05-06T19:38:17Z</time></trkpt>
<trkpt lat="50.745414" lon="6.000204"><time>2026-05-06T19:48:17Z</time></trkpt>
</trkseg></trk>
<trk>
<name>lpbgm40</name>
<cmt>v</cmt>
<desc>Gemmenich Sentier n°40 </desc>
<link href="https://chemins.be/gemmenich/sentier/40"/><trkseg>
<trkpt lat="50.745414" lon="6.000204"><time>2026-05-06T19:48:17Z</time></trkpt>
<trkpt lat="50.745465" lon="6.001024"><time>2026-05-06T19:58:17Z</time></trkpt>
</trkseg></trk>
<trk>
<name>lpbgm40</name>
<cmt>d</cmt>
<desc>Gemmenich Sentier n°40 </desc>
<link href="https://chemins.be/gemmenich/sentier/40"/><trkseg>
<trkpt lat="50.745465" lon="6.001024"><time>2026-05-06T19:58:17Z</time></trkpt>
<trkpt lat="50.746081" lon="6.002312"><time>2026-05-06T20:08:17Z</time></trkpt>
<trkpt lat="50.746642" lon="6.003256"><time>2026-05-06T20:18:17Z</time></trkpt>
<trkpt lat="50.747407" lon="6.005967"><time>2026-05-06T20:28:17Z</time></trkpt>
<trkpt lat="50.748560" lon="6.008245"><time>2026-05-06T20:38:17Z</time></trkpt>
<trkpt lat="50.748734" lon="6.008438"><time>2026-05-06T20:48:17Z</time></trkpt>
</trkseg></trk>
<trk>
<name>lpbgm40</name>
<cmt>s</cmt>
<desc>Gemmenich Sentier n°40 </desc>
<link href="https://chemins.be/gemmenich/sentier/40"/><trkseg>
<trkpt lat="50.748734" lon="6.008438"><time>2026-05-06T20:48:17Z</time></trkpt>
<trkpt lat="50.749284" lon="6.008967"><time>2026-05-06T20:58:17Z</time></trkpt>
<trkpt lat="50.749582" lon="6.009840"><time>2026-05-06T21:08:17Z</time></trkpt>
</trkseg></trk>
<trk>
<name>lpbgm40</name>
<cmt>d</cmt>
<desc>Gemmenich Sentier n°40 </desc>
<link href="https://chemins.be/gemmenich/sentier/40"/><trkseg>
<trkpt lat="50.749582" lon="6.009840"><time>2026-05-06T21:08:17Z</time></trkpt>
<trkpt lat="50.749865" lon="6.010137"><time>2026-05-06T21:18:17Z</time></trkpt>
<trkpt lat="50.750006" lon="6.011006"><time>2026-05-06T21:28:17Z</time></trkpt>
<trkpt lat="50.750164" lon="6.010859"><time>2026-05-06T21:38:17Z</time></trkpt>
<trkpt lat="50.750241" lon="6.010280"><time>2026-05-06T21:48:17Z</time></trkpt>
<trkpt lat="50.750544" lon="6.011021"><time>2026-05-06T21:58:17Z</time></trkpt>
<trkpt lat="50.750732" lon="6.011481"><time>2026-05-06T22:08:17Z</time></trkpt>
</trkseg></trk>
<trk>
<name>lpbgm40</name>
<cmt>s</cmt>
<desc>Gemmenich Sentier n°40 </desc>
<link href="https://chemins.be/gemmenich/sentier/40"/><trkseg>
<trkpt lat="50.750732" lon="6.011481"><time>2026-05-06T22:08:17Z</time></trkpt>
<trkpt lat="50.750830" lon="6.012266"><time>2026-05-06T22:18:17Z</time></trkpt>
</trkseg></trk>
<trk>
<name>lpbgm40</name>
<cmt>d</cmt>
<desc>Gemmenich Sentier n°40 </desc>
<link href="https://chemins.be/gemmenich/sentier/40"/><trkseg>
<trkpt lat="50.750830" lon="6.012266"><time>2026-05-06T22:18:17Z</time></trkpt>
<trkpt lat="50.750910" lon="6.012912"><time>2026-05-06T22:28:17Z</time></trkpt>
<trkpt lat="50.751236" lon="6.013784"><time>2026-05-06T22:38:17Z</time></trkpt>
<trkpt lat="50.751308" lon="6.014750"><time>2026-05-06T22:48:17Z</time></trkpt>
</trkseg>
</trk>
<trk>
<name>lpbgm40bis</name>
<cmt>v</cmt>
<desc>Gemmenich Sentier n°40bis </desc>
<link href="https://chemins.be/gemmenich/sentier/40bis"/><trkseg>
<trkpt lat="50.745082" lon="6.000284"><time>2026-05-06T18:28:17Z</time></trkpt>
<trkpt lat="50.745428" lon="6.000202"><time>2026-05-06T18:38:17Z</time></trkpt>
</trkseg>
</trk>
<trk>
<name>lpbgm41</name>
<cmt>v</cmt>
<desc>Gemmenich Sentier n°41 Rue du Vivier / Rue Jean Herzet</desc>
<link href="https://chemins.be/gemmenich/sentier/41"/><trkseg>
<trkpt lat="50.742610" lon="5.997224"><time>2026-05-06T18:28:17Z</time></trkpt>
<trkpt lat="50.741913" lon="5.997439"><time>2026-05-06T18:38:17Z</time></trkpt>
<trkpt lat="50.741270" lon="5.996931"><time>2026-05-06T18:48:17Z</time></trkpt>
<trkpt lat="50.741098" lon="5.996874"><time>2026-05-06T18:58:17Z</time></trkpt>
<trkpt lat="50.740609" lon="5.996273"><time>2026-05-06T19:08:17Z</time></trkpt>
<trkpt lat="50.740039" lon="5.996375"><time>2026-05-06T19:18:17Z</time></trkpt>
<trkpt lat="50.739720" lon="5.996287"><time>2026-05-06T19:28:17Z</time></trkpt>
</trkseg></trk>
<trk>
<name>lpbgm41</name>
<cmt>r</cmt>
<desc>Gemmenich Sentier n°41 Rue du Vivier / Rue Jean Herzet</desc>
<link href="https://chemins.be/gemmenich/sentier/41"/><trkseg>
<trkpt lat="50.739720" lon="5.996287"><time>2026-05-06T19:28:17Z</time></trkpt>
<trkpt lat="50.739007" lon="5.996067"><time>2026-05-06T19:38:17Z</time></trkpt>
<trkpt lat="50.738534" lon="5.995362"><time>2026-05-06T19:48:17Z</time></trkpt>
<trkpt lat="50.738249" lon="5.995409"><time>2026-05-06T19:58:17Z</time></trkpt>
<trkpt lat="50.738062" lon="5.995675"><time>2026-05-06T20:08:17Z</time></trkpt>
<trkpt lat="50.737956" lon="5.996122"><time>2026-05-06T20:18:17Z</time></trkpt>
</trkseg></trk>
<trk>
<name>lpbgm41</name>
<cmt>v</cmt>
<desc>Gemmenich Sentier n°41 Rue du Vivier / Rue Jean Herzet</desc>
<link href="https://chemins.be/gemmenich/sentier/41"/><trkseg>
<trkpt lat="50.737956" lon="5.996122"><time>2026-05-06T20:18:17Z</time></trkpt>
<trkpt lat="50.737786" lon="5.996044"><time>2026-05-06T20:28:17Z</time></trkpt>
<trkpt lat="50.737382" lon="5.996035"><time>2026-05-06T20:38:17Z</time></trkpt>
<trkpt lat="50.737333" lon="5.996128"><time>2026-05-06T20:48:17Z</time></trkpt>
<trkpt lat="50.736762" lon="5.996107"><time>2026-05-06T20:58:17Z</time></trkpt>
<trkpt lat="50.736264" lon="5.996586"><time>2026-05-06T21:08:17Z</time></trkpt>
<trkpt lat="50.735793" lon="5.996654"><time>2026-05-06T21:18:17Z</time></trkpt>
<trkpt lat="50.735345" lon="5.996472"><time>2026-05-06T21:28:17Z</time></trkpt>
</trkseg></trk>
<trk>
<name>lpbgm41</name>
<cmt>r</cmt>
<desc>Gemmenich Sentier n°41 Rue du Vivier / Rue Jean Herzet</desc>
<link href="https://chemins.be/gemmenich/sentier/41"/><trkseg>
<trkpt lat="50.735345" lon="5.996472"><time>2026-05-06T21:28:17Z</time></trkpt>
<trkpt lat="50.734822" lon="5.994776"><time>2026-05-06T21:38:17Z</time></trkpt>
</trkseg></trk>
<trk>
<name>lpbgm41</name>
<cmt>d</cmt>
<desc>Gemmenich Sentier n°41 Rue du Vivier / Rue Jean Herzet</desc>
<link href="https://chemins.be/gemmenich/sentier/41"/><trkseg>
<trkpt lat="50.734822" lon="5.994776"><time>2026-05-06T21:38:17Z</time></trkpt>
<trkpt lat="50.733832" lon="5.993584"><time>2026-05-06T21:48:17Z</time></trkpt>
<trkpt lat="50.733067" lon="5.993614"><time>2026-05-06T21:58:17Z</time></trkpt>
<trkpt lat="50.732864" lon="5.993271"><time>2026-05-06T22:08:17Z</time></trkpt>
</trkseg>
</trk>
<trk>
<name>lpbgm41bis</name>
<cmt>v</cmt>
<desc>Gemmenich Sentier n°41bis </desc>
<link href="https://chemins.be/gemmenich/sentier/41bis"/><trkseg>
<trkpt lat="50.735864" lon="5.997739"><time>2026-05-06T18:28:17Z</time></trkpt>
<trkpt lat="50.736275" lon="5.996591"><time>2026-05-06T18:38:17Z</time></trkpt>
</trkseg>
</trk>
<trk>
<name>lpbgm42</name>
<cmt>v</cmt>
<desc>Gemmenich Sentier n°42 </desc>
<link href="https://chemins.be/gemmenich/sentier/42"/><trkseg>
<trkpt lat="50.746655" lon="5.994682"><time>2026-05-06T18:28:17Z</time></trkpt>
<trkpt lat="50.746853" lon="5.994740"><time>2026-05-06T18:38:17Z</time></trkpt>
<trkpt lat="50.747016" lon="5.994683"><time>2026-05-06T18:48:17Z</time></trkpt>
<trkpt lat="50.747201" lon="5.994842"><time>2026-05-06T18:58:17Z</time></trkpt>
</trkseg></trk>
<trk>
<name>lpbgm42</name>
<cmt>d</cmt>
<desc>Gemmenich Sentier n°42 </desc>
<link href="https://chemins.be/gemmenich/sentier/42"/><trkseg>
<trkpt lat="50.747201" lon="5.994842"><time>2026-05-06T18:58:17Z</time></trkpt>
<trkpt lat="50.747688" lon="5.995858"><time>2026-05-06T19:08:17Z</time></trkpt>
<trkpt lat="50.747761" lon="5.996925"><time>2026-05-06T19:18:17Z</time></trkpt>
<trkpt lat="50.747844" lon="5.998369"><time>2026-05-06T19:28:17Z</time></trkpt>
<trkpt lat="50.748149" lon="5.999935"><time>2026-05-06T19:38:17Z</time></trkpt>
<trkpt lat="50.748311" lon="6.000830"><time>2026-05-06T19:48:17Z</time></trkpt>
<trkpt lat="50.748600" lon="6.000816"><time>2026-05-06T19:58:17Z</time></trkpt>
<trkpt lat="50.749021" lon="6.002193"><time>2026-05-06T20:08:17Z</time></trkpt>
</trkseg>
</trk>
<trk>
<name>lpbgm43</name>
<cmt>d</cmt>
<desc>Gemmenich Sentier n°43 </desc>
<link href="https://chemins.be/gemmenich/sentier/43"/><trkseg>
<trkpt lat="50.748144" lon="5.999892"><time>2026-05-06T18:28:17Z</time></trkpt>
<trkpt lat="50.747652" lon="5.998602"><time>2026-05-06T18:38:17Z</time></trkpt>
</trkseg></trk>
<trk>
<name>lpbgm43</name>
<cmt>s</cmt>
<desc>Gemmenich Sentier n°43 </desc>
<link href="https://chemins.be/gemmenich/sentier/43"/><trkseg>
<trkpt lat="50.747652" lon="5.998602"><time>2026-05-06T18:38:17Z</time></trkpt>
<trkpt lat="50.747365" lon="5.997954"><time>2026-05-06T18:48:17Z</time></trkpt>
<trkpt lat="50.746959" lon="5.997038"><time>2026-05-06T18:58:17Z</time></trkpt>
<trkpt lat="50.746538" lon="5.996488"><time>2026-05-06T19:08:17Z</time></trkpt>
</trkseg>
</trk>
<trk>
<name>lpbgm44</name>
<cmt>s</cmt>
<desc>Gemmenich Sentier n°44 </desc>
<link href="https://chemins.be/gemmenich/sentier/44"/><trkseg>
<trkpt lat="50.745247" lon="5.997806"><time>2026-05-06T18:28:17Z</time></trkpt>
<trkpt lat="50.745512" lon="5.998639"><time>2026-05-06T18:38:17Z</time></trkpt>
<trkpt lat="50.745681" lon="5.999365"><time>2026-05-06T18:48:17Z</time></trkpt>
<trkpt lat="50.746402" lon="5.999722"><time>2026-05-06T18:58:17Z</time></trkpt>
<trkpt lat="50.747380" lon="5.999558"><time>2026-05-06T19:08:17Z</time></trkpt>
</trkseg>
</trk>
<trk>
<name>lpbgm44bis</name>
<cmt>s</cmt>
<desc>Gemmenich Sentier n°44bis </desc>
<link href="https://chemins.be/gemmenich/sentier/44bis"/><trkseg>
<trkpt lat="50.744738" lon="5.998896"><time>2026-05-06T18:28:17Z</time></trkpt>
<trkpt lat="50.745032" lon="5.999132"><time>2026-05-06T18:38:17Z</time></trkpt>
<trkpt lat="50.745512" lon="5.998753"><time>2026-05-06T18:48:17Z</time></trkpt>
</trkseg>
</trk>
<trk>
<name>lpbgm46</name>
<cmt>v</cmt>
<desc>Gemmenich Sentier n°46 </desc>
<link href="https://chemins.be/gemmenich/sentier/46"/><trkseg>
<trkpt lat="50.746306" lon="5.994013"><time>2026-05-06T18:28:17Z</time></trkpt>
<trkpt lat="50.746756" lon="5.993241"><time>2026-05-06T18:38:17Z</time></trkpt>
</trkseg></trk>
<trk>
<name>lpbgm46</name>
<cmt>d</cmt>
<desc>Gemmenich Sentier n°46 </desc>
<link href="https://chemins.be/gemmenich/sentier/46"/><trkseg>
<trkpt lat="50.746756" lon="5.993241"><time>2026-05-06T18:38:17Z</time></trkpt>
<trkpt lat="50.746908" lon="5.992979"><time>2026-05-06T18:48:17Z</time></trkpt>
</trkseg></trk>
<trk>
<name>lpbgm46</name>
<cmt>s</cmt>
<desc>Gemmenich Sentier n°46 </desc>
<link href="https://chemins.be/gemmenich/sentier/46"/><trkseg>
<trkpt lat="50.746908" lon="5.992979"><time>2026-05-06T18:48:17Z</time></trkpt>
<trkpt lat="50.747514" lon="5.991937"><time>2026-05-06T18:58:17Z</time></trkpt>
</trkseg>
</trk>
<trk>
<name>lpbgm47</name>
<cmt>v</cmt>
<desc>Gemmenich Sentier n°47 </desc>
<link href="https://chemins.be/gemmenich/sentier/47"/><trkseg>
<trkpt lat="50.745842" lon="5.997423"><time>2026-05-06T18:28:17Z</time></trkpt>
<trkpt lat="50.745900" lon="5.997704"><time>2026-05-06T18:38:17Z</time></trkpt>
</trkseg>
</trk>
<trk>
<name>lpbgm47bis</name>
<cmt>v</cmt>
<desc>Gemmenich Chemin n°47bis Weyer</desc>
<link href="https://chemins.be/gemmenich/chemin/47bis"/><trkseg>
<trkpt lat="50.746216" lon="5.997379"><time>2026-05-06T18:28:17Z</time></trkpt>
<trkpt lat="50.746193" lon="5.998044"><time>2026-05-06T18:38:17Z</time></trkpt>
<trkpt lat="50.746033" lon="5.998237"><time>2026-05-06T18:48:17Z</time></trkpt>
<trkpt lat="50.745963" lon="5.997673"><time>2026-05-06T18:58:17Z</time></trkpt>
<trkpt lat="50.745919" lon="5.997694"><time>2026-05-06T19:08:17Z</time></trkpt>
</trkseg>
</trk>
<trk>
<name>lpbgm48</name>
<cmt>d</cmt>
<desc>Gemmenich Sentier n°48 Rue César Franck</desc>
<link href="https://chemins.be/gemmenich/sentier/48"/><trkseg>
<trkpt lat="50.737924" lon="5.980816"><time>2026-05-06T18:28:17Z</time></trkpt>
<trkpt lat="50.738076" lon="5.980996"><time>2026-05-06T18:38:17Z</time></trkpt>
<trkpt lat="50.738208" lon="5.980830"><time>2026-05-06T18:48:17Z</time></trkpt>
<trkpt lat="50.738761" lon="5.981825"><time>2026-05-06T18:58:17Z</time></trkpt>
<trkpt lat="50.739008" lon="5.982300"><time>2026-05-06T19:08:17Z</time></trkpt>
<trkpt lat="50.739219" lon="5.982705"><time>2026-05-06T19:18:17Z</time></trkpt>
<trkpt lat="50.740224" lon="5.985616"><time>2026-05-06T19:28:17Z</time></trkpt>
<trkpt lat="50.740794" lon="5.986503"><time>2026-05-06T19:38:17Z</time></trkpt>
<trkpt lat="50.742047" lon="5.986282"><time>2026-05-06T19:48:17Z</time></trkpt>
<trkpt lat="50.742510" lon="5.987353"><time>2026-05-06T19:58:17Z</time></trkpt>
<trkpt lat="50.742615" lon="5.987675"><time>2026-05-06T20:08:17Z</time></trkpt>
<trkpt lat="50.743101" lon="5.987938"><time>2026-05-06T20:18:17Z</time></trkpt>
</trkseg></trk>
<trk>
<name>lpbgm48</name>
<cmt>s</cmt>
<desc>Gemmenich Sentier n°48 Rue César Franck</desc>
<link href="https://chemins.be/gemmenich/sentier/48"/><trkseg>
<trkpt lat="50.743101" lon="5.987938"><time>2026-05-06T20:18:17Z</time></trkpt>
<trkpt lat="50.744117" lon="5.990244"><time>2026-05-06T20:28:17Z</time></trkpt>
<trkpt lat="50.744749" lon="5.992379"><time>2026-05-06T20:38:17Z</time></trkpt>
<trkpt lat="50.744749" lon="5.993302"><time>2026-05-06T20:48:17Z</time></trkpt>
<trkpt lat="50.744982" lon="5.993806"><time>2026-05-06T20:58:17Z</time></trkpt>
<trkpt lat="50.745177" lon="5.993982"><time>2026-05-06T21:08:17Z</time></trkpt>
</trkseg>
</trk>
<trk>
<name>lpbgm49</name>
<cmt>q</cmt>
<desc>Gemmenich Sentier n°49 </desc>
<link href="https://chemins.be/gemmenich/sentier/49"/><trkseg>
<trkpt lat="50.744054" lon="5.987509"><time>2026-05-06T18:28:17Z</time></trkpt>
<trkpt lat="50.743589" lon="5.988796"><time>2026-05-06T18:38:17Z</time></trkpt>
</trkseg>
</trk>
<trk>
<name>lpbgm5</name>
<cmt>v</cmt>
<desc>Gemmenich Chemin n°5 Terbruggen</desc>
<link href="https://chemins.be/gemmenich/chemin/5"/><trkseg>
<trkpt lat="50.753326" lon="5.976089"><time>2026-05-06T18:28:17Z</time></trkpt>
<trkpt lat="50.754376" lon="5.976382"><time>2026-05-06T18:38:17Z</time></trkpt>
<trkpt lat="50.755217" lon="5.974140"><time>2026-05-06T18:48:17Z</time></trkpt>
<trkpt lat="50.754798" lon="5.971941"><time>2026-05-06T18:58:17Z</time></trkpt>
<trkpt lat="50.754409" lon="5.971294"><time>2026-05-06T19:08:17Z</time></trkpt>
<trkpt lat="50.754282" lon="5.970732"><time>2026-05-06T19:18:17Z</time></trkpt>
<trkpt lat="50.753973" lon="5.968400"><time>2026-05-06T19:28:17Z</time></trkpt>
</trkseg></trk>
<trk>
<name>lpbgm5</name>
<cmt>r</cmt>
<desc>Gemmenich Chemin n°5 Terbruggen</desc>
<link href="https://chemins.be/gemmenich/chemin/5"/><trkseg>
<trkpt lat="50.753973" lon="5.968400"><time>2026-05-06T19:28:17Z</time></trkpt>
<trkpt lat="50.753960" lon="5.964273"><time>2026-05-06T19:38:17Z</time></trkpt>
<trkpt lat="50.752492" lon="5.955559"><time>2026-05-06T19:48:17Z</time></trkpt>
<trkpt lat="50.752365" lon="5.953971"><time>2026-05-06T19:58:17Z</time></trkpt>
<trkpt lat="50.751352" lon="5.948106"><time>2026-05-06T20:08:17Z</time></trkpt>
<trkpt lat="50.751539" lon="5.946863"><time>2026-05-06T20:18:17Z</time></trkpt>
</trkseg></trk>
<trk>
<name>lpbgm5</name>
<cmt>v</cmt>
<desc>Gemmenich Chemin n°5 Terbruggen</desc>
<link href="https://chemins.be/gemmenich/chemin/5"/><trkseg>
<trkpt lat="50.751539" lon="5.946863"><time>2026-05-06T20:18:17Z</time></trkpt>
<trkpt lat="50.751743" lon="5.945486"><time>2026-05-06T20:28:17Z</time></trkpt>
<trkpt lat="50.752266" lon="5.943106"><time>2026-05-06T20:38:17Z</time></trkpt>
<trkpt lat="50.752225" lon="5.942763"><time>2026-05-06T20:48:17Z</time></trkpt>
</trkseg></trk>
<trk>
<name>lpbgm5</name>
<cmt>r</cmt>
<desc>Gemmenich Chemin n°5 Terbruggen</desc>
<link href="https://chemins.be/gemmenich/chemin/5"/><trkseg>
<trkpt lat="50.752225" lon="5.942763"><time>2026-05-06T20:48:17Z</time></trkpt>
<trkpt lat="50.751593" lon="5.941474"><time>2026-05-06T20:58:17Z</time></trkpt>
</trkseg></trk>
<trk>
<name>lpbgm5</name>
<cmt>s</cmt>
<desc>Gemmenich Chemin n°5 Terbruggen</desc>
<link href="https://chemins.be/gemmenich/chemin/5"/><trkseg>
<trkpt lat="50.751593" lon="5.941474"><time>2026-05-06T20:58:17Z</time></trkpt>
<trkpt lat="50.751878" lon="5.939864"><time>2026-05-06T21:08:17Z</time></trkpt>
</trkseg>
</trk>
<trk>
<name>lpbgm50</name>
<cmt>d</cmt>
<desc>Gemmenich Sentier n°50 </desc>
<link href="https://chemins.be/gemmenich/sentier/50"/><trkseg>
<trkpt lat="50.741645" lon="5.982783"><time>2026-05-06T18:28:17Z</time></trkpt>
<trkpt lat="50.741767" lon="5.985208"><time>2026-05-06T18:38:17Z</time></trkpt>
<trkpt lat="50.742016" lon="5.986288"><time>2026-05-06T18:48:17Z</time></trkpt>
</trkseg>
</trk>
<trk>
<name>lpbgm51</name>
<cmt>d</cmt>
<desc>Gemmenich Sentier n°51 </desc>
<link href="https://chemins.be/gemmenich/sentier/51"/><trkseg>
<trkpt lat="50.748109" lon="5.984244"><time>2026-05-06T18:28:17Z</time></trkpt>
<trkpt lat="50.746411" lon="5.984144"><time>2026-05-06T18:38:17Z</time></trkpt>
<trkpt lat="50.745809" lon="5.983744"><time>2026-05-06T18:48:17Z</time></trkpt>
<trkpt lat="50.744547" lon="5.984459"><time>2026-05-06T18:58:17Z</time></trkpt>
<trkpt lat="50.743610" lon="5.984116"><time>2026-05-06T19:08:17Z</time></trkpt>
<trkpt lat="50.743257" lon="5.984437"><time>2026-05-06T19:18:17Z</time></trkpt>
</trkseg>
</trk>
<trk>
<name>lpbgm52</name>
<cmt>v</cmt>
<desc>Gemmenich Sentier n°52 Chemin de Graat</desc>
<link href="https://chemins.be/gemmenich/sentier/52"/><trkseg>
<trkpt lat="50.753696" lon="5.981312"><time>2026-05-06T18:28:17Z</time></trkpt>
<trkpt lat="50.752551" lon="5.980597"><time>2026-05-06T18:38:17Z</time></trkpt>
</trkseg></trk>
<trk>
<name>lpbgm52</name>
<cmt>s</cmt>
<desc>Gemmenich Sentier n°52 Chemin de Graat</desc>
<link href="https://chemins.be/gemmenich/sentier/52"/><trkseg>
<trkpt lat="50.752551" lon="5.980597"><time>2026-05-06T18:38:17Z</time></trkpt>
<trkpt lat="50.750692" lon="5.979942"><time>2026-05-06T18:48:17Z</time></trkpt>
<trkpt lat="50.749325" lon="5.977896"><time>2026-05-06T18:58:17Z</time></trkpt>
<trkpt lat="50.748730" lon="5.977806"><time>2026-05-06T19:08:17Z</time></trkpt>
</trkseg></trk>
<trk>
<name>lpbgm52</name>
<cmt>d</cmt>
<desc>Gemmenich Sentier n°52 Chemin de Graat</desc>
<link href="https://chemins.be/gemmenich/sentier/52"/><trkseg>
<trkpt lat="50.748730" lon="5.977806"><time>2026-05-06T19:08:17Z</time></trkpt>
<trkpt lat="50.747542" lon="5.977625"><time>2026-05-06T19:18:17Z</time></trkpt>
<trkpt lat="50.746936" lon="5.976809"><time>2026-05-06T19:28:17Z</time></trkpt>
<trkpt lat="50.746120" lon="5.976404"><time>2026-05-06T19:38:17Z</time></trkpt>
</trkseg></trk>
<trk>
<name>lpbgm52</name>
<cmt>s</cmt>
<desc>Gemmenich Sentier n°52 Chemin de Graat</desc>
<link href="https://chemins.be/gemmenich/sentier/52"/><trkseg>
<trkpt lat="50.746120" lon="5.976404"><time>2026-05-06T19:38:17Z</time></trkpt>
<trkpt lat="50.745717" lon="5.976193"><time>2026-05-06T19:48:17Z</time></trkpt>
<trkpt lat="50.744763" lon="5.975693"><time>2026-05-06T19:58:17Z</time></trkpt>
</trkseg>
</trk>
<trk>
<name>lpbgm52bis</name>
<cmt>v</cmt>
<desc>Gemmenich Sentier n°52bis </desc>
<link href="https://chemins.be/gemmenich/sentier/52bis"/><trkseg>
<trkpt lat="50.752680" lon="5.980660"><time>2026-05-06T18:28:17Z</time></trkpt>
<trkpt lat="50.752749" lon="5.979412"><time>2026-05-06T18:38:17Z</time></trkpt>
<trkpt lat="50.752475" lon="5.979473"><time>2026-05-06T18:48:17Z</time></trkpt>
<trkpt lat="50.752212" lon="5.979215"><time>2026-05-06T18:58:17Z</time></trkpt>
<trkpt lat="50.752082" lon="5.979537"><time>2026-05-06T19:08:17Z</time></trkpt>
<trkpt lat="50.751837" lon="5.979859"><time>2026-05-06T19:18:17Z</time></trkpt>
<trkpt lat="50.751640" lon="5.979891"><time>2026-05-06T19:28:17Z</time></trkpt>
<trkpt lat="50.751448" lon="5.979732"><time>2026-05-06T19:38:17Z</time></trkpt>
<trkpt lat="50.751362" lon="5.979983"><time>2026-05-06T19:48:17Z</time></trkpt>
<trkpt lat="50.751110" lon="5.980131"><time>2026-05-06T19:58:17Z</time></trkpt>
<trkpt lat="50.750594" lon="5.979920"><time>2026-05-06T20:08:17Z</time></trkpt>
<trkpt lat="50.750712" lon="5.979315"><time>2026-05-06T20:18:17Z</time></trkpt>
<trkpt lat="50.750241" lon="5.979051"><time>2026-05-06T20:28:17Z</time></trkpt>
<trkpt lat="50.750279" lon="5.978725"><time>2026-05-06T20:38:17Z</time></trkpt>
<trkpt lat="50.750082" lon="5.978568"><time>2026-05-06T20:48:17Z</time></trkpt>
<trkpt lat="50.750080" lon="5.978293"><time>2026-05-06T20:58:17Z</time></trkpt>
<trkpt lat="50.749759" lon="5.978246"><time>2026-05-06T21:08:17Z</time></trkpt>
<trkpt lat="50.749705" lon="5.978053"><time>2026-05-06T21:18:17Z</time></trkpt>
<trkpt lat="50.749476" lon="5.977738"><time>2026-05-06T21:28:17Z</time></trkpt>
<trkpt lat="50.749413" lon="5.977198"><time>2026-05-06T21:38:17Z</time></trkpt>
<trkpt lat="50.749100" lon="5.976937"><time>2026-05-06T21:48:17Z</time></trkpt>
<trkpt lat="50.748677" lon="5.976762"><time>2026-05-06T21:58:17Z</time></trkpt>
</trkseg>
</trk>
<trk>
<name>lpbgm53</name>
<cmt>s</cmt>
<desc>Gemmenich Sentier n°53 Chemin de Graat</desc>
<link href="https://chemins.be/gemmenich/sentier/53"/><trkseg>
<trkpt lat="50.744877" lon="5.975833"><time>2026-05-06T18:28:17Z</time></trkpt>
<trkpt lat="50.745561" lon="5.976679"><time>2026-05-06T18:38:17Z</time></trkpt>
<trkpt lat="50.745686" lon="5.976835"><time>2026-05-06T18:48:17Z</time></trkpt>
<trkpt lat="50.745901" lon="5.977098"><time>2026-05-06T18:58:17Z</time></trkpt>
</trkseg></trk>
<trk>
<name>lpbgm53</name>
<cmt>q</cmt>
<desc>Gemmenich Sentier n°53 Chemin de Graat</desc>
<link href="https://chemins.be/gemmenich/sentier/53"/><trkseg>
<trkpt lat="50.745901" lon="5.977098"><time>2026-05-06T18:58:17Z</time></trkpt>
<trkpt lat="50.746395" lon="5.977709"><time>2026-05-06T19:08:17Z</time></trkpt>
</trkseg></trk>
<trk>
<name>lpbgm53</name>
<cmt>d</cmt>
<desc>Gemmenich Sentier n°53 Chemin de Graat</desc>
<link href="https://chemins.be/gemmenich/sentier/53"/><trkseg>
<trkpt lat="50.746395" lon="5.977709"><time>2026-05-06T19:08:17Z</time></trkpt>
<trkpt lat="50.746665" lon="5.978043"><time>2026-05-06T19:18:17Z</time></trkpt>
<trkpt lat="50.747145" lon="5.978150"><time>2026-05-06T19:28:17Z</time></trkpt>
<trkpt lat="50.748109" lon="5.980418"><time>2026-05-06T19:38:17Z</time></trkpt>
</trkseg>
</trk>
<trk>
<name>lpbgm53bis</name>
<cmt>v</cmt>
<desc>Gemmenich Sentier n°53bis </desc>
<link href="https://chemins.be/gemmenich/sentier/53bis"/><trkseg>
<trkpt lat="50.744364" lon="5.977080"><time>2026-05-06T18:28:17Z</time></trkpt>
<trkpt lat="50.744715" lon="5.977384"><time>2026-05-06T18:38:17Z</time></trkpt>
</trkseg></trk>
<trk>
<name>lpbgm53bis</name>
<cmt>d</cmt>
<desc>Gemmenich Sentier n°53bis </desc>
<link href="https://chemins.be/gemmenich/sentier/53bis"/><trkseg>
<trkpt lat="50.744715" lon="5.977384"><time>2026-05-06T18:38:17Z</time></trkpt>
<trkpt lat="50.745858" lon="5.977559"><time>2026-05-06T18:48:17Z</time></trkpt>
<trkpt lat="50.746390" lon="5.977724"><time>2026-05-06T18:58:17Z</time></trkpt>
</trkseg>
</trk>
<trk>
<name>lpbgm54</name>
<cmt>v</cmt>
<desc>Gemmenich Sentier n°54 </desc>
<link href="https://chemins.be/gemmenich/sentier/54"/><trkseg>
<trkpt lat="50.744366" lon="5.977094"><time>2026-05-06T18:28:17Z</time></trkpt>
<trkpt lat="50.744699" lon="5.977386"><time>2026-05-06T18:38:17Z</time></trkpt>
</trkseg></trk>
<trk>
<name>lpbgm54</name>
<cmt>d</cmt>
<desc>Gemmenich Sentier n°54 </desc>
<link href="https://chemins.be/gemmenich/sentier/54"/><trkseg>
<trkpt lat="50.744699" lon="5.977386"><time>2026-05-06T18:38:17Z</time></trkpt>
<trkpt lat="50.744925" lon="5.978284"><time>2026-05-06T18:48:17Z</time></trkpt>
<trkpt lat="50.745230" lon="5.979325"><time>2026-05-06T18:58:17Z</time></trkpt>
</trkseg></trk>
<trk>
<name>lpbgm54</name>
<cmt>v</cmt>
<desc>Gemmenich Sentier n°54 </desc>
<link href="https://chemins.be/gemmenich/sentier/54"/><trkseg>
<trkpt lat="50.745230" lon="5.979325"><time>2026-05-06T18:58:17Z</time></trkpt>
<trkpt lat="50.745359" lon="5.979754"><time>2026-05-06T19:08:17Z</time></trkpt>
</trkseg></trk>
<trk>
<name>lpbgm54</name>
<cmt>d</cmt>
<desc>Gemmenich Sentier n°54 </desc>
<link href="https://chemins.be/gemmenich/sentier/54"/><trkseg>
<trkpt lat="50.745359" lon="5.979754"><time>2026-05-06T19:08:17Z</time></trkpt>
<trkpt lat="50.746045" lon="5.982120"><time>2026-05-06T19:18:17Z</time></trkpt>
<trkpt lat="50.747217" lon="5.982985"><time>2026-05-06T19:28:17Z</time></trkpt>
<trkpt lat="50.747425" lon="5.983736"><time>2026-05-06T19:38:17Z</time></trkpt>
<trkpt lat="50.748163" lon="5.984330"><time>2026-05-06T19:48:17Z</time></trkpt>
</trkseg>
</trk>
<trk>
<name>lpbgm55</name>
<cmt>s</cmt>
<desc>Gemmenich Sentier n°55  </desc>
<link href="https://chemins.be/gemmenich/sentier/55"/><trkseg>
<trkpt lat="50.749380" lon="5.975540"><time>2026-05-06T18:28:17Z</time></trkpt>
<trkpt lat="50.748996" lon="5.975429"><time>2026-05-06T18:38:17Z</time></trkpt>
<trkpt lat="50.748736" lon="5.975107"><time>2026-05-06T18:48:17Z</time></trkpt>
<trkpt lat="50.747751" lon="5.974610"><time>2026-05-06T18:58:17Z</time></trkpt>
</trkseg></trk>
<trk>
<name>lpbgm55</name>
<cmt>d</cmt>
<desc>Gemmenich Sentier n°55  </desc>
<link href="https://chemins.be/gemmenich/sentier/55"/><trkseg>
<trkpt lat="50.747751" lon="5.974610"><time>2026-05-06T18:58:17Z</time></trkpt>
<trkpt lat="50.746018" lon="5.975164"><time>2026-05-06T19:08:17Z</time></trkpt>
</trkseg>
</trk>
<trk>
<name>lpbgm56</name>
<cmt>s</cmt>
<desc>Gemmenich Sentier n°56 </desc>
<link href="https://chemins.be/gemmenich/sentier/56"/><trkseg>
<trkpt lat="50.750439" lon="5.971484"><time>2026-05-06T18:28:17Z</time></trkpt>
<trkpt lat="50.750018" lon="5.972815"><time>2026-05-06T18:38:17Z</time></trkpt>
<trkpt lat="50.749964" lon="5.973823"><time>2026-05-06T18:48:17Z</time></trkpt>
<trkpt lat="50.750326" lon="5.974281"><time>2026-05-06T18:58:17Z</time></trkpt>
<trkpt lat="50.750431" lon="5.975355"><time>2026-05-06T19:08:17Z</time></trkpt>
</trkseg></trk>
<trk>
<name>lpbgm56</name>
<cmt>v</cmt>
<desc>Gemmenich Sentier n°56 </desc>
<link href="https://chemins.be/gemmenich/sentier/56"/><trkseg>
<trkpt lat="50.750431" lon="5.975355"><time>2026-05-06T19:08:17Z</time></trkpt>
<trkpt lat="50.750123" lon="5.975391"><time>2026-05-06T19:18:17Z</time></trkpt>
</trkseg></trk>
<trk>
<name>lpbgm56</name>
<cmt>s</cmt>
<desc>Gemmenich Sentier n°56 </desc>
<link href="https://chemins.be/gemmenich/sentier/56"/><trkseg>
<trkpt lat="50.750123" lon="5.975391"><time>2026-05-06T19:18:17Z</time></trkpt>
<trkpt lat="50.750085" lon="5.976642"><time>2026-05-06T19:28:17Z</time></trkpt>
<trkpt lat="50.750071" lon="5.977107"><time>2026-05-06T19:38:17Z</time></trkpt>
<trkpt lat="50.750064" lon="5.977330"><time>2026-05-06T19:48:17Z</time></trkpt>
<trkpt lat="50.749408" lon="5.978045"><time>2026-05-06T19:58:17Z</time></trkpt>
</trkseg>
</trk>
<trk>
<name>lpbgm56bis</name>
<cmt>d</cmt>
<desc>Gemmenich Sentier n°56bis </desc>
<link href="https://chemins.be/gemmenich/sentier/56bis"/><trkseg>
<trkpt lat="50.750790" lon="5.972770"><time>2026-05-06T18:28:17Z</time></trkpt>
<trkpt lat="50.750729" lon="5.974014"><time>2026-05-06T18:38:17Z</time></trkpt>
</trkseg>
</trk>
<trk>
<name>lpbgm56ter</name>
<cmt>r</cmt>
<desc>Gemmenich Sentier n°56ter Parc des Trois Frontières</desc>
<link href="https://chemins.be/gemmenich/sentier/56ter"/><trkseg>
<trkpt lat="50.749556" lon="5.975471"><time>2026-05-06T18:28:17Z</time></trkpt>
<trkpt lat="50.749899" lon="5.975508"><time>2026-05-06T18:38:17Z</time></trkpt>
<trkpt lat="50.750249" lon="5.976270"><time>2026-05-06T18:48:17Z</time></trkpt>
<trkpt lat="50.750062" lon="5.976640"><time>2026-05-06T18:58:17Z</time></trkpt>
<trkpt lat="50.750072" lon="5.977107"><time>2026-05-06T19:08:17Z</time></trkpt>
<trkpt lat="50.749446" lon="5.977166"><time>2026-05-06T19:18:17Z</time></trkpt>
</trkseg>
</trk>
<trk>
<name>lpbgm57</name>
<cmt>v</cmt>
<desc>Gemmenich Sentier n°57 </desc>
<link href="https://chemins.be/gemmenich/sentier/57"/><trkseg>
<trkpt lat="50.748437" lon="5.968748"><time>2026-05-06T18:28:17Z</time></trkpt>
<trkpt lat="50.748414" lon="5.969002"><time>2026-05-06T18:38:17Z</time></trkpt>
<trkpt lat="50.748421" lon="5.969206"><time>2026-05-06T18:48:17Z</time></trkpt>
</trkseg></trk>
<trk>
<name>lpbgm57</name>
<cmt>d</cmt>
<desc>Gemmenich Sentier n°57 </desc>
<link href="https://chemins.be/gemmenich/sentier/57"/><trkseg>
<trkpt lat="50.748421" lon="5.969206"><time>2026-05-06T18:48:17Z</time></trkpt>
<trkpt lat="50.747244" lon="5.972586"><time>2026-05-06T18:58:17Z</time></trkpt>
<trkpt lat="50.746126" lon="5.974293"><time>2026-05-06T19:08:17Z</time></trkpt>
<trkpt lat="50.745800" lon="5.975225"><time>2026-05-06T19:18:17Z</time></trkpt>
</trkseg>
</trk>
<trk>
<name>lpbgm58</name>
<cmt>v</cmt>
<desc>Gemmenich Sentier n°58 Sentier 58 / Tersaessen</desc>
<link href="https://chemins.be/gemmenich/sentier/58"/><trkseg>
<trkpt lat="50.753793" lon="5.940199"><time>2026-05-06T18:28:17Z</time></trkpt>
<trkpt lat="50.754586" lon="5.941416"><time>2026-05-06T18:38:17Z</time></trkpt>
<trkpt lat="50.755089" lon="5.942142"><time>2026-05-06T18:48:17Z</time></trkpt>
<trkpt lat="50.755132" lon="5.942271"><time>2026-05-06T18:58:17Z</time></trkpt>
<trkpt lat="50.755130" lon="5.942412"><time>2026-05-06T19:08:17Z</time></trkpt>
<trkpt lat="50.755156" lon="5.942541"><time>2026-05-06T19:18:17Z</time></trkpt>
<trkpt lat="50.755437" lon="5.943032"><time>2026-05-06T19:28:17Z</time></trkpt>
<trkpt lat="50.755489" lon="5.943176"><time>2026-05-06T19:38:17Z</time></trkpt>
<trkpt lat="50.755495" lon="5.943417"><time>2026-05-06T19:48:17Z</time></trkpt>
<trkpt lat="50.755483" lon="5.943629"><time>2026-05-06T19:58:17Z</time></trkpt>
<trkpt lat="50.755533" lon="5.943886"><time>2026-05-06T20:08:17Z</time></trkpt>
<trkpt lat="50.755691" lon="5.944161"><time>2026-05-06T20:18:17Z</time></trkpt>
<trkpt lat="50.756185" lon="5.944872"><time>2026-05-06T20:28:17Z</time></trkpt>
<trkpt lat="50.756325" lon="5.945174"><time>2026-05-06T20:38:17Z</time></trkpt>
<trkpt lat="50.756358" lon="5.945430"><time>2026-05-06T20:48:17Z</time></trkpt>
<trkpt lat="50.756329" lon="5.945585"><time>2026-05-06T20:58:17Z</time></trkpt>
<trkpt lat="50.756190" lon="5.945864"><time>2026-05-06T21:08:17Z</time></trkpt>
<trkpt lat="50.756153" lon="5.945962"><time>2026-05-06T21:18:17Z</time></trkpt>
<trkpt lat="50.756144" lon="5.947313"><time>2026-05-06T21:28:17Z</time></trkpt>
<trkpt lat="50.755723" lon="5.948311"><time>2026-05-06T21:38:17Z</time></trkpt>
<trkpt lat="50.755829" lon="5.948468"><time>2026-05-06T21:48:17Z</time></trkpt>
<trkpt lat="50.755856" lon="5.949436"><time>2026-05-06T21:58:17Z</time></trkpt>
<trkpt lat="50.756016" lon="5.950111"><time>2026-05-06T22:08:17Z</time></trkpt>
<trkpt lat="50.756629" lon="5.951960"><time>2026-05-06T22:18:17Z</time></trkpt>
<trkpt lat="50.756475" lon="5.952692"><time>2026-05-06T22:28:17Z</time></trkpt>
<trkpt lat="50.756507" lon="5.953033"><time>2026-05-06T22:38:17Z</time></trkpt>
</trkseg></trk>
<trk>
<name>lpbgm58</name>
<cmt>d</cmt>
<desc>Gemmenich Sentier n°58 Sentier 58 / Tersaessen</desc>
<link href="https://chemins.be/gemmenich/sentier/58"/><trkseg>
<trkpt lat="50.756507" lon="5.953033"><time>2026-05-06T22:38:17Z</time></trkpt>
<trkpt lat="50.756712" lon="5.954893"><time>2026-05-06T22:48:17Z</time></trkpt>
<trkpt lat="50.756510" lon="5.955547"><time>2026-05-06T22:58:17Z</time></trkpt>
<trkpt lat="50.756626" lon="5.956063"><time>2026-05-06T23:08:17Z</time></trkpt>
</trkseg></trk>
<trk>
<name>lpbgm58</name>
<cmt>r</cmt>
<desc>Gemmenich Sentier n°58 Sentier 58 / Tersaessen</desc>
<link href="https://chemins.be/gemmenich/sentier/58"/><trkseg>
<trkpt lat="50.756626" lon="5.956063"><time>2026-05-06T23:08:17Z</time></trkpt>
<trkpt lat="50.756417" lon="5.957336"><time>2026-05-06T23:18:17Z</time></trkpt>
</trkseg></trk>
<trk>
<name>lpbgm58</name>
<cmt>d</cmt>
<desc>Gemmenich Sentier n°58 Sentier 58 / Tersaessen</desc>
<link href="https://chemins.be/gemmenich/sentier/58"/><trkseg>
<trkpt lat="50.756417" lon="5.957336"><time>2026-05-06T23:18:17Z</time></trkpt>
<trkpt lat="50.754461" lon="5.958723"><time>2026-05-06T23:28:17Z</time></trkpt>
<trkpt lat="50.753880" lon="5.959801"><time>2026-05-06T23:38:17Z</time></trkpt>
<trkpt lat="50.753354" lon="5.960027"><time>2026-05-06T23:48:17Z</time></trkpt>
<trkpt lat="50.753326" lon="5.959611"><time>2026-05-06T23:58:17Z</time></trkpt>
<trkpt lat="50.751584" lon="5.960684"><time>2026-05-07T00:08:17Z</time></trkpt>
<trkpt lat="50.749466" lon="5.964775"><time>2026-05-07T00:18:17Z</time></trkpt>
<trkpt lat="50.747656" lon="5.966091"><time>2026-05-07T00:28:17Z</time></trkpt>
<trkpt lat="50.746312" lon="5.968022"><time>2026-05-07T00:38:17Z</time></trkpt>
<trkpt lat="50.745927" lon="5.970168"><time>2026-05-07T00:48:17Z</time></trkpt>
</trkseg></trk>
<trk>
<name>lpbgm58</name>
<cmt>v</cmt>
<desc>Gemmenich Sentier n°58 Sentier 58 / Tersaessen</desc>
<link href="https://chemins.be/gemmenich/sentier/58"/><trkseg>
<trkpt lat="50.745927" lon="5.970168"><time>2026-05-07T00:48:17Z</time></trkpt>
<trkpt lat="50.745027" lon="5.972464"><time>2026-05-07T00:58:17Z</time></trkpt>
<trkpt lat="50.744873" lon="5.974023"><time>2026-05-07T01:08:17Z</time></trkpt>
<trkpt lat="50.744456" lon="5.974331"><time>2026-05-07T01:18:17Z</time></trkpt>
</trkseg>
</trk>
<trk>
<name>lpbgm59</name>
<cmt>v</cmt>
<desc>Gemmenich Sentier n°59 </desc>
<link href="https://chemins.be/gemmenich/sentier/59"/><trkseg>
<trkpt lat="50.744240" lon="5.973902"><time>2026-05-06T18:28:17Z</time></trkpt>
<trkpt lat="50.744011" lon="5.974145"><time>2026-05-06T18:38:17Z</time></trkpt>
<trkpt lat="50.743377" lon="5.975000"><time>2026-05-06T18:48:17Z</time></trkpt>
<trkpt lat="50.742336" lon="5.975597"><time>2026-05-06T18:58:17Z</time></trkpt>
<trkpt lat="50.741960" lon="5.975954"><time>2026-05-06T19:08:17Z</time></trkpt>
</trkseg></trk>
<trk>
<name>lpbgm59</name>
<cmt>d</cmt>
<desc>Gemmenich Sentier n°59 </desc>
<link href="https://chemins.be/gemmenich/sentier/59"/><trkseg>
<trkpt lat="50.741960" lon="5.975954"><time>2026-05-06T19:08:17Z</time></trkpt>
<trkpt lat="50.741209" lon="5.976670"><time>2026-05-06T19:18:17Z</time></trkpt>
<trkpt lat="50.739099" lon="5.978841"><time>2026-05-06T19:28:17Z</time></trkpt>
</trkseg></trk>
<trk>
<name>lpbgm59</name>
<cmt>v</cmt>
<desc>Gemmenich Sentier n°59 </desc>
<link href="https://chemins.be/gemmenich/sentier/59"/><trkseg>
<trkpt lat="50.739099" lon="5.978841"><time>2026-05-06T19:28:17Z</time></trkpt>
<trkpt lat="50.738678" lon="5.979554"><time>2026-05-06T19:38:17Z</time></trkpt>
</trkseg>
</trk>
<trk>
<name>lpbgm6</name>
<cmt>r</cmt>
<desc>Gemmenich Chemin n°6 Rue de Grunebempt / Parc des Trois Frontières</desc>
<link href="https://chemins.be/gemmenich/chemin/6"/><trkseg>
<trkpt lat="50.746609" lon="5.990621"><time>2026-05-06T18:28:17Z</time></trkpt>
<trkpt lat="50.749017" lon="5.981036"><time>2026-05-06T18:38:17Z</time></trkpt>
<trkpt lat="50.749487" lon="5.981265"><time>2026-05-06T18:48:17Z</time></trkpt>
<trkpt lat="50.750501" lon="5.980550"><time>2026-05-06T18:58:17Z</time></trkpt>
<trkpt lat="50.750806" lon="5.979372"><time>2026-05-06T19:08:17Z</time></trkpt>
<trkpt lat="50.751408" lon="5.978392"><time>2026-05-06T19:18:17Z</time></trkpt>
<trkpt lat="50.751344" lon="5.977727"><time>2026-05-06T19:28:17Z</time></trkpt>
<trkpt lat="50.752195" lon="5.977069"><time>2026-05-06T19:38:17Z</time></trkpt>
<trkpt lat="50.752878" lon="5.976775"><time>2026-05-06T19:48:17Z</time></trkpt>
<trkpt lat="50.753335" lon="5.976146"><time>2026-05-06T19:58:17Z</time></trkpt>
</trkseg></trk>
<trk>
<name>lpbgm6</name>
<cmt>v</cmt>
<desc>Gemmenich Chemin n°6 Rue de Grunebempt / Parc des Trois Frontières</desc>
<link href="https://chemins.be/gemmenich/chemin/6"/><trkseg>
<trkpt lat="50.753335" lon="5.976146"><time>2026-05-06T19:58:17Z</time></trkpt>
<trkpt lat="50.753664" lon="5.975602"><time>2026-05-06T20:08:17Z</time></trkpt>
<trkpt lat="50.753670" lon="5.974587"><time>2026-05-06T20:18:17Z</time></trkpt>
<trkpt lat="50.753654" lon="5.974048"><time>2026-05-06T20:28:17Z</time></trkpt>
<trkpt lat="50.753696" lon="5.973492"><time>2026-05-06T20:38:17Z</time></trkpt>
<trkpt lat="50.753883" lon="5.972737"><time>2026-05-06T20:48:17Z</time></trkpt>
<trkpt lat="50.754412" lon="5.971301"><time>2026-05-06T20:58:17Z</time></trkpt>
</trkseg>
</trk>
<trk>
<name>lpbgm60</name>
<cmt>d</cmt>
<desc>Gemmenich Sentier n°60 </desc>
<link href="https://chemins.be/gemmenich/sentier/60"/><trkseg>
<trkpt lat="50.734962" lon="5.978333"><time>2026-05-06T18:28:17Z</time></trkpt>
<trkpt lat="50.735912" lon="5.977850"><time>2026-05-06T18:38:17Z</time></trkpt>
<trkpt lat="50.737117" lon="5.977710"><time>2026-05-06T18:48:17Z</time></trkpt>
<trkpt lat="50.737746" lon="5.978065"><time>2026-05-06T18:58:17Z</time></trkpt>
<trkpt lat="50.738438" lon="5.977582"><time>2026-05-06T19:08:17Z</time></trkpt>
<trkpt lat="50.738744" lon="5.977088"><time>2026-05-06T19:18:17Z</time></trkpt>
<trkpt lat="50.741168" lon="5.976734"><time>2026-05-06T19:28:17Z</time></trkpt>
<trkpt lat="50.742281" lon="5.975533"><time>2026-05-06T19:38:17Z</time></trkpt>
<trkpt lat="50.743144" lon="5.975653"><time>2026-05-06T19:48:17Z</time></trkpt>
<trkpt lat="50.743976" lon="5.976297"><time>2026-05-06T19:58:17Z</time></trkpt>
<trkpt lat="50.744372" lon="5.976176"><time>2026-05-06T20:08:17Z</time></trkpt>
</trkseg>
</trk>
<trk>
<name>lpbgm61</name>
<cmt>d</cmt>
<desc>Gemmenich Sentier n°61 Rue du Casino / Belle-Vue</desc>
<link href="https://chemins.be/gemmenich/sentier/61"/><trkseg>
<trkpt lat="50.736823" lon="5.967421"><time>2026-05-06T18:28:17Z</time></trkpt>
<trkpt lat="50.736377" lon="5.968354"><time>2026-05-06T18:38:17Z</time></trkpt>
</trkseg></trk>
<trk>
<name>lpbgm61</name>
<cmt>v</cmt>
<desc>Gemmenich Sentier n°61 Rue du Casino / Belle-Vue</desc>
<link href="https://chemins.be/gemmenich/sentier/61"/><trkseg>
<trkpt lat="50.736377" lon="5.968354"><time>2026-05-06T18:38:17Z</time></trkpt>
<trkpt lat="50.736321" lon="5.968374"><time>2026-05-06T18:48:17Z</time></trkpt>
<trkpt lat="50.735556" lon="5.971080"><time>2026-05-06T18:58:17Z</time></trkpt>
</trkseg></trk>
<trk>
<name>lpbgm61</name>
<cmt>d</cmt>
<desc>Gemmenich Sentier n°61 Rue du Casino / Belle-Vue</desc>
<link href="https://chemins.be/gemmenich/sentier/61"/><trkseg>
<trkpt lat="50.735556" lon="5.971080"><time>2026-05-06T18:58:17Z</time></trkpt>
<trkpt lat="50.735146" lon="5.971762"><time>2026-05-06T19:08:17Z</time></trkpt>
<trkpt lat="50.734249" lon="5.972183"><time>2026-05-06T19:18:17Z</time></trkpt>
<trkpt lat="50.734048" lon="5.972722"><time>2026-05-06T19:28:17Z</time></trkpt>
</trkseg></trk>
<trk>
<name>lpbgm61</name>
<cmt>r</cmt>
<desc>Gemmenich Sentier n°61 Rue du Casino / Belle-Vue</desc>
<link href="https://chemins.be/gemmenich/sentier/61"/><trkseg>
<trkpt lat="50.734048" lon="5.972722"><time>2026-05-06T19:28:17Z</time></trkpt>
<trkpt lat="50.733978" lon="5.972968"><time>2026-05-06T19:38:17Z</time></trkpt>
<trkpt lat="50.733609" lon="5.973172"><time>2026-05-06T19:48:17Z</time></trkpt>
</trkseg></trk>
<trk>
<name>lpbgm61</name>
<cmt>v</cmt>
<desc>Gemmenich Sentier n°61 Rue du Casino / Belle-Vue</desc>
<link href="https://chemins.be/gemmenich/sentier/61"/><trkseg>
<trkpt lat="50.733609" lon="5.973172"><time>2026-05-06T19:48:17Z</time></trkpt>
<trkpt lat="50.732656" lon="5.973478"><time>2026-05-06T19:58:17Z</time></trkpt>
<trkpt lat="50.732130" lon="5.973440"><time>2026-05-06T20:08:17Z</time></trkpt>
<trkpt lat="50.731901" lon="5.973663"><time>2026-05-06T20:18:17Z</time></trkpt>
<trkpt lat="50.730725" lon="5.974910"><time>2026-05-06T20:28:17Z</time></trkpt>
<trkpt lat="50.730313" lon="5.975382"><time>2026-05-06T20:38:17Z</time></trkpt>
</trkseg></trk>
<trk>
<name>lpbgm61</name>
<cmt>d</cmt>
<desc>Gemmenich Sentier n°61 Rue du Casino / Belle-Vue</desc>
<link href="https://chemins.be/gemmenich/sentier/61"/><trkseg>
<trkpt lat="50.730313" lon="5.975382"><time>2026-05-06T20:38:17Z</time></trkpt>
<trkpt lat="50.730127" lon="5.975919"><time>2026-05-06T20:48:17Z</time></trkpt>
</trkseg>
</trk>
<trk>
<name>lpbgm62</name>
<cmt>d</cmt>
<desc>Gemmenich Sentier n°62 </desc>
<link href="https://chemins.be/gemmenich/sentier/62"/><trkseg>
<trkpt lat="50.738669" lon="5.977120"><time>2026-05-06T18:28:17Z</time></trkpt>
<trkpt lat="50.738176" lon="5.976664"><time>2026-05-06T18:38:17Z</time></trkpt>
<trkpt lat="50.737436" lon="5.976890"><time>2026-05-06T18:48:17Z</time></trkpt>
</trkseg></trk>
<trk>
<name>lpbgm62</name>
<cmt>r</cmt>
<desc>Gemmenich Sentier n°62 </desc>
<link href="https://chemins.be/gemmenich/sentier/62"/><trkseg>
<trkpt lat="50.737436" lon="5.976890"><time>2026-05-06T18:48:17Z</time></trkpt>
<trkpt lat="50.737189" lon="5.976123"><time>2026-05-06T18:58:17Z</time></trkpt>
</trkseg></trk>
<trk>
<name>lpbgm62</name>
<cmt>d</cmt>
<desc>Gemmenich Sentier n°62 </desc>
<link href="https://chemins.be/gemmenich/sentier/62"/><trkseg>
<trkpt lat="50.737189" lon="5.976123"><time>2026-05-06T18:58:17Z</time></trkpt>
<trkpt lat="50.734683" lon="5.973891"><time>2026-05-06T19:08:17Z</time></trkpt>
</trkseg>
</trk>
<trk>
<name>lpbgm63</name>
<cmt>d</cmt>
<desc>Gemmenich Sentier n°63 </desc>
<link href="https://chemins.be/gemmenich/sentier/63"/><trkseg>
<trkpt lat="50.735681" lon="5.977153"><time>2026-05-06T18:28:17Z</time></trkpt>
<trkpt lat="50.736618" lon="5.977421"><time>2026-05-06T18:38:17Z</time></trkpt>
<trkpt lat="50.737101" lon="5.977700"><time>2026-05-06T18:48:17Z</time></trkpt>
</trkseg>
</trk>
<trk>
<name>lpbgm64</name>
<cmt>d</cmt>
<desc>Gemmenich Chemin n°64 </desc>
<link href="https://chemins.be/gemmenich/chemin/64"/><trkseg>
<trkpt lat="50.735311" lon="5.978553"><time>2026-05-06T18:28:17Z</time></trkpt>
<trkpt lat="50.733582" lon="5.981292"><time>2026-05-06T18:38:17Z</time></trkpt>
</trkseg>
</trk>
<trk>
<name>lpbgm65</name>
<cmt>d</cmt>
<desc>Gemmenich Sentier n°65 </desc>
<link href="https://chemins.be/gemmenich/sentier/65"/><trkseg>
<trkpt lat="50.742403" lon="5.978569"><time>2026-05-06T18:28:17Z</time></trkpt>
<trkpt lat="50.742335" lon="5.975500"><time>2026-05-06T18:38:17Z</time></trkpt>
<trkpt lat="50.742478" lon="5.972539"><time>2026-05-06T18:48:17Z</time></trkpt>
<trkpt lat="50.742264" lon="5.971645"><time>2026-05-06T18:58:17Z</time></trkpt>
</trkseg></trk>
<trk>
<name>lpbgm65</name>
<cmt>v</cmt>
<desc>Gemmenich Sentier n°65 </desc>
<link href="https://chemins.be/gemmenich/sentier/65"/><trkseg>
<trkpt lat="50.742264" lon="5.971645"><time>2026-05-06T18:58:17Z</time></trkpt>
<trkpt lat="50.741764" lon="5.971070"><time>2026-05-06T19:08:17Z</time></trkpt>
</trkseg></trk>
<trk>
<name>lpbgm65</name>
<cmt>d</cmt>
<desc>Gemmenich Sentier n°65 </desc>
<link href="https://chemins.be/gemmenich/sentier/65"/><trkseg>
<trkpt lat="50.741764" lon="5.971070"><time>2026-05-06T19:08:17Z</time></trkpt>
<trkpt lat="50.741271" lon="5.970393"><time>2026-05-06T19:18:17Z</time></trkpt>
<trkpt lat="50.741099" lon="5.969592"><time>2026-05-06T19:28:17Z</time></trkpt>
<trkpt lat="50.740304" lon="5.969449"><time>2026-05-06T19:38:17Z</time></trkpt>
<trkpt lat="50.739591" lon="5.968273"><time>2026-05-06T19:48:17Z</time></trkpt>
</trkseg>
</trk>
<trk>
<name>lpbgm66</name>
<cmt>s</cmt>
<desc>Gemmenich Sentier n°66 </desc>
<link href="https://chemins.be/gemmenich/sentier/66"/><trkseg>
<trkpt lat="50.752064" lon="5.952022"><time>2026-05-06T18:28:17Z</time></trkpt>
<trkpt lat="50.750817" lon="5.953272"><time>2026-05-06T18:38:17Z</time></trkpt>
</trkseg></trk>
<trk>
<name>lpbgm66</name>
<cmt>v</cmt>
<desc>Gemmenich Sentier n°66 </desc>
<link href="https://chemins.be/gemmenich/sentier/66"/><trkseg>
<trkpt lat="50.750817" lon="5.953272"><time>2026-05-06T18:38:17Z</time></trkpt>
<trkpt lat="50.749792" lon="5.955355"><time>2026-05-06T18:48:17Z</time></trkpt>
</trkseg></trk>
<trk>
<name>lpbgm66</name>
<cmt>d</cmt>
<desc>Gemmenich Sentier n°66 </desc>
<link href="https://chemins.be/gemmenich/sentier/66"/><trkseg>
<trkpt lat="50.749792" lon="5.955355"><time>2026-05-06T18:48:17Z</time></trkpt>
<trkpt lat="50.749763" lon="5.955703"><time>2026-05-06T18:58:17Z</time></trkpt>
<trkpt lat="50.749683" lon="5.956542"><time>2026-05-06T19:08:17Z</time></trkpt>
<trkpt lat="50.747758" lon="5.959765"><time>2026-05-06T19:18:17Z</time></trkpt>
<trkpt lat="50.747701" lon="5.960636"><time>2026-05-06T19:28:17Z</time></trkpt>
<trkpt lat="50.747690" lon="5.960976"><time>2026-05-06T19:38:17Z</time></trkpt>
<trkpt lat="50.747501" lon="5.963670"><time>2026-05-06T19:48:17Z</time></trkpt>
</trkseg>
</trk>
<trk>
<name>lpbgm67</name>
<cmt>r</cmt>
<desc>Gemmenich Chemin n°67 </desc>
<link href="https://chemins.be/gemmenich/chemin/67"/><trkseg>
<trkpt lat="50.746217" lon="5.957007"><time>2026-05-06T18:28:17Z</time></trkpt>
<trkpt lat="50.745860" lon="5.956094"><time>2026-05-06T18:38:17Z</time></trkpt>
<trkpt lat="50.745556" lon="5.955956"><time>2026-05-06T18:48:17Z</time></trkpt>
<trkpt lat="50.745337" lon="5.955588"><time>2026-05-06T18:58:17Z</time></trkpt>
</trkseg></trk>
<trk>
<name>lpbgm67</name>
<cmt>v</cmt>
<desc>Gemmenich Chemin n°67 </desc>
<link href="https://chemins.be/gemmenich/chemin/67"/><trkseg>
<trkpt lat="50.745337" lon="5.955588"><time>2026-05-06T18:58:17Z</time></trkpt>
<trkpt lat="50.745121" lon="5.955188"><time>2026-05-06T19:08:17Z</time></trkpt>
</trkseg></trk>
<trk>
<name>lpbgm67</name>
<cmt>d</cmt>
<desc>Gemmenich Chemin n°67 </desc>
<link href="https://chemins.be/gemmenich/chemin/67"/><trkseg>
<trkpt lat="50.745121" lon="5.955188"><time>2026-05-06T19:08:17Z</time></trkpt>
<trkpt lat="50.744357" lon="5.955834"><time>2026-05-06T19:18:17Z</time></trkpt>
<trkpt lat="50.744198" lon="5.957122"><time>2026-05-06T19:28:17Z</time></trkpt>
</trkseg>
</trk>
<trk>
<name>lpbgm68</name>
<cmt>v</cmt>
<desc>Gemmenich Chemin n°68 </desc>
<link href="https://chemins.be/gemmenich/chemin/68"/><trkseg>
<trkpt lat="50.745103" lon="5.955148"><time>2026-05-06T18:28:17Z</time></trkpt>
<trkpt lat="50.744126" lon="5.954139"><time>2026-05-06T18:38:17Z</time></trkpt>
<trkpt lat="50.743587" lon="5.954368"><time>2026-05-06T18:48:17Z</time></trkpt>
<trkpt lat="50.743153" lon="5.954897"><time>2026-05-06T18:58:17Z</time></trkpt>
</trkseg></trk>
<trk>
<name>lpbgm68</name>
<cmt>d</cmt>
<desc>Gemmenich Chemin n°68 </desc>
<link href="https://chemins.be/gemmenich/chemin/68"/><trkseg>
<trkpt lat="50.743153" lon="5.954897"><time>2026-05-06T18:58:17Z</time></trkpt>
<trkpt lat="50.743055" lon="5.955200"><time>2026-05-06T19:08:17Z</time></trkpt>
<trkpt lat="50.742944" lon="5.954829"><time>2026-05-06T19:18:17Z</time></trkpt>
<trkpt lat="50.742971" lon="5.954212"><time>2026-05-06T19:28:17Z</time></trkpt>
<trkpt lat="50.743546" lon="5.952643"><time>2026-05-06T19:38:17Z</time></trkpt>
<trkpt lat="50.744232" lon="5.951902"><time>2026-05-06T19:48:17Z</time></trkpt>
</trkseg>
</trk>
<trk>
<name>lpbgm68bis</name>
<cmt>v</cmt>
<desc>Gemmenich Sentier n°68bis </desc>
<link href="https://chemins.be/gemmenich/sentier/68bis"/><trkseg>
<trkpt lat="50.743158" lon="5.954984"><time>2026-05-06T18:28:17Z</time></trkpt>
<trkpt lat="50.743094" lon="5.955810"><time>2026-05-06T18:38:17Z</time></trkpt>
<trkpt lat="50.742876" lon="5.956036"><time>2026-05-06T18:48:17Z</time></trkpt>
</trkseg>
</trk>
<trk>
<name>lpbgm69</name>
<cmt>d</cmt>
<desc>Gemmenich Sentier n°69 </desc>
<link href="https://chemins.be/gemmenich/sentier/69"/><trkseg>
<trkpt lat="50.746663" lon="5.958484"><time>2026-05-06T18:28:17Z</time></trkpt>
<trkpt lat="50.747310" lon="5.959235"><time>2026-05-06T18:38:17Z</time></trkpt>
<trkpt lat="50.747700" lon="5.960666"><time>2026-05-06T18:48:17Z</time></trkpt>
</trkseg>
</trk>
<trk>
<name>lpbgm7</name>
<cmt>v</cmt>
<desc>Gemmenich Chemin n°7 Tersaessen</desc>
<link href="https://chemins.be/gemmenich/chemin/7"/><trkseg>
<trkpt lat="50.756667" lon="5.956073"><time>2026-05-06T18:28:17Z</time></trkpt>
<trkpt lat="50.756981" lon="5.955494"><time>2026-05-06T18:38:17Z</time></trkpt>
<trkpt lat="50.757126" lon="5.955408"><time>2026-05-06T18:48:17Z</time></trkpt>
<trkpt lat="50.758265" lon="5.955802"><time>2026-05-06T18:58:17Z</time></trkpt>
<trkpt lat="50.758469" lon="5.956832"><time>2026-05-06T19:08:17Z</time></trkpt>
<trkpt lat="50.759253" lon="5.957369"><time>2026-05-06T19:18:17Z</time></trkpt>
<trkpt lat="50.759320" lon="5.957601"><time>2026-05-06T19:28:17Z</time></trkpt>
<trkpt lat="50.759571" lon="5.957764"><time>2026-05-06T19:38:17Z</time></trkpt>
<trkpt lat="50.759827" lon="5.957957"><time>2026-05-06T19:48:17Z</time></trkpt>
<trkpt lat="50.760324" lon="5.958006"><time>2026-05-06T19:58:17Z</time></trkpt>
<trkpt lat="50.760782" lon="5.958196"><time>2026-05-06T20:08:17Z</time></trkpt>
<trkpt lat="50.761180" lon="5.957803"><time>2026-05-06T20:18:17Z</time></trkpt>
<trkpt lat="50.761811" lon="5.957428"><time>2026-05-06T20:28:17Z</time></trkpt>
</trkseg>
</trk>
<trk>
<name>lpbgm70</name>
<cmt>d</cmt>
<desc>Gemmenich Sentier n°70 Gérardsbroich</desc>
<link href="https://chemins.be/gemmenich/sentier/70"/><trkseg>
<trkpt lat="50.742106" lon="5.963759"><time>2026-05-06T18:28:17Z</time></trkpt>
<trkpt lat="50.742667" lon="5.963963"><time>2026-05-06T18:38:17Z</time></trkpt>
<trkpt lat="50.742971" lon="5.963851"><time>2026-05-06T18:48:17Z</time></trkpt>
<trkpt lat="50.742973" lon="5.963647"><time>2026-05-06T18:58:17Z</time></trkpt>
</trkseg></trk>
<trk>
<name>lpbgm70</name>
<cmt>s</cmt>
<desc>Gemmenich Sentier n°70 Gérardsbroich</desc>
<link href="https://chemins.be/gemmenich/sentier/70"/><trkseg>
<trkpt lat="50.742973" lon="5.963647"><time>2026-05-06T18:58:17Z</time></trkpt>
<trkpt lat="50.743801" lon="5.964485"><time>2026-05-06T19:08:17Z</time></trkpt>
</trkseg></trk>
<trk>
<name>lpbgm70</name>
<cmt>r</cmt>
<desc>Gemmenich Sentier n°70 Gérardsbroich</desc>
<link href="https://chemins.be/gemmenich/sentier/70"/><trkseg>
<trkpt lat="50.743801" lon="5.964485"><time>2026-05-06T19:08:17Z</time></trkpt>
<trkpt lat="50.744613" lon="5.964535"><time>2026-05-06T19:18:17Z</time></trkpt>
</trkseg></trk>
<trk>
<name>lpbgm70</name>
<cmt>v</cmt>
<desc>Gemmenich Sentier n°70 Gérardsbroich</desc>
<link href="https://chemins.be/gemmenich/sentier/70"/><trkseg>
<trkpt lat="50.744613" lon="5.964535"><time>2026-05-06T19:18:17Z</time></trkpt>
<trkpt lat="50.747546" lon="5.964589"><time>2026-05-06T19:28:17Z</time></trkpt>
</trkseg></trk>
<trk>
<name>lpbgm70</name>
<cmt>r</cmt>
<desc>Gemmenich Sentier n°70 Gérardsbroich</desc>
<link href="https://chemins.be/gemmenich/sentier/70"/><trkseg>
<trkpt lat="50.747546" lon="5.964589"><time>2026-05-06T19:28:17Z</time></trkpt>
<trkpt lat="50.747482" lon="5.963588"><time>2026-05-06T19:38:17Z</time></trkpt>
</trkseg></trk>
<trk>
<name>lpbgm70</name>
<cmt>d</cmt>
<desc>Gemmenich Sentier n°70 Gérardsbroich</desc>
<link href="https://chemins.be/gemmenich/sentier/70"/><trkseg>
<trkpt lat="50.747482" lon="5.963588"><time>2026-05-06T19:38:17Z</time></trkpt>
<trkpt lat="50.750229" lon="5.963141"><time>2026-05-06T19:48:17Z</time></trkpt>
</trkseg>
</trk>
<trk>
<name>lpbgm71</name>
<cmt>d</cmt>
<desc>Gemmenich Sentier n°71 </desc>
<link href="https://chemins.be/gemmenich/sentier/71"/><trkseg>
<trkpt lat="50.747095" lon="5.960784"><time>2026-05-06T18:28:17Z</time></trkpt>
<trkpt lat="50.745782" lon="5.962815"><time>2026-05-06T18:38:17Z</time></trkpt>
<trkpt lat="50.745185" lon="5.963867"><time>2026-05-06T18:48:17Z</time></trkpt>
</trkseg>
</trk>
<trk>
<name>lpbgm72</name>
<cmt>d</cmt>
<desc>Gemmenich Sentier n°72 </desc>
<link href="https://chemins.be/gemmenich/sentier/72"/><trkseg>
<trkpt lat="50.751149" lon="5.941875"><time>2026-05-06T18:28:17Z</time></trkpt>
<trkpt lat="50.750829" lon="5.942424"><time>2026-05-06T18:38:17Z</time></trkpt>
</trkseg></trk>
<trk>
<name>lpbgm72</name>
<cmt>s</cmt>
<desc>Gemmenich Sentier n°72 </desc>
<link href="https://chemins.be/gemmenich/sentier/72"/><trkseg>
<trkpt lat="50.750829" lon="5.942424"><time>2026-05-06T18:38:17Z</time></trkpt>
<trkpt lat="50.750541" lon="5.942916"><time>2026-05-06T18:48:17Z</time></trkpt>
</trkseg></trk>
<trk>
<name>lpbgm72</name>
<cmt>d</cmt>
<desc>Gemmenich Sentier n°72 </desc>
<link href="https://chemins.be/gemmenich/sentier/72"/><trkseg>
<trkpt lat="50.750541" lon="5.942916"><time>2026-05-06T18:48:17Z</time></trkpt>
<trkpt lat="50.748853" lon="5.945802"><time>2026-05-06T18:58:17Z</time></trkpt>
</trkseg></trk>
<trk>
<name>lpbgm72</name>
<cmt>s</cmt>
<desc>Gemmenich Sentier n°72 </desc>
<link href="https://chemins.be/gemmenich/sentier/72"/><trkseg>
<trkpt lat="50.748853" lon="5.945802"><time>2026-05-06T18:58:17Z</time></trkpt>
<trkpt lat="50.748497" lon="5.946524"><time>2026-05-06T19:08:17Z</time></trkpt>
<trkpt lat="50.747235" lon="5.950219"><time>2026-05-06T19:18:17Z</time></trkpt>
</trkseg></trk>
<trk>
<name>lpbgm72</name>
<cmt>d</cmt>
<desc>Gemmenich Sentier n°72 </desc>
<link href="https://chemins.be/gemmenich/sentier/72"/><trkseg>
<trkpt lat="50.747235" lon="5.950219"><time>2026-05-06T19:18:17Z</time></trkpt>
<trkpt lat="50.746418" lon="5.950465"><time>2026-05-06T19:28:17Z</time></trkpt>
<trkpt lat="50.746321" lon="5.950265"><time>2026-05-06T19:38:17Z</time></trkpt>
</trkseg></trk>
<trk>
<name>lpbgm72</name>
<cmt>v</cmt>
<desc>Gemmenich Sentier n°72 </desc>
<link href="https://chemins.be/gemmenich/sentier/72"/><trkseg>
<trkpt lat="50.746321" lon="5.950265"><time>2026-05-06T19:38:17Z</time></trkpt>
<trkpt lat="50.744401" lon="5.951859"><time>2026-05-06T19:48:17Z</time></trkpt>
<trkpt lat="50.743288" lon="5.952160"><time>2026-05-06T19:58:17Z</time></trkpt>
<trkpt lat="50.742861" lon="5.952800"><time>2026-05-06T20:08:17Z</time></trkpt>
<trkpt lat="50.742838" lon="5.953871"><time>2026-05-06T20:18:17Z</time></trkpt>
<trkpt lat="50.742753" lon="5.954897"><time>2026-05-06T20:28:17Z</time></trkpt>
<trkpt lat="50.742875" lon="5.956052"><time>2026-05-06T20:38:17Z</time></trkpt>
<trkpt lat="50.743211" lon="5.957594"><time>2026-05-06T20:48:17Z</time></trkpt>
<trkpt lat="50.744861" lon="5.959042"><time>2026-05-06T20:58:17Z</time></trkpt>
<trkpt lat="50.745151" lon="5.960045"><time>2026-05-06T21:08:17Z</time></trkpt>
<trkpt lat="50.745000" lon="5.961268"><time>2026-05-06T21:18:17Z</time></trkpt>
<trkpt lat="50.744710" lon="5.961682"><time>2026-05-06T21:28:17Z</time></trkpt>
<trkpt lat="50.744642" lon="5.962148"><time>2026-05-06T21:38:17Z</time></trkpt>
</trkseg></trk>
<trk>
<name>lpbgm72</name>
<cmt>d</cmt>
<desc>Gemmenich Sentier n°72 </desc>
<link href="https://chemins.be/gemmenich/sentier/72"/><trkseg>
<trkpt lat="50.744642" lon="5.962148"><time>2026-05-06T21:38:17Z</time></trkpt>
<trkpt lat="50.743045" lon="5.963393"><time>2026-05-06T21:48:17Z</time></trkpt>
<trkpt lat="50.742966" lon="5.963659"><time>2026-05-06T21:58:17Z</time></trkpt>
<trkpt lat="50.743006" lon="5.964142"><time>2026-05-06T22:08:17Z</time></trkpt>
</trkseg></trk>
<trk>
<name>lpbgm72</name>
<cmt>v</cmt>
<desc>Gemmenich Sentier n°72 </desc>
<link href="https://chemins.be/gemmenich/sentier/72"/><trkseg>
<trkpt lat="50.743006" lon="5.964142"><time>2026-05-06T22:08:17Z</time></trkpt>
<trkpt lat="50.742922" lon="5.964208"><time>2026-05-06T22:18:17Z</time></trkpt>
<trkpt lat="50.742936" lon="5.964725"><time>2026-05-06T22:28:17Z</time></trkpt>
<trkpt lat="50.742856" lon="5.965340"><time>2026-05-06T22:38:17Z</time></trkpt>
</trkseg>
</trk>
<trk>
<name>lpbgm73</name>
<cmt>v</cmt>
<desc>Gemmenich Sentier n°73 </desc>
<link href="https://chemins.be/gemmenich/sentier/73"/><trkseg>
<trkpt lat="50.747200" lon="5.950228"><time>2026-05-06T18:28:17Z</time></trkpt>
<trkpt lat="50.746787" lon="5.950043"><time>2026-05-06T18:38:17Z</time></trkpt>
<trkpt lat="50.746345" lon="5.950244"><time>2026-05-06T18:48:17Z</time></trkpt>
</trkseg></trk>
<trk>
<name>lpbgm73</name>
<cmt>d</cmt>
<desc>Gemmenich Sentier n°73 </desc>
<link href="https://chemins.be/gemmenich/sentier/73"/><trkseg>
<trkpt lat="50.746345" lon="5.950244"><time>2026-05-06T18:48:17Z</time></trkpt>
<trkpt lat="50.746194" lon="5.949995"><time>2026-05-06T18:58:17Z</time></trkpt>
<trkpt lat="50.745524" lon="5.949618"><time>2026-05-06T19:08:17Z</time></trkpt>
</trkseg>
</trk>
<trk>
<name>lpbgm74</name>
<cmt>d</cmt>
<desc>Gemmenich Sentier n°74 </desc>
<link href="https://chemins.be/gemmenich/sentier/74"/><trkseg>
<trkpt lat="50.746609" lon="5.952462"><time>2026-05-06T18:28:17Z</time></trkpt>
<trkpt lat="50.747175" lon="5.950373"><time>2026-05-06T18:38:17Z</time></trkpt>
</trkseg>
</trk>
<trk>
<name>lpbgm75</name>
<cmt>v</cmt>
<desc>Gemmenich Sentier n°75 </desc>
<link href="https://chemins.be/gemmenich/sentier/75"/><trkseg>
<trkpt lat="50.756067" lon="5.937155"><time>2026-05-06T18:28:17Z</time></trkpt>
<trkpt lat="50.756323" lon="5.937004"><time>2026-05-06T18:38:17Z</time></trkpt>
<trkpt lat="50.756325" lon="5.937276"><time>2026-05-06T18:48:17Z</time></trkpt>
<trkpt lat="50.756458" lon="5.937791"><time>2026-05-06T18:58:17Z</time></trkpt>
<trkpt lat="50.757899" lon="5.938958"><time>2026-05-06T19:08:17Z</time></trkpt>
</trkseg>
</trk>
<trk>
<name>lpbgm76</name>
<cmt>s</cmt>
<desc>Gemmenich Sentier n°76 Rue de Terstraeten / Sentier 58</desc>
<link href="https://chemins.be/gemmenich/sentier/76"/><trkseg>
<trkpt lat="50.752290" lon="5.943096"><time>2026-05-06T18:28:17Z</time></trkpt>
<trkpt lat="50.752950" lon="5.945184"><time>2026-05-06T18:38:17Z</time></trkpt>
<trkpt lat="50.754191" lon="5.947235"><time>2026-05-06T18:48:17Z</time></trkpt>
</trkseg></trk>
<trk>
<name>lpbgm76</name>
<cmt>d</cmt>
<desc>Gemmenich Sentier n°76 Rue de Terstraeten / Sentier 58</desc>
<link href="https://chemins.be/gemmenich/sentier/76"/><trkseg>
<trkpt lat="50.754191" lon="5.947235"><time>2026-05-06T18:48:17Z</time></trkpt>
<trkpt lat="50.755826" lon="5.948469"><time>2026-05-06T18:58:17Z</time></trkpt>
</trkseg></trk>
<trk>
<name>lpbgm76</name>
<cmt>v</cmt>
<desc>Gemmenich Sentier n°76 Rue de Terstraeten / Sentier 58</desc>
<link href="https://chemins.be/gemmenich/sentier/76"/><trkseg>
<trkpt lat="50.755826" lon="5.948469"><time>2026-05-06T18:58:17Z</time></trkpt>
<trkpt lat="50.755847" lon="5.949435"><time>2026-05-06T19:08:17Z</time></trkpt>
<trkpt lat="50.756037" lon="5.950164"><time>2026-05-06T19:18:17Z</time></trkpt>
<trkpt lat="50.756940" lon="5.950003"><time>2026-05-06T19:28:17Z</time></trkpt>
<trkpt lat="50.757868" lon="5.950953"><time>2026-05-06T19:38:17Z</time></trkpt>
<trkpt lat="50.758565" lon="5.951625"><time>2026-05-06T19:48:17Z</time></trkpt>
<trkpt lat="50.759141" lon="5.953122"><time>2026-05-06T19:58:17Z</time></trkpt>
<trkpt lat="50.759363" lon="5.953266"><time>2026-05-06T20:08:17Z</time></trkpt>
<trkpt lat="50.759451" lon="5.953015"><time>2026-05-06T20:18:17Z</time></trkpt>
<trkpt lat="50.759596" lon="5.953158"><time>2026-05-06T20:28:17Z</time></trkpt>
<trkpt lat="50.759571" lon="5.952671"><time>2026-05-06T20:38:17Z</time></trkpt>
<trkpt lat="50.759605" lon="5.952472"><time>2026-05-06T20:48:17Z</time></trkpt>
<trkpt lat="50.759741" lon="5.952229"><time>2026-05-06T20:58:17Z</time></trkpt>
<trkpt lat="50.760006" lon="5.951563"><time>2026-05-06T21:08:17Z</time></trkpt>
<trkpt lat="50.760177" lon="5.951241"><time>2026-05-06T21:18:17Z</time></trkpt>
<trkpt lat="50.760089" lon="5.950684"><time>2026-05-06T21:28:17Z</time></trkpt>
<trkpt lat="50.759845" lon="5.950226"><time>2026-05-06T21:38:17Z</time></trkpt>
<trkpt lat="50.759801" lon="5.949874"><time>2026-05-06T21:48:17Z</time></trkpt>
<trkpt lat="50.759860" lon="5.948887"><time>2026-05-06T21:58:17Z</time></trkpt>
<trkpt lat="50.760013" lon="5.948513"><time>2026-05-06T22:08:17Z</time></trkpt>
</trkseg>
</trk>
<trk>
<name>lpbgm77</name>
<cmt>d</cmt>
<desc>Gemmenich Sentier n°77 </desc>
<link href="https://chemins.be/gemmenich/sentier/77"/><trkseg>
<trkpt lat="50.752256" lon="5.952868"><time>2026-05-06T18:28:17Z</time></trkpt>
<trkpt lat="50.753105" lon="5.952707"><time>2026-05-06T18:38:17Z</time></trkpt>
<trkpt lat="50.753695" lon="5.951988"><time>2026-05-06T18:48:17Z</time></trkpt>
<trkpt lat="50.755487" lon="5.952567"><time>2026-05-06T18:58:17Z</time></trkpt>
<trkpt lat="50.756573" lon="5.953694"><time>2026-05-06T19:08:17Z</time></trkpt>
<trkpt lat="50.756702" lon="5.954874"><time>2026-05-06T19:18:17Z</time></trkpt>
<trkpt lat="50.756498" lon="5.955507"><time>2026-05-06T19:28:17Z</time></trkpt>
<trkpt lat="50.756654" lon="5.956086"><time>2026-05-06T19:38:17Z</time></trkpt>
</trkseg>
</trk>
<trk>
<name>lpbgm78</name>
<cmt>s</cmt>
<desc>Gemmenich Sentier n°78 </desc>
<link href="https://chemins.be/gemmenich/sentier/78"/><trkseg>
<trkpt lat="50.755046" lon="5.948018"><time>2026-05-06T18:28:17Z</time></trkpt>
<trkpt lat="50.754822" lon="5.950808"><time>2026-05-06T18:38:17Z</time></trkpt>
<trkpt lat="50.755584" lon="5.952640"><time>2026-05-06T18:48:17Z</time></trkpt>
</trkseg>
</trk>
<trk>
<name>lpbgm79</name>
<cmt>d</cmt>
<desc>Gemmenich Sentier n°79 </desc>
<link href="https://chemins.be/gemmenich/sentier/79"/><trkseg>
<trkpt lat="50.752465" lon="5.954987"><time>2026-05-06T18:28:17Z</time></trkpt>
<trkpt lat="50.752899" lon="5.954872"><time>2026-05-06T18:38:17Z</time></trkpt>
<trkpt lat="50.754293" lon="5.956532"><time>2026-05-06T18:48:17Z</time></trkpt>
<trkpt lat="50.754292" lon="5.956559"><time>2026-05-06T18:58:17Z</time></trkpt>
<trkpt lat="50.755282" lon="5.956481"><time>2026-05-06T19:08:17Z</time></trkpt>
<trkpt lat="50.756443" lon="5.957387"><time>2026-05-06T19:18:17Z</time></trkpt>
<trkpt lat="50.757578" lon="5.958007"><time>2026-05-06T19:28:17Z</time></trkpt>
<trkpt lat="50.759132" lon="5.959659"><time>2026-05-06T19:38:17Z</time></trkpt>
<trkpt lat="50.759349" lon="5.959734"><time>2026-05-06T19:48:17Z</time></trkpt>
</trkseg>
</trk>
<trk>
<name>lpbgm8</name>
<cmt>v</cmt>
<desc>Gemmenich Chemin n°8 Rue du Loch</desc>
<link href="https://chemins.be/gemmenich/chemin/8"/><trkseg>
<trkpt lat="50.748263" lon="6.002765"><time>2026-05-06T18:28:17Z</time></trkpt>
<trkpt lat="50.748988" lon="6.002542"><time>2026-05-06T18:38:17Z</time></trkpt>
<trkpt lat="50.748956" lon="6.002304"><time>2026-05-06T18:48:17Z</time></trkpt>
</trkseg></trk>
<trk>
<name>lpbgm8</name>
<cmt>r</cmt>
<desc>Gemmenich Chemin n°8 Rue du Loch</desc>
<link href="https://chemins.be/gemmenich/chemin/8"/><trkseg>
<trkpt lat="50.748956" lon="6.002304"><time>2026-05-06T18:48:17Z</time></trkpt>
<trkpt lat="50.749386" lon="6.002040"><time>2026-05-06T18:58:17Z</time></trkpt>
<trkpt lat="50.750127" lon="6.002203"><time>2026-05-06T19:08:17Z</time></trkpt>
<trkpt lat="50.750943" lon="6.002390"><time>2026-05-06T19:18:17Z</time></trkpt>
<trkpt lat="50.752188" lon="6.002076"><time>2026-05-06T19:28:17Z</time></trkpt>
</trkseg></trk>
<trk>
<name>lpbgm8</name>
<cmt>v</cmt>
<desc>Gemmenich Chemin n°8 Rue du Loch</desc>
<link href="https://chemins.be/gemmenich/chemin/8"/><trkseg>
<trkpt lat="50.752188" lon="6.002076"><time>2026-05-06T19:28:17Z</time></trkpt>
<trkpt lat="50.753138" lon="6.001296"><time>2026-05-06T19:38:17Z</time></trkpt>
</trkseg>
</trk>
<trk>
<name>lpbgm80</name>
<cmt>s</cmt>
<desc>Gemmenich Sentier n°80 </desc>
<link href="https://chemins.be/gemmenich/sentier/80"/><trkseg>
<trkpt lat="50.757870" lon="5.950766"><time>2026-05-06T18:28:17Z</time></trkpt>
<trkpt lat="50.758338" lon="5.951182"><time>2026-05-06T18:38:17Z</time></trkpt>
<trkpt lat="50.759850" lon="5.949780"><time>2026-05-06T18:48:17Z</time></trkpt>
<trkpt lat="50.759822" lon="5.949250"><time>2026-05-06T18:58:17Z</time></trkpt>
<trkpt lat="50.760076" lon="5.948950"><time>2026-05-06T19:08:17Z</time></trkpt>
<trkpt lat="50.759975" lon="5.948507"><time>2026-05-06T19:18:17Z</time></trkpt>
</trkseg>
</trk>
<trk>
<name>lpbgm81</name>
<cmt>v</cmt>
<desc>Gemmenich Sentier n°81 </desc>
<link href="https://chemins.be/gemmenich/sentier/81"/><trkseg>
<trkpt lat="50.754023" lon="5.968283"><time>2026-05-06T18:28:17Z</time></trkpt>
<trkpt lat="50.754985" lon="5.968077"><time>2026-05-06T18:38:17Z</time></trkpt>
<trkpt lat="50.755073" lon="5.967972"><time>2026-05-06T18:48:17Z</time></trkpt>
<trkpt lat="50.755161" lon="5.967444"><time>2026-05-06T18:58:17Z</time></trkpt>
</trkseg></trk>
<trk>
<name>lpbgm81</name>
<cmt>q</cmt>
<desc>Gemmenich Sentier n°81 </desc>
<link href="https://chemins.be/gemmenich/sentier/81"/><trkseg>
<trkpt lat="50.755161" lon="5.967444"><time>2026-05-06T18:58:17Z</time></trkpt>
<trkpt lat="50.755393" lon="5.967238"><time>2026-05-06T19:08:17Z</time></trkpt>
<trkpt lat="50.756019" lon="5.966908"><time>2026-05-06T19:18:17Z</time></trkpt>
<trkpt lat="50.756358" lon="5.966088"><time>2026-05-06T19:28:17Z</time></trkpt>
</trkseg>
</trk>
<trk>
<name>lpbgm82</name>
<cmt>v</cmt>
<desc>Gemmenich Sentier n°82 </desc>
<link href="https://chemins.be/gemmenich/sentier/82"/><trkseg>
<trkpt lat="50.755233" lon="5.965577"><time>2026-05-06T18:28:17Z</time></trkpt>
<trkpt lat="50.755167" lon="5.967451"><time>2026-05-06T18:38:17Z</time></trkpt>
</trkseg>
</trk>
<trk>
<name>lpbgm83</name>
<cmt>d</cmt>
<desc>Gemmenich Sentier n°83 </desc>
<link href="https://chemins.be/gemmenich/sentier/83"/><trkseg>
<trkpt lat="50.754317" lon="5.970868"><time>2026-05-06T18:28:17Z</time></trkpt>
<trkpt lat="50.754374" lon="5.970943"><time>2026-05-06T18:38:17Z</time></trkpt>
<trkpt lat="50.754936" lon="5.972087"><time>2026-05-06T18:48:17Z</time></trkpt>
</trkseg></trk>
<trk>
<name>lpbgm83</name>
<cmt>v</cmt>
<desc>Gemmenich Sentier n°83 </desc>
<link href="https://chemins.be/gemmenich/sentier/83"/><trkseg>
<trkpt lat="50.754936" lon="5.972087"><time>2026-05-06T18:48:17Z</time></trkpt>
<trkpt lat="50.755128" lon="5.973056"><time>2026-05-06T18:58:17Z</time></trkpt>
<trkpt lat="50.755100" lon="5.973193"><time>2026-05-06T19:08:17Z</time></trkpt>
</trkseg>
</trk>
<trk>
<name>lpbgm84</name>
<cmt>d</cmt>
<desc>Gemmenich Sentier n°84 </desc>
<link href="https://chemins.be/gemmenich/sentier/84"/><trkseg>
<trkpt lat="50.753874" lon="5.959823"><time>2026-05-06T18:28:17Z</time></trkpt>
<trkpt lat="50.754179" lon="5.959898"><time>2026-05-06T18:38:17Z</time></trkpt>
<trkpt lat="50.754671" lon="5.960971"><time>2026-05-06T18:48:17Z</time></trkpt>
<trkpt lat="50.755397" lon="5.962049"><time>2026-05-06T18:58:17Z</time></trkpt>
</trkseg>
</trk>
<trk>
<name>lpbgm85</name>
<cmt>q</cmt>
<desc>Gemmenich Sentier n°85 </desc>
<link href="https://chemins.be/gemmenich/sentier/85"/><trkseg>
<trkpt lat="50.734786" lon="5.987493"><time>2026-05-06T18:28:17Z</time></trkpt>
<trkpt lat="50.735225" lon="5.988108"><time>2026-05-06T18:38:17Z</time></trkpt>
<trkpt lat="50.736128" lon="5.988132"><time>2026-05-06T18:48:17Z</time></trkpt>
</trkseg></trk>
<trk>
<name>lpbgm85</name>
<cmt>s</cmt>
<desc>Gemmenich Sentier n°85 </desc>
<link href="https://chemins.be/gemmenich/sentier/85"/><trkseg>
<trkpt lat="50.736128" lon="5.988132"><time>2026-05-06T18:48:17Z</time></trkpt>
<trkpt lat="50.736877" lon="5.988151"><time>2026-05-06T18:58:17Z</time></trkpt>
</trkseg>
</trk>
<trk>
<name>lpbgm86</name>
<cmt>s</cmt>
<desc>Gemmenich Sentier n°86 </desc>
<link href="https://chemins.be/gemmenich/sentier/86"/><trkseg>
<trkpt lat="50.741389" lon="6.000828"><time>2026-05-06T18:28:17Z</time></trkpt>
<trkpt lat="50.741627" lon="5.999942"><time>2026-05-06T18:38:17Z</time></trkpt>
</trkseg></trk>
<trk>
<name>lpbgm86</name>
<cmt>d</cmt>
<desc>Gemmenich Sentier n°86 </desc>
<link href="https://chemins.be/gemmenich/sentier/86"/><trkseg>
<trkpt lat="50.741627" lon="5.999942"><time>2026-05-06T18:38:17Z</time></trkpt>
<trkpt lat="50.741889" lon="5.999177"><time>2026-05-06T18:48:17Z</time></trkpt>
<trkpt lat="50.742106" lon="5.998543"><time>2026-05-06T18:58:17Z</time></trkpt>
</trkseg>
</trk>
<trk>
<name>lpbgm87</name>
<cmt>v</cmt>
<desc>Gemmenich Sentier n°87 </desc>
<link href="https://chemins.be/gemmenich/sentier/87"/><trkseg>
<trkpt lat="50.742358" lon="5.998626"><time>2026-05-06T18:28:17Z</time></trkpt>
<trkpt lat="50.742094" lon="5.998514"><time>2026-05-06T18:38:17Z</time></trkpt>
</trkseg></trk>
<trk>
<name>lpbgm87</name>
<cmt>s</cmt>
<desc>Gemmenich Sentier n°87 </desc>
<link href="https://chemins.be/gemmenich/sentier/87"/><trkseg>
<trkpt lat="50.742094" lon="5.998514"><time>2026-05-06T18:38:17Z</time></trkpt>
<trkpt lat="50.740933" lon="5.997511"><time>2026-05-06T18:48:17Z</time></trkpt>
</trkseg>
</trk>
<trk>
<name>lpbgm88</name>
<cmt>v</cmt>
<desc>Gemmenich Sentier n°88 </desc>
<link href="https://chemins.be/gemmenich/sentier/88"/><trkseg>
<trkpt lat="50.748163" lon="6.009293"><time>2026-05-06T18:28:17Z</time></trkpt>
<trkpt lat="50.747263" lon="6.007100"><time>2026-05-06T18:38:17Z</time></trkpt>
</trkseg></trk>
<trk>
<name>lpbgm88</name>
<cmt>d</cmt>
<desc>Gemmenich Sentier n°88 </desc>
<link href="https://chemins.be/gemmenich/sentier/88"/><trkseg>
<trkpt lat="50.747263" lon="6.007100"><time>2026-05-06T18:38:17Z</time></trkpt>
<trkpt lat="50.747417" lon="6.006968"><time>2026-05-06T18:48:17Z</time></trkpt>
<trkpt lat="50.747374" lon="6.006013"><time>2026-05-06T18:58:17Z</time></trkpt>
</trkseg>
</trk>
<trk>
<name>lpbgm89</name>
<cmt>v</cmt>
<desc>Gemmenich Sentier n°89 </desc>
<link href="https://chemins.be/gemmenich/sentier/89"/><trkseg>
<trkpt lat="50.747254" lon="6.007050"><time>2026-05-06T18:28:17Z</time></trkpt>
<trkpt lat="50.747150" lon="6.007036"><time>2026-05-06T18:38:17Z</time></trkpt>
<trkpt lat="50.746926" lon="6.007154"><time>2026-05-06T18:48:17Z</time></trkpt>
</trkseg>
</trk>
<trk>
<name>lpbgm9</name>
<cmt>r</cmt>
<desc>Gemmenich Chemin n°9 Rue du Casino</desc>
<link href="https://chemins.be/gemmenich/chemin/9"/><trkseg>
<trkpt lat="50.736794" lon="5.970482"><time>2026-05-06T18:28:17Z</time></trkpt>
<trkpt lat="50.737348" lon="5.969073"><time>2026-05-06T18:38:17Z</time></trkpt>
<trkpt lat="50.737219" lon="5.968887"><time>2026-05-06T18:48:17Z</time></trkpt>
<trkpt lat="50.736590" lon="5.968644"><time>2026-05-06T18:58:17Z</time></trkpt>
<trkpt lat="50.736371" lon="5.968318"><time>2026-05-06T19:08:17Z</time></trkpt>
<trkpt lat="50.736373" lon="5.967832"><time>2026-05-06T19:18:17Z</time></trkpt>
<trkpt lat="50.736853" lon="5.967449"><time>2026-05-06T19:28:17Z</time></trkpt>
<trkpt lat="50.736898" lon="5.967167"><time>2026-05-06T19:38:17Z</time></trkpt>
</trkseg></trk>
<trk>
<name>lpbgm9</name>
<cmt>v</cmt>
<desc>Gemmenich Chemin n°9 Rue du Casino</desc>
<link href="https://chemins.be/gemmenich/chemin/9"/><trkseg>
<trkpt lat="50.736898" lon="5.967167"><time>2026-05-06T19:38:17Z</time></trkpt>
<trkpt lat="50.737124" lon="5.966194"><time>2026-05-06T19:48:17Z</time></trkpt>
<trkpt lat="50.737154" lon="5.965171"><time>2026-05-06T19:58:17Z</time></trkpt>
<trkpt lat="50.736896" lon="5.964302"><time>2026-05-06T20:08:17Z</time></trkpt>
<trkpt lat="50.736681" lon="5.964009"><time>2026-05-06T20:18:17Z</time></trkpt>
<trkpt lat="50.736846" lon="5.963208"><time>2026-05-06T20:28:17Z</time></trkpt>
<trkpt lat="50.736866" lon="5.962829"><time>2026-05-06T20:38:17Z</time></trkpt>
</trkseg>
</trk>
<trk>
<name>lpbgm91</name>
<cmt>v</cmt>
<desc>Gemmenich Sentier n°91 Kirekgatz /allée vers l’église</desc>
<link href="https://chemins.be/gemmenich/sentier/91"/><trkseg>
<trkpt lat="50.745873" lon="5.995585"><time>2026-05-06T18:28:17Z</time></trkpt>
<trkpt lat="50.746208" lon="5.995207"><time>2026-05-06T18:38:17Z</time></trkpt>
<trkpt lat="50.746246" lon="5.995093"><time>2026-05-06T18:48:17Z</time></trkpt>
<trkpt lat="50.746264" lon="5.995004"><time>2026-05-06T18:58:17Z</time></trkpt>
<trkpt lat="50.746304" lon="5.994890"><time>2026-05-06T19:08:17Z</time></trkpt>
<trkpt lat="50.746536" lon="5.994606"><time>2026-05-06T19:18:17Z</time></trkpt>
</trkseg>
</trk>
<trk>
<name>lpbgm92</name>
<cmt>v</cmt>
<desc>Gemmenich Chemin n°92 Weyer</desc>
<link href="https://chemins.be/gemmenich/chemin/92"/><trkseg>
<trkpt lat="50.746143" lon="5.996908"><time>2026-05-06T18:28:17Z</time></trkpt>
<trkpt lat="50.746223" lon="5.997390"><time>2026-05-06T18:38:17Z</time></trkpt>
<trkpt lat="50.746491" lon="5.997320"><time>2026-05-06T18:48:17Z</time></trkpt>
</trkseg>
</trk>
<trk>
<name>lpbgm94</name>
<cmt>r</cmt>
<desc>Gemmenich Sentier n°94 Rue César Franck</desc>
<link href="https://chemins.be/gemmenich/sentier/94"/><trkseg>
<trkpt lat="50.745969" lon="5.995947"><time>2026-05-06T18:28:17Z</time></trkpt>
<trkpt lat="50.746095" lon="5.996217"><time>2026-05-06T18:38:17Z</time></trkpt>
<trkpt lat="50.746179" lon="5.996317"><time>2026-05-06T18:48:17Z</time></trkpt>
</trkseg>
</trk>
<trk>
<name>lpbgm95</name>
<cmt>r</cmt>
<desc>Gemmenich Chemin n°95 Rue Sandberg</desc>
<link href="https://chemins.be/gemmenich/chemin/95"/><trkseg>
<trkpt lat="50.746239" lon="5.993906"><time>2026-05-06T18:28:17Z</time></trkpt>
<trkpt lat="50.745339" lon="5.994401"><time>2026-05-06T18:38:17Z</time></trkpt>
<trkpt lat="50.744511" lon="5.994735"><time>2026-05-06T18:48:17Z</time></trkpt>
</trkseg>
</trk>
<trk>
<name>lpbgm96</name>
<cmt>r</cmt>
<desc>Gemmenich Chemin n°96 Gérardsbroich</desc>
<link href="https://chemins.be/gemmenich/chemin/96"/><trkseg>
<trkpt lat="50.748374" lon="5.968619"><time>2026-05-06T18:28:17Z</time></trkpt>
<trkpt lat="50.747926" lon="5.967689"><time>2026-05-06T18:38:17Z</time></trkpt>
<trkpt lat="50.747578" lon="5.965915"><time>2026-05-06T18:48:17Z</time></trkpt>
<trkpt lat="50.747584" lon="5.965243"><time>2026-05-06T18:58:17Z</time></trkpt>
</trkseg>
</trk>
<trk>
<name>lpbgm97</name>
<cmt>d</cmt>
<desc>Gemmenich Chemin n°97 </desc>
<link href="https://chemins.be/gemmenich/chemin/97"/><trkseg>
<trkpt lat="50.753005" lon="5.957742"><time>2026-05-06T18:28:17Z</time></trkpt>
<trkpt lat="50.754280" lon="5.956563"><time>2026-05-06T18:38:17Z</time></trkpt>
<trkpt lat="50.755282" lon="5.956484"><time>2026-05-06T18:48:17Z</time></trkpt>
<trkpt lat="50.756664" lon="5.956066"><time>2026-05-06T18:58:17Z</time></trkpt>
</trkseg>
</trk>
<trk>
<name>lpbgm99</name>
<cmt>q</cmt>
<desc>Gemmenich Chemin n°99 </desc>
<link href="https://chemins.be/gemmenich/chemin/99"/><trkseg>
<trkpt lat="50.739037" lon="6.006389"><time>2026-05-06T18:28:17Z</time></trkpt>
<trkpt lat="50.738650" lon="6.006657"><time>2026-05-06T18:38:17Z</time></trkpt>
</trkseg>
</trk>
<trk>
<name>lpbgmi1</name>
<cmt>v</cmt>
<desc>Gemmenich Chemin n°i1 Sentier 58</desc>
<link href="https://chemins.be/gemmenich/chemin/i1"/><trkseg>
<trkpt lat="50.756498" lon="5.952957"><time>2026-05-06T18:28:17Z</time></trkpt>
<trkpt lat="50.757487" lon="5.953345"><time>2026-05-06T18:38:17Z</time></trkpt>
<trkpt lat="50.758049" lon="5.954397"><time>2026-05-06T18:48:17Z</time></trkpt>
<trkpt lat="50.757981" lon="5.955150"><time>2026-05-06T18:58:17Z</time></trkpt>
<trkpt lat="50.758047" lon="5.955389"><time>2026-05-06T19:08:17Z</time></trkpt>
<trkpt lat="50.758205" lon="5.955539"><time>2026-05-06T19:18:17Z</time></trkpt>
<trkpt lat="50.758476" lon="5.955376"><time>2026-05-06T19:28:17Z</time></trkpt>
<trkpt lat="50.758807" lon="5.955019"><time>2026-05-06T19:38:17Z</time></trkpt>
</trkseg>
</trk>
<trk>
<name>lpbgmi10</name>
<cmt>v</cmt>
<desc>Gemmenich Sentier n°i10 </desc>
<link href="https://chemins.be/gemmenich/sentier/i10"/><trkseg>
<trkpt lat="50.739136" lon="6.005530"><time>2026-05-06T18:28:17Z</time></trkpt>
<trkpt lat="50.738591" lon="6.005741"><time>2026-05-06T18:38:17Z</time></trkpt>
<trkpt lat="50.738145" lon="6.005777"><time>2026-05-06T18:48:17Z</time></trkpt>
<trkpt lat="50.737187" lon="6.005445"><time>2026-05-06T18:58:17Z</time></trkpt>
<trkpt lat="50.736413" lon="6.005065"><time>2026-05-06T19:08:17Z</time></trkpt>
<trkpt lat="50.736100" lon="6.005008"><time>2026-05-06T19:18:17Z</time></trkpt>
<trkpt lat="50.735938" lon="6.004565"><time>2026-05-06T19:28:17Z</time></trkpt>
<trkpt lat="50.735222" lon="6.003420"><time>2026-05-06T19:38:17Z</time></trkpt>
</trkseg>
</trk>
<trk>
<name>lpbgmi11</name>
<cmt>v</cmt>
<desc>Gemmenich Chemin n°i11 </desc>
<link href="https://chemins.be/gemmenich/chemin/i11"/><trkseg>
<trkpt lat="50.747389" lon="6.010880"><time>2026-05-06T18:28:17Z</time></trkpt>
<trkpt lat="50.748738" lon="6.012118"><time>2026-05-06T18:38:17Z</time></trkpt>
<trkpt lat="50.749258" lon="6.013098"><time>2026-05-06T18:48:17Z</time></trkpt>
<trkpt lat="50.749281" lon="6.013591"><time>2026-05-06T18:58:17Z</time></trkpt>
</trkseg>
</trk>
<trk>
<name>lpbgmi12</name>
<cmt>v</cmt>
<desc>Gemmenich Chemin n°i12 Botzelaer</desc>
<link href="https://chemins.be/gemmenich/chemin/i12"/><trkseg>
<trkpt lat="50.748905" lon="6.011510"><time>2026-05-06T18:28:17Z</time></trkpt>
<trkpt lat="50.748720" lon="6.012104"><time>2026-05-06T18:38:17Z</time></trkpt>
</trkseg>
</trk>
<trk>
<name>lpbgmi13</name>
<cmt>v</cmt>
<desc>Gemmenich Chemin n°i13 </desc>
<link href="https://chemins.be/gemmenich/chemin/i13"/><trkseg>
<trkpt lat="50.730263" lon="5.975360"><time>2026-05-06T18:28:17Z</time></trkpt>
<trkpt lat="50.730061" lon="5.975228"><time>2026-05-06T18:38:17Z</time></trkpt>
<trkpt lat="50.729728" lon="5.974383"><time>2026-05-06T18:48:17Z</time></trkpt>
<trkpt lat="50.729509" lon="5.974187"><time>2026-05-06T18:58:17Z</time></trkpt>
</trkseg>
</trk>
<trk>
<name>lpbgmi14</name>
<cmt>v</cmt>
<desc>Gemmenich Chemin n°i14 </desc>
<link href="https://chemins.be/gemmenich/chemin/i14"/><trkseg>
<trkpt lat="50.759308" lon="5.957579"><time>2026-05-06T18:28:17Z</time></trkpt>
<trkpt lat="50.759211" lon="5.958051"><time>2026-05-06T18:38:17Z</time></trkpt>
<trkpt lat="50.759213" lon="5.958180"><time>2026-05-06T18:48:17Z</time></trkpt>
</trkseg>
</trk>
<trk>
<name>lpbgmi15</name>
<cmt>v</cmt>
<desc>Gemmenich Sentier n°i15 </desc>
<link href="https://chemins.be/gemmenich/sentier/i15"/><trkseg>
<trkpt lat="50.757267" lon="5.950242"><time>2026-05-06T18:28:17Z</time></trkpt>
<trkpt lat="50.756850" lon="5.950961"><time>2026-05-06T18:38:17Z</time></trkpt>
<trkpt lat="50.756585" lon="5.951851"><time>2026-05-06T18:48:17Z</time></trkpt>
</trkseg>
</trk>
<trk>
<name>lpbgmi16</name>
<cmt>v</cmt>
<desc>Gemmenich Sentier n°i16 </desc>
<link href="https://chemins.be/gemmenich/sentier/i16"/><trkseg>
<trkpt lat="50.749852" lon="5.981012"><time>2026-05-06T18:28:17Z</time></trkpt>
<trkpt lat="50.749916" lon="5.981093"><time>2026-05-06T18:38:17Z</time></trkpt>
<trkpt lat="50.750011" lon="5.981071"><time>2026-05-06T18:48:17Z</time></trkpt>
<trkpt lat="50.750144" lon="5.981318"><time>2026-05-06T18:58:17Z</time></trkpt>
<trkpt lat="50.750493" lon="5.981307"><time>2026-05-06T19:08:17Z</time></trkpt>
<trkpt lat="50.750581" lon="5.981221"><time>2026-05-06T19:18:17Z</time></trkpt>
<trkpt lat="50.750768" lon="5.981377"><time>2026-05-06T19:28:17Z</time></trkpt>
<trkpt lat="50.751148" lon="5.981280"><time>2026-05-06T19:38:17Z</time></trkpt>
<trkpt lat="50.751638" lon="5.981347"><time>2026-05-06T19:48:17Z</time></trkpt>
<trkpt lat="50.751691" lon="5.981331"><time>2026-05-06T19:58:17Z</time></trkpt>
<trkpt lat="50.751902" lon="5.981200"><time>2026-05-06T20:08:17Z</time></trkpt>
<trkpt lat="50.752092" lon="5.981146"><time>2026-05-06T20:18:17Z</time></trkpt>
<trkpt lat="50.752418" lon="5.981173"><time>2026-05-06T20:28:17Z</time></trkpt>
<trkpt lat="50.752699" lon="5.981007"><time>2026-05-06T20:38:17Z</time></trkpt>
<trkpt lat="50.752964" lon="5.981007"><time>2026-05-06T20:48:17Z</time></trkpt>
<trkpt lat="50.753772" lon="5.980717"><time>2026-05-06T20:58:17Z</time></trkpt>
</trkseg>
</trk>
<trk>
<name>lpbgmi17</name>
<cmt>d</cmt>
<desc>Gemmenich Sentier n°i17 </desc>
<link href="https://chemins.be/gemmenich/sentier/i17"/><trkseg>
<trkpt lat="50.745977" lon="5.975227"><time>2026-05-06T18:28:17Z</time></trkpt>
<trkpt lat="50.746147" lon="5.976418"><time>2026-05-06T18:38:17Z</time></trkpt>
<trkpt lat="50.746703" lon="5.976793"><time>2026-05-06T18:48:17Z</time></trkpt>
<trkpt lat="50.746880" lon="5.977094"><time>2026-05-06T18:58:17Z</time></trkpt>
<trkpt lat="50.746771" lon="5.977426"><time>2026-05-06T19:08:17Z</time></trkpt>
<trkpt lat="50.747606" lon="5.978724"><time>2026-05-06T19:18:17Z</time></trkpt>
<trkpt lat="50.748068" lon="5.980398"><time>2026-05-06T19:28:17Z</time></trkpt>
</trkseg>
</trk>
<trk>
<name>lpbgmi18</name>
<cmt>v</cmt>
<desc>Gemmenich Sentier n°i18 </desc>
<link href="https://chemins.be/gemmenich/sentier/i18"/><trkseg>
<trkpt lat="50.745436" lon="5.996262"><time>2026-05-06T18:28:17Z</time></trkpt>
<trkpt lat="50.745528" lon="5.996135"><time>2026-05-06T18:38:17Z</time></trkpt>
<trkpt lat="50.745632" lon="5.996021"><time>2026-05-06T18:48:17Z</time></trkpt>
<trkpt lat="50.745653" lon="5.996020"><time>2026-05-06T18:58:17Z</time></trkpt>
<trkpt lat="50.745853" lon="5.995805"><time>2026-05-06T19:08:17Z</time></trkpt>
</trkseg>
</trk>
<trk>
<name>lpbgmi19</name>
<cmt>v</cmt>
<desc>Gemmenich Sentier n°i19 Sentier 58</desc>
<link href="https://chemins.be/gemmenich/sentier/i19"/><trkseg>
<trkpt lat="50.757489" lon="5.953391"><time>2026-05-06T18:28:17Z</time></trkpt>
<trkpt lat="50.757485" lon="5.954209"><time>2026-05-06T18:38:17Z</time></trkpt>
<trkpt lat="50.757177" lon="5.955432"><time>2026-05-06T18:48:17Z</time></trkpt>
</trkseg>
</trk>
<trk>
<name>lpbgmi2</name>
<cmt>v</cmt>
<desc>Gemmenich Chemin n°i2 </desc>
<link href="https://chemins.be/gemmenich/chemin/i2"/><trkseg>
<trkpt lat="50.742793" lon="5.985025"><time>2026-05-06T18:28:17Z</time></trkpt>
<trkpt lat="50.742118" lon="5.985565"><time>2026-05-06T18:38:17Z</time></trkpt>
</trkseg>
</trk>
<trk>
<name>lpbgmi20</name>
<cmt>v</cmt>
<desc>Gemmenich Sentier n°i20 </desc>
<link href="https://chemins.be/gemmenich/sentier/i20"/><trkseg>
<trkpt lat="50.737770" lon="5.997092"><time>2026-05-06T18:28:17Z</time></trkpt>
<trkpt lat="50.737565" lon="5.997247"><time>2026-05-06T18:38:17Z</time></trkpt>
</trkseg>
</trk>
<trk>
<name>lpbgmi21</name>
<cmt>v</cmt>
<desc>Gemmenich Chemin n°i21 </desc>
<link href="https://chemins.be/gemmenich/chemin/i21"/><trkseg>
<trkpt lat="50.751399" lon="5.989493"><time>2026-05-06T18:28:17Z</time></trkpt>
<trkpt lat="50.752209" lon="5.988212"><time>2026-05-06T18:38:17Z</time></trkpt>
<trkpt lat="50.752338" lon="5.987630"><time>2026-05-06T18:48:17Z</time></trkpt>
<trkpt lat="50.752676" lon="5.987412"><time>2026-05-06T18:58:17Z</time></trkpt>
<trkpt lat="50.753155" lon="5.986336"><time>2026-05-06T19:08:17Z</time></trkpt>
<trkpt lat="50.753187" lon="5.984787"><time>2026-05-06T19:18:17Z</time></trkpt>
<trkpt lat="50.753320" lon="5.984590"><time>2026-05-06T19:28:17Z</time></trkpt>
<trkpt lat="50.753334" lon="5.984261"><time>2026-05-06T19:38:17Z</time></trkpt>
<trkpt lat="50.753273" lon="5.984208"><time>2026-05-06T19:48:17Z</time></trkpt>
<trkpt lat="50.752920" lon="5.983324"><time>2026-05-06T19:58:17Z</time></trkpt>
<trkpt lat="50.753360" lon="5.982211"><time>2026-05-06T20:08:17Z</time></trkpt>
<trkpt lat="50.753702" lon="5.981445"><time>2026-05-06T20:18:17Z</time></trkpt>
<trkpt lat="50.754237" lon="5.980259"><time>2026-05-06T20:28:17Z</time></trkpt>
</trkseg>
</trk>
<trk>
<name>lpbgmi22</name>
<cmt>v</cmt>
<desc>Gemmenich Sentier n°i22 </desc>
<link href="https://chemins.be/gemmenich/sentier/i22"/><trkseg>
<trkpt lat="50.750041" lon="5.991531"><time>2026-05-06T18:28:17Z</time></trkpt>
<trkpt lat="50.750991" lon="5.989972"><time>2026-05-06T18:38:17Z</time></trkpt>
<trkpt lat="50.751385" lon="5.989478"><time>2026-05-06T18:48:17Z</time></trkpt>
</trkseg>
</trk>
<trk>
<name>lpbgmi23</name>
<cmt>v</cmt>
<desc>Gemmenich Sentier n°i23 </desc>
<link href="https://chemins.be/gemmenich/sentier/i23"/><trkseg>
<trkpt lat="50.742745" lon="6.009069"><time>2026-05-06T18:28:17Z</time></trkpt>
<trkpt lat="50.742591" lon="6.007996"><time>2026-05-06T18:38:17Z</time></trkpt>
<trkpt lat="50.741922" lon="6.007503"><time>2026-05-06T18:48:17Z</time></trkpt>
<trkpt lat="50.740944" lon="6.006780"><time>2026-05-06T18:58:17Z</time></trkpt>
<trkpt lat="50.740632" lon="6.007217"><time>2026-05-06T19:08:17Z</time></trkpt>
<trkpt lat="50.740141" lon="6.007035"><time>2026-05-06T19:18:17Z</time></trkpt>
<trkpt lat="50.739863" lon="6.007089"><time>2026-05-06T19:28:17Z</time></trkpt>
<trkpt lat="50.738983" lon="6.006878"><time>2026-05-06T19:38:17Z</time></trkpt>
<trkpt lat="50.738572" lon="6.006787"><time>2026-05-06T19:48:17Z</time></trkpt>
<trkpt lat="50.737276" lon="6.006568"><time>2026-05-06T19:58:17Z</time></trkpt>
<trkpt lat="50.736784" lon="6.006365"><time>2026-05-06T20:08:17Z</time></trkpt>
<trkpt lat="50.736391" lon="6.006738"><time>2026-05-06T20:18:17Z</time></trkpt>
<trkpt lat="50.735575" lon="6.006580"><time>2026-05-06T20:28:17Z</time></trkpt>
</trkseg>
</trk>
<trk>
<name>lpbgmi24</name>
<cmt>v</cmt>
<desc>Gemmenich Sentier n°i24 </desc>
<link href="https://chemins.be/gemmenich/sentier/i24"/><trkseg>
<trkpt lat="50.747683" lon="6.010349"><time>2026-05-06T18:28:17Z</time></trkpt>
<trkpt lat="50.748915" lon="6.011398"><time>2026-05-06T18:38:17Z</time></trkpt>
</trkseg>
</trk>
<trk>
<name>lpbgmi25</name>
<cmt>v</cmt>
<desc>Gemmenich Sentier n°i25 </desc>
<link href="https://chemins.be/gemmenich/sentier/i25"/><trkseg>
<trkpt lat="50.737155" lon="6.006973"><time>2026-05-06T18:28:17Z</time></trkpt>
<trkpt lat="50.736952" lon="6.006773"><time>2026-05-06T18:38:17Z</time></trkpt>
<trkpt lat="50.736802" lon="6.006365"><time>2026-05-06T18:48:17Z</time></trkpt>
</trkseg>
</trk>
<trk>
<name>lpbgmi26</name>
<cmt>v</cmt>
<desc>Gemmenich Sentier n°i26 </desc>
<link href="https://chemins.be/gemmenich/sentier/i26"/><trkseg>
<trkpt lat="50.737271" lon="6.006576"><time>2026-05-06T18:28:17Z</time></trkpt>
<trkpt lat="50.737191" lon="6.006923"><time>2026-05-06T18:38:17Z</time></trkpt>
</trkseg>
</trk>
<trk>
<name>lpbgmi3</name>
<cmt>v</cmt>
<desc>Gemmenich Chemin n°i3 </desc>
<link href="https://chemins.be/gemmenich/chemin/i3"/><trkseg>
<trkpt lat="50.742923" lon="5.964757"><time>2026-05-06T18:28:17Z</time></trkpt>
<trkpt lat="50.742378" lon="5.964586"><time>2026-05-06T18:38:17Z</time></trkpt>
<trkpt lat="50.742034" lon="5.965390"><time>2026-05-06T18:48:17Z</time></trkpt>
<trkpt lat="50.741977" lon="5.965615"><time>2026-05-06T18:58:17Z</time></trkpt>
<trkpt lat="50.741889" lon="5.965683"><time>2026-05-06T19:08:17Z</time></trkpt>
</trkseg>
</trk>
<trk>
<name>lpbgmi31</name>
<cmt>d</cmt>
<desc>Gemmenich Chemin n°i31 </desc>
<link href="https://chemins.be/gemmenich/chemin/i31"/><trkseg>
<trkpt lat="50.751936" lon="5.984497"><time>2026-05-06T18:28:17Z</time></trkpt>
<trkpt lat="50.752651" lon="5.985195"><time>2026-05-06T18:38:17Z</time></trkpt>
<trkpt lat="50.753173" lon="5.986093"><time>2026-05-06T18:48:17Z</time></trkpt>
</trkseg>
</trk>
<trk>
<name>lpbgmi32</name>
<cmt>v</cmt>
<desc>Gemmenich Chemin n°i32 </desc>
<link href="https://chemins.be/gemmenich/chemin/i32"/><trkseg>
<trkpt lat="50.752281" lon="5.988219"><time>2026-05-06T18:28:17Z</time></trkpt>
<trkpt lat="50.752613" lon="5.988058"><time>2026-05-06T18:38:17Z</time></trkpt>
<trkpt lat="50.753082" lon="5.988094"><time>2026-05-06T18:48:17Z</time></trkpt>
</trkseg>
</trk>
<trk>
<name>lpbgmi33</name>
<cmt>v</cmt>
<desc>Gemmenich Sentier n°i33 </desc>
<link href="https://chemins.be/gemmenich/sentier/i33"/><trkseg>
<trkpt lat="50.750380" lon="5.991102"><time>2026-05-06T18:28:17Z</time></trkpt>
<trkpt lat="50.750815" lon="5.992025"><time>2026-05-06T18:38:17Z</time></trkpt>
<trkpt lat="50.750793" lon="5.993099"><time>2026-05-06T18:48:17Z</time></trkpt>
<trkpt lat="50.751053" lon="5.994035"><time>2026-05-06T18:58:17Z</time></trkpt>
<trkpt lat="50.751166" lon="5.995362"><time>2026-05-06T19:08:17Z</time></trkpt>
<trkpt lat="50.751367" lon="5.995658"><time>2026-05-06T19:18:17Z</time></trkpt>
<trkpt lat="50.751562" lon="5.995784"><time>2026-05-06T19:28:17Z</time></trkpt>
<trkpt lat="50.751789" lon="5.996059"><time>2026-05-06T19:38:17Z</time></trkpt>
<trkpt lat="50.751748" lon="5.996739"><time>2026-05-06T19:48:17Z</time></trkpt>
<trkpt lat="50.752411" lon="5.998005"><time>2026-05-06T19:58:17Z</time></trkpt>
<trkpt lat="50.753010" lon="5.999314"><time>2026-05-06T20:08:17Z</time></trkpt>
</trkseg>
</trk>
<trk>
<name>lpbgmi34</name>
<cmt>v</cmt>
<desc>Gemmenich Sentier n°i34 </desc>
<link href="https://chemins.be/gemmenich/sentier/i34"/><trkseg>
<trkpt lat="50.750367" lon="5.994635"><time>2026-05-06T18:28:17Z</time></trkpt>
<trkpt lat="50.750611" lon="5.994220"><time>2026-05-06T18:38:17Z</time></trkpt>
<trkpt lat="50.750865" lon="5.994242"><time>2026-05-06T18:48:17Z</time></trkpt>
<trkpt lat="50.751068" lon="5.994077"><time>2026-05-06T18:58:17Z</time></trkpt>
</trkseg>
</trk>
<trk>
<name>lpbgmi35</name>
<cmt>v</cmt>
<desc>Gemmenich Sentier n°i35 </desc>
<link href="https://chemins.be/gemmenich/sentier/i35"/><trkseg>
<trkpt lat="50.751911" lon="5.981207"><time>2026-05-06T18:28:17Z</time></trkpt>
<trkpt lat="50.752420" lon="5.981365"><time>2026-05-06T18:38:17Z</time></trkpt>
<trkpt lat="50.753359" lon="5.982212"><time>2026-05-06T18:48:17Z</time></trkpt>
</trkseg>
</trk>
<trk>
<name>lpbgmi36</name>
<cmt>v</cmt>
<desc>Gemmenich Chemin n°i36 </desc>
<link href="https://chemins.be/gemmenich/chemin/i36"/><trkseg>
<trkpt lat="50.753824" lon="5.973042"><time>2026-05-06T18:28:17Z</time></trkpt>
<trkpt lat="50.754702" lon="5.973242"><time>2026-05-06T18:38:17Z</time></trkpt>
<trkpt lat="50.754792" lon="5.973385"><time>2026-05-06T18:48:17Z</time></trkpt>
<trkpt lat="50.755037" lon="5.974265"><time>2026-05-06T18:58:17Z</time></trkpt>
<trkpt lat="50.755114" lon="5.974551"><time>2026-05-06T19:08:17Z</time></trkpt>
</trkseg>
</trk>
<trk>
<name>lpbgmi37</name>
<cmt>v</cmt>
<desc>Gemmenich Sentier n°i37 </desc>
<link href="https://chemins.be/gemmenich/sentier/i37"/><trkseg>
<trkpt lat="50.751838" lon="6.015825"><time>2026-05-06T18:28:17Z</time></trkpt>
<trkpt lat="50.752295" lon="6.015372"><time>2026-05-06T18:38:17Z</time></trkpt>
<trkpt lat="50.753240" lon="6.013966"><time>2026-05-06T18:48:17Z</time></trkpt>
<trkpt lat="50.753286" lon="6.012821"><time>2026-05-06T18:58:17Z</time></trkpt>
<trkpt lat="50.753090" lon="6.011582"><time>2026-05-06T19:08:17Z</time></trkpt>
<trkpt lat="50.753095" lon="6.011260"><time>2026-05-06T19:18:17Z</time></trkpt>
<trkpt lat="50.753240" lon="6.010080"><time>2026-05-06T19:28:17Z</time></trkpt>
<trkpt lat="50.752969" lon="6.007815"><time>2026-05-06T19:38:17Z</time></trkpt>
<trkpt lat="50.753297" lon="6.006792"><time>2026-05-06T19:48:17Z</time></trkpt>
<trkpt lat="50.753440" lon="6.006748"><time>2026-05-06T19:58:17Z</time></trkpt>
<trkpt lat="50.754074" lon="6.006271"><time>2026-05-06T20:08:17Z</time></trkpt>
</trkseg>
</trk>
<trk>
<name>lpbgmi38</name>
<cmt>v</cmt>
<desc>Gemmenich Chemin n°i38 </desc>
<link href="https://chemins.be/gemmenich/chemin/i38"/><trkseg>
<trkpt lat="50.753902" lon="6.017423"><time>2026-05-06T18:28:17Z</time></trkpt>
<trkpt lat="50.753917" lon="6.015623"><time>2026-05-06T18:38:17Z</time></trkpt>
<trkpt lat="50.753917" lon="6.015408"><time>2026-05-06T18:48:17Z</time></trkpt>
<trkpt lat="50.754618" lon="6.014025"><time>2026-05-06T18:58:17Z</time></trkpt>
<trkpt lat="50.755055" lon="6.013131"><time>2026-05-06T19:08:17Z</time></trkpt>
</trkseg>
</trk>
<trk>
<name>lpbgmi39</name>
<cmt>v</cmt>
<desc>Gemmenich Sentier n°i39 </desc>
<link href="https://chemins.be/gemmenich/sentier/i39"/><trkseg>
<trkpt lat="50.752929" lon="6.017244"><time>2026-05-06T18:28:17Z</time></trkpt>
<trkpt lat="50.753034" lon="6.016791"><time>2026-05-06T18:38:17Z</time></trkpt>
<trkpt lat="50.753494" lon="6.016183"><time>2026-05-06T18:48:17Z</time></trkpt>
<trkpt lat="50.753751" lon="6.015599"><time>2026-05-06T18:58:17Z</time></trkpt>
<trkpt lat="50.753915" lon="6.015623"><time>2026-05-06T19:08:17Z</time></trkpt>
<trkpt lat="50.754950" lon="6.015921"><time>2026-05-06T19:18:17Z</time></trkpt>
</trkseg>
</trk>
<trk>
<name>lpbgmi4</name>
<cmt>v</cmt>
<desc>Gemmenich Sentier n°i4 </desc>
<link href="https://chemins.be/gemmenich/sentier/i4"/><trkseg>
<trkpt lat="50.752431" lon="5.972536"><time>2026-05-06T18:28:17Z</time></trkpt>
<trkpt lat="50.753320" lon="5.973026"><time>2026-05-06T18:38:17Z</time></trkpt>
</trkseg>
</trk>
<trk>
<name>lpbgmi40</name>
<cmt>v</cmt>
<desc>Gemmenich Sentier n°i40 </desc>
<link href="https://chemins.be/gemmenich/sentier/i40"/><trkseg>
<trkpt lat="50.753276" lon="6.016433"><time>2026-05-06T18:28:17Z</time></trkpt>
<trkpt lat="50.752295" lon="6.015349"><time>2026-05-06T18:38:17Z</time></trkpt>
</trkseg>
</trk>
<trk>
<name>lpbgmi41</name>
<cmt>v</cmt>
<desc>Gemmenich Sentier n°i41 </desc>
<link href="https://chemins.be/gemmenich/sentier/i41"/><trkseg>
<trkpt lat="50.752242" lon="6.018663"><time>2026-05-06T18:28:17Z</time></trkpt>
<trkpt lat="50.751496" lon="6.017626"><time>2026-05-06T18:38:17Z</time></trkpt>
<trkpt lat="50.750832" lon="6.016421"><time>2026-05-06T18:48:17Z</time></trkpt>
<trkpt lat="50.749776" lon="6.016505"><time>2026-05-06T18:58:17Z</time></trkpt>
<trkpt lat="50.749542" lon="6.016183"><time>2026-05-06T19:08:17Z</time></trkpt>
<trkpt lat="50.749286" lon="6.015170"><time>2026-05-06T19:18:17Z</time></trkpt>
</trkseg>
</trk>
<trk>
<name>lpbgmi41bis</name>
<cmt>v</cmt>
<desc>Gemmenich Sentier n°i41bis </desc>
<link href="https://chemins.be/gemmenich/sentier/i41bis"/><trkseg>
<trkpt lat="50.751767" lon="6.018865"><time>2026-05-06T18:28:17Z</time></trkpt>
<trkpt lat="50.751521" lon="6.017685"><time>2026-05-06T18:38:17Z</time></trkpt>
</trkseg>
</trk>
<trk>
<name>lpbgmi42</name>
<cmt>v</cmt>
<desc>Gemmenich Sentier n°i42 </desc>
<link href="https://chemins.be/gemmenich/sentier/i42"/><trkseg>
<trkpt lat="50.752349" lon="6.019777"><time>2026-05-06T18:28:17Z</time></trkpt>
<trkpt lat="50.752264" lon="6.020084"><time>2026-05-06T18:38:17Z</time></trkpt>
</trkseg>
</trk>
<trk>
<name>lpbgmi43</name>
<cmt>v</cmt>
<desc>Gemmenich Chemin n°i43 </desc>
<link href="https://chemins.be/gemmenich/chemin/i43"/><trkseg>
<trkpt lat="50.744262" lon="6.013575"><time>2026-05-06T18:28:17Z</time></trkpt>
<trkpt lat="50.743447" lon="6.013704"><time>2026-05-06T18:38:17Z</time></trkpt>
<trkpt lat="50.742763" lon="6.014276"><time>2026-05-06T18:48:17Z</time></trkpt>
<trkpt lat="50.742429" lon="6.015192"><time>2026-05-06T18:58:17Z</time></trkpt>
</trkseg>
</trk>
<trk>
<name>lpbgmi43bis</name>
<cmt>v</cmt>
<desc>Gemmenich Chemin n°i43bis Pinnae</desc>
<link href="https://chemins.be/gemmenich/chemin/i43bis"/><trkseg>
<trkpt lat="50.743307" lon="6.012939"><time>2026-05-06T18:28:17Z</time></trkpt>
<trkpt lat="50.743438" lon="6.013353"><time>2026-05-06T18:38:17Z</time></trkpt>
<trkpt lat="50.743465" lon="6.013754"><time>2026-05-06T18:48:17Z</time></trkpt>
</trkseg>
</trk>
<trk>
<name>lpbgmi44</name>
<cmt>v</cmt>
<desc>Gemmenich Chemin n°i44 </desc>
<link href="https://chemins.be/gemmenich/chemin/i44"/><trkseg>
<trkpt lat="50.742327" lon="6.010305"><time>2026-05-06T18:28:17Z</time></trkpt>
<trkpt lat="50.741884" lon="6.011020"><time>2026-05-06T18:38:17Z</time></trkpt>
<trkpt lat="50.740463" lon="6.011850"><time>2026-05-06T18:48:17Z</time></trkpt>
<trkpt lat="50.740879" lon="6.012965"><time>2026-05-06T18:58:17Z</time></trkpt>
<trkpt lat="50.740571" lon="6.014181"><time>2026-05-06T19:08:17Z</time></trkpt>
</trkseg>
</trk>
<trk>
<name>lpbgmi45</name>
<cmt>v</cmt>
<desc>Gemmenich Chemin n°i45 </desc>
<link href="https://chemins.be/gemmenich/chemin/i45"/><trkseg>
<trkpt lat="50.742347" lon="6.010714"><time>2026-05-06T18:28:17Z</time></trkpt>
<trkpt lat="50.742094" lon="6.010457"><time>2026-05-06T18:38:17Z</time></trkpt>
<trkpt lat="50.740518" lon="6.010585"><time>2026-05-06T18:48:17Z</time></trkpt>
<trkpt lat="50.739102" lon="6.011494"><time>2026-05-06T18:58:17Z</time></trkpt>
</trkseg>
</trk>
<trk>
<name>lpbgmi46</name>
<cmt>v</cmt>
<desc>Gemmenich Chemin n°i46 Kraiewegske</desc>
<link href="https://chemins.be/gemmenich/chemin/i46"/><trkseg>
<trkpt lat="50.743327" lon="5.989061"><time>2026-05-06T18:28:17Z</time></trkpt>
<trkpt lat="50.742773" lon="5.989744"><time>2026-05-06T18:38:17Z</time></trkpt>
<trkpt lat="50.742080" lon="5.990963"><time>2026-05-06T18:48:17Z</time></trkpt>
<trkpt lat="50.741994" lon="5.991278"><time>2026-05-06T18:58:17Z</time></trkpt>
</trkseg>
</trk>
<trk>
<name>lpbgmi47</name>
<cmt>v</cmt>
<desc>Gemmenich Sentier n°i47 </desc>
<link href="https://chemins.be/gemmenich/sentier/i47"/><trkseg>
<trkpt lat="50.738978" lon="6.011978"><time>2026-05-06T18:28:17Z</time></trkpt>
<trkpt lat="50.737898" lon="6.012417"><time>2026-05-06T18:38:17Z</time></trkpt>
<trkpt lat="50.737391" lon="6.012166"><time>2026-05-06T18:48:17Z</time></trkpt>
</trkseg>
</trk>
<trk>
<name>lpbgmi48</name>
<cmt>v</cmt>
<desc>Gemmenich Chemin n°i48 </desc>
<link href="https://chemins.be/gemmenich/chemin/i48"/><trkseg>
<trkpt lat="50.738744" lon="6.008025"><time>2026-05-06T18:28:17Z</time></trkpt>
<trkpt lat="50.738083" lon="6.007739"><time>2026-05-06T18:38:17Z</time></trkpt>
<trkpt lat="50.737956" lon="6.007145"><time>2026-05-06T18:48:17Z</time></trkpt>
<trkpt lat="50.737169" lon="6.006938"><time>2026-05-06T18:58:17Z</time></trkpt>
<trkpt lat="50.736929" lon="6.007724"><time>2026-05-06T19:08:17Z</time></trkpt>
<trkpt lat="50.736395" lon="6.008425"><time>2026-05-06T19:18:17Z</time></trkpt>
</trkseg>
</trk>
<trk>
<name>lpbgmi49</name>
<cmt>v</cmt>
<desc>Gemmenich Chemin n°i49 </desc>
<link href="https://chemins.be/gemmenich/chemin/i49"/><trkseg>
<trkpt lat="50.738172" lon="5.966308"><time>2026-05-06T18:28:17Z</time></trkpt>
<trkpt lat="50.737622" lon="5.966670"><time>2026-05-06T18:38:17Z</time></trkpt>
<trkpt lat="50.737450" lon="5.966426"><time>2026-05-06T18:48:17Z</time></trkpt>
<trkpt lat="50.737396" lon="5.966186"><time>2026-05-06T18:58:17Z</time></trkpt>
<trkpt lat="50.737199" lon="5.964552"><time>2026-05-06T19:08:17Z</time></trkpt>
<trkpt lat="50.736925" lon="5.964320"><time>2026-05-06T19:18:17Z</time></trkpt>
</trkseg>
</trk>
<trk>
<name>lpbgmi5</name>
<cmt>v</cmt>
<desc>Gemmenich Chemin n°i5 </desc>
<link href="https://chemins.be/gemmenich/chemin/i5"/><trkseg>
<trkpt lat="50.754397" lon="5.976437"><time>2026-05-06T18:28:17Z</time></trkpt>
<trkpt lat="50.754562" lon="5.977346"><time>2026-05-06T18:38:17Z</time></trkpt>
<trkpt lat="50.754526" lon="5.978458"><time>2026-05-06T18:48:17Z</time></trkpt>
<trkpt lat="50.754164" lon="5.978998"><time>2026-05-06T18:58:17Z</time></trkpt>
<trkpt lat="50.754004" lon="5.979009"><time>2026-05-06T19:08:17Z</time></trkpt>
<trkpt lat="50.754006" lon="5.979742"><time>2026-05-06T19:18:17Z</time></trkpt>
<trkpt lat="50.753904" lon="5.980679"><time>2026-05-06T19:28:17Z</time></trkpt>
<trkpt lat="50.753780" lon="5.980725"><time>2026-05-06T19:38:17Z</time></trkpt>
<trkpt lat="50.753673" lon="5.981348"><time>2026-05-06T19:48:17Z</time></trkpt>
<trkpt lat="50.753694" lon="5.981433"><time>2026-05-06T19:58:17Z</time></trkpt>
</trkseg>
</trk>
<trk>
<name>lpbgmi50</name>
<cmt>v</cmt>
<desc>Gemmenich Sentier n°i50 </desc>
<link href="https://chemins.be/gemmenich/sentier/i50"/><trkseg>
<trkpt lat="50.737948" lon="5.967460"><time>2026-05-06T18:28:17Z</time></trkpt>
<trkpt lat="50.737453" lon="5.967120"><time>2026-05-06T18:38:17Z</time></trkpt>
<trkpt lat="50.737056" lon="5.966548"><time>2026-05-06T18:48:17Z</time></trkpt>
</trkseg>
</trk>
<trk>
<name>lpbgmi51</name>
<cmt>v</cmt>
<desc>Gemmenich Sentier n°i51 </desc>
<link href="https://chemins.be/gemmenich/sentier/i51"/><trkseg>
<trkpt lat="50.736656" lon="5.964030"><time>2026-05-06T18:28:17Z</time></trkpt>
<trkpt lat="50.736448" lon="5.964109"><time>2026-05-06T18:38:17Z</time></trkpt>
<trkpt lat="50.736427" lon="5.964413"><time>2026-05-06T18:48:17Z</time></trkpt>
<trkpt lat="50.736614" lon="5.965860"><time>2026-05-06T18:58:17Z</time></trkpt>
<trkpt lat="50.736793" lon="5.966523"><time>2026-05-06T19:08:17Z</time></trkpt>
<trkpt lat="50.736713" lon="5.966606"><time>2026-05-06T19:18:17Z</time></trkpt>
</trkseg>
</trk>
<trk>
<name>lpbgmi52</name>
<cmt>v</cmt>
<desc>Gemmenich Chemin n°i52 </desc>
<link href="https://chemins.be/gemmenich/chemin/i52"/><trkseg>
<trkpt lat="50.736725" lon="5.966668"><time>2026-05-06T18:28:17Z</time></trkpt>
<trkpt lat="50.736688" lon="5.966877"><time>2026-05-06T18:38:17Z</time></trkpt>
<trkpt lat="50.736537" lon="5.966936"><time>2026-05-06T18:48:17Z</time></trkpt>
<trkpt lat="50.736284" lon="5.967389"><time>2026-05-06T18:58:17Z</time></trkpt>
<trkpt lat="50.736157" lon="5.967328"><time>2026-05-06T19:08:17Z</time></trkpt>
<trkpt lat="50.735789" lon="5.966702"><time>2026-05-06T19:18:17Z</time></trkpt>
<trkpt lat="50.735241" lon="5.965965"><time>2026-05-06T19:28:17Z</time></trkpt>
</trkseg>
</trk>
<trk>
<name>lpbgmi53</name>
<cmt>v</cmt>
<desc>Gemmenich Sentier n°i53 </desc>
<link href="https://chemins.be/gemmenich/sentier/i53"/><trkseg>
<trkpt lat="50.736408" lon="5.967206"><time>2026-05-06T18:28:17Z</time></trkpt>
<trkpt lat="50.736294" lon="5.967766"><time>2026-05-06T18:38:17Z</time></trkpt>
<trkpt lat="50.736282" lon="5.968169"><time>2026-05-06T18:48:17Z</time></trkpt>
<trkpt lat="50.736319" lon="5.968358"><time>2026-05-06T18:58:17Z</time></trkpt>
</trkseg>
</trk>
<trk>
<name>lpbgmi54</name>
<cmt>v</cmt>
<desc>Gemmenich Chemin n°i54 </desc>
<link href="https://chemins.be/gemmenich/chemin/i54"/><trkseg>
<trkpt lat="50.733099" lon="5.971053"><time>2026-05-06T18:28:17Z</time></trkpt>
<trkpt lat="50.732846" lon="5.971533"><time>2026-05-06T18:38:17Z</time></trkpt>
<trkpt lat="50.732803" lon="5.971680"><time>2026-05-06T18:48:17Z</time></trkpt>
<trkpt lat="50.732846" lon="5.972176"><time>2026-05-06T18:58:17Z</time></trkpt>
<trkpt lat="50.732542" lon="5.973435"><time>2026-05-06T19:08:17Z</time></trkpt>
</trkseg>
</trk>
<trk>
<name>lpbgmi55</name>
<cmt>v</cmt>
<desc>Gemmenich Chemin n°i55 </desc>
<link href="https://chemins.be/gemmenich/chemin/i55"/><trkseg>
<trkpt lat="50.732194" lon="5.973392"><time>2026-05-06T18:28:17Z</time></trkpt>
<trkpt lat="50.732002" lon="5.973064"><time>2026-05-06T18:38:17Z</time></trkpt>
<trkpt lat="50.731832" lon="5.972041"><time>2026-05-06T18:48:17Z</time></trkpt>
</trkseg>
</trk>
<trk>
<name>lpbgmi56</name>
<cmt>v</cmt>
<desc>Gemmenich Chemin n°i56 </desc>
<link href="https://chemins.be/gemmenich/chemin/i56"/><trkseg>
<trkpt lat="50.732824" lon="5.971633"><time>2026-05-06T18:28:17Z</time></trkpt>
<trkpt lat="50.732346" lon="5.971755"><time>2026-05-06T18:38:17Z</time></trkpt>
<trkpt lat="50.731830" lon="5.972005"><time>2026-05-06T18:48:17Z</time></trkpt>
<trkpt lat="50.731706" lon="5.971966"><time>2026-05-06T18:58:17Z</time></trkpt>
<trkpt lat="50.731497" lon="5.972224"><time>2026-05-06T19:08:17Z</time></trkpt>
<trkpt lat="50.730850" lon="5.972338"><time>2026-05-06T19:18:17Z</time></trkpt>
<trkpt lat="50.730762" lon="5.972460"><time>2026-05-06T19:28:17Z</time></trkpt>
<trkpt lat="50.730648" lon="5.972832"><time>2026-05-06T19:38:17Z</time></trkpt>
<trkpt lat="50.730227" lon="5.972535"><time>2026-05-06T19:48:17Z</time></trkpt>
</trkseg>
</trk>
<trk>
<name>lpbgmi57</name>
<cmt>v</cmt>
<desc>Gemmenich Sentier n°i57 Op te Gueule, RAVeL 39 Moresnet Gemmenich</desc>
<link href="https://chemins.be/gemmenich/sentier/i57"/><trkseg>
<trkpt lat="50.731701" lon="5.971937"><time>2026-05-06T18:28:17Z</time></trkpt>
<trkpt lat="50.731383" lon="5.971807"><time>2026-05-06T18:38:17Z</time></trkpt>
<trkpt lat="50.730911" lon="5.971927"><time>2026-05-06T18:48:17Z</time></trkpt>
<trkpt lat="50.730753" lon="5.972002"><time>2026-05-06T18:58:17Z</time></trkpt>
<trkpt lat="50.730219" lon="5.972537"><time>2026-05-06T19:08:17Z</time></trkpt>
<trkpt lat="50.730020" lon="5.972705"><time>2026-05-06T19:18:17Z</time></trkpt>
<trkpt lat="50.729866" lon="5.972773"><time>2026-05-06T19:28:17Z</time></trkpt>
<trkpt lat="50.729538" lon="5.973345"><time>2026-05-06T19:38:17Z</time></trkpt>
<trkpt lat="50.729458" lon="5.973742"><time>2026-05-06T19:48:17Z</time></trkpt>
<trkpt lat="50.729485" lon="5.974421"><time>2026-05-06T19:58:17Z</time></trkpt>
</trkseg>
</trk>
<trk>
<name>lpbgmi58</name>
<cmt>v</cmt>
<desc>Gemmenich Chemin n°i58 </desc>
<link href="https://chemins.be/gemmenich/chemin/i58"/><trkseg>
<trkpt lat="50.732818" lon="5.971540"><time>2026-05-06T18:28:17Z</time></trkpt>
<trkpt lat="50.732302" lon="5.971203"><time>2026-05-06T18:38:17Z</time></trkpt>
<trkpt lat="50.731169" lon="5.971498"><time>2026-05-06T18:48:17Z</time></trkpt>
<trkpt lat="50.730528" lon="5.971611"><time>2026-05-06T18:58:17Z</time></trkpt>
</trkseg>
</trk>
<trk>
<name>lpbgmi59</name>
<cmt>v</cmt>
<desc>Gemmenich Sentier n°i59 </desc>
<link href="https://chemins.be/gemmenich/sentier/i59"/><trkseg>
<trkpt lat="50.735693" lon="6.002403"><time>2026-05-06T18:28:17Z</time></trkpt>
<trkpt lat="50.736435" lon="6.003926"><time>2026-05-06T18:38:17Z</time></trkpt>
<trkpt lat="50.736520" lon="6.004868"><time>2026-05-06T18:48:17Z</time></trkpt>
<trkpt lat="50.736427" lon="6.005072"><time>2026-05-06T18:58:17Z</time></trkpt>
</trkseg>
</trk>
<trk>
<name>lpbgmi6</name>
<cmt>v</cmt>
<desc>Gemmenich Sentier n°i6 </desc>
<link href="https://chemins.be/gemmenich/sentier/i6"/><trkseg>
<trkpt lat="50.744733" lon="5.962522"><time>2026-05-06T18:28:17Z</time></trkpt>
<trkpt lat="50.744645" lon="5.962157"><time>2026-05-06T18:38:17Z</time></trkpt>
</trkseg>
</trk>
<trk>
<name>lpbgmi60</name>
<cmt>v</cmt>
<desc>Gemmenich Sentier n°i60 </desc>
<link href="https://chemins.be/gemmenich/sentier/i60"/><trkseg>
<trkpt lat="50.755221" lon="5.974151"><time>2026-05-06T18:28:17Z</time></trkpt>
<trkpt lat="50.755625" lon="5.974275"><time>2026-05-06T18:38:17Z</time></trkpt>
<trkpt lat="50.756281" lon="5.973617"><time>2026-05-06T18:48:17Z</time></trkpt>
<trkpt lat="50.757048" lon="5.973703"><time>2026-05-06T18:58:17Z</time></trkpt>
<trkpt lat="50.758025" lon="5.972909"><time>2026-05-06T19:08:17Z</time></trkpt>
<trkpt lat="50.758765" lon="5.972030"><time>2026-05-06T19:18:17Z</time></trkpt>
<trkpt lat="50.758847" lon="5.971557"><time>2026-05-06T19:28:17Z</time></trkpt>
<trkpt lat="50.759451" lon="5.970581"><time>2026-05-06T19:38:17Z</time></trkpt>
</trkseg></trk>
<trk>
<name>lpbgmi60</name>
<cmt>d</cmt>
<desc>Gemmenich Sentier n°i60 </desc>
<link href="https://chemins.be/gemmenich/sentier/i60"/><trkseg>
<trkpt lat="50.759451" lon="5.970581"><time>2026-05-06T19:38:17Z</time></trkpt>
<trkpt lat="50.759946" lon="5.969658"><time>2026-05-06T19:48:17Z</time></trkpt>
<trkpt lat="50.760408" lon="5.967824"><time>2026-05-06T19:58:17Z</time></trkpt>
<trkpt lat="50.761159" lon="5.966932"><time>2026-05-06T20:08:17Z</time></trkpt>
</trkseg></trk>
<trk>
<name>lpbgmi60</name>
<cmt>v</cmt>
<desc>Gemmenich Sentier n°i60 </desc>
<link href="https://chemins.be/gemmenich/sentier/i60"/><trkseg>
<trkpt lat="50.761159" lon="5.966932"><time>2026-05-06T20:08:17Z</time></trkpt>
<trkpt lat="50.761018" lon="5.966418"><time>2026-05-06T20:18:17Z</time></trkpt>
</trkseg>
</trk>
<trk>
<name>lpbgmi62</name>
<cmt>v</cmt>
<desc>Gemmenich Sentier n°i62 </desc>
<link href="https://chemins.be/gemmenich/sentier/i62"/><trkseg>
<trkpt lat="50.759130" lon="5.965156"><time>2026-05-06T18:28:17Z</time></trkpt>
<trkpt lat="50.759145" lon="5.965853"><time>2026-05-06T18:38:17Z</time></trkpt>
<trkpt lat="50.759582" lon="5.967310"><time>2026-05-06T18:48:17Z</time></trkpt>
<trkpt lat="50.759685" lon="5.968273"><time>2026-05-06T18:58:17Z</time></trkpt>
</trkseg></trk>
<trk>
<name>lpbgmi62</name>
<cmt>d</cmt>
<desc>Gemmenich Sentier n°i62 </desc>
<link href="https://chemins.be/gemmenich/sentier/i62"/><trkseg>
<trkpt lat="50.759685" lon="5.968273"><time>2026-05-06T18:58:17Z</time></trkpt>
<trkpt lat="50.759481" lon="5.970514"><time>2026-05-06T19:08:17Z</time></trkpt>
</trkseg>
</trk>
<trk>
<name>lpbgmi7</name>
<cmt>v</cmt>
<desc>Gemmenich Chemin n°i7 </desc>
<link href="https://chemins.be/gemmenich/chemin/i7"/><trkseg>
<trkpt lat="50.747828" lon="6.015730"><time>2026-05-06T18:28:17Z</time></trkpt>
<trkpt lat="50.747710" lon="6.016130"><time>2026-05-06T18:38:17Z</time></trkpt>
<trkpt lat="50.747479" lon="6.017861"><time>2026-05-06T18:48:17Z</time></trkpt>
</trkseg>
</trk>
<trk>
<name>lpbgmi8</name>
<cmt>v</cmt>
<desc>Gemmenich Chemin n°i8 </desc>
<link href="https://chemins.be/gemmenich/chemin/i8"/><trkseg>
<trkpt lat="50.744400" lon="6.015851"><time>2026-05-06T18:28:17Z</time></trkpt>
<trkpt lat="50.744759" lon="6.016395"><time>2026-05-06T18:38:17Z</time></trkpt>
<trkpt lat="50.745143" lon="6.016254"><time>2026-05-06T18:48:17Z</time></trkpt>
<trkpt lat="50.745502" lon="6.016245"><time>2026-05-06T18:58:17Z</time></trkpt>
<trkpt lat="50.746660" lon="6.016266"><time>2026-05-06T19:08:17Z</time></trkpt>
<trkpt lat="50.747434" lon="6.016066"><time>2026-05-06T19:18:17Z</time></trkpt>
<trkpt lat="50.747864" lon="6.015644"><time>2026-05-06T19:28:17Z</time></trkpt>
<trkpt lat="50.748199" lon="6.015429"><time>2026-05-06T19:38:17Z</time></trkpt>
<trkpt lat="50.749018" lon="6.015344"><time>2026-05-06T19:48:17Z</time></trkpt>
</trkseg>
</trk>
<trk>
<name>lpbgmi9</name>
<cmt>v</cmt>
<desc>Gemmenich Sentier n°i9 </desc>
<link href="https://chemins.be/gemmenich/sentier/i9"/><trkseg>
<trkpt lat="50.752991" lon="5.999243"><time>2026-05-06T18:28:17Z</time></trkpt>
<trkpt lat="50.753206" lon="5.996527"><time>2026-05-06T18:38:17Z</time></trkpt>
<trkpt lat="50.753487" lon="5.995762"><time>2026-05-06T18:48:17Z</time></trkpt>
</trkseg>
</trk>
<trk>
<name>lpbgmL39</name>
<cmt>v</cmt>
<desc>Gemmenich Chemin n°L39 RAVeL 39 Moresnet Gemmenich / Ligne 39 / RAVeL Ligne 39 Moresnet Gemmenich / RAVeL Ligne 39 / RAVeL 39 / Route des Trois Bornes</desc>
<link href="https://chemins.be/gemmenich/chemin/L39"/><trkseg>
<trkpt lat="50.735661" lon="5.965145"><time>2026-05-06T18:28:17Z</time></trkpt>
<trkpt lat="50.736349" lon="5.965803"><time>2026-05-06T18:38:17Z</time></trkpt>
<trkpt lat="50.736703" lon="5.966579"><time>2026-05-06T18:48:17Z</time></trkpt>
<trkpt lat="50.736931" lon="5.967016"><time>2026-05-06T18:58:17Z</time></trkpt>
<trkpt lat="50.736913" lon="5.967165"><time>2026-05-06T19:08:17Z</time></trkpt>
<trkpt lat="50.737618" lon="5.968507"><time>2026-05-06T19:18:17Z</time></trkpt>
<trkpt lat="50.738539" lon="5.969567"><time>2026-05-06T19:28:17Z</time></trkpt>
<trkpt lat="50.739972" lon="5.970563"><time>2026-05-06T19:38:17Z</time></trkpt>
<trkpt lat="50.740999" lon="5.970622"><time>2026-05-06T19:48:17Z</time></trkpt>
<trkpt lat="50.742550" lon="5.970628"><time>2026-05-06T19:58:17Z</time></trkpt>
<trkpt lat="50.743863" lon="5.971262"><time>2026-05-06T20:08:17Z</time></trkpt>
<trkpt lat="50.745040" lon="5.972536"><time>2026-05-06T20:18:17Z</time></trkpt>
<trkpt lat="50.745577" lon="5.973884"><time>2026-05-06T20:28:17Z</time></trkpt>
<trkpt lat="50.745874" lon="5.975193"><time>2026-05-06T20:38:17Z</time></trkpt>
<trkpt lat="50.745889" lon="5.976745"><time>2026-05-06T20:48:17Z</time></trkpt>
<trkpt lat="50.745830" lon="5.977674"><time>2026-05-06T20:58:17Z</time></trkpt>
<trkpt lat="50.744946" lon="5.980464"><time>2026-05-06T21:08:17Z</time></trkpt>
<trkpt lat="50.743438" lon="5.982892"><time>2026-05-06T21:18:17Z</time></trkpt>
<trkpt lat="50.743080" lon="5.984287"><time>2026-05-06T21:28:17Z</time></trkpt>
<trkpt lat="50.742939" lon="5.985510"><time>2026-05-06T21:38:17Z</time></trkpt>
<trkpt lat="50.743024" lon="5.986888"><time>2026-05-06T21:48:17Z</time></trkpt>
<trkpt lat="50.743325" lon="5.988214"><time>2026-05-06T21:58:17Z</time></trkpt>
<trkpt lat="50.744128" lon="5.990228"><time>2026-05-06T22:08:17Z</time></trkpt>
<trkpt lat="50.745729" lon="5.991641"><time>2026-05-06T22:18:17Z</time></trkpt>
</trkseg></trk>
<trk>
<name>lpbgmL39</name>
<cmt>r</cmt>
<desc>Gemmenich Chemin n°L39 RAVeL 39 Moresnet Gemmenich / Ligne 39 / RAVeL Ligne 39 Moresnet Gemmenich / RAVeL Ligne 39 / RAVeL 39 / Route des Trois Bornes</desc>
<link href="https://chemins.be/gemmenich/chemin/L39"/><trkseg>
<trkpt lat="50.745729" lon="5.991641"><time>2026-05-06T22:18:17Z</time></trkpt>
<trkpt lat="50.746581" lon="5.992511"><time>2026-05-06T22:28:17Z</time></trkpt>
</trkseg></trk>
<trk>
<name>lpbgmL39</name>
<cmt>v</cmt>
<desc>Gemmenich Chemin n°L39 RAVeL 39 Moresnet Gemmenich / Ligne 39 / RAVeL Ligne 39 Moresnet Gemmenich / RAVeL Ligne 39 / RAVeL 39 / Route des Trois Bornes</desc>
<link href="https://chemins.be/gemmenich/chemin/L39"/><trkseg>
<trkpt lat="50.746581" lon="5.992511"><time>2026-05-06T22:28:17Z</time></trkpt>
<trkpt lat="50.747476" lon="5.993873"><time>2026-05-06T22:38:17Z</time></trkpt>
<trkpt lat="50.748105" lon="5.995879"><time>2026-05-06T22:48:17Z</time></trkpt>
<trkpt lat="50.748587" lon="5.999629"><time>2026-05-06T22:58:17Z</time></trkpt>
<trkpt lat="50.749313" lon="6.002108"><time>2026-05-06T23:08:17Z</time></trkpt>
</trkseg></trk>
<trk>
<name>lpbgmL39</name>
<cmt>s</cmt>
<desc>Gemmenich Chemin n°L39 RAVeL 39 Moresnet Gemmenich / Ligne 39 / RAVeL Ligne 39 Moresnet Gemmenich / RAVeL Ligne 39 / RAVeL 39 / Route des Trois Bornes</desc>
<link href="https://chemins.be/gemmenich/chemin/L39"/><trkseg>
<trkpt lat="50.749313" lon="6.002108"><time>2026-05-06T23:08:17Z</time></trkpt>
<trkpt lat="50.750094" lon="6.004721"><time>2026-05-06T23:18:17Z</time></trkpt>
</trkseg></trk>
<trk>
<name>lpbgmL39</name>
<cmt>v</cmt>
<desc>Gemmenich Chemin n°L39 RAVeL 39 Moresnet Gemmenich / Ligne 39 / RAVeL Ligne 39 Moresnet Gemmenich / RAVeL Ligne 39 / RAVeL 39 / Route des Trois Bornes</desc>
<link href="https://chemins.be/gemmenich/chemin/L39"/><trkseg>
<trkpt lat="50.750094" lon="6.004721"><time>2026-05-06T23:18:17Z</time></trkpt>
<trkpt lat="50.750362" lon="6.006190"><time>2026-05-06T23:28:17Z</time></trkpt>
<trkpt lat="50.750465" lon="6.007129"><time>2026-05-06T23:38:17Z</time></trkpt>
<trkpt lat="50.750532" lon="6.008152"><time>2026-05-06T23:48:17Z</time></trkpt>
<trkpt lat="50.750505" lon="6.009398"><time>2026-05-06T23:58:17Z</time></trkpt>
<trkpt lat="50.750381" lon="6.009876"><time>2026-05-07T00:08:17Z</time></trkpt>
<trkpt lat="50.750336" lon="6.011367"><time>2026-05-07T00:18:17Z</time></trkpt>
<trkpt lat="50.750425" lon="6.012556"><time>2026-05-07T00:28:17Z</time></trkpt>
<trkpt lat="50.750692" lon="6.014026"><time>2026-05-07T00:38:17Z</time></trkpt>
<trkpt lat="50.752353" lon="6.018024"><time>2026-05-07T00:48:17Z</time></trkpt>
</trkseg>
</trk>
<trk>
<name>lpbgmp1</name>
<cmt>v</cmt>
<desc>Gemmenich Chemin particulier n°p1 </desc>
<link href="https://chemins.be/gemmenich/chemin/p1"/><trkseg>
<trkpt lat="50.759220" lon="5.957293"><time>2026-05-06T18:28:17Z</time></trkpt>
<trkpt lat="50.759218" lon="5.956930"><time>2026-05-06T18:38:17Z</time></trkpt>
<trkpt lat="50.758836" lon="5.955103"><time>2026-05-06T18:48:17Z</time></trkpt>
</trkseg></trk>
<trk>
<name>lpbgmp1</name>
<cmt>d</cmt>
<desc>Gemmenich Chemin particulier n°p1 </desc>
<link href="https://chemins.be/gemmenich/chemin/p1"/><trkseg>
<trkpt lat="50.758836" lon="5.955103"><time>2026-05-06T18:48:17Z</time></trkpt>
<trkpt lat="50.757644" lon="5.952181"><time>2026-05-06T18:58:17Z</time></trkpt>
</trkseg>
</trk>
<trk>
<name>lpbgmp2</name>
<cmt>s</cmt>
<desc>Gemmenich Chemin particulier n°p2 </desc>
<link href="https://chemins.be/gemmenich/chemin/p2"/><trkseg>
<trkpt lat="50.746779" lon="5.995112"><time>2026-05-06T18:28:17Z</time></trkpt>
<trkpt lat="50.746512" lon="5.995462"><time>2026-05-06T18:38:17Z</time></trkpt>
</trkseg>
</trk>
<trk>
<name>lpbgmp3</name>
<cmt>v</cmt>
<desc>Gemmenich Chemin particulier n°p3 </desc>
<link href="https://chemins.be/gemmenich/chemin/p3"/><trkseg>
<trkpt lat="50.753311" lon="5.973021"><time>2026-05-06T18:28:17Z</time></trkpt>
<trkpt lat="50.753656" lon="5.974032"><time>2026-05-06T18:38:17Z</time></trkpt>
</trkseg>
</trk>
<trk>
<name>lpbhm1</name>
<cmt>d</cmt>
<desc>Hombourg Chemin n°1 RAVeL 38 / Rue d'Aubel / Ten-Driesch / Chevémont / Merckhof</desc>
<link href="https://chemins.be/hombourg/chemin/1"/><trkseg>
<trkpt lat="50.742981" lon="5.962815"><time>2026-05-06T18:28:17Z</time></trkpt>
<trkpt lat="50.743488" lon="5.961335"><time>2026-05-06T18:38:17Z</time></trkpt>
<trkpt lat="50.742678" lon="5.960634"><time>2026-05-06T18:48:17Z</time></trkpt>
</trkseg></trk>
<trk>
<name>lpbhm1</name>
<cmt>r</cmt>
<desc>Hombourg Chemin n°1 RAVeL 38 / Rue d'Aubel / Ten-Driesch / Chevémont / Merckhof</desc>
<link href="https://chemins.be/hombourg/chemin/1"/><trkseg>
<trkpt lat="50.742678" lon="5.960634"><time>2026-05-06T18:48:17Z</time></trkpt>
<trkpt lat="50.741075" lon="5.960870"><time>2026-05-06T18:58:17Z</time></trkpt>
<trkpt lat="50.740138" lon="5.961785"><time>2026-05-06T19:08:17Z</time></trkpt>
<trkpt lat="50.739830" lon="5.961220"><time>2026-05-06T19:18:17Z</time></trkpt>
<trkpt lat="50.738762" lon="5.959182"><time>2026-05-06T19:28:17Z</time></trkpt>
<trkpt lat="50.738482" lon="5.958815"><time>2026-05-06T19:38:17Z</time></trkpt>
<trkpt lat="50.738274" lon="5.958399"><time>2026-05-06T19:48:17Z</time></trkpt>
</trkseg></trk>
<trk>
<name>lpbhm1</name>
<cmt>s</cmt>
<desc>Hombourg Chemin n°1 RAVeL 38 / Rue d'Aubel / Ten-Driesch / Chevémont / Merckhof</desc>
<link href="https://chemins.be/hombourg/chemin/1"/><trkseg>
<trkpt lat="50.738274" lon="5.958399"><time>2026-05-06T19:48:17Z</time></trkpt>
<trkpt lat="50.737541" lon="5.956020"><time>2026-05-06T19:58:17Z</time></trkpt>
<trkpt lat="50.737255" lon="5.953417"><time>2026-05-06T20:08:17Z</time></trkpt>
<trkpt lat="50.737155" lon="5.952151"><time>2026-05-06T20:18:17Z</time></trkpt>
<trkpt lat="50.737155" lon="5.951250"><time>2026-05-06T20:28:17Z</time></trkpt>
<trkpt lat="50.736757" lon="5.949511"><time>2026-05-06T20:38:17Z</time></trkpt>
</trkseg></trk>
<trk>
<name>lpbhm1</name>
<cmt>r</cmt>
<desc>Hombourg Chemin n°1 RAVeL 38 / Rue d'Aubel / Ten-Driesch / Chevémont / Merckhof</desc>
<link href="https://chemins.be/hombourg/chemin/1"/><trkseg>
<trkpt lat="50.736757" lon="5.949511"><time>2026-05-06T20:38:17Z</time></trkpt>
<trkpt lat="50.736398" lon="5.948685"><time>2026-05-06T20:48:17Z</time></trkpt>
</trkseg></trk>
<trk>
<name>lpbhm1</name>
<cmt>s</cmt>
<desc>Hombourg Chemin n°1 RAVeL 38 / Rue d'Aubel / Ten-Driesch / Chevémont / Merckhof</desc>
<link href="https://chemins.be/hombourg/chemin/1"/><trkseg>
<trkpt lat="50.736398" lon="5.948685"><time>2026-05-06T20:48:17Z</time></trkpt>
<trkpt lat="50.736024" lon="5.947641"><time>2026-05-06T20:58:17Z</time></trkpt>
</trkseg></trk>
<trk>
<name>lpbhm1</name>
<cmt>r</cmt>
<desc>Hombourg Chemin n°1 RAVeL 38 / Rue d'Aubel / Ten-Driesch / Chevémont / Merckhof</desc>
<link href="https://chemins.be/hombourg/chemin/1"/><trkseg>
<trkpt lat="50.736024" lon="5.947641"><time>2026-05-06T20:58:17Z</time></trkpt>
<trkpt lat="50.734822" lon="5.943975"><time>2026-05-06T21:08:17Z</time></trkpt>
<trkpt lat="50.732342" lon="5.938368"><time>2026-05-06T21:18:17Z</time></trkpt>
<trkpt lat="50.727307" lon="5.930414"><time>2026-05-06T21:28:17Z</time></trkpt>
<trkpt lat="50.726383" lon="5.928411"><time>2026-05-06T21:38:17Z</time></trkpt>
</trkseg></trk>
<trk>
<name>lpbhm1</name>
<cmt>v</cmt>
<desc>Hombourg Chemin n°1 RAVeL 38 / Rue d'Aubel / Ten-Driesch / Chevémont / Merckhof</desc>
<link href="https://chemins.be/hombourg/chemin/1"/><trkseg>
<trkpt lat="50.726383" lon="5.928411"><time>2026-05-06T21:38:17Z</time></trkpt>
<trkpt lat="50.726692" lon="5.926899"><time>2026-05-06T21:48:17Z</time></trkpt>
</trkseg></trk>
<trk>
<name>lpbhm1</name>
<cmt>s</cmt>
<desc>Hombourg Chemin n°1 RAVeL 38 / Rue d'Aubel / Ten-Driesch / Chevémont / Merckhof</desc>
<link href="https://chemins.be/hombourg/chemin/1"/><trkseg>
<trkpt lat="50.726692" lon="5.926899"><time>2026-05-06T21:48:17Z</time></trkpt>
<trkpt lat="50.727130" lon="5.925450"><time>2026-05-06T21:58:17Z</time></trkpt>
<trkpt lat="50.726746" lon="5.924522"><time>2026-05-06T22:08:17Z</time></trkpt>
<trkpt lat="50.726363" lon="5.924069"><time>2026-05-06T22:18:17Z</time></trkpt>
</trkseg></trk>
<trk>
<name>lpbhm1</name>
<cmt>v</cmt>
<desc>Hombourg Chemin n°1 RAVeL 38 / Rue d'Aubel / Ten-Driesch / Chevémont / Merckhof</desc>
<link href="https://chemins.be/hombourg/chemin/1"/><trkseg>
<trkpt lat="50.726363" lon="5.924069"><time>2026-05-06T22:18:17Z</time></trkpt>
<trkpt lat="50.725578" lon="5.923138"><time>2026-05-06T22:28:17Z</time></trkpt>
<trkpt lat="50.725034" lon="5.922169"><time>2026-05-06T22:38:17Z</time></trkpt>
</trkseg></trk>
<trk>
<name>lpbhm1</name>
<cmt>r</cmt>
<desc>Hombourg Chemin n°1 RAVeL 38 / Rue d'Aubel / Ten-Driesch / Chevémont / Merckhof</desc>
<link href="https://chemins.be/hombourg/chemin/1"/><trkseg>
<trkpt lat="50.725034" lon="5.922169"><time>2026-05-06T22:38:17Z</time></trkpt>
<trkpt lat="50.724365" lon="5.921384"><time>2026-05-06T22:48:17Z</time></trkpt>
<trkpt lat="50.723880" lon="5.920443"><time>2026-05-06T22:58:17Z</time></trkpt>
<trkpt lat="50.723364" lon="5.921202"><time>2026-05-06T23:08:17Z</time></trkpt>
<trkpt lat="50.722572" lon="5.920515"><time>2026-05-06T23:18:17Z</time></trkpt>
<trkpt lat="50.721244" lon="5.921491"><time>2026-05-06T23:28:17Z</time></trkpt>
</trkseg></trk>
<trk>
<name>lpbhm1</name>
<cmt>s</cmt>
<desc>Hombourg Chemin n°1 RAVeL 38 / Rue d'Aubel / Ten-Driesch / Chevémont / Merckhof</desc>
<link href="https://chemins.be/hombourg/chemin/1"/><trkseg>
<trkpt lat="50.721244" lon="5.921491"><time>2026-05-06T23:28:17Z</time></trkpt>
<trkpt lat="50.720182" lon="5.918398"><time>2026-05-06T23:38:17Z</time></trkpt>
</trkseg></trk>
<trk>
<name>lpbhm1</name>
<cmt>r</cmt>
<desc>Hombourg Chemin n°1 RAVeL 38 / Rue d'Aubel / Ten-Driesch / Chevémont / Merckhof</desc>
<link href="https://chemins.be/hombourg/chemin/1"/><trkseg>
<trkpt lat="50.720182" lon="5.918398"><time>2026-05-06T23:38:17Z</time></trkpt>
<trkpt lat="50.718547" lon="5.917048"><time>2026-05-06T23:48:17Z</time></trkpt>
</trkseg></trk>
<trk>
<name>lpbhm1</name>
<cmt>s</cmt>
<desc>Hombourg Chemin n°1 RAVeL 38 / Rue d'Aubel / Ten-Driesch / Chevémont / Merckhof</desc>
<link href="https://chemins.be/hombourg/chemin/1"/><trkseg>
<trkpt lat="50.718547" lon="5.917048"><time>2026-05-06T23:48:17Z</time></trkpt>
<trkpt lat="50.718639" lon="5.916349"><time>2026-05-06T23:58:17Z</time></trkpt>
<trkpt lat="50.718272" lon="5.915283"><time>2026-05-07T00:08:17Z</time></trkpt>
<trkpt lat="50.717969" lon="5.913153"><time>2026-05-07T00:18:17Z</time></trkpt>
</trkseg></trk>
<trk>
<name>lpbhm1</name>
<cmt>r</cmt>
<desc>Hombourg Chemin n°1 RAVeL 38 / Rue d'Aubel / Ten-Driesch / Chevémont / Merckhof</desc>
<link href="https://chemins.be/hombourg/chemin/1"/><trkseg>
<trkpt lat="50.717969" lon="5.913153"><time>2026-05-07T00:18:17Z</time></trkpt>
<trkpt lat="50.717919" lon="5.913176"><time>2026-05-07T00:28:17Z</time></trkpt>
<trkpt lat="50.717735" lon="5.912527"><time>2026-05-07T00:38:17Z</time></trkpt>
<trkpt lat="50.717911" lon="5.911605"><time>2026-05-07T00:48:17Z</time></trkpt>
<trkpt lat="50.717799" lon="5.910773"><time>2026-05-07T00:58:17Z</time></trkpt>
<trkpt lat="50.717523" lon="5.910344"><time>2026-05-07T01:08:17Z</time></trkpt>
<trkpt lat="50.717128" lon="5.909952"><time>2026-05-07T01:18:17Z</time></trkpt>
<trkpt lat="50.715342" lon="5.908821"><time>2026-05-07T01:28:17Z</time></trkpt>
<trkpt lat="50.713602" lon="5.907324"><time>2026-05-07T01:38:17Z</time></trkpt>
</trkseg></trk>
<trk>
<name>lpbhm1</name>
<cmt>s</cmt>
<desc>Hombourg Chemin n°1 RAVeL 38 / Rue d'Aubel / Ten-Driesch / Chevémont / Merckhof</desc>
<link href="https://chemins.be/hombourg/chemin/1"/><trkseg>
<trkpt lat="50.713602" lon="5.907324"><time>2026-05-07T01:38:17Z</time></trkpt>
<trkpt lat="50.713259" lon="5.905805"><time>2026-05-07T01:48:17Z</time></trkpt>
</trkseg></trk>
<trk>
<name>lpbhm1</name>
<cmt>r</cmt>
<desc>Hombourg Chemin n°1 RAVeL 38 / Rue d'Aubel / Ten-Driesch / Chevémont / Merckhof</desc>
<link href="https://chemins.be/hombourg/chemin/1"/><trkseg>
<trkpt lat="50.713259" lon="5.905805"><time>2026-05-07T01:48:17Z</time></trkpt>
<trkpt lat="50.712973" lon="5.904558"><time>2026-05-07T01:58:17Z</time></trkpt>
<trkpt lat="50.712396" lon="5.903706"><time>2026-05-07T02:08:17Z</time></trkpt>
</trkseg></trk>
<trk>
<name>lpbhm1</name>
<cmt>v</cmt>
<desc>Hombourg Chemin n°1 RAVeL 38 / Rue d'Aubel / Ten-Driesch / Chevémont / Merckhof</desc>
<link href="https://chemins.be/hombourg/chemin/1"/><trkseg>
<trkpt lat="50.712396" lon="5.903706"><time>2026-05-07T02:08:17Z</time></trkpt>
<trkpt lat="50.711275" lon="5.902147"><time>2026-05-07T02:18:17Z</time></trkpt>
<trkpt lat="50.710621" lon="5.900749"><time>2026-05-07T02:28:17Z</time></trkpt>
</trkseg></trk>
<trk>
<name>lpbhm1</name>
<cmt>s</cmt>
<desc>Hombourg Chemin n°1 RAVeL 38 / Rue d'Aubel / Ten-Driesch / Chevémont / Merckhof</desc>
<link href="https://chemins.be/hombourg/chemin/1"/><trkseg>
<trkpt lat="50.710621" lon="5.900749"><time>2026-05-07T02:28:17Z</time></trkpt>
<trkpt lat="50.709326" lon="5.897888"><time>2026-05-07T02:38:17Z</time></trkpt>
<trkpt lat="50.709307" lon="5.896143"><time>2026-05-07T02:48:17Z</time></trkpt>
</trkseg></trk>
<trk>
<name>lpbhm1</name>
<cmt>r</cmt>
<desc>Hombourg Chemin n°1 RAVeL 38 / Rue d'Aubel / Ten-Driesch / Chevémont / Merckhof</desc>
<link href="https://chemins.be/hombourg/chemin/1"/><trkseg>
<trkpt lat="50.709307" lon="5.896143"><time>2026-05-07T02:48:17Z</time></trkpt>
<trkpt lat="50.709624" lon="5.895093"><time>2026-05-07T02:58:17Z</time></trkpt>
<trkpt lat="50.709660" lon="5.894449"><time>2026-05-07T03:08:17Z</time></trkpt>
<trkpt lat="50.710181" lon="5.893169"><time>2026-05-07T03:18:17Z</time></trkpt>
</trkseg></trk>
<trk>
<name>lpbhm1</name>
<cmt>s</cmt>
<desc>Hombourg Chemin n°1 RAVeL 38 / Rue d'Aubel / Ten-Driesch / Chevémont / Merckhof</desc>
<link href="https://chemins.be/hombourg/chemin/1"/><trkseg>
<trkpt lat="50.710181" lon="5.893169"><time>2026-05-07T03:18:17Z</time></trkpt>
<trkpt lat="50.710476" lon="5.891731"><time>2026-05-07T03:28:17Z</time></trkpt>
<trkpt lat="50.710684" lon="5.886925"><time>2026-05-07T03:38:17Z</time></trkpt>
<trkpt lat="50.710391" lon="5.885364"><time>2026-05-07T03:48:17Z</time></trkpt>
</trkseg></trk>
<trk>
<name>lpbhm1</name>
<cmt>r</cmt>
<desc>Hombourg Chemin n°1 RAVeL 38 / Rue d'Aubel / Ten-Driesch / Chevémont / Merckhof</desc>
<link href="https://chemins.be/hombourg/chemin/1"/><trkseg>
<trkpt lat="50.710391" lon="5.885364"><time>2026-05-07T03:48:17Z</time></trkpt>
<trkpt lat="50.709626" lon="5.884366"><time>2026-05-07T03:58:17Z</time></trkpt>
</trkseg>
</trk>
<trk>
<name>lpbhm10</name>
<cmt>r</cmt>
<desc>Hombourg Chemin n°10  / Stribweg / Gulpen</desc>
<link href="https://chemins.be/hombourg/chemin/10"/><trkseg>
<trkpt lat="50.709265" lon="5.896170"><time>2026-05-06T18:28:17Z</time></trkpt>
<trkpt lat="50.709041" lon="5.896626"><time>2026-05-06T18:38:17Z</time></trkpt>
</trkseg></trk>
<trk>
<name>lpbhm10</name>
<cmt>v</cmt>
<desc>Hombourg Chemin n°10  / Stribweg / Gulpen</desc>
<link href="https://chemins.be/hombourg/chemin/10"/><trkseg>
<trkpt lat="50.709041" lon="5.896626"><time>2026-05-06T18:38:17Z</time></trkpt>
<trkpt lat="50.708449" lon="5.897971"><time>2026-05-06T18:48:17Z</time></trkpt>
<trkpt lat="50.708203" lon="5.899706"><time>2026-05-06T18:58:17Z</time></trkpt>
</trkseg></trk>
<trk>
<name>lpbhm10</name>
<cmt>d</cmt>
<desc>Hombourg Chemin n°10  / Stribweg / Gulpen</desc>
<link href="https://chemins.be/hombourg/chemin/10"/><trkseg>
<trkpt lat="50.708203" lon="5.899706"><time>2026-05-06T18:58:17Z</time></trkpt>
<trkpt lat="50.708101" lon="5.901165"><time>2026-05-06T19:08:17Z</time></trkpt>
<trkpt lat="50.708049" lon="5.902225"><time>2026-05-06T19:18:17Z</time></trkpt>
<trkpt lat="50.707942" lon="5.904423"><time>2026-05-06T19:28:17Z</time></trkpt>
</trkseg></trk>
<trk>
<name>lpbhm10</name>
<cmt>v</cmt>
<desc>Hombourg Chemin n°10  / Stribweg / Gulpen</desc>
<link href="https://chemins.be/hombourg/chemin/10"/><trkseg>
<trkpt lat="50.707942" lon="5.904423"><time>2026-05-06T19:28:17Z</time></trkpt>
<trkpt lat="50.707777" lon="5.904496"><time>2026-05-06T19:38:17Z</time></trkpt>
<trkpt lat="50.707673" lon="5.904838"><time>2026-05-06T19:48:17Z</time></trkpt>
<trkpt lat="50.707653" lon="5.905025"><time>2026-05-06T19:58:17Z</time></trkpt>
<trkpt lat="50.707677" lon="5.905222"><time>2026-05-06T20:08:17Z</time></trkpt>
<trkpt lat="50.707837" lon="5.905540"><time>2026-05-06T20:18:17Z</time></trkpt>
<trkpt lat="50.707763" lon="5.905801"><time>2026-05-06T20:28:17Z</time></trkpt>
<trkpt lat="50.707582" lon="5.906890"><time>2026-05-06T20:38:17Z</time></trkpt>
<trkpt lat="50.707611" lon="5.907159"><time>2026-05-06T20:48:17Z</time></trkpt>
<trkpt lat="50.707516" lon="5.907570"><time>2026-05-06T20:58:17Z</time></trkpt>
<trkpt lat="50.706583" lon="5.908314"><time>2026-05-06T21:08:17Z</time></trkpt>
<trkpt lat="50.705814" lon="5.908565"><time>2026-05-06T21:18:17Z</time></trkpt>
<trkpt lat="50.704931" lon="5.908572"><time>2026-05-06T21:28:17Z</time></trkpt>
<trkpt lat="50.703902" lon="5.909716"><time>2026-05-06T21:38:17Z</time></trkpt>
<trkpt lat="50.703079" lon="5.910401"><time>2026-05-06T21:48:17Z</time></trkpt>
<trkpt lat="50.702222" lon="5.910768"><time>2026-05-06T21:58:17Z</time></trkpt>
<trkpt lat="50.700212" lon="5.912136"><time>2026-05-06T22:08:17Z</time></trkpt>
<trkpt lat="50.699938" lon="5.911483"><time>2026-05-06T22:18:17Z</time></trkpt>
<trkpt lat="50.699360" lon="5.911971"><time>2026-05-06T22:28:17Z</time></trkpt>
<trkpt lat="50.699005" lon="5.912270"><time>2026-05-06T22:38:17Z</time></trkpt>
<trkpt lat="50.699449" lon="5.913171"><time>2026-05-06T22:48:17Z</time></trkpt>
<trkpt lat="50.699300" lon="5.913958"><time>2026-05-06T22:58:17Z</time></trkpt>
<trkpt lat="50.697818" lon="5.915524"><time>2026-05-06T23:08:17Z</time></trkpt>
<trkpt lat="50.697632" lon="5.917677"><time>2026-05-06T23:18:17Z</time></trkpt>
<trkpt lat="50.696908" lon="5.918657"><time>2026-05-06T23:28:17Z</time></trkpt>
<trkpt lat="50.696255" lon="5.920281"><time>2026-05-06T23:38:17Z</time></trkpt>
<trkpt lat="50.695862" lon="5.920776"><time>2026-05-06T23:48:17Z</time></trkpt>
<trkpt lat="50.695901" lon="5.922868"><time>2026-05-06T23:58:17Z</time></trkpt>
</trkseg>
</trk>
<trk>
<name>lpbhm100</name>
<cmt>d</cmt>
<desc>Hombourg Sentier n°100 Gulpen</desc>
<link href="https://chemins.be/hombourg/sentier/100"/><trkseg>
<trkpt lat="50.707771" lon="5.907385"><time>2026-05-06T18:28:17Z</time></trkpt>
<trkpt lat="50.707827" lon="5.910458"><time>2026-05-06T18:38:17Z</time></trkpt>
<trkpt lat="50.707857" lon="5.912105"><time>2026-05-06T18:48:17Z</time></trkpt>
<trkpt lat="50.708015" lon="5.913314"><time>2026-05-06T18:58:17Z</time></trkpt>
<trkpt lat="50.707920" lon="5.916111"><time>2026-05-06T19:08:17Z</time></trkpt>
</trkseg></trk>
<trk>
<name>lpbhm100</name>
<cmt>r</cmt>
<desc>Hombourg Sentier n°100 Gulpen</desc>
<link href="https://chemins.be/hombourg/sentier/100"/><trkseg>
<trkpt lat="50.707920" lon="5.916111"><time>2026-05-06T19:08:17Z</time></trkpt>
<trkpt lat="50.707476" lon="5.916426"><time>2026-05-06T19:18:17Z</time></trkpt>
</trkseg></trk>
<trk>
<name>lpbhm100</name>
<cmt>d</cmt>
<desc>Hombourg Sentier n°100 Gulpen</desc>
<link href="https://chemins.be/hombourg/sentier/100"/><trkseg>
<trkpt lat="50.707476" lon="5.916426"><time>2026-05-06T19:18:17Z</time></trkpt>
<trkpt lat="50.707614" lon="5.919306"><time>2026-05-06T19:28:17Z</time></trkpt>
<trkpt lat="50.707614" lon="5.920629"><time>2026-05-06T19:38:17Z</time></trkpt>
</trkseg></trk>
<trk>
<name>lpbhm100</name>
<cmt>v</cmt>
<desc>Hombourg Sentier n°100 Gulpen</desc>
<link href="https://chemins.be/hombourg/sentier/100"/><trkseg>
<trkpt lat="50.707614" lon="5.920629"><time>2026-05-06T19:38:17Z</time></trkpt>
<trkpt lat="50.707650" lon="5.923955"><time>2026-05-06T19:48:17Z</time></trkpt>
</trkseg>
</trk>
<trk>
<name>lpbhm101</name>
<cmt>s</cmt>
<desc>Hombourg Sentier n°101 </desc>
<link href="https://chemins.be/hombourg/sentier/101"/><trkseg>
<trkpt lat="50.712540" lon="5.916603"><time>2026-05-06T18:28:17Z</time></trkpt>
<trkpt lat="50.712561" lon="5.914939"><time>2026-05-06T18:38:17Z</time></trkpt>
<trkpt lat="50.712804" lon="5.914004"><time>2026-05-06T18:48:17Z</time></trkpt>
</trkseg></trk>
<trk>
<name>lpbhm101</name>
<cmt>q</cmt>
<desc>Hombourg Sentier n°101 </desc>
<link href="https://chemins.be/hombourg/sentier/101"/><trkseg>
<trkpt lat="50.712804" lon="5.914004"><time>2026-05-06T18:48:17Z</time></trkpt>
<trkpt lat="50.713121" lon="5.913447"><time>2026-05-06T18:58:17Z</time></trkpt>
<trkpt lat="50.713121" lon="5.912088"><time>2026-05-06T19:08:17Z</time></trkpt>
<trkpt lat="50.712123" lon="5.907893"><time>2026-05-06T19:18:17Z</time></trkpt>
<trkpt lat="50.712153" lon="5.907071"><time>2026-05-06T19:28:17Z</time></trkpt>
</trkseg>
</trk>
<trk>
<name>lpbhm101bis</name>
<cmt>d</cmt>
<desc>Hombourg Sentier n°101bis </desc>
<link href="https://chemins.be/hombourg/sentier/101bis"/><trkseg>
<trkpt lat="50.712687" lon="5.921051"><time>2026-05-06T18:28:17Z</time></trkpt>
<trkpt lat="50.712528" lon="5.920544"><time>2026-05-06T18:38:17Z</time></trkpt>
<trkpt lat="50.712569" lon="5.919507"><time>2026-05-06T18:48:17Z</time></trkpt>
<trkpt lat="50.712288" lon="5.917983"><time>2026-05-06T18:58:17Z</time></trkpt>
</trkseg></trk>
<trk>
<name>lpbhm101bis</name>
<cmt>v</cmt>
<desc>Hombourg Sentier n°101bis </desc>
<link href="https://chemins.be/hombourg/sentier/101bis"/><trkseg>
<trkpt lat="50.712288" lon="5.917983"><time>2026-05-06T18:58:17Z</time></trkpt>
<trkpt lat="50.712573" lon="5.917876"><time>2026-05-06T19:08:17Z</time></trkpt>
<trkpt lat="50.713330" lon="5.916631"><time>2026-05-06T19:18:17Z</time></trkpt>
<trkpt lat="50.712093" lon="5.915179"><time>2026-05-06T19:28:17Z</time></trkpt>
<trkpt lat="50.711735" lon="5.915215"><time>2026-05-06T19:38:17Z</time></trkpt>
<trkpt lat="50.711677" lon="5.914907"><time>2026-05-06T19:48:17Z</time></trkpt>
<trkpt lat="50.711803" lon="5.913920"><time>2026-05-06T19:58:17Z</time></trkpt>
</trkseg>
</trk>
<trk>
<name>lpbhm102</name>
<cmt>d</cmt>
<desc>Hombourg Sentier n°102 </desc>
<link href="https://chemins.be/hombourg/sentier/102"/><trkseg>
<trkpt lat="50.709184" lon="5.922326"><time>2026-05-06T18:28:17Z</time></trkpt>
<trkpt lat="50.708672" lon="5.921432"><time>2026-05-06T18:38:17Z</time></trkpt>
<trkpt lat="50.707639" lon="5.921404"><time>2026-05-06T18:48:17Z</time></trkpt>
</trkseg></trk>
<trk>
<name>lpbhm102</name>
<cmt>v</cmt>
<desc>Hombourg Sentier n°102 </desc>
<link href="https://chemins.be/hombourg/sentier/102"/><trkseg>
<trkpt lat="50.707639" lon="5.921404"><time>2026-05-06T18:48:17Z</time></trkpt>
<trkpt lat="50.707648" lon="5.920688"><time>2026-05-06T18:58:17Z</time></trkpt>
<trkpt lat="50.707399" lon="5.920703"><time>2026-05-06T19:08:17Z</time></trkpt>
<trkpt lat="50.706425" lon="5.919580"><time>2026-05-06T19:18:17Z</time></trkpt>
<trkpt lat="50.705624" lon="5.917863"><time>2026-05-06T19:28:17Z</time></trkpt>
</trkseg></trk>
<trk>
<name>lpbhm102</name>
<cmt>d</cmt>
<desc>Hombourg Sentier n°102 </desc>
<link href="https://chemins.be/hombourg/sentier/102"/><trkseg>
<trkpt lat="50.705624" lon="5.917863"><time>2026-05-06T19:28:17Z</time></trkpt>
<trkpt lat="50.705406" lon="5.916354"><time>2026-05-06T19:38:17Z</time></trkpt>
<trkpt lat="50.702924" lon="5.910496"><time>2026-05-06T19:48:17Z</time></trkpt>
<trkpt lat="50.701474" lon="5.907513"><time>2026-05-06T19:58:17Z</time></trkpt>
<trkpt lat="50.700718" lon="5.904474"><time>2026-05-06T20:08:17Z</time></trkpt>
</trkseg></trk>
<trk>
<name>lpbhm102</name>
<cmt>s</cmt>
<desc>Hombourg Sentier n°102 </desc>
<link href="https://chemins.be/hombourg/sentier/102"/><trkseg>
<trkpt lat="50.700718" lon="5.904474"><time>2026-05-06T20:08:17Z</time></trkpt>
<trkpt lat="50.700373" lon="5.903851"><time>2026-05-06T20:18:17Z</time></trkpt>
<trkpt lat="50.698647" lon="5.902449"><time>2026-05-06T20:28:17Z</time></trkpt>
</trkseg>
</trk>
<trk>
<name>lpbhm103</name>
<cmt>d</cmt>
<desc>Hombourg Sentier n°103 </desc>
<link href="https://chemins.be/hombourg/sentier/103"/><trkseg>
<trkpt lat="50.702743" lon="5.895492"><time>2026-05-06T18:28:17Z</time></trkpt>
<trkpt lat="50.702063" lon="5.897552"><time>2026-05-06T18:38:17Z</time></trkpt>
<trkpt lat="50.700967" lon="5.899869"><time>2026-05-06T18:48:17Z</time></trkpt>
<trkpt lat="50.700831" lon="5.902154"><time>2026-05-06T18:58:17Z</time></trkpt>
<trkpt lat="50.700706" lon="5.902864"><time>2026-05-06T19:08:17Z</time></trkpt>
<trkpt lat="50.700754" lon="5.904617"><time>2026-05-06T19:18:17Z</time></trkpt>
<trkpt lat="50.699505" lon="5.906197"><time>2026-05-06T19:28:17Z</time></trkpt>
<trkpt lat="50.699431" lon="5.910224"><time>2026-05-06T19:38:17Z</time></trkpt>
<trkpt lat="50.699132" lon="5.911140"><time>2026-05-06T19:48:17Z</time></trkpt>
<trkpt lat="50.699016" lon="5.912189"><time>2026-05-06T19:58:17Z</time></trkpt>
</trkseg></trk>
<trk>
<name>lpbhm103</name>
<cmt>v</cmt>
<desc>Hombourg Sentier n°103 </desc>
<link href="https://chemins.be/hombourg/sentier/103"/><trkseg>
<trkpt lat="50.699016" lon="5.912189"><time>2026-05-06T19:58:17Z</time></trkpt>
<trkpt lat="50.699464" lon="5.913269"><time>2026-05-06T20:08:17Z</time></trkpt>
<trkpt lat="50.699328" lon="5.913978"><time>2026-05-06T20:18:17Z</time></trkpt>
<trkpt lat="50.697824" lon="5.915544"><time>2026-05-06T20:28:17Z</time></trkpt>
<trkpt lat="50.697634" lon="5.917668"><time>2026-05-06T20:38:17Z</time></trkpt>
<trkpt lat="50.696877" lon="5.918698"><time>2026-05-06T20:48:17Z</time></trkpt>
<trkpt lat="50.696243" lon="5.920408"><time>2026-05-06T20:58:17Z</time></trkpt>
<trkpt lat="50.695847" lon="5.920744"><time>2026-05-06T21:08:17Z</time></trkpt>
<trkpt lat="50.695836" lon="5.922664"><time>2026-05-06T21:18:17Z</time></trkpt>
<trkpt lat="50.695920" lon="5.922847"><time>2026-05-06T21:28:17Z</time></trkpt>
</trkseg></trk>
<trk>
<name>lpbhm103</name>
<cmt>r</cmt>
<desc>Hombourg Sentier n°103 </desc>
<link href="https://chemins.be/hombourg/sentier/103"/><trkseg>
<trkpt lat="50.695920" lon="5.922847"><time>2026-05-06T21:28:17Z</time></trkpt>
<trkpt lat="50.697172" lon="5.923405"><time>2026-05-06T21:38:17Z</time></trkpt>
<trkpt lat="50.697417" lon="5.923855"><time>2026-05-06T21:48:17Z</time></trkpt>
</trkseg></trk>
<trk>
<name>lpbhm103</name>
<cmt>v</cmt>
<desc>Hombourg Sentier n°103 </desc>
<link href="https://chemins.be/hombourg/sentier/103"/><trkseg>
<trkpt lat="50.697417" lon="5.923855"><time>2026-05-06T21:48:17Z</time></trkpt>
<trkpt lat="50.698250" lon="5.924578"><time>2026-05-06T21:58:17Z</time></trkpt>
<trkpt lat="50.698517" lon="5.925221"><time>2026-05-06T22:08:17Z</time></trkpt>
</trkseg></trk>
<trk>
<name>lpbhm103</name>
<cmt>s</cmt>
<desc>Hombourg Sentier n°103 </desc>
<link href="https://chemins.be/hombourg/sentier/103"/><trkseg>
<trkpt lat="50.698517" lon="5.925221"><time>2026-05-06T22:08:17Z</time></trkpt>
<trkpt lat="50.697684" lon="5.927396"><time>2026-05-06T22:18:17Z</time></trkpt>
<trkpt lat="50.698064" lon="5.928812"><time>2026-05-06T22:28:17Z</time></trkpt>
</trkseg>
</trk>
<trk>
<name>lpbhm104</name>
<cmt>q</cmt>
<desc>Hombourg Sentier n°104 </desc>
<link href="https://chemins.be/hombourg/sentier/104"/><trkseg>
<trkpt lat="50.703709" lon="5.918959"><time>2026-05-06T18:28:17Z</time></trkpt>
<trkpt lat="50.703579" lon="5.919393"><time>2026-05-06T18:38:17Z</time></trkpt>
<trkpt lat="50.703487" lon="5.919412"><time>2026-05-06T18:48:17Z</time></trkpt>
<trkpt lat="50.703192" lon="5.920290"><time>2026-05-06T18:58:17Z</time></trkpt>
<trkpt lat="50.702404" lon="5.920805"><time>2026-05-06T19:08:17Z</time></trkpt>
<trkpt lat="50.702232" lon="5.925169"><time>2026-05-06T19:18:17Z</time></trkpt>
<trkpt lat="50.702219" lon="5.926124"><time>2026-05-06T19:28:17Z</time></trkpt>
</trkseg>
</trk>
<trk>
<name>lpbhm105</name>
<cmt>q</cmt>
<desc>Hombourg Sentier n°105 Gulpen</desc>
<link href="https://chemins.be/hombourg/sentier/105"/><trkseg>
<trkpt lat="50.705833" lon="5.924488"><time>2026-05-06T18:28:17Z</time></trkpt>
<trkpt lat="50.705706" lon="5.923372"><time>2026-05-06T18:38:17Z</time></trkpt>
<trkpt lat="50.705036" lon="5.922772"><time>2026-05-06T18:48:17Z</time></trkpt>
<trkpt lat="50.705063" lon="5.920798"><time>2026-05-06T18:58:17Z</time></trkpt>
<trkpt lat="50.704411" lon="5.920082"><time>2026-05-06T19:08:17Z</time></trkpt>
<trkpt lat="50.704632" lon="5.918293"><time>2026-05-06T19:18:17Z</time></trkpt>
</trkseg></trk>
<trk>
<name>lpbhm105</name>
<cmt>d</cmt>
<desc>Hombourg Sentier n°105 Gulpen</desc>
<link href="https://chemins.be/hombourg/sentier/105"/><trkseg>
<trkpt lat="50.704632" lon="5.918293"><time>2026-05-06T19:18:17Z</time></trkpt>
<trkpt lat="50.704217" lon="5.917492"><time>2026-05-06T19:28:17Z</time></trkpt>
<trkpt lat="50.702556" lon="5.915189"><time>2026-05-06T19:38:17Z</time></trkpt>
<trkpt lat="50.701253" lon="5.913401"><time>2026-05-06T19:48:17Z</time></trkpt>
<trkpt lat="50.700363" lon="5.912414"><time>2026-05-06T19:58:17Z</time></trkpt>
<trkpt lat="50.700194" lon="5.912132"><time>2026-05-06T20:08:17Z</time></trkpt>
</trkseg></trk>
<trk>
<name>lpbhm105</name>
<cmt>v</cmt>
<desc>Hombourg Sentier n°105 Gulpen</desc>
<link href="https://chemins.be/hombourg/sentier/105"/><trkseg>
<trkpt lat="50.700194" lon="5.912132"><time>2026-05-06T20:08:17Z</time></trkpt>
<trkpt lat="50.699917" lon="5.911474"><time>2026-05-06T20:18:17Z</time></trkpt>
<trkpt lat="50.699034" lon="5.912211"><time>2026-05-06T20:28:17Z</time></trkpt>
<trkpt lat="50.698128" lon="5.910509"><time>2026-05-06T20:38:17Z</time></trkpt>
<trkpt lat="50.698289" lon="5.909923"><time>2026-05-06T20:48:17Z</time></trkpt>
</trkseg></trk>
<trk>
<name>lpbhm105</name>
<cmt>d</cmt>
<desc>Hombourg Sentier n°105 Gulpen</desc>
<link href="https://chemins.be/hombourg/sentier/105"/><trkseg>
<trkpt lat="50.698289" lon="5.909923"><time>2026-05-06T20:48:17Z</time></trkpt>
<trkpt lat="50.698180" lon="5.908396"><time>2026-05-06T20:58:17Z</time></trkpt>
<trkpt lat="50.698711" lon="5.907585"><time>2026-05-06T21:08:17Z</time></trkpt>
<trkpt lat="50.698860" lon="5.907034"><time>2026-05-06T21:18:17Z</time></trkpt>
<trkpt lat="50.699535" lon="5.906205"><time>2026-05-06T21:28:17Z</time></trkpt>
</trkseg>
</trk>
<trk>
<name>lpbhm106</name>
<cmt>d</cmt>
<desc>Hombourg Sentier n°106 </desc>
<link href="https://chemins.be/hombourg/sentier/106"/><trkseg>
<trkpt lat="50.707833" lon="5.907423"><time>2026-05-06T18:28:17Z</time></trkpt>
<trkpt lat="50.706046" lon="5.910333"><time>2026-05-06T18:38:17Z</time></trkpt>
<trkpt lat="50.704995" lon="5.912551"><time>2026-05-06T18:48:17Z</time></trkpt>
<trkpt lat="50.704458" lon="5.914179"><time>2026-05-06T18:58:17Z</time></trkpt>
<trkpt lat="50.703649" lon="5.916633"><time>2026-05-06T19:08:17Z</time></trkpt>
<trkpt lat="50.703119" lon="5.917277"><time>2026-05-06T19:18:17Z</time></trkpt>
</trkseg>
</trk>
<trk>
<name>lpbhm107</name>
<cmt>s</cmt>
<desc>Hombourg Sentier n°107 </desc>
<link href="https://chemins.be/hombourg/sentier/107"/><trkseg>
<trkpt lat="50.723385" lon="5.920058"><time>2026-05-06T18:28:17Z</time></trkpt>
<trkpt lat="50.723345" lon="5.920337"><time>2026-05-06T18:38:17Z</time></trkpt>
<trkpt lat="50.723362" lon="5.921273"><time>2026-05-06T18:48:17Z</time></trkpt>
</trkseg></trk>
<trk>
<name>lpbhm107</name>
<cmt>d</cmt>
<desc>Hombourg Sentier n°107 </desc>
<link href="https://chemins.be/hombourg/sentier/107"/><trkseg>
<trkpt lat="50.723362" lon="5.921273"><time>2026-05-06T18:48:17Z</time></trkpt>
<trkpt lat="50.723377" lon="5.922285"><time>2026-05-06T18:58:17Z</time></trkpt>
<trkpt lat="50.723111" lon="5.924910"><time>2026-05-06T19:08:17Z</time></trkpt>
<trkpt lat="50.722486" lon="5.927299"><time>2026-05-06T19:18:17Z</time></trkpt>
<trkpt lat="50.720204" lon="5.931205"><time>2026-05-06T19:28:17Z</time></trkpt>
<trkpt lat="50.719629" lon="5.932503"><time>2026-05-06T19:38:17Z</time></trkpt>
<trkpt lat="50.719245" lon="5.933878"><time>2026-05-06T19:48:17Z</time></trkpt>
</trkseg>
</trk>
<trk>
<name>lpbhm108</name>
<cmt>d</cmt>
<desc>Hombourg Sentier n°108 </desc>
<link href="https://chemins.be/hombourg/sentier/108"/><trkseg>
<trkpt lat="50.723399" lon="5.922419"><time>2026-05-06T18:28:17Z</time></trkpt>
<trkpt lat="50.723627" lon="5.923136"><time>2026-05-06T18:38:17Z</time></trkpt>
<trkpt lat="50.723609" lon="5.923264"><time>2026-05-06T18:48:17Z</time></trkpt>
<trkpt lat="50.724061" lon="5.924587"><time>2026-05-06T18:58:17Z</time></trkpt>
<trkpt lat="50.724699" lon="5.925624"><time>2026-05-06T19:08:17Z</time></trkpt>
</trkseg>
</trk>
<trk>
<name>lpbhm109</name>
<cmt>d</cmt>
<desc>Hombourg Sentier n°109 </desc>
<link href="https://chemins.be/hombourg/sentier/109"/><trkseg>
<trkpt lat="50.717324" lon="5.921724"><time>2026-05-06T18:28:17Z</time></trkpt>
<trkpt lat="50.717691" lon="5.921903"><time>2026-05-06T18:38:17Z</time></trkpt>
<trkpt lat="50.717356" lon="5.923018"><time>2026-05-06T18:48:17Z</time></trkpt>
<trkpt lat="50.717736" lon="5.924814"><time>2026-05-06T18:58:17Z</time></trkpt>
<trkpt lat="50.717763" lon="5.925651"><time>2026-05-06T19:08:17Z</time></trkpt>
</trkseg></trk>
<trk>
<name>lpbhm109</name>
<cmt>v</cmt>
<desc>Hombourg Sentier n°109 </desc>
<link href="https://chemins.be/hombourg/sentier/109"/><trkseg>
<trkpt lat="50.717763" lon="5.925651"><time>2026-05-06T19:08:17Z</time></trkpt>
<trkpt lat="50.718147" lon="5.927383"><time>2026-05-06T19:18:17Z</time></trkpt>
<trkpt lat="50.718192" lon="5.928041"><time>2026-05-06T19:28:17Z</time></trkpt>
<trkpt lat="50.718541" lon="5.929264"><time>2026-05-06T19:38:17Z</time></trkpt>
<trkpt lat="50.720212" lon="5.931138"><time>2026-05-06T19:48:17Z</time></trkpt>
<trkpt lat="50.721475" lon="5.931825"><time>2026-05-06T19:58:17Z</time></trkpt>
</trkseg></trk>
<trk>
<name>lpbhm109</name>
<cmt>d</cmt>
<desc>Hombourg Sentier n°109 </desc>
<link href="https://chemins.be/hombourg/sentier/109"/><trkseg>
<trkpt lat="50.721475" lon="5.931825"><time>2026-05-06T19:58:17Z</time></trkpt>
<trkpt lat="50.722390" lon="5.932969"><time>2026-05-06T20:08:17Z</time></trkpt>
<trkpt lat="50.722679" lon="5.934128"><time>2026-05-06T20:18:17Z</time></trkpt>
</trkseg>
</trk>
<trk>
<name>lpbhm11</name>
<cmt>s</cmt>
<desc>Hombourg Chemin n°11 </desc>
<link href="https://chemins.be/hombourg/chemin/11"/><trkseg>
<trkpt lat="50.696491" lon="5.919494"><time>2026-05-06T18:28:17Z</time></trkpt>
<trkpt lat="50.694648" lon="5.915068"><time>2026-05-06T18:38:17Z</time></trkpt>
<trkpt lat="50.693890" lon="5.913677"><time>2026-05-06T18:48:17Z</time></trkpt>
<trkpt lat="50.692926" lon="5.911907"><time>2026-05-06T18:58:17Z</time></trkpt>
<trkpt lat="50.692727" lon="5.910548"><time>2026-05-06T19:08:17Z</time></trkpt>
<trkpt lat="50.693223" lon="5.909977"><time>2026-05-06T19:18:17Z</time></trkpt>
<trkpt lat="50.693405" lon="5.908129"><time>2026-05-06T19:28:17Z</time></trkpt>
<trkpt lat="50.694022" lon="5.907197"><time>2026-05-06T19:38:17Z</time></trkpt>
</trkseg></trk>
<trk>
<name>lpbhm11</name>
<cmt>q</cmt>
<desc>Hombourg Chemin n°11 </desc>
<link href="https://chemins.be/hombourg/chemin/11"/><trkseg>
<trkpt lat="50.694022" lon="5.907197"><time>2026-05-06T19:38:17Z</time></trkpt>
<trkpt lat="50.694484" lon="5.906491"><time>2026-05-06T19:48:17Z</time></trkpt>
<trkpt lat="50.695872" lon="5.905002"><time>2026-05-06T19:58:17Z</time></trkpt>
</trkseg>
</trk>
<trk>
<name>lpbhm110</name>
<cmt>d</cmt>
<desc>Hombourg Sentier n°110 </desc>
<link href="https://chemins.be/hombourg/sentier/110"/><trkseg>
<trkpt lat="50.722473" lon="5.927322"><time>2026-05-06T18:28:17Z</time></trkpt>
<trkpt lat="50.722844" lon="5.932379"><time>2026-05-06T18:38:17Z</time></trkpt>
<trkpt lat="50.722694" lon="5.934654"><time>2026-05-06T18:48:17Z</time></trkpt>
</trkseg></trk>
<trk>
<name>lpbhm110</name>
<cmt>v</cmt>
<desc>Hombourg Sentier n°110 </desc>
<link href="https://chemins.be/hombourg/sentier/110"/><trkseg>
<trkpt lat="50.722694" lon="5.934654"><time>2026-05-06T18:48:17Z</time></trkpt>
<trkpt lat="50.722580" lon="5.937075"><time>2026-05-06T18:58:17Z</time></trkpt>
</trkseg></trk>
<trk>
<name>lpbhm110</name>
<cmt>d</cmt>
<desc>Hombourg Sentier n°110 </desc>
<link href="https://chemins.be/hombourg/sentier/110"/><trkseg>
<trkpt lat="50.722580" lon="5.937075"><time>2026-05-06T18:58:17Z</time></trkpt>
<trkpt lat="50.722448" lon="5.938204"><time>2026-05-06T19:08:17Z</time></trkpt>
<trkpt lat="50.722321" lon="5.938490"><time>2026-05-06T19:18:17Z</time></trkpt>
</trkseg>
</trk>
<trk>
<name>lpbhm111</name>
<cmt>v</cmt>
<desc>Hombourg Sentier n°111 </desc>
<link href="https://chemins.be/hombourg/sentier/111"/><trkseg>
<trkpt lat="50.721465" lon="5.931842"><time>2026-05-06T18:28:17Z</time></trkpt>
<trkpt lat="50.721608" lon="5.931524"><time>2026-05-06T18:38:17Z</time></trkpt>
</trkseg></trk>
<trk>
<name>lpbhm111</name>
<cmt>d</cmt>
<desc>Hombourg Sentier n°111 </desc>
<link href="https://chemins.be/hombourg/sentier/111"/><trkseg>
<trkpt lat="50.721608" lon="5.931524"><time>2026-05-06T18:38:17Z</time></trkpt>
<trkpt lat="50.721934" lon="5.931084"><time>2026-05-06T18:48:17Z</time></trkpt>
<trkpt lat="50.722443" lon="5.930787"><time>2026-05-06T18:58:17Z</time></trkpt>
<trkpt lat="50.723292" lon="5.930906"><time>2026-05-06T19:08:17Z</time></trkpt>
<trkpt lat="50.723727" lon="5.931085"><time>2026-05-06T19:18:17Z</time></trkpt>
<trkpt lat="50.724669" lon="5.932079"><time>2026-05-06T19:28:17Z</time></trkpt>
</trkseg>
</trk>
<trk>
<name>lpbhm112</name>
<cmt>d</cmt>
<desc>Hombourg Sentier n°112 </desc>
<link href="https://chemins.be/hombourg/sentier/112"/><trkseg>
<trkpt lat="50.722200" lon="5.930943"><time>2026-05-06T18:28:17Z</time></trkpt>
<trkpt lat="50.722613" lon="5.930098"><time>2026-05-06T18:38:17Z</time></trkpt>
<trkpt lat="50.722668" lon="5.929533"><time>2026-05-06T18:48:17Z</time></trkpt>
<trkpt lat="50.723157" lon="5.928588"><time>2026-05-06T18:58:17Z</time></trkpt>
<trkpt lat="50.723904" lon="5.928410"><time>2026-05-06T19:08:17Z</time></trkpt>
<trkpt lat="50.724759" lon="5.925742"><time>2026-05-06T19:18:17Z</time></trkpt>
</trkseg>
</trk>
<trk>
<name>lpbhm113</name>
<cmt>q</cmt>
<desc>Hombourg Sentier n°113 </desc>
<link href="https://chemins.be/hombourg/sentier/113"/><trkseg>
<trkpt lat="50.723354" lon="5.930946"><time>2026-05-06T18:28:17Z</time></trkpt>
<trkpt lat="50.722664" lon="5.929777"><time>2026-05-06T18:38:17Z</time></trkpt>
</trkseg>
</trk>
<trk>
<name>lpbhm114</name>
<cmt>d</cmt>
<desc>Hombourg Sentier n°114 </desc>
<link href="https://chemins.be/hombourg/sentier/114"/><trkseg>
<trkpt lat="50.720512" lon="5.922092"><time>2026-05-06T18:28:17Z</time></trkpt>
<trkpt lat="50.719128" lon="5.924030"><time>2026-05-06T18:38:17Z</time></trkpt>
<trkpt lat="50.719165" lon="5.924301"><time>2026-05-06T18:48:17Z</time></trkpt>
<trkpt lat="50.717789" lon="5.926360"><time>2026-05-06T18:58:17Z</time></trkpt>
<trkpt lat="50.716237" lon="5.927475"><time>2026-05-06T19:08:17Z</time></trkpt>
<trkpt lat="50.716112" lon="5.927627"><time>2026-05-06T19:18:17Z</time></trkpt>
<trkpt lat="50.715856" lon="5.927363"><time>2026-05-06T19:28:17Z</time></trkpt>
<trkpt lat="50.715777" lon="5.927484"><time>2026-05-06T19:38:17Z</time></trkpt>
<trkpt lat="50.715144" lon="5.927533"><time>2026-05-06T19:48:17Z</time></trkpt>
<trkpt lat="50.713636" lon="5.927526"><time>2026-05-06T19:58:17Z</time></trkpt>
<trkpt lat="50.713378" lon="5.927841"><time>2026-05-06T20:08:17Z</time></trkpt>
<trkpt lat="50.712490" lon="5.927784"><time>2026-05-06T20:18:17Z</time></trkpt>
</trkseg>
</trk>
<trk>
<name>lpbhm115</name>
<cmt>v</cmt>
<desc>Hombourg Sentier n°115 </desc>
<link href="https://chemins.be/hombourg/sentier/115"/><trkseg>
<trkpt lat="50.724107" lon="5.933552"><time>2026-05-06T18:28:17Z</time></trkpt>
<trkpt lat="50.723886" lon="5.934303"><time>2026-05-06T18:38:17Z</time></trkpt>
</trkseg></trk>
<trk>
<name>lpbhm115</name>
<cmt>d</cmt>
<desc>Hombourg Sentier n°115 </desc>
<link href="https://chemins.be/hombourg/sentier/115"/><trkseg>
<trkpt lat="50.723886" lon="5.934303"><time>2026-05-06T18:38:17Z</time></trkpt>
<trkpt lat="50.723408" lon="5.934990"><time>2026-05-06T18:48:17Z</time></trkpt>
<trkpt lat="50.722697" lon="5.934618"><time>2026-05-06T18:58:17Z</time></trkpt>
</trkseg></trk>
<trk>
<name>lpbhm115</name>
<cmt>v</cmt>
<desc>Hombourg Sentier n°115 </desc>
<link href="https://chemins.be/hombourg/sentier/115"/><trkseg>
<trkpt lat="50.722697" lon="5.934618"><time>2026-05-06T18:58:17Z</time></trkpt>
<trkpt lat="50.721954" lon="5.934210"><time>2026-05-06T19:08:17Z</time></trkpt>
<trkpt lat="50.721676" lon="5.934125"><time>2026-05-06T19:18:17Z</time></trkpt>
<trkpt lat="50.719197" lon="5.932265"><time>2026-05-06T19:28:17Z</time></trkpt>
<trkpt lat="50.717005" lon="5.931507"><time>2026-05-06T19:38:17Z</time></trkpt>
<trkpt lat="50.715804" lon="5.930165"><time>2026-05-06T19:48:17Z</time></trkpt>
</trkseg></trk>
<trk>
<name>lpbhm115</name>
<cmt>d</cmt>
<desc>Hombourg Sentier n°115 </desc>
<link href="https://chemins.be/hombourg/sentier/115"/><trkseg>
<trkpt lat="50.715804" lon="5.930165"><time>2026-05-06T19:48:17Z</time></trkpt>
<trkpt lat="50.715571" lon="5.929905"><time>2026-05-06T19:58:17Z</time></trkpt>
<trkpt lat="50.714994" lon="5.929802"><time>2026-05-06T20:08:17Z</time></trkpt>
<trkpt lat="50.713846" lon="5.929201"><time>2026-05-06T20:18:17Z</time></trkpt>
<trkpt lat="50.712947" lon="5.927466"><time>2026-05-06T20:28:17Z</time></trkpt>
</trkseg></trk>
<trk>
<name>lpbhm115</name>
<cmt>v</cmt>
<desc>Hombourg Sentier n°115 </desc>
<link href="https://chemins.be/hombourg/sentier/115"/><trkseg>
<trkpt lat="50.712947" lon="5.927466"><time>2026-05-06T20:28:17Z</time></trkpt>
<trkpt lat="50.712508" lon="5.927802"><time>2026-05-06T20:38:17Z</time></trkpt>
</trkseg></trk>
<trk>
<name>lpbhm115</name>
<cmt>d</cmt>
<desc>Hombourg Sentier n°115 </desc>
<link href="https://chemins.be/hombourg/sentier/115"/><trkseg>
<trkpt lat="50.712508" lon="5.927802"><time>2026-05-06T20:38:17Z</time></trkpt>
<trkpt lat="50.710533" lon="5.925220"><time>2026-05-06T20:48:17Z</time></trkpt>
<trkpt lat="50.709604" lon="5.924247"><time>2026-05-06T20:58:17Z</time></trkpt>
<trkpt lat="50.707899" lon="5.924293"><time>2026-05-06T21:08:17Z</time></trkpt>
</trkseg>
</trk>
<trk>
<name>lpbhm116</name>
<cmt>d</cmt>
<desc>Hombourg Sentier n°116 </desc>
<link href="https://chemins.be/hombourg/sentier/116"/><trkseg>
<trkpt lat="50.715571" lon="5.927525"><time>2026-05-06T18:28:17Z</time></trkpt>
<trkpt lat="50.715965" lon="5.927985"><time>2026-05-06T18:38:17Z</time></trkpt>
<trkpt lat="50.716035" lon="5.927820"><time>2026-05-06T18:48:17Z</time></trkpt>
</trkseg></trk>
<trk>
<name>lpbhm116</name>
<cmt>s</cmt>
<desc>Hombourg Sentier n°116 </desc>
<link href="https://chemins.be/hombourg/sentier/116"/><trkseg>
<trkpt lat="50.716035" lon="5.927820"><time>2026-05-06T18:48:17Z</time></trkpt>
<trkpt lat="50.716342" lon="5.927968"><time>2026-05-06T18:58:17Z</time></trkpt>
<trkpt lat="50.718439" lon="5.929577"><time>2026-05-06T19:08:17Z</time></trkpt>
<trkpt lat="50.719145" lon="5.930035"><time>2026-05-06T19:18:17Z</time></trkpt>
</trkseg>
</trk>
<trk>
<name>lpbhm117</name>
<cmt>s</cmt>
<desc>Hombourg Sentier n°117 </desc>
<link href="https://chemins.be/hombourg/sentier/117"/><trkseg>
<trkpt lat="50.731027" lon="5.865512"><time>2026-05-06T18:28:17Z</time></trkpt>
<trkpt lat="50.731317" lon="5.866456"><time>2026-05-06T18:38:17Z</time></trkpt>
<trkpt lat="50.732865" lon="5.867193"><time>2026-05-06T18:48:17Z</time></trkpt>
<trkpt lat="50.735106" lon="5.868151"><time>2026-05-06T18:58:17Z</time></trkpt>
<trkpt lat="50.736709" lon="5.868273"><time>2026-05-06T19:08:17Z</time></trkpt>
</trkseg>
</trk>
<trk>
<name>lpbhm118</name>
<cmt>s</cmt>
<desc>Hombourg Sentier n°118 </desc>
<link href="https://chemins.be/hombourg/sentier/118"/><trkseg>
<trkpt lat="50.728388" lon="5.875897"><time>2026-05-06T18:28:17Z</time></trkpt>
<trkpt lat="50.730090" lon="5.873594"><time>2026-05-06T18:38:17Z</time></trkpt>
<trkpt lat="50.731308" lon="5.872121"><time>2026-05-06T18:48:17Z</time></trkpt>
</trkseg></trk>
<trk>
<name>lpbhm118</name>
<cmt>r</cmt>
<desc>Hombourg Sentier n°118 </desc>
<link href="https://chemins.be/hombourg/sentier/118"/><trkseg>
<trkpt lat="50.731308" lon="5.872121"><time>2026-05-06T18:48:17Z</time></trkpt>
<trkpt lat="50.731217" lon="5.871713"><time>2026-05-06T18:58:17Z</time></trkpt>
</trkseg></trk>
<trk>
<name>lpbhm118</name>
<cmt>s</cmt>
<desc>Hombourg Sentier n°118 </desc>
<link href="https://chemins.be/hombourg/sentier/118"/><trkseg>
<trkpt lat="50.731217" lon="5.871713"><time>2026-05-06T18:58:17Z</time></trkpt>
<trkpt lat="50.732132" lon="5.870640"><time>2026-05-06T19:08:17Z</time></trkpt>
<trkpt lat="50.732182" lon="5.869210"><time>2026-05-06T19:18:17Z</time></trkpt>
<trkpt lat="50.732879" lon="5.867372"><time>2026-05-06T19:28:17Z</time></trkpt>
<trkpt lat="50.732209" lon="5.865247"><time>2026-05-06T19:38:17Z</time></trkpt>
</trkseg>
</trk>
<trk>
<name>lpbhm12</name>
<cmt>v</cmt>
<desc>Hombourg Chemin n°12 Kriemerweg / chemin des Colporteurs</desc>
<link href="https://chemins.be/hombourg/chemin/12"/><trkseg>
<trkpt lat="50.688685" lon="5.924304"><time>2026-05-06T18:28:17Z</time></trkpt>
<trkpt lat="50.688694" lon="5.922795"><time>2026-05-06T18:38:17Z</time></trkpt>
<trkpt lat="50.688454" lon="5.922065"><time>2026-05-06T18:48:17Z</time></trkpt>
<trkpt lat="50.688540" lon="5.921050"><time>2026-05-06T18:58:17Z</time></trkpt>
<trkpt lat="50.687870" lon="5.919297"><time>2026-05-06T19:08:17Z</time></trkpt>
<trkpt lat="50.688432" lon="5.917459"><time>2026-05-06T19:18:17Z</time></trkpt>
<trkpt lat="50.688776" lon="5.914770"><time>2026-05-06T19:28:17Z</time></trkpt>
<trkpt lat="50.688762" lon="5.913640"><time>2026-05-06T19:38:17Z</time></trkpt>
<trkpt lat="50.689132" lon="5.913330"><time>2026-05-06T19:48:17Z</time></trkpt>
<trkpt lat="50.689015" lon="5.911528"><time>2026-05-06T19:58:17Z</time></trkpt>
<trkpt lat="50.688255" lon="5.909327"><time>2026-05-06T20:08:17Z</time></trkpt>
</trkseg>
</trk>
<trk>
<name>lpbhm120</name>
<cmt>r</cmt>
<desc>Hombourg Sentier n°120 </desc>
<link href="https://chemins.be/hombourg/sentier/120"/><trkseg>
<trkpt lat="50.731078" lon="5.877574"><time>2026-05-06T18:28:17Z</time></trkpt>
<trkpt lat="50.731336" lon="5.877358"><time>2026-05-06T18:38:17Z</time></trkpt>
</trkseg></trk>
<trk>
<name>lpbhm120</name>
<cmt>d</cmt>
<desc>Hombourg Sentier n°120 </desc>
<link href="https://chemins.be/hombourg/sentier/120"/><trkseg>
<trkpt lat="50.731336" lon="5.877358"><time>2026-05-06T18:38:17Z</time></trkpt>
<trkpt lat="50.732296" lon="5.876654"><time>2026-05-06T18:48:17Z</time></trkpt>
<trkpt lat="50.732723" lon="5.873612"><time>2026-05-06T18:58:17Z</time></trkpt>
<trkpt lat="50.733604" lon="5.871419"><time>2026-05-06T19:08:17Z</time></trkpt>
</trkseg>
</trk>
<trk>
<name>lpbhm121</name>
<cmt>s</cmt>
<desc>Hombourg Sentier n°121 </desc>
<link href="https://chemins.be/hombourg/sentier/121"/><trkseg>
<trkpt lat="50.733689" lon="5.877299"><time>2026-05-06T18:28:17Z</time></trkpt>
<trkpt lat="50.732920" lon="5.876548"><time>2026-05-06T18:38:17Z</time></trkpt>
<trkpt lat="50.732530" lon="5.875876"><time>2026-05-06T18:48:17Z</time></trkpt>
<trkpt lat="50.731801" lon="5.873973"><time>2026-05-06T18:58:17Z</time></trkpt>
<trkpt lat="50.732598" lon="5.873373"><time>2026-05-06T19:08:17Z</time></trkpt>
<trkpt lat="50.732684" lon="5.873430"><time>2026-05-06T19:18:17Z</time></trkpt>
</trkseg>
</trk>
<trk>
<name>lpbhm122</name>
<cmt>s</cmt>
<desc>Hombourg Sentier n°122 </desc>
<link href="https://chemins.be/hombourg/sentier/122"/><trkseg>
<trkpt lat="50.732293" lon="5.876658"><time>2026-05-06T18:28:17Z</time></trkpt>
<trkpt lat="50.732243" lon="5.878400"><time>2026-05-06T18:38:17Z</time></trkpt>
</trkseg>
</trk>
<trk>
<name>lpbhm123</name>
<cmt>s</cmt>
<desc>Hombourg Sentier n°123 </desc>
<link href="https://chemins.be/hombourg/sentier/123"/><trkseg>
<trkpt lat="50.731319" lon="5.877364"><time>2026-05-06T18:28:17Z</time></trkpt>
<trkpt lat="50.732228" lon="5.878379"><time>2026-05-06T18:38:17Z</time></trkpt>
</trkseg>
</trk>
<trk>
<name>lpbhm124</name>
<cmt>s</cmt>
<desc>Hombourg Sentier n°124 </desc>
<link href="https://chemins.be/hombourg/sentier/124"/><trkseg>
<trkpt lat="50.730780" lon="5.877800"><time>2026-05-06T18:28:17Z</time></trkpt>
<trkpt lat="50.730303" lon="5.875980"><time>2026-05-06T18:38:17Z</time></trkpt>
</trkseg>
</trk>
<trk>
<name>lpbhm126</name>
<cmt>v</cmt>
<desc>Hombourg Sentier n°126 </desc>
<link href="https://chemins.be/hombourg/sentier/126"/><trkseg>
<trkpt lat="50.728019" lon="5.866530"><time>2026-05-06T18:28:17Z</time></trkpt>
<trkpt lat="50.727800" lon="5.866162"><time>2026-05-06T18:38:17Z</time></trkpt>
<trkpt lat="50.726998" lon="5.865074"><time>2026-05-06T18:48:17Z</time></trkpt>
</trkseg></trk>
<trk>
<name>lpbhm126</name>
<cmt>q</cmt>
<desc>Hombourg Sentier n°126 </desc>
<link href="https://chemins.be/hombourg/sentier/126"/><trkseg>
<trkpt lat="50.726998" lon="5.865074"><time>2026-05-06T18:48:17Z</time></trkpt>
<trkpt lat="50.725572" lon="5.863486"><time>2026-05-06T18:58:17Z</time></trkpt>
<trkpt lat="50.724037" lon="5.862649"><time>2026-05-06T19:08:17Z</time></trkpt>
<trkpt lat="50.722072" lon="5.859817"><time>2026-05-06T19:18:17Z</time></trkpt>
</trkseg>
</trk>
<trk>
<name>lpbhm127</name>
<cmt>s</cmt>
<desc>Hombourg Sentier n°127 Kultjen</desc>
<link href="https://chemins.be/hombourg/sentier/127"/><trkseg>
<trkpt lat="50.728896" lon="5.871645"><time>2026-05-06T18:28:17Z</time></trkpt>
<trkpt lat="50.728244" lon="5.871817"><time>2026-05-06T18:38:17Z</time></trkpt>
<trkpt lat="50.725999" lon="5.870916"><time>2026-05-06T18:48:17Z</time></trkpt>
</trkseg></trk>
<trk>
<name>lpbhm127</name>
<cmt>r</cmt>
<desc>Hombourg Sentier n°127 Kultjen</desc>
<link href="https://chemins.be/hombourg/sentier/127"/><trkseg>
<trkpt lat="50.725999" lon="5.870916"><time>2026-05-06T18:48:17Z</time></trkpt>
<trkpt lat="50.723603" lon="5.867613"><time>2026-05-06T18:58:17Z</time></trkpt>
</trkseg></trk>
<trk>
<name>lpbhm127</name>
<cmt>s</cmt>
<desc>Hombourg Sentier n°127 Kultjen</desc>
<link href="https://chemins.be/hombourg/sentier/127"/><trkseg>
<trkpt lat="50.723603" lon="5.867613"><time>2026-05-06T18:58:17Z</time></trkpt>
<trkpt lat="50.721737" lon="5.866747"><time>2026-05-06T19:08:17Z</time></trkpt>
<trkpt lat="50.719631" lon="5.865818"><time>2026-05-06T19:18:17Z</time></trkpt>
<trkpt lat="50.718310" lon="5.864865"><time>2026-05-06T19:28:17Z</time></trkpt>
</trkseg>
</trk>
<trk>
<name>lpbhm128</name>
<cmt>s</cmt>
<desc>Hombourg Sentier n°128 </desc>
<link href="https://chemins.be/hombourg/sentier/128"/><trkseg>
<trkpt lat="50.723046" lon="5.866590"><time>2026-05-06T18:28:17Z</time></trkpt>
<trkpt lat="50.721728" lon="5.866769"><time>2026-05-06T18:38:17Z</time></trkpt>
</trkseg>
</trk>
<trk>
<name>lpbhm129</name>
<cmt>d</cmt>
<desc>Hombourg Sentier n°129 </desc>
<link href="https://chemins.be/hombourg/sentier/129"/><trkseg>
<trkpt lat="50.706546" lon="5.892144"><time>2026-05-06T18:28:17Z</time></trkpt>
<trkpt lat="50.710109" lon="5.891746"><time>2026-05-06T18:38:17Z</time></trkpt>
<trkpt lat="50.714473" lon="5.891257"><time>2026-05-06T18:48:17Z</time></trkpt>
<trkpt lat="50.716654" lon="5.889076"><time>2026-05-06T18:58:17Z</time></trkpt>
<trkpt lat="50.717646" lon="5.888856"><time>2026-05-06T19:08:17Z</time></trkpt>
<trkpt lat="50.719446" lon="5.888640"><time>2026-05-06T19:18:17Z</time></trkpt>
<trkpt lat="50.720634" lon="5.888822"><time>2026-05-06T19:28:17Z</time></trkpt>
<trkpt lat="50.721286" lon="5.889659"><time>2026-05-06T19:38:17Z</time></trkpt>
</trkseg>
</trk>
<trk>
<name>lpbhm13</name>
<cmt>r</cmt>
<desc>Hombourg Chemin n°13 </desc>
<link href="https://chemins.be/hombourg/chemin/13"/><trkseg>
<trkpt lat="50.709637" lon="5.884334"><time>2026-05-06T18:28:17Z</time></trkpt>
<trkpt lat="50.709084" lon="5.887767"><time>2026-05-06T18:38:17Z</time></trkpt>
<trkpt lat="50.707236" lon="5.891072"><time>2026-05-06T18:48:17Z</time></trkpt>
<trkpt lat="50.702824" lon="5.895263"><time>2026-05-06T18:58:17Z</time></trkpt>
<trkpt lat="50.698896" lon="5.897094"><time>2026-05-06T19:08:17Z</time></trkpt>
<trkpt lat="50.695367" lon="5.899698"><time>2026-05-06T19:18:17Z</time></trkpt>
<trkpt lat="50.692558" lon="5.904146"><time>2026-05-06T19:28:17Z</time></trkpt>
<trkpt lat="50.688244" lon="5.909339"><time>2026-05-06T19:38:17Z</time></trkpt>
<trkpt lat="50.684021" lon="5.913845"><time>2026-05-06T19:48:17Z</time></trkpt>
<trkpt lat="50.682616" lon="5.915061"><time>2026-05-06T19:58:17Z</time></trkpt>
</trkseg>
</trk>
<trk>
<name>lpbhm130</name>
<cmt>d</cmt>
<desc>Hombourg Sentier n°130 </desc>
<link href="https://chemins.be/hombourg/sentier/130"/><trkseg>
<trkpt lat="50.706304" lon="5.892146"><time>2026-05-06T18:28:17Z</time></trkpt>
<trkpt lat="50.707953" lon="5.893384"><time>2026-05-06T18:38:17Z</time></trkpt>
<trkpt lat="50.708805" lon="5.894561"><time>2026-05-06T18:48:17Z</time></trkpt>
<trkpt lat="50.709635" lon="5.895017"><time>2026-05-06T18:58:17Z</time></trkpt>
<trkpt lat="50.710132" lon="5.895291"><time>2026-05-06T19:08:17Z</time></trkpt>
<trkpt lat="50.710318" lon="5.895802"><time>2026-05-06T19:18:17Z</time></trkpt>
</trkseg>
</trk>
<trk>
<name>lpbhm131</name>
<cmt>d</cmt>
<desc>Hombourg Sentier n°131 </desc>
<link href="https://chemins.be/hombourg/sentier/131"/><trkseg>
<trkpt lat="50.720129" lon="5.888743"><time>2026-05-06T18:28:17Z</time></trkpt>
<trkpt lat="50.722286" lon="5.886179"><time>2026-05-06T18:38:17Z</time></trkpt>
<trkpt lat="50.723165" lon="5.884495"><time>2026-05-06T18:48:17Z</time></trkpt>
<trkpt lat="50.723999" lon="5.883644"><time>2026-05-06T18:58:17Z</time></trkpt>
<trkpt lat="50.725730" lon="5.881877"><time>2026-05-06T19:08:17Z</time></trkpt>
</trkseg>
</trk>
<trk>
<name>lpbhm132</name>
<cmt>v</cmt>
<desc>Hombourg Sentier n°132 </desc>
<link href="https://chemins.be/hombourg/sentier/132"/><trkseg>
<trkpt lat="50.720306" lon="5.901193"><time>2026-05-06T18:28:17Z</time></trkpt>
<trkpt lat="50.720385" lon="5.899570"><time>2026-05-06T18:38:17Z</time></trkpt>
</trkseg>
</trk>
<trk>
<name>lpbhm133</name>
<cmt>v</cmt>
<desc>Hombourg Sentier n°133 </desc>
<link href="https://chemins.be/hombourg/sentier/133"/><trkseg>
<trkpt lat="50.724317" lon="5.910968"><time>2026-05-06T18:28:17Z</time></trkpt>
<trkpt lat="50.724579" lon="5.911006"><time>2026-05-06T18:38:17Z</time></trkpt>
<trkpt lat="50.724629" lon="5.911462"><time>2026-05-06T18:48:17Z</time></trkpt>
<trkpt lat="50.724887" lon="5.911562"><time>2026-05-06T18:58:17Z</time></trkpt>
<trkpt lat="50.724969" lon="5.911782"><time>2026-05-06T19:08:17Z</time></trkpt>
<trkpt lat="50.725067" lon="5.911623"><time>2026-05-06T19:18:17Z</time></trkpt>
<trkpt lat="50.725090" lon="5.911472"><time>2026-05-06T19:28:17Z</time></trkpt>
</trkseg>
</trk>
<trk>
<name>lpbhm134</name>
<cmt>s</cmt>
<desc>Hombourg Sentier n°134 </desc>
<link href="https://chemins.be/hombourg/sentier/134"/><trkseg>
<trkpt lat="50.699179" lon="5.914168"><time>2026-05-06T18:28:17Z</time></trkpt>
<trkpt lat="50.699931" lon="5.916527"><time>2026-05-06T18:38:17Z</time></trkpt>
<trkpt lat="50.700121" lon="5.919045"><time>2026-05-06T18:48:17Z</time></trkpt>
</trkseg>
</trk>
<trk>
<name>lpbhm135</name>
<cmt>d</cmt>
<desc>Hombourg Sentier n°135 </desc>
<link href="https://chemins.be/hombourg/sentier/135"/><trkseg>
<trkpt lat="50.700264" lon="5.912094"><time>2026-05-06T18:28:17Z</time></trkpt>
<trkpt lat="50.699915" lon="5.912974"><time>2026-05-06T18:38:17Z</time></trkpt>
<trkpt lat="50.699462" lon="5.913260"><time>2026-05-06T18:48:17Z</time></trkpt>
</trkseg>
</trk>
<trk>
<name>lpbhm136</name>
<cmt>d</cmt>
<desc>Hombourg Sentier n°136 </desc>
<link href="https://chemins.be/hombourg/sentier/136"/><trkseg>
<trkpt lat="50.694357" lon="5.926226"><time>2026-05-06T18:28:17Z</time></trkpt>
<trkpt lat="50.694511" lon="5.926577"><time>2026-05-06T18:38:17Z</time></trkpt>
<trkpt lat="50.694602" lon="5.927085"><time>2026-05-06T18:48:17Z</time></trkpt>
<trkpt lat="50.694570" lon="5.927646"><time>2026-05-06T18:58:17Z</time></trkpt>
</trkseg>
</trk>
<trk>
<name>lpbhm137</name>
<cmt>s</cmt>
<desc>Hombourg Sentier n°137 </desc>
<link href="https://chemins.be/hombourg/sentier/137"/><trkseg>
<trkpt lat="50.692483" lon="5.919600"><time>2026-05-06T18:28:17Z</time></trkpt>
<trkpt lat="50.692505" lon="5.918906"><time>2026-05-06T18:38:17Z</time></trkpt>
<trkpt lat="50.692596" lon="5.916603"><time>2026-05-06T18:48:17Z</time></trkpt>
<trkpt lat="50.693285" lon="5.914350"><time>2026-05-06T18:58:17Z</time></trkpt>
<trkpt lat="50.693890" lon="5.913695"><time>2026-05-06T19:08:17Z</time></trkpt>
</trkseg>
</trk>
<trk>
<name>lpbhm138</name>
<cmt>s</cmt>
<desc>Hombourg Sentier n°138 </desc>
<link href="https://chemins.be/hombourg/sentier/138"/><trkseg>
<trkpt lat="50.694352" lon="5.923659"><time>2026-05-06T18:28:17Z</time></trkpt>
<trkpt lat="50.695884" lon="5.921082"><time>2026-05-06T18:38:17Z</time></trkpt>
</trkseg>
</trk>
<trk>
<name>lpbhm139</name>
<cmt>s</cmt>
<desc>Hombourg Sentier n°139 </desc>
<link href="https://chemins.be/hombourg/sentier/139"/><trkseg>
<trkpt lat="50.695274" lon="5.923217"><time>2026-05-06T18:28:17Z</time></trkpt>
<trkpt lat="50.695169" lon="5.923060"><time>2026-05-06T18:38:17Z</time></trkpt>
<trkpt lat="50.693919" lon="5.922287"><time>2026-05-06T18:48:17Z</time></trkpt>
<trkpt lat="50.692714" lon="5.920561"><time>2026-05-06T18:58:17Z</time></trkpt>
</trkseg>
</trk>
<trk>
<name>lpbhm14</name>
<cmt>r</cmt>
<desc>Hombourg Chemin n°14 Clermontshof / Chemin de Clermonts</desc>
<link href="https://chemins.be/hombourg/chemin/14"/><trkseg>
<trkpt lat="50.731585" lon="5.881024"><time>2026-05-06T18:28:17Z</time></trkpt>
<trkpt lat="50.732979" lon="5.879415"><time>2026-05-06T18:38:17Z</time></trkpt>
<trkpt lat="50.733554" lon="5.878113"><time>2026-05-06T18:48:17Z</time></trkpt>
</trkseg></trk>
<trk>
<name>lpbhm14</name>
<cmt>v</cmt>
<desc>Hombourg Chemin n°14 Clermontshof / Chemin de Clermonts</desc>
<link href="https://chemins.be/hombourg/chemin/14"/><trkseg>
<trkpt lat="50.733554" lon="5.878113"><time>2026-05-06T18:48:17Z</time></trkpt>
<trkpt lat="50.736592" lon="5.878855"><time>2026-05-06T18:58:17Z</time></trkpt>
<trkpt lat="50.737615" lon="5.880915"><time>2026-05-06T19:08:17Z</time></trkpt>
<trkpt lat="50.739508" lon="5.881087"><time>2026-05-06T19:18:17Z</time></trkpt>
</trkseg></trk>
<trk>
<name>lpbhm14</name>
<cmt>d</cmt>
<desc>Hombourg Chemin n°14 Clermontshof / Chemin de Clermonts</desc>
<link href="https://chemins.be/hombourg/chemin/14"/><trkseg>
<trkpt lat="50.739508" lon="5.881087"><time>2026-05-06T19:18:17Z</time></trkpt>
<trkpt lat="50.742115" lon="5.881387"><time>2026-05-06T19:28:17Z</time></trkpt>
</trkseg></trk>
<trk>
<name>lpbhm14</name>
<cmt>s</cmt>
<desc>Hombourg Chemin n°14 Clermontshof / Chemin de Clermonts</desc>
<link href="https://chemins.be/hombourg/chemin/14"/><trkseg>
<trkpt lat="50.742115" lon="5.881387"><time>2026-05-06T19:28:17Z</time></trkpt>
<trkpt lat="50.742739" lon="5.881532"><time>2026-05-06T19:38:17Z</time></trkpt>
</trkseg></trk>
<trk>
<name>lpbhm14</name>
<cmt>d</cmt>
<desc>Hombourg Chemin n°14 Clermontshof / Chemin de Clermonts</desc>
<link href="https://chemins.be/hombourg/chemin/14"/><trkseg>
<trkpt lat="50.742739" lon="5.881532"><time>2026-05-06T19:38:17Z</time></trkpt>
<trkpt lat="50.743645" lon="5.881730"><time>2026-05-06T19:48:17Z</time></trkpt>
</trkseg>
</trk>
<trk>
<name>lpbhm140</name>
<cmt>s</cmt>
<desc>Hombourg Sentier n°140 Gulpen</desc>
<link href="https://chemins.be/hombourg/sentier/140"/><trkseg>
<trkpt lat="50.692372" lon="5.923072"><time>2026-05-06T18:28:17Z</time></trkpt>
<trkpt lat="50.691439" lon="5.925486"><time>2026-05-06T18:38:17Z</time></trkpt>
</trkseg></trk>
<trk>
<name>lpbhm140</name>
<cmt>r</cmt>
<desc>Hombourg Sentier n°140 Gulpen</desc>
<link href="https://chemins.be/hombourg/sentier/140"/><trkseg>
<trkpt lat="50.691439" lon="5.925486"><time>2026-05-06T18:38:17Z</time></trkpt>
<trkpt lat="50.691246" lon="5.925558"><time>2026-05-06T18:48:17Z</time></trkpt>
</trkseg></trk>
<trk>
<name>lpbhm140</name>
<cmt>d</cmt>
<desc>Hombourg Sentier n°140 Gulpen</desc>
<link href="https://chemins.be/hombourg/sentier/140"/><trkseg>
<trkpt lat="50.691246" lon="5.925558"><time>2026-05-06T18:48:17Z</time></trkpt>
<trkpt lat="50.691266" lon="5.926184"><time>2026-05-06T18:58:17Z</time></trkpt>
<trkpt lat="50.690915" lon="5.927411"><time>2026-05-06T19:08:17Z</time></trkpt>
</trkseg>
</trk>
<trk>
<name>lpbhm141</name>
<cmt>q</cmt>
<desc>Hombourg Sentier n°141 </desc>
<link href="https://chemins.be/hombourg/sentier/141"/><trkseg>
<trkpt lat="50.724002" lon="5.919641"><time>2026-05-06T18:28:17Z</time></trkpt>
<trkpt lat="50.723985" lon="5.919829"><time>2026-05-06T18:38:17Z</time></trkpt>
<trkpt lat="50.724366" lon="5.920546"><time>2026-05-06T18:48:17Z</time></trkpt>
<trkpt lat="50.724523" lon="5.920448"><time>2026-05-06T18:58:17Z</time></trkpt>
<trkpt lat="50.724889" lon="5.921268"><time>2026-05-06T19:08:17Z</time></trkpt>
<trkpt lat="50.724989" lon="5.921983"><time>2026-05-06T19:18:17Z</time></trkpt>
<trkpt lat="50.725604" lon="5.922942"><time>2026-05-06T19:28:17Z</time></trkpt>
<trkpt lat="50.726302" lon="5.923895"><time>2026-05-06T19:38:17Z</time></trkpt>
<trkpt lat="50.726295" lon="5.923980"><time>2026-05-06T19:48:17Z</time></trkpt>
</trkseg>
</trk>
<trk>
<name>lpbhm142</name>
<cmt>s</cmt>
<desc>Hombourg Sentier n°142 </desc>
<link href="https://chemins.be/hombourg/sentier/142"/><trkseg>
<trkpt lat="50.725444" lon="5.922830"><time>2026-05-06T18:28:17Z</time></trkpt>
<trkpt lat="50.725514" lon="5.922676"><time>2026-05-06T18:38:17Z</time></trkpt>
<trkpt lat="50.726825" lon="5.922654"><time>2026-05-06T18:48:17Z</time></trkpt>
<trkpt lat="50.727411" lon="5.922644"><time>2026-05-06T18:58:17Z</time></trkpt>
<trkpt lat="50.729274" lon="5.922672"><time>2026-05-06T19:08:17Z</time></trkpt>
<trkpt lat="50.729850" lon="5.922536"><time>2026-05-06T19:18:17Z</time></trkpt>
<trkpt lat="50.730430" lon="5.922378"><time>2026-05-06T19:28:17Z</time></trkpt>
<trkpt lat="50.730785" lon="5.922248"><time>2026-05-06T19:38:17Z</time></trkpt>
<trkpt lat="50.732306" lon="5.922069"><time>2026-05-06T19:48:17Z</time></trkpt>
</trkseg>
</trk>
<trk>
<name>lpbhm143</name>
<cmt>r</cmt>
<desc>Hombourg Sentier n°143 Rue de Sippenaeken</desc>
<link href="https://chemins.be/hombourg/sentier/143"/><trkseg>
<trkpt lat="50.733827" lon="5.923930"><time>2026-05-06T18:28:17Z</time></trkpt>
<trkpt lat="50.732935" lon="5.923537"><time>2026-05-06T18:38:17Z</time></trkpt>
<trkpt lat="50.732373" lon="5.922708"><time>2026-05-06T18:48:17Z</time></trkpt>
</trkseg></trk>
<trk>
<name>lpbhm143</name>
<cmt>d</cmt>
<desc>Hombourg Sentier n°143 Rue de Sippenaeken</desc>
<link href="https://chemins.be/hombourg/sentier/143"/><trkseg>
<trkpt lat="50.732373" lon="5.922708"><time>2026-05-06T18:48:17Z</time></trkpt>
<trkpt lat="50.732287" lon="5.922072"><time>2026-05-06T18:58:17Z</time></trkpt>
<trkpt lat="50.732196" lon="5.920351"><time>2026-05-06T19:08:17Z</time></trkpt>
</trkseg>
</trk>
<trk>
<name>lpbhm144</name>
<cmt>s</cmt>
<desc>Hombourg Sentier n°144 Rue Laschet</desc>
<link href="https://chemins.be/hombourg/sentier/144"/><trkseg>
<trkpt lat="50.726512" lon="5.917747"><time>2026-05-06T18:28:17Z</time></trkpt>
<trkpt lat="50.726512" lon="5.917672"><time>2026-05-06T18:38:17Z</time></trkpt>
<trkpt lat="50.726844" lon="5.917264"><time>2026-05-06T18:48:17Z</time></trkpt>
<trkpt lat="50.726997" lon="5.916481"><time>2026-05-06T18:58:17Z</time></trkpt>
<trkpt lat="50.727972" lon="5.914850"><time>2026-05-06T19:08:17Z</time></trkpt>
<trkpt lat="50.728403" lon="5.914410"><time>2026-05-06T19:18:17Z</time></trkpt>
<trkpt lat="50.728773" lon="5.913992"><time>2026-05-06T19:28:17Z</time></trkpt>
<trkpt lat="50.729367" lon="5.912801"><time>2026-05-06T19:38:17Z</time></trkpt>
<trkpt lat="50.729391" lon="5.912624"><time>2026-05-06T19:48:17Z</time></trkpt>
</trkseg>
</trk>
<trk>
<name>lpbhm145</name>
<cmt>s</cmt>
<desc>Hombourg Sentier n°145 Chemin du Bisweg</desc>
<link href="https://chemins.be/hombourg/sentier/145"/><trkseg>
<trkpt lat="50.727065" lon="5.929910"><time>2026-05-06T18:28:17Z</time></trkpt>
<trkpt lat="50.727762" lon="5.929248"><time>2026-05-06T18:38:17Z</time></trkpt>
<trkpt lat="50.728018" lon="5.929058"><time>2026-05-06T18:48:17Z</time></trkpt>
<trkpt lat="50.728522" lon="5.928662"><time>2026-05-06T18:58:17Z</time></trkpt>
</trkseg></trk>
<trk>
<name>lpbhm145</name>
<cmt>r</cmt>
<desc>Hombourg Sentier n°145 Chemin du Bisweg</desc>
<link href="https://chemins.be/hombourg/sentier/145"/><trkseg>
<trkpt lat="50.728522" lon="5.928662"><time>2026-05-06T18:58:17Z</time></trkpt>
<trkpt lat="50.728724" lon="5.928197"><time>2026-05-06T19:08:17Z</time></trkpt>
</trkseg></trk>
<trk>
<name>lpbhm145</name>
<cmt>v</cmt>
<desc>Hombourg Sentier n°145 Chemin du Bisweg</desc>
<link href="https://chemins.be/hombourg/sentier/145"/><trkseg>
<trkpt lat="50.728724" lon="5.928197"><time>2026-05-06T19:08:17Z</time></trkpt>
<trkpt lat="50.729397" lon="5.926623"><time>2026-05-06T19:18:17Z</time></trkpt>
<trkpt lat="50.729897" lon="5.926098"><time>2026-05-06T19:28:17Z</time></trkpt>
<trkpt lat="50.730028" lon="5.925629"><time>2026-05-06T19:38:17Z</time></trkpt>
<trkpt lat="50.730161" lon="5.925193"><time>2026-05-06T19:48:17Z</time></trkpt>
</trkseg></trk>
<trk>
<name>lpbhm145</name>
<cmt>s</cmt>
<desc>Hombourg Sentier n°145 Chemin du Bisweg</desc>
<link href="https://chemins.be/hombourg/sentier/145"/><trkseg>
<trkpt lat="50.730161" lon="5.925193"><time>2026-05-06T19:48:17Z</time></trkpt>
<trkpt lat="50.729867" lon="5.923855"><time>2026-05-06T19:58:17Z</time></trkpt>
<trkpt lat="50.729341" lon="5.922697"><time>2026-05-06T20:08:17Z</time></trkpt>
<trkpt lat="50.729252" lon="5.920776"><time>2026-05-06T20:18:17Z</time></trkpt>
<trkpt lat="50.728749" lon="5.919124"><time>2026-05-06T20:28:17Z</time></trkpt>
<trkpt lat="50.728321" lon="5.917608"><time>2026-05-06T20:38:17Z</time></trkpt>
<trkpt lat="50.728131" lon="5.915980"><time>2026-05-06T20:48:17Z</time></trkpt>
</trkseg>
</trk>
<trk>
<name>lpbhm146</name>
<cmt>s</cmt>
<desc>Hombourg Sentier n°146 </desc>
<link href="https://chemins.be/hombourg/sentier/146"/><trkseg>
<trkpt lat="50.727128" lon="5.929905"><time>2026-05-06T18:28:17Z</time></trkpt>
<trkpt lat="50.727176" lon="5.927929"><time>2026-05-06T18:38:17Z</time></trkpt>
<trkpt lat="50.727155" lon="5.927646"><time>2026-05-06T18:48:17Z</time></trkpt>
<trkpt lat="50.726811" lon="5.926607"><time>2026-05-06T18:58:17Z</time></trkpt>
</trkseg>
</trk>
<trk>
<name>lpbhm147</name>
<cmt>s</cmt>
<desc>Hombourg Sentier n°147 </desc>
<link href="https://chemins.be/hombourg/sentier/147"/><trkseg>
<trkpt lat="50.731721" lon="5.918838"><time>2026-05-06T18:28:17Z</time></trkpt>
<trkpt lat="50.733654" lon="5.915855"><time>2026-05-06T18:38:17Z</time></trkpt>
<trkpt lat="50.734125" lon="5.915251"><time>2026-05-06T18:48:17Z</time></trkpt>
<trkpt lat="50.734463" lon="5.915126"><time>2026-05-06T18:58:17Z</time></trkpt>
<trkpt lat="50.734888" lon="5.914210"><time>2026-05-06T19:08:17Z</time></trkpt>
</trkseg>
</trk>
<trk>
<name>lpbhm148</name>
<cmt>d</cmt>
<desc>Hombourg Sentier n°148 </desc>
<link href="https://chemins.be/hombourg/sentier/148"/><trkseg>
<trkpt lat="50.737059" lon="5.919308"><time>2026-05-06T18:28:17Z</time></trkpt>
<trkpt lat="50.735209" lon="5.920966"><time>2026-05-06T18:38:17Z</time></trkpt>
</trkseg></trk>
<trk>
<name>lpbhm148</name>
<cmt>v</cmt>
<desc>Hombourg Sentier n°148 </desc>
<link href="https://chemins.be/hombourg/sentier/148"/><trkseg>
<trkpt lat="50.735209" lon="5.920966"><time>2026-05-06T18:38:17Z</time></trkpt>
<trkpt lat="50.734779" lon="5.921173"><time>2026-05-06T18:48:17Z</time></trkpt>
<trkpt lat="50.734592" lon="5.921799"><time>2026-05-06T18:58:17Z</time></trkpt>
</trkseg></trk>
<trk>
<name>lpbhm148</name>
<cmt>s</cmt>
<desc>Hombourg Sentier n°148 </desc>
<link href="https://chemins.be/hombourg/sentier/148"/><trkseg>
<trkpt lat="50.734592" lon="5.921799"><time>2026-05-06T18:58:17Z</time></trkpt>
<trkpt lat="50.734277" lon="5.924106"><time>2026-05-06T19:08:17Z</time></trkpt>
<trkpt lat="50.734192" lon="5.925930"><time>2026-05-06T19:18:17Z</time></trkpt>
</trkseg>
</trk>
<trk>
<name>lpbhm149</name>
<cmt>r</cmt>
<desc>Hombourg Sentier n°149 Centre</desc>
<link href="https://chemins.be/hombourg/sentier/149"/><trkseg>
<trkpt lat="50.723312" lon="5.920057"><time>2026-05-06T18:28:17Z</time></trkpt>
<trkpt lat="50.723011" lon="5.920468"><time>2026-05-06T18:38:17Z</time></trkpt>
<trkpt lat="50.722874" lon="5.920724"><time>2026-05-06T18:48:17Z</time></trkpt>
</trkseg>
</trk>
<trk>
<name>lpbhm15</name>
<cmt>v</cmt>
<desc>Hombourg Chemin n°15 Graef / Roodbos</desc>
<link href="https://chemins.be/hombourg/chemin/15"/><trkseg>
<trkpt lat="50.733531" lon="5.878184"><time>2026-05-06T18:28:17Z</time></trkpt>
<trkpt lat="50.733749" lon="5.877176"><time>2026-05-06T18:38:17Z</time></trkpt>
<trkpt lat="50.734124" lon="5.875154"><time>2026-05-06T18:48:17Z</time></trkpt>
<trkpt lat="50.734094" lon="5.873201"><time>2026-05-06T18:58:17Z</time></trkpt>
<trkpt lat="50.733671" lon="5.871531"><time>2026-05-06T19:08:17Z</time></trkpt>
<trkpt lat="50.733771" lon="5.870959"><time>2026-05-06T19:18:17Z</time></trkpt>
<trkpt lat="50.734993" lon="5.868938"><time>2026-05-06T19:28:17Z</time></trkpt>
<trkpt lat="50.735369" lon="5.865954"><time>2026-05-06T19:38:17Z</time></trkpt>
<trkpt lat="50.735467" lon="5.865251"><time>2026-05-06T19:48:17Z</time></trkpt>
<trkpt lat="50.736166" lon="5.863159"><time>2026-05-06T19:58:17Z</time></trkpt>
</trkseg>
</trk>
<trk>
<name>lpbhm150</name>
<cmt>v</cmt>
<desc>Hombourg Sentier n°150 </desc>
<link href="https://chemins.be/hombourg/sentier/150"/><trkseg>
<trkpt lat="50.723454" lon="5.920024"><time>2026-05-06T18:28:17Z</time></trkpt>
<trkpt lat="50.723694" lon="5.920637"><time>2026-05-06T18:38:17Z</time></trkpt>
</trkseg>
</trk>
<trk>
<name>lpbhm151</name>
<cmt>r</cmt>
<desc>Hombourg Sentier n°151 Rue de Sippenaeken / Chemin du Bisweg</desc>
<link href="https://chemins.be/hombourg/sentier/151"/><trkseg>
<trkpt lat="50.741537" lon="5.934105"><time>2026-05-06T18:28:17Z</time></trkpt>
<trkpt lat="50.740179" lon="5.932903"><time>2026-05-06T18:38:17Z</time></trkpt>
<trkpt lat="50.738993" lon="5.931001"><time>2026-05-06T18:48:17Z</time></trkpt>
</trkseg></trk>
<trk>
<name>lpbhm151</name>
<cmt>d</cmt>
<desc>Hombourg Sentier n°151 Rue de Sippenaeken / Chemin du Bisweg</desc>
<link href="https://chemins.be/hombourg/sentier/151"/><trkseg>
<trkpt lat="50.738993" lon="5.931001"><time>2026-05-06T18:48:17Z</time></trkpt>
<trkpt lat="50.737108" lon="5.930114"><time>2026-05-06T18:58:17Z</time></trkpt>
<trkpt lat="50.735954" lon="5.930793"><time>2026-05-06T19:08:17Z</time></trkpt>
</trkseg></trk>
<trk>
<name>lpbhm151</name>
<cmt>v</cmt>
<desc>Hombourg Sentier n°151 Rue de Sippenaeken / Chemin du Bisweg</desc>
<link href="https://chemins.be/hombourg/sentier/151"/><trkseg>
<trkpt lat="50.735954" lon="5.930793"><time>2026-05-06T19:08:17Z</time></trkpt>
<trkpt lat="50.735447" lon="5.930192"><time>2026-05-06T19:18:17Z</time></trkpt>
</trkseg></trk>
<trk>
<name>lpbhm151</name>
<cmt>r</cmt>
<desc>Hombourg Sentier n°151 Rue de Sippenaeken / Chemin du Bisweg</desc>
<link href="https://chemins.be/hombourg/sentier/151"/><trkseg>
<trkpt lat="50.735447" lon="5.930192"><time>2026-05-06T19:18:17Z</time></trkpt>
<trkpt lat="50.731807" lon="5.929643"><time>2026-05-06T19:28:17Z</time></trkpt>
<trkpt lat="50.731273" lon="5.929343"><time>2026-05-06T19:38:17Z</time></trkpt>
</trkseg></trk>
<trk>
<name>lpbhm151</name>
<cmt>d</cmt>
<desc>Hombourg Sentier n°151 Rue de Sippenaeken / Chemin du Bisweg</desc>
<link href="https://chemins.be/hombourg/sentier/151"/><trkseg>
<trkpt lat="50.731273" lon="5.929343"><time>2026-05-06T19:38:17Z</time></trkpt>
<trkpt lat="50.729634" lon="5.928476"><time>2026-05-06T19:48:17Z</time></trkpt>
<trkpt lat="50.728846" lon="5.928036"><time>2026-05-06T19:58:17Z</time></trkpt>
</trkseg>
</trk>
<trk>
<name>lpbhm152</name>
<cmt>d</cmt>
<desc>Hombourg Sentier n°152 </desc>
<link href="https://chemins.be/hombourg/sentier/152"/><trkseg>
<trkpt lat="50.738912" lon="5.930715"><time>2026-05-06T18:28:17Z</time></trkpt>
<trkpt lat="50.736159" lon="5.926824"><time>2026-05-06T18:38:17Z</time></trkpt>
</trkseg></trk>
<trk>
<name>lpbhm152</name>
<cmt>v</cmt>
<desc>Hombourg Sentier n°152 </desc>
<link href="https://chemins.be/hombourg/sentier/152"/><trkseg>
<trkpt lat="50.736159" lon="5.926824"><time>2026-05-06T18:38:17Z</time></trkpt>
<trkpt lat="50.735978" lon="5.926990"><time>2026-05-06T18:48:17Z</time></trkpt>
</trkseg></trk>
<trk>
<name>lpbhm152</name>
<cmt>d</cmt>
<desc>Hombourg Sentier n°152 </desc>
<link href="https://chemins.be/hombourg/sentier/152"/><trkseg>
<trkpt lat="50.735978" lon="5.926990"><time>2026-05-06T18:48:17Z</time></trkpt>
<trkpt lat="50.735686" lon="5.926593"><time>2026-05-06T18:58:17Z</time></trkpt>
<trkpt lat="50.735501" lon="5.926942"><time>2026-05-06T19:08:17Z</time></trkpt>
<trkpt lat="50.733820" lon="5.926630"><time>2026-05-06T19:18:17Z</time></trkpt>
</trkseg></trk>
<trk>
<name>lpbhm152</name>
<cmt>v</cmt>
<desc>Hombourg Sentier n°152 </desc>
<link href="https://chemins.be/hombourg/sentier/152"/><trkseg>
<trkpt lat="50.733820" lon="5.926630"><time>2026-05-06T19:18:17Z</time></trkpt>
<trkpt lat="50.733693" lon="5.926825"><time>2026-05-06T19:28:17Z</time></trkpt>
<trkpt lat="50.733470" lon="5.926979"><time>2026-05-06T19:38:17Z</time></trkpt>
<trkpt lat="50.733229" lon="5.927331"><time>2026-05-06T19:48:17Z</time></trkpt>
<trkpt lat="50.733156" lon="5.927732"><time>2026-05-06T19:58:17Z</time></trkpt>
<trkpt lat="50.732324" lon="5.928483"><time>2026-05-06T20:08:17Z</time></trkpt>
<trkpt lat="50.731988" lon="5.928941"><time>2026-05-06T20:18:17Z</time></trkpt>
</trkseg></trk>
<trk>
<name>lpbhm152</name>
<cmt>d</cmt>
<desc>Hombourg Sentier n°152 </desc>
<link href="https://chemins.be/hombourg/sentier/152"/><trkseg>
<trkpt lat="50.731988" lon="5.928941"><time>2026-05-06T20:18:17Z</time></trkpt>
<trkpt lat="50.730712" lon="5.929012"><time>2026-05-06T20:28:17Z</time></trkpt>
</trkseg>
</trk>
<trk>
<name>lpbhm153</name>
<cmt>q</cmt>
<desc>Hombourg Sentier n°153 </desc>
<link href="https://chemins.be/hombourg/sentier/153"/><trkseg>
<trkpt lat="50.738127" lon="5.924284"><time>2026-05-06T18:28:17Z</time></trkpt>
<trkpt lat="50.738195" lon="5.924555"><time>2026-05-06T18:38:17Z</time></trkpt>
<trkpt lat="50.738620" lon="5.926123"><time>2026-05-06T18:48:17Z</time></trkpt>
<trkpt lat="50.738865" lon="5.930614"><time>2026-05-06T18:58:17Z</time></trkpt>
</trkseg>
</trk>
<trk>
<name>lpbhm154</name>
<cmt>d</cmt>
<desc>Hombourg Sentier n°154 </desc>
<link href="https://chemins.be/hombourg/sentier/154"/><trkseg>
<trkpt lat="50.736996" lon="5.925808"><time>2026-05-06T18:28:17Z</time></trkpt>
<trkpt lat="50.738078" lon="5.924309"><time>2026-05-06T18:38:17Z</time></trkpt>
<trkpt lat="50.738491" lon="5.924486"><time>2026-05-06T18:48:17Z</time></trkpt>
<trkpt lat="50.739163" lon="5.924300"><time>2026-05-06T18:58:17Z</time></trkpt>
</trkseg></trk>
<trk>
<name>lpbhm154</name>
<cmt>s</cmt>
<desc>Hombourg Sentier n°154 </desc>
<link href="https://chemins.be/hombourg/sentier/154"/><trkseg>
<trkpt lat="50.739163" lon="5.924300"><time>2026-05-06T18:58:17Z</time></trkpt>
<trkpt lat="50.739445" lon="5.924438"><time>2026-05-06T19:08:17Z</time></trkpt>
</trkseg></trk>
<trk>
<name>lpbhm154</name>
<cmt>v</cmt>
<desc>Hombourg Sentier n°154 </desc>
<link href="https://chemins.be/hombourg/sentier/154"/><trkseg>
<trkpt lat="50.739445" lon="5.924438"><time>2026-05-06T19:08:17Z</time></trkpt>
<trkpt lat="50.740903" lon="5.924510"><time>2026-05-06T19:18:17Z</time></trkpt>
</trkseg>
</trk>
<trk>
<name>lpbhm155</name>
<cmt>v</cmt>
<desc>Hombourg Sentier n°155 </desc>
<link href="https://chemins.be/hombourg/sentier/155"/><trkseg>
<trkpt lat="50.738245" lon="5.932699"><time>2026-05-06T18:28:17Z</time></trkpt>
<trkpt lat="50.738310" lon="5.931723"><time>2026-05-06T18:38:17Z</time></trkpt>
<trkpt lat="50.739056" lon="5.930791"><time>2026-05-06T18:48:17Z</time></trkpt>
<trkpt lat="50.739928" lon="5.929956"><time>2026-05-06T18:58:17Z</time></trkpt>
</trkseg></trk>
<trk>
<name>lpbhm155</name>
<cmt>q</cmt>
<desc>Hombourg Sentier n°155 </desc>
<link href="https://chemins.be/hombourg/sentier/155"/><trkseg>
<trkpt lat="50.739928" lon="5.929956"><time>2026-05-06T18:58:17Z</time></trkpt>
<trkpt lat="50.740037" lon="5.929366"><time>2026-05-06T19:08:17Z</time></trkpt>
<trkpt lat="50.739948" lon="5.926845"><time>2026-05-06T19:18:17Z</time></trkpt>
<trkpt lat="50.740247" lon="5.925500"><time>2026-05-06T19:28:17Z</time></trkpt>
<trkpt lat="50.740654" lon="5.924520"><time>2026-05-06T19:38:17Z</time></trkpt>
</trkseg>
</trk>
<trk>
<name>lpbhm156</name>
<cmt>v</cmt>
<desc>Hombourg Sentier n°156 Braesberg / Boffereth</desc>
<link href="https://chemins.be/hombourg/sentier/156"/><trkseg>
<trkpt lat="50.737910" lon="5.961015"><time>2026-05-06T18:28:17Z</time></trkpt>
<trkpt lat="50.737988" lon="5.960758"><time>2026-05-06T18:38:17Z</time></trkpt>
<trkpt lat="50.737791" lon="5.960136"><time>2026-05-06T18:48:17Z</time></trkpt>
<trkpt lat="50.737807" lon="5.959943"><time>2026-05-06T18:58:17Z</time></trkpt>
<trkpt lat="50.738052" lon="5.959565"><time>2026-05-06T19:08:17Z</time></trkpt>
<trkpt lat="50.738463" lon="5.958779"><time>2026-05-06T19:18:17Z</time></trkpt>
</trkseg></trk>
<trk>
<name>lpbhm156</name>
<cmt>r</cmt>
<desc>Hombourg Sentier n°156 Braesberg / Boffereth</desc>
<link href="https://chemins.be/hombourg/sentier/156"/><trkseg>
<trkpt lat="50.738463" lon="5.958779"><time>2026-05-06T19:18:17Z</time></trkpt>
<trkpt lat="50.738282" lon="5.958374"><time>2026-05-06T19:28:17Z</time></trkpt>
</trkseg></trk>
<trk>
<name>lpbhm156</name>
<cmt>s</cmt>
<desc>Hombourg Sentier n°156 Braesberg / Boffereth</desc>
<link href="https://chemins.be/hombourg/sentier/156"/><trkseg>
<trkpt lat="50.738282" lon="5.958374"><time>2026-05-06T19:28:17Z</time></trkpt>
<trkpt lat="50.737887" lon="5.957116"><time>2026-05-06T19:38:17Z</time></trkpt>
<trkpt lat="50.738557" lon="5.956494"><time>2026-05-06T19:48:17Z</time></trkpt>
<trkpt lat="50.739281" lon="5.952946"><time>2026-05-06T19:58:17Z</time></trkpt>
<trkpt lat="50.740338" lon="5.951482"><time>2026-05-06T20:08:17Z</time></trkpt>
</trkseg></trk>
<trk>
<name>lpbhm156</name>
<cmt>v</cmt>
<desc>Hombourg Sentier n°156 Braesberg / Boffereth</desc>
<link href="https://chemins.be/hombourg/sentier/156"/><trkseg>
<trkpt lat="50.740338" lon="5.951482"><time>2026-05-06T20:08:17Z</time></trkpt>
<trkpt lat="50.740549" lon="5.951065"><time>2026-05-06T20:18:17Z</time></trkpt>
<trkpt lat="50.740838" lon="5.949292"><time>2026-05-06T20:28:17Z</time></trkpt>
<trkpt lat="50.741165" lon="5.948129"><time>2026-05-06T20:38:17Z</time></trkpt>
<trkpt lat="50.741141" lon="5.947979"><time>2026-05-06T20:48:17Z</time></trkpt>
<trkpt lat="50.741463" lon="5.947309"><time>2026-05-06T20:58:17Z</time></trkpt>
<trkpt lat="50.741721" lon="5.946974"><time>2026-05-06T21:08:17Z</time></trkpt>
<trkpt lat="50.742173" lon="5.946760"><time>2026-05-06T21:18:17Z</time></trkpt>
</trkseg></trk>
<trk>
<name>lpbhm156</name>
<cmt>d</cmt>
<desc>Hombourg Sentier n°156 Braesberg / Boffereth</desc>
<link href="https://chemins.be/hombourg/sentier/156"/><trkseg>
<trkpt lat="50.742173" lon="5.946760"><time>2026-05-06T21:18:17Z</time></trkpt>
<trkpt lat="50.742766" lon="5.945350"><time>2026-05-06T21:28:17Z</time></trkpt>
<trkpt lat="50.742509" lon="5.944654"><time>2026-05-06T21:38:17Z</time></trkpt>
</trkseg></trk>
<trk>
<name>lpbhm156</name>
<cmt>v</cmt>
<desc>Hombourg Sentier n°156 Braesberg / Boffereth</desc>
<link href="https://chemins.be/hombourg/sentier/156"/><trkseg>
<trkpt lat="50.742509" lon="5.944654"><time>2026-05-06T21:38:17Z</time></trkpt>
<trkpt lat="50.742448" lon="5.944562"><time>2026-05-06T21:48:17Z</time></trkpt>
<trkpt lat="50.742960" lon="5.942016"><time>2026-05-06T21:58:17Z</time></trkpt>
<trkpt lat="50.742715" lon="5.940856"><time>2026-05-06T22:08:17Z</time></trkpt>
</trkseg></trk>
<trk>
<name>lpbhm156</name>
<cmt>r</cmt>
<desc>Hombourg Sentier n°156 Braesberg / Boffereth</desc>
<link href="https://chemins.be/hombourg/sentier/156"/><trkseg>
<trkpt lat="50.742715" lon="5.940856"><time>2026-05-06T22:08:17Z</time></trkpt>
<trkpt lat="50.743084" lon="5.940670"><time>2026-05-06T22:18:17Z</time></trkpt>
</trkseg></trk>
<trk>
<name>lpbhm156</name>
<cmt>q</cmt>
<desc>Hombourg Sentier n°156 Braesberg / Boffereth</desc>
<link href="https://chemins.be/hombourg/sentier/156"/><trkseg>
<trkpt lat="50.743084" lon="5.940670"><time>2026-05-06T22:18:17Z</time></trkpt>
<trkpt lat="50.741877" lon="5.937987"><time>2026-05-06T22:28:17Z</time></trkpt>
<trkpt lat="50.740994" lon="5.934868"><time>2026-05-06T22:38:17Z</time></trkpt>
<trkpt lat="50.740790" lon="5.933581"><time>2026-05-06T22:48:17Z</time></trkpt>
</trkseg>
</trk>
<trk>
<name>lpbhm156bis</name>
<cmt>v</cmt>
<desc>Hombourg Sentier n°156bis </desc>
<link href="https://chemins.be/hombourg/sentier/156bis"/><trkseg>
<trkpt lat="50.737284" lon="5.953384"><time>2026-05-06T18:28:17Z</time></trkpt>
<trkpt lat="50.737956" lon="5.952916"><time>2026-05-06T18:38:17Z</time></trkpt>
<trkpt lat="50.738316" lon="5.952503"><time>2026-05-06T18:48:17Z</time></trkpt>
<trkpt lat="50.739305" lon="5.951049"><time>2026-05-06T18:58:17Z</time></trkpt>
<trkpt lat="50.739570" lon="5.951076"><time>2026-05-06T19:08:17Z</time></trkpt>
<trkpt lat="50.739989" lon="5.951221"><time>2026-05-06T19:18:17Z</time></trkpt>
<trkpt lat="50.740337" lon="5.951468"><time>2026-05-06T19:28:17Z</time></trkpt>
</trkseg>
</trk>
<trk>
<name>lpbhm157</name>
<cmt>d</cmt>
<desc>Hombourg Sentier n°157 Rue de Lattenheuer / Sandweg</desc>
<link href="https://chemins.be/hombourg/sentier/157"/><trkseg>
<trkpt lat="50.742671" lon="5.940839"><time>2026-05-06T18:28:17Z</time></trkpt>
<trkpt lat="50.741617" lon="5.941125"><time>2026-05-06T18:38:17Z</time></trkpt>
<trkpt lat="50.738862" lon="5.941236"><time>2026-05-06T18:48:17Z</time></trkpt>
</trkseg></trk>
<trk>
<name>lpbhm157</name>
<cmt>r</cmt>
<desc>Hombourg Sentier n°157 Rue de Lattenheuer / Sandweg</desc>
<link href="https://chemins.be/hombourg/sentier/157"/><trkseg>
<trkpt lat="50.738862" lon="5.941236"><time>2026-05-06T18:48:17Z</time></trkpt>
<trkpt lat="50.738875" lon="5.941858"><time>2026-05-06T18:58:17Z</time></trkpt>
<trkpt lat="50.738228" lon="5.943103"><time>2026-05-06T19:08:17Z</time></trkpt>
</trkseg></trk>
<trk>
<name>lpbhm157</name>
<cmt>v</cmt>
<desc>Hombourg Sentier n°157 Rue de Lattenheuer / Sandweg</desc>
<link href="https://chemins.be/hombourg/sentier/157"/><trkseg>
<trkpt lat="50.738228" lon="5.943103"><time>2026-05-06T19:08:17Z</time></trkpt>
<trkpt lat="50.737418" lon="5.942638"><time>2026-05-06T19:18:17Z</time></trkpt>
</trkseg></trk>
<trk>
<name>lpbhm157</name>
<cmt>d</cmt>
<desc>Hombourg Sentier n°157 Rue de Lattenheuer / Sandweg</desc>
<link href="https://chemins.be/hombourg/sentier/157"/><trkseg>
<trkpt lat="50.737418" lon="5.942638"><time>2026-05-06T19:18:17Z</time></trkpt>
<trkpt lat="50.736612" lon="5.943965"><time>2026-05-06T19:28:17Z</time></trkpt>
<trkpt lat="50.735037" lon="5.944608"><time>2026-05-06T19:38:17Z</time></trkpt>
</trkseg></trk>
<trk>
<name>lpbhm157</name>
<cmt>v</cmt>
<desc>Hombourg Sentier n°157 Rue de Lattenheuer / Sandweg</desc>
<link href="https://chemins.be/hombourg/sentier/157"/><trkseg>
<trkpt lat="50.735037" lon="5.944608"><time>2026-05-06T19:38:17Z</time></trkpt>
<trkpt lat="50.734230" lon="5.944937"><time>2026-05-06T19:48:17Z</time></trkpt>
</trkseg></trk>
<trk>
<name>lpbhm157</name>
<cmt>d</cmt>
<desc>Hombourg Sentier n°157 Rue de Lattenheuer / Sandweg</desc>
<link href="https://chemins.be/hombourg/sentier/157"/><trkseg>
<trkpt lat="50.734230" lon="5.944937"><time>2026-05-06T19:48:17Z</time></trkpt>
<trkpt lat="50.732971" lon="5.945451"><time>2026-05-06T19:58:17Z</time></trkpt>
<trkpt lat="50.732593" lon="5.946178"><time>2026-05-06T20:08:17Z</time></trkpt>
<trkpt lat="50.731755" lon="5.946339"><time>2026-05-06T20:18:17Z</time></trkpt>
</trkseg></trk>
<trk>
<name>lpbhm157</name>
<cmt>v</cmt>
<desc>Hombourg Sentier n°157 Rue de Lattenheuer / Sandweg</desc>
<link href="https://chemins.be/hombourg/sentier/157"/><trkseg>
<trkpt lat="50.731755" lon="5.946339"><time>2026-05-06T20:18:17Z</time></trkpt>
<trkpt lat="50.731477" lon="5.946436"><time>2026-05-06T20:28:17Z</time></trkpt>
</trkseg></trk>
<trk>
<name>lpbhm157</name>
<cmt>d</cmt>
<desc>Hombourg Sentier n°157 Rue de Lattenheuer / Sandweg</desc>
<link href="https://chemins.be/hombourg/sentier/157"/><trkseg>
<trkpt lat="50.731477" lon="5.946436"><time>2026-05-06T20:28:17Z</time></trkpt>
<trkpt lat="50.731028" lon="5.946794"><time>2026-05-06T20:38:17Z</time></trkpt>
<trkpt lat="50.729878" lon="5.946351"><time>2026-05-06T20:48:17Z</time></trkpt>
<trkpt lat="50.729329" lon="5.945935"><time>2026-05-06T20:58:17Z</time></trkpt>
</trkseg></trk>
<trk>
<name>lpbhm157</name>
<cmt>v</cmt>
<desc>Hombourg Sentier n°157 Rue de Lattenheuer / Sandweg</desc>
<link href="https://chemins.be/hombourg/sentier/157"/><trkseg>
<trkpt lat="50.729329" lon="5.945935"><time>2026-05-06T20:58:17Z</time></trkpt>
<trkpt lat="50.728804" lon="5.945950"><time>2026-05-06T21:08:17Z</time></trkpt>
<trkpt lat="50.728093" lon="5.945971"><time>2026-05-06T21:18:17Z</time></trkpt>
</trkseg>
</trk>
<trk>
<name>lpbhm158</name>
<cmt>d</cmt>
<desc>Hombourg Sentier n°158 </desc>
<link href="https://chemins.be/hombourg/sentier/158"/><trkseg>
<trkpt lat="50.730328" lon="5.935972"><time>2026-05-06T18:28:17Z</time></trkpt>
<trkpt lat="50.730700" lon="5.937331"><time>2026-05-06T18:38:17Z</time></trkpt>
<trkpt lat="50.731066" lon="5.938325"><time>2026-05-06T18:48:17Z</time></trkpt>
<trkpt lat="50.730993" lon="5.938400"><time>2026-05-06T18:58:17Z</time></trkpt>
<trkpt lat="50.731908" lon="5.942566"><time>2026-05-06T19:08:17Z</time></trkpt>
</trkseg></trk>
<trk>
<name>lpbhm158</name>
<cmt>v</cmt>
<desc>Hombourg Sentier n°158 </desc>
<link href="https://chemins.be/hombourg/sentier/158"/><trkseg>
<trkpt lat="50.731908" lon="5.942566"><time>2026-05-06T19:08:17Z</time></trkpt>
<trkpt lat="50.731698" lon="5.942966"><time>2026-05-06T19:18:17Z</time></trkpt>
<trkpt lat="50.732005" lon="5.944268"><time>2026-05-06T19:28:17Z</time></trkpt>
<trkpt lat="50.731997" lon="5.944589"><time>2026-05-06T19:38:17Z</time></trkpt>
</trkseg></trk>
<trk>
<name>lpbhm158</name>
<cmt>d</cmt>
<desc>Hombourg Sentier n°158 </desc>
<link href="https://chemins.be/hombourg/sentier/158"/><trkseg>
<trkpt lat="50.731997" lon="5.944589"><time>2026-05-06T19:38:17Z</time></trkpt>
<trkpt lat="50.732848" lon="5.945690"><time>2026-05-06T19:48:17Z</time></trkpt>
<trkpt lat="50.732997" lon="5.945368"><time>2026-05-06T19:58:17Z</time></trkpt>
<trkpt lat="50.734432" lon="5.946937"><time>2026-05-06T20:08:17Z</time></trkpt>
<trkpt lat="50.734876" lon="5.947853"><time>2026-05-06T20:18:17Z</time></trkpt>
<trkpt lat="50.735831" lon="5.949932"><time>2026-05-06T20:28:17Z</time></trkpt>
</trkseg></trk>
<trk>
<name>lpbhm158</name>
<cmt>v</cmt>
<desc>Hombourg Sentier n°158 </desc>
<link href="https://chemins.be/hombourg/sentier/158"/><trkseg>
<trkpt lat="50.735831" lon="5.949932"><time>2026-05-06T20:28:17Z</time></trkpt>
<trkpt lat="50.736175" lon="5.950282"><time>2026-05-06T20:38:17Z</time></trkpt>
</trkseg></trk>
<trk>
<name>lpbhm158</name>
<cmt>d</cmt>
<desc>Hombourg Sentier n°158 </desc>
<link href="https://chemins.be/hombourg/sentier/158"/><trkseg>
<trkpt lat="50.736175" lon="5.950282"><time>2026-05-06T20:38:17Z</time></trkpt>
<trkpt lat="50.736411" lon="5.950611"><time>2026-05-06T20:48:17Z</time></trkpt>
<trkpt lat="50.736743" lon="5.951621"><time>2026-05-06T20:58:17Z</time></trkpt>
</trkseg></trk>
<trk>
<name>lpbhm158</name>
<cmt>s</cmt>
<desc>Hombourg Sentier n°158 </desc>
<link href="https://chemins.be/hombourg/sentier/158"/><trkseg>
<trkpt lat="50.736743" lon="5.951621"><time>2026-05-06T20:58:17Z</time></trkpt>
<trkpt lat="50.737128" lon="5.952165"><time>2026-05-06T21:08:17Z</time></trkpt>
</trkseg></trk>
<trk>
<name>lpbhm158</name>
<cmt>d</cmt>
<desc>Hombourg Sentier n°158 </desc>
<link href="https://chemins.be/hombourg/sentier/158"/><trkseg>
<trkpt lat="50.737128" lon="5.952165"><time>2026-05-06T21:08:17Z</time></trkpt>
<trkpt lat="50.737248" lon="5.953412"><time>2026-05-06T21:18:17Z</time></trkpt>
</trkseg></trk>
<trk>
<name>lpbhm158</name>
<cmt>v</cmt>
<desc>Hombourg Sentier n°158 </desc>
<link href="https://chemins.be/hombourg/sentier/158"/><trkseg>
<trkpt lat="50.737248" lon="5.953412"><time>2026-05-06T21:18:17Z</time></trkpt>
<trkpt lat="50.737313" lon="5.954086"><time>2026-05-06T21:28:17Z</time></trkpt>
</trkseg></trk>
<trk>
<name>lpbhm158</name>
<cmt>s</cmt>
<desc>Hombourg Sentier n°158 </desc>
<link href="https://chemins.be/hombourg/sentier/158"/><trkseg>
<trkpt lat="50.737313" lon="5.954086"><time>2026-05-06T21:28:17Z</time></trkpt>
<trkpt lat="50.737384" lon="5.954817"><time>2026-05-06T21:38:17Z</time></trkpt>
</trkseg></trk>
<trk>
<name>lpbhm158</name>
<cmt>v</cmt>
<desc>Hombourg Sentier n°158 </desc>
<link href="https://chemins.be/hombourg/sentier/158"/><trkseg>
<trkpt lat="50.737384" lon="5.954817"><time>2026-05-06T21:38:17Z</time></trkpt>
<trkpt lat="50.737504" lon="5.956063"><time>2026-05-06T21:48:17Z</time></trkpt>
</trkseg></trk>
<trk>
<name>lpbhm158</name>
<cmt>b</cmt>
<desc>Hombourg Sentier n°158 </desc>
<link href="https://chemins.be/hombourg/sentier/158"/><trkseg>
<trkpt lat="50.737504" lon="5.956063"><time>2026-05-06T21:48:17Z</time></trkpt>
<trkpt lat="50.738271" lon="5.958407"><time>2026-05-06T21:58:17Z</time></trkpt>
</trkseg></trk>
<trk>
<name>lpbhm158</name>
<cmt>r</cmt>
<desc>Hombourg Sentier n°158 </desc>
<link href="https://chemins.be/hombourg/sentier/158"/><trkseg>
<trkpt lat="50.738271" lon="5.958407"><time>2026-05-06T21:58:17Z</time></trkpt>
<trkpt lat="50.738685" lon="5.959089"><time>2026-05-06T22:08:17Z</time></trkpt>
</trkseg></trk>
<trk>
<name>lpbhm158</name>
<cmt>s</cmt>
<desc>Hombourg Sentier n°158 </desc>
<link href="https://chemins.be/hombourg/sentier/158"/><trkseg>
<trkpt lat="50.738685" lon="5.959089"><time>2026-05-06T22:08:17Z</time></trkpt>
<trkpt lat="50.738554" lon="5.959160"><time>2026-05-06T22:18:17Z</time></trkpt>
<trkpt lat="50.739367" lon="5.961471"><time>2026-05-06T22:28:17Z</time></trkpt>
<trkpt lat="50.740165" lon="5.962865"><time>2026-05-06T22:38:17Z</time></trkpt>
<trkpt lat="50.740500" lon="5.963631"><time>2026-05-06T22:48:17Z</time></trkpt>
<trkpt lat="50.740464" lon="5.965397"><time>2026-05-06T22:58:17Z</time></trkpt>
<trkpt lat="50.740206" lon="5.967643"><time>2026-05-06T23:08:17Z</time></trkpt>
<trkpt lat="50.739586" lon="5.968301"><time>2026-05-06T23:18:17Z</time></trkpt>
</trkseg>
</trk>
<trk>
<name>lpbhm158bis</name>
<cmt>d</cmt>
<desc>Hombourg Sentier n°158bis </desc>
<link href="https://chemins.be/hombourg/sentier/158bis"/><trkseg>
<trkpt lat="50.739712" lon="5.965890"><time>2026-05-06T18:28:17Z</time></trkpt>
<trkpt lat="50.739531" lon="5.966398"><time>2026-05-06T18:38:17Z</time></trkpt>
<trkpt lat="50.739588" lon="5.968300"><time>2026-05-06T18:48:17Z</time></trkpt>
</trkseg>
</trk>
<trk>
<name>lpbhm158ter</name>
<cmt>d</cmt>
<desc>Hombourg Sentier n°158ter </desc>
<link href="https://chemins.be/hombourg/sentier/158ter"/><trkseg>
<trkpt lat="50.737280" lon="5.956104"><time>2026-05-06T18:28:17Z</time></trkpt>
<trkpt lat="50.737432" lon="5.958353"><time>2026-05-06T18:38:17Z</time></trkpt>
</trkseg>
</trk>
<trk>
<name>lpbhm159</name>
<cmt>s</cmt>
<desc>Hombourg Sentier n°159 </desc>
<link href="https://chemins.be/hombourg/sentier/159"/><trkseg>
<trkpt lat="50.733000" lon="5.945416"><time>2026-05-06T18:28:17Z</time></trkpt>
<trkpt lat="50.733004" lon="5.947579"><time>2026-05-06T18:38:17Z</time></trkpt>
<trkpt lat="50.733787" lon="5.950547"><time>2026-05-06T18:48:17Z</time></trkpt>
</trkseg></trk>
<trk>
<name>lpbhm159</name>
<cmt>d</cmt>
<desc>Hombourg Sentier n°159 </desc>
<link href="https://chemins.be/hombourg/sentier/159"/><trkseg>
<trkpt lat="50.733787" lon="5.950547"><time>2026-05-06T18:48:17Z</time></trkpt>
<trkpt lat="50.733954" lon="5.951219"><time>2026-05-06T18:58:17Z</time></trkpt>
<trkpt lat="50.734051" lon="5.952427"><time>2026-05-06T19:08:17Z</time></trkpt>
<trkpt lat="50.734103" lon="5.953084"><time>2026-05-06T19:18:17Z</time></trkpt>
</trkseg>
</trk>
<trk>
<name>lpbhm16</name>
<cmt>q</cmt>
<desc>Hombourg Chemin n°16 </desc>
<link href="https://chemins.be/hombourg/chemin/16"/><trkseg>
<trkpt lat="50.730618" lon="5.882102"><time>2026-05-06T18:28:17Z</time></trkpt>
<trkpt lat="50.731847" lon="5.884359"><time>2026-05-06T18:38:17Z</time></trkpt>
<trkpt lat="50.732571" lon="5.886455"><time>2026-05-06T18:48:17Z</time></trkpt>
<trkpt lat="50.736473" lon="5.888057"><time>2026-05-06T18:58:17Z</time></trkpt>
<trkpt lat="50.737554" lon="5.889193"><time>2026-05-06T19:08:17Z</time></trkpt>
<trkpt lat="50.738918" lon="5.891018"><time>2026-05-06T19:18:17Z</time></trkpt>
</trkseg></trk>
<trk>
<name>lpbhm16</name>
<cmt>s</cmt>
<desc>Hombourg Chemin n°16 </desc>
<link href="https://chemins.be/hombourg/chemin/16"/><trkseg>
<trkpt lat="50.738918" lon="5.891018"><time>2026-05-06T19:18:17Z</time></trkpt>
<trkpt lat="50.739769" lon="5.891075"><time>2026-05-06T19:28:17Z</time></trkpt>
<trkpt lat="50.741579" lon="5.889330"><time>2026-05-06T19:38:17Z</time></trkpt>
<trkpt lat="50.742557" lon="5.890946"><time>2026-05-06T19:48:17Z</time></trkpt>
</trkseg></trk>
<trk>
<name>lpbhm16</name>
<cmt>q</cmt>
<desc>Hombourg Chemin n°16 </desc>
<link href="https://chemins.be/hombourg/chemin/16"/><trkseg>
<trkpt lat="50.742557" lon="5.890946"><time>2026-05-06T19:48:17Z</time></trkpt>
<trkpt lat="50.742638" lon="5.892320"><time>2026-05-06T19:58:17Z</time></trkpt>
<trkpt lat="50.743263" lon="5.894061"><time>2026-05-06T20:08:17Z</time></trkpt>
<trkpt lat="50.743098" lon="5.895034"><time>2026-05-06T20:18:17Z</time></trkpt>
<trkpt lat="50.743252" lon="5.895474"><time>2026-05-06T20:28:17Z</time></trkpt>
<trkpt lat="50.743795" lon="5.895427"><time>2026-05-06T20:38:17Z</time></trkpt>
<trkpt lat="50.744436" lon="5.897203"><time>2026-05-06T20:48:17Z</time></trkpt>
</trkseg>
</trk>
<trk>
<name>lpbhm160</name>
<cmt>v</cmt>
<desc>Hombourg Sentier n°160 </desc>
<link href="https://chemins.be/hombourg/sentier/160"/><trkseg>
<trkpt lat="50.733760" lon="5.953408"><time>2026-05-06T18:28:17Z</time></trkpt>
<trkpt lat="50.732981" lon="5.952457"><time>2026-05-06T18:38:17Z</time></trkpt>
<trkpt lat="50.732411" lon="5.951198"><time>2026-05-06T18:48:17Z</time></trkpt>
<trkpt lat="50.730164" lon="5.947595"><time>2026-05-06T18:58:17Z</time></trkpt>
<trkpt lat="50.730021" lon="5.947300"><time>2026-05-06T19:08:17Z</time></trkpt>
<trkpt lat="50.729769" lon="5.945889"><time>2026-05-06T19:18:17Z</time></trkpt>
<trkpt lat="50.730428" lon="5.940197"><time>2026-05-06T19:28:17Z</time></trkpt>
<trkpt lat="50.730573" lon="5.939925"><time>2026-05-06T19:38:17Z</time></trkpt>
</trkseg></trk>
<trk>
<name>lpbhm160</name>
<cmt>d</cmt>
<desc>Hombourg Sentier n°160 </desc>
<link href="https://chemins.be/hombourg/sentier/160"/><trkseg>
<trkpt lat="50.730573" lon="5.939925"><time>2026-05-06T19:38:17Z</time></trkpt>
<trkpt lat="50.730999" lon="5.938759"><time>2026-05-06T19:48:17Z</time></trkpt>
</trkseg>
</trk>
<trk>
<name>lpbhm161</name>
<cmt>s</cmt>
<desc>Hombourg Sentier n°161 Panquet / Rue de Bamisch</desc>
<link href="https://chemins.be/hombourg/sentier/161"/><trkseg>
<trkpt lat="50.738626" lon="5.935446"><time>2026-05-06T18:28:17Z</time></trkpt>
<trkpt lat="50.737985" lon="5.936234"><time>2026-05-06T18:38:17Z</time></trkpt>
</trkseg></trk>
<trk>
<name>lpbhm161</name>
<cmt>d</cmt>
<desc>Hombourg Sentier n°161 Panquet / Rue de Bamisch</desc>
<link href="https://chemins.be/hombourg/sentier/161"/><trkseg>
<trkpt lat="50.737985" lon="5.936234"><time>2026-05-06T18:38:17Z</time></trkpt>
<trkpt lat="50.737983" lon="5.936250"><time>2026-05-06T18:48:17Z</time></trkpt>
<trkpt lat="50.734923" lon="5.938164"><time>2026-05-06T18:58:17Z</time></trkpt>
<trkpt lat="50.733454" lon="5.939447"><time>2026-05-06T19:08:17Z</time></trkpt>
</trkseg></trk>
<trk>
<name>lpbhm161</name>
<cmt>r</cmt>
<desc>Hombourg Sentier n°161 Panquet / Rue de Bamisch</desc>
<link href="https://chemins.be/hombourg/sentier/161"/><trkseg>
<trkpt lat="50.733454" lon="5.939447"><time>2026-05-06T19:08:17Z</time></trkpt>
<trkpt lat="50.733003" lon="5.939923"><time>2026-05-06T19:18:17Z</time></trkpt>
<trkpt lat="50.732831" lon="5.940882"><time>2026-05-06T19:28:17Z</time></trkpt>
<trkpt lat="50.731978" lon="5.942413"><time>2026-05-06T19:38:17Z</time></trkpt>
</trkseg></trk>
<trk>
<name>lpbhm161</name>
<cmt>v</cmt>
<desc>Hombourg Sentier n°161 Panquet / Rue de Bamisch</desc>
<link href="https://chemins.be/hombourg/sentier/161"/><trkseg>
<trkpt lat="50.731978" lon="5.942413"><time>2026-05-06T19:38:17Z</time></trkpt>
<trkpt lat="50.731915" lon="5.942535"><time>2026-05-06T19:48:17Z</time></trkpt>
<trkpt lat="50.731709" lon="5.942948"><time>2026-05-06T19:58:17Z</time></trkpt>
<trkpt lat="50.732039" lon="5.944343"><time>2026-05-06T20:08:17Z</time></trkpt>
<trkpt lat="50.732008" lon="5.944565"><time>2026-05-06T20:18:17Z</time></trkpt>
<trkpt lat="50.731734" lon="5.945417"><time>2026-05-06T20:28:17Z</time></trkpt>
<trkpt lat="50.731376" lon="5.946486"><time>2026-05-06T20:38:17Z</time></trkpt>
</trkseg></trk>
<trk>
<name>lpbhm161</name>
<cmt>d</cmt>
<desc>Hombourg Sentier n°161 Panquet / Rue de Bamisch</desc>
<link href="https://chemins.be/hombourg/sentier/161"/><trkseg>
<trkpt lat="50.731376" lon="5.946486"><time>2026-05-06T20:38:17Z</time></trkpt>
<trkpt lat="50.730168" lon="5.947561"><time>2026-05-06T20:48:17Z</time></trkpt>
<trkpt lat="50.730368" lon="5.948068"><time>2026-05-06T20:58:17Z</time></trkpt>
<trkpt lat="50.729901" lon="5.949276"><time>2026-05-06T21:08:17Z</time></trkpt>
</trkseg></trk>
<trk>
<name>lpbhm161</name>
<cmt>v</cmt>
<desc>Hombourg Sentier n°161 Panquet / Rue de Bamisch</desc>
<link href="https://chemins.be/hombourg/sentier/161"/><trkseg>
<trkpt lat="50.729901" lon="5.949276"><time>2026-05-06T21:08:17Z</time></trkpt>
<trkpt lat="50.729652" lon="5.949362"><time>2026-05-06T21:18:17Z</time></trkpt>
<trkpt lat="50.729373" lon="5.949738"><time>2026-05-06T21:28:17Z</time></trkpt>
</trkseg>
</trk>
<trk>
<name>lpbhm162</name>
<cmt>d</cmt>
<desc>Hombourg Sentier n°162 </desc>
<link href="https://chemins.be/hombourg/sentier/162"/><trkseg>
<trkpt lat="50.732720" lon="5.938604"><time>2026-05-06T18:28:17Z</time></trkpt>
<trkpt lat="50.732915" lon="5.938697"><time>2026-05-06T18:38:17Z</time></trkpt>
<trkpt lat="50.733445" lon="5.939369"><time>2026-05-06T18:48:17Z</time></trkpt>
</trkseg>
</trk>
<trk>
<name>lpbhm163</name>
<cmt>d</cmt>
<desc>Hombourg Sentier n°163 </desc>
<link href="https://chemins.be/hombourg/sentier/163"/><trkseg>
<trkpt lat="50.729767" lon="5.945798"><time>2026-05-06T18:28:17Z</time></trkpt>
<trkpt lat="50.729509" lon="5.941942"><time>2026-05-06T18:38:17Z</time></trkpt>
<trkpt lat="50.729001" lon="5.939014"><time>2026-05-06T18:48:17Z</time></trkpt>
<trkpt lat="50.728541" lon="5.938588"><time>2026-05-06T18:58:17Z</time></trkpt>
<trkpt lat="50.728097" lon="5.938516"><time>2026-05-06T19:08:17Z</time></trkpt>
<trkpt lat="50.727549" lon="5.937715"><time>2026-05-06T19:18:17Z</time></trkpt>
<trkpt lat="50.726173" lon="5.936263"><time>2026-05-06T19:28:17Z</time></trkpt>
</trkseg>
</trk>
<trk>
<name>lpbhm164</name>
<cmt>d</cmt>
<desc>Hombourg Sentier n°164 </desc>
<link href="https://chemins.be/hombourg/sentier/164"/><trkseg>
<trkpt lat="50.729026" lon="5.939032"><time>2026-05-06T18:28:17Z</time></trkpt>
<trkpt lat="50.729431" lon="5.939372"><time>2026-05-06T18:38:17Z</time></trkpt>
<trkpt lat="50.730514" lon="5.938938"><time>2026-05-06T18:48:17Z</time></trkpt>
<trkpt lat="50.731036" lon="5.938728"><time>2026-05-06T18:58:17Z</time></trkpt>
</trkseg>
</trk>
<trk>
<name>lpbhm165</name>
<cmt>s</cmt>
<desc>Hombourg Sentier n°165 </desc>
<link href="https://chemins.be/hombourg/sentier/165"/><trkseg>
<trkpt lat="50.725822" lon="5.932712"><time>2026-05-06T18:28:17Z</time></trkpt>
<trkpt lat="50.725731" lon="5.932791"><time>2026-05-06T18:38:17Z</time></trkpt>
<trkpt lat="50.725729" lon="5.933469"><time>2026-05-06T18:48:17Z</time></trkpt>
<trkpt lat="50.725722" lon="5.935072"><time>2026-05-06T18:58:17Z</time></trkpt>
<trkpt lat="50.725066" lon="5.936238"><time>2026-05-06T19:08:17Z</time></trkpt>
<trkpt lat="50.724853" lon="5.937998"><time>2026-05-06T19:18:17Z</time></trkpt>
</trkseg>
</trk>
<trk>
<name>lpbhm166</name>
<cmt>v</cmt>
<desc>Hombourg Sentier n°166 </desc>
<link href="https://chemins.be/hombourg/sentier/166"/><trkseg>
<trkpt lat="50.728916" lon="5.943065"><time>2026-05-06T18:28:17Z</time></trkpt>
<trkpt lat="50.728765" lon="5.943996"><time>2026-05-06T18:38:17Z</time></trkpt>
<trkpt lat="50.728667" lon="5.945459"><time>2026-05-06T18:48:17Z</time></trkpt>
<trkpt lat="50.728735" lon="5.945959"><time>2026-05-06T18:58:17Z</time></trkpt>
</trkseg>
</trk>
<trk>
<name>lpbhm166bis</name>
<cmt>d</cmt>
<desc>Hombourg Sentier n°166bis </desc>
<link href="https://chemins.be/hombourg/sentier/166bis"/><trkseg>
<trkpt lat="50.726358" lon="5.931371"><time>2026-05-06T18:28:17Z</time></trkpt>
<trkpt lat="50.726745" lon="5.932340"><time>2026-05-06T18:38:17Z</time></trkpt>
</trkseg></trk>
<trk>
<name>lpbhm166bis</name>
<cmt>s</cmt>
<desc>Hombourg Sentier n°166bis </desc>
<link href="https://chemins.be/hombourg/sentier/166bis"/><trkseg>
<trkpt lat="50.726745" lon="5.932340"><time>2026-05-06T18:38:17Z</time></trkpt>
<trkpt lat="50.727094" lon="5.933216"><time>2026-05-06T18:48:17Z</time></trkpt>
</trkseg></trk>
<trk>
<name>lpbhm166bis</name>
<cmt>d</cmt>
<desc>Hombourg Sentier n°166bis </desc>
<link href="https://chemins.be/hombourg/sentier/166bis"/><trkseg>
<trkpt lat="50.727094" lon="5.933216"><time>2026-05-06T18:48:17Z</time></trkpt>
<trkpt lat="50.727377" lon="5.933924"><time>2026-05-06T18:58:17Z</time></trkpt>
<trkpt lat="50.727753" lon="5.935305"><time>2026-05-06T19:08:17Z</time></trkpt>
</trkseg>
</trk>
<trk>
<name>lpbhm167</name>
<cmt>d</cmt>
<desc>Hombourg Sentier n°167   / Chemin de Hoppisch</desc>
<link href="https://chemins.be/hombourg/sentier/167"/><trkseg>
<trkpt lat="50.719904" lon="5.934505"><time>2026-05-06T18:28:17Z</time></trkpt>
<trkpt lat="50.721957" lon="5.934198"><time>2026-05-06T18:38:17Z</time></trkpt>
</trkseg></trk>
<trk>
<name>lpbhm167</name>
<cmt>q</cmt>
<desc>Hombourg Sentier n°167   / Chemin de Hoppisch</desc>
<link href="https://chemins.be/hombourg/sentier/167"/><trkseg>
<trkpt lat="50.721957" lon="5.934198"><time>2026-05-06T18:38:17Z</time></trkpt>
<trkpt lat="50.722835" lon="5.932558"><time>2026-05-06T18:48:17Z</time></trkpt>
</trkseg></trk>
<trk>
<name>lpbhm167</name>
<cmt>d</cmt>
<desc>Hombourg Sentier n°167   / Chemin de Hoppisch</desc>
<link href="https://chemins.be/hombourg/sentier/167"/><trkseg>
<trkpt lat="50.722835" lon="5.932558"><time>2026-05-06T18:48:17Z</time></trkpt>
<trkpt lat="50.723433" lon="5.932844"><time>2026-05-06T18:58:17Z</time></trkpt>
<trkpt lat="50.724091" lon="5.933559"><time>2026-05-06T19:08:17Z</time></trkpt>
</trkseg></trk>
<trk>
<name>lpbhm167</name>
<cmt>v</cmt>
<desc>Hombourg Sentier n°167   / Chemin de Hoppisch</desc>
<link href="https://chemins.be/hombourg/sentier/167"/><trkseg>
<trkpt lat="50.724091" lon="5.933559"><time>2026-05-06T19:08:17Z</time></trkpt>
<trkpt lat="50.724546" lon="5.934058"><time>2026-05-06T19:18:17Z</time></trkpt>
<trkpt lat="50.725119" lon="5.933697"><time>2026-05-06T19:28:17Z</time></trkpt>
</trkseg></trk>
<trk>
<name>lpbhm167</name>
<cmt>s</cmt>
<desc>Hombourg Sentier n°167   / Chemin de Hoppisch</desc>
<link href="https://chemins.be/hombourg/sentier/167"/><trkseg>
<trkpt lat="50.725119" lon="5.933697"><time>2026-05-06T19:28:17Z</time></trkpt>
<trkpt lat="50.725738" lon="5.935104"><time>2026-05-06T19:38:17Z</time></trkpt>
</trkseg>
</trk>
<trk>
<name>lpbhm168</name>
<cmt>d</cmt>
<desc>Hombourg Sentier n°168 </desc>
<link href="https://chemins.be/hombourg/sentier/168"/><trkseg>
<trkpt lat="50.738473" lon="5.958715"><time>2026-05-06T18:28:17Z</time></trkpt>
<trkpt lat="50.738948" lon="5.959130"><time>2026-05-06T18:38:17Z</time></trkpt>
<trkpt lat="50.739392" lon="5.959924"><time>2026-05-06T18:48:17Z</time></trkpt>
<trkpt lat="50.740071" lon="5.961733"><time>2026-05-06T18:58:17Z</time></trkpt>
<trkpt lat="50.740710" lon="5.962744"><time>2026-05-06T19:08:17Z</time></trkpt>
<trkpt lat="50.741321" lon="5.963101"><time>2026-05-06T19:18:17Z</time></trkpt>
<trkpt lat="50.742020" lon="5.963116"><time>2026-05-06T19:28:17Z</time></trkpt>
<trkpt lat="50.742130" lon="5.963826"><time>2026-05-06T19:38:17Z</time></trkpt>
</trkseg>
</trk>
<trk>
<name>lpbhm169</name>
<cmt>d</cmt>
<desc>Hombourg Sentier n°169 </desc>
<link href="https://chemins.be/hombourg/sentier/169"/><trkseg>
<trkpt lat="50.742127" lon="5.963820"><time>2026-05-06T18:28:17Z</time></trkpt>
<trkpt lat="50.741950" lon="5.964003"><time>2026-05-06T18:38:17Z</time></trkpt>
<trkpt lat="50.740821" lon="5.966445"><time>2026-05-06T18:48:17Z</time></trkpt>
<trkpt lat="50.740147" lon="5.967679"><time>2026-05-06T18:58:17Z</time></trkpt>
</trkseg>
</trk>
<trk>
<name>lpbhm17</name>
<cmt>r</cmt>
<desc>Hombourg Chemin n°17 Pannesweide / Driesschen / Smidt</desc>
<link href="https://chemins.be/hombourg/chemin/17"/><trkseg>
<trkpt lat="50.723718" lon="5.905613"><time>2026-05-06T18:28:17Z</time></trkpt>
<trkpt lat="50.724818" lon="5.903102"><time>2026-05-06T18:38:17Z</time></trkpt>
<trkpt lat="50.725047" lon="5.901968"><time>2026-05-06T18:48:17Z</time></trkpt>
</trkseg></trk>
<trk>
<name>lpbhm17</name>
<cmt>v</cmt>
<desc>Hombourg Chemin n°17 Pannesweide / Driesschen / Smidt</desc>
<link href="https://chemins.be/hombourg/chemin/17"/><trkseg>
<trkpt lat="50.725047" lon="5.901968"><time>2026-05-06T18:48:17Z</time></trkpt>
<trkpt lat="50.725294" lon="5.900913"><time>2026-05-06T18:58:17Z</time></trkpt>
<trkpt lat="50.724860" lon="5.899918"><time>2026-05-06T19:08:17Z</time></trkpt>
<trkpt lat="50.724840" lon="5.899135"><time>2026-05-06T19:18:17Z</time></trkpt>
<trkpt lat="50.724932" lon="5.898685"><time>2026-05-06T19:28:17Z</time></trkpt>
<trkpt lat="50.724538" lon="5.897907"><time>2026-05-06T19:38:17Z</time></trkpt>
<trkpt lat="50.724371" lon="5.897048"><time>2026-05-06T19:48:17Z</time></trkpt>
<trkpt lat="50.725516" lon="5.896431"><time>2026-05-06T19:58:17Z</time></trkpt>
<trkpt lat="50.726030" lon="5.895172"><time>2026-05-06T20:08:17Z</time></trkpt>
</trkseg></trk>
<trk>
<name>lpbhm17</name>
<cmt>r</cmt>
<desc>Hombourg Chemin n°17 Pannesweide / Driesschen / Smidt</desc>
<link href="https://chemins.be/hombourg/chemin/17"/><trkseg>
<trkpt lat="50.726030" lon="5.895172"><time>2026-05-06T20:08:17Z</time></trkpt>
<trkpt lat="50.727973" lon="5.891114"><time>2026-05-06T20:18:17Z</time></trkpt>
<trkpt lat="50.727991" lon="5.889455"><time>2026-05-06T20:28:17Z</time></trkpt>
<trkpt lat="50.728326" lon="5.888482"><time>2026-05-06T20:38:17Z</time></trkpt>
<trkpt lat="50.728760" lon="5.888139"><time>2026-05-06T20:48:17Z</time></trkpt>
<trkpt lat="50.729060" lon="5.887448"><time>2026-05-06T20:58:17Z</time></trkpt>
<trkpt lat="50.729391" lon="5.885942"><time>2026-05-06T21:08:17Z</time></trkpt>
<trkpt lat="50.729405" lon="5.885638"><time>2026-05-06T21:18:17Z</time></trkpt>
</trkseg></trk>
<trk>
<name>lpbhm17</name>
<cmt>s</cmt>
<desc>Hombourg Chemin n°17 Pannesweide / Driesschen / Smidt</desc>
<link href="https://chemins.be/hombourg/chemin/17"/><trkseg>
<trkpt lat="50.729405" lon="5.885638"><time>2026-05-06T21:18:17Z</time></trkpt>
<trkpt lat="50.729694" lon="5.883982"><time>2026-05-06T21:28:17Z</time></trkpt>
<trkpt lat="50.730625" lon="5.882032"><time>2026-05-06T21:38:17Z</time></trkpt>
</trkseg></trk>
<trk>
<name>lpbhm17</name>
<cmt>r</cmt>
<desc>Hombourg Chemin n°17 Pannesweide / Driesschen / Smidt</desc>
<link href="https://chemins.be/hombourg/chemin/17"/><trkseg>
<trkpt lat="50.730625" lon="5.882032"><time>2026-05-06T21:38:17Z</time></trkpt>
<trkpt lat="50.731476" lon="5.880845"><time>2026-05-06T21:48:17Z</time></trkpt>
</trkseg>
</trk>
<trk>
<name>lpbhm170</name>
<cmt>v</cmt>
<desc>Hombourg Sentier n°170 Chemin de Gensterhof</desc>
<link href="https://chemins.be/hombourg/sentier/170"/><trkseg>
<trkpt lat="50.740826" lon="5.966438"><time>2026-05-06T18:28:17Z</time></trkpt>
<trkpt lat="50.740425" lon="5.966560"><time>2026-05-06T18:38:17Z</time></trkpt>
<trkpt lat="50.739956" lon="5.966184"><time>2026-05-06T18:48:17Z</time></trkpt>
</trkseg></trk>
<trk>
<name>lpbhm170</name>
<cmt>r</cmt>
<desc>Hombourg Sentier n°170 Chemin de Gensterhof</desc>
<link href="https://chemins.be/hombourg/sentier/170"/><trkseg>
<trkpt lat="50.739956" lon="5.966184"><time>2026-05-06T18:48:17Z</time></trkpt>
<trkpt lat="50.739652" lon="5.965844"><time>2026-05-06T18:58:17Z</time></trkpt>
<trkpt lat="50.739331" lon="5.965530"><time>2026-05-06T19:08:17Z</time></trkpt>
</trkseg>
</trk>
<trk>
<name>lpbhm171</name>
<cmt>d</cmt>
<desc>Hombourg Sentier n°171 </desc>
<link href="https://chemins.be/hombourg/sentier/171"/><trkseg>
<trkpt lat="50.742785" lon="5.945326"><time>2026-05-06T18:28:17Z</time></trkpt>
<trkpt lat="50.743734" lon="5.947128"><time>2026-05-06T18:38:17Z</time></trkpt>
<trkpt lat="50.743912" lon="5.947312"><time>2026-05-06T18:48:17Z</time></trkpt>
<trkpt lat="50.745516" lon="5.949582"><time>2026-05-06T18:58:17Z</time></trkpt>
</trkseg>
</trk>
<trk>
<name>lpbhm172</name>
<cmt>d</cmt>
<desc>Hombourg Sentier n°172 </desc>
<link href="https://chemins.be/hombourg/sentier/172"/><trkseg>
<trkpt lat="50.743764" lon="5.947112"><time>2026-05-06T18:28:17Z</time></trkpt>
<trkpt lat="50.744827" lon="5.945014"><time>2026-05-06T18:38:17Z</time></trkpt>
</trkseg>
</trk>
<trk>
<name>lpbhm173</name>
<cmt>s</cmt>
<desc>Hombourg Sentier n°173 </desc>
<link href="https://chemins.be/hombourg/sentier/173"/><trkseg>
<trkpt lat="50.745384" lon="5.949333"><time>2026-05-06T18:28:17Z</time></trkpt>
<trkpt lat="50.744878" lon="5.947949"><time>2026-05-06T18:38:17Z</time></trkpt>
<trkpt lat="50.744881" lon="5.945819"><time>2026-05-06T18:48:17Z</time></trkpt>
<trkpt lat="50.744803" lon="5.945041"><time>2026-05-06T18:58:17Z</time></trkpt>
</trkseg>
</trk>
<trk>
<name>lpbhm174</name>
<cmt>d</cmt>
<desc>Hombourg Sentier n°174 </desc>
<link href="https://chemins.be/hombourg/sentier/174"/><trkseg>
<trkpt lat="50.741119" lon="5.947997"><time>2026-05-06T18:28:17Z</time></trkpt>
<trkpt lat="50.739974" lon="5.948076"><time>2026-05-06T18:38:17Z</time></trkpt>
<trkpt lat="50.737635" lon="5.950196"><time>2026-05-06T18:48:17Z</time></trkpt>
<trkpt lat="50.737034" lon="5.950742"><time>2026-05-06T18:58:17Z</time></trkpt>
</trkseg></trk>
<trk>
<name>lpbhm174</name>
<cmt>q</cmt>
<desc>Hombourg Sentier n°174 </desc>
<link href="https://chemins.be/hombourg/sentier/174"/><trkseg>
<trkpt lat="50.737034" lon="5.950742"><time>2026-05-06T18:58:17Z</time></trkpt>
<trkpt lat="50.736749" lon="5.949519"><time>2026-05-06T19:08:17Z</time></trkpt>
<trkpt lat="50.736067" lon="5.950155"><time>2026-05-06T19:18:17Z</time></trkpt>
<trkpt lat="50.736418" lon="5.950567"><time>2026-05-06T19:28:17Z</time></trkpt>
<trkpt lat="50.736554" lon="5.950949"><time>2026-05-06T19:38:17Z</time></trkpt>
<trkpt lat="50.736255" lon="5.951090"><time>2026-05-06T19:48:17Z</time></trkpt>
</trkseg></trk>
<trk>
<name>lpbhm174</name>
<cmt>d</cmt>
<desc>Hombourg Sentier n°174 </desc>
<link href="https://chemins.be/hombourg/sentier/174"/><trkseg>
<trkpt lat="50.736255" lon="5.951090"><time>2026-05-06T19:48:17Z</time></trkpt>
<trkpt lat="50.734777" lon="5.952282"><time>2026-05-06T19:58:17Z</time></trkpt>
<trkpt lat="50.734072" lon="5.952850"><time>2026-05-06T20:08:17Z</time></trkpt>
</trkseg>
</trk>
<trk>
<name>lpbhm175</name>
<cmt>r</cmt>
<desc>Hombourg Sentier n°175 Braesberg</desc>
<link href="https://chemins.be/hombourg/sentier/175"/><trkseg>
<trkpt lat="50.738253" lon="5.958398"><time>2026-05-06T18:28:17Z</time></trkpt>
<trkpt lat="50.737933" lon="5.958659"><time>2026-05-06T18:38:17Z</time></trkpt>
</trkseg></trk>
<trk>
<name>lpbhm175</name>
<cmt>s</cmt>
<desc>Hombourg Sentier n°175 Braesberg</desc>
<link href="https://chemins.be/hombourg/sentier/175"/><trkseg>
<trkpt lat="50.737933" lon="5.958659"><time>2026-05-06T18:38:17Z</time></trkpt>
<trkpt lat="50.737280" lon="5.959477"><time>2026-05-06T18:48:17Z</time></trkpt>
<trkpt lat="50.736992" lon="5.959833"><time>2026-05-06T18:58:17Z</time></trkpt>
</trkseg>
</trk>
<trk>
<name>lpbhm176</name>
<cmt>d</cmt>
<desc>Hombourg Sentier n°176 Gulpen</desc>
<link href="https://chemins.be/hombourg/sentier/176"/><trkseg>
<trkpt lat="50.688504" lon="5.916452"><time>2026-05-06T18:28:17Z</time></trkpt>
<trkpt lat="50.689184" lon="5.918941"><time>2026-05-06T18:38:17Z</time></trkpt>
<trkpt lat="50.689676" lon="5.919811"><time>2026-05-06T18:48:17Z</time></trkpt>
</trkseg></trk>
<trk>
<name>lpbhm176</name>
<cmt>v</cmt>
<desc>Hombourg Sentier n°176 Gulpen</desc>
<link href="https://chemins.be/hombourg/sentier/176"/><trkseg>
<trkpt lat="50.689676" lon="5.919811"><time>2026-05-06T18:48:17Z</time></trkpt>
<trkpt lat="50.689971" lon="5.920252"><time>2026-05-06T18:58:17Z</time></trkpt>
<trkpt lat="50.690348" lon="5.920107"><time>2026-05-06T19:08:17Z</time></trkpt>
</trkseg></trk>
<trk>
<name>lpbhm176</name>
<cmt>s</cmt>
<desc>Hombourg Sentier n°176 Gulpen</desc>
<link href="https://chemins.be/hombourg/sentier/176"/><trkseg>
<trkpt lat="50.690348" lon="5.920107"><time>2026-05-06T19:08:17Z</time></trkpt>
<trkpt lat="50.690629" lon="5.920393"><time>2026-05-06T19:18:17Z</time></trkpt>
<trkpt lat="50.691480" lon="5.923605"><time>2026-05-06T19:28:17Z</time></trkpt>
<trkpt lat="50.691712" lon="5.924749"><time>2026-05-06T19:38:17Z</time></trkpt>
<trkpt lat="50.691443" lon="5.925502"><time>2026-05-06T19:48:17Z</time></trkpt>
</trkseg></trk>
<trk>
<name>lpbhm176</name>
<cmt>r</cmt>
<desc>Hombourg Sentier n°176 Gulpen</desc>
<link href="https://chemins.be/hombourg/sentier/176"/><trkseg>
<trkpt lat="50.691443" lon="5.925502"><time>2026-05-06T19:48:17Z</time></trkpt>
<trkpt lat="50.691227" lon="5.925543"><time>2026-05-06T19:58:17Z</time></trkpt>
</trkseg></trk>
<trk>
<name>lpbhm176</name>
<cmt>d</cmt>
<desc>Hombourg Sentier n°176 Gulpen</desc>
<link href="https://chemins.be/hombourg/sentier/176"/><trkseg>
<trkpt lat="50.691227" lon="5.925543"><time>2026-05-06T19:58:17Z</time></trkpt>
<trkpt lat="50.691277" lon="5.926137"><time>2026-05-06T20:08:17Z</time></trkpt>
<trkpt lat="50.691866" lon="5.927761"><time>2026-05-06T20:18:17Z</time></trkpt>
<trkpt lat="50.692768" lon="5.928097"><time>2026-05-06T20:28:17Z</time></trkpt>
<trkpt lat="50.693421" lon="5.928884"><time>2026-05-06T20:38:17Z</time></trkpt>
</trkseg>
</trk>
<trk>
<name>lpbhm177</name>
<cmt>r</cmt>
<desc>Hombourg Sentier n°177 Rue de Lattenheuer</desc>
<link href="https://chemins.be/hombourg/sentier/177"/><trkseg>
<trkpt lat="50.738264" lon="5.943181"><time>2026-05-06T18:28:17Z</time></trkpt>
<trkpt lat="50.737449" lon="5.944362"><time>2026-05-06T18:38:17Z</time></trkpt>
</trkseg></trk>
<trk>
<name>lpbhm177</name>
<cmt>d</cmt>
<desc>Hombourg Sentier n°177 Rue de Lattenheuer</desc>
<link href="https://chemins.be/hombourg/sentier/177"/><trkseg>
<trkpt lat="50.737449" lon="5.944362"><time>2026-05-06T18:38:17Z</time></trkpt>
<trkpt lat="50.737010" lon="5.946383"><time>2026-05-06T18:48:17Z</time></trkpt>
<trkpt lat="50.736344" lon="5.947900"><time>2026-05-06T18:58:17Z</time></trkpt>
</trkseg></trk>
<trk>
<name>lpbhm177</name>
<cmt>s</cmt>
<desc>Hombourg Sentier n°177 Rue de Lattenheuer</desc>
<link href="https://chemins.be/hombourg/sentier/177"/><trkseg>
<trkpt lat="50.736344" lon="5.947900"><time>2026-05-06T18:58:17Z</time></trkpt>
<trkpt lat="50.736286" lon="5.948059"><time>2026-05-06T19:08:17Z</time></trkpt>
</trkseg>
</trk>
<trk>
<name>lpbhm178</name>
<cmt>s</cmt>
<desc>Hombourg Sentier n°178 </desc>
<link href="https://chemins.be/hombourg/sentier/178"/><trkseg>
<trkpt lat="50.725111" lon="5.933842"><time>2026-05-06T18:28:17Z</time></trkpt>
<trkpt lat="50.724921" lon="5.934586"><time>2026-05-06T18:38:17Z</time></trkpt>
<trkpt lat="50.724255" lon="5.935430"><time>2026-05-06T18:48:17Z</time></trkpt>
<trkpt lat="50.724029" lon="5.936410"><time>2026-05-06T18:58:17Z</time></trkpt>
<trkpt lat="50.724004" lon="5.937549"><time>2026-05-06T19:08:17Z</time></trkpt>
</trkseg>
</trk>
<trk>
<name>lpbhm179</name>
<cmt>s</cmt>
<desc>Hombourg Sentier n°179 </desc>
<link href="https://chemins.be/hombourg/sentier/179"/><trkseg>
<trkpt lat="50.724841" lon="5.938136"><time>2026-05-06T18:28:17Z</time></trkpt>
<trkpt lat="50.724533" lon="5.936613"><time>2026-05-06T18:38:17Z</time></trkpt>
<trkpt lat="50.724150" lon="5.936355"><time>2026-05-06T18:48:17Z</time></trkpt>
<trkpt lat="50.723906" lon="5.935422"><time>2026-05-06T18:58:17Z</time></trkpt>
<trkpt lat="50.723423" lon="5.935031"><time>2026-05-06T19:08:17Z</time></trkpt>
</trkseg>
</trk>
<trk>
<name>lpbhm18</name>
<cmt>q</cmt>
<desc>Hombourg Chemin n°18 Neubau / Reesberg</desc>
<link href="https://chemins.be/hombourg/chemin/18"/><trkseg>
<trkpt lat="50.741955" lon="5.900724"><time>2026-05-06T18:28:17Z</time></trkpt>
<trkpt lat="50.741810" lon="5.899522"><time>2026-05-06T18:38:17Z</time></trkpt>
<trkpt lat="50.740977" lon="5.899208"><time>2026-05-06T18:48:17Z</time></trkpt>
<trkpt lat="50.739533" lon="5.900288"><time>2026-05-06T18:58:17Z</time></trkpt>
<trkpt lat="50.737800" lon="5.897687"><time>2026-05-06T19:08:17Z</time></trkpt>
<trkpt lat="50.737243" lon="5.896060"><time>2026-05-06T19:18:17Z</time></trkpt>
<trkpt lat="50.736387" lon="5.894823"><time>2026-05-06T19:28:17Z</time></trkpt>
</trkseg></trk>
<trk>
<name>lpbhm18</name>
<cmt>v</cmt>
<desc>Hombourg Chemin n°18 Neubau / Reesberg</desc>
<link href="https://chemins.be/hombourg/chemin/18"/><trkseg>
<trkpt lat="50.736387" lon="5.894823"><time>2026-05-06T19:28:17Z</time></trkpt>
<trkpt lat="50.735450" lon="5.893446"><time>2026-05-06T19:38:17Z</time></trkpt>
<trkpt lat="50.732978" lon="5.889745"><time>2026-05-06T19:48:17Z</time></trkpt>
</trkseg></trk>
<trk>
<name>lpbhm18</name>
<cmt>r</cmt>
<desc>Hombourg Chemin n°18 Neubau / Reesberg</desc>
<link href="https://chemins.be/hombourg/chemin/18"/><trkseg>
<trkpt lat="50.732978" lon="5.889745"><time>2026-05-06T19:48:17Z</time></trkpt>
<trkpt lat="50.731213" lon="5.886526"><time>2026-05-06T19:58:17Z</time></trkpt>
<trkpt lat="50.729352" lon="5.885603"><time>2026-05-06T20:08:17Z</time></trkpt>
</trkseg></trk>
<trk>
<name>lpbhm18</name>
<cmt>v</cmt>
<desc>Hombourg Chemin n°18 Neubau / Reesberg</desc>
<link href="https://chemins.be/hombourg/chemin/18"/><trkseg>
<trkpt lat="50.729352" lon="5.885603"><time>2026-05-06T20:08:17Z</time></trkpt>
<trkpt lat="50.729013" lon="5.885775"><time>2026-05-06T20:18:17Z</time></trkpt>
<trkpt lat="50.727165" lon="5.884638"><time>2026-05-06T20:28:17Z</time></trkpt>
<trkpt lat="50.725644" lon="5.883865"><time>2026-05-06T20:38:17Z</time></trkpt>
<trkpt lat="50.724843" lon="5.884144"><time>2026-05-06T20:48:17Z</time></trkpt>
<trkpt lat="50.723661" lon="5.883415"><time>2026-05-06T20:58:17Z</time></trkpt>
<trkpt lat="50.722262" lon="5.883994"><time>2026-05-06T21:08:17Z</time></trkpt>
<trkpt lat="50.721623" lon="5.884659"><time>2026-05-06T21:18:17Z</time></trkpt>
<trkpt lat="50.720224" lon="5.884380"><time>2026-05-06T21:28:17Z</time></trkpt>
<trkpt lat="50.718372" lon="5.881875"><time>2026-05-06T21:38:17Z</time></trkpt>
</trkseg></trk>
<trk>
<name>lpbhm18</name>
<cmt>r</cmt>
<desc>Hombourg Chemin n°18 Neubau / Reesberg</desc>
<link href="https://chemins.be/hombourg/chemin/18"/><trkseg>
<trkpt lat="50.718372" lon="5.881875"><time>2026-05-06T21:38:17Z</time></trkpt>
<trkpt lat="50.717853" lon="5.880786"><time>2026-05-06T21:48:17Z</time></trkpt>
<trkpt lat="50.715211" lon="5.877804"><time>2026-05-06T21:58:17Z</time></trkpt>
<trkpt lat="50.715075" lon="5.875851"><time>2026-05-06T22:08:17Z</time></trkpt>
<trkpt lat="50.713811" lon="5.874392"><time>2026-05-06T22:18:17Z</time></trkpt>
</trkseg>
</trk>
<trk>
<name>lpbhm180</name>
<cmt>s</cmt>
<desc>Hombourg Sentier n°180 </desc>
<link href="https://chemins.be/hombourg/sentier/180"/><trkseg>
<trkpt lat="50.723913" lon="5.935397"><time>2026-05-06T18:28:17Z</time></trkpt>
<trkpt lat="50.724234" lon="5.935447"><time>2026-05-06T18:38:17Z</time></trkpt>
</trkseg>
</trk>
<trk>
<name>lpbhm181</name>
<cmt>d</cmt>
<desc>Hombourg Sentier n°181 </desc>
<link href="https://chemins.be/hombourg/sentier/181"/><trkseg>
<trkpt lat="50.718483" lon="5.930347"><time>2026-05-06T18:28:17Z</time></trkpt>
<trkpt lat="50.718334" lon="5.928448"><time>2026-05-06T18:38:17Z</time></trkpt>
</trkseg>
</trk>
<trk>
<name>lpbhm182</name>
<cmt>d</cmt>
<desc>Hombourg Sentier n°182 </desc>
<link href="https://chemins.be/hombourg/sentier/182"/><trkseg>
<trkpt lat="50.717812" lon="5.926394"><time>2026-05-06T18:28:17Z</time></trkpt>
<trkpt lat="50.716371" lon="5.927939"><time>2026-05-06T18:38:17Z</time></trkpt>
<trkpt lat="50.715954" lon="5.929356"><time>2026-05-06T18:48:17Z</time></trkpt>
</trkseg></trk>
<trk>
<name>lpbhm182</name>
<cmt>s</cmt>
<desc>Hombourg Sentier n°182 </desc>
<link href="https://chemins.be/hombourg/sentier/182"/><trkseg>
<trkpt lat="50.715954" lon="5.929356"><time>2026-05-06T18:48:17Z</time></trkpt>
<trkpt lat="50.715812" lon="5.929822"><time>2026-05-06T18:58:17Z</time></trkpt>
<trkpt lat="50.715565" lon="5.929874"><time>2026-05-06T19:08:17Z</time></trkpt>
</trkseg></trk>
<trk>
<name>lpbhm182</name>
<cmt>d</cmt>
<desc>Hombourg Sentier n°182 </desc>
<link href="https://chemins.be/hombourg/sentier/182"/><trkseg>
<trkpt lat="50.715565" lon="5.929874"><time>2026-05-06T19:08:17Z</time></trkpt>
<trkpt lat="50.715682" lon="5.930099"><time>2026-05-06T19:18:17Z</time></trkpt>
<trkpt lat="50.715597" lon="5.931188"><time>2026-05-06T19:28:17Z</time></trkpt>
<trkpt lat="50.715733" lon="5.932374"><time>2026-05-06T19:38:17Z</time></trkpt>
</trkseg>
</trk>
<trk>
<name>lpbhm183</name>
<cmt>d</cmt>
<desc>Hombourg Sentier n°183 </desc>
<link href="https://chemins.be/hombourg/sentier/183"/><trkseg>
<trkpt lat="50.719190" lon="5.930015"><time>2026-05-06T18:28:17Z</time></trkpt>
<trkpt lat="50.718479" lon="5.930336"><time>2026-05-06T18:38:17Z</time></trkpt>
</trkseg>
</trk>
<trk>
<name>lpbhm184</name>
<cmt>q</cmt>
<desc>Hombourg Sentier n°184 </desc>
<link href="https://chemins.be/hombourg/sentier/184"/><trkseg>
<trkpt lat="50.715759" lon="5.929811"><time>2026-05-06T18:28:17Z</time></trkpt>
<trkpt lat="50.715306" lon="5.929178"><time>2026-05-06T18:38:17Z</time></trkpt>
</trkseg></trk>
<trk>
<name>lpbhm184</name>
<cmt>d</cmt>
<desc>Hombourg Sentier n°184 </desc>
<link href="https://chemins.be/hombourg/sentier/184"/><trkseg>
<trkpt lat="50.715306" lon="5.929178"><time>2026-05-06T18:38:17Z</time></trkpt>
<trkpt lat="50.714750" lon="5.927526"><time>2026-05-06T18:48:17Z</time></trkpt>
<trkpt lat="50.714293" lon="5.925681"><time>2026-05-06T18:58:17Z</time></trkpt>
</trkseg>
</trk>
<trk>
<name>lpbhm185</name>
<cmt>d</cmt>
<desc>Hombourg Sentier n°185 </desc>
<link href="https://chemins.be/hombourg/sentier/185"/><trkseg>
<trkpt lat="50.714280" lon="5.925626"><time>2026-05-06T18:28:17Z</time></trkpt>
<trkpt lat="50.713631" lon="5.927479"><time>2026-05-06T18:38:17Z</time></trkpt>
</trkseg>
</trk>
<trk>
<name>lpbhm187</name>
<cmt>s</cmt>
<desc>Hombourg Sentier n°187 </desc>
<link href="https://chemins.be/hombourg/sentier/187"/><trkseg>
<trkpt lat="50.698828" lon="5.902650"><time>2026-05-06T18:28:17Z</time></trkpt>
<trkpt lat="50.697080" lon="5.903808"><time>2026-05-06T18:38:17Z</time></trkpt>
<trkpt lat="50.696128" lon="5.904474"><time>2026-05-06T18:48:17Z</time></trkpt>
</trkseg>
</trk>
<trk>
<name>lpbhm188</name>
<cmt>s</cmt>
<desc>Hombourg Sentier n°188 </desc>
<link href="https://chemins.be/hombourg/sentier/188"/><trkseg>
<trkpt lat="50.728951" lon="5.877339"><time>2026-05-06T18:28:17Z</time></trkpt>
<trkpt lat="50.729160" lon="5.876901"><time>2026-05-06T18:38:17Z</time></trkpt>
<trkpt lat="50.729395" lon="5.876883"><time>2026-05-06T18:48:17Z</time></trkpt>
<trkpt lat="50.729548" lon="5.876976"><time>2026-05-06T18:58:17Z</time></trkpt>
</trkseg>
</trk>
<trk>
<name>lpbhm189</name>
<cmt>v</cmt>
<desc>Hombourg Chemin n°189 </desc>
<link href="https://chemins.be/hombourg/chemin/189"/><trkseg>
<trkpt lat="50.692265" lon="5.919151"><time>2026-05-06T18:28:17Z</time></trkpt>
<trkpt lat="50.691869" lon="5.919254"><time>2026-05-06T18:38:17Z</time></trkpt>
<trkpt lat="50.691435" lon="5.919276"><time>2026-05-06T18:48:17Z</time></trkpt>
<trkpt lat="50.690235" lon="5.920123"><time>2026-05-06T18:58:17Z</time></trkpt>
<trkpt lat="50.689957" lon="5.920241"><time>2026-05-06T19:08:17Z</time></trkpt>
<trkpt lat="50.689674" lon="5.919811"><time>2026-05-06T19:18:17Z</time></trkpt>
</trkseg>
</trk>
<trk>
<name>lpbhm19</name>
<cmt>v</cmt>
<desc>Hombourg Chemin n°19 Chemin de Mabrouck / Mabrouck</desc>
<link href="https://chemins.be/hombourg/chemin/19"/><trkseg>
<trkpt lat="50.720368" lon="5.899298"><time>2026-05-06T18:28:17Z</time></trkpt>
<trkpt lat="50.720692" lon="5.895721"><time>2026-05-06T18:38:17Z</time></trkpt>
<trkpt lat="50.720802" lon="5.895224"><time>2026-05-06T18:48:17Z</time></trkpt>
<trkpt lat="50.720746" lon="5.894778"><time>2026-05-06T18:58:17Z</time></trkpt>
<trkpt lat="50.720280" lon="5.893907"><time>2026-05-06T19:08:17Z</time></trkpt>
<trkpt lat="50.720264" lon="5.893159"><time>2026-05-06T19:18:17Z</time></trkpt>
<trkpt lat="50.720022" lon="5.892194"><time>2026-05-06T19:28:17Z</time></trkpt>
<trkpt lat="50.719901" lon="5.891687"><time>2026-05-06T19:38:17Z</time></trkpt>
</trkseg></trk>
<trk>
<name>lpbhm19</name>
<cmt>r</cmt>
<desc>Hombourg Chemin n°19 Chemin de Mabrouck / Mabrouck</desc>
<link href="https://chemins.be/hombourg/chemin/19"/><trkseg>
<trkpt lat="50.719901" lon="5.891687"><time>2026-05-06T19:38:17Z</time></trkpt>
<trkpt lat="50.720270" lon="5.891162"><time>2026-05-06T19:48:17Z</time></trkpt>
</trkseg></trk>
<trk>
<name>lpbhm19</name>
<cmt>d</cmt>
<desc>Hombourg Chemin n°19 Chemin de Mabrouck / Mabrouck</desc>
<link href="https://chemins.be/hombourg/chemin/19"/><trkseg>
<trkpt lat="50.720270" lon="5.891162"><time>2026-05-06T19:48:17Z</time></trkpt>
<trkpt lat="50.721361" lon="5.889700"><time>2026-05-06T19:58:17Z</time></trkpt>
</trkseg></trk>
<trk>
<name>lpbhm19</name>
<cmt>v</cmt>
<desc>Hombourg Chemin n°19 Chemin de Mabrouck / Mabrouck</desc>
<link href="https://chemins.be/hombourg/chemin/19"/><trkseg>
<trkpt lat="50.721361" lon="5.889700"><time>2026-05-06T19:58:17Z</time></trkpt>
<trkpt lat="50.722068" lon="5.888607"><time>2026-05-06T20:08:17Z</time></trkpt>
<trkpt lat="50.722292" lon="5.886236"><time>2026-05-06T20:18:17Z</time></trkpt>
<trkpt lat="50.721653" lon="5.884659"><time>2026-05-06T20:28:17Z</time></trkpt>
</trkseg>
</trk>
<trk>
<name>lpbhm190</name>
<cmt>d</cmt>
<desc>Hombourg Chemin n°190 </desc>
<link href="https://chemins.be/hombourg/chemin/190"/><trkseg>
<trkpt lat="50.691405" lon="5.919260"><time>2026-05-06T18:28:17Z</time></trkpt>
<trkpt lat="50.690979" lon="5.918244"><time>2026-05-06T18:38:17Z</time></trkpt>
<trkpt lat="50.690594" lon="5.917683"><time>2026-05-06T18:48:17Z</time></trkpt>
</trkseg>
</trk>
<trk>
<name>lpbhm191</name>
<cmt>s</cmt>
<desc>Hombourg Chemin n°191 </desc>
<link href="https://chemins.be/hombourg/chemin/191"/><trkseg>
<trkpt lat="50.694653" lon="5.927718"><time>2026-05-06T18:28:17Z</time></trkpt>
<trkpt lat="50.694517" lon="5.928311"><time>2026-05-06T18:38:17Z</time></trkpt>
</trkseg>
</trk>
<trk>
<name>lpbhm193</name>
<cmt>d</cmt>
<desc>Hombourg Sentier n°193 </desc>
<link href="https://chemins.be/hombourg/sentier/193"/><trkseg>
<trkpt lat="50.738122" lon="5.924192"><time>2026-05-06T18:28:17Z</time></trkpt>
<trkpt lat="50.738584" lon="5.923778"><time>2026-05-06T18:38:17Z</time></trkpt>
<trkpt lat="50.738598" lon="5.923507"><time>2026-05-06T18:48:17Z</time></trkpt>
<trkpt lat="50.738660" lon="5.921649"><time>2026-05-06T18:58:17Z</time></trkpt>
</trkseg></trk>
<trk>
<name>lpbhm193</name>
<cmt>v</cmt>
<desc>Hombourg Sentier n°193 </desc>
<link href="https://chemins.be/hombourg/sentier/193"/><trkseg>
<trkpt lat="50.738660" lon="5.921649"><time>2026-05-06T18:58:17Z</time></trkpt>
<trkpt lat="50.738697" lon="5.920545"><time>2026-05-06T19:08:17Z</time></trkpt>
<trkpt lat="50.738303" lon="5.918893"><time>2026-05-06T19:18:17Z</time></trkpt>
<trkpt lat="50.738371" lon="5.918633"><time>2026-05-06T19:28:17Z</time></trkpt>
</trkseg></trk>
<trk>
<name>lpbhm193</name>
<cmt>d</cmt>
<desc>Hombourg Sentier n°193 </desc>
<link href="https://chemins.be/hombourg/sentier/193"/><trkseg>
<trkpt lat="50.738371" lon="5.918633"><time>2026-05-06T19:28:17Z</time></trkpt>
<trkpt lat="50.738439" lon="5.918278"><time>2026-05-06T19:38:17Z</time></trkpt>
</trkseg>
</trk>
<trk>
<name>lpbhm2</name>
<cmt>v</cmt>
<desc>Hombourg Chemin n°2 Rue de Belven / Rue Laschet / Chemin de Maestricht</desc>
<link href="https://chemins.be/hombourg/chemin/2"/><trkseg>
<trkpt lat="50.693418" lon="5.929677"><time>2026-05-06T18:28:17Z</time></trkpt>
<trkpt lat="50.695546" lon="5.929954"><time>2026-05-06T18:38:17Z</time></trkpt>
<trkpt lat="50.696441" lon="5.929919"><time>2026-05-06T18:48:17Z</time></trkpt>
<trkpt lat="50.698066" lon="5.928809"><time>2026-05-06T18:58:17Z</time></trkpt>
<trkpt lat="50.700502" lon="5.927146"><time>2026-05-06T19:08:17Z</time></trkpt>
<trkpt lat="50.702105" lon="5.925239"><time>2026-05-06T19:18:17Z</time></trkpt>
<trkpt lat="50.704171" lon="5.924324"><time>2026-05-06T19:28:17Z</time></trkpt>
<trkpt lat="50.704887" lon="5.924596"><time>2026-05-06T19:38:17Z</time></trkpt>
<trkpt lat="50.706134" lon="5.924527"><time>2026-05-06T19:48:17Z</time></trkpt>
<trkpt lat="50.706561" lon="5.924518"><time>2026-05-06T19:58:17Z</time></trkpt>
<trkpt lat="50.707756" lon="5.923949"><time>2026-05-06T20:08:17Z</time></trkpt>
<trkpt lat="50.708012" lon="5.923981"><time>2026-05-06T20:18:17Z</time></trkpt>
</trkseg></trk>
<trk>
<name>lpbhm2</name>
<cmt>r</cmt>
<desc>Hombourg Chemin n°2 Rue de Belven / Rue Laschet / Chemin de Maestricht</desc>
<link href="https://chemins.be/hombourg/chemin/2"/><trkseg>
<trkpt lat="50.708012" lon="5.923981"><time>2026-05-06T20:18:17Z</time></trkpt>
<trkpt lat="50.708948" lon="5.922462"><time>2026-05-06T20:28:17Z</time></trkpt>
<trkpt lat="50.710751" lon="5.921425"><time>2026-05-06T20:38:17Z</time></trkpt>
<trkpt lat="50.712544" lon="5.921122"><time>2026-05-06T20:48:17Z</time></trkpt>
</trkseg></trk>
<trk>
<name>lpbhm2</name>
<cmt>v</cmt>
<desc>Hombourg Chemin n°2 Rue de Belven / Rue Laschet / Chemin de Maestricht</desc>
<link href="https://chemins.be/hombourg/chemin/2"/><trkseg>
<trkpt lat="50.712544" lon="5.921122"><time>2026-05-06T20:48:17Z</time></trkpt>
<trkpt lat="50.715669" lon="5.919893"><time>2026-05-06T20:58:17Z</time></trkpt>
<trkpt lat="50.717847" lon="5.920781"><time>2026-05-06T21:08:17Z</time></trkpt>
</trkseg></trk>
<trk>
<name>lpbhm2</name>
<cmt>r</cmt>
<desc>Hombourg Chemin n°2 Rue de Belven / Rue Laschet / Chemin de Maestricht</desc>
<link href="https://chemins.be/hombourg/chemin/2"/><trkseg>
<trkpt lat="50.717847" lon="5.920781"><time>2026-05-06T21:08:17Z</time></trkpt>
<trkpt lat="50.719092" lon="5.921574"><time>2026-05-06T21:18:17Z</time></trkpt>
<trkpt lat="50.720487" lon="5.922010"><time>2026-05-06T21:28:17Z</time></trkpt>
<trkpt lat="50.722580" lon="5.920531"><time>2026-05-06T21:38:17Z</time></trkpt>
<trkpt lat="50.722802" lon="5.920746"><time>2026-05-06T21:48:17Z</time></trkpt>
<trkpt lat="50.723409" lon="5.919916"><time>2026-05-06T21:58:17Z</time></trkpt>
<trkpt lat="50.725464" lon="5.918786"><time>2026-05-06T22:08:17Z</time></trkpt>
<trkpt lat="50.726461" lon="5.917768"><time>2026-05-06T22:18:17Z</time></trkpt>
<trkpt lat="50.726872" lon="5.917348"><time>2026-05-06T22:28:17Z</time></trkpt>
<trkpt lat="50.727126" lon="5.916447"><time>2026-05-06T22:38:17Z</time></trkpt>
<trkpt lat="50.728398" lon="5.914387"><time>2026-05-06T22:48:17Z</time></trkpt>
</trkseg></trk>
<trk>
<name>lpbhm2</name>
<cmt>v</cmt>
<desc>Hombourg Chemin n°2 Rue de Belven / Rue Laschet / Chemin de Maestricht</desc>
<link href="https://chemins.be/hombourg/chemin/2"/><trkseg>
<trkpt lat="50.728398" lon="5.914387"><time>2026-05-06T22:48:17Z</time></trkpt>
<trkpt lat="50.729020" lon="5.913319"><time>2026-05-06T22:58:17Z</time></trkpt>
<trkpt lat="50.729332" lon="5.912756"><time>2026-05-06T23:08:17Z</time></trkpt>
</trkseg></trk>
<trk>
<name>lpbhm2</name>
<cmt>d</cmt>
<desc>Hombourg Chemin n°2 Rue de Belven / Rue Laschet / Chemin de Maestricht</desc>
<link href="https://chemins.be/hombourg/chemin/2"/><trkseg>
<trkpt lat="50.729332" lon="5.912756"><time>2026-05-06T23:08:17Z</time></trkpt>
<trkpt lat="50.729433" lon="5.912549"><time>2026-05-06T23:18:17Z</time></trkpt>
</trkseg></trk>
<trk>
<name>lpbhm2</name>
<cmt>v</cmt>
<desc>Hombourg Chemin n°2 Rue de Belven / Rue Laschet / Chemin de Maestricht</desc>
<link href="https://chemins.be/hombourg/chemin/2"/><trkseg>
<trkpt lat="50.729433" lon="5.912549"><time>2026-05-06T23:18:17Z</time></trkpt>
<trkpt lat="50.729619" lon="5.912347"><time>2026-05-06T23:28:17Z</time></trkpt>
<trkpt lat="50.730214" lon="5.912069"><time>2026-05-06T23:38:17Z</time></trkpt>
<trkpt lat="50.731041" lon="5.912096"><time>2026-05-06T23:48:17Z</time></trkpt>
<trkpt lat="50.732187" lon="5.911794"><time>2026-05-06T23:58:17Z</time></trkpt>
<trkpt lat="50.734104" lon="5.911751"><time>2026-05-07T00:08:17Z</time></trkpt>
<trkpt lat="50.735206" lon="5.911241"><time>2026-05-07T00:18:17Z</time></trkpt>
<trkpt lat="50.737076" lon="5.909931"><time>2026-05-07T00:28:17Z</time></trkpt>
<trkpt lat="50.739381" lon="5.908784"><time>2026-05-07T00:38:17Z</time></trkpt>
<trkpt lat="50.740733" lon="5.905958"><time>2026-05-07T00:48:17Z</time></trkpt>
<trkpt lat="50.741833" lon="5.901073"><time>2026-05-07T00:58:17Z</time></trkpt>
<trkpt lat="50.741969" lon="5.900666"><time>2026-05-07T01:08:17Z</time></trkpt>
<trkpt lat="50.743320" lon="5.898449"><time>2026-05-07T01:18:17Z</time></trkpt>
<trkpt lat="50.745367" lon="5.895970"><time>2026-05-07T01:28:17Z</time></trkpt>
</trkseg>
</trk>
<trk>
<name>lpbhm20</name>
<cmt>r</cmt>
<desc>Hombourg Chemin n°20 Mabrouck</desc>
<link href="https://chemins.be/hombourg/chemin/20"/><trkseg>
<trkpt lat="50.719485" lon="5.891360"><time>2026-05-06T18:28:17Z</time></trkpt>
<trkpt lat="50.719166" lon="5.890574"><time>2026-05-06T18:38:17Z</time></trkpt>
<trkpt lat="50.717970" lon="5.889283"><time>2026-05-06T18:48:17Z</time></trkpt>
</trkseg></trk>
<trk>
<name>lpbhm20</name>
<cmt>d</cmt>
<desc>Hombourg Chemin n°20 Mabrouck</desc>
<link href="https://chemins.be/hombourg/chemin/20"/><trkseg>
<trkpt lat="50.717970" lon="5.889283"><time>2026-05-06T18:48:17Z</time></trkpt>
<trkpt lat="50.715598" lon="5.886582"><time>2026-05-06T18:58:17Z</time></trkpt>
<trkpt lat="50.714067" lon="5.885830"><time>2026-05-06T19:08:17Z</time></trkpt>
<trkpt lat="50.711369" lon="5.884358"><time>2026-05-06T19:18:17Z</time></trkpt>
<trkpt lat="50.710939" lon="5.884097"><time>2026-05-06T19:28:17Z</time></trkpt>
<trkpt lat="50.709887" lon="5.883306"><time>2026-05-06T19:38:17Z</time></trkpt>
</trkseg>
</trk>
<trk>
<name>lpbhm21</name>
<cmt>q</cmt>
<desc>Hombourg Chemin n°21 Neubau / Mabrouck</desc>
<link href="https://chemins.be/hombourg/chemin/21"/><trkseg>
<trkpt lat="50.732513" lon="5.886388"><time>2026-05-06T18:28:17Z</time></trkpt>
<trkpt lat="50.731131" lon="5.886362"><time>2026-05-06T18:38:17Z</time></trkpt>
<trkpt lat="50.729411" lon="5.885568"><time>2026-05-06T18:48:17Z</time></trkpt>
<trkpt lat="50.728665" lon="5.885916"><time>2026-05-06T18:58:17Z</time></trkpt>
<trkpt lat="50.728257" lon="5.886481"><time>2026-05-06T19:08:17Z</time></trkpt>
<trkpt lat="50.727519" lon="5.887905"><time>2026-05-06T19:18:17Z</time></trkpt>
<trkpt lat="50.727121" lon="5.888312"><time>2026-05-06T19:28:17Z</time></trkpt>
<trkpt lat="50.725980" lon="5.888363"><time>2026-05-06T19:38:17Z</time></trkpt>
</trkseg></trk>
<trk>
<name>lpbhm21</name>
<cmt>r</cmt>
<desc>Hombourg Chemin n°21 Neubau / Mabrouck</desc>
<link href="https://chemins.be/hombourg/chemin/21"/><trkseg>
<trkpt lat="50.725980" lon="5.888363"><time>2026-05-06T19:38:17Z</time></trkpt>
<trkpt lat="50.722674" lon="5.890145"><time>2026-05-06T19:48:17Z</time></trkpt>
</trkseg></trk>
<trk>
<name>lpbhm21</name>
<cmt>v</cmt>
<desc>Hombourg Chemin n°21 Neubau / Mabrouck</desc>
<link href="https://chemins.be/hombourg/chemin/21"/><trkseg>
<trkpt lat="50.722674" lon="5.890145"><time>2026-05-06T19:48:17Z</time></trkpt>
<trkpt lat="50.721293" lon="5.889730"><time>2026-05-06T19:58:17Z</time></trkpt>
</trkseg>
</trk>
<trk>
<name>lpbhm22</name>
<cmt>r</cmt>
<desc>Hombourg Chemin n°22 Billen / Cobus / Rozengaerden</desc>
<link href="https://chemins.be/hombourg/chemin/22"/><trkseg>
<trkpt lat="50.729593" lon="5.878412"><time>2026-05-06T18:28:17Z</time></trkpt>
<trkpt lat="50.729742" lon="5.877934"><time>2026-05-06T18:38:17Z</time></trkpt>
<trkpt lat="50.729584" lon="5.876976"><time>2026-05-06T18:48:17Z</time></trkpt>
<trkpt lat="50.730390" lon="5.875822"><time>2026-05-06T18:58:17Z</time></trkpt>
<trkpt lat="50.730408" lon="5.875221"><time>2026-05-06T19:08:17Z</time></trkpt>
<trkpt lat="50.730662" lon="5.874878"><time>2026-05-06T19:18:17Z</time></trkpt>
<trkpt lat="50.730064" lon="5.873614"><time>2026-05-06T19:28:17Z</time></trkpt>
</trkseg></trk>
<trk>
<name>lpbhm22</name>
<cmt>v</cmt>
<desc>Hombourg Chemin n°22 Billen / Cobus / Rozengaerden</desc>
<link href="https://chemins.be/hombourg/chemin/22"/><trkseg>
<trkpt lat="50.730064" lon="5.873614"><time>2026-05-06T19:28:17Z</time></trkpt>
<trkpt lat="50.728823" lon="5.871604"><time>2026-05-06T19:38:17Z</time></trkpt>
<trkpt lat="50.728556" lon="5.871132"><time>2026-05-06T19:48:17Z</time></trkpt>
<trkpt lat="50.728534" lon="5.868713"><time>2026-05-06T19:58:17Z</time></trkpt>
</trkseg></trk>
<trk>
<name>lpbhm22</name>
<cmt>r</cmt>
<desc>Hombourg Chemin n°22 Billen / Cobus / Rozengaerden</desc>
<link href="https://chemins.be/hombourg/chemin/22"/><trkseg>
<trkpt lat="50.728534" lon="5.868713"><time>2026-05-06T19:58:17Z</time></trkpt>
<trkpt lat="50.728443" lon="5.867854"><time>2026-05-06T20:08:17Z</time></trkpt>
</trkseg></trk>
<trk>
<name>lpbhm22</name>
<cmt>v</cmt>
<desc>Hombourg Chemin n°22 Billen / Cobus / Rozengaerden</desc>
<link href="https://chemins.be/hombourg/chemin/22"/><trkseg>
<trkpt lat="50.728443" lon="5.867854"><time>2026-05-06T20:08:17Z</time></trkpt>
<trkpt lat="50.728037" lon="5.866534"><time>2026-05-06T20:18:17Z</time></trkpt>
</trkseg></trk>
<trk>
<name>lpbhm22</name>
<cmt>d</cmt>
<desc>Hombourg Chemin n°22 Billen / Cobus / Rozengaerden</desc>
<link href="https://chemins.be/hombourg/chemin/22"/><trkseg>
<trkpt lat="50.728037" lon="5.866534"><time>2026-05-06T20:18:17Z</time></trkpt>
<trkpt lat="50.729077" lon="5.862318"><time>2026-05-06T20:28:17Z</time></trkpt>
</trkseg>
</trk>
<trk>
<name>lpbhm23</name>
<cmt>r</cmt>
<desc>Hombourg Chemin n°23 </desc>
<link href="https://chemins.be/hombourg/chemin/23"/><trkseg>
<trkpt lat="50.735512" lon="5.862282"><time>2026-05-06T18:28:17Z</time></trkpt>
<trkpt lat="50.736308" lon="5.863440"><time>2026-05-06T18:38:17Z</time></trkpt>
</trkseg>
</trk>
<trk>
<name>lpbhm24</name>
<cmt>v</cmt>
<desc>Hombourg Chemin n°24 </desc>
<link href="https://chemins.be/hombourg/chemin/24"/><trkseg>
<trkpt lat="50.739372" lon="5.881101"><time>2026-05-06T18:28:17Z</time></trkpt>
<trkpt lat="50.740679" lon="5.879651"><time>2026-05-06T18:38:17Z</time></trkpt>
</trkseg>
</trk>
<trk>
<name>lpbhm25</name>
<cmt>v</cmt>
<desc>Hombourg Chemin n°25 Rue d'Aubel</desc>
<link href="https://chemins.be/hombourg/chemin/25"/><trkseg>
<trkpt lat="50.713314" lon="5.905761"><time>2026-05-06T18:28:17Z</time></trkpt>
<trkpt lat="50.714157" lon="5.904295"><time>2026-05-06T18:38:17Z</time></trkpt>
<trkpt lat="50.714012" lon="5.903321"><time>2026-05-06T18:48:17Z</time></trkpt>
<trkpt lat="50.714163" lon="5.902545"><time>2026-05-06T18:58:17Z</time></trkpt>
<trkpt lat="50.714374" lon="5.902094"><time>2026-05-06T19:08:17Z</time></trkpt>
</trkseg></trk>
<trk>
<name>lpbhm25</name>
<cmt>q</cmt>
<desc>Hombourg Chemin n°25 Rue d'Aubel</desc>
<link href="https://chemins.be/hombourg/chemin/25"/><trkseg>
<trkpt lat="50.714374" lon="5.902094"><time>2026-05-06T19:08:17Z</time></trkpt>
<trkpt lat="50.714229" lon="5.901391"><time>2026-05-06T19:18:17Z</time></trkpt>
<trkpt lat="50.713103" lon="5.900034"><time>2026-05-06T19:28:17Z</time></trkpt>
<trkpt lat="50.710856" lon="5.896972"><time>2026-05-06T19:38:17Z</time></trkpt>
<trkpt lat="50.710327" lon="5.895787"><time>2026-05-06T19:48:17Z</time></trkpt>
</trkseg></trk>
<trk>
<name>lpbhm25</name>
<cmt>r</cmt>
<desc>Hombourg Chemin n°25 Rue d'Aubel</desc>
<link href="https://chemins.be/hombourg/chemin/25"/><trkseg>
<trkpt lat="50.710327" lon="5.895787"><time>2026-05-06T19:48:17Z</time></trkpt>
<trkpt lat="50.710164" lon="5.893312"><time>2026-05-06T19:58:17Z</time></trkpt>
</trkseg>
</trk>
<trk>
<name>lpbhm26</name>
<cmt>r</cmt>
<desc>Hombourg Chemin n°26 Ten-Driesch / Vieljaren</desc>
<link href="https://chemins.be/hombourg/chemin/26"/><trkseg>
<trkpt lat="50.713586" lon="5.907353"><time>2026-05-06T18:28:17Z</time></trkpt>
<trkpt lat="50.712264" lon="5.907017"><time>2026-05-06T18:38:17Z</time></trkpt>
<trkpt lat="50.711870" lon="5.907121"><time>2026-05-06T18:48:17Z</time></trkpt>
<trkpt lat="50.711201" lon="5.906916"><time>2026-05-06T18:58:17Z</time></trkpt>
<trkpt lat="50.710599" lon="5.906437"><time>2026-05-06T19:08:17Z</time></trkpt>
<trkpt lat="50.709756" lon="5.907095"><time>2026-05-06T19:18:17Z</time></trkpt>
<trkpt lat="50.708782" lon="5.906230"><time>2026-05-06T19:28:17Z</time></trkpt>
<trkpt lat="50.707994" lon="5.906144"><time>2026-05-06T19:38:17Z</time></trkpt>
<trkpt lat="50.707778" lon="5.905812"><time>2026-05-06T19:48:17Z</time></trkpt>
<trkpt lat="50.707360" lon="5.905250"><time>2026-05-06T19:58:17Z</time></trkpt>
<trkpt lat="50.706431" lon="5.905028"><time>2026-05-06T20:08:17Z</time></trkpt>
</trkseg>
</trk>
<trk>
<name>lpbhm27</name>
<cmt>r</cmt>
<desc>Hombourg Chemin n°27 Chevémont</desc>
<link href="https://chemins.be/hombourg/chemin/27"/><trkseg>
<trkpt lat="50.712273" lon="5.907017"><time>2026-05-06T18:28:17Z</time></trkpt>
<trkpt lat="50.713263" lon="5.905808"><time>2026-05-06T18:38:17Z</time></trkpt>
</trkseg>
</trk>
<trk>
<name>lpbhm28</name>
<cmt>v</cmt>
<desc>Hombourg Chemin n°28 Billweg</desc>
<link href="https://chemins.be/hombourg/chemin/28"/><trkseg>
<trkpt lat="50.706499" lon="5.908231"><time>2026-05-06T18:28:17Z</time></trkpt>
<trkpt lat="50.703582" lon="5.904669"><time>2026-05-06T18:38:17Z</time></trkpt>
<trkpt lat="50.702861" lon="5.903882"><time>2026-05-06T18:48:17Z</time></trkpt>
<trkpt lat="50.702157" lon="5.903434"><time>2026-05-06T18:58:17Z</time></trkpt>
</trkseg>
</trk>
<trk>
<name>lpbhm29</name>
<cmt>v</cmt>
<desc>Hombourg Chemin n°29 </desc>
<link href="https://chemins.be/hombourg/chemin/29"/><trkseg>
<trkpt lat="50.707699" lon="5.923988"><time>2026-05-06T18:28:17Z</time></trkpt>
<trkpt lat="50.707630" lon="5.920614"><time>2026-05-06T18:38:17Z</time></trkpt>
</trkseg></trk>
<trk>
<name>lpbhm29</name>
<cmt>s</cmt>
<desc>Hombourg Chemin n°29 </desc>
<link href="https://chemins.be/hombourg/chemin/29"/><trkseg>
<trkpt lat="50.707630" lon="5.920614"><time>2026-05-06T18:38:17Z</time></trkpt>
<trkpt lat="50.707622" lon="5.919243"><time>2026-05-06T18:48:17Z</time></trkpt>
<trkpt lat="50.707250" lon="5.918962"><time>2026-05-06T18:58:17Z</time></trkpt>
<trkpt lat="50.707059" lon="5.919098"><time>2026-05-06T19:08:17Z</time></trkpt>
<trkpt lat="50.706656" lon="5.918343"><time>2026-05-06T19:18:17Z</time></trkpt>
<trkpt lat="50.706441" lon="5.918131"><time>2026-05-06T19:28:17Z</time></trkpt>
<trkpt lat="50.706182" lon="5.917729"><time>2026-05-06T19:38:17Z</time></trkpt>
</trkseg>
</trk>
<trk>
<name>lpbhm30</name>
<cmt>v</cmt>
<desc>Hombourg Chemin n°30 Rue Kheer / Rue de Belven / Chemin de Hoppisch</desc>
<link href="https://chemins.be/hombourg/chemin/30"/><trkseg>
<trkpt lat="50.709381" lon="5.922220"><time>2026-05-06T18:28:17Z</time></trkpt>
<trkpt lat="50.709576" lon="5.922425"><time>2026-05-06T18:38:17Z</time></trkpt>
<trkpt lat="50.712680" lon="5.922868"><time>2026-05-06T18:48:17Z</time></trkpt>
<trkpt lat="50.712976" lon="5.922973"><time>2026-05-06T18:58:17Z</time></trkpt>
<trkpt lat="50.714263" lon="5.925638"><time>2026-05-06T19:08:17Z</time></trkpt>
<trkpt lat="50.715648" lon="5.928687"><time>2026-05-06T19:18:17Z</time></trkpt>
<trkpt lat="50.715929" lon="5.929416"><time>2026-05-06T19:28:17Z</time></trkpt>
<trkpt lat="50.716663" lon="5.929087"><time>2026-05-06T19:38:17Z</time></trkpt>
<trkpt lat="50.718414" lon="5.930233"><time>2026-05-06T19:48:17Z</time></trkpt>
<trkpt lat="50.718585" lon="5.930805"><time>2026-05-06T19:58:17Z</time></trkpt>
<trkpt lat="50.718651" lon="5.930951"><time>2026-05-06T20:08:17Z</time></trkpt>
</trkseg></trk>
<trk>
<name>lpbhm30</name>
<cmt>d</cmt>
<desc>Hombourg Chemin n°30 Rue Kheer / Rue de Belven / Chemin de Hoppisch</desc>
<link href="https://chemins.be/hombourg/chemin/30"/><trkseg>
<trkpt lat="50.718651" lon="5.930951"><time>2026-05-06T20:08:17Z</time></trkpt>
<trkpt lat="50.719249" lon="5.932239"><time>2026-05-06T20:18:17Z</time></trkpt>
</trkseg></trk>
<trk>
<name>lpbhm30</name>
<cmt>s</cmt>
<desc>Hombourg Chemin n°30 Rue Kheer / Rue de Belven / Chemin de Hoppisch</desc>
<link href="https://chemins.be/hombourg/chemin/30"/><trkseg>
<trkpt lat="50.719249" lon="5.932239"><time>2026-05-06T20:18:17Z</time></trkpt>
<trkpt lat="50.721969" lon="5.934228"><time>2026-05-06T20:28:17Z</time></trkpt>
</trkseg></trk>
<trk>
<name>lpbhm30</name>
<cmt>v</cmt>
<desc>Hombourg Chemin n°30 Rue Kheer / Rue de Belven / Chemin de Hoppisch</desc>
<link href="https://chemins.be/hombourg/chemin/30"/><trkseg>
<trkpt lat="50.721969" lon="5.934228"><time>2026-05-06T20:28:17Z</time></trkpt>
<trkpt lat="50.722691" lon="5.934632"><time>2026-05-06T20:38:17Z</time></trkpt>
</trkseg></trk>
<trk>
<name>lpbhm30</name>
<cmt>s</cmt>
<desc>Hombourg Chemin n°30 Rue Kheer / Rue de Belven / Chemin de Hoppisch</desc>
<link href="https://chemins.be/hombourg/chemin/30"/><trkseg>
<trkpt lat="50.722691" lon="5.934632"><time>2026-05-06T20:38:17Z</time></trkpt>
<trkpt lat="50.723381" lon="5.935018"><time>2026-05-06T20:48:17Z</time></trkpt>
<trkpt lat="50.723898" lon="5.934795"><time>2026-05-06T20:58:17Z</time></trkpt>
<trkpt lat="50.724557" lon="5.934066"><time>2026-05-06T21:08:17Z</time></trkpt>
</trkseg></trk>
<trk>
<name>lpbhm30</name>
<cmt>v</cmt>
<desc>Hombourg Chemin n°30 Rue Kheer / Rue de Belven / Chemin de Hoppisch</desc>
<link href="https://chemins.be/hombourg/chemin/30"/><trkseg>
<trkpt lat="50.724557" lon="5.934066"><time>2026-05-06T21:08:17Z</time></trkpt>
<trkpt lat="50.725132" lon="5.933719"><time>2026-05-06T21:18:17Z</time></trkpt>
</trkseg></trk>
<trk>
<name>lpbhm30</name>
<cmt>s</cmt>
<desc>Hombourg Chemin n°30 Rue Kheer / Rue de Belven / Chemin de Hoppisch</desc>
<link href="https://chemins.be/hombourg/chemin/30"/><trkseg>
<trkpt lat="50.725132" lon="5.933719"><time>2026-05-06T21:18:17Z</time></trkpt>
<trkpt lat="50.725206" lon="5.933093"><time>2026-05-06T21:28:17Z</time></trkpt>
<trkpt lat="50.725430" lon="5.932656"><time>2026-05-06T21:38:17Z</time></trkpt>
</trkseg></trk>
<trk>
<name>lpbhm30</name>
<cmt>r</cmt>
<desc>Hombourg Chemin n°30 Rue Kheer / Rue de Belven / Chemin de Hoppisch</desc>
<link href="https://chemins.be/hombourg/chemin/30"/><trkseg>
<trkpt lat="50.725430" lon="5.932656"><time>2026-05-06T21:38:17Z</time></trkpt>
<trkpt lat="50.725695" lon="5.932392"><time>2026-05-06T21:48:17Z</time></trkpt>
<trkpt lat="50.726024" lon="5.933242"><time>2026-05-06T21:58:17Z</time></trkpt>
</trkseg></trk>
<trk>
<name>lpbhm30</name>
<cmt>s</cmt>
<desc>Hombourg Chemin n°30 Rue Kheer / Rue de Belven / Chemin de Hoppisch</desc>
<link href="https://chemins.be/hombourg/chemin/30"/><trkseg>
<trkpt lat="50.726024" lon="5.933242"><time>2026-05-06T21:58:17Z</time></trkpt>
<trkpt lat="50.726661" lon="5.934727"><time>2026-05-06T22:08:17Z</time></trkpt>
</trkseg></trk>
<trk>
<name>lpbhm30</name>
<cmt>r</cmt>
<desc>Hombourg Chemin n°30 Rue Kheer / Rue de Belven / Chemin de Hoppisch</desc>
<link href="https://chemins.be/hombourg/chemin/30"/><trkseg>
<trkpt lat="50.726661" lon="5.934727"><time>2026-05-06T22:08:17Z</time></trkpt>
<trkpt lat="50.727191" lon="5.935550"><time>2026-05-06T22:18:17Z</time></trkpt>
<trkpt lat="50.727517" lon="5.935371"><time>2026-05-06T22:28:17Z</time></trkpt>
</trkseg></trk>
<trk>
<name>lpbhm30</name>
<cmt>s</cmt>
<desc>Hombourg Chemin n°30 Rue Kheer / Rue de Belven / Chemin de Hoppisch</desc>
<link href="https://chemins.be/hombourg/chemin/30"/><trkseg>
<trkpt lat="50.727517" lon="5.935371"><time>2026-05-06T22:28:17Z</time></trkpt>
<trkpt lat="50.727942" lon="5.935214"><time>2026-05-06T22:38:17Z</time></trkpt>
<trkpt lat="50.728834" lon="5.935914"><time>2026-05-06T22:48:17Z</time></trkpt>
<trkpt lat="50.729546" lon="5.935838"><time>2026-05-06T22:58:17Z</time></trkpt>
<trkpt lat="50.729786" lon="5.936125"><time>2026-05-06T23:08:17Z</time></trkpt>
<trkpt lat="50.730257" lon="5.936018"><time>2026-05-06T23:18:17Z</time></trkpt>
<trkpt lat="50.730406" lon="5.935374"><time>2026-05-06T23:28:17Z</time></trkpt>
</trkseg>
</trk>
<trk>
<name>lpbhm31</name>
<cmt>v</cmt>
<desc>Hombourg Chemin n°31 Rue Kheer</desc>
<link href="https://chemins.be/hombourg/chemin/31"/><trkseg>
<trkpt lat="50.712721" lon="5.922910"><time>2026-05-06T18:28:17Z</time></trkpt>
<trkpt lat="50.712552" lon="5.921106"><time>2026-05-06T18:38:17Z</time></trkpt>
<trkpt lat="50.712674" lon="5.921058"><time>2026-05-06T18:48:17Z</time></trkpt>
</trkseg></trk>
<trk>
<name>lpbhm31</name>
<cmt>s</cmt>
<desc>Hombourg Chemin n°31 Rue Kheer</desc>
<link href="https://chemins.be/hombourg/chemin/31"/><trkseg>
<trkpt lat="50.712674" lon="5.921058"><time>2026-05-06T18:48:17Z</time></trkpt>
<trkpt lat="50.712519" lon="5.920528"><time>2026-05-06T18:58:17Z</time></trkpt>
<trkpt lat="50.712551" lon="5.919545"><time>2026-05-06T19:08:17Z</time></trkpt>
<trkpt lat="50.712193" lon="5.917810"><time>2026-05-06T19:18:17Z</time></trkpt>
<trkpt lat="50.712508" lon="5.916577"><time>2026-05-06T19:28:17Z</time></trkpt>
<trkpt lat="50.712159" lon="5.915153"><time>2026-05-06T19:38:17Z</time></trkpt>
<trkpt lat="50.711879" lon="5.914821"><time>2026-05-06T19:48:17Z</time></trkpt>
<trkpt lat="50.712334" lon="5.913995"><time>2026-05-06T19:58:17Z</time></trkpt>
</trkseg>
</trk>
<trk>
<name>lpbhm32</name>
<cmt>r</cmt>
<desc>Hombourg Chemin n°32 Chemin de Hoppisch / Rue du Cheval Blanc</desc>
<link href="https://chemins.be/hombourg/chemin/32"/><trkseg>
<trkpt lat="50.725733" lon="5.932358"><time>2026-05-06T18:28:17Z</time></trkpt>
<trkpt lat="50.726362" lon="5.931399"><time>2026-05-06T18:38:17Z</time></trkpt>
<trkpt lat="50.726417" lon="5.930398"><time>2026-05-06T18:48:17Z</time></trkpt>
</trkseg></trk>
<trk>
<name>lpbhm32</name>
<cmt>d</cmt>
<desc>Hombourg Chemin n°32 Chemin de Hoppisch / Rue du Cheval Blanc</desc>
<link href="https://chemins.be/hombourg/chemin/32"/><trkseg>
<trkpt lat="50.726417" lon="5.930398"><time>2026-05-06T18:48:17Z</time></trkpt>
<trkpt lat="50.726309" lon="5.929756"><time>2026-05-06T18:58:17Z</time></trkpt>
</trkseg></trk>
<trk>
<name>lpbhm32</name>
<cmt>s</cmt>
<desc>Hombourg Chemin n°32 Chemin de Hoppisch / Rue du Cheval Blanc</desc>
<link href="https://chemins.be/hombourg/chemin/32"/><trkseg>
<trkpt lat="50.726309" lon="5.929756"><time>2026-05-06T18:58:17Z</time></trkpt>
<trkpt lat="50.726154" lon="5.928555"><time>2026-05-06T19:08:17Z</time></trkpt>
<trkpt lat="50.726303" lon="5.928233"><time>2026-05-06T19:18:17Z</time></trkpt>
</trkseg></trk>
<trk>
<name>lpbhm32</name>
<cmt>r</cmt>
<desc>Hombourg Chemin n°32 Chemin de Hoppisch / Rue du Cheval Blanc</desc>
<link href="https://chemins.be/hombourg/chemin/32"/><trkseg>
<trkpt lat="50.726303" lon="5.928233"><time>2026-05-06T19:18:17Z</time></trkpt>
<trkpt lat="50.725242" lon="5.925990"><time>2026-05-06T19:28:17Z</time></trkpt>
</trkseg></trk>
<trk>
<name>lpbhm32</name>
<cmt>s</cmt>
<desc>Hombourg Chemin n°32 Chemin de Hoppisch / Rue du Cheval Blanc</desc>
<link href="https://chemins.be/hombourg/chemin/32"/><trkseg>
<trkpt lat="50.725242" lon="5.925990"><time>2026-05-06T19:28:17Z</time></trkpt>
<trkpt lat="50.723119" lon="5.924937"><time>2026-05-06T19:38:17Z</time></trkpt>
<trkpt lat="50.721262" lon="5.921461"><time>2026-05-06T19:48:17Z</time></trkpt>
</trkseg>
</trk>
<trk>
<name>lpbhm33</name>
<cmt>r</cmt>
<desc>Hombourg Chemin n°33 Chemin du Bisweg</desc>
<link href="https://chemins.be/hombourg/chemin/33"/><trkseg>
<trkpt lat="50.727535" lon="5.935391"><time>2026-05-06T18:28:17Z</time></trkpt>
<trkpt lat="50.727852" lon="5.937837"><time>2026-05-06T18:38:17Z</time></trkpt>
<trkpt lat="50.728096" lon="5.938573"><time>2026-05-06T18:48:17Z</time></trkpt>
</trkseg></trk>
<trk>
<name>lpbhm33</name>
<cmt>v</cmt>
<desc>Hombourg Chemin n°33 Chemin du Bisweg</desc>
<link href="https://chemins.be/hombourg/chemin/33"/><trkseg>
<trkpt lat="50.728096" lon="5.938573"><time>2026-05-06T18:48:17Z</time></trkpt>
<trkpt lat="50.728576" lon="5.939653"><time>2026-05-06T18:58:17Z</time></trkpt>
<trkpt lat="50.728945" lon="5.942484"><time>2026-05-06T19:08:17Z</time></trkpt>
<trkpt lat="50.728855" lon="5.943516"><time>2026-05-06T19:18:17Z</time></trkpt>
</trkseg></trk>
<trk>
<name>lpbhm33</name>
<cmt>s</cmt>
<desc>Hombourg Chemin n°33 Chemin du Bisweg</desc>
<link href="https://chemins.be/hombourg/chemin/33"/><trkseg>
<trkpt lat="50.728855" lon="5.943516"><time>2026-05-06T19:18:17Z</time></trkpt>
<trkpt lat="50.728715" lon="5.945112"><time>2026-05-06T19:28:17Z</time></trkpt>
<trkpt lat="50.728819" lon="5.945946"><time>2026-05-06T19:38:17Z</time></trkpt>
<trkpt lat="50.728982" lon="5.947415"><time>2026-05-06T19:48:17Z</time></trkpt>
<trkpt lat="50.729427" lon="5.949202"><time>2026-05-06T19:58:17Z</time></trkpt>
<trkpt lat="50.729373" lon="5.949810"><time>2026-05-06T20:08:17Z</time></trkpt>
</trkseg>
</trk>
<trk>
<name>lpbhm34</name>
<cmt>r</cmt>
<desc>Hombourg Chemin n°34 Rue du Cheval Blanc</desc>
<link href="https://chemins.be/hombourg/chemin/34"/><trkseg>
<trkpt lat="50.728047" lon="5.938489"><time>2026-05-06T18:28:17Z</time></trkpt>
<trkpt lat="50.727594" lon="5.939605"><time>2026-05-06T18:38:17Z</time></trkpt>
<trkpt lat="50.727458" lon="5.940528"><time>2026-05-06T18:48:17Z</time></trkpt>
<trkpt lat="50.727232" lon="5.940950"><time>2026-05-06T18:58:17Z</time></trkpt>
</trkseg>
</trk>
<trk>
<name>lpbhm35</name>
<cmt>v</cmt>
<desc>Hombourg Chemin n°35 </desc>
<link href="https://chemins.be/hombourg/chemin/35"/><trkseg>
<trkpt lat="50.729650" lon="5.929883"><time>2026-05-06T18:28:17Z</time></trkpt>
<trkpt lat="50.729862" lon="5.930627"><time>2026-05-06T18:38:17Z</time></trkpt>
<trkpt lat="50.730231" lon="5.931468"><time>2026-05-06T18:48:17Z</time></trkpt>
<trkpt lat="50.730619" lon="5.932592"><time>2026-05-06T18:58:17Z</time></trkpt>
<trkpt lat="50.730800" lon="5.933252"><time>2026-05-06T19:08:17Z</time></trkpt>
<trkpt lat="50.730806" lon="5.934252"><time>2026-05-06T19:18:17Z</time></trkpt>
<trkpt lat="50.730578" lon="5.934844"><time>2026-05-06T19:28:17Z</time></trkpt>
<trkpt lat="50.730406" lon="5.935290"><time>2026-05-06T19:38:17Z</time></trkpt>
</trkseg>
</trk>
<trk>
<name>lpbhm36</name>
<cmt>v</cmt>
<desc>Hombourg Chemin n°36 </desc>
<link href="https://chemins.be/hombourg/chemin/36"/><trkseg>
<trkpt lat="50.728518" lon="5.932444"><time>2026-05-06T18:28:17Z</time></trkpt>
<trkpt lat="50.728931" lon="5.931682"><time>2026-05-06T18:38:17Z</time></trkpt>
</trkseg></trk>
<trk>
<name>lpbhm36</name>
<cmt>s</cmt>
<desc>Hombourg Chemin n°36 </desc>
<link href="https://chemins.be/hombourg/chemin/36"/><trkseg>
<trkpt lat="50.728931" lon="5.931682"><time>2026-05-06T18:38:17Z</time></trkpt>
<trkpt lat="50.728618" lon="5.928796"><time>2026-05-06T18:48:17Z</time></trkpt>
<trkpt lat="50.728724" lon="5.928233"><time>2026-05-06T18:58:17Z</time></trkpt>
</trkseg></trk>
<trk>
<name>lpbhm36</name>
<cmt>v</cmt>
<desc>Hombourg Chemin n°36 </desc>
<link href="https://chemins.be/hombourg/chemin/36"/><trkseg>
<trkpt lat="50.728724" lon="5.928233"><time>2026-05-06T18:58:17Z</time></trkpt>
<trkpt lat="50.728844" lon="5.927995"><time>2026-05-06T19:08:17Z</time></trkpt>
<trkpt lat="50.729410" lon="5.926593"><time>2026-05-06T19:18:17Z</time></trkpt>
<trkpt lat="50.729897" lon="5.926064"><time>2026-05-06T19:28:17Z</time></trkpt>
</trkseg>
</trk>
<trk>
<name>lpbhm37</name>
<cmt>s</cmt>
<desc>Hombourg Chemin n°37 Winkelgat</desc>
<link href="https://chemins.be/hombourg/chemin/37"/><trkseg>
<trkpt lat="50.726790" lon="5.924512"><time>2026-05-06T18:28:17Z</time></trkpt>
<trkpt lat="50.727215" lon="5.923342"><time>2026-05-06T18:38:17Z</time></trkpt>
<trkpt lat="50.727557" lon="5.922039"><time>2026-05-06T18:48:17Z</time></trkpt>
<trkpt lat="50.727678" lon="5.921152"><time>2026-05-06T18:58:17Z</time></trkpt>
</trkseg></trk>
<trk>
<name>lpbhm37</name>
<cmt>d</cmt>
<desc>Hombourg Chemin n°37 Winkelgat</desc>
<link href="https://chemins.be/hombourg/chemin/37"/><trkseg>
<trkpt lat="50.727678" lon="5.921152"><time>2026-05-06T18:58:17Z</time></trkpt>
<trkpt lat="50.727595" lon="5.919785"><time>2026-05-06T19:08:17Z</time></trkpt>
<trkpt lat="50.728277" lon="5.918477"><time>2026-05-06T19:18:17Z</time></trkpt>
<trkpt lat="50.728002" lon="5.916824"><time>2026-05-06T19:28:17Z</time></trkpt>
<trkpt lat="50.728237" lon="5.914721"><time>2026-05-06T19:38:17Z</time></trkpt>
</trkseg>
</trk>
<trk>
<name>lpbhm38</name>
<cmt>s</cmt>
<desc>Hombourg Chemin n°38 Rue Laschet / Mergelgatz</desc>
<link href="https://chemins.be/hombourg/chemin/38"/><trkseg>
<trkpt lat="50.727574" lon="5.922162"><time>2026-05-06T18:28:17Z</time></trkpt>
<trkpt lat="50.727384" lon="5.921721"><time>2026-05-06T18:38:17Z</time></trkpt>
<trkpt lat="50.726850" lon="5.920717"><time>2026-05-06T18:48:17Z</time></trkpt>
<trkpt lat="50.725935" lon="5.918364"><time>2026-05-06T18:58:17Z</time></trkpt>
</trkseg></trk>
<trk>
<name>lpbhm38</name>
<cmt>r</cmt>
<desc>Hombourg Chemin n°38 Rue Laschet / Mergelgatz</desc>
<link href="https://chemins.be/hombourg/chemin/38"/><trkseg>
<trkpt lat="50.725935" lon="5.918364"><time>2026-05-06T18:58:17Z</time></trkpt>
<trkpt lat="50.726225" lon="5.918013"><time>2026-05-06T19:08:17Z</time></trkpt>
</trkseg></trk>
<trk>
<name>lpbhm38</name>
<cmt>v</cmt>
<desc>Hombourg Chemin n°38 Rue Laschet / Mergelgatz</desc>
<link href="https://chemins.be/hombourg/chemin/38"/><trkseg>
<trkpt lat="50.726225" lon="5.918013"><time>2026-05-06T19:08:17Z</time></trkpt>
<trkpt lat="50.726295" lon="5.917502"><time>2026-05-06T19:18:17Z</time></trkpt>
</trkseg></trk>
<trk>
<name>lpbhm38</name>
<cmt>d</cmt>
<desc>Hombourg Chemin n°38 Rue Laschet / Mergelgatz</desc>
<link href="https://chemins.be/hombourg/chemin/38"/><trkseg>
<trkpt lat="50.726295" lon="5.917502"><time>2026-05-06T19:18:17Z</time></trkpt>
<trkpt lat="50.726395" lon="5.915528"><time>2026-05-06T19:28:17Z</time></trkpt>
<trkpt lat="50.725862" lon="5.914081"><time>2026-05-06T19:38:17Z</time></trkpt>
</trkseg>
</trk>
<trk>
<name>lpbhm39</name>
<cmt>v</cmt>
<desc>Hombourg Chemin n°39 Heyerdalerveldweg</desc>
<link href="https://chemins.be/hombourg/chemin/39"/><trkseg>
<trkpt lat="50.730985" lon="5.912208"><time>2026-05-06T18:28:17Z</time></trkpt>
<trkpt lat="50.731199" lon="5.912371"><time>2026-05-06T18:38:17Z</time></trkpt>
<trkpt lat="50.731429" lon="5.912676"><time>2026-05-06T18:48:17Z</time></trkpt>
<trkpt lat="50.732068" lon="5.913306"><time>2026-05-06T18:58:17Z</time></trkpt>
<trkpt lat="50.732646" lon="5.913778"><time>2026-05-06T19:08:17Z</time></trkpt>
<trkpt lat="50.732726" lon="5.913866"><time>2026-05-06T19:18:17Z</time></trkpt>
<trkpt lat="50.733401" lon="5.915206"><time>2026-05-06T19:28:17Z</time></trkpt>
<trkpt lat="50.733540" lon="5.915522"><time>2026-05-06T19:38:17Z</time></trkpt>
<trkpt lat="50.733618" lon="5.915765"><time>2026-05-06T19:48:17Z</time></trkpt>
<trkpt lat="50.733821" lon="5.916056"><time>2026-05-06T19:58:17Z</time></trkpt>
<trkpt lat="50.734007" lon="5.916246"><time>2026-05-06T20:08:17Z</time></trkpt>
<trkpt lat="50.734363" lon="5.916541"><time>2026-05-06T20:18:17Z</time></trkpt>
<trkpt lat="50.734497" lon="5.916630"><time>2026-05-06T20:28:17Z</time></trkpt>
<trkpt lat="50.734530" lon="5.916801"><time>2026-05-06T20:38:17Z</time></trkpt>
<trkpt lat="50.734574" lon="5.916874"><time>2026-05-06T20:48:17Z</time></trkpt>
<trkpt lat="50.734690" lon="5.916963"><time>2026-05-06T20:58:17Z</time></trkpt>
<trkpt lat="50.734885" lon="5.917196"><time>2026-05-06T21:08:17Z</time></trkpt>
<trkpt lat="50.735229" lon="5.916994"><time>2026-05-06T21:18:17Z</time></trkpt>
<trkpt lat="50.735895" lon="5.918292"><time>2026-05-06T21:28:17Z</time></trkpt>
<trkpt lat="50.736617" lon="5.919160"><time>2026-05-06T21:38:17Z</time></trkpt>
<trkpt lat="50.736896" lon="5.919306"><time>2026-05-06T21:48:17Z</time></trkpt>
<trkpt lat="50.737178" lon="5.919212"><time>2026-05-06T21:58:17Z</time></trkpt>
</trkseg></trk>
<trk>
<name>lpbhm39</name>
<cmt>s</cmt>
<desc>Hombourg Chemin n°39 Heyerdalerveldweg</desc>
<link href="https://chemins.be/hombourg/chemin/39"/><trkseg>
<trkpt lat="50.737178" lon="5.919212"><time>2026-05-06T21:58:17Z</time></trkpt>
<trkpt lat="50.737344" lon="5.917532"><time>2026-05-06T22:08:17Z</time></trkpt>
<trkpt lat="50.737853" lon="5.917166"><time>2026-05-06T22:18:17Z</time></trkpt>
</trkseg>
</trk>
<trk>
<name>lpbhm3a</name>
<cmt>s</cmt>
<desc>Hombourg Chemin n°3 partie a Rue de Rémersdael / Rue de la Station</desc>
<link href="https://chemins.be/hombourg/chemin/3a"/><trkseg>
<trkpt lat="50.739010" lon="5.890928"><time>2026-05-06T18:28:17Z</time></trkpt>
<trkpt lat="50.735171" lon="5.895492"><time>2026-05-06T18:38:17Z</time></trkpt>
<trkpt lat="50.733342" lon="5.898911"><time>2026-05-06T18:48:17Z</time></trkpt>
<trkpt lat="50.730046" lon="5.901545"><time>2026-05-06T18:58:17Z</time></trkpt>
<trkpt lat="50.728923" lon="5.903719"><time>2026-05-06T19:08:17Z</time></trkpt>
<trkpt lat="50.726059" lon="5.906560"><time>2026-05-06T19:18:17Z</time></trkpt>
</trkseg></trk>
<trk>
<name>lpbhm3a</name>
<cmt>r</cmt>
<desc>Hombourg Chemin n°3 partie a Rue de Rémersdael / Rue de la Station</desc>
<link href="https://chemins.be/hombourg/chemin/3a"/><trkseg>
<trkpt lat="50.726059" lon="5.906560"><time>2026-05-06T19:18:17Z</time></trkpt>
<trkpt lat="50.724592" lon="5.908234"><time>2026-05-06T19:28:17Z</time></trkpt>
</trkseg></trk>
<trk>
<name>lpbhm3a</name>
<cmt>s</cmt>
<desc>Hombourg Chemin n°3 partie a Rue de Rémersdael / Rue de la Station</desc>
<link href="https://chemins.be/hombourg/chemin/3a"/><trkseg>
<trkpt lat="50.724592" lon="5.908234"><time>2026-05-06T19:28:17Z</time></trkpt>
<trkpt lat="50.724715" lon="5.908660"><time>2026-05-06T19:38:17Z</time></trkpt>
<trkpt lat="50.724350" lon="5.909558"><time>2026-05-06T19:48:17Z</time></trkpt>
<trkpt lat="50.724207" lon="5.910728"><time>2026-05-06T19:58:17Z</time></trkpt>
<trkpt lat="50.723646" lon="5.910992"><time>2026-05-06T20:08:17Z</time></trkpt>
<trkpt lat="50.722993" lon="5.911521"><time>2026-05-06T20:18:17Z</time></trkpt>
<trkpt lat="50.722447" lon="5.912771"><time>2026-05-06T20:28:17Z</time></trkpt>
</trkseg></trk>
<trk>
<name>lpbhm3a</name>
<cmt>d</cmt>
<desc>Hombourg Chemin n°3 partie a Rue de Rémersdael / Rue de la Station</desc>
<link href="https://chemins.be/hombourg/chemin/3a"/><trkseg>
<trkpt lat="50.722447" lon="5.912771"><time>2026-05-06T20:28:17Z</time></trkpt>
<trkpt lat="50.722006" lon="5.913781"><time>2026-05-06T20:38:17Z</time></trkpt>
</trkseg></trk>
<trk>
<name>lpbhm3a</name>
<cmt>r</cmt>
<desc>Hombourg Chemin n°3 partie a Rue de Rémersdael / Rue de la Station</desc>
<link href="https://chemins.be/hombourg/chemin/3a"/><trkseg>
<trkpt lat="50.722006" lon="5.913781"><time>2026-05-06T20:38:17Z</time></trkpt>
<trkpt lat="50.721970" lon="5.915598"><time>2026-05-06T20:48:17Z</time></trkpt>
</trkseg></trk>
<trk>
<name>lpbhm3a</name>
<cmt>v</cmt>
<desc>Hombourg Chemin n°3 partie a Rue de Rémersdael / Rue de la Station</desc>
<link href="https://chemins.be/hombourg/chemin/3a"/><trkseg>
<trkpt lat="50.721970" lon="5.915598"><time>2026-05-06T20:48:17Z</time></trkpt>
<trkpt lat="50.722213" lon="5.916607"><time>2026-05-06T20:58:17Z</time></trkpt>
<trkpt lat="50.722179" lon="5.917672"><time>2026-05-06T21:08:17Z</time></trkpt>
</trkseg></trk>
<trk>
<name>lpbhm3a</name>
<cmt>s</cmt>
<desc>Hombourg Chemin n°3 partie a Rue de Rémersdael / Rue de la Station</desc>
<link href="https://chemins.be/hombourg/chemin/3a"/><trkseg>
<trkpt lat="50.722179" lon="5.917672"><time>2026-05-06T21:08:17Z</time></trkpt>
<trkpt lat="50.722351" lon="5.918277"><time>2026-05-06T21:18:17Z</time></trkpt>
<trkpt lat="50.722684" lon="5.918710"><time>2026-05-06T21:28:17Z</time></trkpt>
</trkseg></trk>
<trk>
<name>lpbhm3a</name>
<cmt>r</cmt>
<desc>Hombourg Chemin n°3 partie a Rue de Rémersdael / Rue de la Station</desc>
<link href="https://chemins.be/hombourg/chemin/3a"/><trkseg>
<trkpt lat="50.722684" lon="5.918710"><time>2026-05-06T21:28:17Z</time></trkpt>
<trkpt lat="50.723051" lon="5.919404"><time>2026-05-06T21:38:17Z</time></trkpt>
<trkpt lat="50.723096" lon="5.919647"><time>2026-05-06T21:48:17Z</time></trkpt>
<trkpt lat="50.723302" lon="5.920069"><time>2026-05-06T21:58:17Z</time></trkpt>
</trkseg>
</trk>
<trk>
<name>lpbhm3b</name>
<cmt>q</cmt>
<desc>Hombourg Chemin n°3 partie b Rue Kheer</desc>
<link href="https://chemins.be/hombourg/chemin/3b"/><trkseg>
<trkpt lat="50.719057" lon="5.921611"><time>2026-05-06T18:28:17Z</time></trkpt>
<trkpt lat="50.718039" lon="5.921580"><time>2026-05-06T18:38:17Z</time></trkpt>
<trkpt lat="50.717670" lon="5.921877"><time>2026-05-06T18:48:17Z</time></trkpt>
</trkseg></trk>
<trk>
<name>lpbhm3b</name>
<cmt>s</cmt>
<desc>Hombourg Chemin n°3 partie b Rue Kheer</desc>
<link href="https://chemins.be/hombourg/chemin/3b"/><trkseg>
<trkpt lat="50.717670" lon="5.921877"><time>2026-05-06T18:48:17Z</time></trkpt>
<trkpt lat="50.717309" lon="5.923063"><time>2026-05-06T18:58:17Z</time></trkpt>
<trkpt lat="50.716408" lon="5.923528"><time>2026-05-06T19:08:17Z</time></trkpt>
<trkpt lat="50.715783" lon="5.923592"><time>2026-05-06T19:18:17Z</time></trkpt>
<trkpt lat="50.714272" lon="5.925554"><time>2026-05-06T19:28:17Z</time></trkpt>
</trkseg></trk>
<trk>
<name>lpbhm3b</name>
<cmt>v</cmt>
<desc>Hombourg Chemin n°3 partie b Rue Kheer</desc>
<link href="https://chemins.be/hombourg/chemin/3b"/><trkseg>
<trkpt lat="50.714272" lon="5.925554"><time>2026-05-06T19:28:17Z</time></trkpt>
<trkpt lat="50.713523" lon="5.926797"><time>2026-05-06T19:38:17Z</time></trkpt>
<trkpt lat="50.713225" lon="5.927117"><time>2026-05-06T19:48:17Z</time></trkpt>
<trkpt lat="50.712177" lon="5.928226"><time>2026-05-06T19:58:17Z</time></trkpt>
<trkpt lat="50.712277" lon="5.928648"><time>2026-05-06T20:08:17Z</time></trkpt>
</trkseg>
</trk>
<trk>
<name>lpbhm4</name>
<cmt>s</cmt>
<desc>Hombourg Chemin n°4 Rue de Hindel / Chemin du Bisweg</desc>
<link href="https://chemins.be/hombourg/chemin/4"/><trkseg>
<trkpt lat="50.727131" lon="5.925472"><time>2026-05-06T18:28:17Z</time></trkpt>
<trkpt lat="50.727742" lon="5.926412"><time>2026-05-06T18:38:17Z</time></trkpt>
</trkseg></trk>
<trk>
<name>lpbhm4</name>
<cmt>r</cmt>
<desc>Hombourg Chemin n°4 Rue de Hindel / Chemin du Bisweg</desc>
<link href="https://chemins.be/hombourg/chemin/4"/><trkseg>
<trkpt lat="50.727742" lon="5.926412"><time>2026-05-06T18:38:17Z</time></trkpt>
<trkpt lat="50.728291" lon="5.927296"><time>2026-05-06T18:48:17Z</time></trkpt>
</trkseg></trk>
<trk>
<name>lpbhm4</name>
<cmt>s</cmt>
<desc>Hombourg Chemin n°4 Rue de Hindel / Chemin du Bisweg</desc>
<link href="https://chemins.be/hombourg/chemin/4"/><trkseg>
<trkpt lat="50.728291" lon="5.927296"><time>2026-05-06T18:48:17Z</time></trkpt>
<trkpt lat="50.728776" lon="5.928225"><time>2026-05-06T18:58:17Z</time></trkpt>
</trkseg></trk>
<trk>
<name>lpbhm4</name>
<cmt>v</cmt>
<desc>Hombourg Chemin n°4 Rue de Hindel / Chemin du Bisweg</desc>
<link href="https://chemins.be/hombourg/chemin/4"/><trkseg>
<trkpt lat="50.728776" lon="5.928225"><time>2026-05-06T18:58:17Z</time></trkpt>
<trkpt lat="50.729735" lon="5.929971"><time>2026-05-06T19:08:17Z</time></trkpt>
</trkseg></trk>
<trk>
<name>lpbhm4</name>
<cmt>r</cmt>
<desc>Hombourg Chemin n°4 Rue de Hindel / Chemin du Bisweg</desc>
<link href="https://chemins.be/hombourg/chemin/4"/><trkseg>
<trkpt lat="50.729735" lon="5.929971"><time>2026-05-06T19:08:17Z</time></trkpt>
<trkpt lat="50.730333" lon="5.929921"><time>2026-05-06T19:18:17Z</time></trkpt>
<trkpt lat="50.731334" lon="5.929313"><time>2026-05-06T19:28:17Z</time></trkpt>
<trkpt lat="50.732112" lon="5.929742"><time>2026-05-06T19:38:17Z</time></trkpt>
<trkpt lat="50.735429" lon="5.930185"><time>2026-05-06T19:48:17Z</time></trkpt>
</trkseg></trk>
<trk>
<name>lpbhm4</name>
<cmt>v</cmt>
<desc>Hombourg Chemin n°4 Rue de Hindel / Chemin du Bisweg</desc>
<link href="https://chemins.be/hombourg/chemin/4"/><trkseg>
<trkpt lat="50.735429" lon="5.930185"><time>2026-05-06T19:48:17Z</time></trkpt>
<trkpt lat="50.736193" lon="5.930962"><time>2026-05-06T19:58:17Z</time></trkpt>
<trkpt lat="50.736684" lon="5.932002"><time>2026-05-06T20:08:17Z</time></trkpt>
<trkpt lat="50.738170" lon="5.934468"><time>2026-05-06T20:18:17Z</time></trkpt>
</trkseg></trk>
<trk>
<name>lpbhm4</name>
<cmt>q</cmt>
<desc>Hombourg Chemin n°4 Rue de Hindel / Chemin du Bisweg</desc>
<link href="https://chemins.be/hombourg/chemin/4"/><trkseg>
<trkpt lat="50.738170" lon="5.934468"><time>2026-05-06T20:18:17Z</time></trkpt>
<trkpt lat="50.738634" lon="5.935482"><time>2026-05-06T20:28:17Z</time></trkpt>
</trkseg></trk>
<trk>
<name>lpbhm4</name>
<cmt>d</cmt>
<desc>Hombourg Chemin n°4 Rue de Hindel / Chemin du Bisweg</desc>
<link href="https://chemins.be/hombourg/chemin/4"/><trkseg>
<trkpt lat="50.738634" lon="5.935482"><time>2026-05-06T20:28:17Z</time></trkpt>
<trkpt lat="50.740266" lon="5.934888"><time>2026-05-06T20:38:17Z</time></trkpt>
</trkseg></trk>
<trk>
<name>lpbhm4</name>
<cmt>q</cmt>
<desc>Hombourg Chemin n°4 Rue de Hindel / Chemin du Bisweg</desc>
<link href="https://chemins.be/hombourg/chemin/4"/><trkseg>
<trkpt lat="50.740266" lon="5.934888"><time>2026-05-06T20:38:17Z</time></trkpt>
<trkpt lat="50.740954" lon="5.935002"><time>2026-05-06T20:48:17Z</time></trkpt>
<trkpt lat="50.741164" lon="5.934772"><time>2026-05-06T20:58:17Z</time></trkpt>
<trkpt lat="50.741214" lon="5.934122"><time>2026-05-06T21:08:17Z</time></trkpt>
</trkseg>
</trk>
<trk>
<name>lpbhm40</name>
<cmt>v</cmt>
<desc>Hombourg Chemin n°40 </desc>
<link href="https://chemins.be/hombourg/chemin/40"/><trkseg>
<trkpt lat="50.731619" lon="5.929542"><time>2026-05-06T18:28:17Z</time></trkpt>
<trkpt lat="50.732325" lon="5.928474"><time>2026-05-06T18:38:17Z</time></trkpt>
<trkpt lat="50.733025" lon="5.927888"><time>2026-05-06T18:48:17Z</time></trkpt>
<trkpt lat="50.733147" lon="5.927732"><time>2026-05-06T18:58:17Z</time></trkpt>
<trkpt lat="50.733231" lon="5.927300"><time>2026-05-06T19:08:17Z</time></trkpt>
<trkpt lat="50.733469" lon="5.926982"><time>2026-05-06T19:18:17Z</time></trkpt>
<trkpt lat="50.733683" lon="5.926827"><time>2026-05-06T19:28:17Z</time></trkpt>
<trkpt lat="50.733809" lon="5.926638"><time>2026-05-06T19:38:17Z</time></trkpt>
</trkseg></trk>
<trk>
<name>lpbhm40</name>
<cmt>s</cmt>
<desc>Hombourg Chemin n°40 </desc>
<link href="https://chemins.be/hombourg/chemin/40"/><trkseg>
<trkpt lat="50.733809" lon="5.926638"><time>2026-05-06T19:38:17Z</time></trkpt>
<trkpt lat="50.734562" lon="5.927664"><time>2026-05-06T19:48:17Z</time></trkpt>
<trkpt lat="50.735228" lon="5.927721"><time>2026-05-06T19:58:17Z</time></trkpt>
<trkpt lat="50.735666" lon="5.927437"><time>2026-05-06T20:08:17Z</time></trkpt>
</trkseg></trk>
<trk>
<name>lpbhm40</name>
<cmt>v</cmt>
<desc>Hombourg Chemin n°40 </desc>
<link href="https://chemins.be/hombourg/chemin/40"/><trkseg>
<trkpt lat="50.735666" lon="5.927437"><time>2026-05-06T20:08:17Z</time></trkpt>
<trkpt lat="50.736527" lon="5.926261"><time>2026-05-06T20:18:17Z</time></trkpt>
<trkpt lat="50.736919" lon="5.925863"><time>2026-05-06T20:28:17Z</time></trkpt>
</trkseg></trk>
<trk>
<name>lpbhm40</name>
<cmt>r</cmt>
<desc>Hombourg Chemin n°40 </desc>
<link href="https://chemins.be/hombourg/chemin/40"/><trkseg>
<trkpt lat="50.736919" lon="5.925863"><time>2026-05-06T20:28:17Z</time></trkpt>
<trkpt lat="50.737158" lon="5.925243"><time>2026-05-06T20:38:17Z</time></trkpt>
<trkpt lat="50.738360" lon="5.924470"><time>2026-05-06T20:48:17Z</time></trkpt>
</trkseg>
</trk>
<trk>
<name>lpbhm41</name>
<cmt>s</cmt>
<desc>Hombourg Chemin n°41 Chemin vicinel nr 41 / Sentier des Muguets</desc>
<link href="https://chemins.be/hombourg/chemin/41"/><trkseg>
<trkpt lat="50.735498" lon="5.930232"><time>2026-05-06T18:28:17Z</time></trkpt>
<trkpt lat="50.733809" lon="5.926638"><time>2026-05-06T18:38:17Z</time></trkpt>
</trkseg></trk>
<trk>
<name>lpbhm41</name>
<cmt>v</cmt>
<desc>Hombourg Chemin n°41 Chemin vicinel nr 41 / Sentier des Muguets</desc>
<link href="https://chemins.be/hombourg/chemin/41"/><trkseg>
<trkpt lat="50.733809" lon="5.926638"><time>2026-05-06T18:38:17Z</time></trkpt>
<trkpt lat="50.733754" lon="5.926510"><time>2026-05-06T18:48:17Z</time></trkpt>
<trkpt lat="50.733578" lon="5.926124"><time>2026-05-06T18:58:17Z</time></trkpt>
<trkpt lat="50.733586" lon="5.925892"><time>2026-05-06T19:08:17Z</time></trkpt>
<trkpt lat="50.733687" lon="5.925795"><time>2026-05-06T19:18:17Z</time></trkpt>
<trkpt lat="50.733793" lon="5.924244"><time>2026-05-06T19:28:17Z</time></trkpt>
<trkpt lat="50.733840" lon="5.923866"><time>2026-05-06T19:38:17Z</time></trkpt>
<trkpt lat="50.733999" lon="5.923233"><time>2026-05-06T19:48:17Z</time></trkpt>
<trkpt lat="50.734431" lon="5.922296"><time>2026-05-06T19:58:17Z</time></trkpt>
<trkpt lat="50.734784" lon="5.921223"><time>2026-05-06T20:08:17Z</time></trkpt>
<trkpt lat="50.734488" lon="5.919598"><time>2026-05-06T20:18:17Z</time></trkpt>
<trkpt lat="50.734449" lon="5.919267"><time>2026-05-06T20:28:17Z</time></trkpt>
<trkpt lat="50.734594" lon="5.918815"><time>2026-05-06T20:38:17Z</time></trkpt>
<trkpt lat="50.734876" lon="5.917875"><time>2026-05-06T20:48:17Z</time></trkpt>
<trkpt lat="50.734939" lon="5.917212"><time>2026-05-06T20:58:17Z</time></trkpt>
<trkpt lat="50.735193" lon="5.917036"><time>2026-05-06T21:08:17Z</time></trkpt>
<trkpt lat="50.735293" lon="5.916260"><time>2026-05-06T21:18:17Z</time></trkpt>
<trkpt lat="50.735243" lon="5.915909"><time>2026-05-06T21:28:17Z</time></trkpt>
<trkpt lat="50.734872" lon="5.914425"><time>2026-05-06T21:38:17Z</time></trkpt>
<trkpt lat="50.734714" lon="5.913938"><time>2026-05-06T21:48:17Z</time></trkpt>
<trkpt lat="50.735185" lon="5.911339"><time>2026-05-06T21:58:17Z</time></trkpt>
</trkseg>
</trk>
<trk>
<name>lpbhm42</name>
<cmt>v</cmt>
<desc>Hombourg Chemin n°42 </desc>
<link href="https://chemins.be/hombourg/chemin/42"/><trkseg>
<trkpt lat="50.732610" lon="5.938969"><time>2026-05-06T18:28:17Z</time></trkpt>
<trkpt lat="50.733348" lon="5.936065"><time>2026-05-06T18:38:17Z</time></trkpt>
<trkpt lat="50.734868" lon="5.934287"><time>2026-05-06T18:48:17Z</time></trkpt>
<trkpt lat="50.735185" lon="5.933762"><time>2026-05-06T18:58:17Z</time></trkpt>
<trkpt lat="50.734682" lon="5.932646"><time>2026-05-06T19:08:17Z</time></trkpt>
<trkpt lat="50.735000" lon="5.932202"><time>2026-05-06T19:18:17Z</time></trkpt>
<trkpt lat="50.735445" lon="5.930226"><time>2026-05-06T19:28:17Z</time></trkpt>
<trkpt lat="50.735734" lon="5.929413"><time>2026-05-06T19:38:17Z</time></trkpt>
<trkpt lat="50.735698" lon="5.928884"><time>2026-05-06T19:48:17Z</time></trkpt>
<trkpt lat="50.735879" lon="5.928011"><time>2026-05-06T19:58:17Z</time></trkpt>
<trkpt lat="50.735716" lon="5.927353"><time>2026-05-06T20:08:17Z</time></trkpt>
</trkseg>
</trk>
<trk>
<name>lpbhm43</name>
<cmt>v</cmt>
<desc>Hombourg Chemin n°43 Panquet / Sandweg / Boffereth</desc>
<link href="https://chemins.be/hombourg/chemin/43"/><trkseg>
<trkpt lat="50.733025" lon="5.939979"><time>2026-05-06T18:28:17Z</time></trkpt>
<trkpt lat="50.733491" lon="5.939414"><time>2026-05-06T18:38:17Z</time></trkpt>
<trkpt lat="50.734370" lon="5.940222"><time>2026-05-06T18:48:17Z</time></trkpt>
<trkpt lat="50.735361" lon="5.941846"><time>2026-05-06T18:58:17Z</time></trkpt>
<trkpt lat="50.736221" lon="5.942411"><time>2026-05-06T19:08:17Z</time></trkpt>
<trkpt lat="50.736562" lon="5.942329"><time>2026-05-06T19:18:17Z</time></trkpt>
<trkpt lat="50.736720" lon="5.942325"><time>2026-05-06T19:28:17Z</time></trkpt>
<trkpt lat="50.738287" lon="5.943164"><time>2026-05-06T19:38:17Z</time></trkpt>
</trkseg></trk>
<trk>
<name>lpbhm43</name>
<cmt>r</cmt>
<desc>Hombourg Chemin n°43 Panquet / Sandweg / Boffereth</desc>
<link href="https://chemins.be/hombourg/chemin/43"/><trkseg>
<trkpt lat="50.738287" lon="5.943164"><time>2026-05-06T19:38:17Z</time></trkpt>
<trkpt lat="50.739002" lon="5.943464"><time>2026-05-06T19:48:17Z</time></trkpt>
</trkseg></trk>
<trk>
<name>lpbhm43</name>
<cmt>s</cmt>
<desc>Hombourg Chemin n°43 Panquet / Sandweg / Boffereth</desc>
<link href="https://chemins.be/hombourg/chemin/43"/><trkseg>
<trkpt lat="50.739002" lon="5.943464"><time>2026-05-06T19:48:17Z</time></trkpt>
<trkpt lat="50.741066" lon="5.942548"><time>2026-05-06T19:58:17Z</time></trkpt>
<trkpt lat="50.741582" lon="5.942019"><time>2026-05-06T20:08:17Z</time></trkpt>
<trkpt lat="50.741618" lon="5.941075"><time>2026-05-06T20:18:17Z</time></trkpt>
<trkpt lat="50.742206" lon="5.940260"><time>2026-05-06T20:28:17Z</time></trkpt>
</trkseg>
</trk>
<trk>
<name>lpbhm44</name>
<cmt>r</cmt>
<desc>Hombourg Chemin n°44 Boffereth</desc>
<link href="https://chemins.be/hombourg/chemin/44"/><trkseg>
<trkpt lat="50.739056" lon="5.943407"><time>2026-05-06T18:28:17Z</time></trkpt>
<trkpt lat="50.739735" lon="5.944437"><time>2026-05-06T18:38:17Z</time></trkpt>
<trkpt lat="50.741229" lon="5.945080"><time>2026-05-06T18:48:17Z</time></trkpt>
</trkseg></trk>
<trk>
<name>lpbhm44</name>
<cmt>s</cmt>
<desc>Hombourg Chemin n°44 Boffereth</desc>
<link href="https://chemins.be/hombourg/chemin/44"/><trkseg>
<trkpt lat="50.741229" lon="5.945080"><time>2026-05-06T18:48:17Z</time></trkpt>
<trkpt lat="50.741676" lon="5.945122"><time>2026-05-06T18:58:17Z</time></trkpt>
<trkpt lat="50.742632" lon="5.945074"><time>2026-05-06T19:08:17Z</time></trkpt>
<trkpt lat="50.742757" lon="5.945306"><time>2026-05-06T19:18:17Z</time></trkpt>
<trkpt lat="50.743734" lon="5.947208"><time>2026-05-06T19:28:17Z</time></trkpt>
<trkpt lat="50.745179" lon="5.949350"><time>2026-05-06T19:38:17Z</time></trkpt>
<trkpt lat="50.745540" lon="5.949429"><time>2026-05-06T19:48:17Z</time></trkpt>
</trkseg>
</trk>
<trk>
<name>lpbhm44bis</name>
<cmt>r</cmt>
<desc>Hombourg Chemin n°44bis Boffereth</desc>
<link href="https://chemins.be/hombourg/chemin/44bis"/><trkseg>
<trkpt lat="50.741220" lon="5.945163"><time>2026-05-06T18:28:17Z</time></trkpt>
<trkpt lat="50.741682" lon="5.946000"><time>2026-05-06T18:38:17Z</time></trkpt>
<trkpt lat="50.742136" lon="5.946849"><time>2026-05-06T18:48:17Z</time></trkpt>
</trkseg></trk>
<trk>
<name>lpbhm44bis</name>
<cmt>v</cmt>
<desc>Hombourg Chemin n°44bis Boffereth</desc>
<link href="https://chemins.be/hombourg/chemin/44bis"/><trkseg>
<trkpt lat="50.742136" lon="5.946849"><time>2026-05-06T18:48:17Z</time></trkpt>
<trkpt lat="50.742505" lon="5.946915"><time>2026-05-06T18:58:17Z</time></trkpt>
<trkpt lat="50.742681" lon="5.947148"><time>2026-05-06T19:08:17Z</time></trkpt>
<trkpt lat="50.742818" lon="5.947688"><time>2026-05-06T19:18:17Z</time></trkpt>
<trkpt lat="50.743723" lon="5.947180"><time>2026-05-06T19:28:17Z</time></trkpt>
</trkseg>
</trk>
<trk>
<name>lpbhm45</name>
<cmt>s</cmt>
<desc>Hombourg Chemin n°45 Boffereth</desc>
<link href="https://chemins.be/hombourg/chemin/45"/><trkseg>
<trkpt lat="50.743757" lon="5.947179"><time>2026-05-06T18:28:17Z</time></trkpt>
<trkpt lat="50.744878" lon="5.945824"><time>2026-05-06T18:38:17Z</time></trkpt>
</trkseg>
</trk>
<trk>
<name>lpbhm46</name>
<cmt>s</cmt>
<desc>Hombourg Chemin n°46 Chemin de Gensterhof</desc>
<link href="https://chemins.be/hombourg/chemin/46"/><trkseg>
<trkpt lat="50.739916" lon="5.961531"><time>2026-05-06T18:28:17Z</time></trkpt>
<trkpt lat="50.739938" lon="5.962150"><time>2026-05-06T18:38:17Z</time></trkpt>
<trkpt lat="50.740147" lon="5.962933"><time>2026-05-06T18:48:17Z</time></trkpt>
<trkpt lat="50.740520" lon="5.963681"><time>2026-05-06T18:58:17Z</time></trkpt>
<trkpt lat="50.740441" lon="5.965397"><time>2026-05-06T19:08:17Z</time></trkpt>
<trkpt lat="50.740185" lon="5.966052"><time>2026-05-06T19:18:17Z</time></trkpt>
<trkpt lat="50.739953" lon="5.966184"><time>2026-05-06T19:28:17Z</time></trkpt>
</trkseg></trk>
<trk>
<name>lpbhm46</name>
<cmt>r</cmt>
<desc>Hombourg Chemin n°46 Chemin de Gensterhof</desc>
<link href="https://chemins.be/hombourg/chemin/46"/><trkseg>
<trkpt lat="50.739953" lon="5.966184"><time>2026-05-06T19:28:17Z</time></trkpt>
<trkpt lat="50.739682" lon="5.965859"><time>2026-05-06T19:38:17Z</time></trkpt>
</trkseg></trk>
<trk>
<name>lpbhm46</name>
<cmt>s</cmt>
<desc>Hombourg Chemin n°46 Chemin de Gensterhof</desc>
<link href="https://chemins.be/hombourg/chemin/46"/><trkseg>
<trkpt lat="50.739682" lon="5.965859"><time>2026-05-06T19:38:17Z</time></trkpt>
<trkpt lat="50.739392" lon="5.965372"><time>2026-05-06T19:48:17Z</time></trkpt>
</trkseg>
</trk>
<trk>
<name>lpbhm47</name>
<cmt>s</cmt>
<desc>Hombourg Chemin n°47 Chemin du Bisweg</desc>
<link href="https://chemins.be/hombourg/chemin/47"/><trkseg>
<trkpt lat="50.734511" lon="5.940335"><time>2026-05-06T18:28:17Z</time></trkpt>
<trkpt lat="50.734929" lon="5.940260"><time>2026-05-06T18:38:17Z</time></trkpt>
</trkseg></trk>
<trk>
<name>lpbhm47</name>
<cmt>q</cmt>
<desc>Hombourg Chemin n°47 Chemin du Bisweg</desc>
<link href="https://chemins.be/hombourg/chemin/47"/><trkseg>
<trkpt lat="50.734929" lon="5.940260"><time>2026-05-06T18:38:17Z</time></trkpt>
<trkpt lat="50.738134" lon="5.936782"><time>2026-05-06T18:48:17Z</time></trkpt>
</trkseg></trk>
<trk>
<name>lpbhm47</name>
<cmt>v</cmt>
<desc>Hombourg Chemin n°47 Chemin du Bisweg</desc>
<link href="https://chemins.be/hombourg/chemin/47"/><trkseg>
<trkpt lat="50.738134" lon="5.936782"><time>2026-05-06T18:48:17Z</time></trkpt>
<trkpt lat="50.737754" lon="5.935282"><time>2026-05-06T18:58:17Z</time></trkpt>
<trkpt lat="50.738134" lon="5.934462"><time>2026-05-06T19:08:17Z</time></trkpt>
<trkpt lat="50.737996" lon="5.934035"><time>2026-05-06T19:18:17Z</time></trkpt>
<trkpt lat="50.738593" lon="5.933613"><time>2026-05-06T19:28:17Z</time></trkpt>
</trkseg></trk>
<trk>
<name>lpbhm47</name>
<cmt>d</cmt>
<desc>Hombourg Chemin n°47 Chemin du Bisweg</desc>
<link href="https://chemins.be/hombourg/chemin/47"/><trkseg>
<trkpt lat="50.738593" lon="5.933613"><time>2026-05-06T19:28:17Z</time></trkpt>
<trkpt lat="50.738214" lon="5.932792"><time>2026-05-06T19:38:17Z</time></trkpt>
</trkseg></trk>
<trk>
<name>lpbhm47</name>
<cmt>v</cmt>
<desc>Hombourg Chemin n°47 Chemin du Bisweg</desc>
<link href="https://chemins.be/hombourg/chemin/47"/><trkseg>
<trkpt lat="50.738214" lon="5.932792"><time>2026-05-06T19:38:17Z</time></trkpt>
<trkpt lat="50.738265" lon="5.931709"><time>2026-05-06T19:48:17Z</time></trkpt>
<trkpt lat="50.739043" lon="5.930788"><time>2026-05-06T19:58:17Z</time></trkpt>
<trkpt lat="50.739919" lon="5.929849"><time>2026-05-06T20:08:17Z</time></trkpt>
<trkpt lat="50.739845" lon="5.926852"><time>2026-05-06T20:18:17Z</time></trkpt>
<trkpt lat="50.739457" lon="5.924427"><time>2026-05-06T20:28:17Z</time></trkpt>
<trkpt lat="50.739483" lon="5.924044"><time>2026-05-06T20:38:17Z</time></trkpt>
<trkpt lat="50.739675" lon="5.923244"><time>2026-05-06T20:48:17Z</time></trkpt>
<trkpt lat="50.739534" lon="5.921871"><time>2026-05-06T20:58:17Z</time></trkpt>
<trkpt lat="50.738889" lon="5.919836"><time>2026-05-06T21:08:17Z</time></trkpt>
<trkpt lat="50.738120" lon="5.918140"><time>2026-05-06T21:18:17Z</time></trkpt>
</trkseg>
</trk>
<trk>
<name>lpbhm48</name>
<cmt>r</cmt>
<desc>Hombourg Chemin n°48 Rue de Lattenheuer</desc>
<link href="https://chemins.be/hombourg/chemin/48"/><trkseg>
<trkpt lat="50.738265" lon="5.943142"><time>2026-05-06T18:28:17Z</time></trkpt>
<trkpt lat="50.738849" lon="5.941973"><time>2026-05-06T18:38:17Z</time></trkpt>
<trkpt lat="50.738817" lon="5.941322"><time>2026-05-06T18:48:17Z</time></trkpt>
<trkpt lat="50.738693" lon="5.940435"><time>2026-05-06T18:58:17Z</time></trkpt>
</trkseg></trk>
<trk>
<name>lpbhm48</name>
<cmt>v</cmt>
<desc>Hombourg Chemin n°48 Rue de Lattenheuer</desc>
<link href="https://chemins.be/hombourg/chemin/48"/><trkseg>
<trkpt lat="50.738693" lon="5.940435"><time>2026-05-06T18:58:17Z</time></trkpt>
<trkpt lat="50.738448" lon="5.939097"><time>2026-05-06T19:08:17Z</time></trkpt>
<trkpt lat="50.738550" lon="5.937617"><time>2026-05-06T19:18:17Z</time></trkpt>
<trkpt lat="50.738115" lon="5.936732"><time>2026-05-06T19:28:17Z</time></trkpt>
</trkseg>
</trk>
<trk>
<name>lpbhm49</name>
<cmt>d</cmt>
<desc>Hombourg Chemin n°49 </desc>
<link href="https://chemins.be/hombourg/chemin/49"/><trkseg>
<trkpt lat="50.735164" lon="5.911335"><time>2026-05-06T18:28:17Z</time></trkpt>
<trkpt lat="50.736218" lon="5.911348"><time>2026-05-06T18:38:17Z</time></trkpt>
<trkpt lat="50.737147" lon="5.911262"><time>2026-05-06T18:48:17Z</time></trkpt>
</trkseg>
</trk>
<trk>
<name>lpbhm5</name>
<cmt>s</cmt>
<desc>Hombourg Chemin n°5 Chemin de Berlieren / Merckhof</desc>
<link href="https://chemins.be/hombourg/chemin/5"/><trkseg>
<trkpt lat="50.724354" lon="5.909537"><time>2026-05-06T18:28:17Z</time></trkpt>
<trkpt lat="50.724024" lon="5.908943"><time>2026-05-06T18:38:17Z</time></trkpt>
<trkpt lat="50.723174" lon="5.907859"><time>2026-05-06T18:48:17Z</time></trkpt>
<trkpt lat="50.723639" lon="5.905718"><time>2026-05-06T18:58:17Z</time></trkpt>
</trkseg></trk>
<trk>
<name>lpbhm5</name>
<cmt>r</cmt>
<desc>Hombourg Chemin n°5 Chemin de Berlieren / Merckhof</desc>
<link href="https://chemins.be/hombourg/chemin/5"/><trkseg>
<trkpt lat="50.723639" lon="5.905718"><time>2026-05-06T18:58:17Z</time></trkpt>
<trkpt lat="50.721842" lon="5.902834"><time>2026-05-06T19:08:17Z</time></trkpt>
</trkseg></trk>
<trk>
<name>lpbhm5</name>
<cmt>s</cmt>
<desc>Hombourg Chemin n°5 Chemin de Berlieren / Merckhof</desc>
<link href="https://chemins.be/hombourg/chemin/5"/><trkseg>
<trkpt lat="50.721842" lon="5.902834"><time>2026-05-06T19:08:17Z</time></trkpt>
<trkpt lat="50.720972" lon="5.901312"><time>2026-05-06T19:18:17Z</time></trkpt>
</trkseg></trk>
<trk>
<name>lpbhm5</name>
<cmt>v</cmt>
<desc>Hombourg Chemin n°5 Chemin de Berlieren / Merckhof</desc>
<link href="https://chemins.be/hombourg/chemin/5"/><trkseg>
<trkpt lat="50.720972" lon="5.901312"><time>2026-05-06T19:18:17Z</time></trkpt>
<trkpt lat="50.720360" lon="5.899462"><time>2026-05-06T19:28:17Z</time></trkpt>
<trkpt lat="50.719783" lon="5.898286"><time>2026-05-06T19:38:17Z</time></trkpt>
<trkpt lat="50.718363" lon="5.896830"><time>2026-05-06T19:48:17Z</time></trkpt>
<trkpt lat="50.717770" lon="5.895917"><time>2026-05-06T19:58:17Z</time></trkpt>
<trkpt lat="50.717401" lon="5.895195"><time>2026-05-06T20:08:17Z</time></trkpt>
<trkpt lat="50.715839" lon="5.893478"><time>2026-05-06T20:18:17Z</time></trkpt>
<trkpt lat="50.713784" lon="5.890234"><time>2026-05-06T20:28:17Z</time></trkpt>
<trkpt lat="50.710705" lon="5.885733"><time>2026-05-06T20:38:17Z</time></trkpt>
<trkpt lat="50.710400" lon="5.885389"><time>2026-05-06T20:48:17Z</time></trkpt>
</trkseg>
</trk>
<trk>
<name>lpbhm50</name>
<cmt>v</cmt>
<desc>Hombourg Chemin n°50 Chemin du Bois du Curé</desc>
<link href="https://chemins.be/hombourg/chemin/50"/><trkseg>
<trkpt lat="50.729626" lon="5.912329"><time>2026-05-06T18:28:17Z</time></trkpt>
<trkpt lat="50.729616" lon="5.912141"><time>2026-05-06T18:38:17Z</time></trkpt>
<trkpt lat="50.729821" lon="5.911178"><time>2026-05-06T18:48:17Z</time></trkpt>
<trkpt lat="50.730166" lon="5.910283"><time>2026-05-06T18:58:17Z</time></trkpt>
<trkpt lat="50.730423" lon="5.909200"><time>2026-05-06T19:08:17Z</time></trkpt>
<trkpt lat="50.731137" lon="5.908189"><time>2026-05-06T19:18:17Z</time></trkpt>
<trkpt lat="50.731833" lon="5.907943"><time>2026-05-06T19:28:17Z</time></trkpt>
<trkpt lat="50.732246" lon="5.907390"><time>2026-05-06T19:38:17Z</time></trkpt>
<trkpt lat="50.733049" lon="5.906877"><time>2026-05-06T19:48:17Z</time></trkpt>
<trkpt lat="50.733985" lon="5.907104"><time>2026-05-06T19:58:17Z</time></trkpt>
</trkseg></trk>
<trk>
<name>lpbhm50</name>
<cmt>d</cmt>
<desc>Hombourg Chemin n°50 Chemin du Bois du Curé</desc>
<link href="https://chemins.be/hombourg/chemin/50"/><trkseg>
<trkpt lat="50.733985" lon="5.907104"><time>2026-05-06T19:58:17Z</time></trkpt>
<trkpt lat="50.734745" lon="5.907705"><time>2026-05-06T20:08:17Z</time></trkpt>
<trkpt lat="50.736961" lon="5.907141"><time>2026-05-06T20:18:17Z</time></trkpt>
<trkpt lat="50.737834" lon="5.905568"><time>2026-05-06T20:28:17Z</time></trkpt>
<trkpt lat="50.738771" lon="5.905511"><time>2026-05-06T20:38:17Z</time></trkpt>
<trkpt lat="50.739182" lon="5.900913"><time>2026-05-06T20:48:17Z</time></trkpt>
<trkpt lat="50.740013" lon="5.896640"><time>2026-05-06T20:58:17Z</time></trkpt>
<trkpt lat="50.741561" lon="5.895391"><time>2026-05-06T21:08:17Z</time></trkpt>
<trkpt lat="50.746228" lon="5.891510"><time>2026-05-06T21:18:17Z</time></trkpt>
<trkpt lat="50.746843" lon="5.891129"><time>2026-05-06T21:28:17Z</time></trkpt>
</trkseg>
</trk>
<trk>
<name>lpbhm51</name>
<cmt>r</cmt>
<desc>Hombourg Chemin n°51 chemin de Patloy</desc>
<link href="https://chemins.be/hombourg/chemin/51"/><trkseg>
<trkpt lat="50.696062" lon="5.922833"><time>2026-05-06T18:28:17Z</time></trkpt>
<trkpt lat="50.697099" lon="5.923409"><time>2026-05-06T18:38:17Z</time></trkpt>
<trkpt lat="50.697451" lon="5.923838"><time>2026-05-06T18:48:17Z</time></trkpt>
</trkseg></trk>
<trk>
<name>lpbhm51</name>
<cmt>v</cmt>
<desc>Hombourg Chemin n°51 chemin de Patloy</desc>
<link href="https://chemins.be/hombourg/chemin/51"/><trkseg>
<trkpt lat="50.697451" lon="5.923838"><time>2026-05-06T18:48:17Z</time></trkpt>
<trkpt lat="50.698235" lon="5.924572"><time>2026-05-06T18:58:17Z</time></trkpt>
<trkpt lat="50.698498" lon="5.925173"><time>2026-05-06T19:08:17Z</time></trkpt>
<trkpt lat="50.699218" lon="5.925295"><time>2026-05-06T19:18:17Z</time></trkpt>
<trkpt lat="50.700506" lon="5.927160"><time>2026-05-06T19:28:17Z</time></trkpt>
<trkpt lat="50.700599" lon="5.927322"><time>2026-05-06T19:38:17Z</time></trkpt>
</trkseg>
</trk>
<trk>
<name>lpbhm52</name>
<cmt>d</cmt>
<desc>Hombourg Chemin n°52 </desc>
<link href="https://chemins.be/hombourg/chemin/52"/><trkseg>
<trkpt lat="50.693638" lon="5.924528"><time>2026-05-06T18:28:17Z</time></trkpt>
<trkpt lat="50.693774" lon="5.924792"><time>2026-05-06T18:38:17Z</time></trkpt>
<trkpt lat="50.694299" lon="5.924799"><time>2026-05-06T18:48:17Z</time></trkpt>
<trkpt lat="50.694340" lon="5.926244"><time>2026-05-06T18:58:17Z</time></trkpt>
</trkseg></trk>
<trk>
<name>lpbhm52</name>
<cmt>s</cmt>
<desc>Hombourg Chemin n°52 </desc>
<link href="https://chemins.be/hombourg/chemin/52"/><trkseg>
<trkpt lat="50.694340" lon="5.926244"><time>2026-05-06T18:58:17Z</time></trkpt>
<trkpt lat="50.693638" lon="5.927446"><time>2026-05-06T19:08:17Z</time></trkpt>
<trkpt lat="50.693384" lon="5.929713"><time>2026-05-06T19:18:17Z</time></trkpt>
</trkseg>
</trk>
<trk>
<name>lpbhm53</name>
<cmt>s</cmt>
<desc>Hombourg Chemin n°53 </desc>
<link href="https://chemins.be/hombourg/chemin/53"/><trkseg>
<trkpt lat="50.693700" lon="5.927442"><time>2026-05-06T18:28:17Z</time></trkpt>
<trkpt lat="50.694572" lon="5.927650"><time>2026-05-06T18:38:17Z</time></trkpt>
</trkseg></trk>
<trk>
<name>lpbhm53</name>
<cmt>d</cmt>
<desc>Hombourg Chemin n°53 </desc>
<link href="https://chemins.be/hombourg/chemin/53"/><trkseg>
<trkpt lat="50.694572" lon="5.927650"><time>2026-05-06T18:38:17Z</time></trkpt>
<trkpt lat="50.695027" lon="5.927922"><time>2026-05-06T18:48:17Z</time></trkpt>
<trkpt lat="50.695274" lon="5.928376"><time>2026-05-06T18:58:17Z</time></trkpt>
<trkpt lat="50.695537" lon="5.929985"><time>2026-05-06T19:08:17Z</time></trkpt>
</trkseg>
</trk>
<trk>
<name>lpbhm54</name>
<cmt>d</cmt>
<desc>Hombourg Chemin n°54 </desc>
<link href="https://chemins.be/hombourg/chemin/54"/><trkseg>
<trkpt lat="50.693633" lon="5.924470"><time>2026-05-06T18:28:17Z</time></trkpt>
<trkpt lat="50.692868" lon="5.922711"><time>2026-05-06T18:38:17Z</time></trkpt>
<trkpt lat="50.692822" lon="5.921087"><time>2026-05-06T18:48:17Z</time></trkpt>
<trkpt lat="50.692677" lon="5.920637"><time>2026-05-06T18:58:17Z</time></trkpt>
</trkseg></trk>
<trk>
<name>lpbhm54</name>
<cmt>v</cmt>
<desc>Hombourg Chemin n°54 </desc>
<link href="https://chemins.be/hombourg/chemin/54"/><trkseg>
<trkpt lat="50.692677" lon="5.920637"><time>2026-05-06T18:58:17Z</time></trkpt>
<trkpt lat="50.692422" lon="5.919644"><time>2026-05-06T19:08:17Z</time></trkpt>
<trkpt lat="50.692265" lon="5.919111"><time>2026-05-06T19:18:17Z</time></trkpt>
<trkpt lat="50.692106" lon="5.918403"><time>2026-05-06T19:28:17Z</time></trkpt>
<trkpt lat="50.691809" lon="5.917865"><time>2026-05-06T19:38:17Z</time></trkpt>
</trkseg></trk>
<trk>
<name>lpbhm54</name>
<cmt>d</cmt>
<desc>Hombourg Chemin n°54 </desc>
<link href="https://chemins.be/hombourg/chemin/54"/><trkseg>
<trkpt lat="50.691809" lon="5.917865"><time>2026-05-06T19:38:17Z</time></trkpt>
<trkpt lat="50.690947" lon="5.915914"><time>2026-05-06T19:48:17Z</time></trkpt>
<trkpt lat="50.690335" lon="5.915213"><time>2026-05-06T19:58:17Z</time></trkpt>
<trkpt lat="50.688957" lon="5.912517"><time>2026-05-06T20:08:17Z</time></trkpt>
</trkseg>
</trk>
<trk>
<name>lpbhm55</name>
<cmt>d</cmt>
<desc>Hombourg Chemin n°55 Vielijaren</desc>
<link href="https://chemins.be/hombourg/chemin/55"/><trkseg>
<trkpt lat="50.708927" lon="5.906199"><time>2026-05-06T18:28:17Z</time></trkpt>
<trkpt lat="50.710721" lon="5.906428"><time>2026-05-06T18:38:17Z</time></trkpt>
</trkseg></trk>
<trk>
<name>lpbhm55</name>
<cmt>v</cmt>
<desc>Hombourg Chemin n°55 Vielijaren</desc>
<link href="https://chemins.be/hombourg/chemin/55"/><trkseg>
<trkpt lat="50.710721" lon="5.906428"><time>2026-05-06T18:38:17Z</time></trkpt>
<trkpt lat="50.711014" lon="5.906156"><time>2026-05-06T18:48:17Z</time></trkpt>
</trkseg></trk>
<trk>
<name>lpbhm55</name>
<cmt>s</cmt>
<desc>Hombourg Chemin n°55 Vielijaren</desc>
<link href="https://chemins.be/hombourg/chemin/55"/><trkseg>
<trkpt lat="50.711014" lon="5.906156"><time>2026-05-06T18:48:17Z</time></trkpt>
<trkpt lat="50.711426" lon="5.905862"><time>2026-05-06T18:58:17Z</time></trkpt>
<trkpt lat="50.712921" lon="5.904515"><time>2026-05-06T19:08:17Z</time></trkpt>
<trkpt lat="50.713060" lon="5.904835"><time>2026-05-06T19:18:17Z</time></trkpt>
</trkseg></trk>
<trk>
<name>lpbhm55</name>
<cmt>v</cmt>
<desc>Hombourg Chemin n°55 Vielijaren</desc>
<link href="https://chemins.be/hombourg/chemin/55"/><trkseg>
<trkpt lat="50.713060" lon="5.904835"><time>2026-05-06T19:18:17Z</time></trkpt>
<trkpt lat="50.713527" lon="5.904308"><time>2026-05-06T19:28:17Z</time></trkpt>
<trkpt lat="50.713830" lon="5.903712"><time>2026-05-06T19:38:17Z</time></trkpt>
</trkseg></trk>
<trk>
<name>lpbhm55</name>
<cmt>d</cmt>
<desc>Hombourg Chemin n°55 Vielijaren</desc>
<link href="https://chemins.be/hombourg/chemin/55"/><trkseg>
<trkpt lat="50.713830" lon="5.903712"><time>2026-05-06T19:38:17Z</time></trkpt>
<trkpt lat="50.713991" lon="5.903438"><time>2026-05-06T19:48:17Z</time></trkpt>
</trkseg></trk>
<trk>
<name>lpbhm55</name>
<cmt>v</cmt>
<desc>Hombourg Chemin n°55 Vielijaren</desc>
<link href="https://chemins.be/hombourg/chemin/55"/><trkseg>
<trkpt lat="50.713991" lon="5.903438"><time>2026-05-06T19:48:17Z</time></trkpt>
<trkpt lat="50.714163" lon="5.902570"><time>2026-05-06T19:58:17Z</time></trkpt>
<trkpt lat="50.714371" lon="5.902079"><time>2026-05-06T20:08:17Z</time></trkpt>
<trkpt lat="50.714832" lon="5.900568"><time>2026-05-06T20:18:17Z</time></trkpt>
<trkpt lat="50.715226" lon="5.900088"><time>2026-05-06T20:28:17Z</time></trkpt>
</trkseg></trk>
<trk>
<name>lpbhm55</name>
<cmt>d</cmt>
<desc>Hombourg Chemin n°55 Vielijaren</desc>
<link href="https://chemins.be/hombourg/chemin/55"/><trkseg>
<trkpt lat="50.715226" lon="5.900088"><time>2026-05-06T20:28:17Z</time></trkpt>
<trkpt lat="50.715924" lon="5.898922"><time>2026-05-06T20:38:17Z</time></trkpt>
</trkseg></trk>
<trk>
<name>lpbhm55</name>
<cmt>v</cmt>
<desc>Hombourg Chemin n°55 Vielijaren</desc>
<link href="https://chemins.be/hombourg/chemin/55"/><trkseg>
<trkpt lat="50.715924" lon="5.898922"><time>2026-05-06T20:38:17Z</time></trkpt>
<trkpt lat="50.717685" lon="5.895740"><time>2026-05-06T20:48:17Z</time></trkpt>
</trkseg></trk>
<trk>
<name>lpbhm55</name>
<cmt>d</cmt>
<desc>Hombourg Chemin n°55 Vielijaren</desc>
<link href="https://chemins.be/hombourg/chemin/55"/><trkseg>
<trkpt lat="50.717685" lon="5.895740"><time>2026-05-06T20:48:17Z</time></trkpt>
<trkpt lat="50.718559" lon="5.894317"><time>2026-05-06T20:58:17Z</time></trkpt>
<trkpt lat="50.719646" lon="5.892085"><time>2026-05-06T21:08:17Z</time></trkpt>
</trkseg>
</trk>
<trk>
<name>lpbhm56</name>
<cmt>s</cmt>
<desc>Hombourg Chemin n°56 </desc>
<link href="https://chemins.be/hombourg/chemin/56"/><trkseg>
<trkpt lat="50.722455" lon="5.910652"><time>2026-05-06T18:28:17Z</time></trkpt>
<trkpt lat="50.723157" lon="5.911345"><time>2026-05-06T18:38:17Z</time></trkpt>
</trkseg>
</trk>
<trk>
<name>lpbhm57</name>
<cmt>r</cmt>
<desc>Hombourg Chemin n°57 Vieljaren</desc>
<link href="https://chemins.be/hombourg/chemin/57"/><trkseg>
<trkpt lat="50.705862" lon="5.904574"><time>2026-05-06T18:28:17Z</time></trkpt>
<trkpt lat="50.705975" lon="5.903993"><time>2026-05-06T18:38:17Z</time></trkpt>
</trkseg></trk>
<trk>
<name>lpbhm57</name>
<cmt>d</cmt>
<desc>Hombourg Chemin n°57 Vieljaren</desc>
<link href="https://chemins.be/hombourg/chemin/57"/><trkseg>
<trkpt lat="50.705975" lon="5.903993"><time>2026-05-06T18:38:17Z</time></trkpt>
<trkpt lat="50.705968" lon="5.903673"><time>2026-05-06T18:48:17Z</time></trkpt>
<trkpt lat="50.705103" lon="5.901820"><time>2026-05-06T18:58:17Z</time></trkpt>
</trkseg>
</trk>
<trk>
<name>lpbhm58</name>
<cmt>v</cmt>
<desc>Hombourg Chemin n°58 Doyeid</desc>
<link href="https://chemins.be/hombourg/chemin/58"/><trkseg>
<trkpt lat="50.729313" lon="5.882717"><time>2026-05-06T18:28:17Z</time></trkpt>
<trkpt lat="50.725961" lon="5.882020"><time>2026-05-06T18:38:17Z</time></trkpt>
<trkpt lat="50.723960" lon="5.880704"><time>2026-05-06T18:48:17Z</time></trkpt>
</trkseg>
</trk>
<trk>
<name>lpbhm59</name>
<cmt>v</cmt>
<desc>Hombourg Chemin n°59 Pontus</desc>
<link href="https://chemins.be/hombourg/chemin/59"/><trkseg>
<trkpt lat="50.731277" lon="5.874544"><time>2026-05-06T18:28:17Z</time></trkpt>
<trkpt lat="50.732676" lon="5.877483"><time>2026-05-06T18:38:17Z</time></trkpt>
<trkpt lat="50.733482" lon="5.878120"><time>2026-05-06T18:48:17Z</time></trkpt>
</trkseg>
</trk>
<trk>
<name>lpbhm6</name>
<cmt>s</cmt>
<desc>Hombourg Chemin n°6 Rue Laschet / Schurweg</desc>
<link href="https://chemins.be/hombourg/chemin/6"/><trkseg>
<trkpt lat="50.724201" lon="5.910682"><time>2026-05-06T18:28:17Z</time></trkpt>
<trkpt lat="50.724658" lon="5.910738"><time>2026-05-06T18:38:17Z</time></trkpt>
<trkpt lat="50.724719" lon="5.911078"><time>2026-05-06T18:48:17Z</time></trkpt>
<trkpt lat="50.724636" lon="5.911447"><time>2026-05-06T18:58:17Z</time></trkpt>
<trkpt lat="50.724893" lon="5.911561"><time>2026-05-06T19:08:17Z</time></trkpt>
<trkpt lat="50.726492" lon="5.911462"><time>2026-05-06T19:18:17Z</time></trkpt>
<trkpt lat="50.727954" lon="5.912881"><time>2026-05-06T19:28:17Z</time></trkpt>
<trkpt lat="50.728232" lon="5.913587"><time>2026-05-06T19:38:17Z</time></trkpt>
<trkpt lat="50.728725" lon="5.913775"><time>2026-05-06T19:48:17Z</time></trkpt>
</trkseg></trk>
<trk>
<name>lpbhm6</name>
<cmt>v</cmt>
<desc>Hombourg Chemin n°6 Rue Laschet / Schurweg</desc>
<link href="https://chemins.be/hombourg/chemin/6"/><trkseg>
<trkpt lat="50.728725" lon="5.913775"><time>2026-05-06T19:48:17Z</time></trkpt>
<trkpt lat="50.728411" lon="5.914400"><time>2026-05-06T19:58:17Z</time></trkpt>
<trkpt lat="50.729033" lon="5.915247"><time>2026-05-06T20:08:17Z</time></trkpt>
<trkpt lat="50.729706" lon="5.915910"><time>2026-05-06T20:18:17Z</time></trkpt>
<trkpt lat="50.729533" lon="5.916966"><time>2026-05-06T20:28:17Z</time></trkpt>
<trkpt lat="50.729611" lon="5.917186"><time>2026-05-06T20:38:17Z</time></trkpt>
<trkpt lat="50.730215" lon="5.917599"><time>2026-05-06T20:48:17Z</time></trkpt>
<trkpt lat="50.730480" lon="5.917251"><time>2026-05-06T20:58:17Z</time></trkpt>
</trkseg></trk>
<trk>
<name>lpbhm6</name>
<cmt>d</cmt>
<desc>Hombourg Chemin n°6 Rue Laschet / Schurweg</desc>
<link href="https://chemins.be/hombourg/chemin/6"/><trkseg>
<trkpt lat="50.730480" lon="5.917251"><time>2026-05-06T20:58:17Z</time></trkpt>
<trkpt lat="50.730711" lon="5.916999"><time>2026-05-06T21:08:17Z</time></trkpt>
<trkpt lat="50.731417" lon="5.918345"><time>2026-05-06T21:18:17Z</time></trkpt>
</trkseg></trk>
<trk>
<name>lpbhm6</name>
<cmt>s</cmt>
<desc>Hombourg Chemin n°6 Rue Laschet / Schurweg</desc>
<link href="https://chemins.be/hombourg/chemin/6"/><trkseg>
<trkpt lat="50.731417" lon="5.918345"><time>2026-05-06T21:18:17Z</time></trkpt>
<trkpt lat="50.731658" lon="5.918672"><time>2026-05-06T21:28:17Z</time></trkpt>
</trkseg></trk>
<trk>
<name>lpbhm6</name>
<cmt>d</cmt>
<desc>Hombourg Chemin n°6 Rue Laschet / Schurweg</desc>
<link href="https://chemins.be/hombourg/chemin/6"/><trkseg>
<trkpt lat="50.731658" lon="5.918672"><time>2026-05-06T21:28:17Z</time></trkpt>
<trkpt lat="50.732143" lon="5.920311"><time>2026-05-06T21:38:17Z</time></trkpt>
<trkpt lat="50.733461" lon="5.921212"><time>2026-05-06T21:48:17Z</time></trkpt>
<trkpt lat="50.734758" lon="5.921180"><time>2026-05-06T21:58:17Z</time></trkpt>
<trkpt lat="50.735179" lon="5.920971"><time>2026-05-06T22:08:17Z</time></trkpt>
<trkpt lat="50.735566" lon="5.921159"><time>2026-05-06T22:18:17Z</time></trkpt>
<trkpt lat="50.736472" lon="5.922525"><time>2026-05-06T22:28:17Z</time></trkpt>
<trkpt lat="50.737100" lon="5.923471"><time>2026-05-06T22:38:17Z</time></trkpt>
<trkpt lat="50.737719" lon="5.923971"><time>2026-05-06T22:48:17Z</time></trkpt>
<trkpt lat="50.738072" lon="5.924257"><time>2026-05-06T22:58:17Z</time></trkpt>
<trkpt lat="50.738453" lon="5.924486"><time>2026-05-06T23:08:17Z</time></trkpt>
</trkseg></trk>
<trk>
<name>lpbhm6</name>
<cmt>r</cmt>
<desc>Hombourg Chemin n°6 Rue Laschet / Schurweg</desc>
<link href="https://chemins.be/hombourg/chemin/6"/><trkseg>
<trkpt lat="50.738453" lon="5.924486"><time>2026-05-06T23:08:17Z</time></trkpt>
<trkpt lat="50.739172" lon="5.924293"><time>2026-05-06T23:18:17Z</time></trkpt>
</trkseg></trk>
<trk>
<name>lpbhm6</name>
<cmt>s</cmt>
<desc>Hombourg Chemin n°6 Rue Laschet / Schurweg</desc>
<link href="https://chemins.be/hombourg/chemin/6"/><trkseg>
<trkpt lat="50.739172" lon="5.924293"><time>2026-05-06T23:18:17Z</time></trkpt>
<trkpt lat="50.739498" lon="5.924458"><time>2026-05-06T23:28:17Z</time></trkpt>
</trkseg></trk>
<trk>
<name>lpbhm6</name>
<cmt>v</cmt>
<desc>Hombourg Chemin n°6 Rue Laschet / Schurweg</desc>
<link href="https://chemins.be/hombourg/chemin/6"/><trkseg>
<trkpt lat="50.739498" lon="5.924458"><time>2026-05-06T23:28:17Z</time></trkpt>
<trkpt lat="50.740969" lon="5.924422"><time>2026-05-06T23:38:17Z</time></trkpt>
</trkseg>
</trk>
<trk>
<name>lpbhm60</name>
<cmt>d</cmt>
<desc>Hombourg Chemin n°60 </desc>
<link href="https://chemins.be/hombourg/chemin/60"/><trkseg>
<trkpt lat="50.700618" lon="5.927235"><time>2026-05-06T18:28:17Z</time></trkpt>
<trkpt lat="50.701410" lon="5.926707"><time>2026-05-06T18:38:17Z</time></trkpt>
<trkpt lat="50.703852" lon="5.924960"><time>2026-05-06T18:48:17Z</time></trkpt>
<trkpt lat="50.704885" lon="5.924603"><time>2026-05-06T18:58:17Z</time></trkpt>
</trkseg>
</trk>
<trk>
<name>lpbhm61</name>
<cmt>d</cmt>
<desc>Hombourg Chemin n°61 </desc>
<link href="https://chemins.be/hombourg/chemin/61"/><trkseg>
<trkpt lat="50.700124" lon="5.926527"><time>2026-05-06T18:28:17Z</time></trkpt>
<trkpt lat="50.701051" lon="5.926434"><time>2026-05-06T18:38:17Z</time></trkpt>
</trkseg>
</trk>
<trk>
<name>lpbhm62</name>
<cmt>v</cmt>
<desc>Hombourg Chemin n°62 </desc>
<link href="https://chemins.be/hombourg/chemin/62"/><trkseg>
<trkpt lat="50.708014" lon="5.923965"><time>2026-05-06T18:28:17Z</time></trkpt>
<trkpt lat="50.707886" lon="5.924290"><time>2026-05-06T18:38:17Z</time></trkpt>
</trkseg>
</trk>
<trk>
<name>lpbhm63</name>
<cmt>r</cmt>
<desc>Hombourg Chemin n°63 Rue de Belven</desc>
<link href="https://chemins.be/hombourg/chemin/63"/><trkseg>
<trkpt lat="50.715645" lon="5.928594"><time>2026-05-06T18:28:17Z</time></trkpt>
<trkpt lat="50.714485" lon="5.930740"><time>2026-05-06T18:38:17Z</time></trkpt>
</trkseg>
</trk>
<trk>
<name>lpbhm64</name>
<cmt>d</cmt>
<desc>Hombourg Chemin n°64 </desc>
<link href="https://chemins.be/hombourg/chemin/64"/><trkseg>
<trkpt lat="50.719215" lon="5.932278"><time>2026-05-06T18:28:17Z</time></trkpt>
<trkpt lat="50.719294" lon="5.933555"><time>2026-05-06T18:38:17Z</time></trkpt>
<trkpt lat="50.719262" lon="5.933884"><time>2026-05-06T18:48:17Z</time></trkpt>
</trkseg>
</trk>
<trk>
<name>lpbhm65</name>
<cmt>s</cmt>
<desc>Hombourg Chemin n°65 </desc>
<link href="https://chemins.be/hombourg/chemin/65"/><trkseg>
<trkpt lat="50.717834" lon="5.920789"><time>2026-05-06T18:28:17Z</time></trkpt>
<trkpt lat="50.717341" lon="5.921676"><time>2026-05-06T18:38:17Z</time></trkpt>
<trkpt lat="50.717032" lon="5.922482"><time>2026-05-06T18:48:17Z</time></trkpt>
<trkpt lat="50.716892" lon="5.922849"><time>2026-05-06T18:58:17Z</time></trkpt>
<trkpt lat="50.716254" lon="5.923492"><time>2026-05-06T19:08:17Z</time></trkpt>
</trkseg>
</trk>
<trk>
<name>lpbhm66</name>
<cmt>r</cmt>
<desc>Hombourg Chemin n°66 Chemin de Hoppisch</desc>
<link href="https://chemins.be/hombourg/chemin/66"/><trkseg>
<trkpt lat="50.725408" lon="5.932660"><time>2026-05-06T18:28:17Z</time></trkpt>
<trkpt lat="50.724670" lon="5.932109"><time>2026-05-06T18:38:17Z</time></trkpt>
<trkpt lat="50.724283" lon="5.932206"><time>2026-05-06T18:48:17Z</time></trkpt>
<trkpt lat="50.723651" lon="5.931097"><time>2026-05-06T18:58:17Z</time></trkpt>
<trkpt lat="50.723044" lon="5.931101"><time>2026-05-06T19:08:17Z</time></trkpt>
<trkpt lat="50.722829" lon="5.932485"><time>2026-05-06T19:18:17Z</time></trkpt>
</trkseg></trk>
<trk>
<name>lpbhm66</name>
<cmt>v</cmt>
<desc>Hombourg Chemin n°66 Chemin de Hoppisch</desc>
<link href="https://chemins.be/hombourg/chemin/66"/><trkseg>
<trkpt lat="50.722829" lon="5.932485"><time>2026-05-06T19:18:17Z</time></trkpt>
<trkpt lat="50.722566" lon="5.932526"><time>2026-05-06T19:28:17Z</time></trkpt>
<trkpt lat="50.722403" lon="5.932798"><time>2026-05-06T19:38:17Z</time></trkpt>
<trkpt lat="50.721950" lon="5.934164"><time>2026-05-06T19:48:17Z</time></trkpt>
<trkpt lat="50.722660" lon="5.934636"><time>2026-05-06T19:58:17Z</time></trkpt>
<trkpt lat="50.722715" lon="5.934800"><time>2026-05-06T20:08:17Z</time></trkpt>
<trkpt lat="50.722587" lon="5.936788"><time>2026-05-06T20:18:17Z</time></trkpt>
</trkseg></trk>
<trk>
<name>lpbhm66</name>
<cmt>s</cmt>
<desc>Hombourg Chemin n°66 Chemin de Hoppisch</desc>
<link href="https://chemins.be/hombourg/chemin/66"/><trkseg>
<trkpt lat="50.722587" lon="5.936788"><time>2026-05-06T20:18:17Z</time></trkpt>
<trkpt lat="50.722322" lon="5.937962"><time>2026-05-06T20:28:17Z</time></trkpt>
<trkpt lat="50.722385" lon="5.938754"><time>2026-05-06T20:38:17Z</time></trkpt>
<trkpt lat="50.722655" lon="5.939444"><time>2026-05-06T20:48:17Z</time></trkpt>
<trkpt lat="50.723001" lon="5.939462"><time>2026-05-06T20:58:17Z</time></trkpt>
</trkseg>
</trk>
<trk>
<name>lpbhm67</name>
<cmt>s</cmt>
<desc>Hombourg Chemin n°67 </desc>
<link href="https://chemins.be/hombourg/chemin/67"/><trkseg>
<trkpt lat="50.722329" lon="5.937892"><time>2026-05-06T18:28:17Z</time></trkpt>
<trkpt lat="50.721398" lon="5.936953"><time>2026-05-06T18:38:17Z</time></trkpt>
<trkpt lat="50.721217" lon="5.937154"><time>2026-05-06T18:48:17Z</time></trkpt>
</trkseg>
</trk>
<trk>
<name>lpbhm68</name>
<cmt>d</cmt>
<desc>Hombourg Chemin n°68 </desc>
<link href="https://chemins.be/hombourg/chemin/68"/><trkseg>
<trkpt lat="50.726772" lon="5.934857"><time>2026-05-06T18:28:17Z</time></trkpt>
<trkpt lat="50.726505" lon="5.935052"><time>2026-05-06T18:38:17Z</time></trkpt>
</trkseg></trk>
<trk>
<name>lpbhm68</name>
<cmt>s</cmt>
<desc>Hombourg Chemin n°68 </desc>
<link href="https://chemins.be/hombourg/chemin/68"/><trkseg>
<trkpt lat="50.726505" lon="5.935052"><time>2026-05-06T18:38:17Z</time></trkpt>
<trkpt lat="50.725885" lon="5.935504"><time>2026-05-06T18:48:17Z</time></trkpt>
<trkpt lat="50.725744" lon="5.935168"><time>2026-05-06T18:58:17Z</time></trkpt>
<trkpt lat="50.726119" lon="5.936188"><time>2026-05-06T19:08:17Z</time></trkpt>
</trkseg></trk>
<trk>
<name>lpbhm68</name>
<cmt>d</cmt>
<desc>Hombourg Chemin n°68 </desc>
<link href="https://chemins.be/hombourg/chemin/68"/><trkseg>
<trkpt lat="50.726119" lon="5.936188"><time>2026-05-06T19:08:17Z</time></trkpt>
<trkpt lat="50.726102" lon="5.936452"><time>2026-05-06T19:18:17Z</time></trkpt>
<trkpt lat="50.726172" lon="5.936663"><time>2026-05-06T19:28:17Z</time></trkpt>
</trkseg>
</trk>
<trk>
<name>lpbhm69</name>
<cmt>s</cmt>
<desc>Hombourg Chemin n°69 </desc>
<link href="https://chemins.be/hombourg/chemin/69"/><trkseg>
<trkpt lat="50.730335" lon="5.935843"><time>2026-05-06T18:28:17Z</time></trkpt>
<trkpt lat="50.730905" lon="5.937839"><time>2026-05-06T18:38:17Z</time></trkpt>
<trkpt lat="50.731398" lon="5.939004"><time>2026-05-06T18:48:17Z</time></trkpt>
<trkpt lat="50.731792" lon="5.938983"><time>2026-05-06T18:58:17Z</time></trkpt>
<trkpt lat="50.732277" lon="5.938354"><time>2026-05-06T19:08:17Z</time></trkpt>
</trkseg>
</trk>
<trk>
<name>lpbhm7</name>
<cmt>s</cmt>
<desc>Hombourg Chemin n°7 Gulpen</desc>
<link href="https://chemins.be/hombourg/chemin/7"/><trkseg>
<trkpt lat="50.718570" lon="5.917410"><time>2026-05-06T18:28:17Z</time></trkpt>
<trkpt lat="50.716559" lon="5.916179"><time>2026-05-06T18:38:17Z</time></trkpt>
<trkpt lat="50.715716" lon="5.915013"><time>2026-05-06T18:48:17Z</time></trkpt>
<trkpt lat="50.714752" lon="5.914527"><time>2026-05-06T18:58:17Z</time></trkpt>
<trkpt lat="50.713713" lon="5.914073"><time>2026-05-06T19:08:17Z</time></trkpt>
</trkseg></trk>
<trk>
<name>lpbhm7</name>
<cmt>r</cmt>
<desc>Hombourg Chemin n°7 Gulpen</desc>
<link href="https://chemins.be/hombourg/chemin/7"/><trkseg>
<trkpt lat="50.713713" lon="5.914073"><time>2026-05-06T19:08:17Z</time></trkpt>
<trkpt lat="50.713388" lon="5.914020"><time>2026-05-06T19:18:17Z</time></trkpt>
</trkseg></trk>
<trk>
<name>lpbhm7</name>
<cmt>v</cmt>
<desc>Hombourg Chemin n°7 Gulpen</desc>
<link href="https://chemins.be/hombourg/chemin/7"/><trkseg>
<trkpt lat="50.713388" lon="5.914020"><time>2026-05-06T19:18:17Z</time></trkpt>
<trkpt lat="50.713133" lon="5.913651"><time>2026-05-06T19:28:17Z</time></trkpt>
</trkseg></trk>
<trk>
<name>lpbhm7</name>
<cmt>s</cmt>
<desc>Hombourg Chemin n°7 Gulpen</desc>
<link href="https://chemins.be/hombourg/chemin/7"/><trkseg>
<trkpt lat="50.713133" lon="5.913651"><time>2026-05-06T19:28:17Z</time></trkpt>
<trkpt lat="50.712540" lon="5.913941"><time>2026-05-06T19:38:17Z</time></trkpt>
</trkseg></trk>
<trk>
<name>lpbhm7</name>
<cmt>r</cmt>
<desc>Hombourg Chemin n°7 Gulpen</desc>
<link href="https://chemins.be/hombourg/chemin/7"/><trkseg>
<trkpt lat="50.712540" lon="5.913941"><time>2026-05-06T19:38:17Z</time></trkpt>
<trkpt lat="50.711631" lon="5.913954"><time>2026-05-06T19:48:17Z</time></trkpt>
<trkpt lat="50.707519" lon="5.916408"><time>2026-05-06T19:58:17Z</time></trkpt>
<trkpt lat="50.706359" lon="5.917709"><time>2026-05-06T20:08:17Z</time></trkpt>
<trkpt lat="50.705684" lon="5.917924"><time>2026-05-06T20:18:17Z</time></trkpt>
<trkpt lat="50.702504" lon="5.919319"><time>2026-05-06T20:28:17Z</time></trkpt>
<trkpt lat="50.699994" lon="5.920277"><time>2026-05-06T20:38:17Z</time></trkpt>
<trkpt lat="50.695894" lon="5.922895"><time>2026-05-06T20:48:17Z</time></trkpt>
<trkpt lat="50.694281" lon="5.923753"><time>2026-05-06T20:58:17Z</time></trkpt>
<trkpt lat="50.693570" lon="5.924469"><time>2026-05-06T21:08:17Z</time></trkpt>
<trkpt lat="50.691238" lon="5.925554"><time>2026-05-06T21:18:17Z</time></trkpt>
<trkpt lat="50.689074" lon="5.924409"><time>2026-05-06T21:28:17Z</time></trkpt>
<trkpt lat="50.688716" lon="5.924323"><time>2026-05-06T21:38:17Z</time></trkpt>
</trkseg></trk>
<trk>
<name>lpbhm7</name>
<cmt>d</cmt>
<desc>Hombourg Chemin n°7 Gulpen</desc>
<link href="https://chemins.be/hombourg/chemin/7"/><trkseg>
<trkpt lat="50.688716" lon="5.924323"><time>2026-05-06T21:38:17Z</time></trkpt>
<trkpt lat="50.687619" lon="5.924090"><time>2026-05-06T21:48:17Z</time></trkpt>
</trkseg>
</trk>
<trk>
<name>lpbhm70</name>
<cmt>d</cmt>
<desc>Hombourg Chemin n°70 Chemin de Krousch</desc>
<link href="https://chemins.be/hombourg/chemin/70"/><trkseg>
<trkpt lat="50.730612" lon="5.932581"><time>2026-05-06T18:28:17Z</time></trkpt>
<trkpt lat="50.731427" lon="5.932895"><time>2026-05-06T18:38:17Z</time></trkpt>
<trkpt lat="50.731509" lon="5.933092"><time>2026-05-06T18:48:17Z</time></trkpt>
</trkseg>
</trk>
<trk>
<name>lpbhm71</name>
<cmt>v</cmt>
<desc>Hombourg Chemin n°71 Chemin de Stevensrot</desc>
<link href="https://chemins.be/hombourg/chemin/71"/><trkseg>
<trkpt lat="50.735195" lon="5.933762"><time>2026-05-06T18:28:17Z</time></trkpt>
<trkpt lat="50.735879" lon="5.935432"><time>2026-05-06T18:38:17Z</time></trkpt>
</trkseg>
</trk>
<trk>
<name>lpbhm72</name>
<cmt>v</cmt>
<desc>Hombourg Chemin n°72 Rozengaerden / Vrijthof</desc>
<link href="https://chemins.be/hombourg/chemin/72"/><trkseg>
<trkpt lat="50.728525" lon="5.868698"><time>2026-05-06T18:28:17Z</time></trkpt>
<trkpt lat="50.731168" lon="5.871647"><time>2026-05-06T18:38:17Z</time></trkpt>
<trkpt lat="50.731390" lon="5.872591"><time>2026-05-06T18:48:17Z</time></trkpt>
<trkpt lat="50.731798" lon="5.873986"><time>2026-05-06T18:58:17Z</time></trkpt>
<trkpt lat="50.731358" lon="5.874534"><time>2026-05-06T19:08:17Z</time></trkpt>
</trkseg>
</trk>
<trk>
<name>lpbhm73</name>
<cmt>v</cmt>
<desc>Hombourg Sentier n°73 </desc>
<link href="https://chemins.be/hombourg/sentier/73"/><trkseg>
<trkpt lat="50.720419" lon="5.890961"><time>2026-05-06T18:28:17Z</time></trkpt>
<trkpt lat="50.723217" lon="5.894451"><time>2026-05-06T18:38:17Z</time></trkpt>
</trkseg></trk>
<trk>
<name>lpbhm73</name>
<cmt>d</cmt>
<desc>Hombourg Sentier n°73 </desc>
<link href="https://chemins.be/hombourg/sentier/73"/><trkseg>
<trkpt lat="50.723217" lon="5.894451"><time>2026-05-06T18:38:17Z</time></trkpt>
<trkpt lat="50.724704" lon="5.896775"><time>2026-05-06T18:48:17Z</time></trkpt>
</trkseg>
</trk>
<trk>
<name>lpbhm74</name>
<cmt>s</cmt>
<desc>Hombourg Chemin n°74 </desc>
<link href="https://chemins.be/hombourg/chemin/74"/><trkseg>
<trkpt lat="50.737108" lon="5.952136"><time>2026-05-06T18:28:17Z</time></trkpt>
<trkpt lat="50.736751" lon="5.951596"><time>2026-05-06T18:38:17Z</time></trkpt>
</trkseg>
</trk>
<trk>
<name>lpbhm75</name>
<cmt>s</cmt>
<desc>Hombourg Chemin n°75 </desc>
<link href="https://chemins.be/hombourg/chemin/75"/><trkseg>
<trkpt lat="50.740117" lon="5.961796"><time>2026-05-06T18:28:17Z</time></trkpt>
<trkpt lat="50.739977" lon="5.962003"><time>2026-05-06T18:38:17Z</time></trkpt>
</trkseg>
</trk>
<trk>
<name>lpbhm76</name>
<cmt>s</cmt>
<desc>Hombourg Chemin n°76 </desc>
<link href="https://chemins.be/hombourg/chemin/76"/><trkseg>
<trkpt lat="50.737810" lon="5.957118"><time>2026-05-06T18:28:17Z</time></trkpt>
<trkpt lat="50.737742" lon="5.957791"><time>2026-05-06T18:38:17Z</time></trkpt>
<trkpt lat="50.737489" lon="5.958456"><time>2026-05-06T18:48:17Z</time></trkpt>
<trkpt lat="50.736853" lon="5.959282"><time>2026-05-06T18:58:17Z</time></trkpt>
<trkpt lat="50.736898" lon="5.959564"><time>2026-05-06T19:08:17Z</time></trkpt>
</trkseg>
</trk>
<trk>
<name>lpbhm77</name>
<cmt>r</cmt>
<desc>Hombourg Chemin n°77 Chemin de Hoppisch</desc>
<link href="https://chemins.be/hombourg/chemin/77"/><trkseg>
<trkpt lat="50.726433" lon="5.930367"><time>2026-05-06T18:28:17Z</time></trkpt>
<trkpt lat="50.726642" lon="5.930127"><time>2026-05-06T18:38:17Z</time></trkpt>
<trkpt lat="50.727022" lon="5.930002"><time>2026-05-06T18:48:17Z</time></trkpt>
</trkseg>
</trk>
<trk>
<name>lpbhm78</name>
<cmt>v</cmt>
<desc>Hombourg Sentier n°78 </desc>
<link href="https://chemins.be/hombourg/sentier/78"/><trkseg>
<trkpt lat="50.729854" lon="5.930721"><time>2026-05-06T18:28:17Z</time></trkpt>
<trkpt lat="50.729054" lon="5.931435"><time>2026-05-06T18:38:17Z</time></trkpt>
</trkseg></trk>
<trk>
<name>lpbhm78</name>
<cmt>d</cmt>
<desc>Hombourg Sentier n°78 </desc>
<link href="https://chemins.be/hombourg/sentier/78"/><trkseg>
<trkpt lat="50.729054" lon="5.931435"><time>2026-05-06T18:38:17Z</time></trkpt>
<trkpt lat="50.728925" lon="5.931624"><time>2026-05-06T18:48:17Z</time></trkpt>
</trkseg></trk>
<trk>
<name>lpbhm78</name>
<cmt>v</cmt>
<desc>Hombourg Sentier n°78 </desc>
<link href="https://chemins.be/hombourg/sentier/78"/><trkseg>
<trkpt lat="50.728925" lon="5.931624"><time>2026-05-06T18:48:17Z</time></trkpt>
<trkpt lat="50.728513" lon="5.932454"><time>2026-05-06T18:58:17Z</time></trkpt>
</trkseg></trk>
<trk>
<name>lpbhm78</name>
<cmt>s</cmt>
<desc>Hombourg Sentier n°78 </desc>
<link href="https://chemins.be/hombourg/sentier/78"/><trkseg>
<trkpt lat="50.728513" lon="5.932454"><time>2026-05-06T18:58:17Z</time></trkpt>
<trkpt lat="50.727396" lon="5.933918"><time>2026-05-06T19:08:17Z</time></trkpt>
<trkpt lat="50.726671" lon="5.934619"><time>2026-05-06T19:18:17Z</time></trkpt>
</trkseg>
</trk>
<trk>
<name>lpbhm79</name>
<cmt>s</cmt>
<desc>Hombourg Chemin n°79 </desc>
<link href="https://chemins.be/hombourg/chemin/79"/><trkseg>
<trkpt lat="50.715956" lon="5.929421"><time>2026-05-06T18:28:17Z</time></trkpt>
<trkpt lat="50.715802" lon="5.929796"><time>2026-05-06T18:38:17Z</time></trkpt>
<trkpt lat="50.715458" lon="5.929939"><time>2026-05-06T18:48:17Z</time></trkpt>
<trkpt lat="50.715014" lon="5.929768"><time>2026-05-06T18:58:17Z</time></trkpt>
</trkseg>
</trk>
<trk>
<name>lpbhm8</name>
<cmt>v</cmt>
<desc>Hombourg Chemin n°8 Kommeleweg / ? / Vieljaren</desc>
<link href="https://chemins.be/hombourg/chemin/8"/><trkseg>
<trkpt lat="50.713120" lon="5.913623"><time>2026-05-06T18:28:17Z</time></trkpt>
<trkpt lat="50.712443" lon="5.912876"><time>2026-05-06T18:38:17Z</time></trkpt>
<trkpt lat="50.711790" lon="5.912383"><time>2026-05-06T18:48:17Z</time></trkpt>
</trkseg></trk>
<trk>
<name>lpbhm8</name>
<cmt>d</cmt>
<desc>Hombourg Chemin n°8 Kommeleweg / ? / Vieljaren</desc>
<link href="https://chemins.be/hombourg/chemin/8"/><trkseg>
<trkpt lat="50.711790" lon="5.912383"><time>2026-05-06T18:48:17Z</time></trkpt>
<trkpt lat="50.710929" lon="5.911592"><time>2026-05-06T18:58:17Z</time></trkpt>
<trkpt lat="50.710239" lon="5.910779"><time>2026-05-06T19:08:17Z</time></trkpt>
</trkseg></trk>
<trk>
<name>lpbhm8</name>
<cmt>v</cmt>
<desc>Hombourg Chemin n°8 Kommeleweg / ? / Vieljaren</desc>
<link href="https://chemins.be/hombourg/chemin/8"/><trkseg>
<trkpt lat="50.710239" lon="5.910779"><time>2026-05-06T19:08:17Z</time></trkpt>
<trkpt lat="50.707613" lon="5.907098"><time>2026-05-06T19:18:17Z</time></trkpt>
<trkpt lat="50.707579" lon="5.906904"><time>2026-05-06T19:28:17Z</time></trkpt>
<trkpt lat="50.707192" lon="5.906146"><time>2026-05-06T19:38:17Z</time></trkpt>
</trkseg></trk>
<trk>
<name>lpbhm8</name>
<cmt>d</cmt>
<desc>Hombourg Chemin n°8 Kommeleweg / ? / Vieljaren</desc>
<link href="https://chemins.be/hombourg/chemin/8"/><trkseg>
<trkpt lat="50.707192" lon="5.906146"><time>2026-05-06T19:38:17Z</time></trkpt>
<trkpt lat="50.706421" lon="5.905032"><time>2026-05-06T19:48:17Z</time></trkpt>
</trkseg></trk>
<trk>
<name>lpbhm8</name>
<cmt>r</cmt>
<desc>Hombourg Chemin n°8 Kommeleweg / ? / Vieljaren</desc>
<link href="https://chemins.be/hombourg/chemin/8"/><trkseg>
<trkpt lat="50.706421" lon="5.905032"><time>2026-05-06T19:48:17Z</time></trkpt>
<trkpt lat="50.705841" lon="5.904588"><time>2026-05-06T19:58:17Z</time></trkpt>
</trkseg></trk>
<trk>
<name>lpbhm8</name>
<cmt>v</cmt>
<desc>Hombourg Chemin n°8 Kommeleweg / ? / Vieljaren</desc>
<link href="https://chemins.be/hombourg/chemin/8"/><trkseg>
<trkpt lat="50.705841" lon="5.904588"><time>2026-05-06T19:58:17Z</time></trkpt>
<trkpt lat="50.705233" lon="5.904244"><time>2026-05-06T20:08:17Z</time></trkpt>
<trkpt lat="50.703911" lon="5.902821"><time>2026-05-06T20:18:17Z</time></trkpt>
<trkpt lat="50.702869" lon="5.902929"><time>2026-05-06T20:28:17Z</time></trkpt>
<trkpt lat="50.702136" lon="5.903386"><time>2026-05-06T20:38:17Z</time></trkpt>
<trkpt lat="50.701158" lon="5.903290"><time>2026-05-06T20:48:17Z</time></trkpt>
<trkpt lat="50.700685" lon="5.902900"><time>2026-05-06T20:58:17Z</time></trkpt>
<trkpt lat="50.700561" lon="5.902793"><time>2026-05-06T21:08:17Z</time></trkpt>
</trkseg></trk>
<trk>
<name>lpbhm8</name>
<cmt>s</cmt>
<desc>Hombourg Chemin n°8 Kommeleweg / ? / Vieljaren</desc>
<link href="https://chemins.be/hombourg/chemin/8"/><trkseg>
<trkpt lat="50.700561" lon="5.902793"><time>2026-05-06T21:08:17Z</time></trkpt>
<trkpt lat="50.699603" lon="5.901977"><time>2026-05-06T21:18:17Z</time></trkpt>
<trkpt lat="50.698602" lon="5.902464"><time>2026-05-06T21:28:17Z</time></trkpt>
<trkpt lat="50.694610" lon="5.900611"><time>2026-05-06T21:38:17Z</time></trkpt>
</trkseg>
</trk>
<trk>
<name>lpbhm80</name>
<cmt>s</cmt>
<desc>Hombourg Sentier n°80 </desc>
<link href="https://chemins.be/hombourg/sentier/80"/><trkseg>
<trkpt lat="50.730675" lon="5.878764"><time>2026-05-06T18:28:17Z</time></trkpt>
<trkpt lat="50.731214" lon="5.878841"><time>2026-05-06T18:38:17Z</time></trkpt>
<trkpt lat="50.732228" lon="5.878483"><time>2026-05-06T18:48:17Z</time></trkpt>
<trkpt lat="50.733070" lon="5.879055"><time>2026-05-06T18:58:17Z</time></trkpt>
<trkpt lat="50.737293" lon="5.880366"><time>2026-05-06T19:08:17Z</time></trkpt>
</trkseg>
</trk>
<trk>
<name>lpbhm81</name>
<cmt>s</cmt>
<desc>Hombourg Sentier n°81 </desc>
<link href="https://chemins.be/hombourg/sentier/81"/><trkseg>
<trkpt lat="50.731789" lon="5.881358"><time>2026-05-06T18:28:17Z</time></trkpt>
<trkpt lat="50.732142" lon="5.883275"><time>2026-05-06T18:38:17Z</time></trkpt>
<trkpt lat="50.738857" lon="5.888064"><time>2026-05-06T18:48:17Z</time></trkpt>
<trkpt lat="50.740088" lon="5.889266"><time>2026-05-06T18:58:17Z</time></trkpt>
</trkseg>
</trk>
<trk>
<name>lpbhm82</name>
<cmt>s</cmt>
<desc>Hombourg Sentier n°82 </desc>
<link href="https://chemins.be/hombourg/sentier/82"/><trkseg>
<trkpt lat="50.737765" lon="5.889512"><time>2026-05-06T18:28:17Z</time></trkpt>
<trkpt lat="50.739369" lon="5.889464"><time>2026-05-06T18:38:17Z</time></trkpt>
<trkpt lat="50.740152" lon="5.889392"><time>2026-05-06T18:48:17Z</time></trkpt>
<trkpt lat="50.740577" lon="5.890329"><time>2026-05-06T18:58:17Z</time></trkpt>
</trkseg>
</trk>
<trk>
<name>lpbhm83</name>
<cmt>s</cmt>
<desc>Hombourg Sentier n°83 </desc>
<link href="https://chemins.be/hombourg/sentier/83"/><trkseg>
<trkpt lat="50.743246" lon="5.894133"><time>2026-05-06T18:28:17Z</time></trkpt>
<trkpt lat="50.743797" lon="5.895381"><time>2026-05-06T18:38:17Z</time></trkpt>
</trkseg>
</trk>
<trk>
<name>lpbhm84</name>
<cmt>s</cmt>
<desc>Hombourg Sentier n°84 Chemin du Bois du Curé</desc>
<link href="https://chemins.be/hombourg/sentier/84"/><trkseg>
<trkpt lat="50.723226" lon="5.889659"><time>2026-05-06T18:28:17Z</time></trkpt>
<trkpt lat="50.726595" lon="5.894051"><time>2026-05-06T18:38:17Z</time></trkpt>
<trkpt lat="50.728812" lon="5.894648"><time>2026-05-06T18:48:17Z</time></trkpt>
<trkpt lat="50.730999" lon="5.895892"><time>2026-05-06T18:58:17Z</time></trkpt>
<trkpt lat="50.733256" lon="5.898221"><time>2026-05-06T19:08:17Z</time></trkpt>
<trkpt lat="50.732927" lon="5.898671"><time>2026-05-06T19:18:17Z</time></trkpt>
</trkseg></trk>
<trk>
<name>lpbhm84</name>
<cmt>v</cmt>
<desc>Hombourg Sentier n°84 Chemin du Bois du Curé</desc>
<link href="https://chemins.be/hombourg/sentier/84"/><trkseg>
<trkpt lat="50.732927" lon="5.898671"><time>2026-05-06T19:18:17Z</time></trkpt>
<trkpt lat="50.733502" lon="5.899038"><time>2026-05-06T19:28:17Z</time></trkpt>
<trkpt lat="50.734013" lon="5.899689"><time>2026-05-06T19:38:17Z</time></trkpt>
<trkpt lat="50.734294" lon="5.901641"><time>2026-05-06T19:48:17Z</time></trkpt>
<trkpt lat="50.734489" lon="5.902206"><time>2026-05-06T19:58:17Z</time></trkpt>
<trkpt lat="50.734937" lon="5.902521"><time>2026-05-06T20:08:17Z</time></trkpt>
<trkpt lat="50.735555" lon="5.902508"><time>2026-05-06T20:18:17Z</time></trkpt>
</trkseg></trk>
<trk>
<name>lpbhm84</name>
<cmt>s</cmt>
<desc>Hombourg Sentier n°84 Chemin du Bois du Curé</desc>
<link href="https://chemins.be/hombourg/sentier/84"/><trkseg>
<trkpt lat="50.735555" lon="5.902508"><time>2026-05-06T20:18:17Z</time></trkpt>
<trkpt lat="50.735928" lon="5.903293"><time>2026-05-06T20:28:17Z</time></trkpt>
<trkpt lat="50.736032" lon="5.905268"><time>2026-05-06T20:38:17Z</time></trkpt>
<trkpt lat="50.737132" lon="5.905983"><time>2026-05-06T20:48:17Z</time></trkpt>
<trkpt lat="50.737454" lon="5.906276"><time>2026-05-06T20:58:17Z</time></trkpt>
<trkpt lat="50.738889" lon="5.907177"><time>2026-05-06T21:08:17Z</time></trkpt>
<trkpt lat="50.739332" lon="5.908858"><time>2026-05-06T21:18:17Z</time></trkpt>
</trkseg>
</trk>
<trk>
<name>lpbhm85</name>
<cmt>d</cmt>
<desc>Hombourg Sentier n°85 Sentier d’Ammersbroek</desc>
<link href="https://chemins.be/hombourg/sentier/85"/><trkseg>
<trkpt lat="50.730469" lon="5.909191"><time>2026-05-06T18:28:17Z</time></trkpt>
<trkpt lat="50.730775" lon="5.906348"><time>2026-05-06T18:38:17Z</time></trkpt>
<trkpt lat="50.731100" lon="5.905608"><time>2026-05-06T18:48:17Z</time></trkpt>
<trkpt lat="50.731318" lon="5.905114"><time>2026-05-06T18:58:17Z</time></trkpt>
<trkpt lat="50.731321" lon="5.904382"><time>2026-05-06T19:08:17Z</time></trkpt>
<trkpt lat="50.731434" lon="5.902474"><time>2026-05-06T19:18:17Z</time></trkpt>
<trkpt lat="50.733384" lon="5.898941"><time>2026-05-06T19:28:17Z</time></trkpt>
</trkseg>
</trk>
<trk>
<name>lpbhm86</name>
<cmt>q</cmt>
<desc>Hombourg Sentier n°86 </desc>
<link href="https://chemins.be/hombourg/sentier/86"/><trkseg>
<trkpt lat="50.724533" lon="5.908324"><time>2026-05-06T18:28:17Z</time></trkpt>
<trkpt lat="50.724344" lon="5.909525"><time>2026-05-06T18:38:17Z</time></trkpt>
<trkpt lat="50.724246" lon="5.910709"><time>2026-05-06T18:48:17Z</time></trkpt>
<trkpt lat="50.724320" lon="5.910945"><time>2026-05-06T18:58:17Z</time></trkpt>
</trkseg></trk>
<trk>
<name>lpbhm86</name>
<cmt>d</cmt>
<desc>Hombourg Sentier n°86 </desc>
<link href="https://chemins.be/hombourg/sentier/86"/><trkseg>
<trkpt lat="50.724320" lon="5.910945"><time>2026-05-06T18:58:17Z</time></trkpt>
<trkpt lat="50.724375" lon="5.911077"><time>2026-05-06T19:08:17Z</time></trkpt>
<trkpt lat="50.724006" lon="5.911621"><time>2026-05-06T19:18:17Z</time></trkpt>
<trkpt lat="50.723078" lon="5.912111"><time>2026-05-06T19:28:17Z</time></trkpt>
<trkpt lat="50.722790" lon="5.912075"><time>2026-05-06T19:38:17Z</time></trkpt>
</trkseg>
</trk>
<trk>
<name>lpbhm87</name>
<cmt>v</cmt>
<desc>Hombourg Sentier n°87 Rue de la Station / RAVeL Ligne 38 Hombourg Aubel / Chemin de Berlieren</desc>
<link href="https://chemins.be/hombourg/sentier/87"/><trkseg>
<trkpt lat="50.722917" lon="5.920616"><time>2026-05-06T18:28:17Z</time></trkpt>
<trkpt lat="50.722675" lon="5.919921"><time>2026-05-06T18:38:17Z</time></trkpt>
</trkseg></trk>
<trk>
<name>lpbhm87</name>
<cmt>s</cmt>
<desc>Hombourg Sentier n°87 Rue de la Station / RAVeL Ligne 38 Hombourg Aubel / Chemin de Berlieren</desc>
<link href="https://chemins.be/hombourg/sentier/87"/><trkseg>
<trkpt lat="50.722675" lon="5.919921"><time>2026-05-06T18:38:17Z</time></trkpt>
<trkpt lat="50.722369" lon="5.918863"><time>2026-05-06T18:48:17Z</time></trkpt>
<trkpt lat="50.722222" lon="5.918231"><time>2026-05-06T18:58:17Z</time></trkpt>
</trkseg></trk>
<trk>
<name>lpbhm87</name>
<cmt>v</cmt>
<desc>Hombourg Sentier n°87 Rue de la Station / RAVeL Ligne 38 Hombourg Aubel / Chemin de Berlieren</desc>
<link href="https://chemins.be/hombourg/sentier/87"/><trkseg>
<trkpt lat="50.722222" lon="5.918231"><time>2026-05-06T18:58:17Z</time></trkpt>
<trkpt lat="50.722149" lon="5.917678"><time>2026-05-06T19:08:17Z</time></trkpt>
<trkpt lat="50.722233" lon="5.916493"><time>2026-05-06T19:18:17Z</time></trkpt>
<trkpt lat="50.721961" lon="5.915606"><time>2026-05-06T19:28:17Z</time></trkpt>
</trkseg></trk>
<trk>
<name>lpbhm87</name>
<cmt>r</cmt>
<desc>Hombourg Sentier n°87 Rue de la Station / RAVeL Ligne 38 Hombourg Aubel / Chemin de Berlieren</desc>
<link href="https://chemins.be/hombourg/sentier/87"/><trkseg>
<trkpt lat="50.721961" lon="5.915606"><time>2026-05-06T19:28:17Z</time></trkpt>
<trkpt lat="50.722011" lon="5.913785"><time>2026-05-06T19:38:17Z</time></trkpt>
</trkseg></trk>
<trk>
<name>lpbhm87</name>
<cmt>d</cmt>
<desc>Hombourg Sentier n°87 Rue de la Station / RAVeL Ligne 38 Hombourg Aubel / Chemin de Berlieren</desc>
<link href="https://chemins.be/hombourg/sentier/87"/><trkseg>
<trkpt lat="50.722011" lon="5.913785"><time>2026-05-06T19:38:17Z</time></trkpt>
<trkpt lat="50.722443" lon="5.912759"><time>2026-05-06T19:48:17Z</time></trkpt>
</trkseg></trk>
<trk>
<name>lpbhm87</name>
<cmt>s</cmt>
<desc>Hombourg Sentier n°87 Rue de la Station / RAVeL Ligne 38 Hombourg Aubel / Chemin de Berlieren</desc>
<link href="https://chemins.be/hombourg/sentier/87"/><trkseg>
<trkpt lat="50.722443" lon="5.912759"><time>2026-05-06T19:48:17Z</time></trkpt>
<trkpt lat="50.721683" lon="5.911698"><time>2026-05-06T19:58:17Z</time></trkpt>
<trkpt lat="50.721339" lon="5.910194"><time>2026-05-06T20:08:17Z</time></trkpt>
<trkpt lat="50.720909" lon="5.908315"><time>2026-05-06T20:18:17Z</time></trkpt>
</trkseg></trk>
<trk>
<name>lpbhm87</name>
<cmt>d</cmt>
<desc>Hombourg Sentier n°87 Rue de la Station / RAVeL Ligne 38 Hombourg Aubel / Chemin de Berlieren</desc>
<link href="https://chemins.be/hombourg/sentier/87"/><trkseg>
<trkpt lat="50.720909" lon="5.908315"><time>2026-05-06T20:18:17Z</time></trkpt>
<trkpt lat="50.720472" lon="5.904890"><time>2026-05-06T20:28:17Z</time></trkpt>
</trkseg></trk>
<trk>
<name>lpbhm87</name>
<cmt>v</cmt>
<desc>Hombourg Sentier n°87 Rue de la Station / RAVeL Ligne 38 Hombourg Aubel / Chemin de Berlieren</desc>
<link href="https://chemins.be/hombourg/sentier/87"/><trkseg>
<trkpt lat="50.720472" lon="5.904890"><time>2026-05-06T20:28:17Z</time></trkpt>
<trkpt lat="50.720671" lon="5.904461"><time>2026-05-06T20:38:17Z</time></trkpt>
<trkpt lat="50.720463" lon="5.904139"><time>2026-05-06T20:48:17Z</time></trkpt>
</trkseg></trk>
<trk>
<name>lpbhm87</name>
<cmt>d</cmt>
<desc>Hombourg Sentier n°87 Rue de la Station / RAVeL Ligne 38 Hombourg Aubel / Chemin de Berlieren</desc>
<link href="https://chemins.be/hombourg/sentier/87"/><trkseg>
<trkpt lat="50.720463" lon="5.904139"><time>2026-05-06T20:48:17Z</time></trkpt>
<trkpt lat="50.720578" lon="5.902957"><time>2026-05-06T20:58:17Z</time></trkpt>
<trkpt lat="50.720461" lon="5.902069"><time>2026-05-06T21:08:17Z</time></trkpt>
</trkseg></trk>
<trk>
<name>lpbhm87</name>
<cmt>v</cmt>
<desc>Hombourg Sentier n°87 Rue de la Station / RAVeL Ligne 38 Hombourg Aubel / Chemin de Berlieren</desc>
<link href="https://chemins.be/hombourg/sentier/87"/><trkseg>
<trkpt lat="50.720461" lon="5.902069"><time>2026-05-06T21:08:17Z</time></trkpt>
<trkpt lat="50.720352" lon="5.901241"><time>2026-05-06T21:18:17Z</time></trkpt>
<trkpt lat="50.719492" lon="5.899317"><time>2026-05-06T21:28:17Z</time></trkpt>
<trkpt lat="50.718074" lon="5.896627"><time>2026-05-06T21:38:17Z</time></trkpt>
<trkpt lat="50.717356" lon="5.895265"><time>2026-05-06T21:48:17Z</time></trkpt>
<trkpt lat="50.715928" lon="5.893609"><time>2026-05-06T21:58:17Z</time></trkpt>
<trkpt lat="50.714651" lon="5.891706"><time>2026-05-06T22:08:17Z</time></trkpt>
</trkseg>
</trk>
<trk>
<name>lpbhm87bis</name>
<cmt>v</cmt>
<desc>Hombourg Sentier n°87bis </desc>
<link href="https://chemins.be/hombourg/sentier/87bis"/><trkseg>
<trkpt lat="50.722356" lon="5.910748"><time>2026-05-06T18:28:17Z</time></trkpt>
<trkpt lat="50.722276" lon="5.910590"><time>2026-05-06T18:38:17Z</time></trkpt>
<trkpt lat="50.722253" lon="5.910431"><time>2026-05-06T18:48:17Z</time></trkpt>
<trkpt lat="50.722080" lon="5.910220"><time>2026-05-06T18:58:17Z</time></trkpt>
</trkseg></trk>
<trk>
<name>lpbhm87bis</name>
<cmt>d</cmt>
<desc>Hombourg Sentier n°87bis </desc>
<link href="https://chemins.be/hombourg/sentier/87bis"/><trkseg>
<trkpt lat="50.722080" lon="5.910220"><time>2026-05-06T18:58:17Z</time></trkpt>
<trkpt lat="50.721729" lon="5.909831"><time>2026-05-06T19:08:17Z</time></trkpt>
<trkpt lat="50.720954" lon="5.908379"><time>2026-05-06T19:18:17Z</time></trkpt>
</trkseg>
</trk>
<trk>
<name>lpbhm87ter</name>
<cmt>v</cmt>
<desc>Hombourg Sentier n°87ter Rue Ermend</desc>
<link href="https://chemins.be/hombourg/sentier/87ter"/><trkseg>
<trkpt lat="50.722689" lon="5.919911"><time>2026-05-06T18:28:17Z</time></trkpt>
<trkpt lat="50.722877" lon="5.919578"><time>2026-05-06T18:38:17Z</time></trkpt>
<trkpt lat="50.722630" lon="5.918888"><time>2026-05-06T18:48:17Z</time></trkpt>
</trkseg></trk>
<trk>
<name>lpbhm87ter</name>
<cmt>r</cmt>
<desc>Hombourg Sentier n°87ter Rue Ermend</desc>
<link href="https://chemins.be/hombourg/sentier/87ter"/><trkseg>
<trkpt lat="50.722630" lon="5.918888"><time>2026-05-06T18:48:17Z</time></trkpt>
<trkpt lat="50.722039" lon="5.918773"><time>2026-05-06T18:58:17Z</time></trkpt>
</trkseg></trk>
<trk>
<name>lpbhm87ter</name>
<cmt>v</cmt>
<desc>Hombourg Sentier n°87ter Rue Ermend</desc>
<link href="https://chemins.be/hombourg/sentier/87ter"/><trkseg>
<trkpt lat="50.722039" lon="5.918773"><time>2026-05-06T18:58:17Z</time></trkpt>
<trkpt lat="50.722218" lon="5.918217"><time>2026-05-06T19:08:17Z</time></trkpt>
</trkseg>
</trk>
<trk>
<name>lpbhm88</name>
<cmt>v</cmt>
<desc>Hombourg Sentier n°88 Chemin de Berlieren</desc>
<link href="https://chemins.be/hombourg/sentier/88"/><trkseg>
<trkpt lat="50.728424" lon="5.914324"><time>2026-05-06T18:28:17Z</time></trkpt>
<trkpt lat="50.728375" lon="5.913944"><time>2026-05-06T18:38:17Z</time></trkpt>
<trkpt lat="50.728213" lon="5.913752"><time>2026-05-06T18:48:17Z</time></trkpt>
</trkseg></trk>
<trk>
<name>lpbhm88</name>
<cmt>d</cmt>
<desc>Hombourg Sentier n°88 Chemin de Berlieren</desc>
<link href="https://chemins.be/hombourg/sentier/88"/><trkseg>
<trkpt lat="50.728213" lon="5.913752"><time>2026-05-06T18:48:17Z</time></trkpt>
<trkpt lat="50.727778" lon="5.912700"><time>2026-05-06T18:58:17Z</time></trkpt>
<trkpt lat="50.726977" lon="5.910582"><time>2026-05-06T19:08:17Z</time></trkpt>
<trkpt lat="50.726257" lon="5.909071"><time>2026-05-06T19:18:17Z</time></trkpt>
<trkpt lat="50.725367" lon="5.907372"><time>2026-05-06T19:28:17Z</time></trkpt>
<trkpt lat="50.723700" lon="5.905684"><time>2026-05-06T19:38:17Z</time></trkpt>
</trkseg></trk>
<trk>
<name>lpbhm88</name>
<cmt>r</cmt>
<desc>Hombourg Sentier n°88 Chemin de Berlieren</desc>
<link href="https://chemins.be/hombourg/sentier/88"/><trkseg>
<trkpt lat="50.723700" lon="5.905684"><time>2026-05-06T19:38:17Z</time></trkpt>
<trkpt lat="50.723446" lon="5.905559"><time>2026-05-06T19:48:17Z</time></trkpt>
<trkpt lat="50.721966" lon="5.903242"><time>2026-05-06T19:58:17Z</time></trkpt>
<trkpt lat="50.721883" lon="5.902920"><time>2026-05-06T20:08:17Z</time></trkpt>
</trkseg></trk>
<trk>
<name>lpbhm88</name>
<cmt>d</cmt>
<desc>Hombourg Sentier n°88 Chemin de Berlieren</desc>
<link href="https://chemins.be/hombourg/sentier/88"/><trkseg>
<trkpt lat="50.721883" lon="5.902920"><time>2026-05-06T20:08:17Z</time></trkpt>
<trkpt lat="50.720934" lon="5.901235"><time>2026-05-06T20:18:17Z</time></trkpt>
</trkseg></trk>
<trk>
<name>lpbhm88</name>
<cmt>v</cmt>
<desc>Hombourg Sentier n°88 Chemin de Berlieren</desc>
<link href="https://chemins.be/hombourg/sentier/88"/><trkseg>
<trkpt lat="50.720934" lon="5.901235"><time>2026-05-06T20:18:17Z</time></trkpt>
<trkpt lat="50.719582" lon="5.899444"><time>2026-05-06T20:28:17Z</time></trkpt>
</trkseg>
</trk>
<trk>
<name>lpbhm89</name>
<cmt>d</cmt>
<desc>Hombourg Sentier n°89 </desc>
<link href="https://chemins.be/hombourg/sentier/89"/><trkseg>
<trkpt lat="50.725326" lon="5.907378"><time>2026-05-06T18:28:17Z</time></trkpt>
<trkpt lat="50.724328" lon="5.907588"><time>2026-05-06T18:38:17Z</time></trkpt>
</trkseg></trk>
<trk>
<name>lpbhm89</name>
<cmt>s</cmt>
<desc>Hombourg Sentier n°89 </desc>
<link href="https://chemins.be/hombourg/sentier/89"/><trkseg>
<trkpt lat="50.724328" lon="5.907588"><time>2026-05-06T18:38:17Z</time></trkpt>
<trkpt lat="50.724005" lon="5.907657"><time>2026-05-06T18:48:17Z</time></trkpt>
<trkpt lat="50.723243" lon="5.907941"><time>2026-05-06T18:58:17Z</time></trkpt>
<trkpt lat="50.722374" lon="5.910634"><time>2026-05-06T19:08:17Z</time></trkpt>
</trkseg>
</trk>
<trk>
<name>lpbhm9</name>
<cmt>v</cmt>
<desc>Hombourg Chemin n°9 Gulpen</desc>
<link href="https://chemins.be/hombourg/chemin/9"/><trkseg>
<trkpt lat="50.704665" lon="5.918260"><time>2026-05-06T18:28:17Z</time></trkpt>
<trkpt lat="50.704278" lon="5.917499"><time>2026-05-06T18:38:17Z</time></trkpt>
<trkpt lat="50.703741" lon="5.916687"><time>2026-05-06T18:48:17Z</time></trkpt>
<trkpt lat="50.701311" lon="5.913316"><time>2026-05-06T18:58:17Z</time></trkpt>
<trkpt lat="50.700224" lon="5.912143"><time>2026-05-06T19:08:17Z</time></trkpt>
<trkpt lat="50.700008" lon="5.911622"><time>2026-05-06T19:18:17Z</time></trkpt>
<trkpt lat="50.699820" lon="5.911579"><time>2026-05-06T19:28:17Z</time></trkpt>
<trkpt lat="50.699084" lon="5.912137"><time>2026-05-06T19:38:17Z</time></trkpt>
<trkpt lat="50.699018" lon="5.912283"><time>2026-05-06T19:48:17Z</time></trkpt>
<trkpt lat="50.698108" lon="5.910410"><time>2026-05-06T19:58:17Z</time></trkpt>
<trkpt lat="50.696944" lon="5.908951"><time>2026-05-06T20:08:17Z</time></trkpt>
<trkpt lat="50.696701" lon="5.908225"><time>2026-05-06T20:18:17Z</time></trkpt>
</trkseg></trk>
<trk>
<name>lpbhm9</name>
<cmt>s</cmt>
<desc>Hombourg Chemin n°9 Gulpen</desc>
<link href="https://chemins.be/hombourg/chemin/9"/><trkseg>
<trkpt lat="50.696701" lon="5.908225"><time>2026-05-06T20:18:17Z</time></trkpt>
<trkpt lat="50.696074" lon="5.906348"><time>2026-05-06T20:28:17Z</time></trkpt>
<trkpt lat="50.695870" lon="5.905053"><time>2026-05-06T20:38:17Z</time></trkpt>
<trkpt lat="50.696110" lon="5.904481"><time>2026-05-06T20:48:17Z</time></trkpt>
<trkpt lat="50.694520" lon="5.900733"><time>2026-05-06T20:58:17Z</time></trkpt>
</trkseg>
</trk>
<trk>
<name>lpbhm90</name>
<cmt>q</cmt>
<desc>Hombourg Sentier n°90 Pannesweide / Driesschen</desc>
<link href="https://chemins.be/hombourg/sentier/90"/><trkseg>
<trkpt lat="50.724334" lon="5.909432"><time>2026-05-06T18:28:17Z</time></trkpt>
<trkpt lat="50.724152" lon="5.908688"><time>2026-05-06T18:38:17Z</time></trkpt>
</trkseg></trk>
<trk>
<name>lpbhm90</name>
<cmt>s</cmt>
<desc>Hombourg Sentier n°90 Pannesweide / Driesschen</desc>
<link href="https://chemins.be/hombourg/sentier/90"/><trkseg>
<trkpt lat="50.724152" lon="5.908688"><time>2026-05-06T18:38:17Z</time></trkpt>
<trkpt lat="50.723645" lon="5.905684"><time>2026-05-06T18:48:17Z</time></trkpt>
</trkseg></trk>
<trk>
<name>lpbhm90</name>
<cmt>r</cmt>
<desc>Hombourg Sentier n°90 Pannesweide / Driesschen</desc>
<link href="https://chemins.be/hombourg/sentier/90"/><trkseg>
<trkpt lat="50.723645" lon="5.905684"><time>2026-05-06T18:48:17Z</time></trkpt>
<trkpt lat="50.724832" lon="5.902935"><time>2026-05-06T18:58:17Z</time></trkpt>
<trkpt lat="50.725070" lon="5.901971"><time>2026-05-06T19:08:17Z</time></trkpt>
</trkseg></trk>
<trk>
<name>lpbhm90</name>
<cmt>v</cmt>
<desc>Hombourg Sentier n°90 Pannesweide / Driesschen</desc>
<link href="https://chemins.be/hombourg/sentier/90"/><trkseg>
<trkpt lat="50.725070" lon="5.901971"><time>2026-05-06T19:08:17Z</time></trkpt>
<trkpt lat="50.725257" lon="5.900935"><time>2026-05-06T19:18:17Z</time></trkpt>
<trkpt lat="50.724850" lon="5.899733"><time>2026-05-06T19:28:17Z</time></trkpt>
<trkpt lat="50.724949" lon="5.898689"><time>2026-05-06T19:38:17Z</time></trkpt>
</trkseg></trk>
<trk>
<name>lpbhm90</name>
<cmt>d</cmt>
<desc>Hombourg Sentier n°90 Pannesweide / Driesschen</desc>
<link href="https://chemins.be/hombourg/sentier/90"/><trkseg>
<trkpt lat="50.724949" lon="5.898689"><time>2026-05-06T19:38:17Z</time></trkpt>
<trkpt lat="50.725160" lon="5.898035"><time>2026-05-06T19:48:17Z</time></trkpt>
<trkpt lat="50.725309" lon="5.897622"><time>2026-05-06T19:58:17Z</time></trkpt>
<trkpt lat="50.725517" lon="5.896404"><time>2026-05-06T20:08:17Z</time></trkpt>
</trkseg></trk>
<trk>
<name>lpbhm90</name>
<cmt>v</cmt>
<desc>Hombourg Sentier n°90 Pannesweide / Driesschen</desc>
<link href="https://chemins.be/hombourg/sentier/90"/><trkseg>
<trkpt lat="50.725517" lon="5.896404"><time>2026-05-06T20:08:17Z</time></trkpt>
<trkpt lat="50.726007" lon="5.895136"><time>2026-05-06T20:18:17Z</time></trkpt>
</trkseg></trk>
<trk>
<name>lpbhm90</name>
<cmt>r</cmt>
<desc>Hombourg Sentier n°90 Pannesweide / Driesschen</desc>
<link href="https://chemins.be/hombourg/sentier/90"/><trkseg>
<trkpt lat="50.726007" lon="5.895136"><time>2026-05-06T20:18:17Z</time></trkpt>
<trkpt lat="50.727976" lon="5.891168"><time>2026-05-06T20:28:17Z</time></trkpt>
</trkseg></trk>
<trk>
<name>lpbhm90</name>
<cmt>q</cmt>
<desc>Hombourg Sentier n°90 Pannesweide / Driesschen</desc>
<link href="https://chemins.be/hombourg/sentier/90"/><trkseg>
<trkpt lat="50.727976" lon="5.891168"><time>2026-05-06T20:28:17Z</time></trkpt>
<trkpt lat="50.728646" lon="5.888400"><time>2026-05-06T20:38:17Z</time></trkpt>
</trkseg>
</trk>
<trk>
<name>lpbhm91</name>
<cmt>q</cmt>
<desc>Hombourg Sentier n°91 </desc>
<link href="https://chemins.be/hombourg/sentier/91"/><trkseg>
<trkpt lat="50.711011" lon="5.880338"><time>2026-05-06T18:28:17Z</time></trkpt>
<trkpt lat="50.711888" lon="5.881093"><time>2026-05-06T18:38:17Z</time></trkpt>
<trkpt lat="50.714792" lon="5.880159"><time>2026-05-06T18:48:17Z</time></trkpt>
<trkpt lat="50.716137" lon="5.880638"><time>2026-05-06T18:58:17Z</time></trkpt>
<trkpt lat="50.717595" lon="5.882104"><time>2026-05-06T19:08:17Z</time></trkpt>
<trkpt lat="50.718691" lon="5.882490"><time>2026-05-06T19:18:17Z</time></trkpt>
</trkseg>
</trk>
<trk>
<name>lpbhm92</name>
<cmt>q</cmt>
<desc>Hombourg Sentier n°92 Reesberg</desc>
<link href="https://chemins.be/hombourg/sentier/92"/><trkseg>
<trkpt lat="50.716132" lon="5.880659"><time>2026-05-06T18:28:17Z</time></trkpt>
<trkpt lat="50.716046" lon="5.879136"><time>2026-05-06T18:38:17Z</time></trkpt>
</trkseg></trk>
<trk>
<name>lpbhm92</name>
<cmt>r</cmt>
<desc>Hombourg Sentier n°92 Reesberg</desc>
<link href="https://chemins.be/hombourg/sentier/92"/><trkseg>
<trkpt lat="50.716046" lon="5.879136"><time>2026-05-06T18:38:17Z</time></trkpt>
<trkpt lat="50.715272" lon="5.877770"><time>2026-05-06T18:48:17Z</time></trkpt>
<trkpt lat="50.715213" lon="5.876225"><time>2026-05-06T18:58:17Z</time></trkpt>
<trkpt lat="50.714973" lon="5.875602"><time>2026-05-06T19:08:17Z</time></trkpt>
</trkseg></trk>
<trk>
<name>lpbhm92</name>
<cmt>q</cmt>
<desc>Hombourg Sentier n°92 Reesberg</desc>
<link href="https://chemins.be/hombourg/sentier/92"/><trkseg>
<trkpt lat="50.714973" lon="5.875602"><time>2026-05-06T19:08:17Z</time></trkpt>
<trkpt lat="50.714573" lon="5.874076"><time>2026-05-06T19:18:17Z</time></trkpt>
<trkpt lat="50.714123" lon="5.873039"><time>2026-05-06T19:28:17Z</time></trkpt>
</trkseg>
</trk>
<trk>
<name>lpbhm94</name>
<cmt>s</cmt>
<desc>Hombourg Sentier n°94 Rue d'Aubel / Gulpen</desc>
<link href="https://chemins.be/hombourg/sentier/94"/><trkseg>
<trkpt lat="50.722453" lon="5.920515"><time>2026-05-06T18:28:17Z</time></trkpt>
<trkpt lat="50.721603" lon="5.919871"><time>2026-05-06T18:38:17Z</time></trkpt>
<trkpt lat="50.720737" lon="5.919396"><time>2026-05-06T18:48:17Z</time></trkpt>
<trkpt lat="50.720459" lon="5.919059"><time>2026-05-06T18:58:17Z</time></trkpt>
<trkpt lat="50.720168" lon="5.918419"><time>2026-05-06T19:08:17Z</time></trkpt>
</trkseg></trk>
<trk>
<name>lpbhm94</name>
<cmt>r</cmt>
<desc>Hombourg Sentier n°94 Rue d'Aubel / Gulpen</desc>
<link href="https://chemins.be/hombourg/sentier/94"/><trkseg>
<trkpt lat="50.720168" lon="5.918419"><time>2026-05-06T19:08:17Z</time></trkpt>
<trkpt lat="50.719000" lon="5.917504"><time>2026-05-06T19:18:17Z</time></trkpt>
</trkseg></trk>
<trk>
<name>lpbhm94</name>
<cmt>q</cmt>
<desc>Hombourg Sentier n°94 Rue d'Aubel / Gulpen</desc>
<link href="https://chemins.be/hombourg/sentier/94"/><trkseg>
<trkpt lat="50.719000" lon="5.917504"><time>2026-05-06T19:18:17Z</time></trkpt>
<trkpt lat="50.718583" lon="5.917382"><time>2026-05-06T19:28:17Z</time></trkpt>
<trkpt lat="50.716702" lon="5.916324"><time>2026-05-06T19:38:17Z</time></trkpt>
<trkpt lat="50.715108" lon="5.915179"><time>2026-05-06T19:48:17Z</time></trkpt>
<trkpt lat="50.714900" lon="5.914621"><time>2026-05-06T19:58:17Z</time></trkpt>
</trkseg></trk>
<trk>
<name>lpbhm94</name>
<cmt>s</cmt>
<desc>Hombourg Sentier n°94 Rue d'Aubel / Gulpen</desc>
<link href="https://chemins.be/hombourg/sentier/94"/><trkseg>
<trkpt lat="50.714900" lon="5.914621"><time>2026-05-06T19:58:17Z</time></trkpt>
<trkpt lat="50.713706" lon="5.914074"><time>2026-05-06T20:08:17Z</time></trkpt>
</trkseg></trk>
<trk>
<name>lpbhm94</name>
<cmt>r</cmt>
<desc>Hombourg Sentier n°94 Rue d'Aubel / Gulpen</desc>
<link href="https://chemins.be/hombourg/sentier/94"/><trkseg>
<trkpt lat="50.713706" lon="5.914074"><time>2026-05-06T20:08:17Z</time></trkpt>
<trkpt lat="50.713398" lon="5.914038"><time>2026-05-06T20:18:17Z</time></trkpt>
<trkpt lat="50.712605" lon="5.913928"><time>2026-05-06T20:28:17Z</time></trkpt>
<trkpt lat="50.711646" lon="5.913938"><time>2026-05-06T20:38:17Z</time></trkpt>
</trkseg></trk>
<trk>
<name>lpbhm94</name>
<cmt>q</cmt>
<desc>Hombourg Sentier n°94 Rue d'Aubel / Gulpen</desc>
<link href="https://chemins.be/hombourg/sentier/94"/><trkseg>
<trkpt lat="50.711646" lon="5.913938"><time>2026-05-06T20:38:17Z</time></trkpt>
<trkpt lat="50.711283" lon="5.913963"><time>2026-05-06T20:48:17Z</time></trkpt>
<trkpt lat="50.707590" lon="5.916324"><time>2026-05-06T20:58:17Z</time></trkpt>
<trkpt lat="50.706403" lon="5.917711"><time>2026-05-06T21:08:17Z</time></trkpt>
<trkpt lat="50.704709" lon="5.918326"><time>2026-05-06T21:18:17Z</time></trkpt>
</trkseg></trk>
<trk>
<name>lpbhm94</name>
<cmt>d</cmt>
<desc>Hombourg Sentier n°94 Rue d'Aubel / Gulpen</desc>
<link href="https://chemins.be/hombourg/sentier/94"/><trkseg>
<trkpt lat="50.704709" lon="5.918326"><time>2026-05-06T21:18:17Z</time></trkpt>
<trkpt lat="50.703128" lon="5.917348"><time>2026-05-06T21:28:17Z</time></trkpt>
<trkpt lat="50.700148" lon="5.918974"><time>2026-05-06T21:38:17Z</time></trkpt>
<trkpt lat="50.697247" lon="5.919744"><time>2026-05-06T21:48:17Z</time></trkpt>
<trkpt lat="50.696246" lon="5.920383"><time>2026-05-06T21:58:17Z</time></trkpt>
</trkseg></trk>
<trk>
<name>lpbhm94</name>
<cmt>v</cmt>
<desc>Hombourg Sentier n°94 Rue d'Aubel / Gulpen</desc>
<link href="https://chemins.be/hombourg/sentier/94"/><trkseg>
<trkpt lat="50.696246" lon="5.920383"><time>2026-05-06T21:58:17Z</time></trkpt>
<trkpt lat="50.695884" lon="5.920772"><time>2026-05-06T22:08:17Z</time></trkpt>
<trkpt lat="50.695838" lon="5.921069"><time>2026-05-06T22:18:17Z</time></trkpt>
</trkseg></trk>
<trk>
<name>lpbhm94</name>
<cmt>s</cmt>
<desc>Hombourg Sentier n°94 Rue d'Aubel / Gulpen</desc>
<link href="https://chemins.be/hombourg/sentier/94"/><trkseg>
<trkpt lat="50.695838" lon="5.921069"><time>2026-05-06T22:18:17Z</time></trkpt>
<trkpt lat="50.693969" lon="5.922303"><time>2026-05-06T22:28:17Z</time></trkpt>
<trkpt lat="50.690655" lon="5.924030"><time>2026-05-06T22:38:17Z</time></trkpt>
<trkpt lat="50.688652" lon="5.924216"><time>2026-05-06T22:48:17Z</time></trkpt>
</trkseg>
</trk>
<trk>
<name>lpbhm95</name>
<cmt>d</cmt>
<desc>Hombourg Sentier n°95 </desc>
<link href="https://chemins.be/hombourg/sentier/95"/><trkseg>
<trkpt lat="50.724710" lon="5.925686"><time>2026-05-06T18:28:17Z</time></trkpt>
<trkpt lat="50.723157" lon="5.924871"><time>2026-05-06T18:38:17Z</time></trkpt>
<trkpt lat="50.721522" lon="5.921892"><time>2026-05-06T18:48:17Z</time></trkpt>
<trkpt lat="50.721268" lon="5.921395"><time>2026-05-06T18:58:17Z</time></trkpt>
</trkseg></trk>
<trk>
<name>lpbhm95</name>
<cmt>s</cmt>
<desc>Hombourg Sentier n°95 </desc>
<link href="https://chemins.be/hombourg/sentier/95"/><trkseg>
<trkpt lat="50.721268" lon="5.921395"><time>2026-05-06T18:58:17Z</time></trkpt>
<trkpt lat="50.720841" lon="5.920200"><time>2026-05-06T19:08:17Z</time></trkpt>
<trkpt lat="50.720748" lon="5.919392"><time>2026-05-06T19:18:17Z</time></trkpt>
<trkpt lat="50.720544" lon="5.918713"><time>2026-05-06T19:28:17Z</time></trkpt>
<trkpt lat="50.720142" lon="5.918015"><time>2026-05-06T19:38:17Z</time></trkpt>
</trkseg></trk>
<trk>
<name>lpbhm95</name>
<cmt>d</cmt>
<desc>Hombourg Sentier n°95 </desc>
<link href="https://chemins.be/hombourg/sentier/95"/><trkseg>
<trkpt lat="50.720142" lon="5.918015"><time>2026-05-06T19:38:17Z</time></trkpt>
<trkpt lat="50.719289" lon="5.916402"><time>2026-05-06T19:48:17Z</time></trkpt>
</trkseg></trk>
<trk>
<name>lpbhm95</name>
<cmt>v</cmt>
<desc>Hombourg Sentier n°95 </desc>
<link href="https://chemins.be/hombourg/sentier/95"/><trkseg>
<trkpt lat="50.719289" lon="5.916402"><time>2026-05-06T19:48:17Z</time></trkpt>
<trkpt lat="50.718594" lon="5.914888"><time>2026-05-06T19:58:17Z</time></trkpt>
<trkpt lat="50.718020" lon="5.913507"><time>2026-05-06T20:08:17Z</time></trkpt>
<trkpt lat="50.717964" lon="5.913175"><time>2026-05-06T20:18:17Z</time></trkpt>
</trkseg></trk>
<trk>
<name>lpbhm95</name>
<cmt>r</cmt>
<desc>Hombourg Sentier n°95 </desc>
<link href="https://chemins.be/hombourg/sentier/95"/><trkseg>
<trkpt lat="50.717964" lon="5.913175"><time>2026-05-06T20:18:17Z</time></trkpt>
<trkpt lat="50.717616" lon="5.913252"><time>2026-05-06T20:28:17Z</time></trkpt>
</trkseg></trk>
<trk>
<name>lpbhm95</name>
<cmt>s</cmt>
<desc>Hombourg Sentier n°95 </desc>
<link href="https://chemins.be/hombourg/sentier/95"/><trkseg>
<trkpt lat="50.717616" lon="5.913252"><time>2026-05-06T20:28:17Z</time></trkpt>
<trkpt lat="50.717202" lon="5.912491"><time>2026-05-06T20:38:17Z</time></trkpt>
</trkseg></trk>
<trk>
<name>lpbhm95</name>
<cmt>d</cmt>
<desc>Hombourg Sentier n°95 </desc>
<link href="https://chemins.be/hombourg/sentier/95"/><trkseg>
<trkpt lat="50.717202" lon="5.912491"><time>2026-05-06T20:38:17Z</time></trkpt>
<trkpt lat="50.715861" lon="5.910029"><time>2026-05-06T20:48:17Z</time></trkpt>
<trkpt lat="50.715377" lon="5.908871"><time>2026-05-06T20:58:17Z</time></trkpt>
</trkseg>
</trk>
<trk>
<name>lpbhm96</name>
<cmt>d</cmt>
<desc>Hombourg Sentier n°96 Ten-Driesch</desc>
<link href="https://chemins.be/hombourg/sentier/96"/><trkseg>
<trkpt lat="50.718053" lon="5.920820"><time>2026-05-06T18:28:17Z</time></trkpt>
<trkpt lat="50.718395" lon="5.920437"><time>2026-05-06T18:38:17Z</time></trkpt>
<trkpt lat="50.718356" lon="5.919489"><time>2026-05-06T18:48:17Z</time></trkpt>
<trkpt lat="50.718533" lon="5.917973"><time>2026-05-06T18:58:17Z</time></trkpt>
<trkpt lat="50.718312" lon="5.917790"><time>2026-05-06T19:08:17Z</time></trkpt>
<trkpt lat="50.718564" lon="5.917121"><time>2026-05-06T19:18:17Z</time></trkpt>
</trkseg></trk>
<trk>
<name>lpbhm96</name>
<cmt>v</cmt>
<desc>Hombourg Sentier n°96 Ten-Driesch</desc>
<link href="https://chemins.be/hombourg/sentier/96"/><trkseg>
<trkpt lat="50.718564" lon="5.917121"><time>2026-05-06T19:18:17Z</time></trkpt>
<trkpt lat="50.718678" lon="5.916331"><time>2026-05-06T19:28:17Z</time></trkpt>
<trkpt lat="50.718308" lon="5.915209"><time>2026-05-06T19:38:17Z</time></trkpt>
<trkpt lat="50.718017" lon="5.913497"><time>2026-05-06T19:48:17Z</time></trkpt>
<trkpt lat="50.717976" lon="5.913171"><time>2026-05-06T19:58:17Z</time></trkpt>
</trkseg></trk>
<trk>
<name>lpbhm96</name>
<cmt>r</cmt>
<desc>Hombourg Sentier n°96 Ten-Driesch</desc>
<link href="https://chemins.be/hombourg/sentier/96"/><trkseg>
<trkpt lat="50.717976" lon="5.913171"><time>2026-05-06T19:58:17Z</time></trkpt>
<trkpt lat="50.717906" lon="5.913168"><time>2026-05-06T20:08:17Z</time></trkpt>
<trkpt lat="50.717775" lon="5.912518"><time>2026-05-06T20:18:17Z</time></trkpt>
<trkpt lat="50.717943" lon="5.911581"><time>2026-05-06T20:28:17Z</time></trkpt>
<trkpt lat="50.717807" lon="5.910730"><time>2026-05-06T20:38:17Z</time></trkpt>
<trkpt lat="50.716886" lon="5.909711"><time>2026-05-06T20:48:17Z</time></trkpt>
</trkseg></trk>
<trk>
<name>lpbhm96</name>
<cmt>d</cmt>
<desc>Hombourg Sentier n°96 Ten-Driesch</desc>
<link href="https://chemins.be/hombourg/sentier/96"/><trkseg>
<trkpt lat="50.716886" lon="5.909711"><time>2026-05-06T20:48:17Z</time></trkpt>
<trkpt lat="50.716965" lon="5.909255"><time>2026-05-06T20:58:17Z</time></trkpt>
<trkpt lat="50.716863" lon="5.908663"><time>2026-05-06T21:08:17Z</time></trkpt>
</trkseg></trk>
<trk>
<name>lpbhm96</name>
<cmt>v</cmt>
<desc>Hombourg Sentier n°96 Ten-Driesch</desc>
<link href="https://chemins.be/hombourg/sentier/96"/><trkseg>
<trkpt lat="50.716863" lon="5.908663"><time>2026-05-06T21:08:17Z</time></trkpt>
<trkpt lat="50.716877" lon="5.908127"><time>2026-05-06T21:18:17Z</time></trkpt>
<trkpt lat="50.716713" lon="5.907533"><time>2026-05-06T21:28:17Z</time></trkpt>
</trkseg>
</trk>
<trk>
<name>lpbhm97</name>
<cmt>d</cmt>
<desc>Hombourg Sentier n°97 </desc>
<link href="https://chemins.be/hombourg/sentier/97"/><trkseg>
<trkpt lat="50.714208" lon="5.904239"><time>2026-05-06T18:28:17Z</time></trkpt>
<trkpt lat="50.716299" lon="5.906997"><time>2026-05-06T18:38:17Z</time></trkpt>
</trkseg></trk>
<trk>
<name>lpbhm97</name>
<cmt>v</cmt>
<desc>Hombourg Sentier n°97 </desc>
<link href="https://chemins.be/hombourg/sentier/97"/><trkseg>
<trkpt lat="50.716299" lon="5.906997"><time>2026-05-06T18:38:17Z</time></trkpt>
<trkpt lat="50.716693" lon="5.907537"><time>2026-05-06T18:48:17Z</time></trkpt>
<trkpt lat="50.717351" lon="5.907587"><time>2026-05-06T18:58:17Z</time></trkpt>
</trkseg></trk>
<trk>
<name>lpbhm97</name>
<cmt>s</cmt>
<desc>Hombourg Sentier n°97 </desc>
<link href="https://chemins.be/hombourg/sentier/97"/><trkseg>
<trkpt lat="50.717351" lon="5.907587"><time>2026-05-06T18:58:17Z</time></trkpt>
<trkpt lat="50.718652" lon="5.908746"><time>2026-05-06T19:08:17Z</time></trkpt>
<trkpt lat="50.720901" lon="5.910662"><time>2026-05-06T19:18:17Z</time></trkpt>
<trkpt lat="50.721680" lon="5.911721"><time>2026-05-06T19:28:17Z</time></trkpt>
</trkseg>
</trk>
<trk>
<name>lpbhm98</name>
<cmt>d</cmt>
<desc>Hombourg Sentier n°98 </desc>
<link href="https://chemins.be/hombourg/sentier/98"/><trkseg>
<trkpt lat="50.716920" lon="5.908799"><time>2026-05-06T18:28:17Z</time></trkpt>
<trkpt lat="50.717377" lon="5.907605"><time>2026-05-06T18:38:17Z</time></trkpt>
<trkpt lat="50.719929" lon="5.902838"><time>2026-05-06T18:48:17Z</time></trkpt>
</trkseg></trk>
<trk>
<name>lpbhm98</name>
<cmt>v</cmt>
<desc>Hombourg Sentier n°98 </desc>
<link href="https://chemins.be/hombourg/sentier/98"/><trkseg>
<trkpt lat="50.719929" lon="5.902838"><time>2026-05-06T18:48:17Z</time></trkpt>
<trkpt lat="50.720122" lon="5.902584"><time>2026-05-06T18:58:17Z</time></trkpt>
<trkpt lat="50.720653" lon="5.901832"><time>2026-05-06T19:08:17Z</time></trkpt>
<trkpt lat="50.720991" lon="5.901319"><time>2026-05-06T19:18:17Z</time></trkpt>
</trkseg></trk>
<trk>
<name>lpbhm98</name>
<cmt>d</cmt>
<desc>Hombourg Sentier n°98 </desc>
<link href="https://chemins.be/hombourg/sentier/98"/><trkseg>
<trkpt lat="50.720991" lon="5.901319"><time>2026-05-06T19:18:17Z</time></trkpt>
<trkpt lat="50.722445" lon="5.899474"><time>2026-05-06T19:28:17Z</time></trkpt>
<trkpt lat="50.724107" lon="5.897365"><time>2026-05-06T19:38:17Z</time></trkpt>
</trkseg></trk>
<trk>
<name>lpbhm98</name>
<cmt>v</cmt>
<desc>Hombourg Sentier n°98 </desc>
<link href="https://chemins.be/hombourg/sentier/98"/><trkseg>
<trkpt lat="50.724107" lon="5.897365"><time>2026-05-06T19:38:17Z</time></trkpt>
<trkpt lat="50.724350" lon="5.897056"><time>2026-05-06T19:48:17Z</time></trkpt>
</trkseg>
</trk>
<trk>
<name>lpbhm99</name>
<cmt>s</cmt>
<desc>Hombourg Sentier n°99 </desc>
<link href="https://chemins.be/hombourg/sentier/99"/><trkseg>
<trkpt lat="50.698656" lon="5.902457"><time>2026-05-06T18:28:17Z</time></trkpt>
<trkpt lat="50.701156" lon="5.903338"><time>2026-05-06T18:38:17Z</time></trkpt>
</trkseg></trk>
<trk>
<name>lpbhm99</name>
<cmt>v</cmt>
<desc>Hombourg Sentier n°99 </desc>
<link href="https://chemins.be/hombourg/sentier/99"/><trkseg>
<trkpt lat="50.701156" lon="5.903338"><time>2026-05-06T18:38:17Z</time></trkpt>
<trkpt lat="50.702149" lon="5.903424"><time>2026-05-06T18:48:17Z</time></trkpt>
<trkpt lat="50.702711" lon="5.903767"><time>2026-05-06T18:58:17Z</time></trkpt>
<trkpt lat="50.703299" lon="5.904357"><time>2026-05-06T19:08:17Z</time></trkpt>
<trkpt lat="50.706592" lon="5.908300"><time>2026-05-06T19:18:17Z</time></trkpt>
</trkseg></trk>
<trk>
<name>lpbhm99</name>
<cmt>d</cmt>
<desc>Hombourg Sentier n°99 </desc>
<link href="https://chemins.be/hombourg/sentier/99"/><trkseg>
<trkpt lat="50.706592" lon="5.908300"><time>2026-05-06T19:18:17Z</time></trkpt>
<trkpt lat="50.709372" lon="5.909686"><time>2026-05-06T19:28:17Z</time></trkpt>
<trkpt lat="50.710242" lon="5.910813"><time>2026-05-06T19:38:17Z</time></trkpt>
<trkpt lat="50.711799" lon="5.912361"><time>2026-05-06T19:48:17Z</time></trkpt>
</trkseg></trk>
<trk>
<name>lpbhm99</name>
<cmt>v</cmt>
<desc>Hombourg Sentier n°99 </desc>
<link href="https://chemins.be/hombourg/sentier/99"/><trkseg>
<trkpt lat="50.711799" lon="5.912361"><time>2026-05-06T19:48:17Z</time></trkpt>
<trkpt lat="50.712438" lon="5.912844"><time>2026-05-06T19:58:17Z</time></trkpt>
<trkpt lat="50.713020" lon="5.913495"><time>2026-05-06T20:08:17Z</time></trkpt>
</trkseg></trk>
<trk>
<name>lpbhm99</name>
<cmt>s</cmt>
<desc>Hombourg Sentier n°99 </desc>
<link href="https://chemins.be/hombourg/sentier/99"/><trkseg>
<trkpt lat="50.713020" lon="5.913495"><time>2026-05-06T20:08:17Z</time></trkpt>
<trkpt lat="50.714562" lon="5.913463"><time>2026-05-06T20:18:17Z</time></trkpt>
<trkpt lat="50.715521" lon="5.913377"><time>2026-05-06T20:28:17Z</time></trkpt>
<trkpt lat="50.716980" lon="5.913248"><time>2026-05-06T20:38:17Z</time></trkpt>
</trkseg>
</trk>
<trk>
<name>lpbhmi1</name>
<cmt>v</cmt>
<desc>Hombourg Chemin n°i1 Sentier des Muguets</desc>
<link href="https://chemins.be/hombourg/chemin/i1"/><trkseg>
<trkpt lat="50.734684" lon="5.913827"><time>2026-05-06T18:28:17Z</time></trkpt>
<trkpt lat="50.734201" lon="5.913121"><time>2026-05-06T18:38:17Z</time></trkpt>
<trkpt lat="50.734118" lon="5.912665"><time>2026-05-06T18:48:17Z</time></trkpt>
<trkpt lat="50.734129" lon="5.911801"><time>2026-05-06T18:58:17Z</time></trkpt>
</trkseg>
</trk>
<trk>
<name>lpbhmi10</name>
<cmt>v</cmt>
<desc>Hombourg Sentier n°i10 </desc>
<link href="https://chemins.be/hombourg/sentier/i10"/><trkseg>
<trkpt lat="50.723449" lon="5.921073"><time>2026-05-06T18:28:17Z</time></trkpt>
<trkpt lat="50.723890" lon="5.921631"><time>2026-05-06T18:38:17Z</time></trkpt>
</trkseg>
</trk>
<trk>
<name>lpbhmi11</name>
<cmt>v</cmt>
<desc>Hombourg Sentier n°i11 </desc>
<link href="https://chemins.be/hombourg/sentier/i11"/><trkseg>
<trkpt lat="50.722575" lon="5.936795"><time>2026-05-06T18:28:17Z</time></trkpt>
<trkpt lat="50.722043" lon="5.938539"><time>2026-05-06T18:38:17Z</time></trkpt>
</trkseg>
</trk>
<trk>
<name>lpbhmi12</name>
<cmt>v</cmt>
<desc>Hombourg Chemin n°i12 Chemin de Knakkert</desc>
<link href="https://chemins.be/hombourg/chemin/i12"/><trkseg>
<trkpt lat="50.738099" lon="5.918152"><time>2026-05-06T18:28:17Z</time></trkpt>
<trkpt lat="50.737803" lon="5.918699"><time>2026-05-06T18:38:17Z</time></trkpt>
<trkpt lat="50.737170" lon="5.919210"><time>2026-05-06T18:48:17Z</time></trkpt>
</trkseg>
</trk>
<trk>
<name>lpbhmi13</name>
<cmt>v</cmt>
<desc>Hombourg Chemin n°i13 RAVeL 38 Plombières Hombourg</desc>
<link href="https://chemins.be/hombourg/chemin/i13"/><trkseg>
<trkpt lat="50.723368" lon="5.912706"><time>2026-05-06T18:28:17Z</time></trkpt>
<trkpt lat="50.723718" lon="5.912434"><time>2026-05-06T18:38:17Z</time></trkpt>
<trkpt lat="50.724758" lon="5.911669"><time>2026-05-06T18:48:17Z</time></trkpt>
<trkpt lat="50.725007" lon="5.911562"><time>2026-05-06T18:58:17Z</time></trkpt>
</trkseg>
</trk>
<trk>
<name>lpbhmi14</name>
<cmt>v</cmt>
<desc>Hombourg Sentier n°i14 </desc>
<link href="https://chemins.be/hombourg/sentier/i14"/><trkseg>
<trkpt lat="50.721136" lon="5.919245"><time>2026-05-06T18:28:17Z</time></trkpt>
<trkpt lat="50.721254" lon="5.918877"><time>2026-05-06T18:38:17Z</time></trkpt>
<trkpt lat="50.721299" lon="5.918655"><time>2026-05-06T18:48:17Z</time></trkpt>
</trkseg>
</trk>
<trk>
<name>lpbhmi15</name>
<cmt>d</cmt>
<desc>Hombourg Chemin n°i15 </desc>
<link href="https://chemins.be/hombourg/chemin/i15"/><trkseg>
<trkpt lat="50.738841" lon="5.919765"><time>2026-05-06T18:28:17Z</time></trkpt>
<trkpt lat="50.738497" lon="5.919282"><time>2026-05-06T18:38:17Z</time></trkpt>
<trkpt lat="50.737311" lon="5.919082"><time>2026-05-06T18:48:17Z</time></trkpt>
</trkseg>
</trk>
<trk>
<name>lpbhmi16</name>
<cmt>v</cmt>
<desc>Hombourg Sentier n°i16 </desc>
<link href="https://chemins.be/hombourg/sentier/i16"/><trkseg>
<trkpt lat="50.729189" lon="5.912042"><time>2026-05-06T18:28:17Z</time></trkpt>
<trkpt lat="50.729128" lon="5.912045"><time>2026-05-06T18:38:17Z</time></trkpt>
<trkpt lat="50.729164" lon="5.912180"><time>2026-05-06T18:48:17Z</time></trkpt>
<trkpt lat="50.729309" lon="5.912508"><time>2026-05-06T18:58:17Z</time></trkpt>
<trkpt lat="50.729331" lon="5.912700"><time>2026-05-06T19:08:17Z</time></trkpt>
</trkseg>
</trk>
<trk>
<name>lpbhmi17</name>
<cmt>v</cmt>
<desc>Hombourg Chemin n°i17 </desc>
<link href="https://chemins.be/hombourg/chemin/i17"/><trkseg>
<trkpt lat="50.707855" lon="5.905534"><time>2026-05-06T18:28:17Z</time></trkpt>
<trkpt lat="50.708006" lon="5.905042"><time>2026-05-06T18:38:17Z</time></trkpt>
</trkseg></trk>
<trk>
<name>lpbhmi17</name>
<cmt>q</cmt>
<desc>Hombourg Chemin n°i17 </desc>
<link href="https://chemins.be/hombourg/chemin/i17"/><trkseg>
<trkpt lat="50.708006" lon="5.905042"><time>2026-05-06T18:38:17Z</time></trkpt>
<trkpt lat="50.707951" lon="5.904438"><time>2026-05-06T18:48:17Z</time></trkpt>
</trkseg>
</trk>
<trk>
<name>lpbhmi18</name>
<cmt>v</cmt>
<desc>Hombourg Chemin n°i18 </desc>
<link href="https://chemins.be/hombourg/chemin/i18"/><trkseg>
<trkpt lat="50.738810" lon="5.959166"><time>2026-05-06T18:28:17Z</time></trkpt>
<trkpt lat="50.739510" lon="5.958704"><time>2026-05-06T18:38:17Z</time></trkpt>
<trkpt lat="50.739554" lon="5.958163"><time>2026-05-06T18:48:17Z</time></trkpt>
<trkpt lat="50.739418" lon="5.956349"><time>2026-05-06T18:58:17Z</time></trkpt>
<trkpt lat="50.740246" lon="5.955797"><time>2026-05-06T19:08:17Z</time></trkpt>
<trkpt lat="50.740855" lon="5.954986"><time>2026-05-06T19:18:17Z</time></trkpt>
<trkpt lat="50.742113" lon="5.953308"><time>2026-05-06T19:28:17Z</time></trkpt>
<trkpt lat="50.742742" lon="5.952085"><time>2026-05-06T19:38:17Z</time></trkpt>
<trkpt lat="50.742771" lon="5.952522"><time>2026-05-06T19:48:17Z</time></trkpt>
<trkpt lat="50.742862" lon="5.952769"><time>2026-05-06T19:58:17Z</time></trkpt>
</trkseg>
</trk>
<trk>
<name>lpbhmi19</name>
<cmt>v</cmt>
<desc>Hombourg Sentier n°i19 </desc>
<link href="https://chemins.be/hombourg/sentier/i19"/><trkseg>
<trkpt lat="50.740862" lon="5.966445"><time>2026-05-06T18:28:17Z</time></trkpt>
<trkpt lat="50.741457" lon="5.965762"><time>2026-05-06T18:38:17Z</time></trkpt>
<trkpt lat="50.741835" lon="5.965487"><time>2026-05-06T18:48:17Z</time></trkpt>
<trkpt lat="50.741882" lon="5.965673"><time>2026-05-06T18:58:17Z</time></trkpt>
</trkseg>
</trk>
<trk>
<name>lpbhmi2</name>
<cmt>v</cmt>
<desc>Hombourg Chemin n°i2 </desc>
<link href="https://chemins.be/hombourg/chemin/i2"/><trkseg>
<trkpt lat="50.729638" lon="5.912380"><time>2026-05-06T18:28:17Z</time></trkpt>
<trkpt lat="50.730090" lon="5.914563"><time>2026-05-06T18:38:17Z</time></trkpt>
<trkpt lat="50.730480" lon="5.917369"><time>2026-05-06T18:48:17Z</time></trkpt>
<trkpt lat="50.730304" lon="5.917573"><time>2026-05-06T18:58:17Z</time></trkpt>
<trkpt lat="50.730199" lon="5.920031"><time>2026-05-06T19:08:17Z</time></trkpt>
</trkseg>
</trk>
<trk>
<name>lpbhmi20</name>
<cmt>v</cmt>
<desc>Hombourg Sentier n°i20 </desc>
<link href="https://chemins.be/hombourg/sentier/i20"/><trkseg>
<trkpt lat="50.735831" lon="5.949932"><time>2026-05-06T18:28:17Z</time></trkpt>
<trkpt lat="50.734410" lon="5.951655"><time>2026-05-06T18:38:17Z</time></trkpt>
<trkpt lat="50.734167" lon="5.952011"><time>2026-05-06T18:48:17Z</time></trkpt>
<trkpt lat="50.734056" lon="5.952402"><time>2026-05-06T18:58:17Z</time></trkpt>
</trkseg>
</trk>
<trk>
<name>lpbhmi21</name>
<cmt>v</cmt>
<desc>Hombourg Sentier n°i21 </desc>
<link href="https://chemins.be/hombourg/sentier/i21"/><trkseg>
<trkpt lat="50.723743" lon="5.910732"><time>2026-05-06T18:28:17Z</time></trkpt>
<trkpt lat="50.723784" lon="5.910916"><time>2026-05-06T18:38:17Z</time></trkpt>
<trkpt lat="50.724206" lon="5.910773"><time>2026-05-06T18:48:17Z</time></trkpt>
<trkpt lat="50.724312" lon="5.910941"><time>2026-05-06T18:58:17Z</time></trkpt>
</trkseg>
</trk>
<trk>
<name>lpbhmi22</name>
<cmt>d</cmt>
<desc>Hombourg Sentier n°i22 </desc>
<link href="https://chemins.be/hombourg/sentier/i22"/><trkseg>
<trkpt lat="50.724978" lon="5.911775"><time>2026-05-06T18:28:17Z</time></trkpt>
<trkpt lat="50.725208" lon="5.911962"><time>2026-05-06T18:38:17Z</time></trkpt>
<trkpt lat="50.726071" lon="5.911564"><time>2026-05-06T18:48:17Z</time></trkpt>
<trkpt lat="50.726506" lon="5.911539"><time>2026-05-06T18:58:17Z</time></trkpt>
<trkpt lat="50.727841" lon="5.912844"><time>2026-05-06T19:08:17Z</time></trkpt>
<trkpt lat="50.727934" lon="5.912930"><time>2026-05-06T19:18:17Z</time></trkpt>
<trkpt lat="50.728231" lon="5.913666"><time>2026-05-06T19:28:17Z</time></trkpt>
<trkpt lat="50.728693" lon="5.913820"><time>2026-05-06T19:38:17Z</time></trkpt>
</trkseg>
</trk>
<trk>
<name>lpbhmi23</name>
<cmt>v</cmt>
<desc>Hombourg Sentier n°i23 </desc>
<link href="https://chemins.be/hombourg/sentier/i23"/><trkseg>
<trkpt lat="50.715804" lon="5.930192"><time>2026-05-06T18:28:17Z</time></trkpt>
<trkpt lat="50.715562" lon="5.930442"><time>2026-05-06T18:38:17Z</time></trkpt>
<trkpt lat="50.715019" lon="5.929795"><time>2026-05-06T18:48:17Z</time></trkpt>
</trkseg>
</trk>
<trk>
<name>lpbhmi24</name>
<cmt>v</cmt>
<desc>Hombourg Chemin n°i24 Boffereth</desc>
<link href="https://chemins.be/hombourg/chemin/i24"/><trkseg>
<trkpt lat="50.741274" lon="5.945048"><time>2026-05-06T18:28:17Z</time></trkpt>
<trkpt lat="50.741727" lon="5.945048"><time>2026-05-06T18:38:17Z</time></trkpt>
<trkpt lat="50.742429" lon="5.944540"><time>2026-05-06T18:48:17Z</time></trkpt>
</trkseg>
</trk>
<trk>
<name>lpbhmi25</name>
<cmt>v</cmt>
<desc>Hombourg Chemin n°i25 </desc>
<link href="https://chemins.be/hombourg/chemin/i25"/><trkseg>
<trkpt lat="50.730156" lon="5.925221"><time>2026-05-06T18:28:17Z</time></trkpt>
<trkpt lat="50.731397" lon="5.923347"><time>2026-05-06T18:38:17Z</time></trkpt>
<trkpt lat="50.731913" lon="5.923319"><time>2026-05-06T18:48:17Z</time></trkpt>
<trkpt lat="50.732855" lon="5.923533"><time>2026-05-06T18:58:17Z</time></trkpt>
</trkseg>
</trk>
<trk>
<name>lpbhmi26</name>
<cmt>d</cmt>
<desc>Hombourg Chemin n°i26 </desc>
<link href="https://chemins.be/hombourg/chemin/i26"/><trkseg>
<trkpt lat="50.726510" lon="5.935060"><time>2026-05-06T18:28:17Z</time></trkpt>
<trkpt lat="50.726128" lon="5.936161"><time>2026-05-06T18:38:17Z</time></trkpt>
</trkseg>
</trk>
<trk>
<name>lpbhmi27</name>
<cmt>v</cmt>
<desc>Hombourg Chemin n°i27 </desc>
<link href="https://chemins.be/hombourg/chemin/i27"/><trkseg>
<trkpt lat="50.716245" lon="5.909414"><time>2026-05-06T18:28:17Z</time></trkpt>
<trkpt lat="50.716492" lon="5.909132"><time>2026-05-06T18:38:17Z</time></trkpt>
<trkpt lat="50.716668" lon="5.909003"><time>2026-05-06T18:48:17Z</time></trkpt>
<trkpt lat="50.716893" lon="5.908606"><time>2026-05-06T18:58:17Z</time></trkpt>
</trkseg>
</trk>
<trk>
<name>lpbhmi28</name>
<cmt>s</cmt>
<desc>Hombourg Sentier n°i28 </desc>
<link href="https://chemins.be/hombourg/sentier/i28"/><trkseg>
<trkpt lat="50.721052" lon="5.919242"><time>2026-05-06T18:28:17Z</time></trkpt>
<trkpt lat="50.720742" lon="5.919389"><time>2026-05-06T18:38:17Z</time></trkpt>
</trkseg>
</trk>
<trk>
<name>lpbhmi29</name>
<cmt>d</cmt>
<desc>Hombourg Sentier n°i29 </desc>
<link href="https://chemins.be/hombourg/sentier/i29"/><trkseg>
<trkpt lat="50.719951" lon="5.918233"><time>2026-05-06T18:28:17Z</time></trkpt>
<trkpt lat="50.720117" lon="5.917990"><time>2026-05-06T18:38:17Z</time></trkpt>
</trkseg>
</trk>
<trk>
<name>lpbhmi3</name>
<cmt>r</cmt>
<desc>Hombourg Chemin n°i3 </desc>
<link href="https://chemins.be/hombourg/chemin/i3"/><trkseg>
<trkpt lat="50.694358" lon="5.923705"><time>2026-05-06T18:28:17Z</time></trkpt>
<trkpt lat="50.693964" lon="5.922196"><time>2026-05-06T18:38:17Z</time></trkpt>
<trkpt lat="50.693126" lon="5.920393"><time>2026-05-06T18:48:17Z</time></trkpt>
<trkpt lat="50.692763" lon="5.919628"><time>2026-05-06T18:58:17Z</time></trkpt>
</trkseg>
</trk>
<trk>
<name>lpbhmi30</name>
<cmt>d</cmt>
<desc>Hombourg Sentier n°i30 </desc>
<link href="https://chemins.be/hombourg/sentier/i30"/><trkseg>
<trkpt lat="50.717778" lon="5.912361"><time>2026-05-06T18:28:17Z</time></trkpt>
<trkpt lat="50.717205" lon="5.912483"><time>2026-05-06T18:38:17Z</time></trkpt>
</trkseg>
</trk>
<trk>
<name>lpbhmi31</name>
<cmt>v</cmt>
<desc>Hombourg Sentier n°i31 RAVeL 38 Plombières Hombourg</desc>
<link href="https://chemins.be/hombourg/sentier/i31"/><trkseg>
<trkpt lat="50.726286" lon="5.928368"><time>2026-05-06T18:28:17Z</time></trkpt>
<trkpt lat="50.726270" lon="5.928520"><time>2026-05-06T18:38:17Z</time></trkpt>
<trkpt lat="50.726383" lon="5.928567"><time>2026-05-06T18:48:17Z</time></trkpt>
<trkpt lat="50.727015" lon="5.930006"><time>2026-05-06T18:58:17Z</time></trkpt>
<trkpt lat="50.727343" lon="5.930703"><time>2026-05-06T19:08:17Z</time></trkpt>
<trkpt lat="50.727795" lon="5.931406"><time>2026-05-06T19:18:17Z</time></trkpt>
<trkpt lat="50.728963" lon="5.933243"><time>2026-05-06T19:28:17Z</time></trkpt>
<trkpt lat="50.728751" lon="5.933632"><time>2026-05-06T19:38:17Z</time></trkpt>
<trkpt lat="50.729119" lon="5.934308"><time>2026-05-06T19:48:17Z</time></trkpt>
<trkpt lat="50.729591" lon="5.934408"><time>2026-05-06T19:58:17Z</time></trkpt>
<trkpt lat="50.729754" lon="5.934441"><time>2026-05-06T20:08:17Z</time></trkpt>
<trkpt lat="50.730055" lon="5.934902"><time>2026-05-06T20:18:17Z</time></trkpt>
</trkseg>
</trk>
<trk>
<name>lpbhmi32</name>
<cmt>v</cmt>
<desc>Hombourg Sentier n°i32 </desc>
<link href="https://chemins.be/hombourg/sentier/i32"/><trkseg>
<trkpt lat="50.729434" lon="5.912535"><time>2026-05-06T18:28:17Z</time></trkpt>
<trkpt lat="50.729190" lon="5.912060"><time>2026-05-06T18:38:17Z</time></trkpt>
<trkpt lat="50.728882" lon="5.911559"><time>2026-05-06T18:48:17Z</time></trkpt>
<trkpt lat="50.728542" lon="5.911254"><time>2026-05-06T18:58:17Z</time></trkpt>
<trkpt lat="50.728500" lon="5.911231"><time>2026-05-06T19:08:17Z</time></trkpt>
</trkseg>
</trk>
<trk>
<name>lpbhmi33</name>
<cmt>d</cmt>
<desc>Hombourg Sentier n°i33 </desc>
<link href="https://chemins.be/hombourg/sentier/i33"/><trkseg>
<trkpt lat="50.734105" lon="5.953109"><time>2026-05-06T18:28:17Z</time></trkpt>
<trkpt lat="50.733958" lon="5.953059"><time>2026-05-06T18:38:17Z</time></trkpt>
<trkpt lat="50.733892" lon="5.953139"><time>2026-05-06T18:48:17Z</time></trkpt>
<trkpt lat="50.733784" lon="5.953424"><time>2026-05-06T18:58:17Z</time></trkpt>
</trkseg>
</trk>
<trk>
<name>lpbhmi34</name>
<cmt>v</cmt>
<desc>Hombourg Sentier n°i34 </desc>
<link href="https://chemins.be/hombourg/sentier/i34"/><trkseg>
<trkpt lat="50.736938" lon="5.956406"><time>2026-05-06T18:28:17Z</time></trkpt>
<trkpt lat="50.736363" lon="5.956456"><time>2026-05-06T18:38:17Z</time></trkpt>
</trkseg>
</trk>
<trk>
<name>lpbhmi36</name>
<cmt>v</cmt>
<desc>Hombourg Chemin n°i36 </desc>
<link href="https://chemins.be/hombourg/chemin/i36"/><trkseg>
<trkpt lat="50.740688" lon="5.879636"><time>2026-05-06T18:28:17Z</time></trkpt>
<trkpt lat="50.742150" lon="5.881403"><time>2026-05-06T18:38:17Z</time></trkpt>
<trkpt lat="50.741670" lon="5.883290"><time>2026-05-06T18:48:17Z</time></trkpt>
<trkpt lat="50.741349" lon="5.884550"><time>2026-05-06T18:58:17Z</time></trkpt>
<trkpt lat="50.740566" lon="5.886481"><time>2026-05-06T19:08:17Z</time></trkpt>
<trkpt lat="50.740585" lon="5.886780"><time>2026-05-06T19:18:17Z</time></trkpt>
</trkseg>
</trk>
<trk>
<name>lpbhmi37</name>
<cmt>v</cmt>
<desc>Hombourg Chemin n°i37 </desc>
<link href="https://chemins.be/hombourg/chemin/i37"/><trkseg>
<trkpt lat="50.727773" lon="5.866166"><time>2026-05-06T18:28:17Z</time></trkpt>
<trkpt lat="50.728416" lon="5.865508"><time>2026-05-06T18:38:17Z</time></trkpt>
<trkpt lat="50.728987" lon="5.865465"><time>2026-05-06T18:48:17Z</time></trkpt>
<trkpt lat="50.731142" lon="5.863391"><time>2026-05-06T18:58:17Z</time></trkpt>
<trkpt lat="50.732772" lon="5.864021"><time>2026-05-06T19:08:17Z</time></trkpt>
<trkpt lat="50.732909" lon="5.862772"><time>2026-05-06T19:18:17Z</time></trkpt>
<trkpt lat="50.733941" lon="5.863001"><time>2026-05-06T19:28:17Z</time></trkpt>
<trkpt lat="50.735082" lon="5.860970"><time>2026-05-06T19:38:17Z</time></trkpt>
<trkpt lat="50.736085" lon="5.860573"><time>2026-05-06T19:48:17Z</time></trkpt>
<trkpt lat="50.736502" lon="5.860058"><time>2026-05-06T19:58:17Z</time></trkpt>
<trkpt lat="50.736864" lon="5.860101"><time>2026-05-06T20:08:17Z</time></trkpt>
</trkseg>
</trk>
<trk>
<name>lpbhmi38</name>
<cmt>v</cmt>
<desc>Hombourg Chemin n°i38 </desc>
<link href="https://chemins.be/hombourg/chemin/i38"/><trkseg>
<trkpt lat="50.732952" lon="5.864480"><time>2026-05-06T18:28:17Z</time></trkpt>
<trkpt lat="50.732775" lon="5.864051"><time>2026-05-06T18:38:17Z</time></trkpt>
</trkseg>
</trk>
<trk>
<name>lpbhmi4</name>
<cmt>r</cmt>
<desc>Hombourg Chemin n°i4 </desc>
<link href="https://chemins.be/hombourg/chemin/i4"/><trkseg>
<trkpt lat="50.736203" lon="5.948746"><time>2026-05-06T18:28:17Z</time></trkpt>
<trkpt lat="50.736402" lon="5.948680"><time>2026-05-06T18:38:17Z</time></trkpt>
</trkseg>
</trk>
<trk>
<name>lpbhmi5</name>
<cmt>d</cmt>
<desc>Hombourg Chemin n°i5 </desc>
<link href="https://chemins.be/hombourg/chemin/i5"/><trkseg>
<trkpt lat="50.720847" lon="5.895216"><time>2026-05-06T18:28:17Z</time></trkpt>
<trkpt lat="50.721083" lon="5.895395"><time>2026-05-06T18:38:17Z</time></trkpt>
<trkpt lat="50.721576" lon="5.896332"><time>2026-05-06T18:48:17Z</time></trkpt>
<trkpt lat="50.722029" lon="5.897098"><time>2026-05-06T18:58:17Z</time></trkpt>
<trkpt lat="50.722400" lon="5.898113"><time>2026-05-06T19:08:17Z</time></trkpt>
<trkpt lat="50.722572" lon="5.899014"><time>2026-05-06T19:18:17Z</time></trkpt>
<trkpt lat="50.722604" lon="5.899944"><time>2026-05-06T19:28:17Z</time></trkpt>
<trkpt lat="50.722446" lon="5.901210"><time>2026-05-06T19:38:17Z</time></trkpt>
<trkpt lat="50.722260" lon="5.901833"><time>2026-05-06T19:48:17Z</time></trkpt>
<trkpt lat="50.721984" lon="5.902512"><time>2026-05-06T19:58:17Z</time></trkpt>
<trkpt lat="50.721835" lon="5.902798"><time>2026-05-06T20:08:17Z</time></trkpt>
</trkseg>
</trk>
<trk>
<name>lpbhmi6</name>
<cmt>v</cmt>
<desc>Hombourg Chemin n°i6 </desc>
<link href="https://chemins.be/hombourg/chemin/i6"/><trkseg>
<trkpt lat="50.731355" lon="5.946017"><time>2026-05-06T18:28:17Z</time></trkpt>
<trkpt lat="50.731223" lon="5.945959"><time>2026-05-06T18:38:17Z</time></trkpt>
<trkpt lat="50.730992" lon="5.946267"><time>2026-05-06T18:48:17Z</time></trkpt>
<trkpt lat="50.730618" lon="5.945669"><time>2026-05-06T18:58:17Z</time></trkpt>
<trkpt lat="50.729373" lon="5.945912"><time>2026-05-06T19:08:17Z</time></trkpt>
</trkseg>
</trk>
<trk>
<name>lpbhmi7</name>
<cmt>v</cmt>
<desc>Hombourg Chemin n°i7 Chemin du Bois du Curé</desc>
<link href="https://chemins.be/hombourg/chemin/i7"/><trkseg>
<trkpt lat="50.734077" lon="5.907070"><time>2026-05-06T18:28:17Z</time></trkpt>
<trkpt lat="50.734244" lon="5.905647"><time>2026-05-06T18:38:17Z</time></trkpt>
<trkpt lat="50.734674" lon="5.905260"><time>2026-05-06T18:48:17Z</time></trkpt>
<trkpt lat="50.735521" lon="5.903472"><time>2026-05-06T18:58:17Z</time></trkpt>
<trkpt lat="50.735503" lon="5.902814"><time>2026-05-06T19:08:17Z</time></trkpt>
<trkpt lat="50.735403" lon="5.902564"><time>2026-05-06T19:18:17Z</time></trkpt>
</trkseg>
</trk>
<trk>
<name>lpbhmi8</name>
<cmt>v</cmt>
<desc>Hombourg Sentier n°i8 </desc>
<link href="https://chemins.be/hombourg/sentier/i8"/><trkseg>
<trkpt lat="50.724293" lon="5.919455"><time>2026-05-06T18:28:17Z</time></trkpt>
<trkpt lat="50.724300" lon="5.918878"><time>2026-05-06T18:38:17Z</time></trkpt>
<trkpt lat="50.724839" lon="5.916815"><time>2026-05-06T18:48:17Z</time></trkpt>
<trkpt lat="50.725012" lon="5.915788"><time>2026-05-06T18:58:17Z</time></trkpt>
</trkseg>
</trk>
<trk>
<name>lpbhmi9</name>
<cmt>v</cmt>
<desc>Hombourg Sentier n°i9 </desc>
<link href="https://chemins.be/hombourg/sentier/i9"/><trkseg>
<trkpt lat="50.721912" lon="5.916347"><time>2026-05-06T18:28:17Z</time></trkpt>
<trkpt lat="50.722021" lon="5.917342"><time>2026-05-06T18:38:17Z</time></trkpt>
<trkpt lat="50.722167" lon="5.917608"><time>2026-05-06T18:48:17Z</time></trkpt>
</trkseg>
</trk>
<trk>
<name>lpbhmL38</name>
<cmt>v</cmt>
<desc>Hombourg Chemin n°L38 RAVeL Ligne 38 Hombourg Aubel / Ligne 38 / RAVeL 38 / RAVeL 38 Plombières Hombourg</desc>
<link href="https://chemins.be/hombourg/chemin/L38"/><trkseg>
<trkpt lat="50.709980" lon="5.882919"><time>2026-05-06T18:28:17Z</time></trkpt>
<trkpt lat="50.710518" lon="5.883556"><time>2026-05-06T18:38:17Z</time></trkpt>
<trkpt lat="50.711283" lon="5.884328"><time>2026-05-06T18:48:17Z</time></trkpt>
<trkpt lat="50.714823" lon="5.888237"><time>2026-05-06T18:58:17Z</time></trkpt>
<trkpt lat="50.715833" lon="5.889927"><time>2026-05-06T19:08:17Z</time></trkpt>
<trkpt lat="50.718483" lon="5.894360"><time>2026-05-06T19:18:17Z</time></trkpt>
<trkpt lat="50.720696" lon="5.895705"><time>2026-05-06T19:28:17Z</time></trkpt>
<trkpt lat="50.721421" lon="5.896262"><time>2026-05-06T19:38:17Z</time></trkpt>
<trkpt lat="50.722123" lon="5.897500"><time>2026-05-06T19:48:17Z</time></trkpt>
<trkpt lat="50.722462" lon="5.898966"><time>2026-05-06T19:58:17Z</time></trkpt>
<trkpt lat="50.722491" lon="5.900059"><time>2026-05-06T20:08:17Z</time></trkpt>
<trkpt lat="50.722340" lon="5.901198"><time>2026-05-06T20:18:17Z</time></trkpt>
<trkpt lat="50.722098" lon="5.901968"><time>2026-05-06T20:28:17Z</time></trkpt>
<trkpt lat="50.721781" lon="5.902607"><time>2026-05-06T20:38:17Z</time></trkpt>
<trkpt lat="50.720674" lon="5.904466"><time>2026-05-06T20:48:17Z</time></trkpt>
<trkpt lat="50.719063" lon="5.907344"><time>2026-05-06T20:58:17Z</time></trkpt>
<trkpt lat="50.718640" lon="5.908742"><time>2026-05-06T21:08:17Z</time></trkpt>
<trkpt lat="50.718563" lon="5.910215"><time>2026-05-06T21:18:17Z</time></trkpt>
<trkpt lat="50.718753" lon="5.911371"><time>2026-05-06T21:28:17Z</time></trkpt>
<trkpt lat="50.719365" lon="5.912899"><time>2026-05-06T21:38:17Z</time></trkpt>
<trkpt lat="50.719886" lon="5.913530"><time>2026-05-06T21:48:17Z</time></trkpt>
<trkpt lat="50.720701" lon="5.913933"><time>2026-05-06T21:58:17Z</time></trkpt>
<trkpt lat="50.721357" lon="5.914100"><time>2026-05-06T22:08:17Z</time></trkpt>
<trkpt lat="50.721780" lon="5.913936"><time>2026-05-06T22:18:17Z</time></trkpt>
<trkpt lat="50.721995" lon="5.913858"><time>2026-05-06T22:28:17Z</time></trkpt>
</trkseg></trk>
<trk>
<name>lpbhmL38</name>
<cmt>s</cmt>
<desc>Hombourg Chemin n°L38 RAVeL Ligne 38 Hombourg Aubel / Ligne 38 / RAVeL 38 / RAVeL 38 Plombières Hombourg</desc>
<link href="https://chemins.be/hombourg/chemin/L38"/><trkseg>
<trkpt lat="50.721995" lon="5.913858"><time>2026-05-06T22:28:17Z</time></trkpt>
<trkpt lat="50.723436" lon="5.912894"><time>2026-05-06T22:38:17Z</time></trkpt>
<trkpt lat="50.725213" lon="5.911381"><time>2026-05-06T22:48:17Z</time></trkpt>
</trkseg></trk>
<trk>
<name>lpbhmL38</name>
<cmt>v</cmt>
<desc>Hombourg Chemin n°L38 RAVeL Ligne 38 Hombourg Aubel / Ligne 38 / RAVeL 38 / RAVeL 38 Plombières Hombourg</desc>
<link href="https://chemins.be/hombourg/chemin/L38"/><trkseg>
<trkpt lat="50.725213" lon="5.911381"><time>2026-05-06T22:48:17Z</time></trkpt>
<trkpt lat="50.725943" lon="5.910931"><time>2026-05-06T22:58:17Z</time></trkpt>
<trkpt lat="50.726579" lon="5.910668"><time>2026-05-06T23:08:17Z</time></trkpt>
<trkpt lat="50.726975" lon="5.910592"><time>2026-05-06T23:18:17Z</time></trkpt>
<trkpt lat="50.727395" lon="5.910623"><time>2026-05-06T23:28:17Z</time></trkpt>
<trkpt lat="50.727805" lon="5.910759"><time>2026-05-06T23:38:17Z</time></trkpt>
<trkpt lat="50.728494" lon="5.911247"><time>2026-05-06T23:48:17Z</time></trkpt>
<trkpt lat="50.728935" lon="5.911739"><time>2026-05-06T23:58:17Z</time></trkpt>
<trkpt lat="50.729146" lon="5.912059"><time>2026-05-07T00:08:17Z</time></trkpt>
<trkpt lat="50.729409" lon="5.912585"><time>2026-05-07T00:18:17Z</time></trkpt>
<trkpt lat="50.729729" lon="5.913616"><time>2026-05-07T00:28:17Z</time></trkpt>
<trkpt lat="50.729899" lon="5.914539"><time>2026-05-07T00:38:17Z</time></trkpt>
<trkpt lat="50.729923" lon="5.915332"><time>2026-05-07T00:48:17Z</time></trkpt>
<trkpt lat="50.729878" lon="5.915954"><time>2026-05-07T00:58:17Z</time></trkpt>
<trkpt lat="50.729593" lon="5.917151"><time>2026-05-07T01:08:17Z</time></trkpt>
<trkpt lat="50.729290" lon="5.918078"><time>2026-05-07T01:18:17Z</time></trkpt>
<trkpt lat="50.727902" lon="5.920848"><time>2026-05-07T01:28:17Z</time></trkpt>
<trkpt lat="50.726794" lon="5.922763"><time>2026-05-07T01:38:17Z</time></trkpt>
<trkpt lat="50.726365" lon="5.923986"><time>2026-05-07T01:48:17Z</time></trkpt>
<trkpt lat="50.726433" lon="5.924882"><time>2026-05-07T01:58:17Z</time></trkpt>
<trkpt lat="50.726653" lon="5.926882"><time>2026-05-07T02:08:17Z</time></trkpt>
<trkpt lat="50.726683" lon="5.926872"><time>2026-05-07T02:18:17Z</time></trkpt>
</trkseg></trk>
<trk>
<name>lpbhmL38</name>
<cmt>q</cmt>
<desc>Hombourg Chemin n°L38 RAVeL Ligne 38 Hombourg Aubel / Ligne 38 / RAVeL 38 / RAVeL 38 Plombières Hombourg</desc>
<link href="https://chemins.be/hombourg/chemin/L38"/><trkseg>
<trkpt lat="50.726683" lon="5.926872"><time>2026-05-07T02:18:17Z</time></trkpt>
<trkpt lat="50.727810" lon="5.929255"><time>2026-05-07T02:28:17Z</time></trkpt>
</trkseg></trk>
<trk>
<name>lpbhmL38</name>
<cmt>s</cmt>
<desc>Hombourg Chemin n°L38 RAVeL Ligne 38 Hombourg Aubel / Ligne 38 / RAVeL 38 / RAVeL 38 Plombières Hombourg</desc>
<link href="https://chemins.be/hombourg/chemin/L38"/><trkseg>
<trkpt lat="50.727810" lon="5.929255"><time>2026-05-07T02:28:17Z</time></trkpt>
<trkpt lat="50.728222" lon="5.929892"><time>2026-05-07T02:38:17Z</time></trkpt>
<trkpt lat="50.729053" lon="5.931448"><time>2026-05-07T02:48:17Z</time></trkpt>
<trkpt lat="50.729353" lon="5.932172"><time>2026-05-07T02:58:17Z</time></trkpt>
<trkpt lat="50.730063" lon="5.934912"><time>2026-05-07T03:08:17Z</time></trkpt>
</trkseg></trk>
<trk>
<name>lpbhmL38</name>
<cmt>v</cmt>
<desc>Hombourg Chemin n°L38 RAVeL Ligne 38 Hombourg Aubel / Ligne 38 / RAVeL 38 / RAVeL 38 Plombières Hombourg</desc>
<link href="https://chemins.be/hombourg/chemin/L38"/><trkseg>
<trkpt lat="50.730063" lon="5.934912"><time>2026-05-07T03:08:17Z</time></trkpt>
<trkpt lat="50.730230" lon="5.935352"><time>2026-05-07T03:18:17Z</time></trkpt>
<trkpt lat="50.730386" lon="5.936511"><time>2026-05-07T03:28:17Z</time></trkpt>
<trkpt lat="50.730905" lon="5.944106"><time>2026-05-07T03:38:17Z</time></trkpt>
<trkpt lat="50.731516" lon="5.946531"><time>2026-05-07T03:48:17Z</time></trkpt>
<trkpt lat="50.732570" lon="5.948555"><time>2026-05-07T03:58:17Z</time></trkpt>
<trkpt lat="50.734362" lon="5.951577"><time>2026-05-07T04:08:17Z</time></trkpt>
<trkpt lat="50.734681" lon="5.952069"><time>2026-05-07T04:18:17Z</time></trkpt>
<trkpt lat="50.736124" lon="5.954533"><time>2026-05-07T04:28:17Z</time></trkpt>
<trkpt lat="50.736404" lon="5.956173"><time>2026-05-07T04:38:17Z</time></trkpt>
<trkpt lat="50.736214" lon="5.958093"><time>2026-05-07T04:48:17Z</time></trkpt>
</trkseg>
</trk>
<trk>
<name>lpbmr1</name>
<cmt>r</cmt>
<desc>Moresnet Chemin n°1 Rue Foulerie</desc>
<link href="https://chemins.be/moresnet/chemin/1"/><trkseg>
<trkpt lat="50.719996" lon="5.985522"><time>2026-05-06T18:28:17Z</time></trkpt>
<trkpt lat="50.719755" lon="5.986393"><time>2026-05-06T18:38:17Z</time></trkpt>
<trkpt lat="50.719015" lon="5.986631"><time>2026-05-06T18:48:17Z</time></trkpt>
<trkpt lat="50.717257" lon="5.989039"><time>2026-05-06T18:58:17Z</time></trkpt>
</trkseg></trk>
<trk>
<name>lpbmr1</name>
<cmt>v</cmt>
<desc>Moresnet Chemin n°1 Rue Foulerie</desc>
<link href="https://chemins.be/moresnet/chemin/1"/><trkseg>
<trkpt lat="50.717257" lon="5.989039"><time>2026-05-06T18:58:17Z</time></trkpt>
<trkpt lat="50.716645" lon="5.988486"><time>2026-05-06T19:08:17Z</time></trkpt>
<trkpt lat="50.716459" lon="5.987878"><time>2026-05-06T19:18:17Z</time></trkpt>
<trkpt lat="50.715350" lon="5.986858"><time>2026-05-06T19:28:17Z</time></trkpt>
</trkseg></trk>
<trk>
<name>lpbmr1</name>
<cmt>r</cmt>
<desc>Moresnet Chemin n°1 Rue Foulerie</desc>
<link href="https://chemins.be/moresnet/chemin/1"/><trkseg>
<trkpt lat="50.715350" lon="5.986858"><time>2026-05-06T19:28:17Z</time></trkpt>
<trkpt lat="50.714595" lon="5.986071"><time>2026-05-06T19:38:17Z</time></trkpt>
<trkpt lat="50.712028" lon="5.984783"><time>2026-05-06T19:48:17Z</time></trkpt>
<trkpt lat="50.711092" lon="5.985165"><time>2026-05-06T19:58:17Z</time></trkpt>
<trkpt lat="50.708299" lon="5.984760"><time>2026-05-06T20:08:17Z</time></trkpt>
<trkpt lat="50.706125" lon="5.982781"><time>2026-05-06T20:18:17Z</time></trkpt>
<trkpt lat="50.704419" lon="5.982685"><time>2026-05-06T20:28:17Z</time></trkpt>
<trkpt lat="50.702833" lon="5.982113"><time>2026-05-06T20:38:17Z</time></trkpt>
</trkseg>
</trk>
<trk>
<name>lpbmr10</name>
<cmt>s</cmt>
<desc>Moresnet Chemin n°10 </desc>
<link href="https://chemins.be/moresnet/chemin/10"/><trkseg>
<trkpt lat="50.723555" lon="5.972155"><time>2026-05-06T18:28:17Z</time></trkpt>
<trkpt lat="50.722142" lon="5.970867"><time>2026-05-06T18:38:17Z</time></trkpt>
<trkpt lat="50.720901" lon="5.969351"><time>2026-05-06T18:48:17Z</time></trkpt>
<trkpt lat="50.719756" lon="5.968586"><time>2026-05-06T18:58:17Z</time></trkpt>
<trkpt lat="50.719322" lon="5.968533"><time>2026-05-06T19:08:17Z</time></trkpt>
</trkseg>
</trk>
<trk>
<name>lpbmr11</name>
<cmt>s</cmt>
<desc>Moresnet Chemin n°11 Avenue de l'Europe</desc>
<link href="https://chemins.be/moresnet/chemin/11"/><trkseg>
<trkpt lat="50.719965" lon="5.976922"><time>2026-05-06T18:28:17Z</time></trkpt>
<trkpt lat="50.718824" lon="5.974941"><time>2026-05-06T18:38:17Z</time></trkpt>
<trkpt lat="50.719113" lon="5.974118"><time>2026-05-06T18:48:17Z</time></trkpt>
<trkpt lat="50.718968" lon="5.972813"><time>2026-05-06T18:58:17Z</time></trkpt>
</trkseg></trk>
<trk>
<name>lpbmr11</name>
<cmt>r</cmt>
<desc>Moresnet Chemin n°11 Avenue de l'Europe</desc>
<link href="https://chemins.be/moresnet/chemin/11"/><trkseg>
<trkpt lat="50.718968" lon="5.972813"><time>2026-05-06T18:58:17Z</time></trkpt>
<trkpt lat="50.718049" lon="5.969802"><time>2026-05-06T19:08:17Z</time></trkpt>
<trkpt lat="50.717990" lon="5.969058"><time>2026-05-06T19:18:17Z</time></trkpt>
</trkseg>
</trk>
<trk>
<name>lpbmr12</name>
<cmt>r</cmt>
<desc>Moresnet Chemin n°12 Cosenbergerheydt</desc>
<link href="https://chemins.be/moresnet/chemin/12"/><trkseg>
<trkpt lat="50.706584" lon="5.978090"><time>2026-05-06T18:28:17Z</time></trkpt>
<trkpt lat="50.705914" lon="5.979892"><time>2026-05-06T18:38:17Z</time></trkpt>
<trkpt lat="50.706194" lon="5.981852"><time>2026-05-06T18:48:17Z</time></trkpt>
<trkpt lat="50.706122" lon="5.982681"><time>2026-05-06T18:58:17Z</time></trkpt>
</trkseg></trk>
<trk>
<name>lpbmr12</name>
<cmt>s</cmt>
<desc>Moresnet Chemin n°12 Cosenbergerheydt</desc>
<link href="https://chemins.be/moresnet/chemin/12"/><trkseg>
<trkpt lat="50.706122" lon="5.982681"><time>2026-05-06T18:58:17Z</time></trkpt>
<trkpt lat="50.706161" lon="5.983722"><time>2026-05-06T19:08:17Z</time></trkpt>
<trkpt lat="50.705908" lon="5.984008"><time>2026-05-06T19:18:17Z</time></trkpt>
<trkpt lat="50.705880" lon="5.985424"><time>2026-05-06T19:28:17Z</time></trkpt>
<trkpt lat="50.706057" lon="5.985804"><time>2026-05-06T19:38:17Z</time></trkpt>
<trkpt lat="50.706025" lon="5.988679"><time>2026-05-06T19:48:17Z</time></trkpt>
<trkpt lat="50.705350" lon="5.989065"><time>2026-05-06T19:58:17Z</time></trkpt>
</trkseg>
</trk>
<trk>
<name>lpbmr13</name>
<cmt>v</cmt>
<desc>Moresnet Chemin n°13 Rue d'Aix</desc>
<link href="https://chemins.be/moresnet/chemin/13"/><trkseg>
<trkpt lat="50.727046" lon="6.006280"><time>2026-05-06T18:28:17Z</time></trkpt>
<trkpt lat="50.727656" lon="6.005938"><time>2026-05-06T18:38:17Z</time></trkpt>
<trkpt lat="50.728535" lon="6.005965"><time>2026-05-06T18:48:17Z</time></trkpt>
<trkpt lat="50.729893" lon="6.006930"><time>2026-05-06T18:58:17Z</time></trkpt>
<trkpt lat="50.730242" lon="6.007073"><time>2026-05-06T19:08:17Z</time></trkpt>
<trkpt lat="50.730994" lon="6.007374"><time>2026-05-06T19:18:17Z</time></trkpt>
<trkpt lat="50.731931" lon="6.007124"><time>2026-05-06T19:28:17Z</time></trkpt>
<trkpt lat="50.732447" lon="6.006644"><time>2026-05-06T19:38:17Z</time></trkpt>
<trkpt lat="50.732537" lon="6.006272"><time>2026-05-06T19:48:17Z</time></trkpt>
<trkpt lat="50.732885" lon="6.006188"><time>2026-05-06T19:58:17Z</time></trkpt>
</trkseg></trk>
<trk>
<name>lpbmr13</name>
<cmt>r</cmt>
<desc>Moresnet Chemin n°13 Rue d'Aix</desc>
<link href="https://chemins.be/moresnet/chemin/13"/><trkseg>
<trkpt lat="50.732885" lon="6.006188"><time>2026-05-06T19:58:17Z</time></trkpt>
<trkpt lat="50.732754" lon="6.005745"><time>2026-05-06T20:08:17Z</time></trkpt>
</trkseg></trk>
<trk>
<name>lpbmr13</name>
<cmt>v</cmt>
<desc>Moresnet Chemin n°13 Rue d'Aix</desc>
<link href="https://chemins.be/moresnet/chemin/13"/><trkseg>
<trkpt lat="50.732754" lon="6.005745"><time>2026-05-06T20:08:17Z</time></trkpt>
<trkpt lat="50.733602" lon="6.004568"><time>2026-05-06T20:18:17Z</time></trkpt>
<trkpt lat="50.733986" lon="6.004608"><time>2026-05-06T20:28:17Z</time></trkpt>
<trkpt lat="50.734371" lon="6.004407"><time>2026-05-06T20:38:17Z</time></trkpt>
<trkpt lat="50.735212" lon="6.003427"><time>2026-05-06T20:48:17Z</time></trkpt>
</trkseg>
</trk>
<trk>
<name>lpbmr14</name>
<cmt>r</cmt>
<desc>Moresnet Chemin n°14 Rue du Viaduc</desc>
<link href="https://chemins.be/moresnet/chemin/14"/><trkseg>
<trkpt lat="50.718566" lon="5.997402"><time>2026-05-06T18:28:17Z</time></trkpt>
<trkpt lat="50.717173" lon="5.997521"><time>2026-05-06T18:38:17Z</time></trkpt>
<trkpt lat="50.716162" lon="5.998212"><time>2026-05-06T18:48:17Z</time></trkpt>
<trkpt lat="50.715568" lon="5.999780"><time>2026-05-06T18:58:17Z</time></trkpt>
<trkpt lat="50.715523" lon="6.000507"><time>2026-05-06T19:08:17Z</time></trkpt>
</trkseg>
</trk>
<trk>
<name>lpbmr15</name>
<cmt>r</cmt>
<desc>Moresnet Chemin n°15 Rott</desc>
<link href="https://chemins.be/moresnet/chemin/15"/><trkseg>
<trkpt lat="50.715585" lon="6.000316"><time>2026-05-06T18:28:17Z</time></trkpt>
<trkpt lat="50.715720" lon="6.000334"><time>2026-05-06T18:38:17Z</time></trkpt>
<trkpt lat="50.715936" lon="6.000760"><time>2026-05-06T18:48:17Z</time></trkpt>
</trkseg>
</trk>
<trk>
<name>lpbmr16</name>
<cmt>r</cmt>
<desc>Moresnet Chemin n°16 Rue du Viaduc</desc>
<link href="https://chemins.be/moresnet/chemin/16"/><trkseg>
<trkpt lat="50.714750" lon="6.000155"><time>2026-05-06T18:28:17Z</time></trkpt>
<trkpt lat="50.714205" lon="5.998939"><time>2026-05-06T18:38:17Z</time></trkpt>
<trkpt lat="50.714343" lon="5.998478"><time>2026-05-06T18:48:17Z</time></trkpt>
<trkpt lat="50.714409" lon="5.998026"><time>2026-05-06T18:58:17Z</time></trkpt>
<trkpt lat="50.714437" lon="5.997861"><time>2026-05-06T19:08:17Z</time></trkpt>
<trkpt lat="50.714340" lon="5.997677"><time>2026-05-06T19:18:17Z</time></trkpt>
</trkseg>
</trk>
<trk>
<name>lpbmr17</name>
<cmt>r</cmt>
<desc>Moresnet Chemin n°17 Rue de Bempt</desc>
<link href="https://chemins.be/moresnet/chemin/17"/><trkseg>
<trkpt lat="50.721390" lon="5.990316"><time>2026-05-06T18:28:17Z</time></trkpt>
<trkpt lat="50.721741" lon="5.989400"><time>2026-05-06T18:38:17Z</time></trkpt>
<trkpt lat="50.721946" lon="5.988962"><time>2026-05-06T18:48:17Z</time></trkpt>
</trkseg></trk>
<trk>
<name>lpbmr17</name>
<cmt>q</cmt>
<desc>Moresnet Chemin n°17 Rue de Bempt</desc>
<link href="https://chemins.be/moresnet/chemin/17"/><trkseg>
<trkpt lat="50.721946" lon="5.988962"><time>2026-05-06T18:48:17Z</time></trkpt>
<trkpt lat="50.722123" lon="5.988507"><time>2026-05-06T18:58:17Z</time></trkpt>
<trkpt lat="50.722162" lon="5.988149"><time>2026-05-06T19:08:17Z</time></trkpt>
<trkpt lat="50.722201" lon="5.987445"><time>2026-05-06T19:18:17Z</time></trkpt>
<trkpt lat="50.722226" lon="5.986883"><time>2026-05-06T19:28:17Z</time></trkpt>
</trkseg>
</trk>
<trk>
<name>lpbmr18</name>
<cmt>r</cmt>
<desc>Moresnet Chemin n°18 Buschhausen</desc>
<link href="https://chemins.be/moresnet/chemin/18"/><trkseg>
<trkpt lat="50.726268" lon="6.005925"><time>2026-05-06T18:28:17Z</time></trkpt>
<trkpt lat="50.726028" lon="6.006145"><time>2026-05-06T18:38:17Z</time></trkpt>
</trkseg>
</trk>
<trk>
<name>lpbmr19</name>
<cmt>r</cmt>
<desc>Moresnet Chemin n°19 Buschhausen</desc>
<link href="https://chemins.be/moresnet/chemin/19"/><trkseg>
<trkpt lat="50.726348" lon="6.005553"><time>2026-05-06T18:28:17Z</time></trkpt>
<trkpt lat="50.726279" lon="6.005923"><time>2026-05-06T18:38:17Z</time></trkpt>
<trkpt lat="50.726384" lon="6.006517"><time>2026-05-06T18:48:17Z</time></trkpt>
</trkseg>
</trk>
<trk>
<name>lpbmr2</name>
<cmt>r</cmt>
<desc>Moresnet Chemin n°2 Rue du Village / Rue de Montzen</desc>
<link href="https://chemins.be/moresnet/chemin/2"/><trkseg>
<trkpt lat="50.720120" lon="5.985713"><time>2026-05-06T18:28:17Z</time></trkpt>
<trkpt lat="50.718882" lon="5.982948"><time>2026-05-06T18:38:17Z</time></trkpt>
<trkpt lat="50.718535" lon="5.981231"><time>2026-05-06T18:48:17Z</time></trkpt>
<trkpt lat="50.717451" lon="5.980666"><time>2026-05-06T18:58:17Z</time></trkpt>
<trkpt lat="50.717312" lon="5.980496"><time>2026-05-06T19:08:17Z</time></trkpt>
<trkpt lat="50.716349" lon="5.979606"><time>2026-05-06T19:18:17Z</time></trkpt>
<trkpt lat="50.712675" lon="5.974975"><time>2026-05-06T19:28:17Z</time></trkpt>
<trkpt lat="50.712367" lon="5.973880"><time>2026-05-06T19:38:17Z</time></trkpt>
<trkpt lat="50.712145" lon="5.972085"><time>2026-05-06T19:48:17Z</time></trkpt>
</trkseg>
</trk>
<trk>
<name>lpbmr20</name>
<cmt>d</cmt>
<desc>Moresnet Chemin n°20 </desc>
<link href="https://chemins.be/moresnet/chemin/20"/><trkseg>
<trkpt lat="50.711609" lon="5.997988"><time>2026-05-06T18:28:17Z</time></trkpt>
<trkpt lat="50.711589" lon="5.997788"><time>2026-05-06T18:38:17Z</time></trkpt>
<trkpt lat="50.711306" lon="5.997720"><time>2026-05-06T18:48:17Z</time></trkpt>
<trkpt lat="50.710896" lon="5.997848"><time>2026-05-06T18:58:17Z</time></trkpt>
</trkseg></trk>
<trk>
<name>lpbmr20</name>
<cmt>v</cmt>
<desc>Moresnet Chemin n°20 </desc>
<link href="https://chemins.be/moresnet/chemin/20"/><trkseg>
<trkpt lat="50.710896" lon="5.997848"><time>2026-05-06T18:58:17Z</time></trkpt>
<trkpt lat="50.710592" lon="5.997462"><time>2026-05-06T19:08:17Z</time></trkpt>
</trkseg></trk>
<trk>
<name>lpbmr20</name>
<cmt>r</cmt>
<desc>Moresnet Chemin n°20 </desc>
<link href="https://chemins.be/moresnet/chemin/20"/><trkseg>
<trkpt lat="50.710592" lon="5.997462"><time>2026-05-06T19:08:17Z</time></trkpt>
<trkpt lat="50.710340" lon="5.997612"><time>2026-05-06T19:18:17Z</time></trkpt>
</trkseg></trk>
<trk>
<name>lpbmr20</name>
<cmt>s</cmt>
<desc>Moresnet Chemin n°20 </desc>
<link href="https://chemins.be/moresnet/chemin/20"/><trkseg>
<trkpt lat="50.710340" lon="5.997612"><time>2026-05-06T19:18:17Z</time></trkpt>
<trkpt lat="50.709487" lon="5.996618"><time>2026-05-06T19:28:17Z</time></trkpt>
<trkpt lat="50.709050" lon="5.996454"><time>2026-05-06T19:38:17Z</time></trkpt>
</trkseg>
</trk>
<trk>
<name>lpbmr21</name>
<cmt>r</cmt>
<desc>Moresnet Chemin n°21 Rue de la Coul</desc>
<link href="https://chemins.be/moresnet/chemin/21"/><trkseg>
<trkpt lat="50.729402" lon="5.991497"><time>2026-05-06T18:28:17Z</time></trkpt>
<trkpt lat="50.729494" lon="5.990994"><time>2026-05-06T18:38:17Z</time></trkpt>
</trkseg></trk>
<trk>
<name>lpbmr21</name>
<cmt>v</cmt>
<desc>Moresnet Chemin n°21 Rue de la Coul</desc>
<link href="https://chemins.be/moresnet/chemin/21"/><trkseg>
<trkpt lat="50.729494" lon="5.990994"><time>2026-05-06T18:38:17Z</time></trkpt>
<trkpt lat="50.729849" lon="5.989914"><time>2026-05-06T18:48:17Z</time></trkpt>
<trkpt lat="50.730716" lon="5.989345"><time>2026-05-06T18:58:17Z</time></trkpt>
<trkpt lat="50.730845" lon="5.988676"><time>2026-05-06T19:08:17Z</time></trkpt>
<trkpt lat="50.731139" lon="5.988533"><time>2026-05-06T19:18:17Z</time></trkpt>
<trkpt lat="50.732148" lon="5.988565"><time>2026-05-06T19:28:17Z</time></trkpt>
<trkpt lat="50.732164" lon="5.988973"><time>2026-05-06T19:38:17Z</time></trkpt>
</trkseg></trk>
<trk>
<name>lpbmr21</name>
<cmt>r</cmt>
<desc>Moresnet Chemin n°21 Rue de la Coul</desc>
<link href="https://chemins.be/moresnet/chemin/21"/><trkseg>
<trkpt lat="50.732164" lon="5.988973"><time>2026-05-06T19:38:17Z</time></trkpt>
<trkpt lat="50.732456" lon="5.988948"><time>2026-05-06T19:48:17Z</time></trkpt>
</trkseg></trk>
<trk>
<name>lpbmr21</name>
<cmt>v</cmt>
<desc>Moresnet Chemin n°21 Rue de la Coul</desc>
<link href="https://chemins.be/moresnet/chemin/21"/><trkseg>
<trkpt lat="50.732456" lon="5.988948"><time>2026-05-06T19:48:17Z</time></trkpt>
<trkpt lat="50.733591" lon="5.988380"><time>2026-05-06T19:58:17Z</time></trkpt>
<trkpt lat="50.734407" lon="5.988026"><time>2026-05-06T20:08:17Z</time></trkpt>
</trkseg>
</trk>
<trk>
<name>lpbmr22</name>
<cmt>r</cmt>
<desc>Moresnet Chemin n°22 Rue de la Coul</desc>
<link href="https://chemins.be/moresnet/chemin/22"/><trkseg>
<trkpt lat="50.732473" lon="5.988991"><time>2026-05-06T18:28:17Z</time></trkpt>
<trkpt lat="50.732775" lon="5.989206"><time>2026-05-06T18:38:17Z</time></trkpt>
<trkpt lat="50.733310" lon="5.990404"><time>2026-05-06T18:48:17Z</time></trkpt>
</trkseg>
</trk>
<trk>
<name>lpbmr23</name>
<cmt>r</cmt>
<desc>Moresnet Chemin n°23 Sier</desc>
<link href="https://chemins.be/moresnet/chemin/23"/><trkseg>
<trkpt lat="50.730247" lon="5.993798"><time>2026-05-06T18:28:17Z</time></trkpt>
<trkpt lat="50.729575" lon="5.993255"><time>2026-05-06T18:38:17Z</time></trkpt>
<trkpt lat="50.728963" lon="5.993412"><time>2026-05-06T18:48:17Z</time></trkpt>
<trkpt lat="50.728667" lon="5.993642"><time>2026-05-06T18:58:17Z</time></trkpt>
</trkseg></trk>
<trk>
<name>lpbmr23</name>
<cmt>v</cmt>
<desc>Moresnet Chemin n°23 Sier</desc>
<link href="https://chemins.be/moresnet/chemin/23"/><trkseg>
<trkpt lat="50.728667" lon="5.993642"><time>2026-05-06T18:58:17Z</time></trkpt>
<trkpt lat="50.728409" lon="5.993848"><time>2026-05-06T19:08:17Z</time></trkpt>
</trkseg></trk>
<trk>
<name>lpbmr23</name>
<cmt>q</cmt>
<desc>Moresnet Chemin n°23 Sier</desc>
<link href="https://chemins.be/moresnet/chemin/23"/><trkseg>
<trkpt lat="50.728409" lon="5.993848"><time>2026-05-06T19:08:17Z</time></trkpt>
<trkpt lat="50.728192" lon="5.993326"><time>2026-05-06T19:18:17Z</time></trkpt>
</trkseg>
</trk>
<trk>
<name>lpbmr24</name>
<cmt>v</cmt>
<desc>Moresnet Chemin n°24 </desc>
<link href="https://chemins.be/moresnet/chemin/24"/><trkseg>
<trkpt lat="50.731118" lon="5.977716"><time>2026-05-06T18:28:17Z</time></trkpt>
<trkpt lat="50.730951" lon="5.977858"><time>2026-05-06T18:38:17Z</time></trkpt>
</trkseg></trk>
<trk>
<name>lpbmr24</name>
<cmt>s</cmt>
<desc>Moresnet Chemin n°24 </desc>
<link href="https://chemins.be/moresnet/chemin/24"/><trkseg>
<trkpt lat="50.730951" lon="5.977858"><time>2026-05-06T18:38:17Z</time></trkpt>
<trkpt lat="50.730826" lon="5.977952"><time>2026-05-06T18:48:17Z</time></trkpt>
</trkseg>
</trk>
<trk>
<name>lpbmr25</name>
<cmt>s</cmt>
<desc>Moresnet Chemin n°25 </desc>
<link href="https://chemins.be/moresnet/chemin/25"/><trkseg>
<trkpt lat="50.731821" lon="5.982272"><time>2026-05-06T18:28:17Z</time></trkpt>
<trkpt lat="50.730739" lon="5.981700"><time>2026-05-06T18:38:17Z</time></trkpt>
</trkseg>
</trk>
<trk>
<name>lpbmr27</name>
<cmt>r</cmt>
<desc>Moresnet Chemin n°27 Rue de Bempt</desc>
<link href="https://chemins.be/moresnet/chemin/27"/><trkseg>
<trkpt lat="50.721173" lon="5.988872"><time>2026-05-06T18:28:17Z</time></trkpt>
<trkpt lat="50.721410" lon="5.989165"><time>2026-05-06T18:38:17Z</time></trkpt>
<trkpt lat="50.721739" lon="5.989401"><time>2026-05-06T18:48:17Z</time></trkpt>
</trkseg>
</trk>
<trk>
<name>lpbmr28</name>
<cmt>r</cmt>
<desc>Moresnet Chemin n°28 </desc>
<link href="https://chemins.be/moresnet/chemin/28"/><trkseg>
<trkpt lat="50.720605" lon="5.986707"><time>2026-05-06T18:28:17Z</time></trkpt>
<trkpt lat="50.720190" lon="5.987044"><time>2026-05-06T18:38:17Z</time></trkpt>
<trkpt lat="50.719667" lon="5.987602"><time>2026-05-06T18:48:17Z</time></trkpt>
<trkpt lat="50.719513" lon="5.987597"><time>2026-05-06T18:58:17Z</time></trkpt>
</trkseg></trk>
<trk>
<name>lpbmr28</name>
<cmt>s</cmt>
<desc>Moresnet Chemin n°28 </desc>
<link href="https://chemins.be/moresnet/chemin/28"/><trkseg>
<trkpt lat="50.719513" lon="5.987597"><time>2026-05-06T18:58:17Z</time></trkpt>
<trkpt lat="50.718966" lon="5.987359"><time>2026-05-06T19:08:17Z</time></trkpt>
</trkseg>
</trk>
<trk>
<name>lpbmr29</name>
<cmt>s</cmt>
<desc>Moresnet Chemin n°29 </desc>
<link href="https://chemins.be/moresnet/chemin/29"/><trkseg>
<trkpt lat="50.721433" lon="5.990360"><time>2026-05-06T18:28:17Z</time></trkpt>
<trkpt lat="50.722069" lon="5.990406"><time>2026-05-06T18:38:17Z</time></trkpt>
</trkseg>
</trk>
<trk>
<name>lpbmr3</name>
<cmt>r</cmt>
<desc>Moresnet Chemin n°3 Rue du Village</desc>
<link href="https://chemins.be/moresnet/chemin/3"/><trkseg>
<trkpt lat="50.720874" lon="5.987168"><time>2026-05-06T18:28:17Z</time></trkpt>
<trkpt lat="50.721105" lon="5.988163"><time>2026-05-06T18:38:17Z</time></trkpt>
<trkpt lat="50.721139" lon="5.988509"><time>2026-05-06T18:48:17Z</time></trkpt>
<trkpt lat="50.721222" lon="5.989593"><time>2026-05-06T18:58:17Z</time></trkpt>
<trkpt lat="50.721433" lon="5.990434"><time>2026-05-06T19:08:17Z</time></trkpt>
</trkseg></trk>
<trk>
<name>lpbmr3</name>
<cmt>s</cmt>
<desc>Moresnet Chemin n°3 Rue du Village</desc>
<link href="https://chemins.be/moresnet/chemin/3"/><trkseg>
<trkpt lat="50.721433" lon="5.990434"><time>2026-05-06T19:08:17Z</time></trkpt>
<trkpt lat="50.721471" lon="5.992234"><time>2026-05-06T19:18:17Z</time></trkpt>
<trkpt lat="50.721048" lon="5.993582"><time>2026-05-06T19:28:17Z</time></trkpt>
<trkpt lat="50.720197" lon="5.994619"><time>2026-05-06T19:38:17Z</time></trkpt>
</trkseg></trk>
<trk>
<name>lpbmr3</name>
<cmt>r</cmt>
<desc>Moresnet Chemin n°3 Rue du Village</desc>
<link href="https://chemins.be/moresnet/chemin/3"/><trkseg>
<trkpt lat="50.720197" lon="5.994619"><time>2026-05-06T19:38:17Z</time></trkpt>
<trkpt lat="50.719065" lon="5.996886"><time>2026-05-06T19:48:17Z</time></trkpt>
<trkpt lat="50.718589" lon="5.997394"><time>2026-05-06T19:58:17Z</time></trkpt>
<trkpt lat="50.718204" lon="5.999687"><time>2026-05-06T20:08:17Z</time></trkpt>
<trkpt lat="50.717806" lon="6.000305"><time>2026-05-06T20:18:17Z</time></trkpt>
<trkpt lat="50.717323" lon="6.001579"><time>2026-05-06T20:28:17Z</time></trkpt>
</trkseg>
</trk>
<trk>
<name>lpbmr30</name>
<cmt>s</cmt>
<desc>Moresnet Chemin n°30 </desc>
<link href="https://chemins.be/moresnet/chemin/30"/><trkseg>
<trkpt lat="50.718768" lon="5.974792"><time>2026-05-06T18:28:17Z</time></trkpt>
<trkpt lat="50.718095" lon="5.973911"><time>2026-05-06T18:38:17Z</time></trkpt>
<trkpt lat="50.717995" lon="5.973968"><time>2026-05-06T18:48:17Z</time></trkpt>
<trkpt lat="50.717855" lon="5.974790"><time>2026-05-06T18:58:17Z</time></trkpt>
<trkpt lat="50.717492" lon="5.975234"><time>2026-05-06T19:08:17Z</time></trkpt>
<trkpt lat="50.717249" lon="5.975111"><time>2026-05-06T19:18:17Z</time></trkpt>
<trkpt lat="50.716904" lon="5.974705"><time>2026-05-06T19:28:17Z</time></trkpt>
</trkseg>
</trk>
<trk>
<name>lpbmr31</name>
<cmt>r</cmt>
<desc>Moresnet Chemin n°31 </desc>
<link href="https://chemins.be/moresnet/chemin/31"/><trkseg>
<trkpt lat="50.709696" lon="5.984995"><time>2026-05-06T18:28:17Z</time></trkpt>
<trkpt lat="50.709576" lon="5.983826"><time>2026-05-06T18:38:17Z</time></trkpt>
<trkpt lat="50.709540" lon="5.982310"><time>2026-05-06T18:48:17Z</time></trkpt>
<trkpt lat="50.709193" lon="5.982020"><time>2026-05-06T18:58:17Z</time></trkpt>
<trkpt lat="50.709034" lon="5.982031"><time>2026-05-06T19:08:17Z</time></trkpt>
<trkpt lat="50.708905" lon="5.982245"><time>2026-05-06T19:18:17Z</time></trkpt>
</trkseg>
</trk>
<trk>
<name>lpbmr32</name>
<cmt>q</cmt>
<desc>Moresnet Sentier n°32 Sherwood Ring</desc>
<link href="https://chemins.be/moresnet/sentier/32"/><trkseg>
<trkpt lat="50.709588" lon="5.982899"><time>2026-05-06T18:28:17Z</time></trkpt>
<trkpt lat="50.710232" lon="5.982774"><time>2026-05-06T18:38:17Z</time></trkpt>
</trkseg></trk>
<trk>
<name>lpbmr32</name>
<cmt>v</cmt>
<desc>Moresnet Sentier n°32 Sherwood Ring</desc>
<link href="https://chemins.be/moresnet/sentier/32"/><trkseg>
<trkpt lat="50.710232" lon="5.982774"><time>2026-05-06T18:38:17Z</time></trkpt>
<trkpt lat="50.710544" lon="5.982318"><time>2026-05-06T18:48:17Z</time></trkpt>
</trkseg></trk>
<trk>
<name>lpbmr32</name>
<cmt>q</cmt>
<desc>Moresnet Sentier n°32 Sherwood Ring</desc>
<link href="https://chemins.be/moresnet/sentier/32"/><trkseg>
<trkpt lat="50.710544" lon="5.982318"><time>2026-05-06T18:48:17Z</time></trkpt>
<trkpt lat="50.710739" lon="5.981998"><time>2026-05-06T18:58:17Z</time></trkpt>
<trkpt lat="50.711274" lon="5.982867"><time>2026-05-06T19:08:17Z</time></trkpt>
</trkseg>
</trk>
<trk>
<name>lpbmr33</name>
<cmt>s</cmt>
<desc>Moresnet Chemin n°33 </desc>
<link href="https://chemins.be/moresnet/chemin/33"/><trkseg>
<trkpt lat="50.729907" lon="6.006945"><time>2026-05-06T18:28:17Z</time></trkpt>
<trkpt lat="50.730336" lon="6.005719"><time>2026-05-06T18:38:17Z</time></trkpt>
<trkpt lat="50.730437" lon="6.005378"><time>2026-05-06T18:48:17Z</time></trkpt>
<trkpt lat="50.729391" lon="6.002946"><time>2026-05-06T18:58:17Z</time></trkpt>
</trkseg>
</trk>
<trk>
<name>lpbmr34</name>
<cmt>s</cmt>
<desc>Moresnet Sentier n°34 </desc>
<link href="https://chemins.be/moresnet/sentier/34"/><trkseg>
<trkpt lat="50.730558" lon="6.000552"><time>2026-05-06T18:28:17Z</time></trkpt>
<trkpt lat="50.729824" lon="6.001596"><time>2026-05-06T18:38:17Z</time></trkpt>
<trkpt lat="50.728629" lon="6.002912"><time>2026-05-06T18:48:17Z</time></trkpt>
<trkpt lat="50.728180" lon="6.003919"><time>2026-05-06T18:58:17Z</time></trkpt>
<trkpt lat="50.727992" lon="6.004981"><time>2026-05-06T19:08:17Z</time></trkpt>
<trkpt lat="50.727914" lon="6.005945"><time>2026-05-06T19:18:17Z</time></trkpt>
</trkseg>
</trk>
<trk>
<name>lpbmr35</name>
<cmt>d</cmt>
<desc>Moresnet Chemin/sentier n°35 Rue du Panorama</desc>
<link href="https://chemins.be/moresnet/chemin/35"/><trkseg>
<trkpt lat="50.728428" lon="5.993871"><time>2026-05-06T18:28:17Z</time></trkpt>
<trkpt lat="50.728505" lon="5.994851"><time>2026-05-06T18:38:17Z</time></trkpt>
<trkpt lat="50.727706" lon="5.996750"><time>2026-05-06T18:48:17Z</time></trkpt>
<trkpt lat="50.727300" lon="5.997694"><time>2026-05-06T18:58:17Z</time></trkpt>
<trkpt lat="50.726507" lon="5.998855"><time>2026-05-06T19:08:17Z</time></trkpt>
<trkpt lat="50.725850" lon="5.999414"><time>2026-05-06T19:18:17Z</time></trkpt>
<trkpt lat="50.726215" lon="6.000129"><time>2026-05-06T19:28:17Z</time></trkpt>
</trkseg></trk>
<trk>
<name>lpbmr35</name>
<cmt>r</cmt>
<desc>Moresnet Chemin/sentier n°35 Rue du Panorama</desc>
<link href="https://chemins.be/moresnet/chemin/35"/><trkseg>
<trkpt lat="50.726215" lon="6.000129"><time>2026-05-06T19:28:17Z</time></trkpt>
<trkpt lat="50.725293" lon="5.999917"><time>2026-05-06T19:38:17Z</time></trkpt>
</trkseg></trk>
<trk>
<name>lpbmr35</name>
<cmt>s</cmt>
<desc>Moresnet Chemin/sentier n°35 Rue du Panorama</desc>
<link href="https://chemins.be/moresnet/chemin/35"/><trkseg>
<trkpt lat="50.725293" lon="5.999917"><time>2026-05-06T19:38:17Z</time></trkpt>
<trkpt lat="50.724285" lon="6.000798"><time>2026-05-06T19:48:17Z</time></trkpt>
<trkpt lat="50.724841" lon="6.002310"><time>2026-05-06T19:58:17Z</time></trkpt>
<trkpt lat="50.724325" lon="6.004627"><time>2026-05-06T20:08:17Z</time></trkpt>
<trkpt lat="50.724026" lon="6.005178"><time>2026-05-06T20:18:17Z</time></trkpt>
</trkseg>
</trk>
<trk>
<name>lpbmr36</name>
<cmt>s</cmt>
<desc>Moresnet Sentier n°36 </desc>
<link href="https://chemins.be/moresnet/sentier/36"/><trkseg>
<trkpt lat="50.721112" lon="5.988196"><time>2026-05-06T18:28:17Z</time></trkpt>
<trkpt lat="50.722145" lon="5.988117"><time>2026-05-06T18:38:17Z</time></trkpt>
<trkpt lat="50.725282" lon="5.989657"><time>2026-05-06T18:48:17Z</time></trkpt>
<trkpt lat="50.725613" lon="5.990108"><time>2026-05-06T18:58:17Z</time></trkpt>
<trkpt lat="50.726677" lon="5.990401"><time>2026-05-06T19:08:17Z</time></trkpt>
<trkpt lat="50.726881" lon="5.990236"><time>2026-05-06T19:18:17Z</time></trkpt>
<trkpt lat="50.728691" lon="5.991353"><time>2026-05-06T19:28:17Z</time></trkpt>
</trkseg></trk>
<trk>
<name>lpbmr36</name>
<cmt>r</cmt>
<desc>Moresnet Sentier n°36 </desc>
<link href="https://chemins.be/moresnet/sentier/36"/><trkseg>
<trkpt lat="50.728691" lon="5.991353"><time>2026-05-06T19:28:17Z</time></trkpt>
<trkpt lat="50.728968" lon="5.991278"><time>2026-05-06T19:38:17Z</time></trkpt>
<trkpt lat="50.729398" lon="5.991478"><time>2026-05-06T19:48:17Z</time></trkpt>
<trkpt lat="50.729475" lon="5.991031"><time>2026-05-06T19:58:17Z</time></trkpt>
</trkseg></trk>
<trk>
<name>lpbmr36</name>
<cmt>v</cmt>
<desc>Moresnet Sentier n°36 </desc>
<link href="https://chemins.be/moresnet/sentier/36"/><trkseg>
<trkpt lat="50.729475" lon="5.991031"><time>2026-05-06T19:58:17Z</time></trkpt>
<trkpt lat="50.729923" lon="5.989893"><time>2026-05-06T20:08:17Z</time></trkpt>
<trkpt lat="50.730761" lon="5.989385"><time>2026-05-06T20:18:17Z</time></trkpt>
</trkseg></trk>
<trk>
<name>lpbmr36</name>
<cmt>d</cmt>
<desc>Moresnet Sentier n°36 </desc>
<link href="https://chemins.be/moresnet/sentier/36"/><trkseg>
<trkpt lat="50.730761" lon="5.989385"><time>2026-05-06T20:18:17Z</time></trkpt>
<trkpt lat="50.732159" lon="5.988974"><time>2026-05-06T20:28:17Z</time></trkpt>
</trkseg>
</trk>
<trk>
<name>lpbmr37</name>
<cmt>s</cmt>
<desc>Moresnet Sentier n°37 </desc>
<link href="https://chemins.be/moresnet/sentier/37"/><trkseg>
<trkpt lat="50.721742" lon="5.991736"><time>2026-05-06T18:28:17Z</time></trkpt>
<trkpt lat="50.724397" lon="5.992382"><time>2026-05-06T18:38:17Z</time></trkpt>
<trkpt lat="50.726897" lon="5.991402"><time>2026-05-06T18:48:17Z</time></trkpt>
</trkseg>
</trk>
<trk>
<name>lpbmr37bis</name>
<cmt>v</cmt>
<desc>Moresnet Sentier n°37bis </desc>
<link href="https://chemins.be/moresnet/sentier/37bis"/><trkseg>
<trkpt lat="50.721488" lon="5.990502"><time>2026-05-06T18:28:17Z</time></trkpt>
<trkpt lat="50.722167" lon="5.991239"><time>2026-05-06T18:38:17Z</time></trkpt>
<trkpt lat="50.726863" lon="5.991424"><time>2026-05-06T18:48:17Z</time></trkpt>
<trkpt lat="50.728592" lon="5.991209"><time>2026-05-06T18:58:17Z</time></trkpt>
</trkseg>
</trk>
<trk>
<name>lpbmr38</name>
<cmt>d</cmt>
<desc>Moresnet Sentier n°38 </desc>
<link href="https://chemins.be/moresnet/sentier/38"/><trkseg>
<trkpt lat="50.731871" lon="5.984039"><time>2026-05-06T18:28:17Z</time></trkpt>
<trkpt lat="50.732862" lon="5.982301"><time>2026-05-06T18:38:17Z</time></trkpt>
<trkpt lat="50.733586" lon="5.981271"><time>2026-05-06T18:48:17Z</time></trkpt>
</trkseg>
</trk>
<trk>
<name>lpbmr39</name>
<cmt>s</cmt>
<desc>Moresnet Sentier n°39 </desc>
<link href="https://chemins.be/moresnet/sentier/39"/><trkseg>
<trkpt lat="50.722421" lon="5.986678"><time>2026-05-06T18:28:17Z</time></trkpt>
<trkpt lat="50.723567" lon="5.984082"><time>2026-05-06T18:38:17Z</time></trkpt>
<trkpt lat="50.724551" lon="5.981129"><time>2026-05-06T18:48:17Z</time></trkpt>
<trkpt lat="50.725574" lon="5.980171"><time>2026-05-06T18:58:17Z</time></trkpt>
<trkpt lat="50.725792" lon="5.979384"><time>2026-05-06T19:08:17Z</time></trkpt>
<trkpt lat="50.729233" lon="5.978125"><time>2026-05-06T19:18:17Z</time></trkpt>
<trkpt lat="50.729948" lon="5.978140"><time>2026-05-06T19:28:17Z</time></trkpt>
<trkpt lat="50.730386" lon="5.977415"><time>2026-05-06T19:38:17Z</time></trkpt>
<trkpt lat="50.730055" lon="5.976986"><time>2026-05-06T19:48:17Z</time></trkpt>
<trkpt lat="50.730405" lon="5.976498"><time>2026-05-06T19:58:17Z</time></trkpt>
</trkseg>
</trk>
<trk>
<name>lpbmr4</name>
<cmt>s</cmt>
<desc>Moresnet Chemin n°4 Rue du Village / Buschhausen</desc>
<link href="https://chemins.be/moresnet/chemin/4"/><trkseg>
<trkpt lat="50.721460" lon="5.992212"><time>2026-05-06T18:28:17Z</time></trkpt>
<trkpt lat="50.721904" lon="5.992541"><time>2026-05-06T18:38:17Z</time></trkpt>
</trkseg></trk>
<trk>
<name>lpbmr4</name>
<cmt>r</cmt>
<desc>Moresnet Chemin n°4 Rue du Village / Buschhausen</desc>
<link href="https://chemins.be/moresnet/chemin/4"/><trkseg>
<trkpt lat="50.721904" lon="5.992541"><time>2026-05-06T18:38:17Z</time></trkpt>
<trkpt lat="50.722216" lon="5.994387"><time>2026-05-06T18:48:17Z</time></trkpt>
<trkpt lat="50.722124" lon="5.996738"><time>2026-05-06T18:58:17Z</time></trkpt>
<trkpt lat="50.722323" lon="5.997210"><time>2026-05-06T19:08:17Z</time></trkpt>
<trkpt lat="50.723973" lon="5.999694"><time>2026-05-06T19:18:17Z</time></trkpt>
</trkseg></trk>
<trk>
<name>lpbmr4</name>
<cmt>s</cmt>
<desc>Moresnet Chemin n°4 Rue du Village / Buschhausen</desc>
<link href="https://chemins.be/moresnet/chemin/4"/><trkseg>
<trkpt lat="50.723973" lon="5.999694"><time>2026-05-06T19:18:17Z</time></trkpt>
<trkpt lat="50.724831" lon="6.002293"><time>2026-05-06T19:28:17Z</time></trkpt>
</trkseg></trk>
<trk>
<name>lpbmr4</name>
<cmt>r</cmt>
<desc>Moresnet Chemin n°4 Rue du Village / Buschhausen</desc>
<link href="https://chemins.be/moresnet/chemin/4"/><trkseg>
<trkpt lat="50.724831" lon="6.002293"><time>2026-05-06T19:28:17Z</time></trkpt>
<trkpt lat="50.725092" lon="6.003084"><time>2026-05-06T19:38:17Z</time></trkpt>
<trkpt lat="50.726359" lon="6.005487"><time>2026-05-06T19:48:17Z</time></trkpt>
</trkseg></trk>
<trk>
<name>lpbmr4</name>
<cmt>v</cmt>
<desc>Moresnet Chemin n°4 Rue du Village / Buschhausen</desc>
<link href="https://chemins.be/moresnet/chemin/4"/><trkseg>
<trkpt lat="50.726359" lon="6.005487"><time>2026-05-06T19:48:17Z</time></trkpt>
<trkpt lat="50.726773" lon="6.005841"><time>2026-05-06T19:58:17Z</time></trkpt>
<trkpt lat="50.727051" lon="6.006339"><time>2026-05-06T20:08:17Z</time></trkpt>
</trkseg></trk>
<trk>
<name>lpbmr4</name>
<cmt>q</cmt>
<desc>Moresnet Chemin n°4 Rue du Village / Buschhausen</desc>
<link href="https://chemins.be/moresnet/chemin/4"/><trkseg>
<trkpt lat="50.727051" lon="6.006339"><time>2026-05-06T20:08:17Z</time></trkpt>
<trkpt lat="50.728513" lon="6.007698"><time>2026-05-06T20:18:17Z</time></trkpt>
</trkseg>
</trk>
<trk>
<name>lpbmr40</name>
<cmt>s</cmt>
<desc>Moresnet Sentier n°40 </desc>
<link href="https://chemins.be/moresnet/sentier/40"/><trkseg>
<trkpt lat="50.729901" lon="5.989857"><time>2026-05-06T18:28:17Z</time></trkpt>
<trkpt lat="50.729520" lon="5.989786"><time>2026-05-06T18:38:17Z</time></trkpt>
<trkpt lat="50.728841" lon="5.990072"><time>2026-05-06T18:48:17Z</time></trkpt>
<trkpt lat="50.727452" lon="5.987931"><time>2026-05-06T18:58:17Z</time></trkpt>
<trkpt lat="50.727836" lon="5.985551"><time>2026-05-06T19:08:17Z</time></trkpt>
<trkpt lat="50.727226" lon="5.980836"><time>2026-05-06T19:18:17Z</time></trkpt>
<trkpt lat="50.724455" lon="5.976430"><time>2026-05-06T19:28:17Z</time></trkpt>
<trkpt lat="50.724405" lon="5.975690"><time>2026-05-06T19:38:17Z</time></trkpt>
<trkpt lat="50.724325" lon="5.975409"><time>2026-05-06T19:48:17Z</time></trkpt>
<trkpt lat="50.723920" lon="5.974785"><time>2026-05-06T19:58:17Z</time></trkpt>
<trkpt lat="50.721502" lon="5.974384"><time>2026-05-06T20:08:17Z</time></trkpt>
<trkpt lat="50.718820" lon="5.974956"><time>2026-05-06T20:18:17Z</time></trkpt>
<trkpt lat="50.718580" lon="5.974688"><time>2026-05-06T20:28:17Z</time></trkpt>
<trkpt lat="50.717772" lon="5.974091"><time>2026-05-06T20:38:17Z</time></trkpt>
<trkpt lat="50.717297" lon="5.974070"><time>2026-05-06T20:48:17Z</time></trkpt>
<trkpt lat="50.716417" lon="5.974169"><time>2026-05-06T20:58:17Z</time></trkpt>
<trkpt lat="50.716140" lon="5.974215"><time>2026-05-06T21:08:17Z</time></trkpt>
<trkpt lat="50.715433" lon="5.972792"><time>2026-05-06T21:18:17Z</time></trkpt>
</trkseg></trk>
<trk>
<name>lpbmr40</name>
<cmt>d</cmt>
<desc>Moresnet Sentier n°40 </desc>
<link href="https://chemins.be/moresnet/sentier/40"/><trkseg>
<trkpt lat="50.715433" lon="5.972792"><time>2026-05-06T21:18:17Z</time></trkpt>
<trkpt lat="50.715277" lon="5.972270"><time>2026-05-06T21:28:17Z</time></trkpt>
<trkpt lat="50.714430" lon="5.970824"><time>2026-05-06T21:38:17Z</time></trkpt>
</trkseg>
</trk>
<trk>
<name>lpbmr40bis</name>
<cmt>d</cmt>
<desc>Moresnet Sentier n°40bis </desc>
<link href="https://chemins.be/moresnet/sentier/40bis"/><trkseg>
<trkpt lat="50.725691" lon="5.985700"><time>2026-05-06T18:28:17Z</time></trkpt>
<trkpt lat="50.725962" lon="5.984155"><time>2026-05-06T18:38:17Z</time></trkpt>
<trkpt lat="50.727185" lon="5.980808"><time>2026-05-06T18:48:17Z</time></trkpt>
<trkpt lat="50.728018" lon="5.978562"><time>2026-05-06T18:58:17Z</time></trkpt>
<trkpt lat="50.727719" lon="5.976416"><time>2026-05-06T19:08:17Z</time></trkpt>
</trkseg>
</trk>
<trk>
<name>lpbmr41</name>
<cmt>d</cmt>
<desc>Moresnet Sentier n°41 </desc>
<link href="https://chemins.be/moresnet/sentier/41"/><trkseg>
<trkpt lat="50.718995" lon="5.980128"><time>2026-05-06T18:28:17Z</time></trkpt>
<trkpt lat="50.717738" lon="5.976761"><time>2026-05-06T18:38:17Z</time></trkpt>
</trkseg></trk>
<trk>
<name>lpbmr41</name>
<cmt>v</cmt>
<desc>Moresnet Sentier n°41 </desc>
<link href="https://chemins.be/moresnet/sentier/41"/><trkseg>
<trkpt lat="50.717738" lon="5.976761"><time>2026-05-06T18:38:17Z</time></trkpt>
<trkpt lat="50.717349" lon="5.976339"><time>2026-05-06T18:48:17Z</time></trkpt>
<trkpt lat="50.717244" lon="5.975549"><time>2026-05-06T18:58:17Z</time></trkpt>
</trkseg></trk>
<trk>
<name>lpbmr41</name>
<cmt>s</cmt>
<desc>Moresnet Sentier n°41 </desc>
<link href="https://chemins.be/moresnet/sentier/41"/><trkseg>
<trkpt lat="50.717244" lon="5.975549"><time>2026-05-06T18:58:17Z</time></trkpt>
<trkpt lat="50.716407" lon="5.974115"><time>2026-05-06T19:08:17Z</time></trkpt>
<trkpt lat="50.716316" lon="5.972598"><time>2026-05-06T19:18:17Z</time></trkpt>
</trkseg></trk>
<trk>
<name>lpbmr41</name>
<cmt>d</cmt>
<desc>Moresnet Sentier n°41 </desc>
<link href="https://chemins.be/moresnet/sentier/41"/><trkseg>
<trkpt lat="50.716316" lon="5.972598"><time>2026-05-06T19:18:17Z</time></trkpt>
<trkpt lat="50.715882" lon="5.970138"><time>2026-05-06T19:28:17Z</time></trkpt>
</trkseg>
</trk>
<trk>
<name>lpbmr41bis</name>
<cmt>d</cmt>
<desc>Moresnet Sentier n°41bis </desc>
<link href="https://chemins.be/moresnet/sentier/41bis"/><trkseg>
<trkpt lat="50.717295" lon="5.975638"><time>2026-05-06T18:28:17Z</time></trkpt>
<trkpt lat="50.716824" lon="5.975960"><time>2026-05-06T18:38:17Z</time></trkpt>
<trkpt lat="50.716384" lon="5.975817"><time>2026-05-06T18:48:17Z</time></trkpt>
<trkpt lat="50.715660" lon="5.974179"><time>2026-05-06T18:58:17Z</time></trkpt>
<trkpt lat="50.715420" lon="5.972806"><time>2026-05-06T19:08:17Z</time></trkpt>
</trkseg>
</trk>
<trk>
<name>lpbmr42</name>
<cmt>s</cmt>
<desc>Moresnet Sentier n°42 </desc>
<link href="https://chemins.be/moresnet/sentier/42"/><trkseg>
<trkpt lat="50.719357" lon="5.978426"><time>2026-05-06T18:28:17Z</time></trkpt>
<trkpt lat="50.719556" lon="5.974663"><time>2026-05-06T18:38:17Z</time></trkpt>
</trkseg></trk>
<trk>
<name>lpbmr42</name>
<cmt>d</cmt>
<desc>Moresnet Sentier n°42 </desc>
<link href="https://chemins.be/moresnet/sentier/42"/><trkseg>
<trkpt lat="50.719556" lon="5.974663"><time>2026-05-06T18:38:17Z</time></trkpt>
<trkpt lat="50.719466" lon="5.973104"><time>2026-05-06T18:48:17Z</time></trkpt>
<trkpt lat="50.718977" lon="5.969070"><time>2026-05-06T18:58:17Z</time></trkpt>
<trkpt lat="50.719013" lon="5.968441"><time>2026-05-06T19:08:17Z</time></trkpt>
</trkseg>
</trk>
<trk>
<name>lpbmr43</name>
<cmt>s</cmt>
<desc>Moresnet Sentier n°43 </desc>
<link href="https://chemins.be/moresnet/sentier/43"/><trkseg>
<trkpt lat="50.724257" lon="5.975439"><time>2026-05-06T18:28:17Z</time></trkpt>
<trkpt lat="50.724997" lon="5.974724"><time>2026-05-06T18:38:17Z</time></trkpt>
<trkpt lat="50.725221" lon="5.974515"><time>2026-05-06T18:48:17Z</time></trkpt>
</trkseg>
</trk>
<trk>
<name>lpbmr44</name>
<cmt>s</cmt>
<desc>Moresnet Sentier n°44 </desc>
<link href="https://chemins.be/moresnet/sentier/44"/><trkseg>
<trkpt lat="50.731204" lon="5.979099"><time>2026-05-06T18:28:17Z</time></trkpt>
<trkpt lat="50.730951" lon="5.978970"><time>2026-05-06T18:38:17Z</time></trkpt>
<trkpt lat="50.730111" lon="5.977901"><time>2026-05-06T18:48:17Z</time></trkpt>
</trkseg>
</trk>
<trk>
<name>lpbmr45</name>
<cmt>s</cmt>
<desc>Moresnet Chemin n°45 </desc>
<link href="https://chemins.be/moresnet/chemin/45"/><trkseg>
<trkpt lat="50.712786" lon="5.975035"><time>2026-05-06T18:28:17Z</time></trkpt>
<trkpt lat="50.711845" lon="5.974439"><time>2026-05-06T18:38:17Z</time></trkpt>
<trkpt lat="50.711193" lon="5.972654"><time>2026-05-06T18:48:17Z</time></trkpt>
</trkseg>
</trk>
<trk>
<name>lpbmr46</name>
<cmt>s</cmt>
<desc>Moresnet Sentier n°46 </desc>
<link href="https://chemins.be/moresnet/sentier/46"/><trkseg>
<trkpt lat="50.711846" lon="5.974427"><time>2026-05-06T18:28:17Z</time></trkpt>
<trkpt lat="50.711581" lon="5.973300"><time>2026-05-06T18:38:17Z</time></trkpt>
<trkpt lat="50.711210" lon="5.972619"><time>2026-05-06T18:48:17Z</time></trkpt>
</trkseg>
</trk>
<trk>
<name>lpbmr47</name>
<cmt>v</cmt>
<desc>Moresnet Sentier n°47 Bambusch / Sherwood Ring</desc>
<link href="https://chemins.be/moresnet/sentier/47"/><trkseg>
<trkpt lat="50.710484" lon="5.997262"><time>2026-05-06T18:28:17Z</time></trkpt>
<trkpt lat="50.710495" lon="5.997179"><time>2026-05-06T18:38:17Z</time></trkpt>
<trkpt lat="50.710544" lon="5.997073"><time>2026-05-06T18:48:17Z</time></trkpt>
<trkpt lat="50.710495" lon="5.996930"><time>2026-05-06T18:58:17Z</time></trkpt>
<trkpt lat="50.710575" lon="5.996696"><time>2026-05-06T19:08:17Z</time></trkpt>
</trkseg></trk>
<trk>
<name>lpbmr47</name>
<cmt>s</cmt>
<desc>Moresnet Sentier n°47 Bambusch / Sherwood Ring</desc>
<link href="https://chemins.be/moresnet/sentier/47"/><trkseg>
<trkpt lat="50.710575" lon="5.996696"><time>2026-05-06T19:08:17Z</time></trkpt>
<trkpt lat="50.710706" lon="5.995740"><time>2026-05-06T19:18:17Z</time></trkpt>
<trkpt lat="50.710630" lon="5.995386"><time>2026-05-06T19:28:17Z</time></trkpt>
<trkpt lat="50.710609" lon="5.994657"><time>2026-05-06T19:38:17Z</time></trkpt>
<trkpt lat="50.710521" lon="5.994283"><time>2026-05-06T19:48:17Z</time></trkpt>
<trkpt lat="50.710235" lon="5.993621"><time>2026-05-06T19:58:17Z</time></trkpt>
<trkpt lat="50.710080" lon="5.993133"><time>2026-05-06T20:08:17Z</time></trkpt>
<trkpt lat="50.709981" lon="5.992688"><time>2026-05-06T20:18:17Z</time></trkpt>
</trkseg></trk>
<trk>
<name>lpbmr47</name>
<cmt>v</cmt>
<desc>Moresnet Sentier n°47 Bambusch / Sherwood Ring</desc>
<link href="https://chemins.be/moresnet/sentier/47"/><trkseg>
<trkpt lat="50.709981" lon="5.992688"><time>2026-05-06T20:18:17Z</time></trkpt>
<trkpt lat="50.709991" lon="5.992343"><time>2026-05-06T20:28:17Z</time></trkpt>
<trkpt lat="50.709536" lon="5.990689"><time>2026-05-06T20:38:17Z</time></trkpt>
<trkpt lat="50.709795" lon="5.989748"><time>2026-05-06T20:48:17Z</time></trkpt>
<trkpt lat="50.710137" lon="5.986154"><time>2026-05-06T20:58:17Z</time></trkpt>
</trkseg></trk>
<trk>
<name>lpbmr47</name>
<cmt>b</cmt>
<desc>Moresnet Sentier n°47 Bambusch / Sherwood Ring</desc>
<link href="https://chemins.be/moresnet/sentier/47"/><trkseg>
<trkpt lat="50.710137" lon="5.986154"><time>2026-05-06T20:58:17Z</time></trkpt>
<trkpt lat="50.710154" lon="5.985703"><time>2026-05-06T21:08:17Z</time></trkpt>
</trkseg></trk>
<trk>
<name>lpbmr47</name>
<cmt>v</cmt>
<desc>Moresnet Sentier n°47 Bambusch / Sherwood Ring</desc>
<link href="https://chemins.be/moresnet/sentier/47"/><trkseg>
<trkpt lat="50.710154" lon="5.985703"><time>2026-05-06T21:08:17Z</time></trkpt>
<trkpt lat="50.710174" lon="5.985128"><time>2026-05-06T21:18:17Z</time></trkpt>
</trkseg></trk>
<trk>
<name>lpbmr47</name>
<cmt>s</cmt>
<desc>Moresnet Sentier n°47 Bambusch / Sherwood Ring</desc>
<link href="https://chemins.be/moresnet/sentier/47"/><trkseg>
<trkpt lat="50.710174" lon="5.985128"><time>2026-05-06T21:18:17Z</time></trkpt>
<trkpt lat="50.710078" lon="5.985063"><time>2026-05-06T21:28:17Z</time></trkpt>
<trkpt lat="50.710026" lon="5.984407"><time>2026-05-06T21:38:17Z</time></trkpt>
<trkpt lat="50.710125" lon="5.982928"><time>2026-05-06T21:48:17Z</time></trkpt>
</trkseg></trk>
<trk>
<name>lpbmr47</name>
<cmt>v</cmt>
<desc>Moresnet Sentier n°47 Bambusch / Sherwood Ring</desc>
<link href="https://chemins.be/moresnet/sentier/47"/><trkseg>
<trkpt lat="50.710125" lon="5.982928"><time>2026-05-06T21:48:17Z</time></trkpt>
<trkpt lat="50.710551" lon="5.982158"><time>2026-05-06T21:58:17Z</time></trkpt>
</trkseg></trk>
<trk>
<name>lpbmr47</name>
<cmt>d</cmt>
<desc>Moresnet Sentier n°47 Bambusch / Sherwood Ring</desc>
<link href="https://chemins.be/moresnet/sentier/47"/><trkseg>
<trkpt lat="50.710551" lon="5.982158"><time>2026-05-06T21:58:17Z</time></trkpt>
<trkpt lat="50.710563" lon="5.980204"><time>2026-05-06T22:08:17Z</time></trkpt>
<trkpt lat="50.710291" lon="5.977969"><time>2026-05-06T22:18:17Z</time></trkpt>
</trkseg></trk>
<trk>
<name>lpbmr47</name>
<cmt>v</cmt>
<desc>Moresnet Sentier n°47 Bambusch / Sherwood Ring</desc>
<link href="https://chemins.be/moresnet/sentier/47"/><trkseg>
<trkpt lat="50.710291" lon="5.977969"><time>2026-05-06T22:18:17Z</time></trkpt>
<trkpt lat="50.710370" lon="5.977370"><time>2026-05-06T22:28:17Z</time></trkpt>
<trkpt lat="50.710569" lon="5.976469"><time>2026-05-06T22:38:17Z</time></trkpt>
<trkpt lat="50.710623" lon="5.976122"><time>2026-05-06T22:48:17Z</time></trkpt>
</trkseg></trk>
<trk>
<name>lpbmr47</name>
<cmt>d</cmt>
<desc>Moresnet Sentier n°47 Bambusch / Sherwood Ring</desc>
<link href="https://chemins.be/moresnet/sentier/47"/><trkseg>
<trkpt lat="50.710623" lon="5.976122"><time>2026-05-06T22:48:17Z</time></trkpt>
<trkpt lat="50.710747" lon="5.974305"><time>2026-05-06T22:58:17Z</time></trkpt>
<trkpt lat="50.711180" lon="5.972595"><time>2026-05-06T23:08:17Z</time></trkpt>
</trkseg>
</trk>
<trk>
<name>lpbmr47bis</name>
<cmt>v</cmt>
<desc>Moresnet Sentier n°47bis </desc>
<link href="https://chemins.be/moresnet/sentier/47bis"/><trkseg>
<trkpt lat="50.710593" lon="5.996686"><time>2026-05-06T18:28:17Z</time></trkpt>
<trkpt lat="50.710266" lon="5.995696"><time>2026-05-06T18:38:17Z</time></trkpt>
</trkseg>
</trk>
<trk>
<name>lpbmr47quater</name>
<cmt>v</cmt>
<desc>Moresnet Sentier n°47quater </desc>
<link href="https://chemins.be/moresnet/sentier/47quater"/><trkseg>
<trkpt lat="50.710144" lon="5.986177"><time>2026-05-06T18:28:17Z</time></trkpt>
<trkpt lat="50.710437" lon="5.986210"><time>2026-05-06T18:38:17Z</time></trkpt>
<trkpt lat="50.710426" lon="5.985735"><time>2026-05-06T18:48:17Z</time></trkpt>
<trkpt lat="50.710150" lon="5.985706"><time>2026-05-06T18:58:17Z</time></trkpt>
</trkseg>
</trk>
<trk>
<name>lpbmr47quinquies</name>
<cmt>v</cmt>
<desc>Moresnet Sentier n°47quinquies Sherwood Ring</desc>
<link href="https://chemins.be/moresnet/sentier/47quinquies"/><trkseg>
<trkpt lat="50.709604" lon="5.983270"><time>2026-05-06T18:28:17Z</time></trkpt>
<trkpt lat="50.709903" lon="5.983234"><time>2026-05-06T18:38:17Z</time></trkpt>
<trkpt lat="50.710139" lon="5.982905"><time>2026-05-06T18:48:17Z</time></trkpt>
</trkseg>
</trk>
<trk>
<name>lpbmr47ter</name>
<cmt>v</cmt>
<desc>Moresnet Sentier n°47ter </desc>
<link href="https://chemins.be/moresnet/sentier/47ter"/><trkseg>
<trkpt lat="50.710608" lon="5.995030"><time>2026-05-06T18:28:17Z</time></trkpt>
<trkpt lat="50.710529" lon="5.994941"><time>2026-05-06T18:38:17Z</time></trkpt>
<trkpt lat="50.710199" lon="5.994408"><time>2026-05-06T18:48:17Z</time></trkpt>
<trkpt lat="50.709725" lon="5.993371"><time>2026-05-06T18:58:17Z</time></trkpt>
<trkpt lat="50.709773" lon="5.993067"><time>2026-05-06T19:08:17Z</time></trkpt>
<trkpt lat="50.709981" lon="5.992681"><time>2026-05-06T19:18:17Z</time></trkpt>
</trkseg>
</trk>
<trk>
<name>lpbmr48</name>
<cmt>v</cmt>
<desc>Moresnet Sentier n°48 Sherwood Ring</desc>
<link href="https://chemins.be/moresnet/sentier/48"/><trkseg>
<trkpt lat="50.707379" lon="5.977002"><time>2026-05-06T18:28:17Z</time></trkpt>
<trkpt lat="50.707937" lon="5.978032"><time>2026-05-06T18:38:17Z</time></trkpt>
<trkpt lat="50.708792" lon="5.979638"><time>2026-05-06T18:48:17Z</time></trkpt>
<trkpt lat="50.709421" lon="5.980736"><time>2026-05-06T18:58:17Z</time></trkpt>
<trkpt lat="50.709568" lon="5.981022"><time>2026-05-06T19:08:17Z</time></trkpt>
<trkpt lat="50.710003" lon="5.981997"><time>2026-05-06T19:18:17Z</time></trkpt>
<trkpt lat="50.710189" lon="5.982785"><time>2026-05-06T19:28:17Z</time></trkpt>
<trkpt lat="50.712048" lon="5.983064"><time>2026-05-06T19:38:17Z</time></trkpt>
<trkpt lat="50.712057" lon="5.984788"><time>2026-05-06T19:48:17Z</time></trkpt>
</trkseg>
</trk>
<trk>
<name>lpbmr49</name>
<cmt>s</cmt>
<desc>Moresnet Sentier n°49 </desc>
<link href="https://chemins.be/moresnet/sentier/49"/><trkseg>
<trkpt lat="50.709579" lon="5.982853"><time>2026-05-06T18:28:17Z</time></trkpt>
<trkpt lat="50.709108" lon="5.983872"><time>2026-05-06T18:38:17Z</time></trkpt>
<trkpt lat="50.708340" lon="5.984738"><time>2026-05-06T18:48:17Z</time></trkpt>
</trkseg></trk>
<trk>
<name>lpbmr49</name>
<cmt>d</cmt>
<desc>Moresnet Sentier n°49 </desc>
<link href="https://chemins.be/moresnet/sentier/49"/><trkseg>
<trkpt lat="50.708340" lon="5.984738"><time>2026-05-06T18:48:17Z</time></trkpt>
<trkpt lat="50.706043" lon="5.986691"><time>2026-05-06T18:58:17Z</time></trkpt>
<trkpt lat="50.704716" lon="5.987034"><time>2026-05-06T19:08:17Z</time></trkpt>
</trkseg>
</trk>
<trk>
<name>lpbmr5</name>
<cmt>v</cmt>
<desc>Moresnet Chemin n°5 </desc>
<link href="https://chemins.be/moresnet/chemin/5"/><trkseg>
<trkpt lat="50.734163" lon="5.984128"><time>2026-05-06T18:28:17Z</time></trkpt>
<trkpt lat="50.732683" lon="5.982082"><time>2026-05-06T18:38:17Z</time></trkpt>
<trkpt lat="50.731849" lon="5.980843"><time>2026-05-06T18:48:17Z</time></trkpt>
<trkpt lat="50.731786" lon="5.979985"><time>2026-05-06T18:58:17Z</time></trkpt>
<trkpt lat="50.731297" lon="5.979324"><time>2026-05-06T19:08:17Z</time></trkpt>
<trkpt lat="50.731234" lon="5.979127"><time>2026-05-06T19:18:17Z</time></trkpt>
</trkseg></trk>
<trk>
<name>lpbmr5</name>
<cmt>s</cmt>
<desc>Moresnet Chemin n°5 </desc>
<link href="https://chemins.be/moresnet/chemin/5"/><trkseg>
<trkpt lat="50.731234" lon="5.979127"><time>2026-05-06T19:18:17Z</time></trkpt>
<trkpt lat="50.730815" lon="5.977962"><time>2026-05-06T19:28:17Z</time></trkpt>
<trkpt lat="50.729707" lon="5.976643"><time>2026-05-06T19:38:17Z</time></trkpt>
<trkpt lat="50.729304" lon="5.975077"><time>2026-05-06T19:48:17Z</time></trkpt>
</trkseg>
</trk>
<trk>
<name>lpbmr50</name>
<cmt>v</cmt>
<desc>Moresnet Sentier n°50 </desc>
<link href="https://chemins.be/moresnet/sentier/50"/><trkseg>
<trkpt lat="50.719632" lon="5.987640"><time>2026-05-06T18:28:17Z</time></trkpt>
<trkpt lat="50.719131" lon="5.988184"><time>2026-05-06T18:38:17Z</time></trkpt>
<trkpt lat="50.718831" lon="5.989104"><time>2026-05-06T18:48:17Z</time></trkpt>
<trkpt lat="50.718789" lon="5.989211"><time>2026-05-06T18:58:17Z</time></trkpt>
<trkpt lat="50.718175" lon="5.989855"><time>2026-05-06T19:08:17Z</time></trkpt>
<trkpt lat="50.717725" lon="5.989422"><time>2026-05-06T19:18:17Z</time></trkpt>
<trkpt lat="50.717442" lon="5.988879"><time>2026-05-06T19:28:17Z</time></trkpt>
</trkseg></trk>
<trk>
<name>lpbmr50</name>
<cmt>r</cmt>
<desc>Moresnet Sentier n°50 </desc>
<link href="https://chemins.be/moresnet/sentier/50"/><trkseg>
<trkpt lat="50.717442" lon="5.988879"><time>2026-05-06T19:28:17Z</time></trkpt>
<trkpt lat="50.716959" lon="5.989517"><time>2026-05-06T19:38:17Z</time></trkpt>
</trkseg></trk>
<trk>
<name>lpbmr50</name>
<cmt>d</cmt>
<desc>Moresnet Sentier n°50 </desc>
<link href="https://chemins.be/moresnet/sentier/50"/><trkseg>
<trkpt lat="50.716959" lon="5.989517"><time>2026-05-06T19:38:17Z</time></trkpt>
<trkpt lat="50.715680" lon="5.990524"><time>2026-05-06T19:48:17Z</time></trkpt>
<trkpt lat="50.712963" lon="5.991955"><time>2026-05-06T19:58:17Z</time></trkpt>
<trkpt lat="50.712601" lon="5.992205"><time>2026-05-06T20:08:17Z</time></trkpt>
<trkpt lat="50.712351" lon="5.992541"><time>2026-05-06T20:18:17Z</time></trkpt>
<trkpt lat="50.712392" lon="5.992856"><time>2026-05-06T20:28:17Z</time></trkpt>
<trkpt lat="50.711781" lon="5.993750"><time>2026-05-06T20:38:17Z</time></trkpt>
<trkpt lat="50.711061" lon="5.993956"><time>2026-05-06T20:48:17Z</time></trkpt>
<trkpt lat="50.710588" lon="5.994665"><time>2026-05-06T20:58:17Z</time></trkpt>
<trkpt lat="50.710522" lon="5.994693"><time>2026-05-06T21:08:17Z</time></trkpt>
</trkseg></trk>
<trk>
<name>lpbmr50</name>
<cmt>v</cmt>
<desc>Moresnet Sentier n°50 </desc>
<link href="https://chemins.be/moresnet/sentier/50"/><trkseg>
<trkpt lat="50.710522" lon="5.994693"><time>2026-05-06T21:08:17Z</time></trkpt>
<trkpt lat="50.710403" lon="5.994699"><time>2026-05-06T21:18:17Z</time></trkpt>
<trkpt lat="50.710198" lon="5.994411"><time>2026-05-06T21:28:17Z</time></trkpt>
<trkpt lat="50.709729" lon="5.993349"><time>2026-05-06T21:38:17Z</time></trkpt>
</trkseg></trk>
<trk>
<name>lpbmr50</name>
<cmt>d</cmt>
<desc>Moresnet Sentier n°50 </desc>
<link href="https://chemins.be/moresnet/sentier/50"/><trkseg>
<trkpt lat="50.709729" lon="5.993349"><time>2026-05-06T21:38:17Z</time></trkpt>
<trkpt lat="50.709181" lon="5.994036"><time>2026-05-06T21:48:17Z</time></trkpt>
<trkpt lat="50.708592" lon="5.994430"><time>2026-05-06T21:58:17Z</time></trkpt>
<trkpt lat="50.708275" lon="5.994437"><time>2026-05-06T22:08:17Z</time></trkpt>
<trkpt lat="50.707528" lon="5.995102"><time>2026-05-06T22:18:17Z</time></trkpt>
</trkseg>
</trk>
<trk>
<name>lpbmr51</name>
<cmt>d</cmt>
<desc>Moresnet Sentier n°51 </desc>
<link href="https://chemins.be/moresnet/sentier/51"/><trkseg>
<trkpt lat="50.710165" lon="5.985846"><time>2026-05-06T18:28:17Z</time></trkpt>
<trkpt lat="50.711231" lon="5.989966"><time>2026-05-06T18:38:17Z</time></trkpt>
<trkpt lat="50.712052" lon="5.991254"><time>2026-05-06T18:48:17Z</time></trkpt>
<trkpt lat="50.712940" lon="5.991948"><time>2026-05-06T18:58:17Z</time></trkpt>
</trkseg>
</trk>
<trk>
<name>lpbmr52</name>
<cmt>r</cmt>
<desc>Moresnet Sentier n°52 </desc>
<link href="https://chemins.be/moresnet/sentier/52"/><trkseg>
<trkpt lat="50.721623" lon="5.991240"><time>2026-05-06T18:28:17Z</time></trkpt>
<trkpt lat="50.722008" lon="5.992770"><time>2026-05-06T18:38:17Z</time></trkpt>
<trkpt lat="50.722266" lon="5.994759"><time>2026-05-06T18:48:17Z</time></trkpt>
<trkpt lat="50.722108" lon="5.996582"><time>2026-05-06T18:58:17Z</time></trkpt>
<trkpt lat="50.722207" lon="5.997090"><time>2026-05-06T19:08:17Z</time></trkpt>
</trkseg></trk>
<trk>
<name>lpbmr52</name>
<cmt>s</cmt>
<desc>Moresnet Sentier n°52 </desc>
<link href="https://chemins.be/moresnet/sentier/52"/><trkseg>
<trkpt lat="50.722207" lon="5.997090"><time>2026-05-06T19:08:17Z</time></trkpt>
<trkpt lat="50.722026" lon="5.998456"><time>2026-05-06T19:18:17Z</time></trkpt>
</trkseg></trk>
<trk>
<name>lpbmr52</name>
<cmt>q</cmt>
<desc>Moresnet Sentier n°52 </desc>
<link href="https://chemins.be/moresnet/sentier/52"/><trkseg>
<trkpt lat="50.722026" lon="5.998456"><time>2026-05-06T19:18:17Z</time></trkpt>
<trkpt lat="50.721743" lon="6.000540"><time>2026-05-06T19:28:17Z</time></trkpt>
</trkseg></trk>
<trk>
<name>lpbmr52</name>
<cmt>v</cmt>
<desc>Moresnet Sentier n°52 </desc>
<link href="https://chemins.be/moresnet/sentier/52"/><trkseg>
<trkpt lat="50.721743" lon="6.000540"><time>2026-05-06T19:28:17Z</time></trkpt>
<trkpt lat="50.721888" lon="6.001663"><time>2026-05-06T19:38:17Z</time></trkpt>
<trkpt lat="50.721721" lon="6.003553"><time>2026-05-06T19:48:17Z</time></trkpt>
<trkpt lat="50.721694" lon="6.003858"><time>2026-05-06T19:58:17Z</time></trkpt>
</trkseg>
</trk>
<trk>
<name>lpbmr53</name>
<cmt>v</cmt>
<desc>Moresnet Sentier n°53 </desc>
<link href="https://chemins.be/moresnet/sentier/53"/><trkseg>
<trkpt lat="50.718121" lon="5.990122"><time>2026-05-06T18:28:17Z</time></trkpt>
<trkpt lat="50.718542" lon="5.990355"><time>2026-05-06T18:38:17Z</time></trkpt>
</trkseg></trk>
<trk>
<name>lpbmr53</name>
<cmt>d</cmt>
<desc>Moresnet Sentier n°53 </desc>
<link href="https://chemins.be/moresnet/sentier/53"/><trkseg>
<trkpt lat="50.718542" lon="5.990355"><time>2026-05-06T18:38:17Z</time></trkpt>
<trkpt lat="50.719217" lon="5.992411"><time>2026-05-06T18:48:17Z</time></trkpt>
<trkpt lat="50.720425" lon="5.994354"><time>2026-05-06T18:58:17Z</time></trkpt>
</trkseg></trk>
<trk>
<name>lpbmr53</name>
<cmt>s</cmt>
<desc>Moresnet Sentier n°53 </desc>
<link href="https://chemins.be/moresnet/sentier/53"/><trkseg>
<trkpt lat="50.720425" lon="5.994354"><time>2026-05-06T18:58:17Z</time></trkpt>
<trkpt lat="50.720832" lon="5.993868"><time>2026-05-06T19:08:17Z</time></trkpt>
<trkpt lat="50.722055" lon="5.996500"><time>2026-05-06T19:18:17Z</time></trkpt>
</trkseg>
</trk>
<trk>
<name>lpbmr54</name>
<cmt>v</cmt>
<desc>Moresnet Sentier n°54 Rue du Village</desc>
<link href="https://chemins.be/moresnet/sentier/54"/><trkseg>
<trkpt lat="50.721087" lon="5.988571"><time>2026-05-06T18:28:17Z</time></trkpt>
<trkpt lat="50.720867" lon="5.988639"><time>2026-05-06T18:38:17Z</time></trkpt>
<trkpt lat="50.720716" lon="5.988871"><time>2026-05-06T18:48:17Z</time></trkpt>
<trkpt lat="50.720553" lon="5.988946"><time>2026-05-06T18:58:17Z</time></trkpt>
<trkpt lat="50.719397" lon="5.989165"><time>2026-05-06T19:08:17Z</time></trkpt>
<trkpt lat="50.718796" lon="5.989172"><time>2026-05-06T19:18:17Z</time></trkpt>
<trkpt lat="50.718195" lon="5.989851"><time>2026-05-06T19:28:17Z</time></trkpt>
<trkpt lat="50.718125" lon="5.990126"><time>2026-05-06T19:38:17Z</time></trkpt>
<trkpt lat="50.718131" lon="5.992389"><time>2026-05-06T19:48:17Z</time></trkpt>
<trkpt lat="50.718206" lon="5.994591"><time>2026-05-06T19:58:17Z</time></trkpt>
</trkseg></trk>
<trk>
<name>lpbmr54</name>
<cmt>d</cmt>
<desc>Moresnet Sentier n°54 Rue du Village</desc>
<link href="https://chemins.be/moresnet/sentier/54"/><trkseg>
<trkpt lat="50.718206" lon="5.994591"><time>2026-05-06T19:58:17Z</time></trkpt>
<trkpt lat="50.718178" lon="5.996034"><time>2026-05-06T20:08:17Z</time></trkpt>
</trkseg></trk>
<trk>
<name>lpbmr54</name>
<cmt>v</cmt>
<desc>Moresnet Sentier n°54 Rue du Village</desc>
<link href="https://chemins.be/moresnet/sentier/54"/><trkseg>
<trkpt lat="50.718178" lon="5.996034"><time>2026-05-06T20:08:17Z</time></trkpt>
<trkpt lat="50.718628" lon="5.997240"><time>2026-05-06T20:18:17Z</time></trkpt>
</trkseg>
</trk>
<trk>
<name>lpbmr54bis</name>
<cmt>v</cmt>
<desc>Moresnet Sentier n°54bis </desc>
<link href="https://chemins.be/moresnet/sentier/54bis"/><trkseg>
<trkpt lat="50.718212" lon="5.994662"><time>2026-05-06T18:28:17Z</time></trkpt>
<trkpt lat="50.717980" lon="5.994674"><time>2026-05-06T18:38:17Z</time></trkpt>
<trkpt lat="50.717809" lon="5.995438"><time>2026-05-06T18:48:17Z</time></trkpt>
<trkpt lat="50.718173" lon="5.996015"><time>2026-05-06T18:58:17Z</time></trkpt>
</trkseg>
</trk>
<trk>
<name>lpbmr55</name>
<cmt>r</cmt>
<desc>Moresnet Sentier n°55 </desc>
<link href="https://chemins.be/moresnet/sentier/55"/><trkseg>
<trkpt lat="50.721417" lon="5.990424"><time>2026-05-06T18:28:17Z</time></trkpt>
<trkpt lat="50.720206" lon="5.990989"><time>2026-05-06T18:38:17Z</time></trkpt>
<trkpt lat="50.719651" lon="5.991626"><time>2026-05-06T18:48:17Z</time></trkpt>
</trkseg></trk>
<trk>
<name>lpbmr55</name>
<cmt>d</cmt>
<desc>Moresnet Sentier n°55 </desc>
<link href="https://chemins.be/moresnet/sentier/55"/><trkseg>
<trkpt lat="50.719651" lon="5.991626"><time>2026-05-06T18:48:17Z</time></trkpt>
<trkpt lat="50.719135" lon="5.992354"><time>2026-05-06T18:58:17Z</time></trkpt>
</trkseg></trk>
<trk>
<name>lpbmr55</name>
<cmt>v</cmt>
<desc>Moresnet Sentier n°55 </desc>
<link href="https://chemins.be/moresnet/sentier/55"/><trkseg>
<trkpt lat="50.719135" lon="5.992354"><time>2026-05-06T18:58:17Z</time></trkpt>
<trkpt lat="50.718719" lon="5.992869"><time>2026-05-06T19:08:17Z</time></trkpt>
<trkpt lat="50.718221" lon="5.994642"><time>2026-05-06T19:18:17Z</time></trkpt>
</trkseg>
</trk>
<trk>
<name>lpbmr55bis</name>
<cmt>v</cmt>
<desc>Moresnet Sentier n°55bis </desc>
<link href="https://chemins.be/moresnet/sentier/55bis"/><trkseg>
<trkpt lat="50.719557" lon="5.991738"><time>2026-05-06T18:28:17Z</time></trkpt>
<trkpt lat="50.718950" lon="5.991502"><time>2026-05-06T18:38:17Z</time></trkpt>
<trkpt lat="50.718905" lon="5.991660"><time>2026-05-06T18:48:17Z</time></trkpt>
<trkpt lat="50.719131" lon="5.992311"><time>2026-05-06T18:58:17Z</time></trkpt>
</trkseg>
</trk>
<trk>
<name>lpbmr56</name>
<cmt>d</cmt>
<desc>Moresnet Sentier n°56 </desc>
<link href="https://chemins.be/moresnet/sentier/56"/><trkseg>
<trkpt lat="50.714448" lon="5.997899"><time>2026-05-06T18:28:17Z</time></trkpt>
<trkpt lat="50.714779" lon="5.997190"><time>2026-05-06T18:38:17Z</time></trkpt>
<trkpt lat="50.715997" lon="5.996634"><time>2026-05-06T18:48:17Z</time></trkpt>
</trkseg></trk>
<trk>
<name>lpbmr56</name>
<cmt>v</cmt>
<desc>Moresnet Sentier n°56 </desc>
<link href="https://chemins.be/moresnet/sentier/56"/><trkseg>
<trkpt lat="50.715997" lon="5.996634"><time>2026-05-06T18:48:17Z</time></trkpt>
<trkpt lat="50.716143" lon="5.996443"><time>2026-05-06T18:58:17Z</time></trkpt>
<trkpt lat="50.716292" lon="5.994887"><time>2026-05-06T19:08:17Z</time></trkpt>
<trkpt lat="50.716984" lon="5.994601"><time>2026-05-06T19:18:17Z</time></trkpt>
<trkpt lat="50.717818" lon="5.993621"><time>2026-05-06T19:28:17Z</time></trkpt>
<trkpt lat="50.718098" lon="5.992451"><time>2026-05-06T19:38:17Z</time></trkpt>
</trkseg>
</trk>
<trk>
<name>lpbmr57</name>
<cmt>v</cmt>
<desc>Moresnet Sentier n°57 Heide</desc>
<link href="https://chemins.be/moresnet/sentier/57"/><trkseg>
<trkpt lat="50.715925" lon="5.996654"><time>2026-05-06T18:28:17Z</time></trkpt>
<trkpt lat="50.715639" lon="5.996225"><time>2026-05-06T18:38:17Z</time></trkpt>
<trkpt lat="50.714637" lon="5.995755"><time>2026-05-06T18:48:17Z</time></trkpt>
<trkpt lat="50.714392" lon="5.995191"><time>2026-05-06T18:58:17Z</time></trkpt>
<trkpt lat="50.714239" lon="5.995202"><time>2026-05-06T19:08:17Z</time></trkpt>
</trkseg></trk>
<trk>
<name>lpbmr57</name>
<cmt>d</cmt>
<desc>Moresnet Sentier n°57 Heide</desc>
<link href="https://chemins.be/moresnet/sentier/57"/><trkseg>
<trkpt lat="50.714239" lon="5.995202"><time>2026-05-06T19:08:17Z</time></trkpt>
<trkpt lat="50.714039" lon="5.995266"><time>2026-05-06T19:18:17Z</time></trkpt>
<trkpt lat="50.713194" lon="5.994766"><time>2026-05-06T19:28:17Z</time></trkpt>
<trkpt lat="50.712908" lon="5.994766"><time>2026-05-06T19:38:17Z</time></trkpt>
<trkpt lat="50.711540" lon="5.997900"><time>2026-05-06T19:48:17Z</time></trkpt>
</trkseg></trk>
<trk>
<name>lpbmr57</name>
<cmt>v</cmt>
<desc>Moresnet Sentier n°57 Heide</desc>
<link href="https://chemins.be/moresnet/sentier/57"/><trkseg>
<trkpt lat="50.711540" lon="5.997900"><time>2026-05-06T19:48:17Z</time></trkpt>
<trkpt lat="50.711337" lon="5.997911"><time>2026-05-06T19:58:17Z</time></trkpt>
<trkpt lat="50.711174" lon="5.997873"><time>2026-05-06T20:08:17Z</time></trkpt>
<trkpt lat="50.710953" lon="5.997970"><time>2026-05-06T20:18:17Z</time></trkpt>
</trkseg>
</trk>
<trk>
<name>lpbmr58</name>
<cmt>s</cmt>
<desc>Moresnet Sentier n°58 </desc>
<link href="https://chemins.be/moresnet/sentier/58"/><trkseg>
<trkpt lat="50.716047" lon="5.998449"><time>2026-05-06T18:28:17Z</time></trkpt>
<trkpt lat="50.715232" lon="5.998285"><time>2026-05-06T18:38:17Z</time></trkpt>
<trkpt lat="50.714471" lon="5.997848"><time>2026-05-06T18:48:17Z</time></trkpt>
</trkseg>
</trk>
<trk>
<name>lpbmr59</name>
<cmt>s</cmt>
<desc>Moresnet Sentier n°59 </desc>
<link href="https://chemins.be/moresnet/sentier/59"/><trkseg>
<trkpt lat="50.718823" lon="5.989085"><time>2026-05-06T18:28:17Z</time></trkpt>
<trkpt lat="50.719784" lon="5.987940"><time>2026-05-06T18:38:17Z</time></trkpt>
</trkseg></trk>
<trk>
<name>lpbmr59</name>
<cmt>q</cmt>
<desc>Moresnet Sentier n°59 </desc>
<link href="https://chemins.be/moresnet/sentier/59"/><trkseg>
<trkpt lat="50.719784" lon="5.987940"><time>2026-05-06T18:38:17Z</time></trkpt>
<trkpt lat="50.720137" lon="5.987461"><time>2026-05-06T18:48:17Z</time></trkpt>
</trkseg></trk>
<trk>
<name>lpbmr59</name>
<cmt>v</cmt>
<desc>Moresnet Sentier n°59 </desc>
<link href="https://chemins.be/moresnet/sentier/59"/><trkseg>
<trkpt lat="50.720137" lon="5.987461"><time>2026-05-06T18:48:17Z</time></trkpt>
<trkpt lat="50.720779" lon="5.987197"><time>2026-05-06T18:58:17Z</time></trkpt>
</trkseg>
</trk>
<trk>
<name>lpbmr59bis</name>
<cmt>d</cmt>
<desc>Moresnet Sentier n°59bis </desc>
<link href="https://chemins.be/moresnet/sentier/59bis"/><trkseg>
<trkpt lat="50.719673" lon="5.987627"><time>2026-05-06T18:28:17Z</time></trkpt>
<trkpt lat="50.719788" lon="5.987924"><time>2026-05-06T18:38:17Z</time></trkpt>
</trkseg>
</trk>
<trk>
<name>lpbmr5bis</name>
<cmt>v</cmt>
<desc>Moresnet Chemin n°5bis </desc>
<link href="https://chemins.be/moresnet/chemin/5bis"/><trkseg>
<trkpt lat="50.731198" lon="5.979088"><time>2026-05-06T18:28:17Z</time></trkpt>
<trkpt lat="50.730958" lon="5.977854"><time>2026-05-06T18:38:17Z</time></trkpt>
<trkpt lat="50.729310" lon="5.975108"><time>2026-05-06T18:48:17Z</time></trkpt>
</trkseg>
</trk>
<trk>
<name>lpbmr6</name>
<cmt>v</cmt>
<desc>Moresnet Chemin n°6 Marveld / Rue de la Coul</desc>
<link href="https://chemins.be/moresnet/chemin/6"/><trkseg>
<trkpt lat="50.732328" lon="5.981693"><time>2026-05-06T18:28:17Z</time></trkpt>
<trkpt lat="50.731853" lon="5.982258"><time>2026-05-06T18:38:17Z</time></trkpt>
<trkpt lat="50.731848" lon="5.984096"><time>2026-05-06T18:48:17Z</time></trkpt>
</trkseg></trk>
<trk>
<name>lpbmr6</name>
<cmt>r</cmt>
<desc>Moresnet Chemin n°6 Marveld / Rue de la Coul</desc>
<link href="https://chemins.be/moresnet/chemin/6"/><trkseg>
<trkpt lat="50.731848" lon="5.984096"><time>2026-05-06T18:48:17Z</time></trkpt>
<trkpt lat="50.731554" lon="5.984089"><time>2026-05-06T18:58:17Z</time></trkpt>
</trkseg></trk>
<trk>
<name>lpbmr6</name>
<cmt>v</cmt>
<desc>Moresnet Chemin n°6 Marveld / Rue de la Coul</desc>
<link href="https://chemins.be/moresnet/chemin/6"/><trkseg>
<trkpt lat="50.731554" lon="5.984089"><time>2026-05-06T18:58:17Z</time></trkpt>
<trkpt lat="50.731363" lon="5.986073"><time>2026-05-06T19:08:17Z</time></trkpt>
<trkpt lat="50.732157" lon="5.988576"><time>2026-05-06T19:18:17Z</time></trkpt>
<trkpt lat="50.732169" lon="5.988998"><time>2026-05-06T19:28:17Z</time></trkpt>
</trkseg></trk>
<trk>
<name>lpbmr6</name>
<cmt>r</cmt>
<desc>Moresnet Chemin n°6 Marveld / Rue de la Coul</desc>
<link href="https://chemins.be/moresnet/chemin/6"/><trkseg>
<trkpt lat="50.732169" lon="5.988998"><time>2026-05-06T19:28:17Z</time></trkpt>
<trkpt lat="50.731824" lon="5.992336"><time>2026-05-06T19:38:17Z</time></trkpt>
<trkpt lat="50.731614" lon="5.993389"><time>2026-05-06T19:48:17Z</time></trkpt>
<trkpt lat="50.730917" lon="5.993160"><time>2026-05-06T19:58:17Z</time></trkpt>
<trkpt lat="50.730646" lon="5.993487"><time>2026-05-06T20:08:17Z</time></trkpt>
<trkpt lat="50.730420" lon="5.994320"><time>2026-05-06T20:18:17Z</time></trkpt>
<trkpt lat="50.730877" lon="5.995676"><time>2026-05-06T20:28:17Z</time></trkpt>
<trkpt lat="50.730974" lon="5.995655"><time>2026-05-06T20:38:17Z</time></trkpt>
<trkpt lat="50.730992" lon="5.995755"><time>2026-05-06T20:48:17Z</time></trkpt>
<trkpt lat="50.730962" lon="5.995909"><time>2026-05-06T20:58:17Z</time></trkpt>
<trkpt lat="50.731031" lon="5.996266"><time>2026-05-06T21:08:17Z</time></trkpt>
</trkseg></trk>
<trk>
<name>lpbmr6</name>
<cmt>v</cmt>
<desc>Moresnet Chemin n°6 Marveld / Rue de la Coul</desc>
<link href="https://chemins.be/moresnet/chemin/6"/><trkseg>
<trkpt lat="50.731031" lon="5.996266"><time>2026-05-06T21:08:17Z</time></trkpt>
<trkpt lat="50.731136" lon="5.996610"><time>2026-05-06T21:18:17Z</time></trkpt>
<trkpt lat="50.731151" lon="5.996837"><time>2026-05-06T21:28:17Z</time></trkpt>
<trkpt lat="50.731130" lon="5.996992"><time>2026-05-06T21:38:17Z</time></trkpt>
<trkpt lat="50.731137" lon="5.997149"><time>2026-05-06T21:48:17Z</time></trkpt>
<trkpt lat="50.731134" lon="5.997361"><time>2026-05-06T21:58:17Z</time></trkpt>
<trkpt lat="50.731175" lon="5.997688"><time>2026-05-06T22:08:17Z</time></trkpt>
<trkpt lat="50.731179" lon="5.998043"><time>2026-05-06T22:18:17Z</time></trkpt>
<trkpt lat="50.731143" lon="5.999316"><time>2026-05-06T22:28:17Z</time></trkpt>
<trkpt lat="50.731128" lon="5.999741"><time>2026-05-06T22:38:17Z</time></trkpt>
</trkseg></trk>
<trk>
<name>lpbmr6</name>
<cmt>r</cmt>
<desc>Moresnet Chemin n°6 Marveld / Rue de la Coul</desc>
<link href="https://chemins.be/moresnet/chemin/6"/><trkseg>
<trkpt lat="50.731128" lon="5.999741"><time>2026-05-06T22:38:17Z</time></trkpt>
<trkpt lat="50.730593" lon="6.000506"><time>2026-05-06T22:48:17Z</time></trkpt>
</trkseg></trk>
<trk>
<name>lpbmr6</name>
<cmt>v</cmt>
<desc>Moresnet Chemin n°6 Marveld / Rue de la Coul</desc>
<link href="https://chemins.be/moresnet/chemin/6"/><trkseg>
<trkpt lat="50.730593" lon="6.000506"><time>2026-05-06T22:48:17Z</time></trkpt>
<trkpt lat="50.730663" lon="6.002362"><time>2026-05-06T22:58:17Z</time></trkpt>
<trkpt lat="50.730965" lon="6.002880"><time>2026-05-06T23:08:17Z</time></trkpt>
<trkpt lat="50.731078" lon="6.003735"><time>2026-05-06T23:18:17Z</time></trkpt>
<trkpt lat="50.730997" lon="6.005452"><time>2026-05-06T23:28:17Z</time></trkpt>
</trkseg></trk>
<trk>
<name>lpbmr6</name>
<cmt>s</cmt>
<desc>Moresnet Chemin n°6 Marveld / Rue de la Coul</desc>
<link href="https://chemins.be/moresnet/chemin/6"/><trkseg>
<trkpt lat="50.730997" lon="6.005452"><time>2026-05-06T23:28:17Z</time></trkpt>
<trkpt lat="50.731041" lon="6.006031"><time>2026-05-06T23:38:17Z</time></trkpt>
</trkseg></trk>
<trk>
<name>lpbmr6</name>
<cmt>q</cmt>
<desc>Moresnet Chemin n°6 Marveld / Rue de la Coul</desc>
<link href="https://chemins.be/moresnet/chemin/6"/><trkseg>
<trkpt lat="50.731041" lon="6.006031"><time>2026-05-06T23:38:17Z</time></trkpt>
<trkpt lat="50.731019" lon="6.007386"><time>2026-05-06T23:48:17Z</time></trkpt>
</trkseg></trk>
<trk>
<name>lpbmr6</name>
<cmt>v</cmt>
<desc>Moresnet Chemin n°6 Marveld / Rue de la Coul</desc>
<link href="https://chemins.be/moresnet/chemin/6"/><trkseg>
<trkpt lat="50.731019" lon="6.007386"><time>2026-05-06T23:48:17Z</time></trkpt>
<trkpt lat="50.730965" lon="6.008316"><time>2026-05-06T23:58:17Z</time></trkpt>
<trkpt lat="50.730720" lon="6.008903"><time>2026-05-07T00:08:17Z</time></trkpt>
</trkseg>
</trk>
<trk>
<name>lpbmr60</name>
<cmt>s</cmt>
<desc>Moresnet Sentier n°60 </desc>
<link href="https://chemins.be/moresnet/sentier/60"/><trkseg>
<trkpt lat="50.729180" lon="5.978138"><time>2026-05-06T18:28:17Z</time></trkpt>
<trkpt lat="50.727264" lon="5.980877"><time>2026-05-06T18:38:17Z</time></trkpt>
</trkseg>
</trk>
<trk>
<name>lpbmr61</name>
<cmt>s</cmt>
<desc>Moresnet Sentier n°61 </desc>
<link href="https://chemins.be/moresnet/sentier/61"/><trkseg>
<trkpt lat="50.729399" lon="5.993181"><time>2026-05-06T18:28:17Z</time></trkpt>
<trkpt lat="50.726827" lon="5.991408"><time>2026-05-06T18:38:17Z</time></trkpt>
<trkpt lat="50.725650" lon="5.990106"><time>2026-05-06T18:48:17Z</time></trkpt>
</trkseg>
</trk>
<trk>
<name>lpbmr61bis</name>
<cmt>v</cmt>
<desc>Moresnet Sentier n°61bis </desc>
<link href="https://chemins.be/moresnet/sentier/61bis"/><trkseg>
<trkpt lat="50.728710" lon="5.993577"><time>2026-05-06T18:28:17Z</time></trkpt>
<trkpt lat="50.726926" lon="5.991445"><time>2026-05-06T18:38:17Z</time></trkpt>
</trkseg>
</trk>
<trk>
<name>lpbmr62</name>
<cmt>v</cmt>
<desc>Moresnet Sentier n°62 </desc>
<link href="https://chemins.be/moresnet/sentier/62"/><trkseg>
<trkpt lat="50.731796" lon="5.993496"><time>2026-05-06T18:28:17Z</time></trkpt>
<trkpt lat="50.731939" lon="5.993532"><time>2026-05-06T18:38:17Z</time></trkpt>
<trkpt lat="50.732172" lon="5.994126"><time>2026-05-06T18:48:17Z</time></trkpt>
</trkseg>
</trk>
<trk>
<name>lpbmr63</name>
<cmt>d</cmt>
<desc>Moresnet Sentier n°63 </desc>
<link href="https://chemins.be/moresnet/sentier/63"/><trkseg>
<trkpt lat="50.730216" lon="5.989682"><time>2026-05-06T18:28:17Z</time></trkpt>
<trkpt lat="50.730443" lon="5.989167"><time>2026-05-06T18:38:17Z</time></trkpt>
<trkpt lat="50.730438" lon="5.988395"><time>2026-05-06T18:48:17Z</time></trkpt>
<trkpt lat="50.731448" lon="5.986485"><time>2026-05-06T18:58:17Z</time></trkpt>
</trkseg>
</trk>
<trk>
<name>lpbmr7</name>
<cmt>r</cmt>
<desc>Moresnet Chemin n°7 Rue de la Clinique / Rue du Calvaire</desc>
<link href="https://chemins.be/moresnet/chemin/7"/><trkseg>
<trkpt lat="50.725659" lon="5.985928"><time>2026-05-06T18:28:17Z</time></trkpt>
<trkpt lat="50.726434" lon="5.987609"><time>2026-05-06T18:38:17Z</time></trkpt>
<trkpt lat="50.728705" lon="5.991352"><time>2026-05-06T18:48:17Z</time></trkpt>
<trkpt lat="50.728999" lon="5.991304"><time>2026-05-06T18:58:17Z</time></trkpt>
<trkpt lat="50.729414" lon="5.991519"><time>2026-05-06T19:08:17Z</time></trkpt>
<trkpt lat="50.729762" lon="5.992377"><time>2026-05-06T19:18:17Z</time></trkpt>
<trkpt lat="50.730415" lon="5.994309"><time>2026-05-06T19:28:17Z</time></trkpt>
<trkpt lat="50.730869" lon="5.995649"><time>2026-05-06T19:38:17Z</time></trkpt>
<trkpt lat="50.730984" lon="5.995670"><time>2026-05-06T19:48:17Z</time></trkpt>
<trkpt lat="50.730954" lon="5.995894"><time>2026-05-06T19:58:17Z</time></trkpt>
<trkpt lat="50.731031" lon="5.996272"><time>2026-05-06T20:08:17Z</time></trkpt>
<trkpt lat="50.731120" lon="5.996660"><time>2026-05-06T20:18:17Z</time></trkpt>
<trkpt lat="50.731119" lon="5.997078"><time>2026-05-06T20:28:17Z</time></trkpt>
</trkseg></trk>
<trk>
<name>lpbmr7</name>
<cmt>v</cmt>
<desc>Moresnet Chemin n°7 Rue de la Clinique / Rue du Calvaire</desc>
<link href="https://chemins.be/moresnet/chemin/7"/><trkseg>
<trkpt lat="50.731119" lon="5.997078"><time>2026-05-06T20:28:17Z</time></trkpt>
<trkpt lat="50.731165" lon="5.997622"><time>2026-05-06T20:38:17Z</time></trkpt>
</trkseg></trk>
<trk>
<name>lpbmr7</name>
<cmt>s</cmt>
<desc>Moresnet Chemin n°7 Rue de la Clinique / Rue du Calvaire</desc>
<link href="https://chemins.be/moresnet/chemin/7"/><trkseg>
<trkpt lat="50.731165" lon="5.997622"><time>2026-05-06T20:38:17Z</time></trkpt>
<trkpt lat="50.732010" lon="5.998700"><time>2026-05-06T20:48:17Z</time></trkpt>
</trkseg></trk>
<trk>
<name>lpbmr7</name>
<cmt>r</cmt>
<desc>Moresnet Chemin n°7 Rue de la Clinique / Rue du Calvaire</desc>
<link href="https://chemins.be/moresnet/chemin/7"/><trkseg>
<trkpt lat="50.732010" lon="5.998700"><time>2026-05-06T20:48:17Z</time></trkpt>
<trkpt lat="50.732848" lon="5.997753"><time>2026-05-06T20:58:17Z</time></trkpt>
</trkseg></trk>
<trk>
<name>lpbmr7</name>
<cmt>s</cmt>
<desc>Moresnet Chemin n°7 Rue de la Clinique / Rue du Calvaire</desc>
<link href="https://chemins.be/moresnet/chemin/7"/><trkseg>
<trkpt lat="50.732848" lon="5.997753"><time>2026-05-06T20:58:17Z</time></trkpt>
<trkpt lat="50.733260" lon="5.998377"><time>2026-05-06T21:08:17Z</time></trkpt>
</trkseg></trk>
<trk>
<name>lpbmr7</name>
<cmt>v</cmt>
<desc>Moresnet Chemin n°7 Rue de la Clinique / Rue du Calvaire</desc>
<link href="https://chemins.be/moresnet/chemin/7"/><trkseg>
<trkpt lat="50.733260" lon="5.998377"><time>2026-05-06T21:08:17Z</time></trkpt>
<trkpt lat="50.733792" lon="5.998044"><time>2026-05-06T21:18:17Z</time></trkpt>
</trkseg>
</trk>
<trk>
<name>lpbmr8</name>
<cmt>r</cmt>
<desc>Moresnet Chemin n°8 Rue Langhaag</desc>
<link href="https://chemins.be/moresnet/chemin/8"/><trkseg>
<trkpt lat="50.718491" lon="5.981153"><time>2026-05-06T18:28:17Z</time></trkpt>
<trkpt lat="50.719019" lon="5.980498"><time>2026-05-06T18:38:17Z</time></trkpt>
<trkpt lat="50.719372" lon="5.978370"><time>2026-05-06T18:48:17Z</time></trkpt>
<trkpt lat="50.720531" lon="5.976236"><time>2026-05-06T18:58:17Z</time></trkpt>
<trkpt lat="50.721644" lon="5.974186"><time>2026-05-06T19:08:17Z</time></trkpt>
<trkpt lat="50.724202" lon="5.971587"><time>2026-05-06T19:18:17Z</time></trkpt>
</trkseg>
</trk>
<trk>
<name>lpbmri1</name>
<cmt>v</cmt>
<desc>Moresnet Chemin n°i1 </desc>
<link href="https://chemins.be/moresnet/chemin/i1"/><trkseg>
<trkpt lat="50.732945" lon="6.006237"><time>2026-05-06T18:28:17Z</time></trkpt>
<trkpt lat="50.734480" lon="6.006151"><time>2026-05-06T18:38:17Z</time></trkpt>
<trkpt lat="50.734693" lon="6.006709"><time>2026-05-06T18:48:17Z</time></trkpt>
<trkpt lat="50.734661" lon="6.007875"><time>2026-05-06T18:58:17Z</time></trkpt>
<trkpt lat="50.735186" lon="6.008740"><time>2026-05-06T19:08:17Z</time></trkpt>
<trkpt lat="50.735553" lon="6.008905"><time>2026-05-06T19:18:17Z</time></trkpt>
<trkpt lat="50.736395" lon="6.008432"><time>2026-05-06T19:28:17Z</time></trkpt>
</trkseg>
</trk>
<trk>
<name>lpbmri10</name>
<cmt>v</cmt>
<desc>Moresnet Sentier n°i10 </desc>
<link href="https://chemins.be/moresnet/sentier/i10"/><trkseg>
<trkpt lat="50.723847" lon="5.972002"><time>2026-05-06T18:28:17Z</time></trkpt>
<trkpt lat="50.724290" lon="5.972202"><time>2026-05-06T18:38:17Z</time></trkpt>
<trkpt lat="50.724521" lon="5.972202"><time>2026-05-06T18:48:17Z</time></trkpt>
<trkpt lat="50.724707" lon="5.972756"><time>2026-05-06T18:58:17Z</time></trkpt>
<trkpt lat="50.724777" lon="5.973711"><time>2026-05-06T19:08:17Z</time></trkpt>
<trkpt lat="50.724347" lon="5.975181"><time>2026-05-06T19:18:17Z</time></trkpt>
<trkpt lat="50.724250" lon="5.975344"><time>2026-05-06T19:28:17Z</time></trkpt>
<trkpt lat="50.724300" lon="5.975786"><time>2026-05-06T19:38:17Z</time></trkpt>
<trkpt lat="50.723954" lon="5.976641"><time>2026-05-06T19:48:17Z</time></trkpt>
<trkpt lat="50.723982" lon="5.977106"><time>2026-05-06T19:58:17Z</time></trkpt>
</trkseg>
</trk>
<trk>
<name>lpbmri11</name>
<cmt>v</cmt>
<desc>Moresnet Sentier n°i11 </desc>
<link href="https://chemins.be/moresnet/sentier/i11"/><trkseg>
<trkpt lat="50.734620" lon="6.006508"><time>2026-05-06T18:28:17Z</time></trkpt>
<trkpt lat="50.735598" lon="6.006580"><time>2026-05-06T18:38:17Z</time></trkpt>
</trkseg>
</trk>
<trk>
<name>lpbmri12</name>
<cmt>v</cmt>
<desc>Moresnet Chemin n°i12 RAVeL 39 Moresnet Gemmenich / Op te Gueule, RAVeL 39 Moresnet Gemmenich</desc>
<link href="https://chemins.be/moresnet/chemin/i12"/><trkseg>
<trkpt lat="50.725246" lon="5.975742"><time>2026-05-06T18:28:17Z</time></trkpt>
<trkpt lat="50.725620" lon="5.975870"><time>2026-05-06T18:38:17Z</time></trkpt>
<trkpt lat="50.726251" lon="5.975785"><time>2026-05-06T18:48:17Z</time></trkpt>
<trkpt lat="50.727114" lon="5.976289"><time>2026-05-06T18:58:17Z</time></trkpt>
<trkpt lat="50.727585" lon="5.976413"><time>2026-05-06T19:08:17Z</time></trkpt>
<trkpt lat="50.727743" lon="5.976479"><time>2026-05-06T19:18:17Z</time></trkpt>
<trkpt lat="50.728979" lon="5.975589"><time>2026-05-06T19:28:17Z</time></trkpt>
<trkpt lat="50.729314" lon="5.975003"><time>2026-05-06T19:38:17Z</time></trkpt>
<trkpt lat="50.729469" lon="5.974476"><time>2026-05-06T19:48:17Z</time></trkpt>
</trkseg>
</trk>
<trk>
<name>lpbmri13</name>
<cmt>v</cmt>
<desc>Moresnet Sentier n°i13 </desc>
<link href="https://chemins.be/moresnet/sentier/i13"/><trkseg>
<trkpt lat="50.723944" lon="5.977173"><time>2026-05-06T18:28:17Z</time></trkpt>
<trkpt lat="50.724028" lon="5.977627"><time>2026-05-06T18:38:17Z</time></trkpt>
<trkpt lat="50.724467" lon="5.978446"><time>2026-05-06T18:48:17Z</time></trkpt>
<trkpt lat="50.724718" lon="5.978622"><time>2026-05-06T18:58:17Z</time></trkpt>
<trkpt lat="50.724984" lon="5.978888"><time>2026-05-06T19:08:17Z</time></trkpt>
<trkpt lat="50.725083" lon="5.979104"><time>2026-05-06T19:18:17Z</time></trkpt>
<trkpt lat="50.724585" lon="5.981203"><time>2026-05-06T19:28:17Z</time></trkpt>
<trkpt lat="50.723616" lon="5.984171"><time>2026-05-06T19:38:17Z</time></trkpt>
<trkpt lat="50.722434" lon="5.986717"><time>2026-05-06T19:48:17Z</time></trkpt>
</trkseg>
</trk>
<trk>
<name>lpbmri14</name>
<cmt>v</cmt>
<desc>Moresnet Sentier n°i14 </desc>
<link href="https://chemins.be/moresnet/sentier/i14"/><trkseg>
<trkpt lat="50.734927" lon="6.003762"><time>2026-05-06T18:28:17Z</time></trkpt>
<trkpt lat="50.734656" lon="6.002879"><time>2026-05-06T18:38:17Z</time></trkpt>
<trkpt lat="50.734354" lon="5.999851"><time>2026-05-06T18:48:17Z</time></trkpt>
<trkpt lat="50.733992" lon="5.999994"><time>2026-05-06T18:58:17Z</time></trkpt>
</trkseg>
</trk>
<trk>
<name>lpbmri15</name>
<cmt>v</cmt>
<desc>Moresnet Sentier n°i15 </desc>
<link href="https://chemins.be/moresnet/sentier/i15"/><trkseg>
<trkpt lat="50.735654" lon="6.006634"><time>2026-05-06T18:28:17Z</time></trkpt>
<trkpt lat="50.735642" lon="6.006909"><time>2026-05-06T18:38:17Z</time></trkpt>
<trkpt lat="50.735914" lon="6.007326"><time>2026-05-06T18:48:17Z</time></trkpt>
<trkpt lat="50.735620" lon="6.008852"><time>2026-05-06T18:58:17Z</time></trkpt>
<trkpt lat="50.735971" lon="6.009454"><time>2026-05-06T19:08:17Z</time></trkpt>
<trkpt lat="50.736265" lon="6.009674"><time>2026-05-06T19:18:17Z</time></trkpt>
<trkpt lat="50.736393" lon="6.011003"><time>2026-05-06T19:28:17Z</time></trkpt>
<trkpt lat="50.736291" lon="6.011868"><time>2026-05-06T19:38:17Z</time></trkpt>
</trkseg>
</trk>
<trk>
<name>lpbmri16</name>
<cmt>v</cmt>
<desc>Moresnet Sentier n°i16 </desc>
<link href="https://chemins.be/moresnet/sentier/i16"/><trkseg>
<trkpt lat="50.735075" lon="6.010640"><time>2026-05-06T18:28:17Z</time></trkpt>
<trkpt lat="50.735147" lon="6.011226"><time>2026-05-06T18:38:17Z</time></trkpt>
</trkseg>
</trk>
<trk>
<name>lpbmri17</name>
<cmt>v</cmt>
<desc>Moresnet Chemin n°i17 Sherwood Ring</desc>
<link href="https://chemins.be/moresnet/chemin/i17"/><trkseg>
<trkpt lat="50.706652" lon="5.978036"><time>2026-05-06T18:28:17Z</time></trkpt>
<trkpt lat="50.707030" lon="5.977595"><time>2026-05-06T18:38:17Z</time></trkpt>
<trkpt lat="50.707671" lon="5.979598"><time>2026-05-06T18:48:17Z</time></trkpt>
<trkpt lat="50.708607" lon="5.981410"><time>2026-05-06T18:58:17Z</time></trkpt>
<trkpt lat="50.709113" lon="5.981994"><time>2026-05-06T19:08:17Z</time></trkpt>
<trkpt lat="50.709528" lon="5.980969"><time>2026-05-06T19:18:17Z</time></trkpt>
</trkseg>
</trk>
<trk>
<name>lpbmri18</name>
<cmt>v</cmt>
<desc>Moresnet Sentier n°i18 </desc>
<link href="https://chemins.be/moresnet/sentier/i18"/><trkseg>
<trkpt lat="50.712518" lon="5.984855"><time>2026-05-06T18:28:17Z</time></trkpt>
<trkpt lat="50.714956" lon="5.982161"><time>2026-05-06T18:38:17Z</time></trkpt>
</trkseg>
</trk>
<trk>
<name>lpbmri19</name>
<cmt>v</cmt>
<desc>Moresnet Sentier n°i19 </desc>
<link href="https://chemins.be/moresnet/sentier/i19"/><trkseg>
<trkpt lat="50.724241" lon="5.975443"><time>2026-05-06T18:28:17Z</time></trkpt>
<trkpt lat="50.723728" lon="5.975604"><time>2026-05-06T18:38:17Z</time></trkpt>
<trkpt lat="50.723452" lon="5.975938"><time>2026-05-06T18:48:17Z</time></trkpt>
<trkpt lat="50.723309" lon="5.976516"><time>2026-05-06T18:58:17Z</time></trkpt>
<trkpt lat="50.723294" lon="5.976731"><time>2026-05-06T19:08:17Z</time></trkpt>
<trkpt lat="50.723169" lon="5.977458"><time>2026-05-06T19:18:17Z</time></trkpt>
<trkpt lat="50.723279" lon="5.978090"><time>2026-05-06T19:28:17Z</time></trkpt>
<trkpt lat="50.723207" lon="5.978280"><time>2026-05-06T19:38:17Z</time></trkpt>
<trkpt lat="50.723286" lon="5.978376"><time>2026-05-06T19:48:17Z</time></trkpt>
</trkseg>
</trk>
<trk>
<name>lpbmri2</name>
<cmt>v</cmt>
<desc>Moresnet Sentier n°i2 </desc>
<link href="https://chemins.be/moresnet/sentier/i2"/><trkseg>
<trkpt lat="50.722594" lon="5.999589"><time>2026-05-06T18:28:17Z</time></trkpt>
<trkpt lat="50.722013" lon="5.998516"><time>2026-05-06T18:38:17Z</time></trkpt>
<trkpt lat="50.720971" lon="5.996430"><time>2026-05-06T18:48:17Z</time></trkpt>
<trkpt lat="50.720239" lon="5.994642"><time>2026-05-06T18:58:17Z</time></trkpt>
</trkseg>
</trk>
<trk>
<name>lpbmri20</name>
<cmt>v</cmt>
<desc>Moresnet Sentier n°i20 </desc>
<link href="https://chemins.be/moresnet/sentier/i20"/><trkseg>
<trkpt lat="50.724360" lon="5.975723"><time>2026-05-06T18:28:17Z</time></trkpt>
<trkpt lat="50.725311" lon="5.975056"><time>2026-05-06T18:38:17Z</time></trkpt>
<trkpt lat="50.725618" lon="5.975133"><time>2026-05-06T18:48:17Z</time></trkpt>
<trkpt lat="50.725823" lon="5.975357"><time>2026-05-06T18:58:17Z</time></trkpt>
<trkpt lat="50.726131" lon="5.975777"><time>2026-05-06T19:08:17Z</time></trkpt>
</trkseg>
</trk>
<trk>
<name>lpbmri21</name>
<cmt>v</cmt>
<desc>Moresnet Sentier n°i21 </desc>
<link href="https://chemins.be/moresnet/sentier/i21"/><trkseg>
<trkpt lat="50.727107" lon="5.976284"><time>2026-05-06T18:28:17Z</time></trkpt>
<trkpt lat="50.725929" lon="5.976129"><time>2026-05-06T18:38:17Z</time></trkpt>
<trkpt lat="50.725809" lon="5.976546"><time>2026-05-06T18:48:17Z</time></trkpt>
<trkpt lat="50.725069" lon="5.976975"><time>2026-05-06T18:58:17Z</time></trkpt>
<trkpt lat="50.724684" lon="5.976892"><time>2026-05-06T19:08:17Z</time></trkpt>
<trkpt lat="50.723960" lon="5.977273"><time>2026-05-06T19:18:17Z</time></trkpt>
</trkseg>
</trk>
<trk>
<name>lpbmri22</name>
<cmt>v</cmt>
<desc>Moresnet Sentier n°i22 Sherwood Ring</desc>
<link href="https://chemins.be/moresnet/sentier/i22"/><trkseg>
<trkpt lat="50.709545" lon="5.982310"><time>2026-05-06T18:28:17Z</time></trkpt>
<trkpt lat="50.709511" lon="5.981445"><time>2026-05-06T18:38:17Z</time></trkpt>
<trkpt lat="50.709586" lon="5.981074"><time>2026-05-06T18:48:17Z</time></trkpt>
<trkpt lat="50.709931" lon="5.979901"><time>2026-05-06T18:58:17Z</time></trkpt>
<trkpt lat="50.710030" lon="5.979021"><time>2026-05-06T19:08:17Z</time></trkpt>
<trkpt lat="50.710257" lon="5.978013"><time>2026-05-06T19:18:17Z</time></trkpt>
</trkseg>
</trk>
<trk>
<name>lpbmri23</name>
<cmt>v</cmt>
<desc>Moresnet Sentier n°i23 </desc>
<link href="https://chemins.be/moresnet/sentier/i23"/><trkseg>
<trkpt lat="50.720090" lon="5.987130"><time>2026-05-06T18:28:17Z</time></trkpt>
<trkpt lat="50.720142" lon="5.987464"><time>2026-05-06T18:38:17Z</time></trkpt>
</trkseg>
</trk>
<trk>
<name>lpbmri24</name>
<cmt>v</cmt>
<desc>Moresnet Sentier n°i24 Sherwood Ring</desc>
<link href="https://chemins.be/moresnet/sentier/i24"/><trkseg>
<trkpt lat="50.710865" lon="5.976290"><time>2026-05-06T18:28:17Z</time></trkpt>
<trkpt lat="50.710700" lon="5.976258"><time>2026-05-06T18:38:17Z</time></trkpt>
<trkpt lat="50.710596" lon="5.976372"><time>2026-05-06T18:48:17Z</time></trkpt>
</trkseg>
</trk>
<trk>
<name>lpbmri25</name>
<cmt>v</cmt>
<desc>Moresnet Sentier n°i25 </desc>
<link href="https://chemins.be/moresnet/sentier/i25"/><trkseg>
<trkpt lat="50.731696" lon="5.992941"><time>2026-05-06T18:28:17Z</time></trkpt>
<trkpt lat="50.731919" lon="5.993008"><time>2026-05-06T18:38:17Z</time></trkpt>
<trkpt lat="50.732287" lon="5.993668"><time>2026-05-06T18:48:17Z</time></trkpt>
<trkpt lat="50.732384" lon="5.993834"><time>2026-05-06T18:58:17Z</time></trkpt>
</trkseg>
</trk>
<trk>
<name>lpbmri26</name>
<cmt>v</cmt>
<desc>Moresnet Sentier n°i26 </desc>
<link href="https://chemins.be/moresnet/sentier/i26"/><trkseg>
<trkpt lat="50.720694" lon="5.986472"><time>2026-05-06T18:28:17Z</time></trkpt>
<trkpt lat="50.721151" lon="5.985116"><time>2026-05-06T18:38:17Z</time></trkpt>
<trkpt lat="50.721498" lon="5.983047"><time>2026-05-06T18:48:17Z</time></trkpt>
<trkpt lat="50.722444" lon="5.980369"><time>2026-05-06T18:58:17Z</time></trkpt>
<trkpt lat="50.723237" lon="5.979897"><time>2026-05-06T19:08:17Z</time></trkpt>
<trkpt lat="50.723715" lon="5.979906"><time>2026-05-06T19:18:17Z</time></trkpt>
<trkpt lat="50.724109" lon="5.979693"><time>2026-05-06T19:28:17Z</time></trkpt>
<trkpt lat="50.724269" lon="5.979238"><time>2026-05-06T19:38:17Z</time></trkpt>
<trkpt lat="50.724193" lon="5.978659"><time>2026-05-06T19:48:17Z</time></trkpt>
<trkpt lat="50.723846" lon="5.977968"><time>2026-05-06T19:58:17Z</time></trkpt>
<trkpt lat="50.723846" lon="5.977753"><time>2026-05-06T20:08:17Z</time></trkpt>
<trkpt lat="50.723884" lon="5.977290"><time>2026-05-06T20:18:17Z</time></trkpt>
</trkseg>
</trk>
<trk>
<name>lpbmri3</name>
<cmt>v</cmt>
<desc>Moresnet Sentier n°i3 </desc>
<link href="https://chemins.be/moresnet/sentier/i3"/><trkseg>
<trkpt lat="50.722626" lon="5.999574"><time>2026-05-06T18:28:17Z</time></trkpt>
<trkpt lat="50.721730" lon="6.000504"><time>2026-05-06T18:38:17Z</time></trkpt>
</trkseg>
</trk>
<trk>
<name>lpbmri4</name>
<cmt>v</cmt>
<desc>Moresnet Chemin n°i4 </desc>
<link href="https://chemins.be/moresnet/chemin/i4"/><trkseg>
<trkpt lat="50.733144" lon="6.006939"><time>2026-05-06T18:28:17Z</time></trkpt>
<trkpt lat="50.733371" lon="6.007547"><time>2026-05-06T18:38:17Z</time></trkpt>
<trkpt lat="50.733615" lon="6.008255"><time>2026-05-06T18:48:17Z</time></trkpt>
<trkpt lat="50.734362" lon="6.010208"><time>2026-05-06T18:58:17Z</time></trkpt>
<trkpt lat="50.734607" lon="6.010981"><time>2026-05-06T19:08:17Z</time></trkpt>
</trkseg>
</trk>
<trk>
<name>lpbmri5</name>
<cmt>v</cmt>
<desc>Moresnet Chemin n°i5 </desc>
<link href="https://chemins.be/moresnet/chemin/i5"/><trkseg>
<trkpt lat="50.732774" lon="5.995964"><time>2026-05-06T18:28:17Z</time></trkpt>
<trkpt lat="50.733304" lon="5.996543"><time>2026-05-06T18:38:17Z</time></trkpt>
<trkpt lat="50.733587" lon="5.997233"><time>2026-05-06T18:48:17Z</time></trkpt>
<trkpt lat="50.733331" lon="5.998414"><time>2026-05-06T18:58:17Z</time></trkpt>
<trkpt lat="50.733858" lon="5.999501"><time>2026-05-06T19:08:17Z</time></trkpt>
<trkpt lat="50.734154" lon="6.001189"><time>2026-05-06T19:18:17Z</time></trkpt>
<trkpt lat="50.733602" lon="6.004608"><time>2026-05-06T19:28:17Z</time></trkpt>
</trkseg>
</trk>
<trk>
<name>lpbmri6</name>
<cmt>v</cmt>
<desc>Moresnet Sentier n°i6 </desc>
<link href="https://chemins.be/moresnet/sentier/i6"/><trkseg>
<trkpt lat="50.727682" lon="6.005945"><time>2026-05-06T18:28:17Z</time></trkpt>
<trkpt lat="50.728338" lon="6.007512"><time>2026-05-06T18:38:17Z</time></trkpt>
</trkseg>
</trk>
<trk>
<name>lpbmri7</name>
<cmt>v</cmt>
<desc>Moresnet Sentier n°i7 Kalvarienberg</desc>
<link href="https://chemins.be/moresnet/sentier/i7"/><trkseg>
<trkpt lat="50.731153" lon="5.996919"><time>2026-05-06T18:28:17Z</time></trkpt>
<trkpt lat="50.731640" lon="5.996823"><time>2026-05-06T18:38:17Z</time></trkpt>
<trkpt lat="50.731900" lon="5.997431"><time>2026-05-06T18:48:17Z</time></trkpt>
<trkpt lat="50.731461" lon="5.997947"><time>2026-05-06T18:58:17Z</time></trkpt>
<trkpt lat="50.731412" lon="5.997938"><time>2026-05-06T19:08:17Z</time></trkpt>
<trkpt lat="50.731299" lon="5.998054"><time>2026-05-06T19:18:17Z</time></trkpt>
<trkpt lat="50.731309" lon="5.998340"><time>2026-05-06T19:28:17Z</time></trkpt>
<trkpt lat="50.731265" lon="5.998752"><time>2026-05-06T19:38:17Z</time></trkpt>
<trkpt lat="50.731303" lon="5.999127"><time>2026-05-06T19:48:17Z</time></trkpt>
<trkpt lat="50.731454" lon="5.999115"><time>2026-05-06T19:58:17Z</time></trkpt>
<trkpt lat="50.731595" lon="5.998805"><time>2026-05-06T20:08:17Z</time></trkpt>
<trkpt lat="50.731694" lon="5.998773"><time>2026-05-06T20:18:17Z</time></trkpt>
<trkpt lat="50.732052" lon="5.998254"><time>2026-05-06T20:28:17Z</time></trkpt>
<trkpt lat="50.732476" lon="5.997908"><time>2026-05-06T20:38:17Z</time></trkpt>
<trkpt lat="50.732237" lon="5.997494"><time>2026-05-06T20:48:17Z</time></trkpt>
<trkpt lat="50.732090" lon="5.997035"><time>2026-05-06T20:58:17Z</time></trkpt>
<trkpt lat="50.731801" lon="5.996502"><time>2026-05-06T21:08:17Z</time></trkpt>
<trkpt lat="50.731758" lon="5.996227"><time>2026-05-06T21:18:17Z</time></trkpt>
<trkpt lat="50.731639" lon="5.996356"><time>2026-05-06T21:28:17Z</time></trkpt>
<trkpt lat="50.731475" lon="5.996224"><time>2026-05-06T21:38:17Z</time></trkpt>
<trkpt lat="50.731341" lon="5.996609"><time>2026-05-06T21:48:17Z</time></trkpt>
<trkpt lat="50.731254" lon="5.996514"><time>2026-05-06T21:58:17Z</time></trkpt>
<trkpt lat="50.731135" lon="5.996564"><time>2026-05-06T22:08:17Z</time></trkpt>
</trkseg>
</trk>
<trk>
<name>lpbmri8</name>
<cmt>v</cmt>
<desc>Moresnet Sentier n°i8 </desc>
<link href="https://chemins.be/moresnet/sentier/i8"/><trkseg>
<trkpt lat="50.733433" lon="5.998564"><time>2026-05-06T18:28:17Z</time></trkpt>
<trkpt lat="50.732362" lon="5.999756"><time>2026-05-06T18:38:17Z</time></trkpt>
<trkpt lat="50.732513" lon="6.000638"><time>2026-05-06T18:48:17Z</time></trkpt>
<trkpt lat="50.732845" lon="6.002641"><time>2026-05-06T18:58:17Z</time></trkpt>
<trkpt lat="50.733690" lon="6.004548"><time>2026-05-06T19:08:17Z</time></trkpt>
</trkseg>
</trk>
<trk>
<name>lpbmri9</name>
<cmt>v</cmt>
<desc>Moresnet Sentier n°i9 </desc>
<link href="https://chemins.be/moresnet/sentier/i9"/><trkseg>
<trkpt lat="50.719661" lon="5.991617"><time>2026-05-06T18:28:17Z</time></trkpt>
<trkpt lat="50.719108" lon="5.990744"><time>2026-05-06T18:38:17Z</time></trkpt>
<trkpt lat="50.718524" lon="5.990329"><time>2026-05-06T18:48:17Z</time></trkpt>
</trkseg>
</trk>
<trk>
<name>lpbmrL39</name>
<cmt>v</cmt>
<desc>Moresnet Chemin n°L39 RAVeL 39 Moresnet Gemmenich / RAVeL L 39</desc>
<link href="https://chemins.be/moresnet/chemin/L39"/><trkseg>
<trkpt lat="50.709643" lon="5.975494"><time>2026-05-06T18:28:17Z</time></trkpt>
<trkpt lat="50.710877" lon="5.976271"><time>2026-05-06T18:38:17Z</time></trkpt>
<trkpt lat="50.711973" lon="5.976964"><time>2026-05-06T18:48:17Z</time></trkpt>
<trkpt lat="50.713408" lon="5.977762"><time>2026-05-06T18:58:17Z</time></trkpt>
<trkpt lat="50.715203" lon="5.979514"><time>2026-05-06T19:08:17Z</time></trkpt>
<trkpt lat="50.716003" lon="5.980444"><time>2026-05-06T19:18:17Z</time></trkpt>
<trkpt lat="50.716866" lon="5.981398"><time>2026-05-06T19:28:17Z</time></trkpt>
<trkpt lat="50.716980" lon="5.981672"><time>2026-05-06T19:38:17Z</time></trkpt>
<trkpt lat="50.717063" lon="5.981901"><time>2026-05-06T19:48:17Z</time></trkpt>
<trkpt lat="50.717783" lon="5.982534"><time>2026-05-06T19:58:17Z</time></trkpt>
<trkpt lat="50.718569" lon="5.982851"><time>2026-05-06T20:08:17Z</time></trkpt>
<trkpt lat="50.718928" lon="5.982852"><time>2026-05-06T20:18:17Z</time></trkpt>
<trkpt lat="50.719803" lon="5.982685"><time>2026-05-06T20:28:17Z</time></trkpt>
<trkpt lat="50.721363" lon="5.981554"><time>2026-05-06T20:38:17Z</time></trkpt>
<trkpt lat="50.723403" lon="5.978314"><time>2026-05-06T20:48:17Z</time></trkpt>
<trkpt lat="50.723516" lon="5.977965"><time>2026-05-06T20:58:17Z</time></trkpt>
<trkpt lat="50.724213" lon="5.976660"><time>2026-05-06T21:08:17Z</time></trkpt>
<trkpt lat="50.725013" lon="5.975934"><time>2026-05-06T21:18:17Z</time></trkpt>
<trkpt lat="50.725204" lon="5.975715"><time>2026-05-06T21:28:17Z</time></trkpt>
</trkseg></trk>
<trk>
<name>lpbmrL39</name>
<cmt>s</cmt>
<desc>Moresnet Chemin n°L39 RAVeL 39 Moresnet Gemmenich / RAVeL L 39</desc>
<link href="https://chemins.be/moresnet/chemin/L39"/><trkseg>
<trkpt lat="50.725204" lon="5.975715"><time>2026-05-06T21:28:17Z</time></trkpt>
<trkpt lat="50.725878" lon="5.975342"><time>2026-05-06T21:38:17Z</time></trkpt>
</trkseg>
</trk>
<trk>
<name>lpbmrL39B</name>
<cmt>v</cmt>
<desc>Moresnet Chemin n°L39B RAVeL L 39 B</desc>
<link href="https://chemins.be/moresnet/chemin/L39B"/><trkseg>
<trkpt lat="50.717118" lon="5.982065"><time>2026-05-06T18:28:17Z</time></trkpt>
<trkpt lat="50.717552" lon="5.983246"><time>2026-05-06T18:38:17Z</time></trkpt>
<trkpt lat="50.717685" lon="5.983976"><time>2026-05-06T18:48:17Z</time></trkpt>
<trkpt lat="50.717737" lon="5.984473"><time>2026-05-06T18:58:17Z</time></trkpt>
<trkpt lat="50.717728" lon="5.987394"><time>2026-05-06T19:08:17Z</time></trkpt>
<trkpt lat="50.717535" lon="5.988163"><time>2026-05-06T19:18:17Z</time></trkpt>
<trkpt lat="50.717150" lon="5.989015"><time>2026-05-06T19:28:17Z</time></trkpt>
<trkpt lat="50.716339" lon="5.990589"><time>2026-05-06T19:38:17Z</time></trkpt>
<trkpt lat="50.715714" lon="5.993390"><time>2026-05-06T19:48:17Z</time></trkpt>
<trkpt lat="50.714441" lon="5.994976"><time>2026-05-06T19:58:17Z</time></trkpt>
<trkpt lat="50.711576" lon="5.998129"><time>2026-05-06T20:08:17Z</time></trkpt>
</trkseg>
</trk>
<trk>
<name>lpbmz1</name>
<cmt>r</cmt>
<desc>Montzen Chemin n°1 Rue de Birken</desc>
<link href="https://chemins.be/montzen/chemin/1"/><trkseg>
<trkpt lat="50.707419" lon="5.962184"><time>2026-05-06T18:28:17Z</time></trkpt>
<trkpt lat="50.706354" lon="5.962942"><time>2026-05-06T18:38:17Z</time></trkpt>
<trkpt lat="50.704624" lon="5.962792"><time>2026-05-06T18:48:17Z</time></trkpt>
<trkpt lat="50.701443" lon="5.965747"><time>2026-05-06T18:58:17Z</time></trkpt>
<trkpt lat="50.701377" lon="5.966795"><time>2026-05-06T19:08:17Z</time></trkpt>
</trkseg></trk>
<trk>
<name>lpbmz1</name>
<cmt>s</cmt>
<desc>Montzen Chemin n°1 Rue de Birken</desc>
<link href="https://chemins.be/montzen/chemin/1"/><trkseg>
<trkpt lat="50.701377" lon="5.966795"><time>2026-05-06T19:08:17Z</time></trkpt>
<trkpt lat="50.701599" lon="5.968733"><time>2026-05-06T19:18:17Z</time></trkpt>
<trkpt lat="50.701200" lon="5.969405"><time>2026-05-06T19:28:17Z</time></trkpt>
</trkseg></trk>
<trk>
<name>lpbmz1</name>
<cmt>r</cmt>
<desc>Montzen Chemin n°1 Rue de Birken</desc>
<link href="https://chemins.be/montzen/chemin/1"/><trkseg>
<trkpt lat="50.701200" lon="5.969405"><time>2026-05-06T19:28:17Z</time></trkpt>
<trkpt lat="50.699671" lon="5.971767"><time>2026-05-06T19:38:17Z</time></trkpt>
</trkseg></trk>
<trk>
<name>lpbmz1</name>
<cmt>s</cmt>
<desc>Montzen Chemin n°1 Rue de Birken</desc>
<link href="https://chemins.be/montzen/chemin/1"/><trkseg>
<trkpt lat="50.699671" lon="5.971767"><time>2026-05-06T19:38:17Z</time></trkpt>
<trkpt lat="50.699338" lon="5.972774"><time>2026-05-06T19:48:17Z</time></trkpt>
<trkpt lat="50.698765" lon="5.973618"><time>2026-05-06T19:58:17Z</time></trkpt>
</trkseg>
</trk>
<trk>
<name>lpbmz10</name>
<cmt>v</cmt>
<desc>Montzen Chemin n°10 Sherwood Ring</desc>
<link href="https://chemins.be/montzen/chemin/10"/><trkseg>
<trkpt lat="50.706897" lon="5.976189"><time>2026-05-06T18:28:17Z</time></trkpt>
<trkpt lat="50.707373" lon="5.977002"><time>2026-05-06T18:38:17Z</time></trkpt>
</trkseg>
</trk>
<trk>
<name>lpbmz100</name>
<cmt>v</cmt>
<desc>Montzen Sentier n°100 </desc>
<link href="https://chemins.be/montzen/sentier/100"/><trkseg>
<trkpt lat="50.707634" lon="5.962113"><time>2026-05-06T18:28:17Z</time></trkpt>
<trkpt lat="50.707651" lon="5.962206"><time>2026-05-06T18:38:17Z</time></trkpt>
<trkpt lat="50.707695" lon="5.962235"><time>2026-05-06T18:48:17Z</time></trkpt>
<trkpt lat="50.707726" lon="5.962368"><time>2026-05-06T18:58:17Z</time></trkpt>
<trkpt lat="50.707670" lon="5.962443"><time>2026-05-06T19:08:17Z</time></trkpt>
<trkpt lat="50.707781" lon="5.962999"><time>2026-05-06T19:18:17Z</time></trkpt>
<trkpt lat="50.707787" lon="5.963307"><time>2026-05-06T19:28:17Z</time></trkpt>
</trkseg>
</trk>
<trk>
<name>lpbmz101</name>
<cmt>s</cmt>
<desc>Montzen Sentier n°101 </desc>
<link href="https://chemins.be/montzen/sentier/101"/><trkseg>
<trkpt lat="50.708167" lon="5.964463"><time>2026-05-06T18:28:17Z</time></trkpt>
<trkpt lat="50.709162" lon="5.965230"><time>2026-05-06T18:38:17Z</time></trkpt>
</trkseg>
</trk>
<trk>
<name>lpbmz102</name>
<cmt>s</cmt>
<desc>Montzen Sentier n°102 </desc>
<link href="https://chemins.be/montzen/sentier/102"/><trkseg>
<trkpt lat="50.728728" lon="5.959867"><time>2026-05-06T18:28:17Z</time></trkpt>
<trkpt lat="50.728095" lon="5.961832"><time>2026-05-06T18:38:17Z</time></trkpt>
<trkpt lat="50.727859" lon="5.963877"><time>2026-05-06T18:48:17Z</time></trkpt>
<trkpt lat="50.726692" lon="5.965753"><time>2026-05-06T18:58:17Z</time></trkpt>
</trkseg></trk>
<trk>
<name>lpbmz102</name>
<cmt>d</cmt>
<desc>Montzen Sentier n°102 </desc>
<link href="https://chemins.be/montzen/sentier/102"/><trkseg>
<trkpt lat="50.726692" lon="5.965753"><time>2026-05-06T18:58:17Z</time></trkpt>
<trkpt lat="50.724514" lon="5.967041"><time>2026-05-06T19:08:17Z</time></trkpt>
</trkseg>
</trk>
<trk>
<name>lpbmz103</name>
<cmt>d</cmt>
<desc>Montzen Sentier n°103 </desc>
<link href="https://chemins.be/montzen/sentier/103"/><trkseg>
<trkpt lat="50.708768" lon="5.946105"><time>2026-05-06T18:28:17Z</time></trkpt>
<trkpt lat="50.710439" lon="5.945876"><time>2026-05-06T18:38:17Z</time></trkpt>
<trkpt lat="50.715095" lon="5.946506"><time>2026-05-06T18:48:17Z</time></trkpt>
</trkseg>
</trk>
<trk>
<name>lpbmz104</name>
<cmt>s</cmt>
<desc>Montzen Sentier n°104 </desc>
<link href="https://chemins.be/montzen/sentier/104"/><trkseg>
<trkpt lat="50.727500" lon="5.972549"><time>2026-05-06T18:28:17Z</time></trkpt>
<trkpt lat="50.727826" lon="5.972206"><time>2026-05-06T18:38:17Z</time></trkpt>
<trkpt lat="50.728518" lon="5.972141"><time>2026-05-06T18:48:17Z</time></trkpt>
<trkpt lat="50.729295" lon="5.971866"><time>2026-05-06T18:58:17Z</time></trkpt>
</trkseg>
</trk>
<trk>
<name>lpbmz105</name>
<cmt>q</cmt>
<desc>Montzen Sentier n°105 </desc>
<link href="https://chemins.be/montzen/sentier/105"/><trkseg>
<trkpt lat="50.704071" lon="5.931076"><time>2026-05-06T18:28:17Z</time></trkpt>
<trkpt lat="50.706676" lon="5.937046"><time>2026-05-06T18:38:17Z</time></trkpt>
<trkpt lat="50.707541" lon="5.939029"><time>2026-05-06T18:48:17Z</time></trkpt>
</trkseg></trk>
<trk>
<name>lpbmz105</name>
<cmt>s</cmt>
<desc>Montzen Sentier n°105 </desc>
<link href="https://chemins.be/montzen/sentier/105"/><trkseg>
<trkpt lat="50.707541" lon="5.939029"><time>2026-05-06T18:48:17Z</time></trkpt>
<trkpt lat="50.707822" lon="5.939673"><time>2026-05-06T18:58:17Z</time></trkpt>
</trkseg>
</trk>
<trk>
<name>lpbmz106</name>
<cmt>d</cmt>
<desc>Montzen Sentier n°106 </desc>
<link href="https://chemins.be/montzen/sentier/106"/><trkseg>
<trkpt lat="50.703155" lon="5.938119"><time>2026-05-06T18:28:17Z</time></trkpt>
<trkpt lat="50.703064" lon="5.934421"><time>2026-05-06T18:38:17Z</time></trkpt>
<trkpt lat="50.702975" lon="5.934034"><time>2026-05-06T18:48:17Z</time></trkpt>
<trkpt lat="50.702141" lon="5.930900"><time>2026-05-06T18:58:17Z</time></trkpt>
<trkpt lat="50.701968" lon="5.930251"><time>2026-05-06T19:08:17Z</time></trkpt>
<trkpt lat="50.702002" lon="5.928702"><time>2026-05-06T19:18:17Z</time></trkpt>
<trkpt lat="50.702289" lon="5.928317"><time>2026-05-06T19:28:17Z</time></trkpt>
</trkseg>
</trk>
<trk>
<name>lpbmz107</name>
<cmt>d</cmt>
<desc>Montzen Sentier n°107 </desc>
<link href="https://chemins.be/montzen/sentier/107"/><trkseg>
<trkpt lat="50.692905" lon="5.939451"><time>2026-05-06T18:28:17Z</time></trkpt>
<trkpt lat="50.693707" lon="5.939392"><time>2026-05-06T18:38:17Z</time></trkpt>
<trkpt lat="50.694332" lon="5.940304"><time>2026-05-06T18:48:17Z</time></trkpt>
</trkseg>
</trk>
<trk>
<name>lpbmz11</name>
<cmt>d</cmt>
<desc>Montzen Chemin n°11 Rue de la Gare / Avenue de l'Europe</desc>
<link href="https://chemins.be/montzen/chemin/11"/><trkseg>
<trkpt lat="50.717469" lon="5.940734"><time>2026-05-06T18:28:17Z</time></trkpt>
<trkpt lat="50.717822" lon="5.940741"><time>2026-05-06T18:38:17Z</time></trkpt>
<trkpt lat="50.718872" lon="5.941599"><time>2026-05-06T18:48:17Z</time></trkpt>
<trkpt lat="50.719477" lon="5.942462"><time>2026-05-06T18:58:17Z</time></trkpt>
<trkpt lat="50.720021" lon="5.943772"><time>2026-05-06T19:08:17Z</time></trkpt>
</trkseg></trk>
<trk>
<name>lpbmz11</name>
<cmt>v</cmt>
<desc>Montzen Chemin n°11 Rue de la Gare / Avenue de l'Europe</desc>
<link href="https://chemins.be/montzen/chemin/11"/><trkseg>
<trkpt lat="50.720021" lon="5.943772"><time>2026-05-06T19:08:17Z</time></trkpt>
<trkpt lat="50.720208" lon="5.944307"><time>2026-05-06T19:18:17Z</time></trkpt>
<trkpt lat="50.720240" lon="5.944431"><time>2026-05-06T19:28:17Z</time></trkpt>
</trkseg></trk>
<trk>
<name>lpbmz11</name>
<cmt>s</cmt>
<desc>Montzen Chemin n°11 Rue de la Gare / Avenue de l'Europe</desc>
<link href="https://chemins.be/montzen/chemin/11"/><trkseg>
<trkpt lat="50.720240" lon="5.944431"><time>2026-05-06T19:28:17Z</time></trkpt>
<trkpt lat="50.720376" lon="5.945268"><time>2026-05-06T19:38:17Z</time></trkpt>
<trkpt lat="50.720593" lon="5.946549"><time>2026-05-06T19:48:17Z</time></trkpt>
<trkpt lat="50.720539" lon="5.948036"><time>2026-05-06T19:58:17Z</time></trkpt>
<trkpt lat="50.720150" lon="5.948966"><time>2026-05-06T20:08:17Z</time></trkpt>
<trkpt lat="50.719805" lon="5.951827"><time>2026-05-06T20:18:17Z</time></trkpt>
<trkpt lat="50.719977" lon="5.953909"><time>2026-05-06T20:28:17Z</time></trkpt>
<trkpt lat="50.719659" lon="5.955329"><time>2026-05-06T20:38:17Z</time></trkpt>
<trkpt lat="50.719810" lon="5.957971"><time>2026-05-06T20:48:17Z</time></trkpt>
<trkpt lat="50.719946" lon="5.959166"><time>2026-05-06T20:58:17Z</time></trkpt>
<trkpt lat="50.719892" lon="5.959895"><time>2026-05-06T21:08:17Z</time></trkpt>
</trkseg></trk>
<trk>
<name>lpbmz11</name>
<cmt>r</cmt>
<desc>Montzen Chemin n°11 Rue de la Gare / Avenue de l'Europe</desc>
<link href="https://chemins.be/montzen/chemin/11"/><trkseg>
<trkpt lat="50.719892" lon="5.959895"><time>2026-05-06T21:08:17Z</time></trkpt>
<trkpt lat="50.718895" lon="5.962470"><time>2026-05-06T21:18:17Z</time></trkpt>
<trkpt lat="50.718619" lon="5.963514"><time>2026-05-06T21:28:17Z</time></trkpt>
<trkpt lat="50.718320" lon="5.965145"><time>2026-05-06T21:38:17Z</time></trkpt>
<trkpt lat="50.718071" lon="5.967441"><time>2026-05-06T21:48:17Z</time></trkpt>
<trkpt lat="50.717999" lon="5.969143"><time>2026-05-06T21:58:17Z</time></trkpt>
</trkseg>
</trk>
<trk>
<name>lpbmz12</name>
<cmt>r</cmt>
<desc>Montzen Chemin n°12 Rue du Mémorial Américain - Heerstraat</desc>
<link href="https://chemins.be/montzen/chemin/12"/><trkseg>
<trkpt lat="50.678547" lon="5.922085"><time>2026-05-06T18:28:17Z</time></trkpt>
<trkpt lat="50.679200" lon="5.920669"><time>2026-05-06T18:38:17Z</time></trkpt>
<trkpt lat="50.680501" lon="5.918991"><time>2026-05-06T18:48:17Z</time></trkpt>
<trkpt lat="50.682707" lon="5.915133"><time>2026-05-06T18:58:17Z</time></trkpt>
</trkseg>
</trk>
<trk>
<name>lpbmz13</name>
<cmt>q</cmt>
<desc>Montzen Chemin n°13 </desc>
<link href="https://chemins.be/montzen/chemin/13"/><trkseg>
<trkpt lat="50.687723" lon="5.931854"><time>2026-05-06T18:28:17Z</time></trkpt>
<trkpt lat="50.688675" lon="5.931424"><time>2026-05-06T18:38:17Z</time></trkpt>
<trkpt lat="50.690045" lon="5.931298"><time>2026-05-06T18:48:17Z</time></trkpt>
</trkseg></trk>
<trk>
<name>lpbmz13</name>
<cmt>v</cmt>
<desc>Montzen Chemin n°13 </desc>
<link href="https://chemins.be/montzen/chemin/13"/><trkseg>
<trkpt lat="50.690045" lon="5.931298"><time>2026-05-06T18:48:17Z</time></trkpt>
<trkpt lat="50.690524" lon="5.931105"><time>2026-05-06T18:58:17Z</time></trkpt>
<trkpt lat="50.690852" lon="5.930867"><time>2026-05-06T19:08:17Z</time></trkpt>
<trkpt lat="50.691064" lon="5.930778"><time>2026-05-06T19:18:17Z</time></trkpt>
<trkpt lat="50.691348" lon="5.930849"><time>2026-05-06T19:28:17Z</time></trkpt>
<trkpt lat="50.693002" lon="5.929987"><time>2026-05-06T19:38:17Z</time></trkpt>
<trkpt lat="50.693455" lon="5.929715"><time>2026-05-06T19:48:17Z</time></trkpt>
<trkpt lat="50.695546" lon="5.929992"><time>2026-05-06T19:58:17Z</time></trkpt>
<trkpt lat="50.696400" lon="5.929876"><time>2026-05-06T20:08:17Z</time></trkpt>
<trkpt lat="50.698076" lon="5.928817"><time>2026-05-06T20:18:17Z</time></trkpt>
<trkpt lat="50.700391" lon="5.927300"><time>2026-05-06T20:28:17Z</time></trkpt>
</trkseg></trk>
<trk>
<name>lpbmz13</name>
<cmt>d</cmt>
<desc>Montzen Chemin n°13 </desc>
<link href="https://chemins.be/montzen/chemin/13"/><trkseg>
<trkpt lat="50.700391" lon="5.927300"><time>2026-05-06T20:28:17Z</time></trkpt>
<trkpt lat="50.702271" lon="5.926089"><time>2026-05-06T20:38:17Z</time></trkpt>
<trkpt lat="50.703889" lon="5.924916"><time>2026-05-06T20:48:17Z</time></trkpt>
<trkpt lat="50.705057" lon="5.924529"><time>2026-05-06T20:58:17Z</time></trkpt>
</trkseg></trk>
<trk>
<name>lpbmz13</name>
<cmt>v</cmt>
<desc>Montzen Chemin n°13 </desc>
<link href="https://chemins.be/montzen/chemin/13"/><trkseg>
<trkpt lat="50.705057" lon="5.924529"><time>2026-05-06T20:58:17Z</time></trkpt>
<trkpt lat="50.706131" lon="5.924519"><time>2026-05-06T21:08:17Z</time></trkpt>
<trkpt lat="50.706516" lon="5.924494"><time>2026-05-06T21:18:17Z</time></trkpt>
<trkpt lat="50.707446" lon="5.924067"><time>2026-05-06T21:28:17Z</time></trkpt>
</trkseg>
</trk>
<trk>
<name>lpbmz13bis</name>
<cmt>v</cmt>
<desc>Montzen Chemin n°13bis </desc>
<link href="https://chemins.be/montzen/chemin/13bis"/><trkseg>
<trkpt lat="50.689279" lon="5.932702"><time>2026-05-06T18:28:17Z</time></trkpt>
<trkpt lat="50.690044" lon="5.931311"><time>2026-05-06T18:38:17Z</time></trkpt>
</trkseg>
</trk>
<trk>
<name>lpbmz14</name>
<cmt>r</cmt>
<desc>Montzen Chemin n°14 Kinkenweg</desc>
<link href="https://chemins.be/montzen/chemin/14"/><trkseg>
<trkpt lat="50.703318" lon="5.963834"><time>2026-05-06T18:28:17Z</time></trkpt>
<trkpt lat="50.702571" lon="5.963458"><time>2026-05-06T18:38:17Z</time></trkpt>
<trkpt lat="50.700406" lon="5.960909"><time>2026-05-06T18:48:17Z</time></trkpt>
<trkpt lat="50.699629" lon="5.959367"><time>2026-05-06T18:58:17Z</time></trkpt>
<trkpt lat="50.699453" lon="5.958741"><time>2026-05-06T19:08:17Z</time></trkpt>
<trkpt lat="50.698628" lon="5.957449"><time>2026-05-06T19:18:17Z</time></trkpt>
</trkseg>
</trk>
<trk>
<name>lpbmz15</name>
<cmt>s</cmt>
<desc>Montzen Chemin n°15 </desc>
<link href="https://chemins.be/montzen/chemin/15"/><trkseg>
<trkpt lat="50.700494" lon="5.961124"><time>2026-05-06T18:28:17Z</time></trkpt>
<trkpt lat="50.699837" lon="5.961474"><time>2026-05-06T18:38:17Z</time></trkpt>
<trkpt lat="50.699262" lon="5.960880"><time>2026-05-06T18:48:17Z</time></trkpt>
<trkpt lat="50.698586" lon="5.960723"><time>2026-05-06T18:58:17Z</time></trkpt>
</trkseg>
</trk>
<trk>
<name>lpbmz16</name>
<cmt>s</cmt>
<desc>Montzen Chemin n°16 Rue de Teberg</desc>
<link href="https://chemins.be/montzen/chemin/16"/><trkseg>
<trkpt lat="50.719817" lon="5.951713"><time>2026-05-06T18:28:17Z</time></trkpt>
<trkpt lat="50.719563" lon="5.950783"><time>2026-05-06T18:38:17Z</time></trkpt>
</trkseg></trk>
<trk>
<name>lpbmz16</name>
<cmt>q</cmt>
<desc>Montzen Chemin n°16 Rue de Teberg</desc>
<link href="https://chemins.be/montzen/chemin/16"/><trkseg>
<trkpt lat="50.719563" lon="5.950783"><time>2026-05-06T18:38:17Z</time></trkpt>
<trkpt lat="50.718662" lon="5.948651"><time>2026-05-06T18:48:17Z</time></trkpt>
</trkseg></trk>
<trk>
<name>lpbmz16</name>
<cmt>d</cmt>
<desc>Montzen Chemin n°16 Rue de Teberg</desc>
<link href="https://chemins.be/montzen/chemin/16"/><trkseg>
<trkpt lat="50.718662" lon="5.948651"><time>2026-05-06T18:48:17Z</time></trkpt>
<trkpt lat="50.718029" lon="5.947594"><time>2026-05-06T18:58:17Z</time></trkpt>
</trkseg></trk>
<trk>
<name>lpbmz16</name>
<cmt>v</cmt>
<desc>Montzen Chemin n°16 Rue de Teberg</desc>
<link href="https://chemins.be/montzen/chemin/16"/><trkseg>
<trkpt lat="50.718029" lon="5.947594"><time>2026-05-06T18:58:17Z</time></trkpt>
<trkpt lat="50.716264" lon="5.946471"><time>2026-05-06T19:08:17Z</time></trkpt>
<trkpt lat="50.716334" lon="5.946056"><time>2026-05-06T19:18:17Z</time></trkpt>
<trkpt lat="50.713423" lon="5.943244"><time>2026-05-06T19:28:17Z</time></trkpt>
<trkpt lat="50.710768" lon="5.940090"><time>2026-05-06T19:38:17Z</time></trkpt>
<trkpt lat="50.710278" lon="5.939367"><time>2026-05-06T19:48:17Z</time></trkpt>
<trkpt lat="50.707540" lon="5.935518"><time>2026-05-06T19:58:17Z</time></trkpt>
<trkpt lat="50.707150" lon="5.934381"><time>2026-05-06T20:08:17Z</time></trkpt>
<trkpt lat="50.707049" lon="5.933854"><time>2026-05-06T20:18:17Z</time></trkpt>
<trkpt lat="50.706990" lon="5.933583"><time>2026-05-06T20:28:17Z</time></trkpt>
<trkpt lat="50.706816" lon="5.933110"><time>2026-05-06T20:38:17Z</time></trkpt>
<trkpt lat="50.706257" lon="5.931828"><time>2026-05-06T20:48:17Z</time></trkpt>
<trkpt lat="50.705605" lon="5.929722"><time>2026-05-06T20:58:17Z</time></trkpt>
<trkpt lat="50.705338" lon="5.929751"><time>2026-05-06T21:08:17Z</time></trkpt>
<trkpt lat="50.704559" lon="5.930430"><time>2026-05-06T21:18:17Z</time></trkpt>
<trkpt lat="50.704201" lon="5.930373"><time>2026-05-06T21:28:17Z</time></trkpt>
<trkpt lat="50.703500" lon="5.930089"><time>2026-05-06T21:38:17Z</time></trkpt>
<trkpt lat="50.703363" lon="5.929014"><time>2026-05-06T21:48:17Z</time></trkpt>
<trkpt lat="50.703028" lon="5.928585"><time>2026-05-06T21:58:17Z</time></trkpt>
<trkpt lat="50.702253" lon="5.928414"><time>2026-05-06T22:08:17Z</time></trkpt>
<trkpt lat="50.701927" lon="5.928149"><time>2026-05-06T22:18:17Z</time></trkpt>
<trkpt lat="50.701501" lon="5.927491"><time>2026-05-06T22:28:17Z</time></trkpt>
<trkpt lat="50.700405" lon="5.927314"><time>2026-05-06T22:38:17Z</time></trkpt>
</trkseg>
</trk>
<trk>
<name>lpbmz17</name>
<cmt>r</cmt>
<desc>Montzen Chemin n°17 Rue de Spa</desc>
<link href="https://chemins.be/montzen/chemin/17"/><trkseg>
<trkpt lat="50.725889" lon="5.970687"><time>2026-05-06T18:28:17Z</time></trkpt>
<trkpt lat="50.726987" lon="5.969614"><time>2026-05-06T18:38:17Z</time></trkpt>
</trkseg>
</trk>
<trk>
<name>lpbmz18</name>
<cmt>v</cmt>
<desc>Montzen Chemin n°18 Rue des Champs</desc>
<link href="https://chemins.be/montzen/chemin/18"/><trkseg>
<trkpt lat="50.718031" lon="5.947587"><time>2026-05-06T18:28:17Z</time></trkpt>
<trkpt lat="50.718887" lon="5.947594"><time>2026-05-06T18:38:17Z</time></trkpt>
<trkpt lat="50.719639" lon="5.948112"><time>2026-05-06T18:48:17Z</time></trkpt>
<trkpt lat="50.720033" lon="5.947966"><time>2026-05-06T18:58:17Z</time></trkpt>
<trkpt lat="50.720160" lon="5.947866"><time>2026-05-06T19:08:17Z</time></trkpt>
<trkpt lat="50.720261" lon="5.947880"><time>2026-05-06T19:18:17Z</time></trkpt>
<trkpt lat="50.720257" lon="5.948041"><time>2026-05-06T19:28:17Z</time></trkpt>
</trkseg></trk>
<trk>
<name>lpbmz18</name>
<cmt>s</cmt>
<desc>Montzen Chemin n°18 Rue des Champs</desc>
<link href="https://chemins.be/montzen/chemin/18"/><trkseg>
<trkpt lat="50.720257" lon="5.948041"><time>2026-05-06T19:28:17Z</time></trkpt>
<trkpt lat="50.720732" lon="5.948210"><time>2026-05-06T19:38:17Z</time></trkpt>
<trkpt lat="50.722713" lon="5.947423"><time>2026-05-06T19:48:17Z</time></trkpt>
</trkseg></trk>
<trk>
<name>lpbmz18</name>
<cmt>r</cmt>
<desc>Montzen Chemin n°18 Rue des Champs</desc>
<link href="https://chemins.be/montzen/chemin/18"/><trkseg>
<trkpt lat="50.722713" lon="5.947423"><time>2026-05-06T19:48:17Z</time></trkpt>
<trkpt lat="50.723467" lon="5.947165"><time>2026-05-06T19:58:17Z</time></trkpt>
<trkpt lat="50.724853" lon="5.944004"><time>2026-05-06T20:08:17Z</time></trkpt>
<trkpt lat="50.725297" lon="5.944090"><time>2026-05-06T20:18:17Z</time></trkpt>
<trkpt lat="50.725713" lon="5.943089"><time>2026-05-06T20:28:17Z</time></trkpt>
<trkpt lat="50.726293" lon="5.943303"><time>2026-05-06T20:38:17Z</time></trkpt>
<trkpt lat="50.727298" lon="5.940943"><time>2026-05-06T20:48:17Z</time></trkpt>
</trkseg>
</trk>
<trk>
<name>lpbmz19</name>
<cmt>s</cmt>
<desc>Montzen Chemin n°19 Rue des Champs / Rue du Bois / Rue du Jardinet</desc>
<link href="https://chemins.be/montzen/chemin/19"/><trkseg>
<trkpt lat="50.720909" lon="5.948199"><time>2026-05-06T18:28:17Z</time></trkpt>
<trkpt lat="50.722060" lon="5.949698"><time>2026-05-06T18:38:17Z</time></trkpt>
</trkseg></trk>
<trk>
<name>lpbmz19</name>
<cmt>r</cmt>
<desc>Montzen Chemin n°19 Rue des Champs / Rue du Bois / Rue du Jardinet</desc>
<link href="https://chemins.be/montzen/chemin/19"/><trkseg>
<trkpt lat="50.722060" lon="5.949698"><time>2026-05-06T18:38:17Z</time></trkpt>
<trkpt lat="50.725174" lon="5.952675"><time>2026-05-06T18:48:17Z</time></trkpt>
<trkpt lat="50.725418" lon="5.953826"><time>2026-05-06T18:58:17Z</time></trkpt>
<trkpt lat="50.725332" lon="5.955464"><time>2026-05-06T19:08:17Z</time></trkpt>
<trkpt lat="50.726405" lon="5.958161"><time>2026-05-06T19:18:17Z</time></trkpt>
<trkpt lat="50.726672" lon="5.960013"><time>2026-05-06T19:28:17Z</time></trkpt>
<trkpt lat="50.725889" lon="5.960571"><time>2026-05-06T19:38:17Z</time></trkpt>
</trkseg></trk>
<trk>
<name>lpbmz19</name>
<cmt>v</cmt>
<desc>Montzen Chemin n°19 Rue des Champs / Rue du Bois / Rue du Jardinet</desc>
<link href="https://chemins.be/montzen/chemin/19"/><trkseg>
<trkpt lat="50.725889" lon="5.960571"><time>2026-05-06T19:38:17Z</time></trkpt>
<trkpt lat="50.725564" lon="5.961362"><time>2026-05-06T19:48:17Z</time></trkpt>
</trkseg>
</trk>
<trk>
<name>lpbmz2</name>
<cmt>d</cmt>
<desc>Montzen Chemin n°2 </desc>
<link href="https://chemins.be/montzen/chemin/2"/><trkseg>
<trkpt lat="50.715117" lon="5.933642"><time>2026-05-06T18:28:17Z</time></trkpt>
<trkpt lat="50.713909" lon="5.932406"><time>2026-05-06T18:38:17Z</time></trkpt>
<trkpt lat="50.713659" lon="5.931824"><time>2026-05-06T18:48:17Z</time></trkpt>
<trkpt lat="50.712304" lon="5.928664"><time>2026-05-06T18:58:17Z</time></trkpt>
</trkseg>
</trk>
<trk>
<name>lpbmz20</name>
<cmt>v</cmt>
<desc>Montzen Chemin n°20 Drieschen</desc>
<link href="https://chemins.be/montzen/chemin/20"/><trkseg>
<trkpt lat="50.726880" lon="5.966495"><time>2026-05-06T18:28:17Z</time></trkpt>
<trkpt lat="50.726554" lon="5.966531"><time>2026-05-06T18:38:17Z</time></trkpt>
<trkpt lat="50.726143" lon="5.966197"><time>2026-05-06T18:48:17Z</time></trkpt>
</trkseg></trk>
<trk>
<name>lpbmz20</name>
<cmt>d</cmt>
<desc>Montzen Chemin n°20 Drieschen</desc>
<link href="https://chemins.be/montzen/chemin/20"/><trkseg>
<trkpt lat="50.726143" lon="5.966197"><time>2026-05-06T18:48:17Z</time></trkpt>
<trkpt lat="50.725362" lon="5.965575"><time>2026-05-06T18:58:17Z</time></trkpt>
<trkpt lat="50.724498" lon="5.963212"><time>2026-05-06T19:08:17Z</time></trkpt>
<trkpt lat="50.724182" lon="5.962918"><time>2026-05-06T19:18:17Z</time></trkpt>
<trkpt lat="50.722083" lon="5.962459"><time>2026-05-06T19:28:17Z</time></trkpt>
</trkseg></trk>
<trk>
<name>lpbmz20</name>
<cmt>r</cmt>
<desc>Montzen Chemin n°20 Drieschen</desc>
<link href="https://chemins.be/montzen/chemin/20"/><trkseg>
<trkpt lat="50.722083" lon="5.962459"><time>2026-05-06T19:28:17Z</time></trkpt>
<trkpt lat="50.720785" lon="5.960623"><time>2026-05-06T19:38:17Z</time></trkpt>
<trkpt lat="50.720586" lon="5.959822"><time>2026-05-06T19:48:17Z</time></trkpt>
<trkpt lat="50.720731" lon="5.958563"><time>2026-05-06T19:58:17Z</time></trkpt>
<trkpt lat="50.720550" lon="5.958160"><time>2026-05-06T20:08:17Z</time></trkpt>
</trkseg></trk>
<trk>
<name>lpbmz20</name>
<cmt>s</cmt>
<desc>Montzen Chemin n°20 Drieschen</desc>
<link href="https://chemins.be/montzen/chemin/20"/><trkseg>
<trkpt lat="50.720550" lon="5.958160"><time>2026-05-06T20:08:17Z</time></trkpt>
<trkpt lat="50.720287" lon="5.957576"><time>2026-05-06T20:18:17Z</time></trkpt>
</trkseg>
</trk>
<trk>
<name>lpbmz21</name>
<cmt>s</cmt>
<desc>Montzen Chemin n°21 </desc>
<link href="https://chemins.be/montzen/chemin/21"/><trkseg>
<trkpt lat="50.718107" lon="5.959066"><time>2026-05-06T18:28:17Z</time></trkpt>
<trkpt lat="50.719411" lon="5.961068"><time>2026-05-06T18:38:17Z</time></trkpt>
</trkseg></trk>
<trk>
<name>lpbmz21</name>
<cmt>v</cmt>
<desc>Montzen Chemin n°21 </desc>
<link href="https://chemins.be/montzen/chemin/21"/><trkseg>
<trkpt lat="50.719411" lon="5.961068"><time>2026-05-06T18:38:17Z</time></trkpt>
<trkpt lat="50.720367" lon="5.962506"><time>2026-05-06T18:48:17Z</time></trkpt>
<trkpt lat="50.721073" lon="5.964294"><time>2026-05-06T18:58:17Z</time></trkpt>
<trkpt lat="50.721549" lon="5.965131"><time>2026-05-06T19:08:17Z</time></trkpt>
<trkpt lat="50.722587" lon="5.968204"><time>2026-05-06T19:18:17Z</time></trkpt>
<trkpt lat="50.722910" lon="5.968554"><time>2026-05-06T19:28:17Z</time></trkpt>
<trkpt lat="50.723945" lon="5.970725"><time>2026-05-06T19:38:17Z</time></trkpt>
<trkpt lat="50.724606" lon="5.971215"><time>2026-05-06T19:48:17Z</time></trkpt>
</trkseg>
</trk>
<trk>
<name>lpbmz22</name>
<cmt>d</cmt>
<desc>Montzen Chemin n°22 </desc>
<link href="https://chemins.be/montzen/chemin/22"/><trkseg>
<trkpt lat="50.714647" lon="5.965314"><time>2026-05-06T18:28:17Z</time></trkpt>
<trkpt lat="50.714594" lon="5.964913"><time>2026-05-06T18:38:17Z</time></trkpt>
<trkpt lat="50.715278" lon="5.964226"><time>2026-05-06T18:48:17Z</time></trkpt>
<trkpt lat="50.715407" lon="5.963567"><time>2026-05-06T18:58:17Z</time></trkpt>
</trkseg></trk>
<trk>
<name>lpbmz22</name>
<cmt>s</cmt>
<desc>Montzen Chemin n°22 </desc>
<link href="https://chemins.be/montzen/chemin/22"/><trkseg>
<trkpt lat="50.715407" lon="5.963567"><time>2026-05-06T18:58:17Z</time></trkpt>
<trkpt lat="50.716342" lon="5.960965"><time>2026-05-06T19:08:17Z</time></trkpt>
</trkseg>
</trk>
<trk>
<name>lpbmz23</name>
<cmt>r</cmt>
<desc>Montzen Chemin n°23 Rue de la Poterie / Cosenbergerheydt</desc>
<link href="https://chemins.be/montzen/chemin/23"/><trkseg>
<trkpt lat="50.702986" lon="5.964127"><time>2026-05-06T18:28:17Z</time></trkpt>
<trkpt lat="50.703915" lon="5.964828"><time>2026-05-06T18:38:17Z</time></trkpt>
<trkpt lat="50.704531" lon="5.966187"><time>2026-05-06T18:48:17Z</time></trkpt>
</trkseg></trk>
<trk>
<name>lpbmz23</name>
<cmt>s</cmt>
<desc>Montzen Chemin n°23 Rue de la Poterie / Cosenbergerheydt</desc>
<link href="https://chemins.be/montzen/chemin/23"/><trkseg>
<trkpt lat="50.704531" lon="5.966187"><time>2026-05-06T18:48:17Z</time></trkpt>
<trkpt lat="50.707668" lon="5.970576"><time>2026-05-06T18:58:17Z</time></trkpt>
</trkseg></trk>
<trk>
<name>lpbmz23</name>
<cmt>r</cmt>
<desc>Montzen Chemin n°23 Rue de la Poterie / Cosenbergerheydt</desc>
<link href="https://chemins.be/montzen/chemin/23"/><trkseg>
<trkpt lat="50.707668" lon="5.970576"><time>2026-05-06T18:58:17Z</time></trkpt>
<trkpt lat="50.708528" lon="5.970490"><time>2026-05-06T19:08:17Z</time></trkpt>
<trkpt lat="50.709489" lon="5.969861"><time>2026-05-06T19:18:17Z</time></trkpt>
<trkpt lat="50.710207" lon="5.970220"><time>2026-05-06T19:28:17Z</time></trkpt>
<trkpt lat="50.710200" lon="5.970474"><time>2026-05-06T19:38:17Z</time></trkpt>
<trkpt lat="50.710298" lon="5.970742"><time>2026-05-06T19:48:17Z</time></trkpt>
<trkpt lat="50.710583" lon="5.971230"><time>2026-05-06T19:58:17Z</time></trkpt>
</trkseg></trk>
<trk>
<name>lpbmz23</name>
<cmt>s</cmt>
<desc>Montzen Chemin n°23 Rue de la Poterie / Cosenbergerheydt</desc>
<link href="https://chemins.be/montzen/chemin/23"/><trkseg>
<trkpt lat="50.710583" lon="5.971230"><time>2026-05-06T19:58:17Z</time></trkpt>
<trkpt lat="50.711164" lon="5.972523"><time>2026-05-06T20:08:17Z</time></trkpt>
</trkseg>
</trk>
<trk>
<name>lpbmz24</name>
<cmt>d</cmt>
<desc>Montzen Chemin n°24 Rue du Château de Graaf / Rue du Chateau de Graaf</desc>
<link href="https://chemins.be/montzen/chemin/24"/><trkseg>
<trkpt lat="50.697859" lon="5.955062"><time>2026-05-06T18:28:17Z</time></trkpt>
<trkpt lat="50.699055" lon="5.953960"><time>2026-05-06T18:38:17Z</time></trkpt>
<trkpt lat="50.699580" lon="5.952033"><time>2026-05-06T18:48:17Z</time></trkpt>
</trkseg></trk>
<trk>
<name>lpbmz24</name>
<cmt>v</cmt>
<desc>Montzen Chemin n°24 Rue du Château de Graaf / Rue du Chateau de Graaf</desc>
<link href="https://chemins.be/montzen/chemin/24"/><trkseg>
<trkpt lat="50.699580" lon="5.952033"><time>2026-05-06T18:48:17Z</time></trkpt>
<trkpt lat="50.699821" lon="5.951210"><time>2026-05-06T18:58:17Z</time></trkpt>
<trkpt lat="50.699764" lon="5.949837"><time>2026-05-06T19:08:17Z</time></trkpt>
<trkpt lat="50.699822" lon="5.949590"><time>2026-05-06T19:18:17Z</time></trkpt>
<trkpt lat="50.699957" lon="5.949354"><time>2026-05-06T19:28:17Z</time></trkpt>
<trkpt lat="50.700337" lon="5.948406"><time>2026-05-06T19:38:17Z</time></trkpt>
<trkpt lat="50.700444" lon="5.947691"><time>2026-05-06T19:48:17Z</time></trkpt>
<trkpt lat="50.701237" lon="5.947456"><time>2026-05-06T19:58:17Z</time></trkpt>
</trkseg></trk>
<trk>
<name>lpbmz24</name>
<cmt>d</cmt>
<desc>Montzen Chemin n°24 Rue du Château de Graaf / Rue du Chateau de Graaf</desc>
<link href="https://chemins.be/montzen/chemin/24"/><trkseg>
<trkpt lat="50.701237" lon="5.947456"><time>2026-05-06T19:58:17Z</time></trkpt>
<trkpt lat="50.701518" lon="5.946640"><time>2026-05-06T20:08:17Z</time></trkpt>
</trkseg></trk>
<trk>
<name>lpbmz24</name>
<cmt>v</cmt>
<desc>Montzen Chemin n°24 Rue du Château de Graaf / Rue du Chateau de Graaf</desc>
<link href="https://chemins.be/montzen/chemin/24"/><trkseg>
<trkpt lat="50.701518" lon="5.946640"><time>2026-05-06T20:08:17Z</time></trkpt>
<trkpt lat="50.702204" lon="5.945091"><time>2026-05-06T20:18:17Z</time></trkpt>
<trkpt lat="50.702383" lon="5.944545"><time>2026-05-06T20:28:17Z</time></trkpt>
<trkpt lat="50.702395" lon="5.944276"><time>2026-05-06T20:38:17Z</time></trkpt>
<trkpt lat="50.702017" lon="5.942961"><time>2026-05-06T20:48:17Z</time></trkpt>
<trkpt lat="50.701309" lon="5.941493"><time>2026-05-06T20:58:17Z</time></trkpt>
<trkpt lat="50.701164" lon="5.940242"><time>2026-05-06T21:08:17Z</time></trkpt>
<trkpt lat="50.700673" lon="5.939320"><time>2026-05-06T21:18:17Z</time></trkpt>
<trkpt lat="50.700346" lon="5.938176"><time>2026-05-06T21:28:17Z</time></trkpt>
<trkpt lat="50.699582" lon="5.935475"><time>2026-05-06T21:38:17Z</time></trkpt>
</trkseg></trk>
<trk>
<name>lpbmz24</name>
<cmt>d</cmt>
<desc>Montzen Chemin n°24 Rue du Château de Graaf / Rue du Chateau de Graaf</desc>
<link href="https://chemins.be/montzen/chemin/24"/><trkseg>
<trkpt lat="50.699582" lon="5.935475"><time>2026-05-06T21:38:17Z</time></trkpt>
<trkpt lat="50.698742" lon="5.935758"><time>2026-05-06T21:48:17Z</time></trkpt>
<trkpt lat="50.698351" lon="5.934769"><time>2026-05-06T21:58:17Z</time></trkpt>
</trkseg></trk>
<trk>
<name>lpbmz24</name>
<cmt>v</cmt>
<desc>Montzen Chemin n°24 Rue du Château de Graaf / Rue du Chateau de Graaf</desc>
<link href="https://chemins.be/montzen/chemin/24"/><trkseg>
<trkpt lat="50.698351" lon="5.934769"><time>2026-05-06T21:58:17Z</time></trkpt>
<trkpt lat="50.697824" lon="5.933151"><time>2026-05-06T22:08:17Z</time></trkpt>
<trkpt lat="50.697857" lon="5.931354"><time>2026-05-06T22:18:17Z</time></trkpt>
<trkpt lat="50.698197" lon="5.929454"><time>2026-05-06T22:28:17Z</time></trkpt>
<trkpt lat="50.697953" lon="5.928894"><time>2026-05-06T22:38:17Z</time></trkpt>
</trkseg>
</trk>
<trk>
<name>lpbmz25</name>
<cmt>v</cmt>
<desc>Montzen Chemin n°25 </desc>
<link href="https://chemins.be/montzen/chemin/25"/><trkseg>
<trkpt lat="50.716871" lon="5.938168"><time>2026-05-06T18:28:17Z</time></trkpt>
<trkpt lat="50.716362" lon="5.938148"><time>2026-05-06T18:38:17Z</time></trkpt>
<trkpt lat="50.714234" lon="5.939707"><time>2026-05-06T18:48:17Z</time></trkpt>
<trkpt lat="50.713324" lon="5.939793"><time>2026-05-06T18:58:17Z</time></trkpt>
<trkpt lat="50.711835" lon="5.938222"><time>2026-05-06T19:08:17Z</time></trkpt>
<trkpt lat="50.711303" lon="5.937142"><time>2026-05-06T19:18:17Z</time></trkpt>
<trkpt lat="50.710574" lon="5.935962"><time>2026-05-06T19:28:17Z</time></trkpt>
<trkpt lat="50.709380" lon="5.932850"><time>2026-05-06T19:38:17Z</time></trkpt>
<trkpt lat="50.709380" lon="5.931019"><time>2026-05-06T19:48:17Z</time></trkpt>
</trkseg>
</trk>
<trk>
<name>lpbmz26</name>
<cmt>v</cmt>
<desc>Montzen Chemin n°26 </desc>
<link href="https://chemins.be/montzen/chemin/26"/><trkseg>
<trkpt lat="50.716357" lon="5.945985"><time>2026-05-06T18:28:17Z</time></trkpt>
<trkpt lat="50.716150" lon="5.945236"><time>2026-05-06T18:38:17Z</time></trkpt>
<trkpt lat="50.714003" lon="5.941223"><time>2026-05-06T18:48:17Z</time></trkpt>
<trkpt lat="50.714270" lon="5.940487"><time>2026-05-06T18:58:17Z</time></trkpt>
<trkpt lat="50.714234" lon="5.939800"><time>2026-05-06T19:08:17Z</time></trkpt>
<trkpt lat="50.712558" lon="5.935509"><time>2026-05-06T19:18:17Z</time></trkpt>
<trkpt lat="50.710597" lon="5.931696"><time>2026-05-06T19:28:17Z</time></trkpt>
<trkpt lat="50.710091" lon="5.930758"><time>2026-05-06T19:38:17Z</time></trkpt>
<trkpt lat="50.708905" lon="5.929453"><time>2026-05-06T19:48:17Z</time></trkpt>
</trkseg></trk>
<trk>
<name>lpbmz26</name>
<cmt>d</cmt>
<desc>Montzen Chemin n°26 </desc>
<link href="https://chemins.be/montzen/chemin/26"/><trkseg>
<trkpt lat="50.708905" lon="5.929453"><time>2026-05-06T19:48:17Z</time></trkpt>
<trkpt lat="50.708345" lon="5.927282"><time>2026-05-06T19:58:17Z</time></trkpt>
<trkpt lat="50.708121" lon="5.926857"><time>2026-05-06T20:08:17Z</time></trkpt>
</trkseg></trk>
<trk>
<name>lpbmz26</name>
<cmt>v</cmt>
<desc>Montzen Chemin n°26 </desc>
<link href="https://chemins.be/montzen/chemin/26"/><trkseg>
<trkpt lat="50.708121" lon="5.926857"><time>2026-05-06T20:08:17Z</time></trkpt>
<trkpt lat="50.707842" lon="5.925841"><time>2026-05-06T20:18:17Z</time></trkpt>
<trkpt lat="50.707818" lon="5.924500"><time>2026-05-06T20:28:17Z</time></trkpt>
<trkpt lat="50.707876" lon="5.924303"><time>2026-05-06T20:38:17Z</time></trkpt>
</trkseg>
</trk>
<trk>
<name>lpbmz27</name>
<cmt>v</cmt>
<desc>Montzen Chemin n°27 </desc>
<link href="https://chemins.be/montzen/chemin/27"/><trkseg>
<trkpt lat="50.736209" lon="5.959468"><time>2026-05-06T18:28:17Z</time></trkpt>
<trkpt lat="50.736894" lon="5.960880"><time>2026-05-06T18:38:17Z</time></trkpt>
<trkpt lat="50.737472" lon="5.961785"><time>2026-05-06T18:48:17Z</time></trkpt>
</trkseg></trk>
<trk>
<name>lpbmz27</name>
<cmt>s</cmt>
<desc>Montzen Chemin n°27 </desc>
<link href="https://chemins.be/montzen/chemin/27"/><trkseg>
<trkpt lat="50.737472" lon="5.961785"><time>2026-05-06T18:48:17Z</time></trkpt>
<trkpt lat="50.738751" lon="5.964192"><time>2026-05-06T18:58:17Z</time></trkpt>
<trkpt lat="50.739387" lon="5.965354"><time>2026-05-06T19:08:17Z</time></trkpt>
</trkseg>
</trk>
<trk>
<name>lpbmz28</name>
<cmt>s</cmt>
<desc>Montzen Chemin n°28 Rue du Couvent</desc>
<link href="https://chemins.be/montzen/chemin/28"/><trkseg>
<trkpt lat="50.735737" lon="5.959250"><time>2026-05-06T18:28:17Z</time></trkpt>
<trkpt lat="50.736208" lon="5.959260"><time>2026-05-06T18:38:17Z</time></trkpt>
<trkpt lat="50.736358" lon="5.959406"><time>2026-05-06T18:48:17Z</time></trkpt>
</trkseg></trk>
<trk>
<name>lpbmz28</name>
<cmt>v</cmt>
<desc>Montzen Chemin n°28 Rue du Couvent</desc>
<link href="https://chemins.be/montzen/chemin/28"/><trkseg>
<trkpt lat="50.736358" lon="5.959406"><time>2026-05-06T18:48:17Z</time></trkpt>
<trkpt lat="50.736509" lon="5.959454"><time>2026-05-06T18:58:17Z</time></trkpt>
<trkpt lat="50.736653" lon="5.959489"><time>2026-05-06T19:08:17Z</time></trkpt>
</trkseg></trk>
<trk>
<name>lpbmz28</name>
<cmt>d</cmt>
<desc>Montzen Chemin n°28 Rue du Couvent</desc>
<link href="https://chemins.be/montzen/chemin/28"/><trkseg>
<trkpt lat="50.736653" lon="5.959489"><time>2026-05-06T19:08:17Z</time></trkpt>
<trkpt lat="50.736886" lon="5.959591"><time>2026-05-06T19:18:17Z</time></trkpt>
</trkseg>
</trk>
<trk>
<name>lpbmz29</name>
<cmt>r</cmt>
<desc>Montzen Chemin n°29 </desc>
<link href="https://chemins.be/montzen/chemin/29"/><trkseg>
<trkpt lat="50.713729" lon="5.953863"><time>2026-05-06T18:28:17Z</time></trkpt>
<trkpt lat="50.715792" lon="5.953194"><time>2026-05-06T18:38:17Z</time></trkpt>
<trkpt lat="50.716568" lon="5.953298"><time>2026-05-06T18:48:17Z</time></trkpt>
</trkseg></trk>
<trk>
<name>lpbmz29</name>
<cmt>v</cmt>
<desc>Montzen Chemin n°29 </desc>
<link href="https://chemins.be/montzen/chemin/29"/><trkseg>
<trkpt lat="50.716568" lon="5.953298"><time>2026-05-06T18:48:17Z</time></trkpt>
<trkpt lat="50.717087" lon="5.953309"><time>2026-05-06T18:58:17Z</time></trkpt>
</trkseg></trk>
<trk>
<name>lpbmz29</name>
<cmt>s</cmt>
<desc>Montzen Chemin n°29 </desc>
<link href="https://chemins.be/montzen/chemin/29"/><trkseg>
<trkpt lat="50.717087" lon="5.953309"><time>2026-05-06T18:58:17Z</time></trkpt>
<trkpt lat="50.717585" lon="5.953963"><time>2026-05-06T19:08:17Z</time></trkpt>
<trkpt lat="50.717818" lon="5.954242"><time>2026-05-06T19:18:17Z</time></trkpt>
<trkpt lat="50.718061" lon="5.954263"><time>2026-05-06T19:28:17Z</time></trkpt>
<trkpt lat="50.718695" lon="5.955394"><time>2026-05-06T19:38:17Z</time></trkpt>
<trkpt lat="50.719668" lon="5.955297"><time>2026-05-06T19:48:17Z</time></trkpt>
</trkseg>
</trk>
<trk>
<name>lpbmz3</name>
<cmt>r</cmt>
<desc>Montzen Chemin n°3 Rue de Hombourg</desc>
<link href="https://chemins.be/montzen/chemin/3"/><trkseg>
<trkpt lat="50.713616" lon="5.953588"><time>2026-05-06T18:28:17Z</time></trkpt>
<trkpt lat="50.713315" lon="5.953902"><time>2026-05-06T18:38:17Z</time></trkpt>
<trkpt lat="50.710364" lon="5.955544"><time>2026-05-06T18:48:17Z</time></trkpt>
<trkpt lat="50.709444" lon="5.956097"><time>2026-05-06T18:58:17Z</time></trkpt>
<trkpt lat="50.708011" lon="5.958300"><time>2026-05-06T19:08:17Z</time></trkpt>
<trkpt lat="50.707871" lon="5.958668"><time>2026-05-06T19:18:17Z</time></trkpt>
<trkpt lat="50.707609" lon="5.961419"><time>2026-05-06T19:28:17Z</time></trkpt>
<trkpt lat="50.707216" lon="5.962664"><time>2026-05-06T19:38:17Z</time></trkpt>
<trkpt lat="50.707275" lon="5.962850"><time>2026-05-06T19:48:17Z</time></trkpt>
<trkpt lat="50.707802" lon="5.963322"><time>2026-05-06T19:58:17Z</time></trkpt>
<trkpt lat="50.708088" lon="5.963741"><time>2026-05-06T20:08:17Z</time></trkpt>
<trkpt lat="50.709537" lon="5.965107"><time>2026-05-06T20:18:17Z</time></trkpt>
<trkpt lat="50.710903" lon="5.966745"><time>2026-05-06T20:28:17Z</time></trkpt>
<trkpt lat="50.711340" lon="5.967560"><time>2026-05-06T20:38:17Z</time></trkpt>
<trkpt lat="50.711496" lon="5.968236"><time>2026-05-06T20:48:17Z</time></trkpt>
<trkpt lat="50.711782" lon="5.970314"><time>2026-05-06T20:58:17Z</time></trkpt>
<trkpt lat="50.711822" lon="5.971167"><time>2026-05-06T21:08:17Z</time></trkpt>
<trkpt lat="50.712107" lon="5.972004"><time>2026-05-06T21:18:17Z</time></trkpt>
</trkseg>
</trk>
<trk>
<name>lpbmz30</name>
<cmt>s</cmt>
<desc>Montzen Chemin n°30 </desc>
<link href="https://chemins.be/montzen/chemin/30"/><trkseg>
<trkpt lat="50.713672" lon="5.952021"><time>2026-05-06T18:28:17Z</time></trkpt>
<trkpt lat="50.712841" lon="5.953445"><time>2026-05-06T18:38:17Z</time></trkpt>
<trkpt lat="50.712886" lon="5.954120"><time>2026-05-06T18:48:17Z</time></trkpt>
</trkseg>
</trk>
<trk>
<name>lpbmz31</name>
<cmt>d</cmt>
<desc>Montzen Chemin n°31 Gulpen</desc>
<link href="https://chemins.be/montzen/chemin/31"/><trkseg>
<trkpt lat="50.688796" lon="5.924297"><time>2026-05-06T18:28:17Z</time></trkpt>
<trkpt lat="50.687623" lon="5.924039"><time>2026-05-06T18:38:17Z</time></trkpt>
<trkpt lat="50.686905" lon="5.923925"><time>2026-05-06T18:48:17Z</time></trkpt>
<trkpt lat="50.685973" lon="5.924248"><time>2026-05-06T18:58:17Z</time></trkpt>
</trkseg></trk>
<trk>
<name>lpbmz31</name>
<cmt>r</cmt>
<desc>Montzen Chemin n°31 Gulpen</desc>
<link href="https://chemins.be/montzen/chemin/31"/><trkseg>
<trkpt lat="50.685973" lon="5.924248"><time>2026-05-06T18:58:17Z</time></trkpt>
<trkpt lat="50.684306" lon="5.924288"><time>2026-05-06T19:08:17Z</time></trkpt>
<trkpt lat="50.683210" lon="5.924231"><time>2026-05-06T19:18:17Z</time></trkpt>
<trkpt lat="50.682140" lon="5.924560"><time>2026-05-06T19:28:17Z</time></trkpt>
<trkpt lat="50.680844" lon="5.926133"><time>2026-05-06T19:38:17Z</time></trkpt>
</trkseg>
</trk>
<trk>
<name>lpbmz32</name>
<cmt>v</cmt>
<desc>Montzen Chemin n°32 </desc>
<link href="https://chemins.be/montzen/chemin/32"/><trkseg>
<trkpt lat="50.695554" lon="5.930075"><time>2026-05-06T18:28:17Z</time></trkpt>
<trkpt lat="50.695702" lon="5.931155"><time>2026-05-06T18:38:17Z</time></trkpt>
<trkpt lat="50.697807" lon="5.933094"><time>2026-05-06T18:48:17Z</time></trkpt>
</trkseg>
</trk>
<trk>
<name>lpbmz33</name>
<cmt>s</cmt>
<desc>Montzen Chemin n°33 </desc>
<link href="https://chemins.be/montzen/chemin/33"/><trkseg>
<trkpt lat="50.716707" lon="5.937354"><time>2026-05-06T18:28:17Z</time></trkpt>
<trkpt lat="50.717123" lon="5.936517"><time>2026-05-06T18:38:17Z</time></trkpt>
<trkpt lat="50.717535" lon="5.936331"><time>2026-05-06T18:48:17Z</time></trkpt>
<trkpt lat="50.718579" lon="5.935371"><time>2026-05-06T18:58:17Z</time></trkpt>
<trkpt lat="50.718959" lon="5.935018"><time>2026-05-06T19:08:17Z</time></trkpt>
<trkpt lat="50.719251" lon="5.933923"><time>2026-05-06T19:18:17Z</time></trkpt>
</trkseg>
</trk>
<trk>
<name>lpbmz34</name>
<cmt>v</cmt>
<desc>Montzen Chemin n°34 </desc>
<link href="https://chemins.be/montzen/chemin/34"/><trkseg>
<trkpt lat="50.715377" lon="5.934590"><time>2026-05-06T18:28:17Z</time></trkpt>
<trkpt lat="50.713800" lon="5.934652"><time>2026-05-06T18:38:17Z</time></trkpt>
<trkpt lat="50.712596" lon="5.935453"><time>2026-05-06T18:48:17Z</time></trkpt>
</trkseg>
</trk>
<trk>
<name>lpbmz35</name>
<cmt>v</cmt>
<desc>Montzen Chemin n°35 Rue du Bois</desc>
<link href="https://chemins.be/montzen/chemin/35"/><trkseg>
<trkpt lat="50.726896" lon="5.958050"><time>2026-05-06T18:28:17Z</time></trkpt>
<trkpt lat="50.727403" lon="5.956677"><time>2026-05-06T18:38:17Z</time></trkpt>
<trkpt lat="50.728105" lon="5.956390"><time>2026-05-06T18:48:17Z</time></trkpt>
<trkpt lat="50.729011" lon="5.954867"><time>2026-05-06T18:58:17Z</time></trkpt>
<trkpt lat="50.729359" lon="5.953615"><time>2026-05-06T19:08:17Z</time></trkpt>
<trkpt lat="50.729391" lon="5.953136"><time>2026-05-06T19:18:17Z</time></trkpt>
<trkpt lat="50.729187" lon="5.952063"><time>2026-05-06T19:28:17Z</time></trkpt>
<trkpt lat="50.728938" lon="5.951484"><time>2026-05-06T19:38:17Z</time></trkpt>
<trkpt lat="50.729272" lon="5.950462"><time>2026-05-06T19:48:17Z</time></trkpt>
<trkpt lat="50.729332" lon="5.949760"><time>2026-05-06T19:58:17Z</time></trkpt>
</trkseg>
</trk>
<trk>
<name>lpbmz36</name>
<cmt>s</cmt>
<desc>Montzen Chemin n°36 </desc>
<link href="https://chemins.be/montzen/chemin/36"/><trkseg>
<trkpt lat="50.720415" lon="5.945143"><time>2026-05-06T18:28:17Z</time></trkpt>
<trkpt lat="50.721905" lon="5.942733"><time>2026-05-06T18:38:17Z</time></trkpt>
<trkpt lat="50.722353" lon="5.940480"><time>2026-05-06T18:48:17Z</time></trkpt>
<trkpt lat="50.722353" lon="5.938734"><time>2026-05-06T18:58:17Z</time></trkpt>
</trkseg>
</trk>
<trk>
<name>lpbmz37</name>
<cmt>r</cmt>
<desc>Montzen Chemin n°37 Vosheydt</desc>
<link href="https://chemins.be/montzen/chemin/37"/><trkseg>
<trkpt lat="50.728963" lon="5.957280"><time>2026-05-06T18:28:17Z</time></trkpt>
<trkpt lat="50.729218" lon="5.957859"><time>2026-05-06T18:38:17Z</time></trkpt>
<trkpt lat="50.729680" lon="5.959351"><time>2026-05-06T18:48:17Z</time></trkpt>
</trkseg></trk>
<trk>
<name>lpbmz37</name>
<cmt>v</cmt>
<desc>Montzen Chemin n°37 Vosheydt</desc>
<link href="https://chemins.be/montzen/chemin/37"/><trkseg>
<trkpt lat="50.729680" lon="5.959351"><time>2026-05-06T18:48:17Z</time></trkpt>
<trkpt lat="50.730061" lon="5.960010"><time>2026-05-06T18:58:17Z</time></trkpt>
<trkpt lat="50.730491" lon="5.960367"><time>2026-05-06T19:08:17Z</time></trkpt>
</trkseg>
</trk>
<trk>
<name>lpbmz38</name>
<cmt>s</cmt>
<desc>Montzen Chemin/sentier n°38 </desc>
<link href="https://chemins.be/montzen/chemin/38"/><trkseg>
<trkpt lat="50.726300" lon="5.971394"><time>2026-05-06T18:28:17Z</time></trkpt>
<trkpt lat="50.725842" lon="5.972348"><time>2026-05-06T18:38:17Z</time></trkpt>
<trkpt lat="50.725217" lon="5.973321"><time>2026-05-06T18:48:17Z</time></trkpt>
<trkpt lat="50.725226" lon="5.974486"><time>2026-05-06T18:58:17Z</time></trkpt>
</trkseg>
</trk>
<trk>
<name>lpbmz39</name>
<cmt>s</cmt>
<desc>Montzen Chemin n°39 </desc>
<link href="https://chemins.be/montzen/chemin/39"/><trkseg>
<trkpt lat="50.718032" lon="5.954246"><time>2026-05-06T18:28:17Z</time></trkpt>
<trkpt lat="50.718003" lon="5.954175"><time>2026-05-06T18:38:17Z</time></trkpt>
<trkpt lat="50.717824" lon="5.953686"><time>2026-05-06T18:48:17Z</time></trkpt>
<trkpt lat="50.717783" lon="5.953404"><time>2026-05-06T18:58:17Z</time></trkpt>
</trkseg>
</trk>
<trk>
<name>lpbmz4</name>
<cmt>r</cmt>
<desc>Montzen Chemin n°4 Rue de la Poste / Rue de la Gare / Rue Hontem</desc>
<link href="https://chemins.be/montzen/chemin/4"/><trkseg>
<trkpt lat="50.707979" lon="5.962054"><time>2026-05-06T18:28:17Z</time></trkpt>
<trkpt lat="50.708844" lon="5.961981"><time>2026-05-06T18:38:17Z</time></trkpt>
<trkpt lat="50.711530" lon="5.961167"><time>2026-05-06T18:48:17Z</time></trkpt>
<trkpt lat="50.712436" lon="5.961223"><time>2026-05-06T18:58:17Z</time></trkpt>
<trkpt lat="50.713147" lon="5.961280"><time>2026-05-06T19:08:17Z</time></trkpt>
<trkpt lat="50.714442" lon="5.960707"><time>2026-05-06T19:18:17Z</time></trkpt>
<trkpt lat="50.715651" lon="5.960752"><time>2026-05-06T19:28:17Z</time></trkpt>
<trkpt lat="50.716467" lon="5.960089"><time>2026-05-06T19:38:17Z</time></trkpt>
</trkseg></trk>
<trk>
<name>lpbmz4</name>
<cmt>s</cmt>
<desc>Montzen Chemin n°4 Rue de la Poste / Rue de la Gare / Rue Hontem</desc>
<link href="https://chemins.be/montzen/chemin/4"/><trkseg>
<trkpt lat="50.716467" lon="5.960089"><time>2026-05-06T19:38:17Z</time></trkpt>
<trkpt lat="50.717692" lon="5.959281"><time>2026-05-06T19:48:17Z</time></trkpt>
<trkpt lat="50.720615" lon="5.957235"><time>2026-05-06T19:58:17Z</time></trkpt>
<trkpt lat="50.721414" lon="5.957339"><time>2026-05-06T20:08:17Z</time></trkpt>
</trkseg>
</trk>
<trk>
<name>lpbmz40</name>
<cmt>s</cmt>
<desc>Montzen Sentier n°40 Rue de Birken</desc>
<link href="https://chemins.be/montzen/sentier/40"/><trkseg>
<trkpt lat="50.706609" lon="5.962821"><time>2026-05-06T18:28:17Z</time></trkpt>
<trkpt lat="50.706641" lon="5.964054"><time>2026-05-06T18:38:17Z</time></trkpt>
<trkpt lat="50.705568" lon="5.965410"><time>2026-05-06T18:48:17Z</time></trkpt>
<trkpt lat="50.705171" lon="5.965731"><time>2026-05-06T18:58:17Z</time></trkpt>
<trkpt lat="50.704567" lon="5.966221"><time>2026-05-06T19:08:17Z</time></trkpt>
<trkpt lat="50.702428" lon="5.967954"><time>2026-05-06T19:18:17Z</time></trkpt>
</trkseg></trk>
<trk>
<name>lpbmz40</name>
<cmt>d</cmt>
<desc>Montzen Sentier n°40 Rue de Birken</desc>
<link href="https://chemins.be/montzen/sentier/40"/><trkseg>
<trkpt lat="50.702428" lon="5.967954"><time>2026-05-06T19:18:17Z</time></trkpt>
<trkpt lat="50.701177" lon="5.969465"><time>2026-05-06T19:28:17Z</time></trkpt>
</trkseg></trk>
<trk>
<name>lpbmz40</name>
<cmt>r</cmt>
<desc>Montzen Sentier n°40 Rue de Birken</desc>
<link href="https://chemins.be/montzen/sentier/40"/><trkseg>
<trkpt lat="50.701177" lon="5.969465"><time>2026-05-06T19:28:17Z</time></trkpt>
<trkpt lat="50.699651" lon="5.971701"><time>2026-05-06T19:38:17Z</time></trkpt>
<trkpt lat="50.698726" lon="5.973614"><time>2026-05-06T19:48:17Z</time></trkpt>
</trkseg>
</trk>
<trk>
<name>lpbmz41</name>
<cmt>s</cmt>
<desc>Montzen Sentier n°41 </desc>
<link href="https://chemins.be/montzen/sentier/41"/><trkseg>
<trkpt lat="50.707428" lon="5.963223"><time>2026-05-06T18:28:17Z</time></trkpt>
<trkpt lat="50.707265" lon="5.964375"><time>2026-05-06T18:38:17Z</time></trkpt>
<trkpt lat="50.707207" lon="5.965794"><time>2026-05-06T18:48:17Z</time></trkpt>
<trkpt lat="50.707068" lon="5.966774"><time>2026-05-06T18:58:17Z</time></trkpt>
<trkpt lat="50.706954" lon="5.967531"><time>2026-05-06T19:08:17Z</time></trkpt>
<trkpt lat="50.706750" lon="5.968381"><time>2026-05-06T19:18:17Z</time></trkpt>
</trkseg></trk>
<trk>
<name>lpbmz41</name>
<cmt>v</cmt>
<desc>Montzen Sentier n°41 </desc>
<link href="https://chemins.be/montzen/sentier/41"/><trkseg>
<trkpt lat="50.706750" lon="5.968381"><time>2026-05-06T19:18:17Z</time></trkpt>
<trkpt lat="50.706499" lon="5.969052"><time>2026-05-06T19:28:17Z</time></trkpt>
<trkpt lat="50.706504" lon="5.969766"><time>2026-05-06T19:38:17Z</time></trkpt>
<trkpt lat="50.705988" lon="5.971382"><time>2026-05-06T19:48:17Z</time></trkpt>
</trkseg></trk>
<trk>
<name>lpbmz41</name>
<cmt>q</cmt>
<desc>Montzen Sentier n°41 </desc>
<link href="https://chemins.be/montzen/sentier/41"/><trkseg>
<trkpt lat="50.705988" lon="5.971382"><time>2026-05-06T19:48:17Z</time></trkpt>
<trkpt lat="50.705675" lon="5.972427"><time>2026-05-06T19:58:17Z</time></trkpt>
<trkpt lat="50.705838" lon="5.974308"><time>2026-05-06T20:08:17Z</time></trkpt>
</trkseg></trk>
<trk>
<name>lpbmz41</name>
<cmt>v</cmt>
<desc>Montzen Sentier n°41 </desc>
<link href="https://chemins.be/montzen/sentier/41"/><trkseg>
<trkpt lat="50.705838" lon="5.974308"><time>2026-05-06T20:08:17Z</time></trkpt>
<trkpt lat="50.705906" lon="5.975008"><time>2026-05-06T20:18:17Z</time></trkpt>
<trkpt lat="50.705371" lon="5.976675"><time>2026-05-06T20:28:17Z</time></trkpt>
<trkpt lat="50.702844" lon="5.981289"><time>2026-05-06T20:38:17Z</time></trkpt>
<trkpt lat="50.702603" lon="5.981777"><time>2026-05-06T20:48:17Z</time></trkpt>
</trkseg>
</trk>
<trk>
<name>lpbmz42</name>
<cmt>r</cmt>
<desc>Montzen Sentier n°42 Cosenbergerheydt</desc>
<link href="https://chemins.be/montzen/sentier/42"/><trkseg>
<trkpt lat="50.706806" lon="5.975145"><time>2026-05-06T18:28:17Z</time></trkpt>
<trkpt lat="50.706758" lon="5.974723"><time>2026-05-06T18:38:17Z</time></trkpt>
</trkseg></trk>
<trk>
<name>lpbmz42</name>
<cmt>q</cmt>
<desc>Montzen Sentier n°42 Cosenbergerheydt</desc>
<link href="https://chemins.be/montzen/sentier/42"/><trkseg>
<trkpt lat="50.706758" lon="5.974723"><time>2026-05-06T18:38:17Z</time></trkpt>
<trkpt lat="50.706706" lon="5.974001"><time>2026-05-06T18:48:17Z</time></trkpt>
<trkpt lat="50.706607" lon="5.973243"><time>2026-05-06T18:58:17Z</time></trkpt>
<trkpt lat="50.706640" lon="5.971561"><time>2026-05-06T19:08:17Z</time></trkpt>
<trkpt lat="50.706542" lon="5.969757"><time>2026-05-06T19:18:17Z</time></trkpt>
</trkseg></trk>
<trk>
<name>lpbmz42</name>
<cmt>v</cmt>
<desc>Montzen Sentier n°42 Cosenbergerheydt</desc>
<link href="https://chemins.be/montzen/sentier/42"/><trkseg>
<trkpt lat="50.706542" lon="5.969757"><time>2026-05-06T19:18:17Z</time></trkpt>
<trkpt lat="50.706501" lon="5.969010"><time>2026-05-06T19:28:17Z</time></trkpt>
</trkseg>
</trk>
<trk>
<name>lpbmz43</name>
<cmt>d</cmt>
<desc>Montzen Sentier n°43 Cosenbergerheydt</desc>
<link href="https://chemins.be/montzen/sentier/43"/><trkseg>
<trkpt lat="50.698254" lon="5.972827"><time>2026-05-06T18:28:17Z</time></trkpt>
<trkpt lat="50.698489" lon="5.972537"><time>2026-05-06T18:38:17Z</time></trkpt>
<trkpt lat="50.698637" lon="5.972519"><time>2026-05-06T18:48:17Z</time></trkpt>
<trkpt lat="50.698918" lon="5.972304"><time>2026-05-06T18:58:17Z</time></trkpt>
</trkseg></trk>
<trk>
<name>lpbmz43</name>
<cmt>s</cmt>
<desc>Montzen Sentier n°43 Cosenbergerheydt</desc>
<link href="https://chemins.be/montzen/sentier/43"/><trkseg>
<trkpt lat="50.698918" lon="5.972304"><time>2026-05-06T18:58:17Z</time></trkpt>
<trkpt lat="50.699641" lon="5.971749"><time>2026-05-06T19:08:17Z</time></trkpt>
<trkpt lat="50.700239" lon="5.970942"><time>2026-05-06T19:18:17Z</time></trkpt>
</trkseg></trk>
<trk>
<name>lpbmz43</name>
<cmt>d</cmt>
<desc>Montzen Sentier n°43 Cosenbergerheydt</desc>
<link href="https://chemins.be/montzen/sentier/43"/><trkseg>
<trkpt lat="50.700239" lon="5.970942"><time>2026-05-06T19:18:17Z</time></trkpt>
<trkpt lat="50.700262" lon="5.971758"><time>2026-05-06T19:28:17Z</time></trkpt>
<trkpt lat="50.700765" lon="5.971775"><time>2026-05-06T19:38:17Z</time></trkpt>
<trkpt lat="50.703301" lon="5.971835"><time>2026-05-06T19:48:17Z</time></trkpt>
<trkpt lat="50.704699" lon="5.973455"><time>2026-05-06T19:58:17Z</time></trkpt>
<trkpt lat="50.705166" lon="5.972797"><time>2026-05-06T20:08:17Z</time></trkpt>
<trkpt lat="50.706767" lon="5.972984"><time>2026-05-06T20:18:17Z</time></trkpt>
</trkseg></trk>
<trk>
<name>lpbmz43</name>
<cmt>r</cmt>
<desc>Montzen Sentier n°43 Cosenbergerheydt</desc>
<link href="https://chemins.be/montzen/sentier/43"/><trkseg>
<trkpt lat="50.706767" lon="5.972984"><time>2026-05-06T20:18:17Z</time></trkpt>
<trkpt lat="50.706749" lon="5.972781"><time>2026-05-06T20:28:17Z</time></trkpt>
<trkpt lat="50.706934" lon="5.972097"><time>2026-05-06T20:38:17Z</time></trkpt>
</trkseg></trk>
<trk>
<name>lpbmz43</name>
<cmt>d</cmt>
<desc>Montzen Sentier n°43 Cosenbergerheydt</desc>
<link href="https://chemins.be/montzen/sentier/43"/><trkseg>
<trkpt lat="50.706934" lon="5.972097"><time>2026-05-06T20:38:17Z</time></trkpt>
<trkpt lat="50.708633" lon="5.971368"><time>2026-05-06T20:48:17Z</time></trkpt>
<trkpt lat="50.708850" lon="5.970409"><time>2026-05-06T20:58:17Z</time></trkpt>
</trkseg>
</trk>
<trk>
<name>lpbmz44</name>
<cmt>r</cmt>
<desc>Montzen Sentier n°44 </desc>
<link href="https://chemins.be/montzen/sentier/44"/><trkseg>
<trkpt lat="50.708039" lon="5.963767"><time>2026-05-06T18:28:17Z</time></trkpt>
<trkpt lat="50.707842" lon="5.964044"><time>2026-05-06T18:38:17Z</time></trkpt>
<trkpt lat="50.707693" lon="5.964172"><time>2026-05-06T18:48:17Z</time></trkpt>
<trkpt lat="50.707596" lon="5.964110"><time>2026-05-06T18:58:17Z</time></trkpt>
</trkseg></trk>
<trk>
<name>lpbmz44</name>
<cmt>s</cmt>
<desc>Montzen Sentier n°44 </desc>
<link href="https://chemins.be/montzen/sentier/44"/><trkseg>
<trkpt lat="50.707596" lon="5.964110"><time>2026-05-06T18:58:17Z</time></trkpt>
<trkpt lat="50.706792" lon="5.964825"><time>2026-05-06T19:08:17Z</time></trkpt>
<trkpt lat="50.706473" lon="5.965018"><time>2026-05-06T19:18:17Z</time></trkpt>
<trkpt lat="50.705653" lon="5.965354"><time>2026-05-06T19:28:17Z</time></trkpt>
</trkseg>
</trk>
<trk>
<name>lpbmz45</name>
<cmt>v</cmt>
<desc>Montzen Sentier n°45 Steenteveld</desc>
<link href="https://chemins.be/montzen/sentier/45"/><trkseg>
<trkpt lat="50.713388" lon="5.961214"><time>2026-05-06T18:28:17Z</time></trkpt>
<trkpt lat="50.713567" lon="5.961664"><time>2026-05-06T18:38:17Z</time></trkpt>
</trkseg></trk>
<trk>
<name>lpbmz45</name>
<cmt>d</cmt>
<desc>Montzen Sentier n°45 Steenteveld</desc>
<link href="https://chemins.be/montzen/sentier/45"/><trkseg>
<trkpt lat="50.713567" lon="5.961664"><time>2026-05-06T18:38:17Z</time></trkpt>
<trkpt lat="50.712727" lon="5.962405"><time>2026-05-06T18:48:17Z</time></trkpt>
<trkpt lat="50.712316" lon="5.962504"><time>2026-05-06T18:58:17Z</time></trkpt>
<trkpt lat="50.711409" lon="5.963082"><time>2026-05-06T19:08:17Z</time></trkpt>
<trkpt lat="50.711170" lon="5.963732"><time>2026-05-06T19:18:17Z</time></trkpt>
</trkseg></trk>
<trk>
<name>lpbmz45</name>
<cmt>r</cmt>
<desc>Montzen Sentier n°45 Steenteveld</desc>
<link href="https://chemins.be/montzen/sentier/45"/><trkseg>
<trkpt lat="50.711170" lon="5.963732"><time>2026-05-06T19:18:17Z</time></trkpt>
<trkpt lat="50.711382" lon="5.963896"><time>2026-05-06T19:28:17Z</time></trkpt>
</trkseg></trk>
<trk>
<name>lpbmz45</name>
<cmt>s</cmt>
<desc>Montzen Sentier n°45 Steenteveld</desc>
<link href="https://chemins.be/montzen/sentier/45"/><trkseg>
<trkpt lat="50.711382" lon="5.963896"><time>2026-05-06T19:28:17Z</time></trkpt>
<trkpt lat="50.709495" lon="5.965086"><time>2026-05-06T19:38:17Z</time></trkpt>
<trkpt lat="50.708269" lon="5.965745"><time>2026-05-06T19:48:17Z</time></trkpt>
<trkpt lat="50.707194" lon="5.965317"><time>2026-05-06T19:58:17Z</time></trkpt>
<trkpt lat="50.707126" lon="5.965489"><time>2026-05-06T20:08:17Z</time></trkpt>
<trkpt lat="50.706745" lon="5.964827"><time>2026-05-06T20:18:17Z</time></trkpt>
<trkpt lat="50.706607" lon="5.964019"><time>2026-05-06T20:28:17Z</time></trkpt>
</trkseg>
</trk>
<trk>
<name>lpbmz45bis</name>
<cmt>v</cmt>
<desc>Montzen Sentier n°45bis Steenteveld / Rue Gustave Demoulin</desc>
<link href="https://chemins.be/montzen/sentier/45bis"/><trkseg>
<trkpt lat="50.710843" lon="5.963492"><time>2026-05-06T18:28:17Z</time></trkpt>
<trkpt lat="50.710580" lon="5.964207"><time>2026-05-06T18:38:17Z</time></trkpt>
<trkpt lat="50.710309" lon="5.964976"><time>2026-05-06T18:48:17Z</time></trkpt>
<trkpt lat="50.709967" lon="5.965624"><time>2026-05-06T18:58:17Z</time></trkpt>
</trkseg>
</trk>
<trk>
<name>lpbmz45ter</name>
<cmt>v</cmt>
<desc>Montzen Sentier n°45ter </desc>
<link href="https://chemins.be/montzen/sentier/45ter"/><trkseg>
<trkpt lat="50.708520" lon="5.965289"><time>2026-05-06T18:28:17Z</time></trkpt>
<trkpt lat="50.708238" lon="5.965885"><time>2026-05-06T18:38:17Z</time></trkpt>
<trkpt lat="50.707906" lon="5.966780"><time>2026-05-06T18:48:17Z</time></trkpt>
<trkpt lat="50.707763" lon="5.967344"><time>2026-05-06T18:58:17Z</time></trkpt>
<trkpt lat="50.706761" lon="5.968368"><time>2026-05-06T19:08:17Z</time></trkpt>
</trkseg>
</trk>
<trk>
<name>lpbmz46</name>
<cmt>s</cmt>
<desc>Montzen Sentier n°46 </desc>
<link href="https://chemins.be/montzen/sentier/46"/><trkseg>
<trkpt lat="50.707986" lon="5.963868"><time>2026-05-06T18:28:17Z</time></trkpt>
<trkpt lat="50.708195" lon="5.964430"><time>2026-05-06T18:38:17Z</time></trkpt>
<trkpt lat="50.708115" lon="5.964640"><time>2026-05-06T18:48:17Z</time></trkpt>
<trkpt lat="50.708163" lon="5.964956"><time>2026-05-06T18:58:17Z</time></trkpt>
<trkpt lat="50.708301" lon="5.965868"><time>2026-05-06T19:08:17Z</time></trkpt>
<trkpt lat="50.708695" lon="5.967081"><time>2026-05-06T19:18:17Z</time></trkpt>
<trkpt lat="50.708866" lon="5.967611"><time>2026-05-06T19:28:17Z</time></trkpt>
<trkpt lat="50.709087" lon="5.968291"><time>2026-05-06T19:38:17Z</time></trkpt>
<trkpt lat="50.709522" lon="5.968720"><time>2026-05-06T19:48:17Z</time></trkpt>
<trkpt lat="50.710109" lon="5.970152"><time>2026-05-06T19:58:17Z</time></trkpt>
</trkseg>
</trk>
<trk>
<name>lpbmz46bis</name>
<cmt>d</cmt>
<desc>Montzen Sentier n°46bis </desc>
<link href="https://chemins.be/montzen/sentier/46bis"/><trkseg>
<trkpt lat="50.707797" lon="5.967269"><time>2026-05-06T18:28:17Z</time></trkpt>
<trkpt lat="50.708711" lon="5.967768"><time>2026-05-06T18:38:17Z</time></trkpt>
<trkpt lat="50.708534" lon="5.968266"><time>2026-05-06T18:48:17Z</time></trkpt>
<trkpt lat="50.708809" lon="5.968814"><time>2026-05-06T18:58:17Z</time></trkpt>
</trkseg>
</trk>
<trk>
<name>lpbmz47</name>
<cmt>s</cmt>
<desc>Montzen Sentier n°47 </desc>
<link href="https://chemins.be/montzen/sentier/47"/><trkseg>
<trkpt lat="50.709472" lon="5.969905"><time>2026-05-06T18:28:17Z</time></trkpt>
<trkpt lat="50.709513" lon="5.968693"><time>2026-05-06T18:38:17Z</time></trkpt>
</trkseg>
</trk>
<trk>
<name>lpbmz48</name>
<cmt>d</cmt>
<desc>Montzen Sentier n°48 Rue Gustave Demoulin</desc>
<link href="https://chemins.be/montzen/sentier/48"/><trkseg>
<trkpt lat="50.711204" lon="5.972560"><time>2026-05-06T18:28:17Z</time></trkpt>
<trkpt lat="50.711404" lon="5.971889"><time>2026-05-06T18:38:17Z</time></trkpt>
<trkpt lat="50.711870" lon="5.971317"><time>2026-05-06T18:48:17Z</time></trkpt>
</trkseg></trk>
<trk>
<name>lpbmz48</name>
<cmt>r</cmt>
<desc>Montzen Sentier n°48 Rue Gustave Demoulin</desc>
<link href="https://chemins.be/montzen/sentier/48"/><trkseg>
<trkpt lat="50.711870" lon="5.971317"><time>2026-05-06T18:48:17Z</time></trkpt>
<trkpt lat="50.712049" lon="5.971845"><time>2026-05-06T18:58:17Z</time></trkpt>
</trkseg></trk>
<trk>
<name>lpbmz48</name>
<cmt>s</cmt>
<desc>Montzen Sentier n°48 Rue Gustave Demoulin</desc>
<link href="https://chemins.be/montzen/sentier/48"/><trkseg>
<trkpt lat="50.712049" lon="5.971845"><time>2026-05-06T18:58:17Z</time></trkpt>
<trkpt lat="50.712404" lon="5.971874"><time>2026-05-06T19:08:17Z</time></trkpt>
</trkseg>
</trk>
<trk>
<name>lpbmz49</name>
<cmt>s</cmt>
<desc>Montzen Sentier n°49 </desc>
<link href="https://chemins.be/montzen/sentier/49"/><trkseg>
<trkpt lat="50.708868" lon="5.962011"><time>2026-05-06T18:28:17Z</time></trkpt>
<trkpt lat="50.710408" lon="5.964645"><time>2026-05-06T18:38:17Z</time></trkpt>
<trkpt lat="50.711475" lon="5.966146"><time>2026-05-06T18:48:17Z</time></trkpt>
</trkseg></trk>
<trk>
<name>lpbmz49</name>
<cmt>d</cmt>
<desc>Montzen Sentier n°49 </desc>
<link href="https://chemins.be/montzen/sentier/49"/><trkseg>
<trkpt lat="50.711475" lon="5.966146"><time>2026-05-06T18:48:17Z</time></trkpt>
<trkpt lat="50.712727" lon="5.967625"><time>2026-05-06T18:58:17Z</time></trkpt>
<trkpt lat="50.713732" lon="5.968913"><time>2026-05-06T19:08:17Z</time></trkpt>
</trkseg></trk>
<trk>
<name>lpbmz49</name>
<cmt>s</cmt>
<desc>Montzen Sentier n°49 </desc>
<link href="https://chemins.be/montzen/sentier/49"/><trkseg>
<trkpt lat="50.713732" lon="5.968913"><time>2026-05-06T19:08:17Z</time></trkpt>
<trkpt lat="50.714118" lon="5.969636"><time>2026-05-06T19:18:17Z</time></trkpt>
</trkseg></trk>
<trk>
<name>lpbmz49</name>
<cmt>d</cmt>
<desc>Montzen Sentier n°49 </desc>
<link href="https://chemins.be/montzen/sentier/49"/><trkseg>
<trkpt lat="50.714118" lon="5.969636"><time>2026-05-06T19:18:17Z</time></trkpt>
<trkpt lat="50.714695" lon="5.970686"><time>2026-05-06T19:28:17Z</time></trkpt>
</trkseg>
</trk>
<trk>
<name>lpbmz5</name>
<cmt>r</cmt>
<desc>Montzen Chemin n°5 Rue du Chateau de Graaf / Rue du Château de Graaf</desc>
<link href="https://chemins.be/montzen/chemin/5"/><trkseg>
<trkpt lat="50.707814" lon="5.958517"><time>2026-05-06T18:28:17Z</time></trkpt>
<trkpt lat="50.706694" lon="5.953264"><time>2026-05-06T18:38:17Z</time></trkpt>
<trkpt lat="50.704977" lon="5.951573"><time>2026-05-06T18:48:17Z</time></trkpt>
<trkpt lat="50.704319" lon="5.951607"><time>2026-05-06T18:58:17Z</time></trkpt>
<trkpt lat="50.703947" lon="5.951224"><time>2026-05-06T19:08:17Z</time></trkpt>
<trkpt lat="50.703851" lon="5.951037"><time>2026-05-06T19:18:17Z</time></trkpt>
<trkpt lat="50.703214" lon="5.949599"><time>2026-05-06T19:28:17Z</time></trkpt>
<trkpt lat="50.703099" lon="5.949411"><time>2026-05-06T19:38:17Z</time></trkpt>
<trkpt lat="50.702307" lon="5.948818"><time>2026-05-06T19:48:17Z</time></trkpt>
<trkpt lat="50.701589" lon="5.948030"><time>2026-05-06T19:58:17Z</time></trkpt>
<trkpt lat="50.701281" lon="5.947566"><time>2026-05-06T20:08:17Z</time></trkpt>
<trkpt lat="50.701227" lon="5.947522"><time>2026-05-06T20:18:17Z</time></trkpt>
<trkpt lat="50.701156" lon="5.947505"><time>2026-05-06T20:28:17Z</time></trkpt>
<trkpt lat="50.700711" lon="5.947652"><time>2026-05-06T20:38:17Z</time></trkpt>
<trkpt lat="50.700446" lon="5.947691"><time>2026-05-06T20:48:17Z</time></trkpt>
<trkpt lat="50.698438" lon="5.945814"><time>2026-05-06T20:58:17Z</time></trkpt>
<trkpt lat="50.694714" lon="5.944118"><time>2026-05-06T21:08:17Z</time></trkpt>
<trkpt lat="50.693436" lon="5.940106"><time>2026-05-06T21:18:17Z</time></trkpt>
<trkpt lat="50.691922" lon="5.938293"><time>2026-05-06T21:28:17Z</time></trkpt>
<trkpt lat="50.689616" lon="5.934591"><time>2026-05-06T21:38:17Z</time></trkpt>
<trkpt lat="50.689329" lon="5.932892"><time>2026-05-06T21:48:17Z</time></trkpt>
<trkpt lat="50.689195" lon="5.932596"><time>2026-05-06T21:58:17Z</time></trkpt>
<trkpt lat="50.686666" lon="5.931158"><time>2026-05-06T22:08:17Z</time></trkpt>
<trkpt lat="50.683118" lon="5.927145"><time>2026-05-06T22:18:17Z</time></trkpt>
<trkpt lat="50.681624" lon="5.926352"><time>2026-05-06T22:28:17Z</time></trkpt>
<trkpt lat="50.680847" lon="5.926201"><time>2026-05-06T22:38:17Z</time></trkpt>
</trkseg></trk>
<trk>
<name>lpbmz5</name>
<cmt>d</cmt>
<desc>Montzen Chemin n°5 Rue du Chateau de Graaf / Rue du Château de Graaf</desc>
<link href="https://chemins.be/montzen/chemin/5"/><trkseg>
<trkpt lat="50.680847" lon="5.926201"><time>2026-05-06T22:38:17Z</time></trkpt>
<trkpt lat="50.678549" lon="5.922334"><time>2026-05-06T22:48:17Z</time></trkpt>
</trkseg>
</trk>
<trk>
<name>lpbmz50</name>
<cmt>v</cmt>
<desc>Montzen Sentier n°50 </desc>
<link href="https://chemins.be/montzen/sentier/50"/><trkseg>
<trkpt lat="50.713059" lon="5.954047"><time>2026-05-06T18:28:17Z</time></trkpt>
<trkpt lat="50.713284" lon="5.955270"><time>2026-05-06T18:38:17Z</time></trkpt>
</trkseg></trk>
<trk>
<name>lpbmz50</name>
<cmt>d</cmt>
<desc>Montzen Sentier n°50 </desc>
<link href="https://chemins.be/montzen/sentier/50"/><trkseg>
<trkpt lat="50.713284" lon="5.955270"><time>2026-05-06T18:38:17Z</time></trkpt>
<trkpt lat="50.713564" lon="5.956969"><time>2026-05-06T18:48:17Z</time></trkpt>
<trkpt lat="50.713551" lon="5.959099"><time>2026-05-06T18:58:17Z</time></trkpt>
<trkpt lat="50.713356" lon="5.960492"><time>2026-05-06T19:08:17Z</time></trkpt>
<trkpt lat="50.713383" lon="5.961211"><time>2026-05-06T19:18:17Z</time></trkpt>
</trkseg></trk>
<trk>
<name>lpbmz50</name>
<cmt>v</cmt>
<desc>Montzen Sentier n°50 </desc>
<link href="https://chemins.be/montzen/sentier/50"/><trkseg>
<trkpt lat="50.713383" lon="5.961211"><time>2026-05-06T19:18:17Z</time></trkpt>
<trkpt lat="50.714409" lon="5.963355"><time>2026-05-06T19:28:17Z</time></trkpt>
<trkpt lat="50.714570" lon="5.964740"><time>2026-05-06T19:38:17Z</time></trkpt>
<trkpt lat="50.714633" lon="5.964891"><time>2026-05-06T19:48:17Z</time></trkpt>
<trkpt lat="50.714632" lon="5.965159"><time>2026-05-06T19:58:17Z</time></trkpt>
<trkpt lat="50.714648" lon="5.965303"><time>2026-05-06T20:08:17Z</time></trkpt>
</trkseg></trk>
<trk>
<name>lpbmz50</name>
<cmt>q</cmt>
<desc>Montzen Sentier n°50 </desc>
<link href="https://chemins.be/montzen/sentier/50"/><trkseg>
<trkpt lat="50.714648" lon="5.965303"><time>2026-05-06T20:08:17Z</time></trkpt>
<trkpt lat="50.714720" lon="5.966982"><time>2026-05-06T20:18:17Z</time></trkpt>
<trkpt lat="50.715064" lon="5.968241"><time>2026-05-06T20:28:17Z</time></trkpt>
</trkseg></trk>
<trk>
<name>lpbmz50</name>
<cmt>s</cmt>
<desc>Montzen Sentier n°50 </desc>
<link href="https://chemins.be/montzen/sentier/50"/><trkseg>
<trkpt lat="50.715064" lon="5.968241"><time>2026-05-06T20:28:17Z</time></trkpt>
<trkpt lat="50.715200" lon="5.968851"><time>2026-05-06T20:38:17Z</time></trkpt>
</trkseg></trk>
<trk>
<name>lpbmz50</name>
<cmt>q</cmt>
<desc>Montzen Sentier n°50 </desc>
<link href="https://chemins.be/montzen/sentier/50"/><trkseg>
<trkpt lat="50.715200" lon="5.968851"><time>2026-05-06T20:38:17Z</time></trkpt>
<trkpt lat="50.715571" lon="5.970157"><time>2026-05-06T20:48:17Z</time></trkpt>
</trkseg>
</trk>
<trk>
<name>lpbmz51</name>
<cmt>v</cmt>
<desc>Montzen Sentier n°51 </desc>
<link href="https://chemins.be/montzen/sentier/51"/><trkseg>
<trkpt lat="50.716122" lon="5.960778"><time>2026-05-06T18:28:17Z</time></trkpt>
<trkpt lat="50.715851" lon="5.961513"><time>2026-05-06T18:38:17Z</time></trkpt>
<trkpt lat="50.715644" lon="5.961550"><time>2026-05-06T18:48:17Z</time></trkpt>
</trkseg></trk>
<trk>
<name>lpbmz51</name>
<cmt>d</cmt>
<desc>Montzen Sentier n°51 </desc>
<link href="https://chemins.be/montzen/sentier/51"/><trkseg>
<trkpt lat="50.715644" lon="5.961550"><time>2026-05-06T18:48:17Z</time></trkpt>
<trkpt lat="50.715333" lon="5.963286"><time>2026-05-06T18:58:17Z</time></trkpt>
<trkpt lat="50.715393" lon="5.963647"><time>2026-05-06T19:08:17Z</time></trkpt>
<trkpt lat="50.715291" lon="5.964269"><time>2026-05-06T19:18:17Z</time></trkpt>
<trkpt lat="50.714596" lon="5.964927"><time>2026-05-06T19:28:17Z</time></trkpt>
<trkpt lat="50.714354" lon="5.965328"><time>2026-05-06T19:38:17Z</time></trkpt>
<trkpt lat="50.712848" lon="5.967638"><time>2026-05-06T19:48:17Z</time></trkpt>
<trkpt lat="50.711604" lon="5.968798"><time>2026-05-06T19:58:17Z</time></trkpt>
</trkseg>
</trk>
<trk>
<name>lpbmz52</name>
<cmt>s</cmt>
<desc>Montzen Sentier n°52 </desc>
<link href="https://chemins.be/montzen/sentier/52"/><trkseg>
<trkpt lat="50.704185" lon="5.963050"><time>2026-05-06T18:28:17Z</time></trkpt>
<trkpt lat="50.703085" lon="5.962377"><time>2026-05-06T18:38:17Z</time></trkpt>
<trkpt lat="50.701612" lon="5.962191"><time>2026-05-06T18:48:17Z</time></trkpt>
</trkseg>
</trk>
<trk>
<name>lpbmz53</name>
<cmt>v</cmt>
<desc>Montzen Sentier n°53 </desc>
<link href="https://chemins.be/montzen/sentier/53"/><trkseg>
<trkpt lat="50.706536" lon="5.962098"><time>2026-05-06T18:28:17Z</time></trkpt>
<trkpt lat="50.706266" lon="5.962014"><time>2026-05-06T18:38:17Z</time></trkpt>
<trkpt lat="50.705854" lon="5.961163"><time>2026-05-06T18:48:17Z</time></trkpt>
<trkpt lat="50.704672" lon="5.959582"><time>2026-05-06T18:58:17Z</time></trkpt>
<trkpt lat="50.703893" lon="5.959411"><time>2026-05-06T19:08:17Z</time></trkpt>
<trkpt lat="50.702924" lon="5.957952"><time>2026-05-06T19:18:17Z</time></trkpt>
<trkpt lat="50.699943" lon="5.949411"><time>2026-05-06T19:28:17Z</time></trkpt>
</trkseg></trk>
<trk>
<name>lpbmz53</name>
<cmt>d</cmt>
<desc>Montzen Sentier n°53 </desc>
<link href="https://chemins.be/montzen/sentier/53"/><trkseg>
<trkpt lat="50.699943" lon="5.949411"><time>2026-05-06T19:28:17Z</time></trkpt>
<trkpt lat="50.698122" lon="5.945663"><time>2026-05-06T19:38:17Z</time></trkpt>
</trkseg></trk>
<trk>
<name>lpbmz53</name>
<cmt>s</cmt>
<desc>Montzen Sentier n°53 </desc>
<link href="https://chemins.be/montzen/sentier/53"/><trkseg>
<trkpt lat="50.698122" lon="5.945663"><time>2026-05-06T19:38:17Z</time></trkpt>
<trkpt lat="50.696548" lon="5.942300"><time>2026-05-06T19:48:17Z</time></trkpt>
</trkseg></trk>
<trk>
<name>lpbmz53</name>
<cmt>d</cmt>
<desc>Montzen Sentier n°53 </desc>
<link href="https://chemins.be/montzen/sentier/53"/><trkseg>
<trkpt lat="50.696548" lon="5.942300"><time>2026-05-06T19:48:17Z</time></trkpt>
<trkpt lat="50.696218" lon="5.941989"><time>2026-05-06T19:58:17Z</time></trkpt>
</trkseg></trk>
<trk>
<name>lpbmz53</name>
<cmt>v</cmt>
<desc>Montzen Sentier n°53 </desc>
<link href="https://chemins.be/montzen/sentier/53"/><trkseg>
<trkpt lat="50.696218" lon="5.941989"><time>2026-05-06T19:58:17Z</time></trkpt>
<trkpt lat="50.695321" lon="5.940723"><time>2026-05-06T20:08:17Z</time></trkpt>
<trkpt lat="50.695151" lon="5.940925"><time>2026-05-06T20:18:17Z</time></trkpt>
</trkseg></trk>
<trk>
<name>lpbmz53</name>
<cmt>s</cmt>
<desc>Montzen Sentier n°53 </desc>
<link href="https://chemins.be/montzen/sentier/53"/><trkseg>
<trkpt lat="50.695151" lon="5.940925"><time>2026-05-06T20:18:17Z</time></trkpt>
<trkpt lat="50.694342" lon="5.940299"><time>2026-05-06T20:28:17Z</time></trkpt>
<trkpt lat="50.693568" lon="5.940396"><time>2026-05-06T20:38:17Z</time></trkpt>
</trkseg>
</trk>
<trk>
<name>lpbmz53bis</name>
<cmt>q</cmt>
<desc>Montzen Chemin n°53bis </desc>
<link href="https://chemins.be/montzen/chemin/53bis"/><trkseg>
<trkpt lat="50.696582" lon="5.944943"><time>2026-05-06T18:28:17Z</time></trkpt>
<trkpt lat="50.696401" lon="5.943949"><time>2026-05-06T18:38:17Z</time></trkpt>
<trkpt lat="50.696251" lon="5.942053"><time>2026-05-06T18:48:17Z</time></trkpt>
</trkseg>
</trk>
<trk>
<name>lpbmz54</name>
<cmt>v</cmt>
<desc>Montzen Sentier n°54 Sentier 54 / Rue de Hombourg</desc>
<link href="https://chemins.be/montzen/sentier/54"/><trkseg>
<trkpt lat="50.709465" lon="5.961800"><time>2026-05-06T18:28:17Z</time></trkpt>
<trkpt lat="50.709395" lon="5.961363"><time>2026-05-06T18:38:17Z</time></trkpt>
<trkpt lat="50.710506" lon="5.956864"><time>2026-05-06T18:48:17Z</time></trkpt>
<trkpt lat="50.710316" lon="5.955605"><time>2026-05-06T18:58:17Z</time></trkpt>
</trkseg></trk>
<trk>
<name>lpbmz54</name>
<cmt>r</cmt>
<desc>Montzen Sentier n°54 Sentier 54 / Rue de Hombourg</desc>
<link href="https://chemins.be/montzen/sentier/54"/><trkseg>
<trkpt lat="50.710316" lon="5.955605"><time>2026-05-06T18:58:17Z</time></trkpt>
<trkpt lat="50.713641" lon="5.953603"><time>2026-05-06T19:08:17Z</time></trkpt>
<trkpt lat="50.713858" lon="5.948939"><time>2026-05-06T19:18:17Z</time></trkpt>
<trkpt lat="50.715121" lon="5.946434"><time>2026-05-06T19:28:17Z</time></trkpt>
<trkpt lat="50.716081" lon="5.946785"><time>2026-05-06T19:38:17Z</time></trkpt>
<trkpt lat="50.716348" lon="5.946041"><time>2026-05-06T19:48:17Z</time></trkpt>
<trkpt lat="50.718049" lon="5.943432"><time>2026-05-06T19:58:17Z</time></trkpt>
<trkpt lat="50.717137" lon="5.939140"><time>2026-05-06T20:08:17Z</time></trkpt>
</trkseg></trk>
<trk>
<name>lpbmz54</name>
<cmt>d</cmt>
<desc>Montzen Sentier n°54 Sentier 54 / Rue de Hombourg</desc>
<link href="https://chemins.be/montzen/sentier/54"/><trkseg>
<trkpt lat="50.717137" lon="5.939140"><time>2026-05-06T20:08:17Z</time></trkpt>
<trkpt lat="50.718785" lon="5.937881"><time>2026-05-06T20:18:17Z</time></trkpt>
<trkpt lat="50.719338" lon="5.936837"><time>2026-05-06T20:28:17Z</time></trkpt>
<trkpt lat="50.719003" lon="5.935049"><time>2026-05-06T20:38:17Z</time></trkpt>
<trkpt lat="50.719312" lon="5.933948"><time>2026-05-06T20:48:17Z</time></trkpt>
</trkseg>
</trk>
<trk>
<name>lpbmz55</name>
<cmt>d</cmt>
<desc>Montzen Sentier n°55 </desc>
<link href="https://chemins.be/montzen/sentier/55"/><trkseg>
<trkpt lat="50.707652" lon="5.957852"><time>2026-05-06T18:28:17Z</time></trkpt>
<trkpt lat="50.706287" lon="5.957524"><time>2026-05-06T18:38:17Z</time></trkpt>
<trkpt lat="50.705791" lon="5.957664"><time>2026-05-06T18:48:17Z</time></trkpt>
<trkpt lat="50.704292" lon="5.957966"><time>2026-05-06T18:58:17Z</time></trkpt>
<trkpt lat="50.702788" lon="5.957522"><time>2026-05-06T19:08:17Z</time></trkpt>
<trkpt lat="50.701628" lon="5.957193"><time>2026-05-06T19:18:17Z</time></trkpt>
<trkpt lat="50.700269" lon="5.957837"><time>2026-05-06T19:28:17Z</time></trkpt>
<trkpt lat="50.699427" lon="5.957583"><time>2026-05-06T19:38:17Z</time></trkpt>
<trkpt lat="50.698952" lon="5.956745"><time>2026-05-06T19:48:17Z</time></trkpt>
<trkpt lat="50.698554" lon="5.957224"><time>2026-05-06T19:58:17Z</time></trkpt>
</trkseg>
</trk>
<trk>
<name>lpbmz56</name>
<cmt>v</cmt>
<desc>Montzen Sentier n°56 Sentier 56 / Rue de Hombourg</desc>
<link href="https://chemins.be/montzen/sentier/56"/><trkseg>
<trkpt lat="50.709390" lon="5.961331"><time>2026-05-06T18:28:17Z</time></trkpt>
<trkpt lat="50.709277" lon="5.960680"><time>2026-05-06T18:38:17Z</time></trkpt>
<trkpt lat="50.708994" lon="5.960695"><time>2026-05-06T18:48:17Z</time></trkpt>
<trkpt lat="50.708194" lon="5.959933"><time>2026-05-06T18:58:17Z</time></trkpt>
<trkpt lat="50.707793" lon="5.959861"><time>2026-05-06T19:08:17Z</time></trkpt>
</trkseg></trk>
<trk>
<name>lpbmz56</name>
<cmt>r</cmt>
<desc>Montzen Sentier n°56 Sentier 56 / Rue de Hombourg</desc>
<link href="https://chemins.be/montzen/sentier/56"/><trkseg>
<trkpt lat="50.707793" lon="5.959861"><time>2026-05-06T19:08:17Z</time></trkpt>
<trkpt lat="50.707849" lon="5.958660"><time>2026-05-06T19:18:17Z</time></trkpt>
<trkpt lat="50.706665" lon="5.953174"><time>2026-05-06T19:28:17Z</time></trkpt>
<trkpt lat="50.704854" lon="5.951529"><time>2026-05-06T19:38:17Z</time></trkpt>
<trkpt lat="50.704373" lon="5.951643"><time>2026-05-06T19:48:17Z</time></trkpt>
</trkseg></trk>
<trk>
<name>lpbmz56</name>
<cmt>d</cmt>
<desc>Montzen Sentier n°56 Sentier 56 / Rue de Hombourg</desc>
<link href="https://chemins.be/montzen/sentier/56"/><trkseg>
<trkpt lat="50.704373" lon="5.951643"><time>2026-05-06T19:48:17Z</time></trkpt>
<trkpt lat="50.703048" lon="5.948508"><time>2026-05-06T19:58:17Z</time></trkpt>
<trkpt lat="50.702703" lon="5.945998"><time>2026-05-06T20:08:17Z</time></trkpt>
<trkpt lat="50.702164" lon="5.945218"><time>2026-05-06T20:18:17Z</time></trkpt>
</trkseg>
</trk>
<trk>
<name>lpbmz57</name>
<cmt>s</cmt>
<desc>Montzen Sentier n°57 </desc>
<link href="https://chemins.be/montzen/sentier/57"/><trkseg>
<trkpt lat="50.711156" lon="5.961272"><time>2026-05-06T18:28:17Z</time></trkpt>
<trkpt lat="50.711206" lon="5.961036"><time>2026-05-06T18:38:17Z</time></trkpt>
<trkpt lat="50.713511" lon="5.959119"><time>2026-05-06T18:48:17Z</time></trkpt>
</trkseg>
</trk>
<trk>
<name>lpbmz58</name>
<cmt>v</cmt>
<desc>Montzen Sentier n°58 </desc>
<link href="https://chemins.be/montzen/sentier/58"/><trkseg>
<trkpt lat="50.725398" lon="5.953794"><time>2026-05-06T18:28:17Z</time></trkpt>
<trkpt lat="50.726063" lon="5.953627"><time>2026-05-06T18:38:17Z</time></trkpt>
</trkseg></trk>
<trk>
<name>lpbmz58</name>
<cmt>d</cmt>
<desc>Montzen Sentier n°58 </desc>
<link href="https://chemins.be/montzen/sentier/58"/><trkseg>
<trkpt lat="50.726063" lon="5.953627"><time>2026-05-06T18:38:17Z</time></trkpt>
<trkpt lat="50.726579" lon="5.953501"><time>2026-05-06T18:48:17Z</time></trkpt>
<trkpt lat="50.727725" lon="5.952936"><time>2026-05-06T18:58:17Z</time></trkpt>
<trkpt lat="50.729192" lon="5.952069"><time>2026-05-06T19:08:17Z</time></trkpt>
<trkpt lat="50.729525" lon="5.950138"><time>2026-05-06T19:18:17Z</time></trkpt>
</trkseg>
</trk>
<trk>
<name>lpbmz58bis</name>
<cmt>s</cmt>
<desc>Montzen Sentier n°58bis </desc>
<link href="https://chemins.be/montzen/sentier/58bis"/><trkseg>
<trkpt lat="50.714105" lon="5.960776"><time>2026-05-06T18:28:17Z</time></trkpt>
<trkpt lat="50.714466" lon="5.960489"><time>2026-05-06T18:38:17Z</time></trkpt>
<trkpt lat="50.714888" lon="5.960626"><time>2026-05-06T18:48:17Z</time></trkpt>
<trkpt lat="50.715113" lon="5.960892"><time>2026-05-06T18:58:17Z</time></trkpt>
<trkpt lat="50.715363" lon="5.960991"><time>2026-05-06T19:08:17Z</time></trkpt>
</trkseg>
</trk>
<trk>
<name>lpbmz59</name>
<cmt>r</cmt>
<desc>Montzen Sentier n°59 </desc>
<link href="https://chemins.be/montzen/sentier/59"/><trkseg>
<trkpt lat="50.716250" lon="5.946457"><time>2026-05-06T18:28:17Z</time></trkpt>
<trkpt lat="50.716475" lon="5.946593"><time>2026-05-06T18:38:17Z</time></trkpt>
</trkseg></trk>
<trk>
<name>lpbmz59</name>
<cmt>v</cmt>
<desc>Montzen Sentier n°59 </desc>
<link href="https://chemins.be/montzen/sentier/59"/><trkseg>
<trkpt lat="50.716475" lon="5.946593"><time>2026-05-06T18:38:17Z</time></trkpt>
<trkpt lat="50.717710" lon="5.947410"><time>2026-05-06T18:48:17Z</time></trkpt>
<trkpt lat="50.718028" lon="5.947585"><time>2026-05-06T18:58:17Z</time></trkpt>
</trkseg></trk>
<trk>
<name>lpbmz59</name>
<cmt>d</cmt>
<desc>Montzen Sentier n°59 </desc>
<link href="https://chemins.be/montzen/sentier/59"/><trkseg>
<trkpt lat="50.718028" lon="5.947585"><time>2026-05-06T18:58:17Z</time></trkpt>
<trkpt lat="50.718235" lon="5.947919"><time>2026-05-06T19:08:17Z</time></trkpt>
<trkpt lat="50.718741" lon="5.948620"><time>2026-05-06T19:18:17Z</time></trkpt>
</trkseg></trk>
<trk>
<name>lpbmz59</name>
<cmt>s</cmt>
<desc>Montzen Sentier n°59 </desc>
<link href="https://chemins.be/montzen/sentier/59"/><trkseg>
<trkpt lat="50.718741" lon="5.948620"><time>2026-05-06T19:18:17Z</time></trkpt>
<trkpt lat="50.719586" lon="5.950712"><time>2026-05-06T19:28:17Z</time></trkpt>
<trkpt lat="50.719642" lon="5.950926"><time>2026-05-06T19:38:17Z</time></trkpt>
<trkpt lat="50.719805" lon="5.951691"><time>2026-05-06T19:48:17Z</time></trkpt>
<trkpt lat="50.721517" lon="5.955053"><time>2026-05-06T19:58:17Z</time></trkpt>
<trkpt lat="50.722581" lon="5.956777"><time>2026-05-06T20:08:17Z</time></trkpt>
<trkpt lat="50.723469" lon="5.957342"><time>2026-05-06T20:18:17Z</time></trkpt>
<trkpt lat="50.724257" lon="5.957578"><time>2026-05-06T20:28:17Z</time></trkpt>
<trkpt lat="50.726262" lon="5.957814"><time>2026-05-06T20:38:17Z</time></trkpt>
</trkseg>
</trk>
<trk>
<name>lpbmz6</name>
<cmt>r</cmt>
<desc>Montzen Chemin n°6 Rue Saint-Roch / Rue du Bois / Windt / Kalottenhof / Rue du Casino</desc>
<link href="https://chemins.be/montzen/chemin/6"/><trkseg>
<trkpt lat="50.723957" lon="5.956483"><time>2026-05-06T18:28:17Z</time></trkpt>
<trkpt lat="50.724486" lon="5.955453"><time>2026-05-06T18:38:17Z</time></trkpt>
<trkpt lat="50.725009" lon="5.955357"><time>2026-05-06T18:48:17Z</time></trkpt>
<trkpt lat="50.725396" lon="5.955604"><time>2026-05-06T18:58:17Z</time></trkpt>
<trkpt lat="50.726344" lon="5.958159"><time>2026-05-06T19:08:17Z</time></trkpt>
<trkpt lat="50.725378" lon="5.955561"><time>2026-05-06T19:18:17Z</time></trkpt>
<trkpt lat="50.726344" lon="5.958159"><time>2026-05-06T19:28:17Z</time></trkpt>
<trkpt lat="50.727085" lon="5.958010"><time>2026-05-06T19:38:17Z</time></trkpt>
<trkpt lat="50.728601" lon="5.957352"><time>2026-05-06T19:48:17Z</time></trkpt>
<trkpt lat="50.728916" lon="5.957386"><time>2026-05-06T19:58:17Z</time></trkpt>
<trkpt lat="50.732286" lon="5.957573"><time>2026-05-06T20:08:17Z</time></trkpt>
<trkpt lat="50.733226" lon="5.957505"><time>2026-05-06T20:18:17Z</time></trkpt>
<trkpt lat="50.733640" lon="5.957580"><time>2026-05-06T20:28:17Z</time></trkpt>
<trkpt lat="50.734911" lon="5.958934"><time>2026-05-06T20:38:17Z</time></trkpt>
<trkpt lat="50.735918" lon="5.959531"><time>2026-05-06T20:48:17Z</time></trkpt>
<trkpt lat="50.736762" lon="5.961764"><time>2026-05-06T20:58:17Z</time></trkpt>
</trkseg></trk>
<trk>
<name>lpbmz6</name>
<cmt>s</cmt>
<desc>Montzen Chemin n°6 Rue Saint-Roch / Rue du Bois / Windt / Kalottenhof / Rue du Casino</desc>
<link href="https://chemins.be/montzen/chemin/6"/><trkseg>
<trkpt lat="50.736762" lon="5.961764"><time>2026-05-06T20:58:17Z</time></trkpt>
<trkpt lat="50.736902" lon="5.962131"><time>2026-05-06T21:08:17Z</time></trkpt>
<trkpt lat="50.736877" lon="5.962478"><time>2026-05-06T21:18:17Z</time></trkpt>
</trkseg></trk>
<trk>
<name>lpbmz6</name>
<cmt>r</cmt>
<desc>Montzen Chemin n°6 Rue Saint-Roch / Rue du Bois / Windt / Kalottenhof / Rue du Casino</desc>
<link href="https://chemins.be/montzen/chemin/6"/><trkseg>
<trkpt lat="50.736877" lon="5.962478"><time>2026-05-06T21:18:17Z</time></trkpt>
<trkpt lat="50.736862" lon="5.962815"><time>2026-05-06T21:28:17Z</time></trkpt>
</trkseg>
</trk>
<trk>
<name>lpbmz60</name>
<cmt>v</cmt>
<desc>Montzen Sentier n°60 Rue Ten-Eycken</desc>
<link href="https://chemins.be/montzen/sentier/60"/><trkseg>
<trkpt lat="50.730555" lon="5.969784"><time>2026-05-06T18:28:17Z</time></trkpt>
<trkpt lat="50.729966" lon="5.968797"><time>2026-05-06T18:38:17Z</time></trkpt>
<trkpt lat="50.729482" lon="5.968958"><time>2026-05-06T18:48:17Z</time></trkpt>
<trkpt lat="50.727533" lon="5.969332"><time>2026-05-06T18:58:17Z</time></trkpt>
<trkpt lat="50.727301" lon="5.969514"><time>2026-05-06T19:08:17Z</time></trkpt>
<trkpt lat="50.727014" lon="5.969608"><time>2026-05-06T19:18:17Z</time></trkpt>
</trkseg></trk>
<trk>
<name>lpbmz60</name>
<cmt>r</cmt>
<desc>Montzen Sentier n°60 Rue Ten-Eycken</desc>
<link href="https://chemins.be/montzen/sentier/60"/><trkseg>
<trkpt lat="50.727014" lon="5.969608"><time>2026-05-06T19:18:17Z</time></trkpt>
<trkpt lat="50.726941" lon="5.968832"><time>2026-05-06T19:28:17Z</time></trkpt>
</trkseg></trk>
<trk>
<name>lpbmz60</name>
<cmt>v</cmt>
<desc>Montzen Sentier n°60 Rue Ten-Eycken</desc>
<link href="https://chemins.be/montzen/sentier/60"/><trkseg>
<trkpt lat="50.726941" lon="5.968832"><time>2026-05-06T19:28:17Z</time></trkpt>
<trkpt lat="50.726588" lon="5.968736"><time>2026-05-06T19:38:17Z</time></trkpt>
</trkseg></trk>
<trk>
<name>lpbmz60</name>
<cmt>d</cmt>
<desc>Montzen Sentier n°60 Rue Ten-Eycken</desc>
<link href="https://chemins.be/montzen/sentier/60"/><trkseg>
<trkpt lat="50.726588" lon="5.968736"><time>2026-05-06T19:38:17Z</time></trkpt>
<trkpt lat="50.724464" lon="5.967012"><time>2026-05-06T19:48:17Z</time></trkpt>
<trkpt lat="50.722961" lon="5.966533"><time>2026-05-06T19:58:17Z</time></trkpt>
<trkpt lat="50.722111" lon="5.966793"><time>2026-05-06T20:08:17Z</time></trkpt>
<trkpt lat="50.720964" lon="5.966540"><time>2026-05-06T20:18:17Z</time></trkpt>
<trkpt lat="50.719954" lon="5.966948"><time>2026-05-06T20:28:17Z</time></trkpt>
<trkpt lat="50.719642" lon="5.966776"><time>2026-05-06T20:38:17Z</time></trkpt>
<trkpt lat="50.719212" lon="5.966940"><time>2026-05-06T20:48:17Z</time></trkpt>
</trkseg></trk>
<trk>
<name>lpbmz60</name>
<cmt>s</cmt>
<desc>Montzen Sentier n°60 Rue Ten-Eycken</desc>
<link href="https://chemins.be/montzen/sentier/60"/><trkseg>
<trkpt lat="50.719212" lon="5.966940"><time>2026-05-06T20:48:17Z</time></trkpt>
<trkpt lat="50.718632" lon="5.966690"><time>2026-05-06T20:58:17Z</time></trkpt>
<trkpt lat="50.718116" lon="5.966969"><time>2026-05-06T21:08:17Z</time></trkpt>
<trkpt lat="50.716250" lon="5.966683"><time>2026-05-06T21:18:17Z</time></trkpt>
</trkseg>
</trk>
<trk>
<name>lpbmz60bis</name>
<cmt>d</cmt>
<desc>Montzen Sentier n°60bis </desc>
<link href="https://chemins.be/montzen/sentier/60bis"/><trkseg>
<trkpt lat="50.719235" lon="5.966944"><time>2026-05-06T18:28:17Z</time></trkpt>
<trkpt lat="50.718574" lon="5.967931"><time>2026-05-06T18:38:17Z</time></trkpt>
</trkseg>
</trk>
<trk>
<name>lpbmz61</name>
<cmt>q</cmt>
<desc>Montzen Sentier n°61 </desc>
<link href="https://chemins.be/montzen/sentier/61"/><trkseg>
<trkpt lat="50.729227" lon="5.974881"><time>2026-05-06T18:28:17Z</time></trkpt>
<trkpt lat="50.729030" lon="5.973550"><time>2026-05-06T18:38:17Z</time></trkpt>
<trkpt lat="50.729141" lon="5.972359"><time>2026-05-06T18:48:17Z</time></trkpt>
<trkpt lat="50.729277" lon="5.971912"><time>2026-05-06T18:58:17Z</time></trkpt>
<trkpt lat="50.730624" lon="5.970899"><time>2026-05-06T19:08:17Z</time></trkpt>
<trkpt lat="50.731599" lon="5.970468"><time>2026-05-06T19:18:17Z</time></trkpt>
<trkpt lat="50.732930" lon="5.968637"><time>2026-05-06T19:28:17Z</time></trkpt>
<trkpt lat="50.733338" lon="5.967450"><time>2026-05-06T19:38:17Z</time></trkpt>
<trkpt lat="50.734171" lon="5.966620"><time>2026-05-06T19:48:17Z</time></trkpt>
<trkpt lat="50.735041" lon="5.964446"><time>2026-05-06T19:58:17Z</time></trkpt>
<trkpt lat="50.735349" lon="5.962300"><time>2026-05-06T20:08:17Z</time></trkpt>
<trkpt lat="50.735613" lon="5.961287"><time>2026-05-06T20:18:17Z</time></trkpt>
</trkseg></trk>
<trk>
<name>lpbmz61</name>
<cmt>s</cmt>
<desc>Montzen Sentier n°61 </desc>
<link href="https://chemins.be/montzen/sentier/61"/><trkseg>
<trkpt lat="50.735613" lon="5.961287"><time>2026-05-06T20:18:17Z</time></trkpt>
<trkpt lat="50.736028" lon="5.959783"><time>2026-05-06T20:28:17Z</time></trkpt>
</trkseg></trk>
<trk>
<name>lpbmz61</name>
<cmt>r</cmt>
<desc>Montzen Sentier n°61 </desc>
<link href="https://chemins.be/montzen/sentier/61"/><trkseg>
<trkpt lat="50.736028" lon="5.959783"><time>2026-05-06T20:28:17Z</time></trkpt>
<trkpt lat="50.735716" lon="5.959268"><time>2026-05-06T20:38:17Z</time></trkpt>
</trkseg></trk>
<trk>
<name>lpbmz61</name>
<cmt>d</cmt>
<desc>Montzen Sentier n°61 </desc>
<link href="https://chemins.be/montzen/sentier/61"/><trkseg>
<trkpt lat="50.735716" lon="5.959268"><time>2026-05-06T20:38:17Z</time></trkpt>
<trkpt lat="50.735471" lon="5.958416"><time>2026-05-06T20:48:17Z</time></trkpt>
</trkseg></trk>
<trk>
<name>lpbmz61</name>
<cmt>v</cmt>
<desc>Montzen Sentier n°61 </desc>
<link href="https://chemins.be/montzen/sentier/61"/><trkseg>
<trkpt lat="50.735471" lon="5.958416"><time>2026-05-06T20:48:17Z</time></trkpt>
<trkpt lat="50.733746" lon="5.953386"><time>2026-05-06T20:58:17Z</time></trkpt>
</trkseg>
</trk>
<trk>
<name>lpbmz61bis</name>
<cmt>v</cmt>
<desc>Montzen Sentier n°61bis </desc>
<link href="https://chemins.be/montzen/sentier/61bis"/><trkseg>
<trkpt lat="50.735951" lon="5.958780"><time>2026-05-06T18:28:17Z</time></trkpt>
<trkpt lat="50.735813" lon="5.958555"><time>2026-05-06T18:38:17Z</time></trkpt>
<trkpt lat="50.735473" lon="5.958412"><time>2026-05-06T18:48:17Z</time></trkpt>
</trkseg>
</trk>
<trk>
<name>lpbmz62</name>
<cmt>s</cmt>
<desc>Montzen Sentier n°62 </desc>
<link href="https://chemins.be/montzen/sentier/62"/><trkseg>
<trkpt lat="50.724834" lon="5.938107"><time>2026-05-06T18:28:17Z</time></trkpt>
<trkpt lat="50.724816" lon="5.940524"><time>2026-05-06T18:38:17Z</time></trkpt>
</trkseg></trk>
<trk>
<name>lpbmz62</name>
<cmt>d</cmt>
<desc>Montzen Sentier n°62 </desc>
<link href="https://chemins.be/montzen/sentier/62"/><trkseg>
<trkpt lat="50.724816" lon="5.940524"><time>2026-05-06T18:38:17Z</time></trkpt>
<trkpt lat="50.724463" lon="5.941998"><time>2026-05-06T18:48:17Z</time></trkpt>
<trkpt lat="50.724780" lon="5.944115"><time>2026-05-06T18:58:17Z</time></trkpt>
<trkpt lat="50.725211" lon="5.945616"><time>2026-05-06T19:08:17Z</time></trkpt>
<trkpt lat="50.725649" lon="5.946532"><time>2026-05-06T19:18:17Z</time></trkpt>
<trkpt lat="50.725625" lon="5.946564"><time>2026-05-06T19:28:17Z</time></trkpt>
<trkpt lat="50.727616" lon="5.950404"><time>2026-05-06T19:38:17Z</time></trkpt>
<trkpt lat="50.727661" lon="5.952921"><time>2026-05-06T19:48:17Z</time></trkpt>
<trkpt lat="50.727955" lon="5.955098"><time>2026-05-06T19:58:17Z</time></trkpt>
<trkpt lat="50.728676" lon="5.956963"><time>2026-05-06T20:08:17Z</time></trkpt>
<trkpt lat="50.728748" lon="5.957263"><time>2026-05-06T20:18:17Z</time></trkpt>
</trkseg></trk>
<trk>
<name>lpbmz62</name>
<cmt>r</cmt>
<desc>Montzen Sentier n°62 </desc>
<link href="https://chemins.be/montzen/sentier/62"/><trkseg>
<trkpt lat="50.728748" lon="5.957263"><time>2026-05-06T20:18:17Z</time></trkpt>
<trkpt lat="50.728987" lon="5.957334"><time>2026-05-06T20:28:17Z</time></trkpt>
<trkpt lat="50.729225" lon="5.957870"><time>2026-05-06T20:38:17Z</time></trkpt>
<trkpt lat="50.729540" lon="5.959051"><time>2026-05-06T20:48:17Z</time></trkpt>
<trkpt lat="50.729679" lon="5.959378"><time>2026-05-06T20:58:17Z</time></trkpt>
</trkseg></trk>
<trk>
<name>lpbmz62</name>
<cmt>v</cmt>
<desc>Montzen Sentier n°62 </desc>
<link href="https://chemins.be/montzen/sentier/62"/><trkseg>
<trkpt lat="50.729679" lon="5.959378"><time>2026-05-06T20:58:17Z</time></trkpt>
<trkpt lat="50.730041" lon="5.959948"><time>2026-05-06T21:08:17Z</time></trkpt>
<trkpt lat="50.730512" lon="5.960509"><time>2026-05-06T21:18:17Z</time></trkpt>
</trkseg></trk>
<trk>
<name>lpbmz62</name>
<cmt>d</cmt>
<desc>Montzen Sentier n°62 </desc>
<link href="https://chemins.be/montzen/sentier/62"/><trkseg>
<trkpt lat="50.730512" lon="5.960509"><time>2026-05-06T21:18:17Z</time></trkpt>
<trkpt lat="50.731761" lon="5.963212"><time>2026-05-06T21:28:17Z</time></trkpt>
<trkpt lat="50.732718" lon="5.963872"><time>2026-05-06T21:38:17Z</time></trkpt>
</trkseg></trk>
<trk>
<name>lpbmz62</name>
<cmt>s</cmt>
<desc>Montzen Sentier n°62 </desc>
<link href="https://chemins.be/montzen/sentier/62"/><trkseg>
<trkpt lat="50.732718" lon="5.963872"><time>2026-05-06T21:38:17Z</time></trkpt>
<trkpt lat="50.733295" lon="5.964183"><time>2026-05-06T21:48:17Z</time></trkpt>
<trkpt lat="50.733321" lon="5.964133"><time>2026-05-06T21:58:17Z</time></trkpt>
</trkseg></trk>
<trk>
<name>lpbmz62</name>
<cmt>v</cmt>
<desc>Montzen Sentier n°62 </desc>
<link href="https://chemins.be/montzen/sentier/62"/><trkseg>
<trkpt lat="50.733321" lon="5.964133"><time>2026-05-06T21:58:17Z</time></trkpt>
<trkpt lat="50.733387" lon="5.964406"><time>2026-05-06T22:08:17Z</time></trkpt>
<trkpt lat="50.734114" lon="5.964204"><time>2026-05-06T22:18:17Z</time></trkpt>
<trkpt lat="50.734727" lon="5.964034"><time>2026-05-06T22:28:17Z</time></trkpt>
<trkpt lat="50.735033" lon="5.964120"><time>2026-05-06T22:38:17Z</time></trkpt>
<trkpt lat="50.735415" lon="5.963723"><time>2026-05-06T22:48:17Z</time></trkpt>
<trkpt lat="50.735519" lon="5.963751"><time>2026-05-06T22:58:17Z</time></trkpt>
</trkseg></trk>
<trk>
<name>lpbmz62</name>
<cmt>q</cmt>
<desc>Montzen Sentier n°62 </desc>
<link href="https://chemins.be/montzen/sentier/62"/><trkseg>
<trkpt lat="50.735519" lon="5.963751"><time>2026-05-06T22:58:17Z</time></trkpt>
<trkpt lat="50.736097" lon="5.963265"><time>2026-05-06T23:08:17Z</time></trkpt>
<trkpt lat="50.736884" lon="5.962665"><time>2026-05-06T23:18:17Z</time></trkpt>
<trkpt lat="50.737431" lon="5.962765"><time>2026-05-06T23:28:17Z</time></trkpt>
</trkseg></trk>
<trk>
<name>lpbmz62</name>
<cmt>s</cmt>
<desc>Montzen Sentier n°62 </desc>
<link href="https://chemins.be/montzen/sentier/62"/><trkseg>
<trkpt lat="50.737431" lon="5.962765"><time>2026-05-06T23:28:17Z</time></trkpt>
<trkpt lat="50.738699" lon="5.964324"><time>2026-05-06T23:38:17Z</time></trkpt>
<trkpt lat="50.739373" lon="5.965354"><time>2026-05-06T23:48:17Z</time></trkpt>
</trkseg>
</trk>
<trk>
<name>lpbmz63</name>
<cmt>d</cmt>
<desc>Montzen Sentier n°63 Rue du Bois</desc>
<link href="https://chemins.be/montzen/sentier/63"/><trkseg>
<trkpt lat="50.726527" lon="5.961672"><time>2026-05-06T18:28:17Z</time></trkpt>
<trkpt lat="50.726880" lon="5.961107"><time>2026-05-06T18:38:17Z</time></trkpt>
<trkpt lat="50.726769" lon="5.960823"><time>2026-05-06T18:48:17Z</time></trkpt>
<trkpt lat="50.726673" lon="5.960024"><time>2026-05-06T18:58:17Z</time></trkpt>
</trkseg></trk>
<trk>
<name>lpbmz63</name>
<cmt>r</cmt>
<desc>Montzen Sentier n°63 Rue du Bois</desc>
<link href="https://chemins.be/montzen/sentier/63"/><trkseg>
<trkpt lat="50.726673" lon="5.960024"><time>2026-05-06T18:58:17Z</time></trkpt>
<trkpt lat="50.726398" lon="5.958205"><time>2026-05-06T19:08:17Z</time></trkpt>
<trkpt lat="50.726923" lon="5.958105"><time>2026-05-06T19:18:17Z</time></trkpt>
</trkseg></trk>
<trk>
<name>lpbmz63</name>
<cmt>v</cmt>
<desc>Montzen Sentier n°63 Rue du Bois</desc>
<link href="https://chemins.be/montzen/sentier/63"/><trkseg>
<trkpt lat="50.726923" lon="5.958105"><time>2026-05-06T19:18:17Z</time></trkpt>
<trkpt lat="50.727367" lon="5.956660"><time>2026-05-06T19:28:17Z</time></trkpt>
</trkseg></trk>
<trk>
<name>lpbmz63</name>
<cmt>d</cmt>
<desc>Montzen Sentier n°63 Rue du Bois</desc>
<link href="https://chemins.be/montzen/sentier/63"/><trkseg>
<trkpt lat="50.727367" lon="5.956660"><time>2026-05-06T19:28:17Z</time></trkpt>
<trkpt lat="50.728432" lon="5.954310"><time>2026-05-06T19:38:17Z</time></trkpt>
<trkpt lat="50.729252" lon="5.954081"><time>2026-05-06T19:48:17Z</time></trkpt>
<trkpt lat="50.730995" lon="5.953788"><time>2026-05-06T19:58:17Z</time></trkpt>
<trkpt lat="50.732079" lon="5.955193"><time>2026-05-06T20:08:17Z</time></trkpt>
<trkpt lat="50.733600" lon="5.957525"><time>2026-05-06T20:18:17Z</time></trkpt>
</trkseg>
</trk>
<trk>
<name>lpbmz64</name>
<cmt>q</cmt>
<desc>Montzen Sentier n°64 </desc>
<link href="https://chemins.be/montzen/sentier/64"/><trkseg>
<trkpt lat="50.729838" lon="5.957383"><time>2026-05-06T18:28:17Z</time></trkpt>
<trkpt lat="50.729901" lon="5.956933"><time>2026-05-06T18:38:17Z</time></trkpt>
</trkseg></trk>
<trk>
<name>lpbmz64</name>
<cmt>d</cmt>
<desc>Montzen Sentier n°64 </desc>
<link href="https://chemins.be/montzen/sentier/64"/><trkseg>
<trkpt lat="50.729901" lon="5.956933"><time>2026-05-06T18:38:17Z</time></trkpt>
<trkpt lat="50.731535" lon="5.956117"><time>2026-05-06T18:48:17Z</time></trkpt>
<trkpt lat="50.732064" lon="5.955192"><time>2026-05-06T18:58:17Z</time></trkpt>
<trkpt lat="50.732751" lon="5.953992"><time>2026-05-06T19:08:17Z</time></trkpt>
<trkpt lat="50.733301" lon="5.953963"><time>2026-05-06T19:18:17Z</time></trkpt>
<trkpt lat="50.733800" lon="5.953415"><time>2026-05-06T19:28:17Z</time></trkpt>
</trkseg>
</trk>
<trk>
<name>lpbmz66</name>
<cmt>d</cmt>
<desc>Montzen Sentier n°66 Rue de Chateau de Broich / Belderbusch / Rue des Champs</desc>
<link href="https://chemins.be/montzen/sentier/66"/><trkseg>
<trkpt lat="50.697825" lon="5.933109"><time>2026-05-06T18:28:17Z</time></trkpt>
<trkpt lat="50.699703" lon="5.935182"><time>2026-05-06T18:38:17Z</time></trkpt>
<trkpt lat="50.701238" lon="5.936762"><time>2026-05-06T18:48:17Z</time></trkpt>
<trkpt lat="50.702968" lon="5.937796"><time>2026-05-06T18:58:17Z</time></trkpt>
<trkpt lat="50.704540" lon="5.941261"><time>2026-05-06T19:08:17Z</time></trkpt>
<trkpt lat="50.704695" lon="5.941748"><time>2026-05-06T19:18:17Z</time></trkpt>
</trkseg></trk>
<trk>
<name>lpbmz66</name>
<cmt>v</cmt>
<desc>Montzen Sentier n°66 Rue de Chateau de Broich / Belderbusch / Rue des Champs</desc>
<link href="https://chemins.be/montzen/sentier/66"/><trkseg>
<trkpt lat="50.704695" lon="5.941748"><time>2026-05-06T19:18:17Z</time></trkpt>
<trkpt lat="50.705138" lon="5.942924"><time>2026-05-06T19:28:17Z</time></trkpt>
</trkseg></trk>
<trk>
<name>lpbmz66</name>
<cmt>d</cmt>
<desc>Montzen Sentier n°66 Rue de Chateau de Broich / Belderbusch / Rue des Champs</desc>
<link href="https://chemins.be/montzen/sentier/66"/><trkseg>
<trkpt lat="50.705138" lon="5.942924"><time>2026-05-06T19:28:17Z</time></trkpt>
<trkpt lat="50.708663" lon="5.945914"><time>2026-05-06T19:38:17Z</time></trkpt>
<trkpt lat="50.710004" lon="5.948632"><time>2026-05-06T19:48:17Z</time></trkpt>
<trkpt lat="50.713126" lon="5.951272"><time>2026-05-06T19:58:17Z</time></trkpt>
</trkseg></trk>
<trk>
<name>lpbmz66</name>
<cmt>b</cmt>
<desc>Montzen Sentier n°66 Rue de Chateau de Broich / Belderbusch / Rue des Champs</desc>
<link href="https://chemins.be/montzen/sentier/66"/><trkseg>
<trkpt lat="50.713126" lon="5.951272"><time>2026-05-06T19:58:17Z</time></trkpt>
<trkpt lat="50.713674" lon="5.951677"><time>2026-05-06T20:08:17Z</time></trkpt>
</trkseg></trk>
<trk>
<name>lpbmz66</name>
<cmt>d</cmt>
<desc>Montzen Sentier n°66 Rue de Chateau de Broich / Belderbusch / Rue des Champs</desc>
<link href="https://chemins.be/montzen/sentier/66"/><trkseg>
<trkpt lat="50.713674" lon="5.951677"><time>2026-05-06T20:08:17Z</time></trkpt>
<trkpt lat="50.713755" lon="5.952099"><time>2026-05-06T20:18:17Z</time></trkpt>
<trkpt lat="50.715112" lon="5.953343"><time>2026-05-06T20:28:17Z</time></trkpt>
</trkseg></trk>
<trk>
<name>lpbmz66</name>
<cmt>r</cmt>
<desc>Montzen Sentier n°66 Rue de Chateau de Broich / Belderbusch / Rue des Champs</desc>
<link href="https://chemins.be/montzen/sentier/66"/><trkseg>
<trkpt lat="50.715112" lon="5.953343"><time>2026-05-06T20:28:17Z</time></trkpt>
<trkpt lat="50.715798" lon="5.953225"><time>2026-05-06T20:38:17Z</time></trkpt>
<trkpt lat="50.716600" lon="5.953285"><time>2026-05-06T20:48:17Z</time></trkpt>
</trkseg></trk>
<trk>
<name>lpbmz66</name>
<cmt>v</cmt>
<desc>Montzen Sentier n°66 Rue de Chateau de Broich / Belderbusch / Rue des Champs</desc>
<link href="https://chemins.be/montzen/sentier/66"/><trkseg>
<trkpt lat="50.716600" lon="5.953285"><time>2026-05-06T20:48:17Z</time></trkpt>
<trkpt lat="50.717105" lon="5.953265"><time>2026-05-06T20:58:17Z</time></trkpt>
</trkseg></trk>
<trk>
<name>lpbmz66</name>
<cmt>s</cmt>
<desc>Montzen Sentier n°66 Rue de Chateau de Broich / Belderbusch / Rue des Champs</desc>
<link href="https://chemins.be/montzen/sentier/66"/><trkseg>
<trkpt lat="50.717105" lon="5.953265"><time>2026-05-06T20:58:17Z</time></trkpt>
<trkpt lat="50.717682" lon="5.953082"><time>2026-05-06T21:08:17Z</time></trkpt>
<trkpt lat="50.717979" lon="5.952571"><time>2026-05-06T21:18:17Z</time></trkpt>
<trkpt lat="50.719035" lon="5.952466"><time>2026-05-06T21:28:17Z</time></trkpt>
<trkpt lat="50.719700" lon="5.952399"><time>2026-05-06T21:38:17Z</time></trkpt>
<trkpt lat="50.722045" lon="5.949646"><time>2026-05-06T21:48:17Z</time></trkpt>
</trkseg></trk>
<trk>
<name>lpbmz66</name>
<cmt>r</cmt>
<desc>Montzen Sentier n°66 Rue de Chateau de Broich / Belderbusch / Rue des Champs</desc>
<link href="https://chemins.be/montzen/sentier/66"/><trkseg>
<trkpt lat="50.722045" lon="5.949646"><time>2026-05-06T21:48:17Z</time></trkpt>
<trkpt lat="50.722721" lon="5.947348"><time>2026-05-06T21:58:17Z</time></trkpt>
<trkpt lat="50.723527" lon="5.947104"><time>2026-05-06T22:08:17Z</time></trkpt>
</trkseg></trk>
<trk>
<name>lpbmz66</name>
<cmt>d</cmt>
<desc>Montzen Sentier n°66 Rue de Chateau de Broich / Belderbusch / Rue des Champs</desc>
<link href="https://chemins.be/montzen/sentier/66"/><trkseg>
<trkpt lat="50.723527" lon="5.947104"><time>2026-05-06T22:08:17Z</time></trkpt>
<trkpt lat="50.725719" lon="5.946556"><time>2026-05-06T22:18:17Z</time></trkpt>
<trkpt lat="50.727585" lon="5.945805"><time>2026-05-06T22:28:17Z</time></trkpt>
<trkpt lat="50.727766" lon="5.945647"><time>2026-05-06T22:38:17Z</time></trkpt>
<trkpt lat="50.728006" lon="5.945669"><time>2026-05-06T22:48:17Z</time></trkpt>
<trkpt lat="50.728142" lon="5.945933"><time>2026-05-06T22:58:17Z</time></trkpt>
</trkseg>
</trk>
<trk>
<name>lpbmz66bis</name>
<cmt>v</cmt>
<desc>Montzen Sentier n°66bis </desc>
<link href="https://chemins.be/montzen/sentier/66bis"/><trkseg>
<trkpt lat="50.713105" lon="5.951251"><time>2026-05-06T18:28:17Z</time></trkpt>
<trkpt lat="50.713386" lon="5.950136"><time>2026-05-06T18:38:17Z</time></trkpt>
<trkpt lat="50.713717" lon="5.950493"><time>2026-05-06T18:48:17Z</time></trkpt>
</trkseg>
</trk>
<trk>
<name>lpbmz67</name>
<cmt>s</cmt>
<desc>Montzen Sentier n°67 </desc>
<link href="https://chemins.be/montzen/sentier/67"/><trkseg>
<trkpt lat="50.723731" lon="5.956498"><time>2026-05-06T18:28:17Z</time></trkpt>
<trkpt lat="50.723495" lon="5.953987"><time>2026-05-06T18:38:17Z</time></trkpt>
<trkpt lat="50.722680" lon="5.951155"><time>2026-05-06T18:48:17Z</time></trkpt>
<trkpt lat="50.722599" lon="5.950239"><time>2026-05-06T18:58:17Z</time></trkpt>
</trkseg>
</trk>
<trk>
<name>lpbmz68</name>
<cmt>q</cmt>
<desc>Montzen Sentier n°68 </desc>
<link href="https://chemins.be/montzen/sentier/68"/><trkseg>
<trkpt lat="50.715807" lon="5.953143"><time>2026-05-06T18:28:17Z</time></trkpt>
<trkpt lat="50.716717" lon="5.952135"><time>2026-05-06T18:38:17Z</time></trkpt>
<trkpt lat="50.717383" lon="5.950032"><time>2026-05-06T18:48:17Z</time></trkpt>
<trkpt lat="50.717469" lon="5.948279"><time>2026-05-06T18:58:17Z</time></trkpt>
<trkpt lat="50.717867" lon="5.947536"><time>2026-05-06T19:08:17Z</time></trkpt>
<trkpt lat="50.720367" lon="5.945175"><time>2026-05-06T19:18:17Z</time></trkpt>
</trkseg>
</trk>
<trk>
<name>lpbmz69</name>
<cmt>s</cmt>
<desc>Montzen Sentier n°69 </desc>
<link href="https://chemins.be/montzen/sentier/69"/><trkseg>
<trkpt lat="50.722354" lon="5.940481"><time>2026-05-06T18:28:17Z</time></trkpt>
<trkpt lat="50.723401" lon="5.939047"><time>2026-05-06T18:38:17Z</time></trkpt>
<trkpt lat="50.723976" lon="5.937517"><time>2026-05-06T18:48:17Z</time></trkpt>
</trkseg>
</trk>
<trk>
<name>lpbmz7</name>
<cmt>r</cmt>
<desc>Montzen Chemin n°7 Rue de Chateau de Broich / Rue du Château de Broich / Rue Te Berg</desc>
<link href="https://chemins.be/montzen/chemin/7"/><trkseg>
<trkpt lat="50.706948" lon="5.954223"><time>2026-05-06T18:28:17Z</time></trkpt>
<trkpt lat="50.707320" lon="5.952498"><time>2026-05-06T18:38:17Z</time></trkpt>
<trkpt lat="50.707158" lon="5.951176"><time>2026-05-06T18:48:17Z</time></trkpt>
<trkpt lat="50.707529" lon="5.949645"><time>2026-05-06T18:58:17Z</time></trkpt>
<trkpt lat="50.707600" lon="5.948359"><time>2026-05-06T19:08:17Z</time></trkpt>
</trkseg></trk>
<trk>
<name>lpbmz7</name>
<cmt>v</cmt>
<desc>Montzen Chemin n°7 Rue de Chateau de Broich / Rue du Château de Broich / Rue Te Berg</desc>
<link href="https://chemins.be/montzen/chemin/7"/><trkseg>
<trkpt lat="50.707600" lon="5.948359"><time>2026-05-06T19:08:17Z</time></trkpt>
<trkpt lat="50.707665" lon="5.948205"><time>2026-05-06T19:18:17Z</time></trkpt>
<trkpt lat="50.707896" lon="5.947745"><time>2026-05-06T19:28:17Z</time></trkpt>
<trkpt lat="50.708072" lon="5.947411"><time>2026-05-06T19:38:17Z</time></trkpt>
<trkpt lat="50.708340" lon="5.946896"><time>2026-05-06T19:48:17Z</time></trkpt>
<trkpt lat="50.708589" lon="5.946438"><time>2026-05-06T19:58:17Z</time></trkpt>
<trkpt lat="50.708838" lon="5.945908"><time>2026-05-06T20:08:17Z</time></trkpt>
<trkpt lat="50.708894" lon="5.945768"><time>2026-05-06T20:18:17Z</time></trkpt>
<trkpt lat="50.709040" lon="5.945660"><time>2026-05-06T20:28:17Z</time></trkpt>
<trkpt lat="50.709223" lon="5.945411"><time>2026-05-06T20:38:17Z</time></trkpt>
<trkpt lat="50.709617" lon="5.944858"><time>2026-05-06T20:48:17Z</time></trkpt>
<trkpt lat="50.709745" lon="5.944664"><time>2026-05-06T20:58:17Z</time></trkpt>
<trkpt lat="50.710005" lon="5.944078"><time>2026-05-06T21:08:17Z</time></trkpt>
<trkpt lat="50.710247" lon="5.943477"><time>2026-05-06T21:18:17Z</time></trkpt>
<trkpt lat="50.710628" lon="5.942583"><time>2026-05-06T21:28:17Z</time></trkpt>
<trkpt lat="50.710703" lon="5.942135"><time>2026-05-06T21:38:17Z</time></trkpt>
<trkpt lat="50.710984" lon="5.941046"><time>2026-05-06T21:48:17Z</time></trkpt>
</trkseg></trk>
<trk>
<name>lpbmz7</name>
<cmt>r</cmt>
<desc>Montzen Chemin n°7 Rue de Chateau de Broich / Rue du Château de Broich / Rue Te Berg</desc>
<link href="https://chemins.be/montzen/chemin/7"/><trkseg>
<trkpt lat="50.710984" lon="5.941046"><time>2026-05-06T21:48:17Z</time></trkpt>
<trkpt lat="50.710846" lon="5.940502"><time>2026-05-06T21:58:17Z</time></trkpt>
<trkpt lat="50.710758" lon="5.940055"><time>2026-05-06T22:08:17Z</time></trkpt>
<trkpt lat="50.710295" lon="5.939416"><time>2026-05-06T22:18:17Z</time></trkpt>
</trkseg></trk>
<trk>
<name>lpbmz7</name>
<cmt>v</cmt>
<desc>Montzen Chemin n°7 Rue de Chateau de Broich / Rue du Château de Broich / Rue Te Berg</desc>
<link href="https://chemins.be/montzen/chemin/7"/><trkseg>
<trkpt lat="50.710295" lon="5.939416"><time>2026-05-06T22:18:17Z</time></trkpt>
<trkpt lat="50.711294" lon="5.937139"><time>2026-05-06T22:28:17Z</time></trkpt>
<trkpt lat="50.711657" lon="5.936331"><time>2026-05-06T22:38:17Z</time></trkpt>
<trkpt lat="50.711675" lon="5.935673"><time>2026-05-06T22:48:17Z</time></trkpt>
<trkpt lat="50.711562" lon="5.934872"><time>2026-05-06T22:58:17Z</time></trkpt>
<trkpt lat="50.709881" lon="5.932061"><time>2026-05-06T23:08:17Z</time></trkpt>
<trkpt lat="50.709442" lon="5.931060"><time>2026-05-06T23:18:17Z</time></trkpt>
<trkpt lat="50.708859" lon="5.929732"><time>2026-05-06T23:28:17Z</time></trkpt>
<trkpt lat="50.708798" lon="5.929405"><time>2026-05-06T23:38:17Z</time></trkpt>
<trkpt lat="50.708089" lon="5.927454"><time>2026-05-06T23:48:17Z</time></trkpt>
<trkpt lat="50.707378" lon="5.926169"><time>2026-05-06T23:58:17Z</time></trkpt>
<trkpt lat="50.706182" lon="5.925225"><time>2026-05-07T00:08:17Z</time></trkpt>
<trkpt lat="50.706146" lon="5.924610"><time>2026-05-07T00:18:17Z</time></trkpt>
</trkseg>
</trk>
<trk>
<name>lpbmz71</name>
<cmt>s</cmt>
<desc>Montzen Sentier n°71 </desc>
<link href="https://chemins.be/montzen/sentier/71"/><trkseg>
<trkpt lat="50.726453" lon="5.958350"><time>2026-05-06T18:28:17Z</time></trkpt>
<trkpt lat="50.725687" lon="5.960053"><time>2026-05-06T18:38:17Z</time></trkpt>
</trkseg></trk>
<trk>
<name>lpbmz71</name>
<cmt>d</cmt>
<desc>Montzen Sentier n°71 </desc>
<link href="https://chemins.be/montzen/sentier/71"/><trkseg>
<trkpt lat="50.725687" lon="5.960053"><time>2026-05-06T18:38:17Z</time></trkpt>
<trkpt lat="50.723270" lon="5.962651"><time>2026-05-06T18:48:17Z</time></trkpt>
<trkpt lat="50.722839" lon="5.963114"><time>2026-05-06T18:58:17Z</time></trkpt>
<trkpt lat="50.721176" lon="5.964466"><time>2026-05-06T19:08:17Z</time></trkpt>
<trkpt lat="50.720901" lon="5.964773"><time>2026-05-06T19:18:17Z</time></trkpt>
<trkpt lat="50.719887" lon="5.966955"><time>2026-05-06T19:28:17Z</time></trkpt>
</trkseg>
</trk>
<trk>
<name>lpbmz72</name>
<cmt>v</cmt>
<desc>Montzen Sentier n°72 </desc>
<link href="https://chemins.be/montzen/sentier/72"/><trkseg>
<trkpt lat="50.729496" lon="5.959013"><time>2026-05-06T18:28:17Z</time></trkpt>
<trkpt lat="50.729122" lon="5.959509"><time>2026-05-06T18:38:17Z</time></trkpt>
<trkpt lat="50.729053" lon="5.959434"><time>2026-05-06T18:48:17Z</time></trkpt>
<trkpt lat="50.728717" lon="5.959864"><time>2026-05-06T18:58:17Z</time></trkpt>
</trkseg>
</trk>
<trk>
<name>lpbmz73</name>
<cmt>v</cmt>
<desc>Montzen Sentier n°73 </desc>
<link href="https://chemins.be/montzen/sentier/73"/><trkseg>
<trkpt lat="50.728665" lon="5.959857"><time>2026-05-06T18:28:17Z</time></trkpt>
<trkpt lat="50.726763" lon="5.960790"><time>2026-05-06T18:38:17Z</time></trkpt>
<trkpt lat="50.726177" lon="5.961023"><time>2026-05-06T18:48:17Z</time></trkpt>
</trkseg>
</trk>
<trk>
<name>lpbmz74</name>
<cmt>d</cmt>
<desc>Montzen Sentier n°74 Avenue de l'Europe</desc>
<link href="https://chemins.be/montzen/sentier/74"/><trkseg>
<trkpt lat="50.716322" lon="5.946564"><time>2026-05-06T18:28:17Z</time></trkpt>
<trkpt lat="50.717515" lon="5.951231"><time>2026-05-06T18:38:17Z</time></trkpt>
<trkpt lat="50.717375" lon="5.952275"><time>2026-05-06T18:48:17Z</time></trkpt>
<trkpt lat="50.717716" lon="5.953126"><time>2026-05-06T18:58:17Z</time></trkpt>
<trkpt lat="50.717826" lon="5.953683"><time>2026-05-06T19:08:17Z</time></trkpt>
</trkseg></trk>
<trk>
<name>lpbmz74</name>
<cmt>v</cmt>
<desc>Montzen Sentier n°74 Avenue de l'Europe</desc>
<link href="https://chemins.be/montzen/sentier/74"/><trkseg>
<trkpt lat="50.717826" lon="5.953683"><time>2026-05-06T19:08:17Z</time></trkpt>
<trkpt lat="50.717995" lon="5.954167"><time>2026-05-06T19:18:17Z</time></trkpt>
</trkseg></trk>
<trk>
<name>lpbmz74</name>
<cmt>s</cmt>
<desc>Montzen Sentier n°74 Avenue de l'Europe</desc>
<link href="https://chemins.be/montzen/sentier/74"/><trkseg>
<trkpt lat="50.717995" lon="5.954167"><time>2026-05-06T19:18:17Z</time></trkpt>
<trkpt lat="50.718187" lon="5.954515"><time>2026-05-06T19:28:17Z</time></trkpt>
<trkpt lat="50.718132" lon="5.954872"><time>2026-05-06T19:38:17Z</time></trkpt>
<trkpt lat="50.718540" lon="5.956360"><time>2026-05-06T19:48:17Z</time></trkpt>
<trkpt lat="50.718295" lon="5.957133"><time>2026-05-06T19:58:17Z</time></trkpt>
<trkpt lat="50.717535" lon="5.958620"><time>2026-05-06T20:08:17Z</time></trkpt>
<trkpt lat="50.717732" lon="5.959248"><time>2026-05-06T20:18:17Z</time></trkpt>
<trkpt lat="50.717538" lon="5.959498"><time>2026-05-06T20:28:17Z</time></trkpt>
<trkpt lat="50.718131" lon="5.961458"><time>2026-05-06T20:38:17Z</time></trkpt>
<trkpt lat="50.718401" lon="5.962607"><time>2026-05-06T20:48:17Z</time></trkpt>
</trkseg></trk>
<trk>
<name>lpbmz74</name>
<cmt>q</cmt>
<desc>Montzen Sentier n°74 Avenue de l'Europe</desc>
<link href="https://chemins.be/montzen/sentier/74"/><trkseg>
<trkpt lat="50.718401" lon="5.962607"><time>2026-05-06T20:48:17Z</time></trkpt>
<trkpt lat="50.718620" lon="5.963539"><time>2026-05-06T20:58:17Z</time></trkpt>
</trkseg></trk>
<trk>
<name>lpbmz74</name>
<cmt>r</cmt>
<desc>Montzen Sentier n°74 Avenue de l'Europe</desc>
<link href="https://chemins.be/montzen/sentier/74"/><trkseg>
<trkpt lat="50.718620" lon="5.963539"><time>2026-05-06T20:58:17Z</time></trkpt>
<trkpt lat="50.718353" lon="5.964755"><time>2026-05-06T21:08:17Z</time></trkpt>
<trkpt lat="50.718086" lon="5.967423"><time>2026-05-06T21:18:17Z</time></trkpt>
</trkseg></trk>
<trk>
<name>lpbmz74</name>
<cmt>d</cmt>
<desc>Montzen Sentier n°74 Avenue de l'Europe</desc>
<link href="https://chemins.be/montzen/sentier/74"/><trkseg>
<trkpt lat="50.718086" lon="5.967423"><time>2026-05-06T21:18:17Z</time></trkpt>
<trkpt lat="50.718321" lon="5.968840"><time>2026-05-06T21:28:17Z</time></trkpt>
</trkseg>
</trk>
<trk>
<name>lpbmz75</name>
<cmt>r</cmt>
<desc>Montzen Sentier n°75 </desc>
<link href="https://chemins.be/montzen/sentier/75"/><trkseg>
<trkpt lat="50.719186" lon="5.961615"><time>2026-05-06T18:28:17Z</time></trkpt>
<trkpt lat="50.719177" lon="5.961800"><time>2026-05-06T18:38:17Z</time></trkpt>
<trkpt lat="50.718756" lon="5.963374"><time>2026-05-06T18:48:17Z</time></trkpt>
<trkpt lat="50.718428" lon="5.964765"><time>2026-05-06T18:58:17Z</time></trkpt>
<trkpt lat="50.718380" lon="5.964898"><time>2026-05-06T19:08:17Z</time></trkpt>
</trkseg>
</trk>
<trk>
<name>lpbmz76</name>
<cmt>r</cmt>
<desc>Montzen Sentier n°76 </desc>
<link href="https://chemins.be/montzen/sentier/76"/><trkseg>
<trkpt lat="50.713603" lon="5.955155"><time>2026-05-06T18:28:17Z</time></trkpt>
<trkpt lat="50.713979" lon="5.955155"><time>2026-05-06T18:38:17Z</time></trkpt>
</trkseg></trk>
<trk>
<name>lpbmz76</name>
<cmt>d</cmt>
<desc>Montzen Sentier n°76 </desc>
<link href="https://chemins.be/montzen/sentier/76"/><trkseg>
<trkpt lat="50.713979" lon="5.955155"><time>2026-05-06T18:38:17Z</time></trkpt>
<trkpt lat="50.715827" lon="5.956693"><time>2026-05-06T18:48:17Z</time></trkpt>
<trkpt lat="50.716082" lon="5.957025"><time>2026-05-06T18:58:17Z</time></trkpt>
</trkseg></trk>
<trk>
<name>lpbmz76</name>
<cmt>s</cmt>
<desc>Montzen Sentier n°76 </desc>
<link href="https://chemins.be/montzen/sentier/76"/><trkseg>
<trkpt lat="50.716082" lon="5.957025"><time>2026-05-06T18:58:17Z</time></trkpt>
<trkpt lat="50.717688" lon="5.959039"><time>2026-05-06T19:08:17Z</time></trkpt>
</trkseg>
</trk>
<trk>
<name>lpbmz77</name>
<cmt>d</cmt>
<desc>Montzen Sentier n°77 </desc>
<link href="https://chemins.be/montzen/sentier/77"/><trkseg>
<trkpt lat="50.712319" lon="5.942035"><time>2026-05-06T18:28:17Z</time></trkpt>
<trkpt lat="50.712577" lon="5.945054"><time>2026-05-06T18:38:17Z</time></trkpt>
</trkseg></trk>
<trk>
<name>lpbmz77</name>
<cmt>v</cmt>
<desc>Montzen Sentier n°77 </desc>
<link href="https://chemins.be/montzen/sentier/77"/><trkseg>
<trkpt lat="50.712577" lon="5.945054"><time>2026-05-06T18:38:17Z</time></trkpt>
<trkpt lat="50.713252" lon="5.946406"><time>2026-05-06T18:48:17Z</time></trkpt>
<trkpt lat="50.714429" lon="5.947714"><time>2026-05-06T18:58:17Z</time></trkpt>
</trkseg>
</trk>
<trk>
<name>lpbmz78</name>
<cmt>v</cmt>
<desc>Montzen Sentier n°78 Rue de Teberg / Rue de Hombourg</desc>
<link href="https://chemins.be/montzen/sentier/78"/><trkseg>
<trkpt lat="50.710985" lon="5.941077"><time>2026-05-06T18:28:17Z</time></trkpt>
<trkpt lat="50.711589" lon="5.941158"><time>2026-05-06T18:38:17Z</time></trkpt>
</trkseg></trk>
<trk>
<name>lpbmz78</name>
<cmt>r</cmt>
<desc>Montzen Sentier n°78 Rue de Teberg / Rue de Hombourg</desc>
<link href="https://chemins.be/montzen/sentier/78"/><trkseg>
<trkpt lat="50.711589" lon="5.941158"><time>2026-05-06T18:38:17Z</time></trkpt>
<trkpt lat="50.711396" lon="5.940879"><time>2026-05-06T18:48:17Z</time></trkpt>
</trkseg></trk>
<trk>
<name>lpbmz78</name>
<cmt>d</cmt>
<desc>Montzen Sentier n°78 Rue de Teberg / Rue de Hombourg</desc>
<link href="https://chemins.be/montzen/sentier/78"/><trkseg>
<trkpt lat="50.711396" lon="5.940879"><time>2026-05-06T18:48:17Z</time></trkpt>
<trkpt lat="50.711577" lon="5.940454"><time>2026-05-06T18:58:17Z</time></trkpt>
<trkpt lat="50.713357" lon="5.939827"><time>2026-05-06T19:08:17Z</time></trkpt>
</trkseg></trk>
<trk>
<name>lpbmz78</name>
<cmt>v</cmt>
<desc>Montzen Sentier n°78 Rue de Teberg / Rue de Hombourg</desc>
<link href="https://chemins.be/montzen/sentier/78"/><trkseg>
<trkpt lat="50.713357" lon="5.939827"><time>2026-05-06T19:08:17Z</time></trkpt>
<trkpt lat="50.714267" lon="5.939734"><time>2026-05-06T19:18:17Z</time></trkpt>
<trkpt lat="50.716359" lon="5.938189"><time>2026-05-06T19:28:17Z</time></trkpt>
<trkpt lat="50.716880" lon="5.938139"><time>2026-05-06T19:38:17Z</time></trkpt>
</trkseg></trk>
<trk>
<name>lpbmz78</name>
<cmt>r</cmt>
<desc>Montzen Sentier n°78 Rue de Teberg / Rue de Hombourg</desc>
<link href="https://chemins.be/montzen/sentier/78"/><trkseg>
<trkpt lat="50.716880" lon="5.938139"><time>2026-05-06T19:38:17Z</time></trkpt>
<trkpt lat="50.716726" lon="5.937402"><time>2026-05-06T19:48:17Z</time></trkpt>
</trkseg></trk>
<trk>
<name>lpbmz78</name>
<cmt>d</cmt>
<desc>Montzen Sentier n°78 Rue de Teberg / Rue de Hombourg</desc>
<link href="https://chemins.be/montzen/sentier/78"/><trkseg>
<trkpt lat="50.716726" lon="5.937402"><time>2026-05-06T19:48:17Z</time></trkpt>
<trkpt lat="50.717134" lon="5.936558"><time>2026-05-06T19:58:17Z</time></trkpt>
<trkpt lat="50.717560" lon="5.936272"><time>2026-05-06T20:08:17Z</time></trkpt>
<trkpt lat="50.718930" lon="5.935028"><time>2026-05-06T20:18:17Z</time></trkpt>
<trkpt lat="50.719981" lon="5.934591"><time>2026-05-06T20:28:17Z</time></trkpt>
</trkseg>
</trk>
<trk>
<name>lpbmz79</name>
<cmt>v</cmt>
<desc>Montzen Sentier n°79 </desc>
<link href="https://chemins.be/montzen/sentier/79"/><trkseg>
<trkpt lat="50.711699" lon="5.936151"><time>2026-05-06T18:28:17Z</time></trkpt>
<trkpt lat="50.712645" lon="5.935464"><time>2026-05-06T18:38:17Z</time></trkpt>
<trkpt lat="50.713796" lon="5.934620"><time>2026-05-06T18:48:17Z</time></trkpt>
<trkpt lat="50.715381" lon="5.934620"><time>2026-05-06T18:58:17Z</time></trkpt>
</trkseg></trk>
<trk>
<name>lpbmz79</name>
<cmt>s</cmt>
<desc>Montzen Sentier n°79 </desc>
<link href="https://chemins.be/montzen/sentier/79"/><trkseg>
<trkpt lat="50.715381" lon="5.934620"><time>2026-05-06T18:58:17Z</time></trkpt>
<trkpt lat="50.715752" lon="5.932403"><time>2026-05-06T19:08:17Z</time></trkpt>
</trkseg>
</trk>
<trk>
<name>lpbmz8</name>
<cmt>r</cmt>
<desc>Montzen Chemin n°8 Steenteveld</desc>
<link href="https://chemins.be/montzen/chemin/8"/><trkseg>
<trkpt lat="50.709140" lon="5.961969"><time>2026-05-06T18:28:17Z</time></trkpt>
<trkpt lat="50.711432" lon="5.963915"><time>2026-05-06T18:38:17Z</time></trkpt>
<trkpt lat="50.712503" lon="5.964569"><time>2026-05-06T18:48:17Z</time></trkpt>
<trkpt lat="50.713692" lon="5.965295"><time>2026-05-06T18:58:17Z</time></trkpt>
<trkpt lat="50.714643" lon="5.965331"><time>2026-05-06T19:08:17Z</time></trkpt>
<trkpt lat="50.714978" lon="5.966011"><time>2026-05-06T19:18:17Z</time></trkpt>
<trkpt lat="50.716133" lon="5.966662"><time>2026-05-06T19:28:17Z</time></trkpt>
<trkpt lat="50.716423" lon="5.966633"><time>2026-05-06T19:38:17Z</time></trkpt>
<trkpt lat="50.716785" lon="5.966969"><time>2026-05-06T19:48:17Z</time></trkpt>
<trkpt lat="50.718113" lon="5.967378"><time>2026-05-06T19:58:17Z</time></trkpt>
</trkseg></trk>
<trk>
<name>lpbmz8</name>
<cmt>q</cmt>
<desc>Montzen Chemin n°8 Steenteveld</desc>
<link href="https://chemins.be/montzen/chemin/8"/><trkseg>
<trkpt lat="50.718113" lon="5.967378"><time>2026-05-06T19:58:17Z</time></trkpt>
<trkpt lat="50.719031" lon="5.968441"><time>2026-05-06T20:08:17Z</time></trkpt>
<trkpt lat="50.719323" lon="5.968523"><time>2026-05-06T20:18:17Z</time></trkpt>
</trkseg>
</trk>
<trk>
<name>lpbmz80</name>
<cmt>d</cmt>
<desc>Montzen Sentier n°80 </desc>
<link href="https://chemins.be/montzen/sentier/80"/><trkseg>
<trkpt lat="50.714475" lon="5.930805"><time>2026-05-06T18:28:17Z</time></trkpt>
<trkpt lat="50.713916" lon="5.931230"><time>2026-05-06T18:38:17Z</time></trkpt>
<trkpt lat="50.713667" lon="5.931778"><time>2026-05-06T18:48:17Z</time></trkpt>
<trkpt lat="50.711681" lon="5.933636"><time>2026-05-06T18:58:17Z</time></trkpt>
</trkseg>
</trk>
<trk>
<name>lpbmz81</name>
<cmt>d</cmt>
<desc>Montzen Sentier n°81 Rue du Château de Graaf</desc>
<link href="https://chemins.be/montzen/sentier/81"/><trkseg>
<trkpt lat="50.698502" lon="5.957208"><time>2026-05-06T18:28:17Z</time></trkpt>
<trkpt lat="50.698948" lon="5.956780"><time>2026-05-06T18:38:17Z</time></trkpt>
<trkpt lat="50.698626" lon="5.956187"><time>2026-05-06T18:48:17Z</time></trkpt>
<trkpt lat="50.698974" lon="5.954018"><time>2026-05-06T18:58:17Z</time></trkpt>
<trkpt lat="50.699146" lon="5.953717"><time>2026-05-06T19:08:17Z</time></trkpt>
<trkpt lat="50.699218" lon="5.952888"><time>2026-05-06T19:18:17Z</time></trkpt>
<trkpt lat="50.699490" lon="5.952630"><time>2026-05-06T19:28:17Z</time></trkpt>
<trkpt lat="50.699526" lon="5.952072"><time>2026-05-06T19:38:17Z</time></trkpt>
</trkseg></trk>
<trk>
<name>lpbmz81</name>
<cmt>v</cmt>
<desc>Montzen Sentier n°81 Rue du Château de Graaf</desc>
<link href="https://chemins.be/montzen/sentier/81"/><trkseg>
<trkpt lat="50.699526" lon="5.952072"><time>2026-05-06T19:38:17Z</time></trkpt>
<trkpt lat="50.699791" lon="5.951221"><time>2026-05-06T19:48:17Z</time></trkpt>
<trkpt lat="50.699735" lon="5.949883"><time>2026-05-06T19:58:17Z</time></trkpt>
<trkpt lat="50.699943" lon="5.949371"><time>2026-05-06T20:08:17Z</time></trkpt>
<trkpt lat="50.700289" lon="5.948517"><time>2026-05-06T20:18:17Z</time></trkpt>
<trkpt lat="50.700432" lon="5.947638"><time>2026-05-06T20:28:17Z</time></trkpt>
</trkseg></trk>
<trk>
<name>lpbmz81</name>
<cmt>r</cmt>
<desc>Montzen Sentier n°81 Rue du Château de Graaf</desc>
<link href="https://chemins.be/montzen/sentier/81"/><trkseg>
<trkpt lat="50.700432" lon="5.947638"><time>2026-05-06T20:28:17Z</time></trkpt>
<trkpt lat="50.701239" lon="5.947452"><time>2026-05-06T20:38:17Z</time></trkpt>
</trkseg></trk>
<trk>
<name>lpbmz81</name>
<cmt>d</cmt>
<desc>Montzen Sentier n°81 Rue du Château de Graaf</desc>
<link href="https://chemins.be/montzen/sentier/81"/><trkseg>
<trkpt lat="50.701239" lon="5.947452"><time>2026-05-06T20:38:17Z</time></trkpt>
<trkpt lat="50.701546" lon="5.946647"><time>2026-05-06T20:48:17Z</time></trkpt>
</trkseg></trk>
<trk>
<name>lpbmz81</name>
<cmt>v</cmt>
<desc>Montzen Sentier n°81 Rue du Château de Graaf</desc>
<link href="https://chemins.be/montzen/sentier/81"/><trkseg>
<trkpt lat="50.701546" lon="5.946647"><time>2026-05-06T20:48:17Z</time></trkpt>
<trkpt lat="50.702459" lon="5.944262"><time>2026-05-06T20:58:17Z</time></trkpt>
<trkpt lat="50.703561" lon="5.942517"><time>2026-05-06T21:08:17Z</time></trkpt>
<trkpt lat="50.703864" lon="5.942017"><time>2026-05-06T21:18:17Z</time></trkpt>
</trkseg></trk>
<trk>
<name>lpbmz81</name>
<cmt>d</cmt>
<desc>Montzen Sentier n°81 Rue du Château de Graaf</desc>
<link href="https://chemins.be/montzen/sentier/81"/><trkseg>
<trkpt lat="50.703864" lon="5.942017"><time>2026-05-06T21:18:17Z</time></trkpt>
<trkpt lat="50.704523" lon="5.941218"><time>2026-05-06T21:28:17Z</time></trkpt>
<trkpt lat="50.704755" lon="5.940936"><time>2026-05-06T21:38:17Z</time></trkpt>
</trkseg></trk>
<trk>
<name>lpbmz81</name>
<cmt>v</cmt>
<desc>Montzen Sentier n°81 Rue du Château de Graaf</desc>
<link href="https://chemins.be/montzen/sentier/81"/><trkseg>
<trkpt lat="50.704755" lon="5.940936"><time>2026-05-06T21:38:17Z</time></trkpt>
<trkpt lat="50.704567" lon="5.940039"><time>2026-05-06T21:48:17Z</time></trkpt>
<trkpt lat="50.704685" lon="5.939850"><time>2026-05-06T21:58:17Z</time></trkpt>
<trkpt lat="50.704828" lon="5.939535"><time>2026-05-06T22:08:17Z</time></trkpt>
<trkpt lat="50.705079" lon="5.939592"><time>2026-05-06T22:18:17Z</time></trkpt>
<trkpt lat="50.706200" lon="5.938824"><time>2026-05-06T22:28:17Z</time></trkpt>
<trkpt lat="50.706730" lon="5.936845"><time>2026-05-06T22:38:17Z</time></trkpt>
<trkpt lat="50.707171" lon="5.936209"><time>2026-05-06T22:48:17Z</time></trkpt>
<trkpt lat="50.707550" lon="5.935482"><time>2026-05-06T22:58:17Z</time></trkpt>
<trkpt lat="50.709317" lon="5.932921"><time>2026-05-06T23:08:17Z</time></trkpt>
<trkpt lat="50.709435" lon="5.931091"><time>2026-05-06T23:18:17Z</time></trkpt>
</trkseg></trk>
<trk>
<name>lpbmz81</name>
<cmt>d</cmt>
<desc>Montzen Sentier n°81 Rue du Château de Graaf</desc>
<link href="https://chemins.be/montzen/sentier/81"/><trkseg>
<trkpt lat="50.709435" lon="5.931091"><time>2026-05-06T23:18:17Z</time></trkpt>
<trkpt lat="50.710116" lon="5.930758"><time>2026-05-06T23:28:17Z</time></trkpt>
<trkpt lat="50.710920" lon="5.929245"><time>2026-05-06T23:38:17Z</time></trkpt>
<trkpt lat="50.712179" lon="5.928243"><time>2026-05-06T23:48:17Z</time></trkpt>
</trkseg>
</trk>
<trk>
<name>lpbmz81bis</name>
<cmt>q</cmt>
<desc>Montzen Sentier n°81bis </desc>
<link href="https://chemins.be/montzen/sentier/81bis"/><trkseg>
<trkpt lat="50.696112" lon="5.968704"><time>2026-05-06T18:28:17Z</time></trkpt>
<trkpt lat="50.697498" lon="5.964355"><time>2026-05-06T18:38:17Z</time></trkpt>
<trkpt lat="50.697503" lon="5.963053"><time>2026-05-06T18:48:17Z</time></trkpt>
</trkseg>
</trk>
<trk>
<name>lpbmz82</name>
<cmt>d</cmt>
<desc>Montzen Sentier n°82 Rue des Champs</desc>
<link href="https://chemins.be/montzen/sentier/82"/><trkseg>
<trkpt lat="50.724701" lon="5.944153"><time>2026-05-06T18:28:17Z</time></trkpt>
<trkpt lat="50.724620" lon="5.944211"><time>2026-05-06T18:38:17Z</time></trkpt>
<trkpt lat="50.723893" lon="5.946149"><time>2026-05-06T18:48:17Z</time></trkpt>
<trkpt lat="50.723884" lon="5.946288"><time>2026-05-06T18:58:17Z</time></trkpt>
</trkseg>
</trk>
<trk>
<name>lpbmz83</name>
<cmt>v</cmt>
<desc>Montzen Sentier n°83 </desc>
<link href="https://chemins.be/montzen/sentier/83"/><trkseg>
<trkpt lat="50.706115" lon="5.924919"><time>2026-05-06T18:28:17Z</time></trkpt>
<trkpt lat="50.705558" lon="5.926371"><time>2026-05-06T18:38:17Z</time></trkpt>
</trkseg></trk>
<trk>
<name>lpbmz83</name>
<cmt>d</cmt>
<desc>Montzen Sentier n°83 </desc>
<link href="https://chemins.be/montzen/sentier/83"/><trkseg>
<trkpt lat="50.705558" lon="5.926371"><time>2026-05-06T18:38:17Z</time></trkpt>
<trkpt lat="50.704498" lon="5.927344"><time>2026-05-06T18:48:17Z</time></trkpt>
</trkseg></trk>
<trk>
<name>lpbmz83</name>
<cmt>v</cmt>
<desc>Montzen Sentier n°83 </desc>
<link href="https://chemins.be/montzen/sentier/83"/><trkseg>
<trkpt lat="50.704498" lon="5.927344"><time>2026-05-06T18:48:17Z</time></trkpt>
<trkpt lat="50.704185" lon="5.930462"><time>2026-05-06T18:58:17Z</time></trkpt>
</trkseg></trk>
<trk>
<name>lpbmz83</name>
<cmt>d</cmt>
<desc>Montzen Sentier n°83 </desc>
<link href="https://chemins.be/montzen/sentier/83"/><trkseg>
<trkpt lat="50.704185" lon="5.930462"><time>2026-05-06T18:58:17Z</time></trkpt>
<trkpt lat="50.702946" lon="5.934142"><time>2026-05-06T19:08:17Z</time></trkpt>
<trkpt lat="50.700292" lon="5.938162"><time>2026-05-06T19:18:17Z</time></trkpt>
<trkpt lat="50.698833" lon="5.939729"><time>2026-05-06T19:28:17Z</time></trkpt>
<trkpt lat="50.698144" lon="5.941324"><time>2026-05-06T19:38:17Z</time></trkpt>
<trkpt lat="50.696559" lon="5.942304"><time>2026-05-06T19:48:17Z</time></trkpt>
</trkseg>
</trk>
<trk>
<name>lpbmz84</name>
<cmt>d</cmt>
<desc>Montzen Sentier n°84 </desc>
<link href="https://chemins.be/montzen/sentier/84"/><trkseg>
<trkpt lat="50.708862" lon="5.937447"><time>2026-05-06T18:28:17Z</time></trkpt>
<trkpt lat="50.708165" lon="5.938105"><time>2026-05-06T18:38:17Z</time></trkpt>
<trkpt lat="50.706919" lon="5.940015"><time>2026-05-06T18:48:17Z</time></trkpt>
<trkpt lat="50.705387" lon="5.940104"><time>2026-05-06T18:58:17Z</time></trkpt>
</trkseg></trk>
<trk>
<name>lpbmz84</name>
<cmt>v</cmt>
<desc>Montzen Sentier n°84 </desc>
<link href="https://chemins.be/montzen/sentier/84"/><trkseg>
<trkpt lat="50.705387" lon="5.940104"><time>2026-05-06T18:58:17Z</time></trkpt>
<trkpt lat="50.705077" lon="5.939650"><time>2026-05-06T19:08:17Z</time></trkpt>
<trkpt lat="50.704778" lon="5.939543"><time>2026-05-06T19:18:17Z</time></trkpt>
<trkpt lat="50.704567" lon="5.940036"><time>2026-05-06T19:28:17Z</time></trkpt>
<trkpt lat="50.704778" lon="5.940959"><time>2026-05-06T19:38:17Z</time></trkpt>
<trkpt lat="50.704528" lon="5.941216"><time>2026-05-06T19:48:17Z</time></trkpt>
</trkseg></trk>
<trk>
<name>lpbmz84</name>
<cmt>d</cmt>
<desc>Montzen Sentier n°84 </desc>
<link href="https://chemins.be/montzen/sentier/84"/><trkseg>
<trkpt lat="50.704528" lon="5.941216"><time>2026-05-06T19:48:17Z</time></trkpt>
<trkpt lat="50.701211" lon="5.940755"><time>2026-05-06T19:58:17Z</time></trkpt>
<trkpt lat="50.699179" lon="5.939419"><time>2026-05-06T20:08:17Z</time></trkpt>
</trkseg>
</trk>
<trk>
<name>lpbmz85</name>
<cmt>d</cmt>
<desc>Montzen Sentier n°85 </desc>
<link href="https://chemins.be/montzen/sentier/85"/><trkseg>
<trkpt lat="50.696192" lon="5.949240"><time>2026-05-06T18:28:17Z</time></trkpt>
<trkpt lat="50.698176" lon="5.945706"><time>2026-05-06T18:38:17Z</time></trkpt>
<trkpt lat="50.698937" lon="5.943207"><time>2026-05-06T18:48:17Z</time></trkpt>
<trkpt lat="50.698258" lon="5.942627"><time>2026-05-06T18:58:17Z</time></trkpt>
<trkpt lat="50.697853" lon="5.941486"><time>2026-05-06T19:08:17Z</time></trkpt>
<trkpt lat="50.698134" lon="5.941296"><time>2026-05-06T19:18:17Z</time></trkpt>
<trkpt lat="50.698415" lon="5.940628"><time>2026-05-06T19:28:17Z</time></trkpt>
<trkpt lat="50.698179" lon="5.937467"><time>2026-05-06T19:38:17Z</time></trkpt>
</trkseg></trk>
<trk>
<name>lpbmz85</name>
<cmt>v</cmt>
<desc>Montzen Sentier n°85 </desc>
<link href="https://chemins.be/montzen/sentier/85"/><trkseg>
<trkpt lat="50.698179" lon="5.937467"><time>2026-05-06T19:38:17Z</time></trkpt>
<trkpt lat="50.698718" lon="5.935657"><time>2026-05-06T19:48:17Z</time></trkpt>
</trkseg>
</trk>
<trk>
<name>lpbmz86</name>
<cmt>d</cmt>
<desc>Montzen Sentier n°86 </desc>
<link href="https://chemins.be/montzen/sentier/86"/><trkseg>
<trkpt lat="50.701237" lon="5.947405"><time>2026-05-06T18:28:17Z</time></trkpt>
<trkpt lat="50.705396" lon="5.949708"><time>2026-05-06T18:38:17Z</time></trkpt>
<trkpt lat="50.707165" lon="5.951062"><time>2026-05-06T18:48:17Z</time></trkpt>
</trkseg></trk>
<trk>
<name>lpbmz86</name>
<cmt>v</cmt>
<desc>Montzen Sentier n°86 </desc>
<link href="https://chemins.be/montzen/sentier/86"/><trkseg>
<trkpt lat="50.707165" lon="5.951062"><time>2026-05-06T18:48:17Z</time></trkpt>
<trkpt lat="50.709951" lon="5.954002"><time>2026-05-06T18:58:17Z</time></trkpt>
<trkpt lat="50.710202" lon="5.955093"><time>2026-05-06T19:08:17Z</time></trkpt>
<trkpt lat="50.710520" lon="5.954954"><time>2026-05-06T19:18:17Z</time></trkpt>
<trkpt lat="50.710737" lon="5.955144"><time>2026-05-06T19:28:17Z</time></trkpt>
<trkpt lat="50.710782" lon="5.955253"><time>2026-05-06T19:38:17Z</time></trkpt>
</trkseg>
</trk>
<trk>
<name>lpbmz87</name>
<cmt>q</cmt>
<desc>Montzen Sentier n°87 Rue de Chateau de Broich</desc>
<link href="https://chemins.be/montzen/sentier/87"/><trkseg>
<trkpt lat="50.705156" lon="5.942938"><time>2026-05-06T18:28:17Z</time></trkpt>
<trkpt lat="50.705643" lon="5.944824"><time>2026-05-06T18:38:17Z</time></trkpt>
<trkpt lat="50.707230" lon="5.951136"><time>2026-05-06T18:48:17Z</time></trkpt>
</trkseg>
</trk>
<trk>
<name>lpbmz88</name>
<cmt>b</cmt>
<desc>Montzen Sentier n°88 </desc>
<link href="https://chemins.be/montzen/sentier/88"/><trkseg>
<trkpt lat="50.701929" lon="5.980044"><time>2026-05-06T18:28:17Z</time></trkpt>
<trkpt lat="50.702871" lon="5.978845"><time>2026-05-06T18:38:17Z</time></trkpt>
</trkseg></trk>
<trk>
<name>lpbmz88</name>
<cmt>d</cmt>
<desc>Montzen Sentier n°88 </desc>
<link href="https://chemins.be/montzen/sentier/88"/><trkseg>
<trkpt lat="50.702871" lon="5.978845"><time>2026-05-06T18:38:17Z</time></trkpt>
<trkpt lat="50.703419" lon="5.978149"><time>2026-05-06T18:48:17Z</time></trkpt>
<trkpt lat="50.705326" lon="5.976704"><time>2026-05-06T18:58:17Z</time></trkpt>
</trkseg>
</trk>
<trk>
<name>lpbmz89</name>
<cmt>d</cmt>
<desc>Montzen Sentier n°89 </desc>
<link href="https://chemins.be/montzen/sentier/89"/><trkseg>
<trkpt lat="50.699846" lon="5.975887"><time>2026-05-06T18:28:17Z</time></trkpt>
<trkpt lat="50.700335" lon="5.974971"><time>2026-05-06T18:38:17Z</time></trkpt>
<trkpt lat="50.700702" lon="5.973426"><time>2026-05-06T18:48:17Z</time></trkpt>
<trkpt lat="50.700692" lon="5.972276"><time>2026-05-06T18:58:17Z</time></trkpt>
<trkpt lat="50.700758" lon="5.971776"><time>2026-05-06T19:08:17Z</time></trkpt>
<trkpt lat="50.701241" lon="5.969492"><time>2026-05-06T19:18:17Z</time></trkpt>
</trkseg>
</trk>
<trk>
<name>lpbmz9</name>
<cmt>r</cmt>
<desc>Montzen Chemin n°9 Cosenbergerheydt</desc>
<link href="https://chemins.be/montzen/chemin/9"/><trkseg>
<trkpt lat="50.711740" lon="5.969783"><time>2026-05-06T18:28:17Z</time></trkpt>
<trkpt lat="50.711157" lon="5.970186"><time>2026-05-06T18:38:17Z</time></trkpt>
<trkpt lat="50.710227" lon="5.970224"><time>2026-05-06T18:48:17Z</time></trkpt>
<trkpt lat="50.709520" lon="5.969888"><time>2026-05-06T18:58:17Z</time></trkpt>
<trkpt lat="50.708731" lon="5.970422"><time>2026-05-06T19:08:17Z</time></trkpt>
<trkpt lat="50.707662" lon="5.970579"><time>2026-05-06T19:18:17Z</time></trkpt>
<trkpt lat="50.707061" lon="5.971339"><time>2026-05-06T19:28:17Z</time></trkpt>
<trkpt lat="50.706744" lon="5.972770"><time>2026-05-06T19:38:17Z</time></trkpt>
<trkpt lat="50.706771" lon="5.972977"><time>2026-05-06T19:48:17Z</time></trkpt>
<trkpt lat="50.706400" lon="5.973356"><time>2026-05-06T19:58:17Z</time></trkpt>
<trkpt lat="50.706246" lon="5.973900"><time>2026-05-06T20:08:17Z</time></trkpt>
<trkpt lat="50.706794" lon="5.974840"><time>2026-05-06T20:18:17Z</time></trkpt>
<trkpt lat="50.706822" lon="5.975335"><time>2026-05-06T20:28:17Z</time></trkpt>
<trkpt lat="50.706924" lon="5.975802"><time>2026-05-06T20:38:17Z</time></trkpt>
<trkpt lat="50.706681" lon="5.976883"><time>2026-05-06T20:48:17Z</time></trkpt>
<trkpt lat="50.706586" lon="5.978089"><time>2026-05-06T20:58:17Z</time></trkpt>
</trkseg>
</trk>
<trk>
<name>lpbmz90</name>
<cmt>s</cmt>
<desc>Montzen Sentier n°90 </desc>
<link href="https://chemins.be/montzen/sentier/90"/><trkseg>
<trkpt lat="50.698808" lon="5.973483"><time>2026-05-06T18:28:17Z</time></trkpt>
<trkpt lat="50.698923" lon="5.972271"><time>2026-05-06T18:38:17Z</time></trkpt>
</trkseg></trk>
<trk>
<name>lpbmz90</name>
<cmt>d</cmt>
<desc>Montzen Sentier n°90 </desc>
<link href="https://chemins.be/montzen/sentier/90"/><trkseg>
<trkpt lat="50.698923" lon="5.972271"><time>2026-05-06T18:38:17Z</time></trkpt>
<trkpt lat="50.699298" lon="5.968298"><time>2026-05-06T18:48:17Z</time></trkpt>
<trkpt lat="50.698618" lon="5.965609"><time>2026-05-06T18:58:17Z</time></trkpt>
<trkpt lat="50.698695" lon="5.965202"><time>2026-05-06T19:08:17Z</time></trkpt>
<trkpt lat="50.698348" lon="5.964515"><time>2026-05-06T19:18:17Z</time></trkpt>
<trkpt lat="50.698154" lon="5.964483"><time>2026-05-06T19:28:17Z</time></trkpt>
<trkpt lat="50.698102" lon="5.964314"><time>2026-05-06T19:38:17Z</time></trkpt>
<trkpt lat="50.698178" lon="5.961765"><time>2026-05-06T19:48:17Z</time></trkpt>
<trkpt lat="50.698654" lon="5.960652"><time>2026-05-06T19:58:17Z</time></trkpt>
</trkseg>
</trk>
<trk>
<name>lpbmz92</name>
<cmt>d</cmt>
<desc>Montzen Sentier n°92 </desc>
<link href="https://chemins.be/montzen/sentier/92"/><trkseg>
<trkpt lat="50.695360" lon="5.967516"><time>2026-05-06T18:28:17Z</time></trkpt>
<trkpt lat="50.695722" lon="5.965914"><time>2026-05-06T18:38:17Z</time></trkpt>
</trkseg>
</trk>
<trk>
<name>lpbmz93</name>
<cmt>d</cmt>
<desc>Montzen Chemin n°93 </desc>
<link href="https://chemins.be/montzen/chemin/93"/><trkseg>
<trkpt lat="50.682170" lon="5.924530"><time>2026-05-06T18:28:17Z</time></trkpt>
<trkpt lat="50.683414" lon="5.923629"><time>2026-05-06T18:38:17Z</time></trkpt>
</trkseg>
</trk>
<trk>
<name>lpbmz94</name>
<cmt>v</cmt>
<desc>Montzen Sentier n°94 </desc>
<link href="https://chemins.be/montzen/sentier/94"/><trkseg>
<trkpt lat="50.688727" lon="5.924475"><time>2026-05-06T18:28:17Z</time></trkpt>
<trkpt lat="50.688710" lon="5.925084"><time>2026-05-06T18:38:17Z</time></trkpt>
<trkpt lat="50.688493" lon="5.925469"><time>2026-05-06T18:48:17Z</time></trkpt>
</trkseg></trk>
<trk>
<name>lpbmz94</name>
<cmt>b</cmt>
<desc>Montzen Sentier n°94 </desc>
<link href="https://chemins.be/montzen/sentier/94"/><trkseg>
<trkpt lat="50.688493" lon="5.925469"><time>2026-05-06T18:48:17Z</time></trkpt>
<trkpt lat="50.687707" lon="5.926860"><time>2026-05-06T18:58:17Z</time></trkpt>
</trkseg></trk>
<trk>
<name>lpbmz94</name>
<cmt>v</cmt>
<desc>Montzen Sentier n°94 </desc>
<link href="https://chemins.be/montzen/sentier/94"/><trkseg>
<trkpt lat="50.687707" lon="5.926860"><time>2026-05-06T18:58:17Z</time></trkpt>
<trkpt lat="50.687422" lon="5.929124"><time>2026-05-06T19:08:17Z</time></trkpt>
<trkpt lat="50.687699" lon="5.929202"><time>2026-05-06T19:18:17Z</time></trkpt>
</trkseg></trk>
<trk>
<name>lpbmz94</name>
<cmt>d</cmt>
<desc>Montzen Sentier n°94 </desc>
<link href="https://chemins.be/montzen/sentier/94"/><trkseg>
<trkpt lat="50.687699" lon="5.929202"><time>2026-05-06T19:18:17Z</time></trkpt>
<trkpt lat="50.687083" lon="5.930668"><time>2026-05-06T19:28:17Z</time></trkpt>
<trkpt lat="50.687203" lon="5.931498"><time>2026-05-06T19:38:17Z</time></trkpt>
</trkseg>
</trk>
<trk>
<name>lpbmz94bis</name>
<cmt>v</cmt>
<desc>Montzen Sentier n°94bis </desc>
<link href="https://chemins.be/montzen/sentier/94bis"/><trkseg>
<trkpt lat="50.687648" lon="5.924711"><time>2026-05-06T18:28:17Z</time></trkpt>
<trkpt lat="50.687707" lon="5.926782"><time>2026-05-06T18:38:17Z</time></trkpt>
</trkseg>
</trk>
<trk>
<name>lpbmz95</name>
<cmt>v</cmt>
<desc>Montzen Sentier n°95 </desc>
<link href="https://chemins.be/montzen/sentier/95"/><trkseg>
<trkpt lat="50.687697" lon="5.929229"><time>2026-05-06T18:28:17Z</time></trkpt>
<trkpt lat="50.688590" lon="5.929708"><time>2026-05-06T18:38:17Z</time></trkpt>
</trkseg></trk>
<trk>
<name>lpbmz95</name>
<cmt>d</cmt>
<desc>Montzen Sentier n°95 </desc>
<link href="https://chemins.be/montzen/sentier/95"/><trkseg>
<trkpt lat="50.688590" lon="5.929708"><time>2026-05-06T18:38:17Z</time></trkpt>
<trkpt lat="50.689278" lon="5.932683"><time>2026-05-06T18:48:17Z</time></trkpt>
</trkseg>
</trk>
<trk>
<name>lpbmz96</name>
<cmt>d</cmt>
<desc>Montzen Sentier n°96 </desc>
<link href="https://chemins.be/montzen/sentier/96"/><trkseg>
<trkpt lat="50.689263" lon="5.932722"><time>2026-05-06T18:28:17Z</time></trkpt>
<trkpt lat="50.689560" lon="5.930597"><time>2026-05-06T18:38:17Z</time></trkpt>
<trkpt lat="50.689885" lon="5.930244"><time>2026-05-06T18:48:17Z</time></trkpt>
<trkpt lat="50.690208" lon="5.929893"><time>2026-05-06T18:58:17Z</time></trkpt>
<trkpt lat="50.690323" lon="5.928420"><time>2026-05-06T19:08:17Z</time></trkpt>
<trkpt lat="50.690895" lon="5.927405"><time>2026-05-06T19:18:17Z</time></trkpt>
</trkseg>
</trk>
<trk>
<name>lpbmz99</name>
<cmt>d</cmt>
<desc>Montzen Sentier n°99 </desc>
<link href="https://chemins.be/montzen/sentier/99"/><trkseg>
<trkpt lat="50.707947" lon="5.962167"><time>2026-05-06T18:28:17Z</time></trkpt>
<trkpt lat="50.707993" lon="5.962582"><time>2026-05-06T18:38:17Z</time></trkpt>
<trkpt lat="50.707963" lon="5.962950"><time>2026-05-06T18:48:17Z</time></trkpt>
<trkpt lat="50.707793" lon="5.962954"><time>2026-05-06T18:58:17Z</time></trkpt>
</trkseg>
</trk>
<trk>
<name>lpbmzi1</name>
<cmt>v</cmt>
<desc>Montzen Chemin n°i1 Rue du Chateau de Graaf</desc>
<link href="https://chemins.be/montzen/chemin/i1"/><trkseg>
<trkpt lat="50.701467" lon="5.947771"><time>2026-05-06T18:28:17Z</time></trkpt>
<trkpt lat="50.701545" lon="5.946627"><time>2026-05-06T18:38:17Z</time></trkpt>
</trkseg>
</trk>
<trk>
<name>lpbmzi10</name>
<cmt>v</cmt>
<desc>Montzen Sentier n°i10 </desc>
<link href="https://chemins.be/montzen/sentier/i10"/><trkseg>
<trkpt lat="50.706319" lon="5.973457"><time>2026-05-06T18:28:17Z</time></trkpt>
<trkpt lat="50.706215" lon="5.971873"><time>2026-05-06T18:38:17Z</time></trkpt>
<trkpt lat="50.706022" lon="5.971319"><time>2026-05-06T18:48:17Z</time></trkpt>
</trkseg>
</trk>
<trk>
<name>lpbmzi11</name>
<cmt>v</cmt>
<desc>Montzen Chemin n°i11 </desc>
<link href="https://chemins.be/montzen/chemin/i11"/><trkseg>
<trkpt lat="50.733909" lon="5.965312"><time>2026-05-06T18:28:17Z</time></trkpt>
<trkpt lat="50.734913" lon="5.964346"><time>2026-05-06T18:38:17Z</time></trkpt>
<trkpt lat="50.735062" lon="5.964077"><time>2026-05-06T18:48:17Z</time></trkpt>
<trkpt lat="50.735402" lon="5.963676"><time>2026-05-06T18:58:17Z</time></trkpt>
<trkpt lat="50.736857" lon="5.962496"><time>2026-05-06T19:08:17Z</time></trkpt>
</trkseg>
</trk>
<trk>
<name>lpbmzi12</name>
<cmt>v</cmt>
<desc>Montzen Sentier n°i12 </desc>
<link href="https://chemins.be/montzen/sentier/i12"/><trkseg>
<trkpt lat="50.732960" lon="5.967879"><time>2026-05-06T18:28:17Z</time></trkpt>
<trkpt lat="50.733790" lon="5.967862"><time>2026-05-06T18:38:17Z</time></trkpt>
<trkpt lat="50.733942" lon="5.967909"><time>2026-05-06T18:48:17Z</time></trkpt>
<trkpt lat="50.734487" lon="5.968088"><time>2026-05-06T18:58:17Z</time></trkpt>
</trkseg>
</trk>
<trk>
<name>lpbmzi13</name>
<cmt>v</cmt>
<desc>Montzen Sentier n°i13 </desc>
<link href="https://chemins.be/montzen/sentier/i13"/><trkseg>
<trkpt lat="50.717132" lon="5.953301"><time>2026-05-06T18:28:17Z</time></trkpt>
<trkpt lat="50.717602" lon="5.953525"><time>2026-05-06T18:38:17Z</time></trkpt>
<trkpt lat="50.717814" lon="5.953676"><time>2026-05-06T18:48:17Z</time></trkpt>
<trkpt lat="50.718354" lon="5.952471"><time>2026-05-06T18:58:17Z</time></trkpt>
<trkpt lat="50.718590" lon="5.951326"><time>2026-05-06T19:08:17Z</time></trkpt>
<trkpt lat="50.719215" lon="5.949724"><time>2026-05-06T19:18:17Z</time></trkpt>
<trkpt lat="50.719450" lon="5.948551"><time>2026-05-06T19:28:17Z</time></trkpt>
<trkpt lat="50.719609" lon="5.948136"><time>2026-05-06T19:38:17Z</time></trkpt>
</trkseg>
</trk>
<trk>
<name>lpbmzi14</name>
<cmt>v</cmt>
<desc>Montzen Sentier n°i14 </desc>
<link href="https://chemins.be/montzen/sentier/i14"/><trkseg>
<trkpt lat="50.717594" lon="5.953556"><time>2026-05-06T18:28:17Z</time></trkpt>
<trkpt lat="50.717567" lon="5.952984"><time>2026-05-06T18:38:17Z</time></trkpt>
<trkpt lat="50.717766" lon="5.951897"><time>2026-05-06T18:48:17Z</time></trkpt>
<trkpt lat="50.717685" lon="5.951210"><time>2026-05-06T18:58:17Z</time></trkpt>
<trkpt lat="50.718219" lon="5.950452"><time>2026-05-06T19:08:17Z</time></trkpt>
<trkpt lat="50.718694" lon="5.948601"><time>2026-05-06T19:18:17Z</time></trkpt>
<trkpt lat="50.718966" lon="5.948237"><time>2026-05-06T19:28:17Z</time></trkpt>
<trkpt lat="50.719310" lon="5.948172"><time>2026-05-06T19:38:17Z</time></trkpt>
<trkpt lat="50.719486" lon="5.948001"><time>2026-05-06T19:48:17Z</time></trkpt>
</trkseg>
</trk>
<trk>
<name>lpbmzi15</name>
<cmt>v</cmt>
<desc>Montzen Sentier n°i15 </desc>
<link href="https://chemins.be/montzen/sentier/i15"/><trkseg>
<trkpt lat="50.688570" lon="5.929690"><time>2026-05-06T18:28:17Z</time></trkpt>
<trkpt lat="50.690514" lon="5.930520"><time>2026-05-06T18:38:17Z</time></trkpt>
<trkpt lat="50.691107" lon="5.930770"><time>2026-05-06T18:48:17Z</time></trkpt>
</trkseg>
</trk>
<trk>
<name>lpbmzi16</name>
<cmt>v</cmt>
<desc>Montzen Sentier n°i16 </desc>
<link href="https://chemins.be/montzen/sentier/i16"/><trkseg>
<trkpt lat="50.716122" lon="5.966640"><time>2026-05-06T18:28:17Z</time></trkpt>
<trkpt lat="50.715999" lon="5.965152"><time>2026-05-06T18:38:17Z</time></trkpt>
<trkpt lat="50.716833" lon="5.961469"><time>2026-05-06T18:48:17Z</time></trkpt>
</trkseg>
</trk>
<trk>
<name>lpbmzi17</name>
<cmt>v</cmt>
<desc>Montzen Chemin n°i17 Rue du Couvent</desc>
<link href="https://chemins.be/montzen/chemin/i17"/><trkseg>
<trkpt lat="50.737610" lon="5.961473"><time>2026-05-06T18:28:17Z</time></trkpt>
<trkpt lat="50.736854" lon="5.959796"><time>2026-05-06T18:38:17Z</time></trkpt>
<trkpt lat="50.736658" lon="5.959491"><time>2026-05-06T18:48:17Z</time></trkpt>
</trkseg>
</trk>
<trk>
<name>lpbmzi18</name>
<cmt>v</cmt>
<desc>Montzen Chemin n°i18 </desc>
<link href="https://chemins.be/montzen/chemin/i18"/><trkseg>
<trkpt lat="50.716479" lon="5.960099"><time>2026-05-06T18:28:17Z</time></trkpt>
<trkpt lat="50.716489" lon="5.959828"><time>2026-05-06T18:38:17Z</time></trkpt>
<trkpt lat="50.716448" lon="5.959420"><time>2026-05-06T18:48:17Z</time></trkpt>
<trkpt lat="50.716221" lon="5.958454"><time>2026-05-06T18:58:17Z</time></trkpt>
<trkpt lat="50.716072" lon="5.956652"><time>2026-05-06T19:08:17Z</time></trkpt>
<trkpt lat="50.716892" lon="5.953397"><time>2026-05-06T19:18:17Z</time></trkpt>
</trkseg>
</trk>
<trk>
<name>lpbmzi19</name>
<cmt>v</cmt>
<desc>Montzen Chemin n°i19 </desc>
<link href="https://chemins.be/montzen/chemin/i19"/><trkseg>
<trkpt lat="50.708803" lon="5.929392"><time>2026-05-06T18:28:17Z</time></trkpt>
<trkpt lat="50.708892" lon="5.929443"><time>2026-05-06T18:38:17Z</time></trkpt>
</trkseg>
</trk>
<trk>
<name>lpbmzi2</name>
<cmt>v</cmt>
<desc>Montzen Chemin n°i2 </desc>
<link href="https://chemins.be/montzen/chemin/i2"/><trkseg>
<trkpt lat="50.704756" lon="5.940963"><time>2026-05-06T18:28:17Z</time></trkpt>
<trkpt lat="50.704888" lon="5.941429"><time>2026-05-06T18:38:17Z</time></trkpt>
<trkpt lat="50.704704" lon="5.941791"><time>2026-05-06T18:48:17Z</time></trkpt>
<trkpt lat="50.704541" lon="5.941828"><time>2026-05-06T18:58:17Z</time></trkpt>
<trkpt lat="50.703900" lon="5.942033"><time>2026-05-06T19:08:17Z</time></trkpt>
</trkseg>
</trk>
<trk>
<name>lpbmzi20</name>
<cmt>v</cmt>
<desc>Montzen Sentier n°i20 </desc>
<link href="https://chemins.be/montzen/sentier/i20"/><trkseg>
<trkpt lat="50.736719" lon="5.962761"><time>2026-05-06T18:28:17Z</time></trkpt>
<trkpt lat="50.736242" lon="5.962185"><time>2026-05-06T18:38:17Z</time></trkpt>
<trkpt lat="50.735560" lon="5.962489"><time>2026-05-06T18:48:17Z</time></trkpt>
<trkpt lat="50.735323" lon="5.962746"><time>2026-05-06T18:58:17Z</time></trkpt>
<trkpt lat="50.735164" lon="5.962661"><time>2026-05-06T19:08:17Z</time></trkpt>
<trkpt lat="50.734476" lon="5.963362"><time>2026-05-06T19:18:17Z</time></trkpt>
<trkpt lat="50.734492" lon="5.964059"><time>2026-05-06T19:28:17Z</time></trkpt>
</trkseg>
</trk>
<trk>
<name>lpbmzi21</name>
<cmt>v</cmt>
<desc>Montzen Sentier n°i21 </desc>
<link href="https://chemins.be/montzen/sentier/i21"/><trkseg>
<trkpt lat="50.734558" lon="5.965107"><time>2026-05-06T18:28:17Z</time></trkpt>
<trkpt lat="50.735035" lon="5.965450"><time>2026-05-06T18:38:17Z</time></trkpt>
<trkpt lat="50.735239" lon="5.965951"><time>2026-05-06T18:48:17Z</time></trkpt>
</trkseg>
</trk>
<trk>
<name>lpbmzi22</name>
<cmt>v</cmt>
<desc>Montzen Sentier n°i22 </desc>
<link href="https://chemins.be/montzen/sentier/i22"/><trkseg>
<trkpt lat="50.734910" lon="5.964339"><time>2026-05-06T18:28:17Z</time></trkpt>
<trkpt lat="50.734575" lon="5.965109"><time>2026-05-06T18:38:17Z</time></trkpt>
<trkpt lat="50.733371" lon="5.967212"><time>2026-05-06T18:48:17Z</time></trkpt>
<trkpt lat="50.732955" lon="5.967873"><time>2026-05-06T18:58:17Z</time></trkpt>
<trkpt lat="50.732431" lon="5.968255"><time>2026-05-06T19:08:17Z</time></trkpt>
<trkpt lat="50.731209" lon="5.970609"><time>2026-05-06T19:18:17Z</time></trkpt>
</trkseg>
</trk>
<trk>
<name>lpbmzi23</name>
<cmt>v</cmt>
<desc>Montzen Sentier n°i23 </desc>
<link href="https://chemins.be/montzen/sentier/i23"/><trkseg>
<trkpt lat="50.735616" lon="5.962499"><time>2026-05-06T18:28:17Z</time></trkpt>
<trkpt lat="50.735544" lon="5.961927"><time>2026-05-06T18:38:17Z</time></trkpt>
<trkpt lat="50.735105" lon="5.961898"><time>2026-05-06T18:48:17Z</time></trkpt>
<trkpt lat="50.734742" lon="5.962928"><time>2026-05-06T18:58:17Z</time></trkpt>
<trkpt lat="50.734095" lon="5.963386"><time>2026-05-06T19:08:17Z</time></trkpt>
<trkpt lat="50.734131" lon="5.964130"><time>2026-05-06T19:18:17Z</time></trkpt>
</trkseg>
</trk>
<trk>
<name>lpbmzi24</name>
<cmt>v</cmt>
<desc>Montzen Sentier n°i24 </desc>
<link href="https://chemins.be/montzen/sentier/i24"/><trkseg>
<trkpt lat="50.735414" lon="5.963689"><time>2026-05-06T18:28:17Z</time></trkpt>
<trkpt lat="50.735604" lon="5.963835"><time>2026-05-06T18:38:17Z</time></trkpt>
<trkpt lat="50.735627" lon="5.963992"><time>2026-05-06T18:48:17Z</time></trkpt>
<trkpt lat="50.735000" lon="5.964911"><time>2026-05-06T18:58:17Z</time></trkpt>
<trkpt lat="50.734959" lon="5.965912"><time>2026-05-06T19:08:17Z</time></trkpt>
<trkpt lat="50.733844" lon="5.968380"><time>2026-05-06T19:18:17Z</time></trkpt>
</trkseg>
</trk>
<trk>
<name>lpbmzi25</name>
<cmt>v</cmt>
<desc>Montzen Chemin n°i25 Rue Gustave Demoulin</desc>
<link href="https://chemins.be/montzen/chemin/i25"/><trkseg>
<trkpt lat="50.710955" lon="5.966748"><time>2026-05-06T18:28:17Z</time></trkpt>
<trkpt lat="50.711469" lon="5.966165"><time>2026-05-06T18:38:17Z</time></trkpt>
</trkseg>
</trk>
<trk>
<name>lpbmzi26</name>
<cmt>v</cmt>
<desc>Montzen Sentier n°i26 </desc>
<link href="https://chemins.be/montzen/sentier/i26"/><trkseg>
<trkpt lat="50.733642" lon="5.962383"><time>2026-05-06T18:28:17Z</time></trkpt>
<trkpt lat="50.732302" lon="5.962111"><time>2026-05-06T18:38:17Z</time></trkpt>
<trkpt lat="50.730518" lon="5.960437"><time>2026-05-06T18:48:17Z</time></trkpt>
</trkseg>
</trk>
<trk>
<name>lpbmzi27</name>
<cmt>v</cmt>
<desc>Montzen Sentier n°i27 </desc>
<link href="https://chemins.be/montzen/sentier/i27"/><trkseg>
<trkpt lat="50.689329" lon="5.932812"><time>2026-05-06T18:28:17Z</time></trkpt>
<trkpt lat="50.689867" lon="5.932866"><time>2026-05-06T18:38:17Z</time></trkpt>
<trkpt lat="50.690071" lon="5.932919"><time>2026-05-06T18:48:17Z</time></trkpt>
<trkpt lat="50.690820" lon="5.933868"><time>2026-05-06T18:58:17Z</time></trkpt>
<trkpt lat="50.691355" lon="5.933606"><time>2026-05-06T19:08:17Z</time></trkpt>
<trkpt lat="50.691663" lon="5.933196"><time>2026-05-06T19:18:17Z</time></trkpt>
<trkpt lat="50.692209" lon="5.933019"><time>2026-05-06T19:28:17Z</time></trkpt>
<trkpt lat="50.692702" lon="5.933325"><time>2026-05-06T19:38:17Z</time></trkpt>
<trkpt lat="50.692829" lon="5.933319"><time>2026-05-06T19:48:17Z</time></trkpt>
<trkpt lat="50.692995" lon="5.933205"><time>2026-05-06T19:58:17Z</time></trkpt>
<trkpt lat="50.692968" lon="5.932032"><time>2026-05-06T20:08:17Z</time></trkpt>
<trkpt lat="50.693054" lon="5.932060"><time>2026-05-06T20:18:17Z</time></trkpt>
<trkpt lat="50.693246" lon="5.931533"><time>2026-05-06T20:28:17Z</time></trkpt>
<trkpt lat="50.693225" lon="5.931273"><time>2026-05-06T20:38:17Z</time></trkpt>
<trkpt lat="50.693310" lon="5.931016"><time>2026-05-06T20:48:17Z</time></trkpt>
<trkpt lat="50.693201" lon="5.930866"><time>2026-05-06T20:58:17Z</time></trkpt>
<trkpt lat="50.693269" lon="5.930751"><time>2026-05-06T21:08:17Z</time></trkpt>
<trkpt lat="50.693313" lon="5.930286"><time>2026-05-06T21:18:17Z</time></trkpt>
<trkpt lat="50.693381" lon="5.930189"><time>2026-05-06T21:28:17Z</time></trkpt>
<trkpt lat="50.693338" lon="5.929814"><time>2026-05-06T21:38:17Z</time></trkpt>
</trkseg>
</trk>
<trk>
<name>lpbmzi3</name>
<cmt>d</cmt>
<desc>Montzen Sentier n°i3 </desc>
<link href="https://chemins.be/montzen/sentier/i3"/><trkseg>
<trkpt lat="50.694270" lon="5.942435"><time>2026-05-06T18:28:17Z</time></trkpt>
<trkpt lat="50.694771" lon="5.941627"><time>2026-05-06T18:38:17Z</time></trkpt>
<trkpt lat="50.695145" lon="5.940940"><time>2026-05-06T18:48:17Z</time></trkpt>
</trkseg>
</trk>
<trk>
<name>lpbmzi4</name>
<cmt>v</cmt>
<desc>Montzen Chemin n°i4 </desc>
<link href="https://chemins.be/montzen/chemin/i4"/><trkseg>
<trkpt lat="50.725153" lon="5.952714"><time>2026-05-06T18:28:17Z</time></trkpt>
<trkpt lat="50.725551" lon="5.951756"><time>2026-05-06T18:38:17Z</time></trkpt>
<trkpt lat="50.725665" lon="5.951899"><time>2026-05-06T18:48:17Z</time></trkpt>
<trkpt lat="50.726072" lon="5.953494"><time>2026-05-06T18:58:17Z</time></trkpt>
<trkpt lat="50.725964" lon="5.954860"><time>2026-05-06T19:08:17Z</time></trkpt>
<trkpt lat="50.726914" lon="5.957413"><time>2026-05-06T19:18:17Z</time></trkpt>
<trkpt lat="50.726892" lon="5.958064"><time>2026-05-06T19:28:17Z</time></trkpt>
</trkseg>
</trk>
<trk>
<name>lpbmzi5</name>
<cmt>v</cmt>
<desc>Montzen Chemin n°i5 </desc>
<link href="https://chemins.be/montzen/chemin/i5"/><trkseg>
<trkpt lat="50.718923" lon="5.947671"><time>2026-05-06T18:28:17Z</time></trkpt>
<trkpt lat="50.719776" lon="5.946437"><time>2026-05-06T18:38:17Z</time></trkpt>
<trkpt lat="50.720317" lon="5.944689"><time>2026-05-06T18:48:17Z</time></trkpt>
<trkpt lat="50.720242" lon="5.944332"><time>2026-05-06T18:58:17Z</time></trkpt>
<trkpt lat="50.720229" lon="5.944326"><time>2026-05-06T19:08:17Z</time></trkpt>
<trkpt lat="50.722050" lon="5.938577"><time>2026-05-06T19:18:17Z</time></trkpt>
</trkseg>
</trk>
<trk>
<name>lpbmzi6</name>
<cmt>v</cmt>
<desc>Montzen Sentier n°i6 </desc>
<link href="https://chemins.be/montzen/sentier/i6"/><trkseg>
<trkpt lat="50.712391" lon="5.942025"><time>2026-05-06T18:28:17Z</time></trkpt>
<trkpt lat="50.713324" lon="5.939814"><time>2026-05-06T18:38:17Z</time></trkpt>
</trkseg>
</trk>
<trk>
<name>lpbmzi7</name>
<cmt>v</cmt>
<desc>Montzen Chemin n°i7 </desc>
<link href="https://chemins.be/montzen/chemin/i7"/><trkseg>
<trkpt lat="50.708105" lon="5.927457"><time>2026-05-06T18:28:17Z</time></trkpt>
<trkpt lat="50.708128" lon="5.926910"><time>2026-05-06T18:38:17Z</time></trkpt>
</trkseg>
</trk>
<trk>
<name>lpbmzi8</name>
<cmt>v</cmt>
<desc>Montzen Sentier n°i8 </desc>
<link href="https://chemins.be/montzen/sentier/i8"/><trkseg>
<trkpt lat="50.729194" lon="5.950443"><time>2026-05-06T18:28:17Z</time></trkpt>
<trkpt lat="50.729122" lon="5.950372"><time>2026-05-06T18:38:17Z</time></trkpt>
<trkpt lat="50.727741" lon="5.946745"><time>2026-05-06T18:48:17Z</time></trkpt>
<trkpt lat="50.727641" lon="5.945692"><time>2026-05-06T18:58:17Z</time></trkpt>
<trkpt lat="50.727880" lon="5.945096"><time>2026-05-06T19:08:17Z</time></trkpt>
<trkpt lat="50.727973" lon="5.944971"><time>2026-05-06T19:18:17Z</time></trkpt>
<trkpt lat="50.728002" lon="5.944624"><time>2026-05-06T19:28:17Z</time></trkpt>
<trkpt lat="50.727877" lon="5.944183"><time>2026-05-06T19:38:17Z</time></trkpt>
<trkpt lat="50.727339" lon="5.944071"><time>2026-05-06T19:48:17Z</time></trkpt>
<trkpt lat="50.727160" lon="5.943822"><time>2026-05-06T19:58:17Z</time></trkpt>
<trkpt lat="50.726275" lon="5.943359"><time>2026-05-06T20:08:17Z</time></trkpt>
</trkseg>
</trk>
<trk>
<name>lpbmzi9</name>
<cmt>v</cmt>
<desc>Montzen Sentier n°i9 </desc>
<link href="https://chemins.be/montzen/sentier/i9"/><trkseg>
<trkpt lat="50.705853" lon="5.974308"><time>2026-05-06T18:28:17Z</time></trkpt>
<trkpt lat="50.706073" lon="5.973824"><time>2026-05-06T18:38:17Z</time></trkpt>
<trkpt lat="50.706210" lon="5.973880"><time>2026-05-06T18:48:17Z</time></trkpt>
</trkseg>
</trk>
<trk>
<name>lpbmzL38</name>
<cmt>v</cmt>
<desc>Montzen Chemin n°L38 RAVeL 38 Plombières Hombourg / Windt / Rue des Mineurs / RAVeL 38</desc>
<link href="https://chemins.be/montzen/chemin/L38"/><trkseg>
<trkpt lat="50.736178" lon="5.958187"><time>2026-05-06T18:28:17Z</time></trkpt>
<trkpt lat="50.736003" lon="5.958688"><time>2026-05-06T18:38:17Z</time></trkpt>
<trkpt lat="50.735660" lon="5.959316"><time>2026-05-06T18:48:17Z</time></trkpt>
<trkpt lat="50.735762" lon="5.959455"><time>2026-05-06T18:58:17Z</time></trkpt>
<trkpt lat="50.735280" lon="5.960088"><time>2026-05-06T19:08:17Z</time></trkpt>
</trkseg></trk>
<trk>
<name>lpbmzL38</name>
<cmt>r</cmt>
<desc>Montzen Chemin n°L38 RAVeL 38 Plombières Hombourg / Windt / Rue des Mineurs / RAVeL 38</desc>
<link href="https://chemins.be/montzen/chemin/L38"/><trkseg>
<trkpt lat="50.735280" lon="5.960088"><time>2026-05-06T19:08:17Z</time></trkpt>
<trkpt lat="50.734845" lon="5.960566"><time>2026-05-06T19:18:17Z</time></trkpt>
</trkseg></trk>
<trk>
<name>lpbmzL38</name>
<cmt>v</cmt>
<desc>Montzen Chemin n°L38 RAVeL 38 Plombières Hombourg / Windt / Rue des Mineurs / RAVeL 38</desc>
<link href="https://chemins.be/montzen/chemin/L38"/><trkseg>
<trkpt lat="50.734845" lon="5.960566"><time>2026-05-06T19:18:17Z</time></trkpt>
<trkpt lat="50.733983" lon="5.961966"><time>2026-05-06T19:28:17Z</time></trkpt>
<trkpt lat="50.733808" lon="5.962528"><time>2026-05-06T19:38:17Z</time></trkpt>
<trkpt lat="50.733403" lon="5.964385"><time>2026-05-06T19:48:17Z</time></trkpt>
<trkpt lat="50.733399" lon="5.964887"><time>2026-05-06T19:58:17Z</time></trkpt>
<trkpt lat="50.733859" lon="5.965289"><time>2026-05-06T20:08:17Z</time></trkpt>
</trkseg>
</trk>
<trk>
<name>lpbmzL39</name>
<cmt>v</cmt>
<desc>Montzen Chemin n°L39 Ravel L 39 / RAVeL 39 Moresnet Gemmenich / RAVeL L 39</desc>
<link href="https://chemins.be/montzen/chemin/L39"/><trkseg>
<trkpt lat="50.698701" lon="5.960234"><time>2026-05-06T18:28:17Z</time></trkpt>
<trkpt lat="50.700358" lon="5.962570"><time>2026-05-06T18:38:17Z</time></trkpt>
<trkpt lat="50.701546" lon="5.965783"><time>2026-05-06T18:48:17Z</time></trkpt>
<trkpt lat="50.702969" lon="5.969527"><time>2026-05-06T18:58:17Z</time></trkpt>
<trkpt lat="50.704171" lon="5.971735"><time>2026-05-06T19:08:17Z</time></trkpt>
<trkpt lat="50.706281" lon="5.973590"><time>2026-05-06T19:18:17Z</time></trkpt>
<trkpt lat="50.708638" lon="5.975129"><time>2026-05-06T19:28:17Z</time></trkpt>
</trkseg>
</trk>
<trk>
<name>lpbmzL39b</name>
<cmt>s</cmt>
<desc>Montzen Chemin n°L39 partie b RAVeL 39 Moresnet Gemmenich / RAVeL 39 / Ligne 39</desc>
<link href="https://chemins.be/montzen/chemin/L39b"/><trkseg>
<trkpt lat="50.725928" lon="5.975280"><time>2026-05-06T18:28:17Z</time></trkpt>
<trkpt lat="50.728296" lon="5.974249"><time>2026-05-06T18:38:17Z</time></trkpt>
<trkpt lat="50.729862" lon="5.972777"><time>2026-05-06T18:48:17Z</time></trkpt>
</trkseg></trk>
<trk>
<name>lpbmzL39b</name>
<cmt>v</cmt>
<desc>Montzen Chemin n°L39 partie b RAVeL 39 Moresnet Gemmenich / RAVeL 39 / Ligne 39</desc>
<link href="https://chemins.be/montzen/chemin/L39b"/><trkseg>
<trkpt lat="50.729862" lon="5.972777"><time>2026-05-06T18:48:17Z</time></trkpt>
<trkpt lat="50.730536" lon="5.971570"><time>2026-05-06T18:58:17Z</time></trkpt>
<trkpt lat="50.730971" lon="5.970992"><time>2026-05-06T19:08:17Z</time></trkpt>
<trkpt lat="50.732422" lon="5.967883"><time>2026-05-06T19:18:17Z</time></trkpt>
<trkpt lat="50.732160" lon="5.967482"><time>2026-05-06T19:28:17Z</time></trkpt>
<trkpt lat="50.732893" lon="5.966476"><time>2026-05-06T19:38:17Z</time></trkpt>
<trkpt lat="50.733088" lon="5.966666"><time>2026-05-06T19:48:17Z</time></trkpt>
<trkpt lat="50.733783" lon="5.965424"><time>2026-05-06T19:58:17Z</time></trkpt>
</trkseg></trk>
<trk>
<name>lpbmzL39b</name>
<cmt>s</cmt>
<desc>Montzen Chemin n°L39 partie b RAVeL 39 Moresnet Gemmenich / RAVeL 39 / Ligne 39</desc>
<link href="https://chemins.be/montzen/chemin/L39b"/><trkseg>
<trkpt lat="50.733783" lon="5.965424"><time>2026-05-06T19:58:17Z</time></trkpt>
<trkpt lat="50.735006" lon="5.964907"><time>2026-05-06T20:08:17Z</time></trkpt>
</trkseg></trk>
<trk>
<name>lpbmzL39b</name>
<cmt>v</cmt>
<desc>Montzen Chemin n°L39 partie b RAVeL 39 Moresnet Gemmenich / RAVeL 39 / Ligne 39</desc>
<link href="https://chemins.be/montzen/chemin/L39b"/><trkseg>
<trkpt lat="50.735006" lon="5.964907"><time>2026-05-06T20:08:17Z</time></trkpt>
<trkpt lat="50.735653" lon="5.965143"><time>2026-05-06T20:18:17Z</time></trkpt>
</trkseg>
</trk>
<trk>
<name>lpbmzp1</name>
<cmt>d</cmt>
<desc>Montzen Chemin particulier n°p1 </desc>
<link href="https://chemins.be/montzen/chemin/p1"/><trkseg>
<trkpt lat="50.714469" lon="5.931227"><time>2026-05-06T18:28:17Z</time></trkpt>
<trkpt lat="50.713658" lon="5.931788"><time>2026-05-06T18:38:17Z</time></trkpt>
</trkseg>
</trk>
<trk>
<name>lpbmzp2</name>
<cmt>v</cmt>
<desc>Montzen Chemin particulier n°p2 </desc>
<link href="https://chemins.be/montzen/chemin/p2"/><trkseg>
<trkpt lat="50.708875" lon="5.970243"><time>2026-05-06T18:28:17Z</time></trkpt>
<trkpt lat="50.708807" lon="5.970086"><time>2026-05-06T18:38:17Z</time></trkpt>
<trkpt lat="50.708808" lon="5.969306"><time>2026-05-06T18:48:17Z</time></trkpt>
<trkpt lat="50.708809" lon="5.968832"><time>2026-05-06T18:58:17Z</time></trkpt>
</trkseg>
</trk>
<trk>
<name>lpbmzp3</name>
<cmt>s</cmt>
<desc>Montzen Chemin particulier n°p3 </desc>
<link href="https://chemins.be/montzen/chemin/p3"/><trkseg>
<trkpt lat="50.686914" lon="5.923889"><time>2026-05-06T18:28:17Z</time></trkpt>
<trkpt lat="50.685577" lon="5.922745"><time>2026-05-06T18:38:17Z</time></trkpt>
</trkseg>
</trk>
<trk>
<name>lpbmzp4</name>
<cmt>q</cmt>
<desc>Montzen Chemin particulier n°p4 </desc>
<link href="https://chemins.be/montzen/chemin/p4"/><trkseg>
<trkpt lat="50.719878" lon="5.966965"><time>2026-05-06T18:28:17Z</time></trkpt>
<trkpt lat="50.719386" lon="5.966661"><time>2026-05-06T18:38:17Z</time></trkpt>
<trkpt lat="50.719312" lon="5.966496"><time>2026-05-06T18:48:17Z</time></trkpt>
<trkpt lat="50.719167" lon="5.966403"><time>2026-05-06T18:58:17Z</time></trkpt>
</trkseg>
</trk>
<trk>
<name>lpbsn1</name>
<cmt>r</cmt>
<desc>Sippenaeken Chemin n°1 Rue de Beusdael</desc>
<link href="https://chemins.be/sippenaeken/chemin/1"/><trkseg>
<trkpt lat="50.745894" lon="5.895778"><time>2026-05-06T18:28:17Z</time></trkpt>
<trkpt lat="50.747967" lon="5.900255"><time>2026-05-06T18:38:17Z</time></trkpt>
<trkpt lat="50.750742" lon="5.904019"><time>2026-05-06T18:48:17Z</time></trkpt>
<trkpt lat="50.750638" lon="5.904570"><time>2026-05-06T18:58:17Z</time></trkpt>
</trkseg></trk>
<trk>
<name>lpbsn1</name>
<cmt>s</cmt>
<desc>Sippenaeken Chemin n°1 Rue de Beusdael</desc>
<link href="https://chemins.be/sippenaeken/chemin/1"/><trkseg>
<trkpt lat="50.750638" lon="5.904570"><time>2026-05-06T18:58:17Z</time></trkpt>
<trkpt lat="50.749317" lon="5.905994"><time>2026-05-06T19:08:17Z</time></trkpt>
<trkpt lat="50.749335" lon="5.907281"><time>2026-05-06T19:18:17Z</time></trkpt>
</trkseg></trk>
<trk>
<name>lpbsn1</name>
<cmt>r</cmt>
<desc>Sippenaeken Chemin n°1 Rue de Beusdael</desc>
<link href="https://chemins.be/sippenaeken/chemin/1"/><trkseg>
<trkpt lat="50.749335" lon="5.907281"><time>2026-05-06T19:18:17Z</time></trkpt>
<trkpt lat="50.749783" lon="5.908990"><time>2026-05-06T19:28:17Z</time></trkpt>
<trkpt lat="50.750311" lon="5.915033"><time>2026-05-06T19:38:17Z</time></trkpt>
<trkpt lat="50.750670" lon="5.917417"><time>2026-05-06T19:48:17Z</time></trkpt>
<trkpt lat="50.750963" lon="5.918509"><time>2026-05-06T19:58:17Z</time></trkpt>
</trkseg></trk>
<trk>
<name>lpbsn1</name>
<cmt>b</cmt>
<desc>Sippenaeken Chemin n°1 Rue de Beusdael</desc>
<link href="https://chemins.be/sippenaeken/chemin/1"/><trkseg>
<trkpt lat="50.750963" lon="5.918509"><time>2026-05-06T19:58:17Z</time></trkpt>
<trkpt lat="50.751163" lon="5.919132"><time>2026-05-06T20:08:17Z</time></trkpt>
<trkpt lat="50.751491" lon="5.920525"><time>2026-05-06T20:18:17Z</time></trkpt>
<trkpt lat="50.751416" lon="5.921076"><time>2026-05-06T20:28:17Z</time></trkpt>
<trkpt lat="50.751299" lon="5.921473"><time>2026-05-06T20:38:17Z</time></trkpt>
<trkpt lat="50.751237" lon="5.921651"><time>2026-05-06T20:48:17Z</time></trkpt>
<trkpt lat="50.751075" lon="5.922011"><time>2026-05-06T20:58:17Z</time></trkpt>
</trkseg></trk>
<trk>
<name>lpbsn1</name>
<cmt>r</cmt>
<desc>Sippenaeken Chemin n°1 Rue de Beusdael</desc>
<link href="https://chemins.be/sippenaeken/chemin/1"/><trkseg>
<trkpt lat="50.751075" lon="5.922011"><time>2026-05-06T20:58:17Z</time></trkpt>
<trkpt lat="50.751201" lon="5.922705"><time>2026-05-06T21:08:17Z</time></trkpt>
<trkpt lat="50.751985" lon="5.925804"><time>2026-05-06T21:18:17Z</time></trkpt>
<trkpt lat="50.751551" lon="5.928622"><time>2026-05-06T21:28:17Z</time></trkpt>
<trkpt lat="50.751850" lon="5.929652"><time>2026-05-06T21:38:17Z</time></trkpt>
<trkpt lat="50.751678" lon="5.931355"><time>2026-05-06T21:48:17Z</time></trkpt>
<trkpt lat="50.750791" lon="5.933615"><time>2026-05-06T21:58:17Z</time></trkpt>
<trkpt lat="50.750647" lon="5.934933"><time>2026-05-06T22:08:17Z</time></trkpt>
</trkseg></trk>
<trk>
<name>lpbsn1</name>
<cmt>s</cmt>
<desc>Sippenaeken Chemin n°1 Rue de Beusdael</desc>
<link href="https://chemins.be/sippenaeken/chemin/1"/><trkseg>
<trkpt lat="50.750647" lon="5.934933"><time>2026-05-06T22:08:17Z</time></trkpt>
<trkpt lat="50.750589" lon="5.935726"><time>2026-05-06T22:18:17Z</time></trkpt>
<trkpt lat="50.751144" lon="5.937983"><time>2026-05-06T22:28:17Z</time></trkpt>
<trkpt lat="50.751577" lon="5.938337"><time>2026-05-06T22:38:17Z</time></trkpt>
<trkpt lat="50.751908" lon="5.938756"><time>2026-05-06T22:48:17Z</time></trkpt>
<trkpt lat="50.751877" lon="5.939900"><time>2026-05-06T22:58:17Z</time></trkpt>
</trkseg>
</trk>
<trk>
<name>lpbsn10</name>
<cmt>s</cmt>
<desc>Sippenaeken Chemin n°10 </desc>
<link href="https://chemins.be/sippenaeken/chemin/10"/><trkseg>
<trkpt lat="50.747319" lon="5.939543"><time>2026-05-06T18:28:17Z</time></trkpt>
<trkpt lat="50.746980" lon="5.941316"><time>2026-05-06T18:38:17Z</time></trkpt>
<trkpt lat="50.745893" lon="5.943687"><time>2026-05-06T18:48:17Z</time></trkpt>
<trkpt lat="50.745588" lon="5.944799"><time>2026-05-06T18:58:17Z</time></trkpt>
<trkpt lat="50.745780" lon="5.945854"><time>2026-05-06T19:08:17Z</time></trkpt>
</trkseg>
</trk>
<trk>
<name>lpbsn11</name>
<cmt>s</cmt>
<desc>Sippenaeken Chemin n°11 </desc>
<link href="https://chemins.be/sippenaeken/chemin/11"/><trkseg>
<trkpt lat="50.751193" lon="5.938008"><time>2026-05-06T18:28:17Z</time></trkpt>
<trkpt lat="50.750546" lon="5.938395"><time>2026-05-06T18:38:17Z</time></trkpt>
<trkpt lat="50.749844" lon="5.937801"><time>2026-05-06T18:48:17Z</time></trkpt>
</trkseg>
</trk>
<trk>
<name>lpbsn12</name>
<cmt>v</cmt>
<desc>Sippenaeken Chemin n°12 Reenweg</desc>
<link href="https://chemins.be/sippenaeken/chemin/12"/><trkseg>
<trkpt lat="50.751903" lon="5.926460"><time>2026-05-06T18:28:17Z</time></trkpt>
<trkpt lat="50.752105" lon="5.926692"><time>2026-05-06T18:38:17Z</time></trkpt>
</trkseg></trk>
<trk>
<name>lpbsn12</name>
<cmt>d</cmt>
<desc>Sippenaeken Chemin n°12 Reenweg</desc>
<link href="https://chemins.be/sippenaeken/chemin/12"/><trkseg>
<trkpt lat="50.752105" lon="5.926692"><time>2026-05-06T18:38:17Z</time></trkpt>
<trkpt lat="50.753566" lon="5.928686"><time>2026-05-06T18:48:17Z</time></trkpt>
<trkpt lat="50.755865" lon="5.932234"><time>2026-05-06T18:58:17Z</time></trkpt>
<trkpt lat="50.756584" lon="5.933230"><time>2026-05-06T19:08:17Z</time></trkpt>
</trkseg></trk>
<trk>
<name>lpbsn12</name>
<cmt>v</cmt>
<desc>Sippenaeken Chemin n°12 Reenweg</desc>
<link href="https://chemins.be/sippenaeken/chemin/12"/><trkseg>
<trkpt lat="50.756584" lon="5.933230"><time>2026-05-06T19:08:17Z</time></trkpt>
<trkpt lat="50.756838" lon="5.935658"><time>2026-05-06T19:18:17Z</time></trkpt>
<trkpt lat="50.756863" lon="5.935962"><time>2026-05-06T19:28:17Z</time></trkpt>
</trkseg>
</trk>
<trk>
<name>lpbsn13</name>
<cmt>v</cmt>
<desc>Sippenaeken Chemin n°13 </desc>
<link href="https://chemins.be/sippenaeken/chemin/13"/><trkseg>
<trkpt lat="50.751393" lon="5.923375"><time>2026-05-06T18:28:17Z</time></trkpt>
<trkpt lat="50.751901" lon="5.922495"><time>2026-05-06T18:38:17Z</time></trkpt>
</trkseg>
</trk>
<trk>
<name>lpbsn14</name>
<cmt>s</cmt>
<desc>Sippenaeken Chemin n°14 </desc>
<link href="https://chemins.be/sippenaeken/chemin/14"/><trkseg>
<trkpt lat="50.751631" lon="5.928552"><time>2026-05-06T18:28:17Z</time></trkpt>
<trkpt lat="50.751013" lon="5.928377"><time>2026-05-06T18:38:17Z</time></trkpt>
<trkpt lat="50.750990" lon="5.927202"><time>2026-05-06T18:48:17Z</time></trkpt>
<trkpt lat="50.749760" lon="5.925541"><time>2026-05-06T18:58:17Z</time></trkpt>
<trkpt lat="50.749134" lon="5.923616"><time>2026-05-06T19:08:17Z</time></trkpt>
<trkpt lat="50.749199" lon="5.923085"><time>2026-05-06T19:18:17Z</time></trkpt>
<trkpt lat="50.748430" lon="5.922149"><time>2026-05-06T19:28:17Z</time></trkpt>
</trkseg></trk>
<trk>
<name>lpbsn14</name>
<cmt>d</cmt>
<desc>Sippenaeken Chemin n°14 </desc>
<link href="https://chemins.be/sippenaeken/chemin/14"/><trkseg>
<trkpt lat="50.748430" lon="5.922149"><time>2026-05-06T19:28:17Z</time></trkpt>
<trkpt lat="50.747795" lon="5.921284"><time>2026-05-06T19:38:17Z</time></trkpt>
<trkpt lat="50.746856" lon="5.919712"><time>2026-05-06T19:48:17Z</time></trkpt>
<trkpt lat="50.745803" lon="5.917951"><time>2026-05-06T19:58:17Z</time></trkpt>
</trkseg>
</trk>
<trk>
<name>lpbsn14bis</name>
<cmt>v</cmt>
<desc>Sippenaeken Chemin n°14bis </desc>
<link href="https://chemins.be/sippenaeken/chemin/14bis"/><trkseg>
<trkpt lat="50.751052" lon="5.921894"><time>2026-05-06T18:28:17Z</time></trkpt>
<trkpt lat="50.749756" lon="5.923027"><time>2026-05-06T18:38:17Z</time></trkpt>
<trkpt lat="50.749558" lon="5.923075"><time>2026-05-06T18:48:17Z</time></trkpt>
<trkpt lat="50.749217" lon="5.923085"><time>2026-05-06T18:58:17Z</time></trkpt>
</trkseg>
</trk>
<trk>
<name>lpbsn15</name>
<cmt>q</cmt>
<desc>Sippenaeken Chemin n°15 </desc>
<link href="https://chemins.be/sippenaeken/chemin/15"/><trkseg>
<trkpt lat="50.750350" lon="5.914986"><time>2026-05-06T18:28:17Z</time></trkpt>
<trkpt lat="50.749600" lon="5.915167"><time>2026-05-06T18:38:17Z</time></trkpt>
<trkpt lat="50.749193" lon="5.915948"><time>2026-05-06T18:48:17Z</time></trkpt>
<trkpt lat="50.749237" lon="5.916763"><time>2026-05-06T18:58:17Z</time></trkpt>
<trkpt lat="50.749120" lon="5.917473"><time>2026-05-06T19:08:17Z</time></trkpt>
<trkpt lat="50.749026" lon="5.917664"><time>2026-05-06T19:18:17Z</time></trkpt>
</trkseg></trk>
<trk>
<name>lpbsn15</name>
<cmt>d</cmt>
<desc>Sippenaeken Chemin n°15 </desc>
<link href="https://chemins.be/sippenaeken/chemin/15"/><trkseg>
<trkpt lat="50.749026" lon="5.917664"><time>2026-05-06T19:18:17Z</time></trkpt>
<trkpt lat="50.748742" lon="5.917905"><time>2026-05-06T19:28:17Z</time></trkpt>
<trkpt lat="50.748476" lon="5.917295"><time>2026-05-06T19:38:17Z</time></trkpt>
</trkseg></trk>
<trk>
<name>lpbsn15</name>
<cmt>q</cmt>
<desc>Sippenaeken Chemin n°15 </desc>
<link href="https://chemins.be/sippenaeken/chemin/15"/><trkseg>
<trkpt lat="50.748476" lon="5.917295"><time>2026-05-06T19:38:17Z</time></trkpt>
<trkpt lat="50.746201" lon="5.916755"><time>2026-05-06T19:48:17Z</time></trkpt>
<trkpt lat="50.744800" lon="5.917330"><time>2026-05-06T19:58:17Z</time></trkpt>
<trkpt lat="50.744387" lon="5.917836"><time>2026-05-06T20:08:17Z</time></trkpt>
<trkpt lat="50.744479" lon="5.918179"><time>2026-05-06T20:18:17Z</time></trkpt>
<trkpt lat="50.744854" lon="5.918342"><time>2026-05-06T20:28:17Z</time></trkpt>
<trkpt lat="50.745201" lon="5.919587"><time>2026-05-06T20:38:17Z</time></trkpt>
<trkpt lat="50.745256" lon="5.920900"><time>2026-05-06T20:48:17Z</time></trkpt>
<trkpt lat="50.745098" lon="5.925690"><time>2026-05-06T20:58:17Z</time></trkpt>
<trkpt lat="50.744808" lon="5.926461"><time>2026-05-06T21:08:17Z</time></trkpt>
</trkseg></trk>
<trk>
<name>lpbsn15</name>
<cmt>v</cmt>
<desc>Sippenaeken Chemin n°15 </desc>
<link href="https://chemins.be/sippenaeken/chemin/15"/><trkseg>
<trkpt lat="50.744808" lon="5.926461"><time>2026-05-06T21:08:17Z</time></trkpt>
<trkpt lat="50.744459" lon="5.930094"><time>2026-05-06T21:18:17Z</time></trkpt>
</trkseg>
</trk>
<trk>
<name>lpbsn15bis</name>
<cmt>q</cmt>
<desc>Sippenaeken Chemin n°15bis </desc>
<link href="https://chemins.be/sippenaeken/chemin/15bis"/><trkseg>
<trkpt lat="50.750084" lon="5.913747"><time>2026-05-06T18:28:17Z</time></trkpt>
<trkpt lat="50.749858" lon="5.913919"><time>2026-05-06T18:38:17Z</time></trkpt>
<trkpt lat="50.750027" lon="5.914463"><time>2026-05-06T18:48:17Z</time></trkpt>
<trkpt lat="50.749595" lon="5.915150"><time>2026-05-06T18:58:17Z</time></trkpt>
</trkseg>
</trk>
<trk>
<name>lpbsn16</name>
<cmt>q</cmt>
<desc>Sippenaeken Chemin n°16 </desc>
<link href="https://chemins.be/sippenaeken/chemin/16"/><trkseg>
<trkpt lat="50.744001" lon="5.924955"><time>2026-05-06T18:28:17Z</time></trkpt>
<trkpt lat="50.744142" lon="5.923811"><time>2026-05-06T18:38:17Z</time></trkpt>
<trkpt lat="50.743966" lon="5.920181"><time>2026-05-06T18:48:17Z</time></trkpt>
</trkseg>
</trk>
<trk>
<name>lpbsn17</name>
<cmt>s</cmt>
<desc>Sippenaeken Chemin n°17 </desc>
<link href="https://chemins.be/sippenaeken/chemin/17"/><trkseg>
<trkpt lat="50.741843" lon="5.913393"><time>2026-05-06T18:28:17Z</time></trkpt>
<trkpt lat="50.743816" lon="5.915138"><time>2026-05-06T18:38:17Z</time></trkpt>
<trkpt lat="50.744924" lon="5.915296"><time>2026-05-06T18:48:17Z</time></trkpt>
<trkpt lat="50.746901" lon="5.916034"><time>2026-05-06T18:58:17Z</time></trkpt>
</trkseg></trk>
<trk>
<name>lpbsn17</name>
<cmt>q</cmt>
<desc>Sippenaeken Chemin n°17 </desc>
<link href="https://chemins.be/sippenaeken/chemin/17"/><trkseg>
<trkpt lat="50.746901" lon="5.916034"><time>2026-05-06T18:58:17Z</time></trkpt>
<trkpt lat="50.747761" lon="5.915897"><time>2026-05-06T19:08:17Z</time></trkpt>
<trkpt lat="50.747941" lon="5.916008"><time>2026-05-06T19:18:17Z</time></trkpt>
<trkpt lat="50.748269" lon="5.916515"><time>2026-05-06T19:28:17Z</time></trkpt>
<trkpt lat="50.748500" lon="5.917257"><time>2026-05-06T19:38:17Z</time></trkpt>
</trkseg>
</trk>
<trk>
<name>lpbsn18</name>
<cmt>v</cmt>
<desc>Sippenaeken Chemin n°18 </desc>
<link href="https://chemins.be/sippenaeken/chemin/18"/><trkseg>
<trkpt lat="50.749955" lon="5.909948"><time>2026-05-06T18:28:17Z</time></trkpt>
<trkpt lat="50.748788" lon="5.910034"><time>2026-05-06T18:38:17Z</time></trkpt>
<trkpt lat="50.748163" lon="5.910231"><time>2026-05-06T18:48:17Z</time></trkpt>
<trkpt lat="50.747446" lon="5.910086"><time>2026-05-06T18:58:17Z</time></trkpt>
<trkpt lat="50.746512" lon="5.910068"><time>2026-05-06T19:08:17Z</time></trkpt>
<trkpt lat="50.745708" lon="5.910163"><time>2026-05-06T19:18:17Z</time></trkpt>
<trkpt lat="50.743683" lon="5.909588"><time>2026-05-06T19:28:17Z</time></trkpt>
<trkpt lat="50.742803" lon="5.909596"><time>2026-05-06T19:38:17Z</time></trkpt>
<trkpt lat="50.740473" lon="5.910343"><time>2026-05-06T19:48:17Z</time></trkpt>
</trkseg></trk>
<trk>
<name>lpbsn18</name>
<cmt>s</cmt>
<desc>Sippenaeken Chemin n°18 </desc>
<link href="https://chemins.be/sippenaeken/chemin/18"/><trkseg>
<trkpt lat="50.740473" lon="5.910343"><time>2026-05-06T19:48:17Z</time></trkpt>
<trkpt lat="50.739828" lon="5.910557"><time>2026-05-06T19:58:17Z</time></trkpt>
<trkpt lat="50.738767" lon="5.911519"><time>2026-05-06T20:08:17Z</time></trkpt>
<trkpt lat="50.738213" lon="5.911716"><time>2026-05-06T20:18:17Z</time></trkpt>
<trkpt lat="50.737464" lon="5.911206"><time>2026-05-06T20:28:17Z</time></trkpt>
<trkpt lat="50.737114" lon="5.911266"><time>2026-05-06T20:38:17Z</time></trkpt>
</trkseg>
</trk>
<trk>
<name>lpbsn19</name>
<cmt>q</cmt>
<desc>Sippenaeken Chemin n°19 </desc>
<link href="https://chemins.be/sippenaeken/chemin/19"/><trkseg>
<trkpt lat="50.738636" lon="5.918424"><time>2026-05-06T18:28:17Z</time></trkpt>
<trkpt lat="50.738383" lon="5.917169"><time>2026-05-06T18:38:17Z</time></trkpt>
</trkseg></trk>
<trk>
<name>lpbsn19</name>
<cmt>s</cmt>
<desc>Sippenaeken Chemin n°19 </desc>
<link href="https://chemins.be/sippenaeken/chemin/19"/><trkseg>
<trkpt lat="50.738383" lon="5.917169"><time>2026-05-06T18:38:17Z</time></trkpt>
<trkpt lat="50.738608" lon="5.914399"><time>2026-05-06T18:48:17Z</time></trkpt>
<trkpt lat="50.739473" lon="5.912933"><time>2026-05-06T18:58:17Z</time></trkpt>
</trkseg></trk>
<trk>
<name>lpbsn19</name>
<cmt>q</cmt>
<desc>Sippenaeken Chemin n°19 </desc>
<link href="https://chemins.be/sippenaeken/chemin/19"/><trkseg>
<trkpt lat="50.739473" lon="5.912933"><time>2026-05-06T18:58:17Z</time></trkpt>
<trkpt lat="50.739147" lon="5.912404"><time>2026-05-06T19:08:17Z</time></trkpt>
<trkpt lat="50.739102" lon="5.912018"><time>2026-05-06T19:18:17Z</time></trkpt>
</trkseg></trk>
<trk>
<name>lpbsn19</name>
<cmt>s</cmt>
<desc>Sippenaeken Chemin n°19 </desc>
<link href="https://chemins.be/sippenaeken/chemin/19"/><trkseg>
<trkpt lat="50.739102" lon="5.912018"><time>2026-05-06T19:18:17Z</time></trkpt>
<trkpt lat="50.740125" lon="5.911589"><time>2026-05-06T19:28:17Z</time></trkpt>
<trkpt lat="50.740641" lon="5.910859"><time>2026-05-06T19:38:17Z</time></trkpt>
<trkpt lat="50.741745" lon="5.911245"><time>2026-05-06T19:48:17Z</time></trkpt>
</trkseg>
</trk>
<trk>
<name>lpbsn19bis</name>
<cmt>q</cmt>
<desc>Sippenaeken Chemin n°19bis </desc>
<link href="https://chemins.be/sippenaeken/chemin/19bis"/><trkseg>
<trkpt lat="50.739136" lon="5.911971"><time>2026-05-06T18:28:17Z</time></trkpt>
<trkpt lat="50.740540" lon="5.910269"><time>2026-05-06T18:38:17Z</time></trkpt>
</trkseg>
</trk>
<trk>
<name>lpbsn2</name>
<cmt>r</cmt>
<desc>Sippenaeken Chemin n°2 Place Saint-Lambert / Panhuis</desc>
<link href="https://chemins.be/sippenaeken/chemin/2"/><trkseg>
<trkpt lat="50.750732" lon="5.933663"><time>2026-05-06T18:28:17Z</time></trkpt>
<trkpt lat="50.750266" lon="5.933642"><time>2026-05-06T18:38:17Z</time></trkpt>
</trkseg></trk>
<trk>
<name>lpbsn2</name>
<cmt>s</cmt>
<desc>Sippenaeken Chemin n°2 Place Saint-Lambert / Panhuis</desc>
<link href="https://chemins.be/sippenaeken/chemin/2"/><trkseg>
<trkpt lat="50.750266" lon="5.933642"><time>2026-05-06T18:38:17Z</time></trkpt>
<trkpt lat="50.749042" lon="5.933673"><time>2026-05-06T18:48:17Z</time></trkpt>
<trkpt lat="50.748748" lon="5.933791"><time>2026-05-06T18:58:17Z</time></trkpt>
<trkpt lat="50.748388" lon="5.933355"><time>2026-05-06T19:08:17Z</time></trkpt>
<trkpt lat="50.744886" lon="5.931147"><time>2026-05-06T19:18:17Z</time></trkpt>
<trkpt lat="50.744415" lon="5.930232"><time>2026-05-06T19:28:17Z</time></trkpt>
<trkpt lat="50.743483" lon="5.929345"><time>2026-05-06T19:38:17Z</time></trkpt>
<trkpt lat="50.742184" lon="5.926685"><time>2026-05-06T19:48:17Z</time></trkpt>
<trkpt lat="50.741451" lon="5.925952"><time>2026-05-06T19:58:17Z</time></trkpt>
<trkpt lat="50.740948" lon="5.924421"><time>2026-05-06T20:08:17Z</time></trkpt>
</trkseg>
</trk>
<trk>
<name>lpbsn20</name>
<cmt>s</cmt>
<desc>Sippenaeken Chemin n°20 </desc>
<link href="https://chemins.be/sippenaeken/chemin/20"/><trkseg>
<trkpt lat="50.737889" lon="5.917110"><time>2026-05-06T18:28:17Z</time></trkpt>
<trkpt lat="50.738384" lon="5.917126"><time>2026-05-06T18:38:17Z</time></trkpt>
</trkseg>
</trk>
<trk>
<name>lpbsn21</name>
<cmt>q</cmt>
<desc>Sippenaeken Chemin n°21 </desc>
<link href="https://chemins.be/sippenaeken/chemin/21"/><trkseg>
<trkpt lat="50.743305" lon="5.923490"><time>2026-05-06T18:28:17Z</time></trkpt>
<trkpt lat="50.742291" lon="5.921087"><time>2026-05-06T18:38:17Z</time></trkpt>
<trkpt lat="50.741549" lon="5.920629"><time>2026-05-06T18:48:17Z</time></trkpt>
<trkpt lat="50.741458" lon="5.919943"><time>2026-05-06T18:58:17Z</time></trkpt>
<trkpt lat="50.740201" lon="5.917059"><time>2026-05-06T19:08:17Z</time></trkpt>
<trkpt lat="50.739472" lon="5.914977"><time>2026-05-06T19:18:17Z</time></trkpt>
<trkpt lat="50.739431" lon="5.914421"><time>2026-05-06T19:28:17Z</time></trkpt>
<trkpt lat="50.739449" lon="5.912962"><time>2026-05-06T19:38:17Z</time></trkpt>
</trkseg>
</trk>
<trk>
<name>lpbsn22</name>
<cmt>s</cmt>
<desc>Sippenaeken Chemin n°22 </desc>
<link href="https://chemins.be/sippenaeken/chemin/22"/><trkseg>
<trkpt lat="50.739475" lon="5.908869"><time>2026-05-06T18:28:17Z</time></trkpt>
<trkpt lat="50.741596" lon="5.906711"><time>2026-05-06T18:38:17Z</time></trkpt>
</trkseg>
</trk>
<trk>
<name>lpbsn22bis</name>
<cmt>v</cmt>
<desc>Sippenaeken Chemin n°22bis </desc>
<link href="https://chemins.be/sippenaeken/chemin/22bis"/><trkseg>
<trkpt lat="50.745376" lon="5.895899"><time>2026-05-06T18:28:17Z</time></trkpt>
<trkpt lat="50.745763" lon="5.895705"><time>2026-05-06T18:38:17Z</time></trkpt>
<trkpt lat="50.746890" lon="5.895134"><time>2026-05-06T18:48:17Z</time></trkpt>
<trkpt lat="50.750615" lon="5.891092"><time>2026-05-06T18:58:17Z</time></trkpt>
<trkpt lat="50.753587" lon="5.889913"><time>2026-05-06T19:08:17Z</time></trkpt>
</trkseg>
</trk>
<trk>
<name>lpbsn23</name>
<cmt>s</cmt>
<desc>Sippenaeken Chemin n°23 </desc>
<link href="https://chemins.be/sippenaeken/chemin/23"/><trkseg>
<trkpt lat="50.749271" lon="5.906044"><time>2026-05-06T18:28:17Z</time></trkpt>
<trkpt lat="50.748823" lon="5.905966"><time>2026-05-06T18:38:17Z</time></trkpt>
<trkpt lat="50.748108" lon="5.905872"><time>2026-05-06T18:48:17Z</time></trkpt>
<trkpt lat="50.747606" lon="5.906079"><time>2026-05-06T18:58:17Z</time></trkpt>
<trkpt lat="50.747206" lon="5.905409"><time>2026-05-06T19:08:17Z</time></trkpt>
<trkpt lat="50.746795" lon="5.904720"><time>2026-05-06T19:18:17Z</time></trkpt>
<trkpt lat="50.746515" lon="5.903462"><time>2026-05-06T19:28:17Z</time></trkpt>
<trkpt lat="50.745890" lon="5.902560"><time>2026-05-06T19:38:17Z</time></trkpt>
<trkpt lat="50.745411" lon="5.902167"><time>2026-05-06T19:48:17Z</time></trkpt>
<trkpt lat="50.744750" lon="5.898805"><time>2026-05-06T19:58:17Z</time></trkpt>
<trkpt lat="50.744467" lon="5.897200"><time>2026-05-06T20:08:17Z</time></trkpt>
</trkseg>
</trk>
<trk>
<name>lpbsn24</name>
<cmt>v</cmt>
<desc>Sippenaeken Chemin n°24 </desc>
<link href="https://chemins.be/sippenaeken/chemin/24"/><trkseg>
<trkpt lat="50.750708" lon="5.904012"><time>2026-05-06T18:28:17Z</time></trkpt>
<trkpt lat="50.751405" lon="5.901595"><time>2026-05-06T18:38:17Z</time></trkpt>
<trkpt lat="50.751541" lon="5.900858"><time>2026-05-06T18:48:17Z</time></trkpt>
<trkpt lat="50.752053" lon="5.899728"><time>2026-05-06T18:58:17Z</time></trkpt>
<trkpt lat="50.752279" lon="5.899084"><time>2026-05-06T19:08:17Z</time></trkpt>
<trkpt lat="50.752704" lon="5.897482"><time>2026-05-06T19:18:17Z</time></trkpt>
<trkpt lat="50.753643" lon="5.896310"><time>2026-05-06T19:28:17Z</time></trkpt>
<trkpt lat="50.753990" lon="5.895478"><time>2026-05-06T19:38:17Z</time></trkpt>
</trkseg>
</trk>
<trk>
<name>lpbsn25</name>
<cmt>v</cmt>
<desc>Sippenaeken Chemin n°25 </desc>
<link href="https://chemins.be/sippenaeken/chemin/25"/><trkseg>
<trkpt lat="50.753534" lon="5.890015"><time>2026-05-06T18:28:17Z</time></trkpt>
<trkpt lat="50.755249" lon="5.892153"><time>2026-05-06T18:38:17Z</time></trkpt>
</trkseg>
</trk>
<trk>
<name>lpbsn26</name>
<cmt>v</cmt>
<desc>Sippenaeken Chemin n°26 </desc>
<link href="https://chemins.be/sippenaeken/chemin/26"/><trkseg>
<trkpt lat="50.752008" lon="5.925811"><time>2026-05-06T18:28:17Z</time></trkpt>
<trkpt lat="50.752165" lon="5.925915"><time>2026-05-06T18:38:17Z</time></trkpt>
</trkseg></trk>
<trk>
<name>lpbsn26</name>
<cmt>s</cmt>
<desc>Sippenaeken Chemin n°26 </desc>
<link href="https://chemins.be/sippenaeken/chemin/26"/><trkseg>
<trkpt lat="50.752165" lon="5.925915"><time>2026-05-06T18:38:17Z</time></trkpt>
<trkpt lat="50.752230" lon="5.925950"><time>2026-05-06T18:48:17Z</time></trkpt>
<trkpt lat="50.752390" lon="5.925796"><time>2026-05-06T18:58:17Z</time></trkpt>
<trkpt lat="50.752397" lon="5.925639"><time>2026-05-06T19:08:17Z</time></trkpt>
</trkseg>
</trk>
<trk>
<name>lpbsn27</name>
<cmt>v</cmt>
<desc>Sippenaeken Chemin n°27 </desc>
<link href="https://chemins.be/sippenaeken/chemin/27"/><trkseg>
<trkpt lat="50.751497" lon="5.931796"><time>2026-05-06T18:28:17Z</time></trkpt>
<trkpt lat="50.751346" lon="5.931667"><time>2026-05-06T18:38:17Z</time></trkpt>
</trkseg>
</trk>
<trk>
<name>lpbsn28</name>
<cmt>s</cmt>
<desc>Sippenaeken Chemin n°28 Chemin du Vieux Moulin</desc>
<link href="https://chemins.be/sippenaeken/chemin/28"/><trkseg>
<trkpt lat="50.750661" lon="5.934981"><time>2026-05-06T18:28:17Z</time></trkpt>
<trkpt lat="50.751465" lon="5.934529"><time>2026-05-06T18:38:17Z</time></trkpt>
</trkseg></trk>
<trk>
<name>lpbsn28</name>
<cmt>r</cmt>
<desc>Sippenaeken Chemin n°28 Chemin du Vieux Moulin</desc>
<link href="https://chemins.be/sippenaeken/chemin/28"/><trkseg>
<trkpt lat="50.751465" lon="5.934529"><time>2026-05-06T18:38:17Z</time></trkpt>
<trkpt lat="50.751914" lon="5.934395"><time>2026-05-06T18:48:17Z</time></trkpt>
<trkpt lat="50.752537" lon="5.934500"><time>2026-05-06T18:58:17Z</time></trkpt>
<trkpt lat="50.753510" lon="5.934729"><time>2026-05-06T19:08:17Z</time></trkpt>
<trkpt lat="50.754670" lon="5.936170"><time>2026-05-06T19:18:17Z</time></trkpt>
</trkseg></trk>
<trk>
<name>lpbsn28</name>
<cmt>v</cmt>
<desc>Sippenaeken Chemin n°28 Chemin du Vieux Moulin</desc>
<link href="https://chemins.be/sippenaeken/chemin/28"/><trkseg>
<trkpt lat="50.754670" lon="5.936170"><time>2026-05-06T19:18:17Z</time></trkpt>
<trkpt lat="50.754800" lon="5.936321"><time>2026-05-06T19:28:17Z</time></trkpt>
<trkpt lat="50.755166" lon="5.936510"><time>2026-05-06T19:38:17Z</time></trkpt>
<trkpt lat="50.756804" lon="5.936095"><time>2026-05-06T19:48:17Z</time></trkpt>
</trkseg>
</trk>
<trk>
<name>lpbsn29</name>
<cmt>s</cmt>
<desc>Sippenaeken Sentier n°29 </desc>
<link href="https://chemins.be/sippenaeken/sentier/29"/><trkseg>
<trkpt lat="50.743243" lon="5.940481"><time>2026-05-06T18:28:17Z</time></trkpt>
<trkpt lat="50.743713" lon="5.941054"><time>2026-05-06T18:38:17Z</time></trkpt>
<trkpt lat="50.744556" lon="5.939455"><time>2026-05-06T18:48:17Z</time></trkpt>
</trkseg></trk>
<trk>
<name>lpbsn29</name>
<cmt>r</cmt>
<desc>Sippenaeken Sentier n°29 </desc>
<link href="https://chemins.be/sippenaeken/sentier/29"/><trkseg>
<trkpt lat="50.744556" lon="5.939455"><time>2026-05-06T18:48:17Z</time></trkpt>
<trkpt lat="50.747225" lon="5.935718"><time>2026-05-06T18:58:17Z</time></trkpt>
</trkseg></trk>
<trk>
<name>lpbsn29</name>
<cmt>s</cmt>
<desc>Sippenaeken Sentier n°29 </desc>
<link href="https://chemins.be/sippenaeken/sentier/29"/><trkseg>
<trkpt lat="50.747225" lon="5.935718"><time>2026-05-06T18:58:17Z</time></trkpt>
<trkpt lat="50.748110" lon="5.935175"><time>2026-05-06T19:08:17Z</time></trkpt>
<trkpt lat="50.748757" lon="5.933780"><time>2026-05-06T19:18:17Z</time></trkpt>
</trkseg>
</trk>
<trk>
<name>lpbsn3</name>
<cmt>r</cmt>
<desc>Sippenaeken Chemin n°3 </desc>
<link href="https://chemins.be/sippenaeken/chemin/3"/><trkseg>
<trkpt lat="50.743110" lon="5.940705"><time>2026-05-06T18:28:17Z</time></trkpt>
<trkpt lat="50.743906" lon="5.939754"><time>2026-05-06T18:38:17Z</time></trkpt>
<trkpt lat="50.744517" lon="5.939425"><time>2026-05-06T18:48:17Z</time></trkpt>
<trkpt lat="50.745766" lon="5.937873"><time>2026-05-06T18:58:17Z</time></trkpt>
</trkseg></trk>
<trk>
<name>lpbsn3</name>
<cmt>s</cmt>
<desc>Sippenaeken Chemin n°3 </desc>
<link href="https://chemins.be/sippenaeken/chemin/3"/><trkseg>
<trkpt lat="50.745766" lon="5.937873"><time>2026-05-06T18:58:17Z</time></trkpt>
<trkpt lat="50.746636" lon="5.938491"><time>2026-05-06T19:08:17Z</time></trkpt>
<trkpt lat="50.747306" lon="5.939614"><time>2026-05-06T19:18:17Z</time></trkpt>
<trkpt lat="50.747554" lon="5.939646"><time>2026-05-06T19:28:17Z</time></trkpt>
<trkpt lat="50.748197" lon="5.939729"><time>2026-05-06T19:38:17Z</time></trkpt>
<trkpt lat="50.749609" lon="5.938355"><time>2026-05-06T19:48:17Z</time></trkpt>
<trkpt lat="50.749795" lon="5.938234"><time>2026-05-06T19:58:17Z</time></trkpt>
<trkpt lat="50.749809" lon="5.937261"><time>2026-05-06T20:08:17Z</time></trkpt>
<trkpt lat="50.749628" lon="5.936810"><time>2026-05-06T20:18:17Z</time></trkpt>
<trkpt lat="50.750602" lon="5.935420"><time>2026-05-06T20:28:17Z</time></trkpt>
</trkseg>
</trk>
<trk>
<name>lpbsn30</name>
<cmt>s</cmt>
<desc>Sippenaeken Sentier n°30 </desc>
<link href="https://chemins.be/sippenaeken/sentier/30"/><trkseg>
<trkpt lat="50.751066" lon="5.937665"><time>2026-05-06T18:28:17Z</time></trkpt>
<trkpt lat="50.750147" lon="5.936049"><time>2026-05-06T18:38:17Z</time></trkpt>
<trkpt lat="50.749917" lon="5.936442"><time>2026-05-06T18:48:17Z</time></trkpt>
<trkpt lat="50.749690" lon="5.935904"><time>2026-05-06T18:58:17Z</time></trkpt>
<trkpt lat="50.749459" lon="5.935275"><time>2026-05-06T19:08:17Z</time></trkpt>
<trkpt lat="50.749044" lon="5.934746"><time>2026-05-06T19:18:17Z</time></trkpt>
<trkpt lat="50.748886" lon="5.933759"><time>2026-05-06T19:28:17Z</time></trkpt>
</trkseg>
</trk>
<trk>
<name>lpbsn31</name>
<cmt>s</cmt>
<desc>Sippenaeken Sentier n°31 </desc>
<link href="https://chemins.be/sippenaeken/sentier/31"/><trkseg>
<trkpt lat="50.749671" lon="5.936922"><time>2026-05-06T18:28:17Z</time></trkpt>
<trkpt lat="50.749309" lon="5.938653"><time>2026-05-06T18:38:17Z</time></trkpt>
</trkseg>
</trk>
<trk>
<name>lpbsn32</name>
<cmt>r</cmt>
<desc>Sippenaeken Sentier n°32 Place Saint-Lambert / Chemin du Vieux Moulin</desc>
<link href="https://chemins.be/sippenaeken/sentier/32"/><trkseg>
<trkpt lat="50.750840" lon="5.933463"><time>2026-05-06T18:28:17Z</time></trkpt>
<trkpt lat="50.751162" lon="5.933649"><time>2026-05-06T18:38:17Z</time></trkpt>
<trkpt lat="50.751455" lon="5.934456"><time>2026-05-06T18:48:17Z</time></trkpt>
</trkseg></trk>
<trk>
<name>lpbsn32</name>
<cmt>s</cmt>
<desc>Sippenaeken Sentier n°32 Place Saint-Lambert / Chemin du Vieux Moulin</desc>
<link href="https://chemins.be/sippenaeken/sentier/32"/><trkseg>
<trkpt lat="50.751455" lon="5.934456"><time>2026-05-06T18:48:17Z</time></trkpt>
<trkpt lat="50.751804" lon="5.936646"><time>2026-05-06T18:58:17Z</time></trkpt>
<trkpt lat="50.751555" lon="5.938184"><time>2026-05-06T19:08:17Z</time></trkpt>
</trkseg>
</trk>
<trk>
<name>lpbsn33</name>
<cmt>q</cmt>
<desc>Sippenaeken Sentier n°33 </desc>
<link href="https://chemins.be/sippenaeken/sentier/33"/><trkseg>
<trkpt lat="50.751566" lon="5.938183"><time>2026-05-06T18:28:17Z</time></trkpt>
<trkpt lat="50.754714" lon="5.936224"><time>2026-05-06T18:38:17Z</time></trkpt>
</trkseg>
</trk>
<trk>
<name>lpbsn34</name>
<cmt>s</cmt>
<desc>Sippenaeken Sentier n°34 Chemin du Vieux Moulin</desc>
<link href="https://chemins.be/sippenaeken/sentier/34"/><trkseg>
<trkpt lat="50.752118" lon="5.934338"><time>2026-05-06T18:28:17Z</time></trkpt>
<trkpt lat="50.752442" lon="5.934192"><time>2026-05-06T18:38:17Z</time></trkpt>
<trkpt lat="50.753451" lon="5.934522"><time>2026-05-06T18:48:17Z</time></trkpt>
<trkpt lat="50.753718" lon="5.934936"><time>2026-05-06T18:58:17Z</time></trkpt>
<trkpt lat="50.754030" lon="5.935154"><time>2026-05-06T19:08:17Z</time></trkpt>
<trkpt lat="50.754439" lon="5.935747"><time>2026-05-06T19:18:17Z</time></trkpt>
<trkpt lat="50.754460" lon="5.935866"><time>2026-05-06T19:28:17Z</time></trkpt>
<trkpt lat="50.754660" lon="5.936157"><time>2026-05-06T19:38:17Z</time></trkpt>
</trkseg></trk>
<trk>
<name>lpbsn34</name>
<cmt>v</cmt>
<desc>Sippenaeken Sentier n°34 Chemin du Vieux Moulin</desc>
<link href="https://chemins.be/sippenaeken/sentier/34"/><trkseg>
<trkpt lat="50.754660" lon="5.936157"><time>2026-05-06T19:38:17Z</time></trkpt>
<trkpt lat="50.754667" lon="5.936170"><time>2026-05-06T19:48:17Z</time></trkpt>
<trkpt lat="50.754865" lon="5.936373"><time>2026-05-06T19:58:17Z</time></trkpt>
<trkpt lat="50.755167" lon="5.936505"><time>2026-05-06T20:08:17Z</time></trkpt>
<trkpt lat="50.755282" lon="5.936661"><time>2026-05-06T20:18:17Z</time></trkpt>
<trkpt lat="50.755532" lon="5.936988"><time>2026-05-06T20:28:17Z</time></trkpt>
<trkpt lat="50.755940" lon="5.937239"><time>2026-05-06T20:38:17Z</time></trkpt>
<trkpt lat="50.756082" lon="5.937181"><time>2026-05-06T20:48:17Z</time></trkpt>
</trkseg>
</trk>
<trk>
<name>lpbsn35</name>
<cmt>q</cmt>
<desc>Sippenaeken Sentier n°35 </desc>
<link href="https://chemins.be/sippenaeken/sentier/35"/><trkseg>
<trkpt lat="50.752497" lon="5.934257"><time>2026-05-06T18:28:17Z</time></trkpt>
<trkpt lat="50.753325" lon="5.933792"><time>2026-05-06T18:38:17Z</time></trkpt>
<trkpt lat="50.754031" lon="5.932304"><time>2026-05-06T18:48:17Z</time></trkpt>
<trkpt lat="50.754963" lon="5.932612"><time>2026-05-06T18:58:17Z</time></trkpt>
<trkpt lat="50.755886" lon="5.932197"><time>2026-05-06T19:08:17Z</time></trkpt>
<trkpt lat="50.756881" lon="5.931310"><time>2026-05-06T19:18:17Z</time></trkpt>
</trkseg>
</trk>
<trk>
<name>lpbsn36</name>
<cmt>s</cmt>
<desc>Sippenaeken Sentier n°36 </desc>
<link href="https://chemins.be/sippenaeken/sentier/36"/><trkseg>
<trkpt lat="50.751130" lon="5.932967"><time>2026-05-06T18:28:17Z</time></trkpt>
<trkpt lat="50.751463" lon="5.933630"><time>2026-05-06T18:38:17Z</time></trkpt>
<trkpt lat="50.751534" lon="5.934369"><time>2026-05-06T18:48:17Z</time></trkpt>
</trkseg>
</trk>
<trk>
<name>lpbsn37</name>
<cmt>q</cmt>
<desc>Sippenaeken Sentier n°37 </desc>
<link href="https://chemins.be/sippenaeken/sentier/37"/><trkseg>
<trkpt lat="50.751466" lon="5.932089"><time>2026-05-06T18:28:17Z</time></trkpt>
<trkpt lat="50.751860" lon="5.932564"><time>2026-05-06T18:38:17Z</time></trkpt>
<trkpt lat="50.753109" lon="5.933587"><time>2026-05-06T18:48:17Z</time></trkpt>
<trkpt lat="50.753510" lon="5.934692"><time>2026-05-06T18:58:17Z</time></trkpt>
</trkseg>
</trk>
<trk>
<name>lpbsn38</name>
<cmt>d</cmt>
<desc>Sippenaeken Sentier n°38 </desc>
<link href="https://chemins.be/sippenaeken/sentier/38"/><trkseg>
<trkpt lat="50.751698" lon="5.928775"><time>2026-05-06T18:28:17Z</time></trkpt>
<trkpt lat="50.753162" lon="5.928160"><time>2026-05-06T18:38:17Z</time></trkpt>
<trkpt lat="50.753890" lon="5.927216"><time>2026-05-06T18:48:17Z</time></trkpt>
<trkpt lat="50.754307" lon="5.926633"><time>2026-05-06T18:58:17Z</time></trkpt>
</trkseg>
</trk>
<trk>
<name>lpbsn39</name>
<cmt>s</cmt>
<desc>Sippenaeken Sentier n°39 Rue de Beusdael</desc>
<link href="https://chemins.be/sippenaeken/sentier/39"/><trkseg>
<trkpt lat="50.751566" lon="5.927775"><time>2026-05-06T18:28:17Z</time></trkpt>
<trkpt lat="50.751168" lon="5.924685"><time>2026-05-06T18:38:17Z</time></trkpt>
<trkpt lat="50.751085" lon="5.921995"><time>2026-05-06T18:48:17Z</time></trkpt>
<trkpt lat="50.751252" lon="5.921648"><time>2026-05-06T18:58:17Z</time></trkpt>
<trkpt lat="50.751441" lon="5.921081"><time>2026-05-06T19:08:17Z</time></trkpt>
<trkpt lat="50.751492" lon="5.920450"><time>2026-05-06T19:18:17Z</time></trkpt>
<trkpt lat="50.751173" lon="5.919136"><time>2026-05-06T19:28:17Z</time></trkpt>
<trkpt lat="50.750931" lon="5.918481"><time>2026-05-06T19:38:17Z</time></trkpt>
<trkpt lat="50.750480" lon="5.916465"><time>2026-05-06T19:48:17Z</time></trkpt>
<trkpt lat="50.750281" lon="5.914471"><time>2026-05-06T19:58:17Z</time></trkpt>
<trkpt lat="50.748700" lon="5.911514"><time>2026-05-06T20:08:17Z</time></trkpt>
<trkpt lat="50.748754" lon="5.909854"><time>2026-05-06T20:18:17Z</time></trkpt>
<trkpt lat="50.747921" lon="5.906364"><time>2026-05-06T20:28:17Z</time></trkpt>
<trkpt lat="50.748582" lon="5.904533"><time>2026-05-06T20:38:17Z</time></trkpt>
<trkpt lat="50.748953" lon="5.901586"><time>2026-05-06T20:48:17Z</time></trkpt>
<trkpt lat="50.748555" lon="5.893503"><time>2026-05-06T20:58:17Z</time></trkpt>
</trkseg>
</trk>
<trk>
<name>lpbsn4</name>
<cmt>v</cmt>
<desc>Sippenaeken Chemin n°4 Chemin de Broeck</desc>
<link href="https://chemins.be/sippenaeken/chemin/4"/><trkseg>
<trkpt lat="50.751734" lon="5.929162"><time>2026-05-06T18:28:17Z</time></trkpt>
<trkpt lat="50.751234" lon="5.929402"><time>2026-05-06T18:38:17Z</time></trkpt>
<trkpt lat="50.751094" lon="5.929422"><time>2026-05-06T18:48:17Z</time></trkpt>
<trkpt lat="50.750414" lon="5.929452"><time>2026-05-06T18:58:17Z</time></trkpt>
<trkpt lat="50.750234" lon="5.929362"><time>2026-05-06T19:08:17Z</time></trkpt>
<trkpt lat="50.749594" lon="5.928472"><time>2026-05-06T19:18:17Z</time></trkpt>
<trkpt lat="50.749534" lon="5.928472"><time>2026-05-06T19:28:17Z</time></trkpt>
<trkpt lat="50.749474" lon="5.928512"><time>2026-05-06T19:38:17Z</time></trkpt>
<trkpt lat="50.748482" lon="5.929590"><time>2026-05-06T19:48:17Z</time></trkpt>
<trkpt lat="50.747929" lon="5.928528"><time>2026-05-06T19:58:17Z</time></trkpt>
<trkpt lat="50.747281" lon="5.928056"><time>2026-05-06T20:08:17Z</time></trkpt>
<trkpt lat="50.747061" lon="5.927759"><time>2026-05-06T20:18:17Z</time></trkpt>
<trkpt lat="50.746060" lon="5.927152"><time>2026-05-06T20:28:17Z</time></trkpt>
<trkpt lat="50.744845" lon="5.926572"><time>2026-05-06T20:38:17Z</time></trkpt>
<trkpt lat="50.744517" lon="5.926127"><time>2026-05-06T20:48:17Z</time></trkpt>
<trkpt lat="50.744119" lon="5.925082"><time>2026-05-06T20:58:17Z</time></trkpt>
<trkpt lat="50.743319" lon="5.923657"><time>2026-05-06T21:08:17Z</time></trkpt>
<trkpt lat="50.743373" lon="5.921216"><time>2026-05-06T21:18:17Z</time></trkpt>
<trkpt lat="50.742273" lon="5.915283"><time>2026-05-06T21:28:17Z</time></trkpt>
<trkpt lat="50.741733" lon="5.912892"><time>2026-05-06T21:38:17Z</time></trkpt>
</trkseg></trk>
<trk>
<name>lpbsn4</name>
<cmt>s</cmt>
<desc>Sippenaeken Chemin n°4 Chemin de Broeck</desc>
<link href="https://chemins.be/sippenaeken/chemin/4"/><trkseg>
<trkpt lat="50.741733" lon="5.912892"><time>2026-05-06T21:38:17Z</time></trkpt>
<trkpt lat="50.741782" lon="5.910386"><time>2026-05-06T21:48:17Z</time></trkpt>
<trkpt lat="50.741580" lon="5.906967"><time>2026-05-06T21:58:17Z</time></trkpt>
</trkseg>
</trk>
<trk>
<name>lpbsn40</name>
<cmt>s</cmt>
<desc>Sippenaeken Sentier n°40 </desc>
<link href="https://chemins.be/sippenaeken/sentier/40"/><trkseg>
<trkpt lat="50.751059" lon="5.921987"><time>2026-05-06T18:28:17Z</time></trkpt>
<trkpt lat="50.750376" lon="5.919555"><time>2026-05-06T18:38:17Z</time></trkpt>
<trkpt lat="50.749412" lon="5.917466"><time>2026-05-06T18:48:17Z</time></trkpt>
<trkpt lat="50.749222" lon="5.916665"><time>2026-05-06T18:58:17Z</time></trkpt>
</trkseg>
</trk>
<trk>
<name>lpbsn41</name>
<cmt>s</cmt>
<desc>Sippenaeken Sentier n°41 </desc>
<link href="https://chemins.be/sippenaeken/sentier/41"/><trkseg>
<trkpt lat="50.751703" lon="5.922792"><time>2026-05-06T18:28:17Z</time></trkpt>
<trkpt lat="50.751811" lon="5.922246"><time>2026-05-06T18:38:17Z</time></trkpt>
</trkseg>
</trk>
<trk>
<name>lpbsn42</name>
<cmt>s</cmt>
<desc>Sippenaeken Sentier n°42 </desc>
<link href="https://chemins.be/sippenaeken/sentier/42"/><trkseg>
<trkpt lat="50.751126" lon="5.924674"><time>2026-05-06T18:28:17Z</time></trkpt>
<trkpt lat="50.750736" lon="5.923730"><time>2026-05-06T18:38:17Z</time></trkpt>
<trkpt lat="50.749994" lon="5.923501"><time>2026-05-06T18:48:17Z</time></trkpt>
<trkpt lat="50.749818" lon="5.922957"><time>2026-05-06T18:58:17Z</time></trkpt>
</trkseg></trk>
<trk>
<name>lpbsn42</name>
<cmt>d</cmt>
<desc>Sippenaeken Sentier n°42 </desc>
<link href="https://chemins.be/sippenaeken/sentier/42"/><trkseg>
<trkpt lat="50.749818" lon="5.922957"><time>2026-05-06T18:58:17Z</time></trkpt>
<trkpt lat="50.749059" lon="5.921197"><time>2026-05-06T19:08:17Z</time></trkpt>
<trkpt lat="50.748427" lon="5.922149"><time>2026-05-06T19:18:17Z</time></trkpt>
<trkpt lat="50.748537" lon="5.922242"><time>2026-05-06T19:28:17Z</time></trkpt>
</trkseg>
</trk>
<trk>
<name>lpbsn43</name>
<cmt>q</cmt>
<desc>Sippenaeken Sentier n°43 </desc>
<link href="https://chemins.be/sippenaeken/sentier/43"/><trkseg>
<trkpt lat="50.750765" lon="5.927001"><time>2026-05-06T18:28:17Z</time></trkpt>
<trkpt lat="50.750598" lon="5.926936"><time>2026-05-06T18:38:17Z</time></trkpt>
<trkpt lat="50.749697" lon="5.925749"><time>2026-05-06T18:48:17Z</time></trkpt>
<trkpt lat="50.749213" lon="5.924247"><time>2026-05-06T18:58:17Z</time></trkpt>
<trkpt lat="50.749272" lon="5.924054"><time>2026-05-06T19:08:17Z</time></trkpt>
</trkseg>
</trk>
<trk>
<name>lpbsn44</name>
<cmt>s</cmt>
<desc>Sippenaeken Sentier n°44 </desc>
<link href="https://chemins.be/sippenaeken/sentier/44"/><trkseg>
<trkpt lat="50.748073" lon="5.928821"><time>2026-05-06T18:28:17Z</time></trkpt>
<trkpt lat="50.748426" lon="5.928506"><time>2026-05-06T18:38:17Z</time></trkpt>
<trkpt lat="50.749160" lon="5.928213"><time>2026-05-06T18:48:17Z</time></trkpt>
<trkpt lat="50.749535" lon="5.928392"><time>2026-05-06T18:58:17Z</time></trkpt>
</trkseg>
</trk>
<trk>
<name>lpbsn45</name>
<cmt>s</cmt>
<desc>Sippenaeken Sentier n°45 </desc>
<link href="https://chemins.be/sippenaeken/sentier/45"/><trkseg>
<trkpt lat="50.748390" lon="5.929743"><time>2026-05-06T18:28:17Z</time></trkpt>
<trkpt lat="50.749671" lon="5.933005"><time>2026-05-06T18:38:17Z</time></trkpt>
<trkpt lat="50.749983" lon="5.933577"><time>2026-05-06T18:48:17Z</time></trkpt>
</trkseg>
</trk>
<trk>
<name>lpbsn46</name>
<cmt>s</cmt>
<desc>Sippenaeken Sentier n°46 </desc>
<link href="https://chemins.be/sippenaeken/sentier/46"/><trkseg>
<trkpt lat="50.751228" lon="5.929422"><time>2026-05-06T18:28:17Z</time></trkpt>
<trkpt lat="50.751033" lon="5.930137"><time>2026-05-06T18:38:17Z</time></trkpt>
<trkpt lat="50.750015" lon="5.932133"><time>2026-05-06T18:48:17Z</time></trkpt>
<trkpt lat="50.749875" lon="5.933377"><time>2026-05-06T18:58:17Z</time></trkpt>
</trkseg>
</trk>
<trk>
<name>lpbsn47</name>
<cmt>s</cmt>
<desc>Sippenaeken Sentier n°47 </desc>
<link href="https://chemins.be/sippenaeken/sentier/47"/><trkseg>
<trkpt lat="50.751644" lon="5.931110"><time>2026-05-06T18:28:17Z</time></trkpt>
<trkpt lat="50.751178" lon="5.930874"><time>2026-05-06T18:38:17Z</time></trkpt>
<trkpt lat="50.751042" lon="5.930180"><time>2026-05-06T18:48:17Z</time></trkpt>
</trkseg>
</trk>
<trk>
<name>lpbsn48</name>
<cmt>s</cmt>
<desc>Sippenaeken Sentier n°48 </desc>
<link href="https://chemins.be/sippenaeken/sentier/48"/><trkseg>
<trkpt lat="50.744417" lon="5.931489"><time>2026-05-06T18:28:17Z</time></trkpt>
<trkpt lat="50.745231" lon="5.931639"><time>2026-05-06T18:38:17Z</time></trkpt>
<trkpt lat="50.745249" lon="5.931374"><time>2026-05-06T18:48:17Z</time></trkpt>
<trkpt lat="50.745584" lon="5.931475"><time>2026-05-06T18:58:17Z</time></trkpt>
<trkpt lat="50.746245" lon="5.930759"><time>2026-05-06T19:08:17Z</time></trkpt>
<trkpt lat="50.746598" lon="5.930073"><time>2026-05-06T19:18:17Z</time></trkpt>
<trkpt lat="50.748503" lon="5.929636"><time>2026-05-06T19:28:17Z</time></trkpt>
</trkseg>
</trk>
<trk>
<name>lpbsn49</name>
<cmt>s</cmt>
<desc>Sippenaeken Sentier n°49 </desc>
<link href="https://chemins.be/sippenaeken/sentier/49"/><trkseg>
<trkpt lat="50.746779" lon="5.936467"><time>2026-05-06T18:28:17Z</time></trkpt>
<trkpt lat="50.746901" lon="5.937862"><time>2026-05-06T18:38:17Z</time></trkpt>
<trkpt lat="50.746806" lon="5.938813"><time>2026-05-06T18:48:17Z</time></trkpt>
</trkseg>
</trk>
<trk>
<name>lpbsn5</name>
<cmt>s</cmt>
<desc>Sippenaeken Chemin n°5 </desc>
<link href="https://chemins.be/sippenaeken/chemin/5"/><trkseg>
<trkpt lat="50.753141" lon="5.928109"><time>2026-05-06T18:28:17Z</time></trkpt>
<trkpt lat="50.754263" lon="5.926636"><time>2026-05-06T18:38:17Z</time></trkpt>
</trkseg>
</trk>
<trk>
<name>lpbsn50</name>
<cmt>q</cmt>
<desc>Sippenaeken Sentier n°50 </desc>
<link href="https://chemins.be/sippenaeken/sentier/50"/><trkseg>
<trkpt lat="50.745115" lon="5.938613"><time>2026-05-06T18:28:17Z</time></trkpt>
<trkpt lat="50.745346" lon="5.939650"><time>2026-05-06T18:38:17Z</time></trkpt>
<trkpt lat="50.746165" lon="5.940880"><time>2026-05-06T18:48:17Z</time></trkpt>
<trkpt lat="50.746994" lon="5.941238"><time>2026-05-06T18:58:17Z</time></trkpt>
</trkseg>
</trk>
<trk>
<name>lpbsn51</name>
<cmt>s</cmt>
<desc>Sippenaeken Sentier n°51 </desc>
<link href="https://chemins.be/sippenaeken/sentier/51"/><trkseg>
<trkpt lat="50.744821" lon="5.941281"><time>2026-05-06T18:28:17Z</time></trkpt>
<trkpt lat="50.744898" lon="5.942997"><time>2026-05-06T18:38:17Z</time></trkpt>
<trkpt lat="50.744690" lon="5.944514"><time>2026-05-06T18:48:17Z</time></trkpt>
</trkseg>
</trk>
<trk>
<name>lpbsn52</name>
<cmt>s</cmt>
<desc>Sippenaeken Sentier n°52 </desc>
<link href="https://chemins.be/sippenaeken/sentier/52"/><trkseg>
<trkpt lat="50.745921" lon="5.943677"><time>2026-05-06T18:28:17Z</time></trkpt>
<trkpt lat="50.744726" lon="5.944256"><time>2026-05-06T18:38:17Z</time></trkpt>
</trkseg>
</trk>
<trk>
<name>lpbsn53</name>
<cmt>s</cmt>
<desc>Sippenaeken Sentier n°53 </desc>
<link href="https://chemins.be/sippenaeken/sentier/53"/><trkseg>
<trkpt lat="50.746013" lon="5.943408"><time>2026-05-06T18:28:17Z</time></trkpt>
<trkpt lat="50.745975" lon="5.943662"><time>2026-05-06T18:38:17Z</time></trkpt>
<trkpt lat="50.745644" lon="5.944849"><time>2026-05-06T18:48:17Z</time></trkpt>
<trkpt lat="50.745721" lon="5.945539"><time>2026-05-06T18:58:17Z</time></trkpt>
</trkseg>
</trk>
<trk>
<name>lpbsn54</name>
<cmt>d</cmt>
<desc>Sippenaeken Sentier n°54 </desc>
<link href="https://chemins.be/sippenaeken/sentier/54"/><trkseg>
<trkpt lat="50.744348" lon="5.936149"><time>2026-05-06T18:28:17Z</time></trkpt>
<trkpt lat="50.743298" lon="5.936878"><time>2026-05-06T18:38:17Z</time></trkpt>
</trkseg>
</trk>
<trk>
<name>lpbsn55</name>
<cmt>q</cmt>
<desc>Sippenaeken Sentier n°55 </desc>
<link href="https://chemins.be/sippenaeken/sentier/55"/><trkseg>
<trkpt lat="50.744419" lon="5.936271"><time>2026-05-06T18:28:17Z</time></trkpt>
<trkpt lat="50.742384" lon="5.935097"><time>2026-05-06T18:38:17Z</time></trkpt>
<trkpt lat="50.741510" lon="5.934125"><time>2026-05-06T18:48:17Z</time></trkpt>
</trkseg>
</trk>
<trk>
<name>lpbsn56</name>
<cmt>s</cmt>
<desc>Sippenaeken Sentier n°56 </desc>
<link href="https://chemins.be/sippenaeken/sentier/56"/><trkseg>
<trkpt lat="50.744095" lon="5.929968"><time>2026-05-06T18:28:17Z</time></trkpt>
<trkpt lat="50.742174" lon="5.930726"><time>2026-05-06T18:38:17Z</time></trkpt>
<trkpt lat="50.741389" lon="5.930565"><time>2026-05-06T18:48:17Z</time></trkpt>
</trkseg>
</trk>
<trk>
<name>lpbsn57</name>
<cmt>s</cmt>
<desc>Sippenaeken Sentier n°57 </desc>
<link href="https://chemins.be/sippenaeken/sentier/57"/><trkseg>
<trkpt lat="50.741271" lon="5.933949"><time>2026-05-06T18:28:17Z</time></trkpt>
<trkpt lat="50.741800" lon="5.933728"><time>2026-05-06T18:38:17Z</time></trkpt>
<trkpt lat="50.742733" lon="5.932419"><time>2026-05-06T18:48:17Z</time></trkpt>
<trkpt lat="50.742710" lon="5.931990"><time>2026-05-06T18:58:17Z</time></trkpt>
<trkpt lat="50.743036" lon="5.931460"><time>2026-05-06T19:08:17Z</time></trkpt>
<trkpt lat="50.743593" lon="5.931317"><time>2026-05-06T19:18:17Z</time></trkpt>
<trkpt lat="50.743471" lon="5.930302"><time>2026-05-06T19:28:17Z</time></trkpt>
</trkseg>
</trk>
<trk>
<name>lpbsn58</name>
<cmt>s</cmt>
<desc>Sippenaeken Sentier n°58 </desc>
<link href="https://chemins.be/sippenaeken/sentier/58"/><trkseg>
<trkpt lat="50.744411" lon="5.932117"><time>2026-05-06T18:28:17Z</time></trkpt>
<trkpt lat="50.744530" lon="5.930302"><time>2026-05-06T18:38:17Z</time></trkpt>
<trkpt lat="50.744781" lon="5.926534"><time>2026-05-06T18:48:17Z</time></trkpt>
<trkpt lat="50.745125" lon="5.925833"><time>2026-05-06T18:58:17Z</time></trkpt>
<trkpt lat="50.745134" lon="5.924088"><time>2026-05-06T19:08:17Z</time></trkpt>
<trkpt lat="50.746844" lon="5.919682"><time>2026-05-06T19:18:17Z</time></trkpt>
<trkpt lat="50.748691" lon="5.917994"><time>2026-05-06T19:28:17Z</time></trkpt>
</trkseg>
</trk>
<trk>
<name>lpbsn59</name>
<cmt>s</cmt>
<desc>Sippenaeken Sentier n°59 </desc>
<link href="https://chemins.be/sippenaeken/sentier/59"/><trkseg>
<trkpt lat="50.738503" lon="5.917248"><time>2026-05-06T18:28:17Z</time></trkpt>
<trkpt lat="50.739702" lon="5.919959"><time>2026-05-06T18:38:17Z</time></trkpt>
<trkpt lat="50.740051" lon="5.921819"><time>2026-05-06T18:48:17Z</time></trkpt>
<trkpt lat="50.741065" lon="5.923564"><time>2026-05-06T18:58:17Z</time></trkpt>
<trkpt lat="50.741001" lon="5.924529"><time>2026-05-06T19:08:17Z</time></trkpt>
</trkseg>
</trk>
<trk>
<name>lpbsn6</name>
<cmt>s</cmt>
<desc>Sippenaeken Chemin n°6 </desc>
<link href="https://chemins.be/sippenaeken/chemin/6"/><trkseg>
<trkpt lat="50.751767" lon="5.938426"><time>2026-05-06T18:28:17Z</time></trkpt>
<trkpt lat="50.754782" lon="5.936260"><time>2026-05-06T18:38:17Z</time></trkpt>
</trkseg>
</trk>
<trk>
<name>lpbsn60</name>
<cmt>s</cmt>
<desc>Sippenaeken Sentier n°60 </desc>
<link href="https://chemins.be/sippenaeken/sentier/60"/><trkseg>
<trkpt lat="50.743292" lon="5.923573"><time>2026-05-06T18:28:17Z</time></trkpt>
<trkpt lat="50.742022" lon="5.926489"><time>2026-05-06T18:38:17Z</time></trkpt>
</trkseg>
</trk>
<trk>
<name>lpbsn62</name>
<cmt>s</cmt>
<desc>Sippenaeken Sentier n°62 </desc>
<link href="https://chemins.be/sippenaeken/sentier/62"/><trkseg>
<trkpt lat="50.745992" lon="5.910183"><time>2026-05-06T18:28:17Z</time></trkpt>
<trkpt lat="50.745123" lon="5.910856"><time>2026-05-06T18:38:17Z</time></trkpt>
<trkpt lat="50.743476" lon="5.910741"><time>2026-05-06T18:48:17Z</time></trkpt>
<trkpt lat="50.743467" lon="5.911213"><time>2026-05-06T18:58:17Z</time></trkpt>
<trkpt lat="50.742842" lon="5.911771"><time>2026-05-06T19:08:17Z</time></trkpt>
<trkpt lat="50.742118" lon="5.911714"><time>2026-05-06T19:18:17Z</time></trkpt>
<trkpt lat="50.741810" lon="5.912858"><time>2026-05-06T19:28:17Z</time></trkpt>
<trkpt lat="50.741231" lon="5.913345"><time>2026-05-06T19:38:17Z</time></trkpt>
<trkpt lat="50.741339" lon="5.915805"><time>2026-05-06T19:48:17Z</time></trkpt>
<trkpt lat="50.740181" lon="5.917021"><time>2026-05-06T19:58:17Z</time></trkpt>
<trkpt lat="50.739148" lon="5.917307"><time>2026-05-06T20:08:17Z</time></trkpt>
<trkpt lat="50.738451" lon="5.917236"><time>2026-05-06T20:18:17Z</time></trkpt>
</trkseg>
</trk>
<trk>
<name>lpbsn63</name>
<cmt>q</cmt>
<desc>Sippenaeken Sentier n°63 </desc>
<link href="https://chemins.be/sippenaeken/sentier/63"/><trkseg>
<trkpt lat="50.743791" lon="5.915177"><time>2026-05-06T18:28:17Z</time></trkpt>
<trkpt lat="50.744574" lon="5.917566"><time>2026-05-06T18:38:17Z</time></trkpt>
</trkseg>
</trk>
<trk>
<name>lpbsn64</name>
<cmt>s</cmt>
<desc>Sippenaeken Sentier n°64 </desc>
<link href="https://chemins.be/sippenaeken/sentier/64"/><trkseg>
<trkpt lat="50.743957" lon="5.920138"><time>2026-05-06T18:28:17Z</time></trkpt>
<trkpt lat="50.742712" lon="5.917663"><time>2026-05-06T18:38:17Z</time></trkpt>
</trkseg>
</trk>
<trk>
<name>lpbsn65</name>
<cmt>q</cmt>
<desc>Sippenaeken Sentier n°65 Rue de Beusdael</desc>
<link href="https://chemins.be/sippenaeken/sentier/65"/><trkseg>
<trkpt lat="50.744602" lon="5.898052"><time>2026-05-06T18:28:17Z</time></trkpt>
<trkpt lat="50.744712" lon="5.898094"><time>2026-05-06T18:38:17Z</time></trkpt>
<trkpt lat="50.745222" lon="5.899310"><time>2026-05-06T18:48:17Z</time></trkpt>
<trkpt lat="50.745520" lon="5.901038"><time>2026-05-06T18:58:17Z</time></trkpt>
<trkpt lat="50.745695" lon="5.901242"><time>2026-05-06T19:08:17Z</time></trkpt>
<trkpt lat="50.745930" lon="5.902501"><time>2026-05-06T19:18:17Z</time></trkpt>
<trkpt lat="50.746618" lon="5.903631"><time>2026-05-06T19:28:17Z</time></trkpt>
</trkseg></trk>
<trk>
<name>lpbsn65</name>
<cmt>d</cmt>
<desc>Sippenaeken Sentier n°65 Rue de Beusdael</desc>
<link href="https://chemins.be/sippenaeken/sentier/65"/><trkseg>
<trkpt lat="50.746618" lon="5.903631"><time>2026-05-06T19:28:17Z</time></trkpt>
<trkpt lat="50.747618" lon="5.903274"><time>2026-05-06T19:38:17Z</time></trkpt>
<trkpt lat="50.747971" lon="5.904118"><time>2026-05-06T19:48:17Z</time></trkpt>
<trkpt lat="50.747835" lon="5.904504"><time>2026-05-06T19:58:17Z</time></trkpt>
<trkpt lat="50.748457" lon="5.904843"><time>2026-05-06T20:08:17Z</time></trkpt>
<trkpt lat="50.748760" lon="5.905147"><time>2026-05-06T20:18:17Z</time></trkpt>
</trkseg></trk>
<trk>
<name>lpbsn65</name>
<cmt>r</cmt>
<desc>Sippenaeken Sentier n°65 Rue de Beusdael</desc>
<link href="https://chemins.be/sippenaeken/sentier/65"/><trkseg>
<trkpt lat="50.748760" lon="5.905147"><time>2026-05-06T20:18:17Z</time></trkpt>
<trkpt lat="50.748735" lon="5.905623"><time>2026-05-06T20:28:17Z</time></trkpt>
<trkpt lat="50.748922" lon="5.906035"><time>2026-05-06T20:38:17Z</time></trkpt>
</trkseg></trk>
<trk>
<name>lpbsn65</name>
<cmt>s</cmt>
<desc>Sippenaeken Sentier n°65 Rue de Beusdael</desc>
<link href="https://chemins.be/sippenaeken/sentier/65"/><trkseg>
<trkpt lat="50.748922" lon="5.906035"><time>2026-05-06T20:38:17Z</time></trkpt>
<trkpt lat="50.749302" lon="5.905963"><time>2026-05-06T20:48:17Z</time></trkpt>
<trkpt lat="50.749370" lon="5.906728"><time>2026-05-06T20:58:17Z</time></trkpt>
<trkpt lat="50.750411" lon="5.907422"><time>2026-05-06T21:08:17Z</time></trkpt>
<trkpt lat="50.751080" lon="5.909139"><time>2026-05-06T21:18:17Z</time></trkpt>
<trkpt lat="50.751996" lon="5.909985"><time>2026-05-06T21:28:17Z</time></trkpt>
<trkpt lat="50.755222" lon="5.911467"><time>2026-05-06T21:38:17Z</time></trkpt>
</trkseg>
</trk>
<trk>
<name>lpbsn66</name>
<cmt>s</cmt>
<desc>Sippenaeken Sentier n°66 </desc>
<link href="https://chemins.be/sippenaeken/sentier/66"/><trkseg>
<trkpt lat="50.748466" lon="5.908698"><time>2026-05-06T18:28:17Z</time></trkpt>
<trkpt lat="50.749851" lon="5.909741"><time>2026-05-06T18:38:17Z</time></trkpt>
<trkpt lat="50.749878" lon="5.909992"><time>2026-05-06T18:48:17Z</time></trkpt>
</trkseg></trk>
<trk>
<name>lpbsn66</name>
<cmt>d</cmt>
<desc>Sippenaeken Sentier n°66 </desc>
<link href="https://chemins.be/sippenaeken/sentier/66"/><trkseg>
<trkpt lat="50.749878" lon="5.909992"><time>2026-05-06T18:48:17Z</time></trkpt>
<trkpt lat="50.750589" lon="5.910442"><time>2026-05-06T18:58:17Z</time></trkpt>
<trkpt lat="50.750797" lon="5.911179"><time>2026-05-06T19:08:17Z</time></trkpt>
</trkseg></trk>
<trk>
<name>lpbsn66</name>
<cmt>v</cmt>
<desc>Sippenaeken Sentier n°66 </desc>
<link href="https://chemins.be/sippenaeken/sentier/66"/><trkseg>
<trkpt lat="50.750797" lon="5.911179"><time>2026-05-06T19:08:17Z</time></trkpt>
<trkpt lat="50.751536" lon="5.911422"><time>2026-05-06T19:18:17Z</time></trkpt>
<trkpt lat="50.751445" lon="5.912209"><time>2026-05-06T19:28:17Z</time></trkpt>
</trkseg></trk>
<trk>
<name>lpbsn66</name>
<cmt>d</cmt>
<desc>Sippenaeken Sentier n°66 </desc>
<link href="https://chemins.be/sippenaeken/sentier/66"/><trkseg>
<trkpt lat="50.751445" lon="5.912209"><time>2026-05-06T19:28:17Z</time></trkpt>
<trkpt lat="50.752945" lon="5.913931"><time>2026-05-06T19:38:17Z</time></trkpt>
<trkpt lat="50.754764" lon="5.915304"><time>2026-05-06T19:48:17Z</time></trkpt>
</trkseg>
</trk>
<trk>
<name>lpbsn67</name>
<cmt>s</cmt>
<desc>Sippenaeken Sentier n°67 </desc>
<link href="https://chemins.be/sippenaeken/sentier/67"/><trkseg>
<trkpt lat="50.751973" lon="5.909992"><time>2026-05-06T18:28:17Z</time></trkpt>
<trkpt lat="50.751643" lon="5.911458"><time>2026-05-06T18:38:17Z</time></trkpt>
</trkseg>
</trk>
<trk>
<name>lpbsn68</name>
<cmt>s</cmt>
<desc>Sippenaeken Sentier n°68 </desc>
<link href="https://chemins.be/sippenaeken/sentier/68"/><trkseg>
<trkpt lat="50.748487" lon="5.917177"><time>2026-05-06T18:28:17Z</time></trkpt>
<trkpt lat="50.749218" lon="5.916673"><time>2026-05-06T18:38:17Z</time></trkpt>
</trkseg>
</trk>
<trk>
<name>lpbsn7</name>
<cmt>v</cmt>
<desc>Sippenaeken Chemin n°7 </desc>
<link href="https://chemins.be/sippenaeken/chemin/7"/><trkseg>
<trkpt lat="50.744427" lon="5.936324"><time>2026-05-06T18:28:17Z</time></trkpt>
<trkpt lat="50.744704" lon="5.935580"><time>2026-05-06T18:38:17Z</time></trkpt>
<trkpt lat="50.744360" lon="5.933041"><time>2026-05-06T18:48:17Z</time></trkpt>
<trkpt lat="50.744440" lon="5.930226"><time>2026-05-06T18:58:17Z</time></trkpt>
</trkseg>
</trk>
<trk>
<name>lpbsn8</name>
<cmt>r</cmt>
<desc>Sippenaeken Chemin n°8 Terhaegen / Rue de Sippenaeken</desc>
<link href="https://chemins.be/sippenaeken/chemin/8"/><trkseg>
<trkpt lat="50.744452" lon="5.936329"><time>2026-05-06T18:28:17Z</time></trkpt>
<trkpt lat="50.743999" lon="5.935650"><time>2026-05-06T18:38:17Z</time></trkpt>
<trkpt lat="50.742250" lon="5.934654"><time>2026-05-06T18:48:17Z</time></trkpt>
<trkpt lat="50.741433" lon="5.934083"><time>2026-05-06T18:58:17Z</time></trkpt>
</trkseg>
</trk>
<trk>
<name>lpbsn9</name>
<cmt>s</cmt>
<desc>Sippenaeken Chemin n°9 </desc>
<link href="https://chemins.be/sippenaeken/chemin/9"/><trkseg>
<trkpt lat="50.744540" lon="5.939439"><time>2026-05-06T18:28:17Z</time></trkpt>
<trkpt lat="50.744381" lon="5.939881"><time>2026-05-06T18:38:17Z</time></trkpt>
<trkpt lat="50.744873" lon="5.941258"><time>2026-05-06T18:48:17Z</time></trkpt>
</trkseg>
</trk>
<trk>
<name>lpbsni1</name>
<cmt>v</cmt>
<desc>Sippenaeken Chemin n°i1 </desc>
<link href="https://chemins.be/sippenaeken/chemin/i1"/><trkseg>
<trkpt lat="50.740395" lon="5.910017"><time>2026-05-06T18:28:17Z</time></trkpt>
<trkpt lat="50.739373" lon="5.908811"><time>2026-05-06T18:38:17Z</time></trkpt>
</trkseg>
</trk>
<trk>
<name>lpbsni2</name>
<cmt>q</cmt>
<desc>Sippenaeken Chemin n°i2 </desc>
<link href="https://chemins.be/sippenaeken/chemin/i2"/><trkseg>
<trkpt lat="50.750642" lon="5.917434"><time>2026-05-06T18:28:17Z</time></trkpt>
<trkpt lat="50.749699" lon="5.917462"><time>2026-05-06T18:38:17Z</time></trkpt>
<trkpt lat="50.749452" lon="5.917446"><time>2026-05-06T18:48:17Z</time></trkpt>
<trkpt lat="50.749011" lon="5.917638"><time>2026-05-06T18:58:17Z</time></trkpt>
</trkseg>
</trk>
<trk>
<name>lpbsni3</name>
<cmt>r</cmt>
<desc>Sippenaeken Chemin n°i3 't Veld</desc>
<link href="https://chemins.be/sippenaeken/chemin/i3"/><trkseg>
<trkpt lat="50.751108" lon="5.922008"><time>2026-05-06T18:28:17Z</time></trkpt>
<trkpt lat="50.751248" lon="5.921749"><time>2026-05-06T18:38:17Z</time></trkpt>
<trkpt lat="50.751371" lon="5.921469"><time>2026-05-06T18:48:17Z</time></trkpt>
</trkseg>
</trk>
<trk>
<name>lpbsni5</name>
<cmt>v</cmt>
<desc>Sippenaeken Chemin n°i5 </desc>
<link href="https://chemins.be/sippenaeken/chemin/i5"/><trkseg>
<trkpt lat="50.750611" lon="5.891117"><time>2026-05-06T18:28:17Z</time></trkpt>
<trkpt lat="50.750661" lon="5.891582"><time>2026-05-06T18:38:17Z</time></trkpt>
<trkpt lat="50.751846" lon="5.892694"><time>2026-05-06T18:48:17Z</time></trkpt>
<trkpt lat="50.752278" lon="5.892626"><time>2026-05-06T18:58:17Z</time></trkpt>
<trkpt lat="50.752833" lon="5.893041"><time>2026-05-06T19:08:17Z</time></trkpt>
<trkpt lat="50.753254" lon="5.893506"><time>2026-05-06T19:18:17Z</time></trkpt>
<trkpt lat="50.753459" lon="5.894404"><time>2026-05-06T19:28:17Z</time></trkpt>
<trkpt lat="50.754030" lon="5.895527"><time>2026-05-06T19:38:17Z</time></trkpt>
</trkseg>
</trk>
<trk>
<name>lpbsni6</name>
<cmt>d</cmt>
<desc>Sippenaeken Sentier n°i6 </desc>
<link href="https://chemins.be/sippenaeken/sentier/i6"/><trkseg>
<trkpt lat="50.751566" lon="5.938155"><time>2026-05-06T18:28:17Z</time></trkpt>
<trkpt lat="50.753502" lon="5.936217"><time>2026-05-06T18:38:17Z</time></trkpt>
<trkpt lat="50.754324" lon="5.935824"><time>2026-05-06T18:48:17Z</time></trkpt>
</trkseg>
</trk>
<trk>
<name>lpbsni7</name>
<cmt>q</cmt>
<desc>Sippenaeken Sentier n°i7 </desc>
<link href="https://chemins.be/sippenaeken/sentier/i7"/><trkseg>
<trkpt lat="50.742304" lon="5.915256"><time>2026-05-06T18:28:17Z</time></trkpt>
<trkpt lat="50.743830" lon="5.915286"><time>2026-05-06T18:38:17Z</time></trkpt>
<trkpt lat="50.745382" lon="5.915533"><time>2026-05-06T18:48:17Z</time></trkpt>
<trkpt lat="50.746994" lon="5.916163"><time>2026-05-06T18:58:17Z</time></trkpt>
<trkpt lat="50.747473" lon="5.916048"><time>2026-05-06T19:08:17Z</time></trkpt>
</trkseg>
</trk>
<trk>
<name>lpbsni8</name>
<cmt>q</cmt>
<desc>Sippenaeken Chemin n°i8 </desc>
<link href="https://chemins.be/sippenaeken/chemin/i8"/><trkseg>
<trkpt lat="50.737117" lon="5.911270"><time>2026-05-06T18:28:17Z</time></trkpt>
<trkpt lat="50.737987" lon="5.911757"><time>2026-05-06T18:38:17Z</time></trkpt>
<trkpt lat="50.738294" lon="5.912717"><time>2026-05-06T18:48:17Z</time></trkpt>
<trkpt lat="50.738601" lon="5.914212"><time>2026-05-06T18:58:17Z</time></trkpt>
<trkpt lat="50.739389" lon="5.912839"><time>2026-05-06T19:08:17Z</time></trkpt>
</trkseg>
</trk>
<trk>
<name>lpbsni9</name>
<cmt>q</cmt>
<desc>Sippenaeken Chemin n°i9 </desc>
<link href="https://chemins.be/sippenaeken/chemin/i9"/><trkseg>
<trkpt lat="50.750397" lon="5.915075"><time>2026-05-06T18:28:17Z</time></trkpt>
<trkpt lat="50.751850" lon="5.914818"><time>2026-05-06T18:38:17Z</time></trkpt>
<trkpt lat="50.754166" lon="5.915390"><time>2026-05-06T18:48:17Z</time></trkpt>
<trkpt lat="50.754728" lon="5.915362"><time>2026-05-06T18:58:17Z</time></trkpt>
</trkseg>
</trk>
<trk>
<name>lpbsnp1</name>
<cmt>v</cmt>
<desc>Sippenaeken Chemin particulier n°p1 </desc>
<link href="https://chemins.be/sippenaeken/chemin/p1"/><trkseg>
<trkpt lat="50.741744" lon="5.912935"><time>2026-05-06T18:28:17Z</time></trkpt>
<trkpt lat="50.741010" lon="5.911879"><time>2026-05-06T18:38:17Z</time></trkpt>
<trkpt lat="50.740391" lon="5.910017"><time>2026-05-06T18:48:17Z</time></trkpt>
</trkseg>
</trk>
</gpx>